<?xml version="1.0" encoding="UTF-8" standalone="no" ?>
<gpx xmlns="http://www.topografix.com/GPX/1/1" xmlns:xsi="http://www.w3.org/2001/XMLSchema-instance" xsi:schemaLocation="http://www.topografix.com/GPX/1/1 http://www.topografix.com/GPX/1/1/gpx.xsd" version="1.1" creator="VisuGPX - https://www.visugpx.com">
  <metadata>
    <name>Belchamp Mandeure</name>
    <desc><![CDATA[Belchamp Mandeure]]></desc>
  </metadata>
  <wpt lat="47.49303" lon="6.75756">
    <ele>318</ele>
    <name><![CDATA[Point de cheminement 1]]></name>
    <desc><![CDATA[]]></desc>
  </wpt>
  <wpt lat="47.4762" lon="6.77493">
    <ele>314</ele>
    <name><![CDATA[Point de cheminement 2]]></name>
    <desc><![CDATA[]]></desc>
  </wpt>
  <wpt lat="47.46563" lon="6.78686">
    <ele>391</ele>
    <name><![CDATA[Point de cheminement 3]]></name>
    <desc><![CDATA[]]></desc>
  </wpt>
  <wpt lat="47.44788" lon="6.79984">
    <ele>356</ele>
    <name><![CDATA[Point de cheminement 4]]></name>
    <desc><![CDATA[]]></desc>
  </wpt>
  <wpt lat="47.43488" lon="6.79481">
    <ele>463</ele>
    <name><![CDATA[Point de cheminement 5]]></name>
    <desc><![CDATA[]]></desc>
  </wpt>
  <wpt lat="47.42227" lon="6.80024">
    <ele>530</ele>
    <name><![CDATA[Point de cheminement 6]]></name>
    <desc><![CDATA[]]></desc>
  </wpt>
  <wpt lat="47.43616" lon="6.81423">
    <ele>389</ele>
    <name><![CDATA[Point de cheminement 7]]></name>
    <desc><![CDATA[]]></desc>
  </wpt>
  <wpt lat="47.45427" lon="6.78511">
    <ele>344</ele>
    <name><![CDATA[Point de cheminement 8]]></name>
    <desc><![CDATA[]]></desc>
  </wpt>
  <wpt lat="47.47169" lon="6.7847">
    <ele>360</ele>
    <name><![CDATA[Point de cheminement 9]]></name>
    <desc><![CDATA[]]></desc>
  </wpt>
  <wpt lat="47.49177" lon="6.77336">
    <ele>310</ele>
    <name><![CDATA[Point de cheminement 10]]></name>
    <desc><![CDATA[]]></desc>
  </wpt>
  <wpt lat="47.5168" lon="6.77771">
    <ele>385</ele>
    <name><![CDATA[Point de cheminement 11]]></name>
    <desc><![CDATA[]]></desc>
  </wpt>
  <trk>
    <name><![CDATA[Rue Antoine Coysevox]]></name>
    <desc><![CDATA[]]></desc>
    <trkseg>
      <trkpt lat="47.51801" lon="6.77505">
        <ele>389</ele>
        <time>2016-05-29T07:17:42.447Z</time>
      </trkpt>
      <trkpt lat="47.51802" lon="6.77509">
        <ele>389</ele>
        <time>2016-05-29T07:17:43.447Z</time>
      </trkpt>
      <trkpt lat="47.51797" lon="6.77489">
        <ele>388</ele>
        <time>2016-05-29T07:17:44.447Z</time>
      </trkpt>
      <trkpt lat="47.51794" lon="6.77483">
        <ele>388</ele>
        <time>2016-05-29T07:17:45.447Z</time>
      </trkpt>
      <trkpt lat="47.51797" lon="6.7748">
        <ele>388</ele>
        <time>2016-05-29T07:17:46.447Z</time>
      </trkpt>
      <trkpt lat="47.518" lon="6.77492">
        <ele>388</ele>
        <time>2016-05-29T07:17:47.447Z</time>
      </trkpt>
      <trkpt lat="47.51799" lon="6.77493">
        <ele>388</ele>
        <time>2016-05-29T07:17:48.447Z</time>
      </trkpt>
      <trkpt lat="47.51791" lon="6.77494">
        <ele>388</ele>
        <time>2016-05-29T07:17:49.447Z</time>
      </trkpt>
      <trkpt lat="47.51796" lon="6.77481">
        <ele>388</ele>
        <time>2016-05-29T07:17:50.447Z</time>
      </trkpt>
      <trkpt lat="47.51787" lon="6.77486">
        <ele>388</ele>
        <time>2016-05-29T07:17:51.450Z</time>
      </trkpt>
      <trkpt lat="47.5179" lon="6.77487">
        <ele>388</ele>
        <time>2016-05-29T07:17:55.000Z</time>
      </trkpt>
      <trkpt lat="47.51793" lon="6.77485">
        <ele>388</ele>
        <time>2016-05-29T07:17:56.000Z</time>
      </trkpt>
      <trkpt lat="47.51797" lon="6.77483">
        <ele>388</ele>
        <time>2016-05-29T07:18:05.000Z</time>
      </trkpt>
      <trkpt lat="47.51797" lon="6.77483">
        <ele>388</ele>
        <time>2016-05-29T07:18:06.000Z</time>
      </trkpt>
      <trkpt lat="47.51794" lon="6.77484">
        <ele>388</ele>
        <time>2016-05-29T07:18:13.000Z</time>
      </trkpt>
      <trkpt lat="47.51792" lon="6.77484">
        <ele>388</ele>
        <time>2016-05-29T07:18:14.000Z</time>
      </trkpt>
      <trkpt lat="47.51789" lon="6.77484">
        <ele>388</ele>
        <time>2016-05-29T07:18:15.000Z</time>
      </trkpt>
      <trkpt lat="47.51787" lon="6.77483">
        <ele>388</ele>
        <time>2016-05-29T07:18:16.000Z</time>
      </trkpt>
      <trkpt lat="47.51784" lon="6.77482">
        <ele>388</ele>
        <time>2016-05-29T07:18:17.000Z</time>
      </trkpt>
      <trkpt lat="47.51781" lon="6.77481">
        <ele>388</ele>
        <time>2016-05-29T07:18:18.000Z</time>
      </trkpt>
      <trkpt lat="47.51778" lon="6.7748">
        <ele>388</ele>
        <time>2016-05-29T07:18:19.000Z</time>
      </trkpt>
      <trkpt lat="47.51776" lon="6.77479">
        <ele>388</ele>
        <time>2016-05-29T07:18:20.000Z</time>
      </trkpt>
      <trkpt lat="47.51773" lon="6.77479">
        <ele>388</ele>
        <time>2016-05-29T07:18:21.000Z</time>
      </trkpt>
      <trkpt lat="47.5177" lon="6.77478">
        <ele>388</ele>
        <time>2016-05-29T07:18:22.000Z</time>
      </trkpt>
      <trkpt lat="47.51767" lon="6.77466">
        <ele>388</ele>
        <time>2016-05-29T07:18:23.000Z</time>
      </trkpt>
      <trkpt lat="47.51765" lon="6.77464">
        <ele>388</ele>
        <time>2016-05-29T07:18:24.000Z</time>
      </trkpt>
      <trkpt lat="47.51761" lon="6.77466">
        <ele>388</ele>
        <time>2016-05-29T07:18:25.000Z</time>
      </trkpt>
      <trkpt lat="47.51757" lon="6.77466">
        <ele>388</ele>
        <time>2016-05-29T07:18:26.000Z</time>
      </trkpt>
      <trkpt lat="47.51753" lon="6.77468">
        <ele>388</ele>
        <time>2016-05-29T07:18:27.000Z</time>
      </trkpt>
      <trkpt lat="47.5175" lon="6.7747">
        <ele>388</ele>
        <time>2016-05-29T07:18:28.000Z</time>
      </trkpt>
      <trkpt lat="47.51747" lon="6.77469">
        <ele>389</ele>
        <time>2016-05-29T07:18:29.000Z</time>
      </trkpt>
      <trkpt lat="47.51743" lon="6.77469">
        <ele>389</ele>
        <time>2016-05-29T07:18:30.000Z</time>
      </trkpt>
      <trkpt lat="47.5174" lon="6.77469">
        <ele>389</ele>
        <time>2016-05-29T07:18:31.000Z</time>
      </trkpt>
      <trkpt lat="47.51736" lon="6.77468">
        <ele>389</ele>
        <time>2016-05-29T07:18:32.000Z</time>
      </trkpt>
      <trkpt lat="47.5173" lon="6.77469">
        <ele>389</ele>
        <time>2016-05-29T07:18:33.000Z</time>
      </trkpt>
      <trkpt lat="47.51733" lon="6.77486">
        <ele>389</ele>
        <time>2016-05-29T07:18:34.000Z</time>
      </trkpt>
      <trkpt lat="47.51731" lon="6.77491">
        <ele>389</ele>
        <time>2016-05-29T07:18:35.000Z</time>
      </trkpt>
      <trkpt lat="47.51729" lon="6.77496">
        <ele>389</ele>
        <time>2016-05-29T07:18:36.000Z</time>
      </trkpt>
      <trkpt lat="47.51727" lon="6.77501">
        <ele>390</ele>
        <time>2016-05-29T07:18:37.000Z</time>
      </trkpt>
      <trkpt lat="47.51725" lon="6.77504">
        <ele>390</ele>
        <time>2016-05-29T07:18:38.000Z</time>
      </trkpt>
      <trkpt lat="47.51722" lon="6.77507">
        <ele>390</ele>
        <time>2016-05-29T07:18:39.000Z</time>
      </trkpt>
      <trkpt lat="47.5172" lon="6.77509">
        <ele>390</ele>
        <time>2016-05-29T07:18:40.000Z</time>
      </trkpt>
      <trkpt lat="47.51717" lon="6.77513">
        <ele>390</ele>
        <time>2016-05-29T07:18:41.000Z</time>
      </trkpt>
      <trkpt lat="47.51715" lon="6.77521">
        <ele>390</ele>
        <time>2016-05-29T07:18:42.000Z</time>
      </trkpt>
      <trkpt lat="47.51713" lon="6.77527">
        <ele>390</ele>
        <time>2016-05-29T07:18:43.000Z</time>
      </trkpt>
      <trkpt lat="47.51712" lon="6.77532">
        <ele>390</ele>
        <time>2016-05-29T07:18:44.000Z</time>
      </trkpt>
      <trkpt lat="47.51711" lon="6.77539">
        <ele>390</ele>
        <time>2016-05-29T07:18:45.000Z</time>
      </trkpt>
      <trkpt lat="47.5171" lon="6.77544">
        <ele>390</ele>
        <time>2016-05-29T07:18:46.000Z</time>
      </trkpt>
      <trkpt lat="47.51709" lon="6.77549">
        <ele>390</ele>
        <time>2016-05-29T07:18:47.000Z</time>
      </trkpt>
      <trkpt lat="47.51707" lon="6.77552">
        <ele>390</ele>
        <time>2016-05-29T07:18:48.000Z</time>
      </trkpt>
      <trkpt lat="47.51704" lon="6.77552">
        <ele>390</ele>
        <time>2016-05-29T07:18:49.000Z</time>
      </trkpt>
      <trkpt lat="47.51701" lon="6.7755">
        <ele>390</ele>
        <time>2016-05-29T07:18:50.000Z</time>
      </trkpt>
      <trkpt lat="47.51697" lon="6.77547">
        <ele>390</ele>
        <time>2016-05-29T07:18:51.000Z</time>
      </trkpt>
      <trkpt lat="47.51693" lon="6.77541">
        <ele>390</ele>
        <time>2016-05-29T07:18:52.000Z</time>
      </trkpt>
      <trkpt lat="47.5169" lon="6.77536">
        <ele>390</ele>
        <time>2016-05-29T07:18:53.000Z</time>
      </trkpt>
      <trkpt lat="47.51686" lon="6.77531">
        <ele>390</ele>
        <time>2016-05-29T07:18:54.000Z</time>
      </trkpt>
      <trkpt lat="47.51682" lon="6.77526">
        <ele>390</ele>
        <time>2016-05-29T07:18:55.000Z</time>
      </trkpt>
      <trkpt lat="47.51677" lon="6.77518">
        <ele>390</ele>
        <time>2016-05-29T07:18:56.000Z</time>
      </trkpt>
      <trkpt lat="47.51674" lon="6.77513">
        <ele>389</ele>
        <time>2016-05-29T07:18:57.000Z</time>
      </trkpt>
      <trkpt lat="47.51669" lon="6.77509">
        <ele>389</ele>
        <time>2016-05-29T07:18:58.000Z</time>
      </trkpt>
      <trkpt lat="47.51665" lon="6.77502">
        <ele>389</ele>
        <time>2016-05-29T07:18:59.000Z</time>
      </trkpt>
      <trkpt lat="47.51661" lon="6.77497">
        <ele>388</ele>
        <time>2016-05-29T07:19:00.000Z</time>
      </trkpt>
      <trkpt lat="47.51656" lon="6.77493">
        <ele>388</ele>
        <time>2016-05-29T07:19:01.000Z</time>
      </trkpt>
      <trkpt lat="47.51652" lon="6.77487">
        <ele>387</ele>
        <time>2016-05-29T07:19:02.000Z</time>
      </trkpt>
      <trkpt lat="47.51648" lon="6.77482">
        <ele>387</ele>
        <time>2016-05-29T07:19:03.000Z</time>
      </trkpt>
      <trkpt lat="47.51644" lon="6.77476">
        <ele>387</ele>
        <time>2016-05-29T07:19:04.000Z</time>
      </trkpt>
      <trkpt lat="47.5164" lon="6.77471">
        <ele>386</ele>
        <time>2016-05-29T07:19:05.000Z</time>
      </trkpt>
      <trkpt lat="47.51636" lon="6.77466">
        <ele>386</ele>
        <time>2016-05-29T07:19:06.000Z</time>
      </trkpt>
      <trkpt lat="47.51631" lon="6.77461">
        <ele>386</ele>
        <time>2016-05-29T07:19:07.000Z</time>
      </trkpt>
      <trkpt lat="47.51626" lon="6.77455">
        <ele>386</ele>
        <time>2016-05-29T07:19:08.000Z</time>
      </trkpt>
      <trkpt lat="47.5162" lon="6.77449">
        <ele>386</ele>
        <time>2016-05-29T07:19:09.000Z</time>
      </trkpt>
      <trkpt lat="47.51616" lon="6.77444">
        <ele>385</ele>
        <time>2016-05-29T07:19:10.000Z</time>
      </trkpt>
      <trkpt lat="47.5161" lon="6.77438">
        <ele>385</ele>
        <time>2016-05-29T07:19:11.000Z</time>
      </trkpt>
      <trkpt lat="47.51605" lon="6.77432">
        <ele>385</ele>
        <time>2016-05-29T07:19:12.000Z</time>
      </trkpt>
      <trkpt lat="47.51599" lon="6.77426">
        <ele>384</ele>
        <time>2016-05-29T07:19:13.000Z</time>
      </trkpt>
      <trkpt lat="47.51594" lon="6.7742">
        <ele>384</ele>
        <time>2016-05-29T07:19:14.000Z</time>
      </trkpt>
      <trkpt lat="47.51589" lon="6.77414">
        <ele>383</ele>
        <time>2016-05-29T07:19:15.000Z</time>
      </trkpt>
      <trkpt lat="47.51583" lon="6.77407">
        <ele>382</ele>
        <time>2016-05-29T07:19:16.000Z</time>
      </trkpt>
      <trkpt lat="47.51577" lon="6.77401">
        <ele>382</ele>
        <time>2016-05-29T07:19:17.000Z</time>
      </trkpt>
      <trkpt lat="47.51572" lon="6.77394">
        <ele>381</ele>
        <time>2016-05-29T07:19:18.000Z</time>
      </trkpt>
      <trkpt lat="47.51567" lon="6.77388">
        <ele>381</ele>
        <time>2016-05-29T07:19:19.000Z</time>
      </trkpt>
      <trkpt lat="47.51561" lon="6.77382">
        <ele>381</ele>
        <time>2016-05-29T07:19:20.000Z</time>
      </trkpt>
      <trkpt lat="47.51556" lon="6.77376">
        <ele>381</ele>
        <time>2016-05-29T07:19:21.000Z</time>
      </trkpt>
      <trkpt lat="47.51551" lon="6.77369">
        <ele>381</ele>
        <time>2016-05-29T07:19:22.000Z</time>
      </trkpt>
      <trkpt lat="47.51545" lon="6.77362">
        <ele>380</ele>
        <time>2016-05-29T07:19:23.000Z</time>
      </trkpt>
      <trkpt lat="47.51539" lon="6.77355">
        <ele>380</ele>
        <time>2016-05-29T07:19:24.000Z</time>
      </trkpt>
      <trkpt lat="47.51533" lon="6.77348">
        <ele>380</ele>
        <time>2016-05-29T07:19:25.000Z</time>
      </trkpt>
      <trkpt lat="47.51527" lon="6.77341">
        <ele>380</ele>
        <time>2016-05-29T07:19:26.000Z</time>
      </trkpt>
      <trkpt lat="47.51521" lon="6.77333">
        <ele>378</ele>
        <time>2016-05-29T07:19:27.000Z</time>
      </trkpt>
      <trkpt lat="47.51514" lon="6.77325">
        <ele>378</ele>
        <time>2016-05-29T07:19:28.000Z</time>
      </trkpt>
      <trkpt lat="47.51507" lon="6.77316">
        <ele>378</ele>
        <time>2016-05-29T07:19:29.000Z</time>
      </trkpt>
      <trkpt lat="47.51501" lon="6.77308">
        <ele>378</ele>
        <time>2016-05-29T07:19:30.000Z</time>
      </trkpt>
      <trkpt lat="47.51495" lon="6.77297">
        <ele>377</ele>
        <time>2016-05-29T07:19:31.000Z</time>
      </trkpt>
      <trkpt lat="47.51492" lon="6.77285">
        <ele>377</ele>
        <time>2016-05-29T07:19:32.000Z</time>
      </trkpt>
      <trkpt lat="47.5149" lon="6.77273">
        <ele>377</ele>
        <time>2016-05-29T07:19:33.000Z</time>
      </trkpt>
      <trkpt lat="47.51488" lon="6.77262">
        <ele>376</ele>
        <time>2016-05-29T07:19:34.000Z</time>
      </trkpt>
      <trkpt lat="47.51487" lon="6.7725">
        <ele>376</ele>
        <time>2016-05-29T07:19:35.000Z</time>
      </trkpt>
      <trkpt lat="47.51487" lon="6.77238">
        <ele>375</ele>
        <time>2016-05-29T07:19:36.000Z</time>
      </trkpt>
      <trkpt lat="47.51486" lon="6.77227">
        <ele>375</ele>
        <time>2016-05-29T07:19:37.000Z</time>
      </trkpt>
      <trkpt lat="47.51485" lon="6.77217">
        <ele>375</ele>
        <time>2016-05-29T07:19:38.000Z</time>
      </trkpt>
      <trkpt lat="47.51484" lon="6.77207">
        <ele>375</ele>
        <time>2016-05-29T07:19:39.000Z</time>
      </trkpt>
      <trkpt lat="47.51478" lon="6.77199">
        <ele>375</ele>
        <time>2016-05-29T07:19:40.000Z</time>
      </trkpt>
      <trkpt lat="47.51471" lon="6.77195">
        <ele>375</ele>
        <time>2016-05-29T07:19:41.000Z</time>
      </trkpt>
      <trkpt lat="47.51465" lon="6.77194">
        <ele>375</ele>
        <time>2016-05-29T07:19:42.000Z</time>
      </trkpt>
      <trkpt lat="47.51457" lon="6.772">
        <ele>375</ele>
        <time>2016-05-29T07:19:43.000Z</time>
      </trkpt>
      <trkpt lat="47.51449" lon="6.77203">
        <ele>375</ele>
        <time>2016-05-29T07:19:44.000Z</time>
      </trkpt>
      <trkpt lat="47.51443" lon="6.77207">
        <ele>375</ele>
        <time>2016-05-29T07:19:45.000Z</time>
      </trkpt>
      <trkpt lat="47.51435" lon="6.77212">
        <ele>375</ele>
        <time>2016-05-29T07:19:46.000Z</time>
      </trkpt>
      <trkpt lat="47.51428" lon="6.77214">
        <ele>375</ele>
        <time>2016-05-29T07:19:47.000Z</time>
      </trkpt>
      <trkpt lat="47.51421" lon="6.77217">
        <ele>375</ele>
        <time>2016-05-29T07:19:48.000Z</time>
      </trkpt>
      <trkpt lat="47.51415" lon="6.7722">
        <ele>376</ele>
        <time>2016-05-29T07:19:49.000Z</time>
      </trkpt>
      <trkpt lat="47.51409" lon="6.77224">
        <ele>376</ele>
        <time>2016-05-29T07:19:50.000Z</time>
      </trkpt>
      <trkpt lat="47.51403" lon="6.77227">
        <ele>376</ele>
        <time>2016-05-29T07:19:51.000Z</time>
      </trkpt>
      <trkpt lat="47.51397" lon="6.7723">
        <ele>376</ele>
        <time>2016-05-29T07:19:52.000Z</time>
      </trkpt>
      <trkpt lat="47.51391" lon="6.77233">
        <ele>376</ele>
        <time>2016-05-29T07:19:53.000Z</time>
      </trkpt>
      <trkpt lat="47.51387" lon="6.77233">
        <ele>376</ele>
        <time>2016-05-29T07:19:54.000Z</time>
      </trkpt>
      <trkpt lat="47.51382" lon="6.77235">
        <ele>376</ele>
        <time>2016-05-29T07:19:55.000Z</time>
      </trkpt>
      <trkpt lat="47.51378" lon="6.77238">
        <ele>376</ele>
        <time>2016-05-29T07:19:56.000Z</time>
      </trkpt>
      <trkpt lat="47.51373" lon="6.7724">
        <ele>376</ele>
        <time>2016-05-29T07:19:57.000Z</time>
      </trkpt>
      <trkpt lat="47.51369" lon="6.77242">
        <ele>376</ele>
        <time>2016-05-29T07:19:58.000Z</time>
      </trkpt>
      <trkpt lat="47.51365" lon="6.77245">
        <ele>376</ele>
        <time>2016-05-29T07:19:59.000Z</time>
      </trkpt>
      <trkpt lat="47.51362" lon="6.77248">
        <ele>376</ele>
        <time>2016-05-29T07:20:00.000Z</time>
      </trkpt>
      <trkpt lat="47.51358" lon="6.7725">
        <ele>378</ele>
        <time>2016-05-29T07:20:01.000Z</time>
      </trkpt>
      <trkpt lat="47.51355" lon="6.77253">
        <ele>378</ele>
        <time>2016-05-29T07:20:02.000Z</time>
      </trkpt>
      <trkpt lat="47.51352" lon="6.77256">
        <ele>378</ele>
        <time>2016-05-29T07:20:03.000Z</time>
      </trkpt>
      <trkpt lat="47.51349" lon="6.7726">
        <ele>378</ele>
        <time>2016-05-29T07:20:04.000Z</time>
      </trkpt>
      <trkpt lat="47.51347" lon="6.77264">
        <ele>378</ele>
        <time>2016-05-29T07:20:05.000Z</time>
      </trkpt>
      <trkpt lat="47.51345" lon="6.77267">
        <ele>378</ele>
        <time>2016-05-29T07:20:06.000Z</time>
      </trkpt>
      <trkpt lat="47.51343" lon="6.77268">
        <ele>378</ele>
        <time>2016-05-29T07:20:07.000Z</time>
      </trkpt>
      <trkpt lat="47.5134" lon="6.77271">
        <ele>378</ele>
        <time>2016-05-29T07:20:08.000Z</time>
      </trkpt>
      <trkpt lat="47.51338" lon="6.77273">
        <ele>378</ele>
        <time>2016-05-29T07:20:09.000Z</time>
      </trkpt>
      <trkpt lat="47.51335" lon="6.77275">
        <ele>378</ele>
        <time>2016-05-29T07:20:10.000Z</time>
      </trkpt>
      <trkpt lat="47.51333" lon="6.77277">
        <ele>377</ele>
        <time>2016-05-29T07:20:11.000Z</time>
      </trkpt>
      <trkpt lat="47.5133" lon="6.77278">
        <ele>377</ele>
        <time>2016-05-29T07:20:12.000Z</time>
      </trkpt>
      <trkpt lat="47.51328" lon="6.7728">
        <ele>377</ele>
        <time>2016-05-29T07:20:13.000Z</time>
      </trkpt>
      <trkpt lat="47.51325" lon="6.77281">
        <ele>377</ele>
        <time>2016-05-29T07:20:14.000Z</time>
      </trkpt>
      <trkpt lat="47.51322" lon="6.77282">
        <ele>377</ele>
        <time>2016-05-29T07:20:15.000Z</time>
      </trkpt>
      <trkpt lat="47.51319" lon="6.77282">
        <ele>377</ele>
        <time>2016-05-29T07:20:16.000Z</time>
      </trkpt>
      <trkpt lat="47.51315" lon="6.77281">
        <ele>377</ele>
        <time>2016-05-29T07:20:17.000Z</time>
      </trkpt>
      <trkpt lat="47.51312" lon="6.7728">
        <ele>377</ele>
        <time>2016-05-29T07:20:18.000Z</time>
      </trkpt>
      <trkpt lat="47.51308" lon="6.77278">
        <ele>377</ele>
        <time>2016-05-29T07:20:19.000Z</time>
      </trkpt>
      <trkpt lat="47.51305" lon="6.77276">
        <ele>377</ele>
        <time>2016-05-29T07:20:20.000Z</time>
      </trkpt>
      <trkpt lat="47.51302" lon="6.77274">
        <ele>377</ele>
        <time>2016-05-29T07:20:21.000Z</time>
      </trkpt>
      <trkpt lat="47.51298" lon="6.77273">
        <ele>377</ele>
        <time>2016-05-29T07:20:22.000Z</time>
      </trkpt>
      <trkpt lat="47.51295" lon="6.77271">
        <ele>377</ele>
        <time>2016-05-29T07:20:22.998Z</time>
      </trkpt>
      <trkpt lat="47.51292" lon="6.77269">
        <ele>377</ele>
        <time>2016-05-29T07:20:24.000Z</time>
      </trkpt>
      <trkpt lat="47.51289" lon="6.77267">
        <ele>377</ele>
        <time>2016-05-29T07:20:25.000Z</time>
      </trkpt>
      <trkpt lat="47.51286" lon="6.77266">
        <ele>377</ele>
        <time>2016-05-29T07:20:26.000Z</time>
      </trkpt>
      <trkpt lat="47.51284" lon="6.77263">
        <ele>377</ele>
        <time>2016-05-29T07:20:27.000Z</time>
      </trkpt>
      <trkpt lat="47.51281" lon="6.77261">
        <ele>377</ele>
        <time>2016-05-29T07:20:28.000Z</time>
      </trkpt>
      <trkpt lat="47.51278" lon="6.77259">
        <ele>377</ele>
        <time>2016-05-29T07:20:28.999Z</time>
      </trkpt>
      <trkpt lat="47.51275" lon="6.77257">
        <ele>377</ele>
        <time>2016-05-29T07:20:30.000Z</time>
      </trkpt>
      <trkpt lat="47.51272" lon="6.77255">
        <ele>377</ele>
        <time>2016-05-29T07:20:31.000Z</time>
      </trkpt>
      <trkpt lat="47.51268" lon="6.77254">
        <ele>378</ele>
        <time>2016-05-29T07:20:32.000Z</time>
      </trkpt>
      <trkpt lat="47.51265" lon="6.77253">
        <ele>378</ele>
        <time>2016-05-29T07:20:33.000Z</time>
      </trkpt>
      <trkpt lat="47.51262" lon="6.77251">
        <ele>378</ele>
        <time>2016-05-29T07:20:34.000Z</time>
      </trkpt>
      <trkpt lat="47.51259" lon="6.77249">
        <ele>379</ele>
        <time>2016-05-29T07:20:35.000Z</time>
      </trkpt>
      <trkpt lat="47.51256" lon="6.77247">
        <ele>379</ele>
        <time>2016-05-29T07:20:36.000Z</time>
      </trkpt>
      <trkpt lat="47.51253" lon="6.77243">
        <ele>379</ele>
        <time>2016-05-29T07:20:37.000Z</time>
      </trkpt>
      <trkpt lat="47.5125" lon="6.77239">
        <ele>379</ele>
        <time>2016-05-29T07:20:38.000Z</time>
      </trkpt>
      <trkpt lat="47.51247" lon="6.77232">
        <ele>377</ele>
        <time>2016-05-29T07:20:39.000Z</time>
      </trkpt>
      <trkpt lat="47.51244" lon="6.77224">
        <ele>376</ele>
        <time>2016-05-29T07:20:40.000Z</time>
      </trkpt>
      <trkpt lat="47.5124" lon="6.7722">
        <ele>376</ele>
        <time>2016-05-29T07:20:41.000Z</time>
      </trkpt>
      <trkpt lat="47.51238" lon="6.77215">
        <ele>376</ele>
        <time>2016-05-29T07:20:42.000Z</time>
      </trkpt>
      <trkpt lat="47.51236" lon="6.77209">
        <ele>376</ele>
        <time>2016-05-29T07:20:43.000Z</time>
      </trkpt>
      <trkpt lat="47.51234" lon="6.77202">
        <ele>376</ele>
        <time>2016-05-29T07:20:44.000Z</time>
      </trkpt>
      <trkpt lat="47.51231" lon="6.77196">
        <ele>376</ele>
        <time>2016-05-29T07:20:45.000Z</time>
      </trkpt>
      <trkpt lat="47.51229" lon="6.7719">
        <ele>376</ele>
        <time>2016-05-29T07:20:46.000Z</time>
      </trkpt>
      <trkpt lat="47.51227" lon="6.77184">
        <ele>376</ele>
        <time>2016-05-29T07:20:47.000Z</time>
      </trkpt>
      <trkpt lat="47.51224" lon="6.77174">
        <ele>377</ele>
        <time>2016-05-29T07:20:48.000Z</time>
      </trkpt>
      <trkpt lat="47.5122" lon="6.77167">
        <ele>377</ele>
        <time>2016-05-29T07:20:49.000Z</time>
      </trkpt>
      <trkpt lat="47.51217" lon="6.77161">
        <ele>378</ele>
        <time>2016-05-29T07:20:50.000Z</time>
      </trkpt>
      <trkpt lat="47.51211" lon="6.77152">
        <ele>378</ele>
        <time>2016-05-29T07:20:51.000Z</time>
      </trkpt>
      <trkpt lat="47.51207" lon="6.77144">
        <ele>378</ele>
        <time>2016-05-29T07:20:52.000Z</time>
      </trkpt>
      <trkpt lat="47.51202" lon="6.77137">
        <ele>378</ele>
        <time>2016-05-29T07:20:53.000Z</time>
      </trkpt>
      <trkpt lat="47.51197" lon="6.77129">
        <ele>378</ele>
        <time>2016-05-29T07:20:54.000Z</time>
      </trkpt>
      <trkpt lat="47.51193" lon="6.77122">
        <ele>378</ele>
        <time>2016-05-29T07:20:54.999Z</time>
      </trkpt>
      <trkpt lat="47.5119" lon="6.77114">
        <ele>378</ele>
        <time>2016-05-29T07:20:56.000Z</time>
      </trkpt>
      <trkpt lat="47.51185" lon="6.77106">
        <ele>378</ele>
        <time>2016-05-29T07:20:57.000Z</time>
      </trkpt>
      <trkpt lat="47.5118" lon="6.77097">
        <ele>378</ele>
        <time>2016-05-29T07:20:58.000Z</time>
      </trkpt>
      <trkpt lat="47.51177" lon="6.77089">
        <ele>378</ele>
        <time>2016-05-29T07:20:59.000Z</time>
      </trkpt>
      <trkpt lat="47.51173" lon="6.77079">
        <ele>377</ele>
        <time>2016-05-29T07:21:00.000Z</time>
      </trkpt>
      <trkpt lat="47.51169" lon="6.7707">
        <ele>377</ele>
        <time>2016-05-29T07:21:01.000Z</time>
      </trkpt>
      <trkpt lat="47.51164" lon="6.77063">
        <ele>376</ele>
        <time>2016-05-29T07:21:02.000Z</time>
      </trkpt>
      <trkpt lat="47.51159" lon="6.77056">
        <ele>376</ele>
        <time>2016-05-29T07:21:03.000Z</time>
      </trkpt>
      <trkpt lat="47.51152" lon="6.7705">
        <ele>376</ele>
        <time>2016-05-29T07:21:04.000Z</time>
      </trkpt>
      <trkpt lat="47.51147" lon="6.77044">
        <ele>376</ele>
        <time>2016-05-29T07:21:05.000Z</time>
      </trkpt>
      <trkpt lat="47.51141" lon="6.77039">
        <ele>375</ele>
        <time>2016-05-29T07:21:06.000Z</time>
      </trkpt>
      <trkpt lat="47.51136" lon="6.77033">
        <ele>375</ele>
        <time>2016-05-29T07:21:07.002Z</time>
      </trkpt>
      <trkpt lat="47.51131" lon="6.77027">
        <ele>375</ele>
        <time>2016-05-29T07:21:08.000Z</time>
      </trkpt>
      <trkpt lat="47.51125" lon="6.77021">
        <ele>375</ele>
        <time>2016-05-29T07:21:09.000Z</time>
      </trkpt>
      <trkpt lat="47.51121" lon="6.77015">
        <ele>375</ele>
        <time>2016-05-29T07:21:10.000Z</time>
      </trkpt>
      <trkpt lat="47.51114" lon="6.77011">
        <ele>375</ele>
        <time>2016-05-29T07:21:11.000Z</time>
      </trkpt>
      <trkpt lat="47.51108" lon="6.77006">
        <ele>375</ele>
        <time>2016-05-29T07:21:12.000Z</time>
      </trkpt>
      <trkpt lat="47.51103" lon="6.77">
        <ele>375</ele>
        <time>2016-05-29T07:21:13.000Z</time>
      </trkpt>
      <trkpt lat="47.51097" lon="6.76995">
        <ele>375</ele>
        <time>2016-05-29T07:21:14.000Z</time>
      </trkpt>
      <trkpt lat="47.51089" lon="6.76994">
        <ele>375</ele>
        <time>2016-05-29T07:21:15.000Z</time>
      </trkpt>
      <trkpt lat="47.51084" lon="6.76988">
        <ele>375</ele>
        <time>2016-05-29T07:21:16.000Z</time>
      </trkpt>
      <trkpt lat="47.51078" lon="6.76984">
        <ele>375</ele>
        <time>2016-05-29T07:21:17.000Z</time>
      </trkpt>
      <trkpt lat="47.51071" lon="6.76983">
        <ele>375</ele>
        <time>2016-05-29T07:21:18.000Z</time>
      </trkpt>
      <trkpt lat="47.51065" lon="6.76976">
        <ele>375</ele>
        <time>2016-05-29T07:21:19.000Z</time>
      </trkpt>
      <trkpt lat="47.51058" lon="6.76973">
        <ele>375</ele>
        <time>2016-05-29T07:21:20.000Z</time>
      </trkpt>
      <trkpt lat="47.51053" lon="6.76969">
        <ele>375</ele>
        <time>2016-05-29T07:21:21.000Z</time>
      </trkpt>
      <trkpt lat="47.51049" lon="6.76961">
        <ele>375</ele>
        <time>2016-05-29T07:21:22.000Z</time>
      </trkpt>
      <trkpt lat="47.51044" lon="6.76957">
        <ele>375</ele>
        <time>2016-05-29T07:21:23.000Z</time>
      </trkpt>
      <trkpt lat="47.51035" lon="6.76952">
        <ele>375</ele>
        <time>2016-05-29T07:21:24.000Z</time>
      </trkpt>
      <trkpt lat="47.51028" lon="6.76949">
        <ele>375</ele>
        <time>2016-05-29T07:21:25.000Z</time>
      </trkpt>
      <trkpt lat="47.51025" lon="6.7694">
        <ele>375</ele>
        <time>2016-05-29T07:21:26.000Z</time>
      </trkpt>
      <trkpt lat="47.51021" lon="6.76934">
        <ele>375</ele>
        <time>2016-05-29T07:21:27.000Z</time>
      </trkpt>
      <trkpt lat="47.51016" lon="6.76929">
        <ele>375</ele>
        <time>2016-05-29T07:21:28.000Z</time>
      </trkpt>
      <trkpt lat="47.51014" lon="6.76924">
        <ele>375</ele>
        <time>2016-05-29T07:21:29.000Z</time>
      </trkpt>
      <trkpt lat="47.51009" lon="6.7692">
        <ele>376</ele>
        <time>2016-05-29T07:21:30.000Z</time>
      </trkpt>
      <trkpt lat="47.51005" lon="6.76916">
        <ele>376</ele>
        <time>2016-05-29T07:21:31.000Z</time>
      </trkpt>
      <trkpt lat="47.51001" lon="6.76912">
        <ele>376</ele>
        <time>2016-05-29T07:21:32.000Z</time>
      </trkpt>
      <trkpt lat="47.50999" lon="6.76907">
        <ele>376</ele>
        <time>2016-05-29T07:21:33.000Z</time>
      </trkpt>
      <trkpt lat="47.50997" lon="6.76899">
        <ele>377</ele>
        <time>2016-05-29T07:21:34.000Z</time>
      </trkpt>
      <trkpt lat="47.50992" lon="6.76896">
        <ele>377</ele>
        <time>2016-05-29T07:21:35.000Z</time>
      </trkpt>
      <trkpt lat="47.50987" lon="6.76894">
        <ele>377</ele>
        <time>2016-05-29T07:21:36.000Z</time>
      </trkpt>
      <trkpt lat="47.50982" lon="6.76889">
        <ele>377</ele>
        <time>2016-05-29T07:21:37.000Z</time>
      </trkpt>
      <trkpt lat="47.50978" lon="6.76888">
        <ele>377</ele>
        <time>2016-05-29T07:21:38.000Z</time>
      </trkpt>
      <trkpt lat="47.50975" lon="6.76889">
        <ele>377</ele>
        <time>2016-05-29T07:21:39.000Z</time>
      </trkpt>
      <trkpt lat="47.50972" lon="6.76887">
        <ele>377</ele>
        <time>2016-05-29T07:21:40.000Z</time>
      </trkpt>
      <trkpt lat="47.5097" lon="6.76886">
        <ele>377</ele>
        <time>2016-05-29T07:21:41.000Z</time>
      </trkpt>
      <trkpt lat="47.50966" lon="6.76884">
        <ele>377</ele>
        <time>2016-05-29T07:21:42.000Z</time>
      </trkpt>
      <trkpt lat="47.50964" lon="6.76881">
        <ele>377</ele>
        <time>2016-05-29T07:21:43.000Z</time>
      </trkpt>
      <trkpt lat="47.50959" lon="6.7688">
        <ele>377</ele>
        <time>2016-05-29T07:21:44.000Z</time>
      </trkpt>
      <trkpt lat="47.50956" lon="6.76877">
        <ele>378</ele>
        <time>2016-05-29T07:21:44.999Z</time>
      </trkpt>
      <trkpt lat="47.50953" lon="6.76872">
        <ele>378</ele>
        <time>2016-05-29T07:21:46.000Z</time>
      </trkpt>
      <trkpt lat="47.50946" lon="6.76867">
        <ele>378</ele>
        <time>2016-05-29T07:21:47.000Z</time>
      </trkpt>
      <trkpt lat="47.50941" lon="6.76865">
        <ele>378</ele>
        <time>2016-05-29T07:21:48.000Z</time>
      </trkpt>
      <trkpt lat="47.50936" lon="6.76861">
        <ele>378</ele>
        <time>2016-05-29T07:21:49.000Z</time>
      </trkpt>
      <trkpt lat="47.5093" lon="6.76857">
        <ele>378</ele>
        <time>2016-05-29T07:21:50.000Z</time>
      </trkpt>
      <trkpt lat="47.50923" lon="6.76854">
        <ele>379</ele>
        <time>2016-05-29T07:21:51.000Z</time>
      </trkpt>
      <trkpt lat="47.50918" lon="6.76851">
        <ele>379</ele>
        <time>2016-05-29T07:21:52.000Z</time>
      </trkpt>
      <trkpt lat="47.50918" lon="6.76844">
        <ele>379</ele>
        <time>2016-05-29T07:21:54.000Z</time>
      </trkpt>
      <trkpt lat="47.50917" lon="6.76841">
        <ele>379</ele>
        <time>2016-05-29T07:21:55.000Z</time>
      </trkpt>
      <trkpt lat="47.50914" lon="6.76835">
        <ele>380</ele>
        <time>2016-05-29T07:21:56.000Z</time>
      </trkpt>
      <trkpt lat="47.50913" lon="6.7683">
        <ele>380</ele>
        <time>2016-05-29T07:21:57.000Z</time>
      </trkpt>
      <trkpt lat="47.50911" lon="6.76826">
        <ele>380</ele>
        <time>2016-05-29T07:21:58.000Z</time>
      </trkpt>
      <trkpt lat="47.5091" lon="6.76823">
        <ele>381</ele>
        <time>2016-05-29T07:21:58.999Z</time>
      </trkpt>
      <trkpt lat="47.50915" lon="6.76815">
        <ele>381</ele>
        <time>2016-05-29T07:22:00.000Z</time>
      </trkpt>
      <trkpt lat="47.50915" lon="6.7681">
        <ele>381</ele>
        <time>2016-05-29T07:22:01.000Z</time>
      </trkpt>
      <trkpt lat="47.50915" lon="6.76806">
        <ele>381</ele>
        <time>2016-05-29T07:22:02.000Z</time>
      </trkpt>
      <trkpt lat="47.50912" lon="6.76799">
        <ele>381</ele>
        <time>2016-05-29T07:22:03.000Z</time>
      </trkpt>
      <trkpt lat="47.5091" lon="6.76793">
        <ele>381</ele>
        <time>2016-05-29T07:22:04.000Z</time>
      </trkpt>
      <trkpt lat="47.50907" lon="6.76787">
        <ele>381</ele>
        <time>2016-05-29T07:22:05.000Z</time>
      </trkpt>
      <trkpt lat="47.50904" lon="6.76782">
        <ele>381</ele>
        <time>2016-05-29T07:22:05.999Z</time>
      </trkpt>
      <trkpt lat="47.509" lon="6.76775">
        <ele>381</ele>
        <time>2016-05-29T07:22:07.000Z</time>
      </trkpt>
      <trkpt lat="47.50899" lon="6.76772">
        <ele>381</ele>
        <time>2016-05-29T07:22:08.000Z</time>
      </trkpt>
      <trkpt lat="47.50896" lon="6.76766">
        <ele>381</ele>
        <time>2016-05-29T07:22:09.000Z</time>
      </trkpt>
      <trkpt lat="47.50892" lon="6.76761">
        <ele>381</ele>
        <time>2016-05-29T07:22:09.999Z</time>
      </trkpt>
      <trkpt lat="47.50891" lon="6.76757">
        <ele>381</ele>
        <time>2016-05-29T07:22:11.000Z</time>
      </trkpt>
      <trkpt lat="47.5089" lon="6.76753">
        <ele>381</ele>
        <time>2016-05-29T07:22:12.000Z</time>
      </trkpt>
      <trkpt lat="47.50887" lon="6.76748">
        <ele>382</ele>
        <time>2016-05-29T07:22:13.000Z</time>
      </trkpt>
      <trkpt lat="47.50886" lon="6.76743">
        <ele>382</ele>
        <time>2016-05-29T07:22:13.999Z</time>
      </trkpt>
      <trkpt lat="47.50885" lon="6.76737">
        <ele>382</ele>
        <time>2016-05-29T07:22:15.000Z</time>
      </trkpt>
      <trkpt lat="47.50883" lon="6.76733">
        <ele>382</ele>
        <time>2016-05-29T07:22:15.999Z</time>
      </trkpt>
      <trkpt lat="47.50882" lon="6.76728">
        <ele>383</ele>
        <time>2016-05-29T07:22:17.000Z</time>
      </trkpt>
      <trkpt lat="47.50881" lon="6.76723">
        <ele>383</ele>
        <time>2016-05-29T07:22:18.001Z</time>
      </trkpt>
      <trkpt lat="47.5088" lon="6.76719">
        <ele>383</ele>
        <time>2016-05-29T07:22:19.000Z</time>
      </trkpt>
      <trkpt lat="47.50877" lon="6.76714">
        <ele>383</ele>
        <time>2016-05-29T07:22:20.000Z</time>
      </trkpt>
      <trkpt lat="47.50875" lon="6.7671">
        <ele>383</ele>
        <time>2016-05-29T07:22:21.000Z</time>
      </trkpt>
      <trkpt lat="47.50873" lon="6.76705">
        <ele>383</ele>
        <time>2016-05-29T07:22:22.000Z</time>
      </trkpt>
      <trkpt lat="47.50871" lon="6.76699">
        <ele>384</ele>
        <time>2016-05-29T07:22:23.000Z</time>
      </trkpt>
      <trkpt lat="47.50869" lon="6.76694">
        <ele>384</ele>
        <time>2016-05-29T07:22:24.000Z</time>
      </trkpt>
      <trkpt lat="47.50867" lon="6.76689">
        <ele>384</ele>
        <time>2016-05-29T07:22:25.000Z</time>
      </trkpt>
      <trkpt lat="47.50865" lon="6.76683">
        <ele>384</ele>
        <time>2016-05-29T07:22:26.000Z</time>
      </trkpt>
      <trkpt lat="47.50863" lon="6.76679">
        <ele>385</ele>
        <time>2016-05-29T07:22:27.000Z</time>
      </trkpt>
      <trkpt lat="47.50861" lon="6.76674">
        <ele>385</ele>
        <time>2016-05-29T07:22:28.000Z</time>
      </trkpt>
      <trkpt lat="47.5086" lon="6.7667">
        <ele>385</ele>
        <time>2016-05-29T07:22:29.001Z</time>
      </trkpt>
      <trkpt lat="47.50857" lon="6.76665">
        <ele>387</ele>
        <time>2016-05-29T07:22:30.000Z</time>
      </trkpt>
      <trkpt lat="47.50854" lon="6.76661">
        <ele>387</ele>
        <time>2016-05-29T07:22:31.000Z</time>
      </trkpt>
      <trkpt lat="47.50852" lon="6.76657">
        <ele>387</ele>
        <time>2016-05-29T07:22:32.000Z</time>
      </trkpt>
      <trkpt lat="47.50851" lon="6.76653">
        <ele>387</ele>
        <time>2016-05-29T07:22:33.000Z</time>
      </trkpt>
      <trkpt lat="47.50849" lon="6.76648">
        <ele>387</ele>
        <time>2016-05-29T07:22:34.000Z</time>
      </trkpt>
      <trkpt lat="47.50847" lon="6.76644">
        <ele>387</ele>
        <time>2016-05-29T07:22:35.000Z</time>
      </trkpt>
      <trkpt lat="47.50845" lon="6.7664">
        <ele>387</ele>
        <time>2016-05-29T07:22:36.000Z</time>
      </trkpt>
      <trkpt lat="47.50843" lon="6.76636">
        <ele>387</ele>
        <time>2016-05-29T07:22:37.000Z</time>
      </trkpt>
      <trkpt lat="47.50842" lon="6.76632">
        <ele>387</ele>
        <time>2016-05-29T07:22:38.000Z</time>
      </trkpt>
      <trkpt lat="47.50841" lon="6.76628">
        <ele>387</ele>
        <time>2016-05-29T07:22:39.000Z</time>
      </trkpt>
      <trkpt lat="47.50839" lon="6.76624">
        <ele>387</ele>
        <time>2016-05-29T07:22:40.000Z</time>
      </trkpt>
      <trkpt lat="47.50838" lon="6.76621">
        <ele>387</ele>
        <time>2016-05-29T07:22:41.000Z</time>
      </trkpt>
      <trkpt lat="47.50837" lon="6.76617">
        <ele>387</ele>
        <time>2016-05-29T07:22:42.000Z</time>
      </trkpt>
      <trkpt lat="47.50836" lon="6.76613">
        <ele>387</ele>
        <time>2016-05-29T07:22:43.000Z</time>
      </trkpt>
      <trkpt lat="47.50835" lon="6.7661">
        <ele>387</ele>
        <time>2016-05-29T07:22:43.999Z</time>
      </trkpt>
      <trkpt lat="47.50834" lon="6.76606">
        <ele>388</ele>
        <time>2016-05-29T07:22:45.000Z</time>
      </trkpt>
      <trkpt lat="47.50833" lon="6.76602">
        <ele>390</ele>
        <time>2016-05-29T07:22:46.000Z</time>
      </trkpt>
      <trkpt lat="47.50832" lon="6.76599">
        <ele>390</ele>
        <time>2016-05-29T07:22:47.000Z</time>
      </trkpt>
      <trkpt lat="47.50831" lon="6.76596">
        <ele>390</ele>
        <time>2016-05-29T07:22:48.000Z</time>
      </trkpt>
      <trkpt lat="47.50829" lon="6.76593">
        <ele>390</ele>
        <time>2016-05-29T07:22:49.000Z</time>
      </trkpt>
      <trkpt lat="47.50827" lon="6.7659">
        <ele>390</ele>
        <time>2016-05-29T07:22:50.000Z</time>
      </trkpt>
      <trkpt lat="47.50824" lon="6.7659">
        <ele>390</ele>
        <time>2016-05-29T07:22:51.000Z</time>
      </trkpt>
      <trkpt lat="47.50822" lon="6.76591">
        <ele>390</ele>
        <time>2016-05-29T07:22:52.000Z</time>
      </trkpt>
      <trkpt lat="47.50819" lon="6.76591">
        <ele>390</ele>
        <time>2016-05-29T07:22:53.000Z</time>
      </trkpt>
      <trkpt lat="47.50817" lon="6.76591">
        <ele>390</ele>
        <time>2016-05-29T07:22:54.000Z</time>
      </trkpt>
      <trkpt lat="47.50815" lon="6.76589">
        <ele>390</ele>
        <time>2016-05-29T07:22:55.000Z</time>
      </trkpt>
      <trkpt lat="47.50813" lon="6.76586">
        <ele>390</ele>
        <time>2016-05-29T07:22:56.000Z</time>
      </trkpt>
      <trkpt lat="47.50812" lon="6.76583">
        <ele>390</ele>
        <time>2016-05-29T07:22:57.000Z</time>
      </trkpt>
      <trkpt lat="47.50809" lon="6.76582">
        <ele>391</ele>
        <time>2016-05-29T07:22:58.000Z</time>
      </trkpt>
      <trkpt lat="47.50807" lon="6.76581">
        <ele>391</ele>
        <time>2016-05-29T07:22:59.000Z</time>
      </trkpt>
      <trkpt lat="47.50803" lon="6.76582">
        <ele>391</ele>
        <time>2016-05-29T07:23:00.000Z</time>
      </trkpt>
      <trkpt lat="47.508" lon="6.76583">
        <ele>391</ele>
        <time>2016-05-29T07:23:01.000Z</time>
      </trkpt>
      <trkpt lat="47.50798" lon="6.76584">
        <ele>391</ele>
        <time>2016-05-29T07:23:02.000Z</time>
      </trkpt>
      <trkpt lat="47.50794" lon="6.76588">
        <ele>391</ele>
        <time>2016-05-29T07:23:16.000Z</time>
      </trkpt>
      <trkpt lat="47.50793" lon="6.76589">
        <ele>391</ele>
        <time>2016-05-29T07:23:17.000Z</time>
      </trkpt>
      <trkpt lat="47.50789" lon="6.76591">
        <ele>391</ele>
        <time>2016-05-29T07:23:19.000Z</time>
      </trkpt>
      <trkpt lat="47.50786" lon="6.76591">
        <ele>391</ele>
        <time>2016-05-29T07:23:20.000Z</time>
      </trkpt>
      <trkpt lat="47.50784" lon="6.7659">
        <ele>391</ele>
        <time>2016-05-29T07:23:21.000Z</time>
      </trkpt>
      <trkpt lat="47.50781" lon="6.7659">
        <ele>391</ele>
        <time>2016-05-29T07:23:22.000Z</time>
      </trkpt>
      <trkpt lat="47.50778" lon="6.76589">
        <ele>392</ele>
        <time>2016-05-29T07:23:23.000Z</time>
      </trkpt>
      <trkpt lat="47.50776" lon="6.76589">
        <ele>392</ele>
        <time>2016-05-29T07:23:24.000Z</time>
      </trkpt>
      <trkpt lat="47.50773" lon="6.76589">
        <ele>392</ele>
        <time>2016-05-29T07:23:25.000Z</time>
      </trkpt>
      <trkpt lat="47.5077" lon="6.76589">
        <ele>392</ele>
        <time>2016-05-29T07:23:26.000Z</time>
      </trkpt>
      <trkpt lat="47.50767" lon="6.76588">
        <ele>392</ele>
        <time>2016-05-29T07:23:27.000Z</time>
      </trkpt>
      <trkpt lat="47.50764" lon="6.76588">
        <ele>392</ele>
        <time>2016-05-29T07:23:28.000Z</time>
      </trkpt>
      <trkpt lat="47.50762" lon="6.76586">
        <ele>393</ele>
        <time>2016-05-29T07:23:29.000Z</time>
      </trkpt>
      <trkpt lat="47.50759" lon="6.76585">
        <ele>393</ele>
        <time>2016-05-29T07:23:30.000Z</time>
      </trkpt>
      <trkpt lat="47.50756" lon="6.76585">
        <ele>393</ele>
        <time>2016-05-29T07:23:31.000Z</time>
      </trkpt>
      <trkpt lat="47.50753" lon="6.76585">
        <ele>394</ele>
        <time>2016-05-29T07:23:32.000Z</time>
      </trkpt>
      <trkpt lat="47.50751" lon="6.76583">
        <ele>394</ele>
        <time>2016-05-29T07:23:33.000Z</time>
      </trkpt>
      <trkpt lat="47.50748" lon="6.7658">
        <ele>394</ele>
        <time>2016-05-29T07:23:34.000Z</time>
      </trkpt>
      <trkpt lat="47.50746" lon="6.76578">
        <ele>394</ele>
        <time>2016-05-29T07:23:35.000Z</time>
      </trkpt>
      <trkpt lat="47.50743" lon="6.76576">
        <ele>394</ele>
        <time>2016-05-29T07:23:36.000Z</time>
      </trkpt>
      <trkpt lat="47.50741" lon="6.76574">
        <ele>394</ele>
        <time>2016-05-29T07:23:37.000Z</time>
      </trkpt>
      <trkpt lat="47.50738" lon="6.76573">
        <ele>394</ele>
        <time>2016-05-29T07:23:38.000Z</time>
      </trkpt>
      <trkpt lat="47.50735" lon="6.76571">
        <ele>395</ele>
        <time>2016-05-29T07:23:39.000Z</time>
      </trkpt>
      <trkpt lat="47.50732" lon="6.7657">
        <ele>395</ele>
        <time>2016-05-29T07:23:40.000Z</time>
      </trkpt>
      <trkpt lat="47.5073" lon="6.76569">
        <ele>395</ele>
        <time>2016-05-29T07:23:41.000Z</time>
      </trkpt>
      <trkpt lat="47.50726" lon="6.76569">
        <ele>395</ele>
        <time>2016-05-29T07:23:42.000Z</time>
      </trkpt>
      <trkpt lat="47.50723" lon="6.76569">
        <ele>395</ele>
        <time>2016-05-29T07:23:43.000Z</time>
      </trkpt>
      <trkpt lat="47.5072" lon="6.76569">
        <ele>395</ele>
        <time>2016-05-29T07:23:44.000Z</time>
      </trkpt>
      <trkpt lat="47.50717" lon="6.76569">
        <ele>395</ele>
        <time>2016-05-29T07:23:45.000Z</time>
      </trkpt>
      <trkpt lat="47.50714" lon="6.76569">
        <ele>395</ele>
        <time>2016-05-29T07:23:46.000Z</time>
      </trkpt>
      <trkpt lat="47.50711" lon="6.76569">
        <ele>395</ele>
        <time>2016-05-29T07:23:47.000Z</time>
      </trkpt>
      <trkpt lat="47.50708" lon="6.76569">
        <ele>395</ele>
        <time>2016-05-29T07:23:48.000Z</time>
      </trkpt>
      <trkpt lat="47.50705" lon="6.76569">
        <ele>395</ele>
        <time>2016-05-29T07:23:49.000Z</time>
      </trkpt>
      <trkpt lat="47.50702" lon="6.76569">
        <ele>395</ele>
        <time>2016-05-29T07:23:50.000Z</time>
      </trkpt>
      <trkpt lat="47.50699" lon="6.76569">
        <ele>395</ele>
        <time>2016-05-29T07:23:51.000Z</time>
      </trkpt>
      <trkpt lat="47.50696" lon="6.76568">
        <ele>395</ele>
        <time>2016-05-29T07:23:52.000Z</time>
      </trkpt>
      <trkpt lat="47.50693" lon="6.76568">
        <ele>396</ele>
        <time>2016-05-29T07:23:53.000Z</time>
      </trkpt>
      <trkpt lat="47.5069" lon="6.76568">
        <ele>396</ele>
        <time>2016-05-29T07:23:54.000Z</time>
      </trkpt>
      <trkpt lat="47.50687" lon="6.76567">
        <ele>396</ele>
        <time>2016-05-29T07:23:55.000Z</time>
      </trkpt>
      <trkpt lat="47.50685" lon="6.76566">
        <ele>396</ele>
        <time>2016-05-29T07:23:56.000Z</time>
      </trkpt>
      <trkpt lat="47.50682" lon="6.76565">
        <ele>396</ele>
        <time>2016-05-29T07:23:57.000Z</time>
      </trkpt>
      <trkpt lat="47.50679" lon="6.76565">
        <ele>396</ele>
        <time>2016-05-29T07:23:58.000Z</time>
      </trkpt>
      <trkpt lat="47.50676" lon="6.76566">
        <ele>396</ele>
        <time>2016-05-29T07:23:59.000Z</time>
      </trkpt>
      <trkpt lat="47.50673" lon="6.76568">
        <ele>396</ele>
        <time>2016-05-29T07:24:00.000Z</time>
      </trkpt>
      <trkpt lat="47.50669" lon="6.7657">
        <ele>396</ele>
        <time>2016-05-29T07:24:01.000Z</time>
      </trkpt>
      <trkpt lat="47.50666" lon="6.76572">
        <ele>397</ele>
        <time>2016-05-29T07:24:02.000Z</time>
      </trkpt>
      <trkpt lat="47.50662" lon="6.76575">
        <ele>397</ele>
        <time>2016-05-29T07:24:03.000Z</time>
      </trkpt>
      <trkpt lat="47.50659" lon="6.76576">
        <ele>397</ele>
        <time>2016-05-29T07:24:04.000Z</time>
      </trkpt>
      <trkpt lat="47.50657" lon="6.76577">
        <ele>397</ele>
        <time>2016-05-29T07:24:05.000Z</time>
      </trkpt>
      <trkpt lat="47.50654" lon="6.76579">
        <ele>397</ele>
        <time>2016-05-29T07:24:06.000Z</time>
      </trkpt>
      <trkpt lat="47.50651" lon="6.76579">
        <ele>397</ele>
        <time>2016-05-29T07:24:07.000Z</time>
      </trkpt>
      <trkpt lat="47.50648" lon="6.7658">
        <ele>397</ele>
        <time>2016-05-29T07:24:08.000Z</time>
      </trkpt>
      <trkpt lat="47.50645" lon="6.76581">
        <ele>397</ele>
        <time>2016-05-29T07:24:09.000Z</time>
      </trkpt>
      <trkpt lat="47.50642" lon="6.76583">
        <ele>398</ele>
        <time>2016-05-29T07:24:10.000Z</time>
      </trkpt>
      <trkpt lat="47.5064" lon="6.76585">
        <ele>397</ele>
        <time>2016-05-29T07:24:11.000Z</time>
      </trkpt>
      <trkpt lat="47.50637" lon="6.76587">
        <ele>397</ele>
        <time>2016-05-29T07:24:12.000Z</time>
      </trkpt>
      <trkpt lat="47.50633" lon="6.76589">
        <ele>397</ele>
        <time>2016-05-29T07:24:13.000Z</time>
      </trkpt>
      <trkpt lat="47.5063" lon="6.76592">
        <ele>397</ele>
        <time>2016-05-29T07:24:14.000Z</time>
      </trkpt>
      <trkpt lat="47.50627" lon="6.76594">
        <ele>397</ele>
        <time>2016-05-29T07:24:15.000Z</time>
      </trkpt>
      <trkpt lat="47.50624" lon="6.76596">
        <ele>397</ele>
        <time>2016-05-29T07:24:16.000Z</time>
      </trkpt>
      <trkpt lat="47.50621" lon="6.76599">
        <ele>398</ele>
        <time>2016-05-29T07:24:17.000Z</time>
      </trkpt>
      <trkpt lat="47.50619" lon="6.76601">
        <ele>398</ele>
        <time>2016-05-29T07:24:18.000Z</time>
      </trkpt>
      <trkpt lat="47.50616" lon="6.76603">
        <ele>398</ele>
        <time>2016-05-29T07:24:19.000Z</time>
      </trkpt>
      <trkpt lat="47.50614" lon="6.76606">
        <ele>398</ele>
        <time>2016-05-29T07:24:20.000Z</time>
      </trkpt>
      <trkpt lat="47.50611" lon="6.76607">
        <ele>398</ele>
        <time>2016-05-29T07:24:21.000Z</time>
      </trkpt>
      <trkpt lat="47.50608" lon="6.76608">
        <ele>398</ele>
        <time>2016-05-29T07:24:22.000Z</time>
      </trkpt>
      <trkpt lat="47.50605" lon="6.7661">
        <ele>398</ele>
        <time>2016-05-29T07:24:23.000Z</time>
      </trkpt>
      <trkpt lat="47.50602" lon="6.76611">
        <ele>398</ele>
        <time>2016-05-29T07:24:24.000Z</time>
      </trkpt>
      <trkpt lat="47.50599" lon="6.7661">
        <ele>398</ele>
        <time>2016-05-29T07:24:25.000Z</time>
      </trkpt>
      <trkpt lat="47.50597" lon="6.7661">
        <ele>398</ele>
        <time>2016-05-29T07:24:26.000Z</time>
      </trkpt>
      <trkpt lat="47.50595" lon="6.76609">
        <ele>398</ele>
        <time>2016-05-29T07:24:27.000Z</time>
      </trkpt>
      <trkpt lat="47.50592" lon="6.76609">
        <ele>398</ele>
        <time>2016-05-29T07:24:28.000Z</time>
      </trkpt>
      <trkpt lat="47.50589" lon="6.76611">
        <ele>398</ele>
        <time>2016-05-29T07:24:29.000Z</time>
      </trkpt>
      <trkpt lat="47.50585" lon="6.76613">
        <ele>398</ele>
        <time>2016-05-29T07:24:30.000Z</time>
      </trkpt>
      <trkpt lat="47.50582" lon="6.76616">
        <ele>399</ele>
        <time>2016-05-29T07:24:31.000Z</time>
      </trkpt>
      <trkpt lat="47.50578" lon="6.76619">
        <ele>399</ele>
        <time>2016-05-29T07:24:32.000Z</time>
      </trkpt>
      <trkpt lat="47.50575" lon="6.76621">
        <ele>399</ele>
        <time>2016-05-29T07:24:33.000Z</time>
      </trkpt>
      <trkpt lat="47.50572" lon="6.76622">
        <ele>399</ele>
        <time>2016-05-29T07:24:34.000Z</time>
      </trkpt>
      <trkpt lat="47.5057" lon="6.76623">
        <ele>399</ele>
        <time>2016-05-29T07:24:35.000Z</time>
      </trkpt>
      <trkpt lat="47.50567" lon="6.76623">
        <ele>399</ele>
        <time>2016-05-29T07:24:36.000Z</time>
      </trkpt>
      <trkpt lat="47.50564" lon="6.76624">
        <ele>399</ele>
        <time>2016-05-29T07:24:37.000Z</time>
      </trkpt>
      <trkpt lat="47.50561" lon="6.76626">
        <ele>399</ele>
        <time>2016-05-29T07:24:38.000Z</time>
      </trkpt>
      <trkpt lat="47.50558" lon="6.76627">
        <ele>399</ele>
        <time>2016-05-29T07:24:39.000Z</time>
      </trkpt>
      <trkpt lat="47.50554" lon="6.76629">
        <ele>399</ele>
        <time>2016-05-29T07:24:40.000Z</time>
      </trkpt>
      <trkpt lat="47.50551" lon="6.7663">
        <ele>399</ele>
        <time>2016-05-29T07:24:41.000Z</time>
      </trkpt>
      <trkpt lat="47.50548" lon="6.76632">
        <ele>399</ele>
        <time>2016-05-29T07:24:42.000Z</time>
      </trkpt>
      <trkpt lat="47.50544" lon="6.76632">
        <ele>399</ele>
        <time>2016-05-29T07:24:43.000Z</time>
      </trkpt>
      <trkpt lat="47.50541" lon="6.76634">
        <ele>399</ele>
        <time>2016-05-29T07:24:44.000Z</time>
      </trkpt>
      <trkpt lat="47.50537" lon="6.76635">
        <ele>399</ele>
        <time>2016-05-29T07:24:45.000Z</time>
      </trkpt>
      <trkpt lat="47.50534" lon="6.76636">
        <ele>399</ele>
        <time>2016-05-29T07:24:46.000Z</time>
      </trkpt>
      <trkpt lat="47.5053" lon="6.76637">
        <ele>399</ele>
        <time>2016-05-29T07:24:47.000Z</time>
      </trkpt>
      <trkpt lat="47.50526" lon="6.76638">
        <ele>399</ele>
        <time>2016-05-29T07:24:48.000Z</time>
      </trkpt>
      <trkpt lat="47.50523" lon="6.76639">
        <ele>399</ele>
        <time>2016-05-29T07:24:49.000Z</time>
      </trkpt>
      <trkpt lat="47.50519" lon="6.76639">
        <ele>399</ele>
        <time>2016-05-29T07:24:50.000Z</time>
      </trkpt>
      <trkpt lat="47.50515" lon="6.76639">
        <ele>399</ele>
        <time>2016-05-29T07:24:51.000Z</time>
      </trkpt>
      <trkpt lat="47.50511" lon="6.76639">
        <ele>399</ele>
        <time>2016-05-29T07:24:52.000Z</time>
      </trkpt>
      <trkpt lat="47.50507" lon="6.76639">
        <ele>399</ele>
        <time>2016-05-29T07:24:53.000Z</time>
      </trkpt>
      <trkpt lat="47.50503" lon="6.76639">
        <ele>399</ele>
        <time>2016-05-29T07:24:54.000Z</time>
      </trkpt>
      <trkpt lat="47.50499" lon="6.76639">
        <ele>399</ele>
        <time>2016-05-29T07:24:55.000Z</time>
      </trkpt>
      <trkpt lat="47.50495" lon="6.7664">
        <ele>399</ele>
        <time>2016-05-29T07:24:56.000Z</time>
      </trkpt>
      <trkpt lat="47.50489" lon="6.76645">
        <ele>399</ele>
        <time>2016-05-29T07:24:57.000Z</time>
      </trkpt>
      <trkpt lat="47.50485" lon="6.76647">
        <ele>399</ele>
        <time>2016-05-29T07:24:58.000Z</time>
      </trkpt>
      <trkpt lat="47.5048" lon="6.76648">
        <ele>399</ele>
        <time>2016-05-29T07:24:59.000Z</time>
      </trkpt>
      <trkpt lat="47.50475" lon="6.7665">
        <ele>398</ele>
        <time>2016-05-29T07:25:00.000Z</time>
      </trkpt>
      <trkpt lat="47.5047" lon="6.76653">
        <ele>398</ele>
        <time>2016-05-29T07:25:01.000Z</time>
      </trkpt>
      <trkpt lat="47.50465" lon="6.76655">
        <ele>398</ele>
        <time>2016-05-29T07:25:02.000Z</time>
      </trkpt>
      <trkpt lat="47.50461" lon="6.76657">
        <ele>398</ele>
        <time>2016-05-29T07:25:03.000Z</time>
      </trkpt>
      <trkpt lat="47.50456" lon="6.76658">
        <ele>398</ele>
        <time>2016-05-29T07:25:04.000Z</time>
      </trkpt>
      <trkpt lat="47.50452" lon="6.7666">
        <ele>398</ele>
        <time>2016-05-29T07:25:05.000Z</time>
      </trkpt>
      <trkpt lat="47.50447" lon="6.76662">
        <ele>398</ele>
        <time>2016-05-29T07:25:06.000Z</time>
      </trkpt>
      <trkpt lat="47.50442" lon="6.76665">
        <ele>398</ele>
        <time>2016-05-29T07:25:07.000Z</time>
      </trkpt>
      <trkpt lat="47.50438" lon="6.76668">
        <ele>397</ele>
        <time>2016-05-29T07:25:08.000Z</time>
      </trkpt>
      <trkpt lat="47.50433" lon="6.7667">
        <ele>397</ele>
        <time>2016-05-29T07:25:09.001Z</time>
      </trkpt>
      <trkpt lat="47.50428" lon="6.76675">
        <ele>397</ele>
        <time>2016-05-29T07:25:10.000Z</time>
      </trkpt>
      <trkpt lat="47.50423" lon="6.76675">
        <ele>397</ele>
        <time>2016-05-29T07:25:11.000Z</time>
      </trkpt>
      <trkpt lat="47.50419" lon="6.76678">
        <ele>397</ele>
        <time>2016-05-29T07:25:12.000Z</time>
      </trkpt>
      <trkpt lat="47.50416" lon="6.76679">
        <ele>397</ele>
        <time>2016-05-29T07:25:13.000Z</time>
      </trkpt>
      <trkpt lat="47.50412" lon="6.76681">
        <ele>397</ele>
        <time>2016-05-29T07:25:14.000Z</time>
      </trkpt>
      <trkpt lat="47.50407" lon="6.76683">
        <ele>397</ele>
        <time>2016-05-29T07:25:15.000Z</time>
      </trkpt>
      <trkpt lat="47.50403" lon="6.76684">
        <ele>397</ele>
        <time>2016-05-29T07:25:16.000Z</time>
      </trkpt>
      <trkpt lat="47.504" lon="6.76687">
        <ele>397</ele>
        <time>2016-05-29T07:25:17.000Z</time>
      </trkpt>
      <trkpt lat="47.50397" lon="6.76689">
        <ele>397</ele>
        <time>2016-05-29T07:25:18.000Z</time>
      </trkpt>
      <trkpt lat="47.50393" lon="6.76692">
        <ele>397</ele>
        <time>2016-05-29T07:25:19.000Z</time>
      </trkpt>
      <trkpt lat="47.5039" lon="6.76693">
        <ele>397</ele>
        <time>2016-05-29T07:25:20.000Z</time>
      </trkpt>
      <trkpt lat="47.50387" lon="6.76695">
        <ele>397</ele>
        <time>2016-05-29T07:25:21.000Z</time>
      </trkpt>
      <trkpt lat="47.50384" lon="6.76696">
        <ele>397</ele>
        <time>2016-05-29T07:25:22.000Z</time>
      </trkpt>
      <trkpt lat="47.5038" lon="6.76698">
        <ele>397</ele>
        <time>2016-05-29T07:25:23.000Z</time>
      </trkpt>
      <trkpt lat="47.50377" lon="6.76699">
        <ele>397</ele>
        <time>2016-05-29T07:25:24.000Z</time>
      </trkpt>
      <trkpt lat="47.50373" lon="6.767">
        <ele>397</ele>
        <time>2016-05-29T07:25:25.001Z</time>
      </trkpt>
      <trkpt lat="47.50369" lon="6.76701">
        <ele>397</ele>
        <time>2016-05-29T07:25:26.000Z</time>
      </trkpt>
      <trkpt lat="47.50364" lon="6.76702">
        <ele>397</ele>
        <time>2016-05-29T07:25:27.000Z</time>
      </trkpt>
      <trkpt lat="47.50361" lon="6.76703">
        <ele>397</ele>
        <time>2016-05-29T07:25:28.000Z</time>
      </trkpt>
      <trkpt lat="47.50357" lon="6.76705">
        <ele>397</ele>
        <time>2016-05-29T07:25:28.999Z</time>
      </trkpt>
      <trkpt lat="47.50354" lon="6.76706">
        <ele>397</ele>
        <time>2016-05-29T07:25:30.000Z</time>
      </trkpt>
      <trkpt lat="47.5035" lon="6.76706">
        <ele>397</ele>
        <time>2016-05-29T07:25:31.000Z</time>
      </trkpt>
      <trkpt lat="47.50348" lon="6.76706">
        <ele>397</ele>
        <time>2016-05-29T07:25:32.000Z</time>
      </trkpt>
      <trkpt lat="47.50343" lon="6.76711">
        <ele>398</ele>
        <time>2016-05-29T07:25:33.000Z</time>
      </trkpt>
      <trkpt lat="47.50339" lon="6.76713">
        <ele>398</ele>
        <time>2016-05-29T07:25:34.000Z</time>
      </trkpt>
      <trkpt lat="47.50335" lon="6.76715">
        <ele>398</ele>
        <time>2016-05-29T07:25:35.000Z</time>
      </trkpt>
      <trkpt lat="47.50331" lon="6.76716">
        <ele>398</ele>
        <time>2016-05-29T07:25:36.000Z</time>
      </trkpt>
      <trkpt lat="47.50328" lon="6.76717">
        <ele>398</ele>
        <time>2016-05-29T07:25:37.000Z</time>
      </trkpt>
      <trkpt lat="47.50324" lon="6.76721">
        <ele>398</ele>
        <time>2016-05-29T07:25:38.000Z</time>
      </trkpt>
      <trkpt lat="47.5032" lon="6.76722">
        <ele>398</ele>
        <time>2016-05-29T07:25:39.000Z</time>
      </trkpt>
      <trkpt lat="47.50317" lon="6.76723">
        <ele>398</ele>
        <time>2016-05-29T07:25:40.000Z</time>
      </trkpt>
      <trkpt lat="47.50313" lon="6.76724">
        <ele>398</ele>
        <time>2016-05-29T07:25:41.000Z</time>
      </trkpt>
      <trkpt lat="47.50309" lon="6.76724">
        <ele>398</ele>
        <time>2016-05-29T07:25:41.999Z</time>
      </trkpt>
      <trkpt lat="47.50304" lon="6.76727">
        <ele>398</ele>
        <time>2016-05-29T07:25:43.000Z</time>
      </trkpt>
      <trkpt lat="47.503" lon="6.76728">
        <ele>399</ele>
        <time>2016-05-29T07:25:44.001Z</time>
      </trkpt>
      <trkpt lat="47.50296" lon="6.7673">
        <ele>399</ele>
        <time>2016-05-29T07:25:45.000Z</time>
      </trkpt>
      <trkpt lat="47.50295" lon="6.76731">
        <ele>399</ele>
        <time>2016-05-29T07:25:46.000Z</time>
      </trkpt>
      <trkpt lat="47.5029" lon="6.76732">
        <ele>399</ele>
        <time>2016-05-29T07:25:47.000Z</time>
      </trkpt>
      <trkpt lat="47.50286" lon="6.76733">
        <ele>399</ele>
        <time>2016-05-29T07:25:48.000Z</time>
      </trkpt>
      <trkpt lat="47.50283" lon="6.76735">
        <ele>399</ele>
        <time>2016-05-29T07:25:49.000Z</time>
      </trkpt>
      <trkpt lat="47.50279" lon="6.76736">
        <ele>399</ele>
        <time>2016-05-29T07:25:50.000Z</time>
      </trkpt>
      <trkpt lat="47.50276" lon="6.76737">
        <ele>399</ele>
        <time>2016-05-29T07:25:51.000Z</time>
      </trkpt>
      <trkpt lat="47.50273" lon="6.76737">
        <ele>399</ele>
        <time>2016-05-29T07:25:52.000Z</time>
      </trkpt>
      <trkpt lat="47.5027" lon="6.76737">
        <ele>399</ele>
        <time>2016-05-29T07:25:53.000Z</time>
      </trkpt>
      <trkpt lat="47.50266" lon="6.76737">
        <ele>399</ele>
        <time>2016-05-29T07:25:54.000Z</time>
      </trkpt>
      <trkpt lat="47.50263" lon="6.76738">
        <ele>399</ele>
        <time>2016-05-29T07:25:55.000Z</time>
      </trkpt>
      <trkpt lat="47.50259" lon="6.76739">
        <ele>399</ele>
        <time>2016-05-29T07:25:56.000Z</time>
      </trkpt>
      <trkpt lat="47.50256" lon="6.7674">
        <ele>399</ele>
        <time>2016-05-29T07:25:57.000Z</time>
      </trkpt>
      <trkpt lat="47.50252" lon="6.76741">
        <ele>400</ele>
        <time>2016-05-29T07:25:58.000Z</time>
      </trkpt>
      <trkpt lat="47.50248" lon="6.76742">
        <ele>401</ele>
        <time>2016-05-29T07:25:59.000Z</time>
      </trkpt>
      <trkpt lat="47.50245" lon="6.76743">
        <ele>401</ele>
        <time>2016-05-29T07:26:00.001Z</time>
      </trkpt>
      <trkpt lat="47.50241" lon="6.76743">
        <ele>401</ele>
        <time>2016-05-29T07:26:01.000Z</time>
      </trkpt>
      <trkpt lat="47.50238" lon="6.76742">
        <ele>401</ele>
        <time>2016-05-29T07:26:02.000Z</time>
      </trkpt>
      <trkpt lat="47.50236" lon="6.7674">
        <ele>401</ele>
        <time>2016-05-29T07:26:03.000Z</time>
      </trkpt>
      <trkpt lat="47.50234" lon="6.76737">
        <ele>401</ele>
        <time>2016-05-29T07:26:04.000Z</time>
      </trkpt>
      <trkpt lat="47.50232" lon="6.76733">
        <ele>401</ele>
        <time>2016-05-29T07:26:05.000Z</time>
      </trkpt>
      <trkpt lat="47.50231" lon="6.76729">
        <ele>402</ele>
        <time>2016-05-29T07:26:06.000Z</time>
      </trkpt>
      <trkpt lat="47.5023" lon="6.76724">
        <ele>402</ele>
        <time>2016-05-29T07:26:07.000Z</time>
      </trkpt>
      <trkpt lat="47.50229" lon="6.76721">
        <ele>402</ele>
        <time>2016-05-29T07:26:08.000Z</time>
      </trkpt>
      <trkpt lat="47.50228" lon="6.76717">
        <ele>402</ele>
        <time>2016-05-29T07:26:09.000Z</time>
      </trkpt>
      <trkpt lat="47.50228" lon="6.76713">
        <ele>402</ele>
        <time>2016-05-29T07:26:10.000Z</time>
      </trkpt>
      <trkpt lat="47.50226" lon="6.76709">
        <ele>402</ele>
        <time>2016-05-29T07:26:11.000Z</time>
      </trkpt>
      <trkpt lat="47.50225" lon="6.76704">
        <ele>402</ele>
        <time>2016-05-29T07:26:12.000Z</time>
      </trkpt>
      <trkpt lat="47.50224" lon="6.767">
        <ele>402</ele>
        <time>2016-05-29T07:26:13.000Z</time>
      </trkpt>
      <trkpt lat="47.50223" lon="6.76695">
        <ele>402</ele>
        <time>2016-05-29T07:26:14.000Z</time>
      </trkpt>
      <trkpt lat="47.50222" lon="6.7669">
        <ele>402</ele>
        <time>2016-05-29T07:26:15.000Z</time>
      </trkpt>
      <trkpt lat="47.50222" lon="6.76686">
        <ele>402</ele>
        <time>2016-05-29T07:26:16.000Z</time>
      </trkpt>
      <trkpt lat="47.50221" lon="6.76681">
        <ele>401</ele>
        <time>2016-05-29T07:26:17.000Z</time>
      </trkpt>
      <trkpt lat="47.5022" lon="6.76676">
        <ele>401</ele>
        <time>2016-05-29T07:26:18.000Z</time>
      </trkpt>
      <trkpt lat="47.50218" lon="6.76672">
        <ele>402</ele>
        <time>2016-05-29T07:26:19.000Z</time>
      </trkpt>
      <trkpt lat="47.50217" lon="6.76668">
        <ele>402</ele>
        <time>2016-05-29T07:26:20.000Z</time>
      </trkpt>
      <trkpt lat="47.50215" lon="6.76663">
        <ele>401</ele>
        <time>2016-05-29T07:26:21.000Z</time>
      </trkpt>
      <trkpt lat="47.50214" lon="6.76658">
        <ele>402</ele>
        <time>2016-05-29T07:26:22.000Z</time>
      </trkpt>
      <trkpt lat="47.50212" lon="6.76653">
        <ele>402</ele>
        <time>2016-05-29T07:26:23.000Z</time>
      </trkpt>
      <trkpt lat="47.5021" lon="6.76648">
        <ele>402</ele>
        <time>2016-05-29T07:26:24.000Z</time>
      </trkpt>
      <trkpt lat="47.50208" lon="6.76643">
        <ele>402</ele>
        <time>2016-05-29T07:26:25.000Z</time>
      </trkpt>
      <trkpt lat="47.50207" lon="6.76638">
        <ele>402</ele>
        <time>2016-05-29T07:26:26.000Z</time>
      </trkpt>
      <trkpt lat="47.50205" lon="6.76633">
        <ele>402</ele>
        <time>2016-05-29T07:26:27.000Z</time>
      </trkpt>
      <trkpt lat="47.50203" lon="6.76628">
        <ele>402</ele>
        <time>2016-05-29T07:26:28.000Z</time>
      </trkpt>
      <trkpt lat="47.50201" lon="6.76623">
        <ele>402</ele>
        <time>2016-05-29T07:26:29.000Z</time>
      </trkpt>
      <trkpt lat="47.50199" lon="6.76617">
        <ele>402</ele>
        <time>2016-05-29T07:26:30.000Z</time>
      </trkpt>
      <trkpt lat="47.50197" lon="6.76613">
        <ele>403</ele>
        <time>2016-05-29T07:26:31.000Z</time>
      </trkpt>
      <trkpt lat="47.50196" lon="6.76608">
        <ele>403</ele>
        <time>2016-05-29T07:26:32.000Z</time>
      </trkpt>
      <trkpt lat="47.50195" lon="6.76604">
        <ele>403</ele>
        <time>2016-05-29T07:26:33.000Z</time>
      </trkpt>
      <trkpt lat="47.50194" lon="6.766">
        <ele>403</ele>
        <time>2016-05-29T07:26:34.000Z</time>
      </trkpt>
      <trkpt lat="47.50194" lon="6.76597">
        <ele>403</ele>
        <time>2016-05-29T07:26:35.000Z</time>
      </trkpt>
      <trkpt lat="47.50193" lon="6.76592">
        <ele>403</ele>
        <time>2016-05-29T07:26:41.000Z</time>
      </trkpt>
      <trkpt lat="47.50193" lon="6.7659">
        <ele>403</ele>
        <time>2016-05-29T07:26:42.000Z</time>
      </trkpt>
      <trkpt lat="47.50194" lon="6.76585">
        <ele>403</ele>
        <time>2016-05-29T07:26:44.000Z</time>
      </trkpt>
      <trkpt lat="47.50196" lon="6.76584">
        <ele>403</ele>
        <time>2016-05-29T07:26:45.000Z</time>
      </trkpt>
      <trkpt lat="47.50197" lon="6.76579">
        <ele>402</ele>
        <time>2016-05-29T07:27:11.000Z</time>
      </trkpt>
      <trkpt lat="47.50198" lon="6.76577">
        <ele>402</ele>
        <time>2016-05-29T07:27:12.000Z</time>
      </trkpt>
      <trkpt lat="47.50196" lon="6.76572">
        <ele>402</ele>
        <time>2016-05-29T07:27:17.000Z</time>
      </trkpt>
      <trkpt lat="47.50196" lon="6.76569">
        <ele>402</ele>
        <time>2016-05-29T07:27:18.000Z</time>
      </trkpt>
      <trkpt lat="47.50197" lon="6.76565">
        <ele>402</ele>
        <time>2016-05-29T07:27:19.000Z</time>
      </trkpt>
      <trkpt lat="47.50198" lon="6.76561">
        <ele>402</ele>
        <time>2016-05-29T07:27:20.000Z</time>
      </trkpt>
      <trkpt lat="47.50199" lon="6.76555">
        <ele>402</ele>
        <time>2016-05-29T07:27:21.000Z</time>
      </trkpt>
      <trkpt lat="47.50199" lon="6.7655">
        <ele>402</ele>
        <time>2016-05-29T07:27:22.000Z</time>
      </trkpt>
      <trkpt lat="47.502" lon="6.76544">
        <ele>401</ele>
        <time>2016-05-29T07:27:23.000Z</time>
      </trkpt>
      <trkpt lat="47.50201" lon="6.76538">
        <ele>401</ele>
        <time>2016-05-29T07:27:24.000Z</time>
      </trkpt>
      <trkpt lat="47.50202" lon="6.76532">
        <ele>401</ele>
        <time>2016-05-29T07:27:25.000Z</time>
      </trkpt>
      <trkpt lat="47.50202" lon="6.76524">
        <ele>401</ele>
        <time>2016-05-29T07:27:26.000Z</time>
      </trkpt>
      <trkpt lat="47.50203" lon="6.76515">
        <ele>401</ele>
        <time>2016-05-29T07:27:27.000Z</time>
      </trkpt>
      <trkpt lat="47.50207" lon="6.76492">
        <ele>397</ele>
        <time>2016-05-29T07:27:28.000Z</time>
      </trkpt>
      <trkpt lat="47.50209" lon="6.76481">
        <ele>396</ele>
        <time>2016-05-29T07:27:29.000Z</time>
      </trkpt>
      <trkpt lat="47.50208" lon="6.7647">
        <ele>396</ele>
        <time>2016-05-29T07:27:30.000Z</time>
      </trkpt>
      <trkpt lat="47.5021" lon="6.76458">
        <ele>395</ele>
        <time>2016-05-29T07:27:31.000Z</time>
      </trkpt>
      <trkpt lat="47.5021" lon="6.76451">
        <ele>395</ele>
        <time>2016-05-29T07:27:32.000Z</time>
      </trkpt>
      <trkpt lat="47.5021" lon="6.76442">
        <ele>394</ele>
        <time>2016-05-29T07:27:33.000Z</time>
      </trkpt>
      <trkpt lat="47.50212" lon="6.76434">
        <ele>394</ele>
        <time>2016-05-29T07:27:34.000Z</time>
      </trkpt>
      <trkpt lat="47.50212" lon="6.76428">
        <ele>394</ele>
        <time>2016-05-29T07:27:35.000Z</time>
      </trkpt>
      <trkpt lat="47.50211" lon="6.76419">
        <ele>393</ele>
        <time>2016-05-29T07:27:36.000Z</time>
      </trkpt>
      <trkpt lat="47.50211" lon="6.7641">
        <ele>390</ele>
        <time>2016-05-29T07:27:37.000Z</time>
      </trkpt>
      <trkpt lat="47.50212" lon="6.76403">
        <ele>389</ele>
        <time>2016-05-29T07:27:38.000Z</time>
      </trkpt>
      <trkpt lat="47.50212" lon="6.76396">
        <ele>389</ele>
        <time>2016-05-29T07:27:39.000Z</time>
      </trkpt>
      <trkpt lat="47.50212" lon="6.76389">
        <ele>389</ele>
        <time>2016-05-29T07:27:40.000Z</time>
      </trkpt>
      <trkpt lat="47.50212" lon="6.76381">
        <ele>389</ele>
        <time>2016-05-29T07:27:41.000Z</time>
      </trkpt>
      <trkpt lat="47.50211" lon="6.76372">
        <ele>389</ele>
        <time>2016-05-29T07:27:42.000Z</time>
      </trkpt>
      <trkpt lat="47.50211" lon="6.76362">
        <ele>388</ele>
        <time>2016-05-29T07:27:43.000Z</time>
      </trkpt>
      <trkpt lat="47.5021" lon="6.76353">
        <ele>388</ele>
        <time>2016-05-29T07:27:44.000Z</time>
      </trkpt>
      <trkpt lat="47.5021" lon="6.76343">
        <ele>388</ele>
        <time>2016-05-29T07:27:45.000Z</time>
      </trkpt>
      <trkpt lat="47.5021" lon="6.76333">
        <ele>385</ele>
        <time>2016-05-29T07:27:46.000Z</time>
      </trkpt>
      <trkpt lat="47.50202" lon="6.7631">
        <ele>385</ele>
        <time>2016-05-29T07:27:47.000Z</time>
      </trkpt>
      <trkpt lat="47.50202" lon="6.763">
        <ele>385</ele>
        <time>2016-05-29T07:27:48.000Z</time>
      </trkpt>
      <trkpt lat="47.50199" lon="6.7629">
        <ele>385</ele>
        <time>2016-05-29T07:27:49.000Z</time>
      </trkpt>
      <trkpt lat="47.50197" lon="6.76283">
        <ele>385</ele>
        <time>2016-05-29T07:27:50.000Z</time>
      </trkpt>
      <trkpt lat="47.50196" lon="6.76275">
        <ele>385</ele>
        <time>2016-05-29T07:27:51.000Z</time>
      </trkpt>
      <trkpt lat="47.50193" lon="6.76266">
        <ele>385</ele>
        <time>2016-05-29T07:27:52.000Z</time>
      </trkpt>
      <trkpt lat="47.50192" lon="6.76259">
        <ele>385</ele>
        <time>2016-05-29T07:27:53.000Z</time>
      </trkpt>
      <trkpt lat="47.50194" lon="6.76252">
        <ele>385</ele>
        <time>2016-05-29T07:27:54.000Z</time>
      </trkpt>
      <trkpt lat="47.50194" lon="6.76244">
        <ele>382</ele>
        <time>2016-05-29T07:27:55.000Z</time>
      </trkpt>
      <trkpt lat="47.50192" lon="6.76234">
        <ele>382</ele>
        <time>2016-05-29T07:27:56.000Z</time>
      </trkpt>
      <trkpt lat="47.50192" lon="6.76223">
        <ele>381</ele>
        <time>2016-05-29T07:27:57.000Z</time>
      </trkpt>
      <trkpt lat="47.50189" lon="6.76213">
        <ele>381</ele>
        <time>2016-05-29T07:27:58.000Z</time>
      </trkpt>
      <trkpt lat="47.50189" lon="6.76205">
        <ele>380</ele>
        <time>2016-05-29T07:27:59.000Z</time>
      </trkpt>
      <trkpt lat="47.50187" lon="6.76197">
        <ele>380</ele>
        <time>2016-05-29T07:28:00.000Z</time>
      </trkpt>
      <trkpt lat="47.50187" lon="6.76184">
        <ele>379</ele>
        <time>2016-05-29T07:28:01.000Z</time>
      </trkpt>
      <trkpt lat="47.50185" lon="6.76173">
        <ele>379</ele>
        <time>2016-05-29T07:28:02.000Z</time>
      </trkpt>
      <trkpt lat="47.50185" lon="6.76164">
        <ele>377</ele>
        <time>2016-05-29T07:28:03.000Z</time>
      </trkpt>
      <trkpt lat="47.50187" lon="6.7615">
        <ele>377</ele>
        <time>2016-05-29T07:28:04.000Z</time>
      </trkpt>
      <trkpt lat="47.50183" lon="6.76139">
        <ele>376</ele>
        <time>2016-05-29T07:28:05.000Z</time>
      </trkpt>
      <trkpt lat="47.50179" lon="6.76123">
        <ele>376</ele>
        <time>2016-05-29T07:28:06.000Z</time>
      </trkpt>
      <trkpt lat="47.50179" lon="6.76105">
        <ele>375</ele>
        <time>2016-05-29T07:28:07.000Z</time>
      </trkpt>
      <trkpt lat="47.50175" lon="6.76092">
        <ele>375</ele>
        <time>2016-05-29T07:28:08.000Z</time>
      </trkpt>
      <trkpt lat="47.50174" lon="6.76077">
        <ele>374</ele>
        <time>2016-05-29T07:28:09.000Z</time>
      </trkpt>
      <trkpt lat="47.50173" lon="6.76066">
        <ele>373</ele>
        <time>2016-05-29T07:28:10.000Z</time>
      </trkpt>
      <trkpt lat="47.50173" lon="6.76055">
        <ele>373</ele>
        <time>2016-05-29T07:28:11.000Z</time>
      </trkpt>
      <trkpt lat="47.5017" lon="6.7604">
        <ele>372</ele>
        <time>2016-05-29T07:28:12.000Z</time>
      </trkpt>
      <trkpt lat="47.50167" lon="6.76029">
        <ele>372</ele>
        <time>2016-05-29T07:28:13.000Z</time>
      </trkpt>
      <trkpt lat="47.50158" lon="6.76019">
        <ele>375</ele>
        <time>2016-05-29T07:28:14.000Z</time>
      </trkpt>
      <trkpt lat="47.50147" lon="6.7601">
        <ele>375</ele>
        <time>2016-05-29T07:28:15.000Z</time>
      </trkpt>
      <trkpt lat="47.50134" lon="6.75998">
        <ele>373</ele>
        <time>2016-05-29T07:28:16.000Z</time>
      </trkpt>
      <trkpt lat="47.50129" lon="6.75987">
        <ele>373</ele>
        <time>2016-05-29T07:28:17.000Z</time>
      </trkpt>
      <trkpt lat="47.50125" lon="6.75976">
        <ele>373</ele>
        <time>2016-05-29T07:28:18.000Z</time>
      </trkpt>
      <trkpt lat="47.50119" lon="6.75967">
        <ele>373</ele>
        <time>2016-05-29T07:28:19.000Z</time>
      </trkpt>
      <trkpt lat="47.50115" lon="6.75959">
        <ele>373</ele>
        <time>2016-05-29T07:28:20.000Z</time>
      </trkpt>
      <trkpt lat="47.50111" lon="6.75949">
        <ele>372</ele>
        <time>2016-05-29T07:28:21.000Z</time>
      </trkpt>
      <trkpt lat="47.50107" lon="6.75939">
        <ele>372</ele>
        <time>2016-05-29T07:28:22.000Z</time>
      </trkpt>
      <trkpt lat="47.50098" lon="6.7593">
        <ele>373</ele>
        <time>2016-05-29T07:28:23.000Z</time>
      </trkpt>
      <trkpt lat="47.50093" lon="6.75922">
        <ele>373</ele>
        <time>2016-05-29T07:28:24.000Z</time>
      </trkpt>
      <trkpt lat="47.50073" lon="6.75904">
        <ele>375</ele>
        <time>2016-05-29T07:28:25.000Z</time>
      </trkpt>
      <trkpt lat="47.50061" lon="6.75894">
        <ele>375</ele>
        <time>2016-05-29T07:28:26.000Z</time>
      </trkpt>
      <trkpt lat="47.50053" lon="6.75887">
        <ele>376</ele>
        <time>2016-05-29T07:28:27.000Z</time>
      </trkpt>
      <trkpt lat="47.50048" lon="6.75877">
        <ele>376</ele>
        <time>2016-05-29T07:28:28.000Z</time>
      </trkpt>
      <trkpt lat="47.50045" lon="6.75865">
        <ele>376</ele>
        <time>2016-05-29T07:28:29.000Z</time>
      </trkpt>
      <trkpt lat="47.50043" lon="6.75857">
        <ele>376</ele>
        <time>2016-05-29T07:28:30.000Z</time>
      </trkpt>
      <trkpt lat="47.5004" lon="6.75848">
        <ele>376</ele>
        <time>2016-05-29T07:28:31.000Z</time>
      </trkpt>
      <trkpt lat="47.50036" lon="6.7584">
        <ele>376</ele>
        <time>2016-05-29T07:28:32.000Z</time>
      </trkpt>
      <trkpt lat="47.5003" lon="6.75829">
        <ele>375</ele>
        <time>2016-05-29T07:28:33.000Z</time>
      </trkpt>
      <trkpt lat="47.50026" lon="6.75821">
        <ele>376</ele>
        <time>2016-05-29T07:28:34.000Z</time>
      </trkpt>
      <trkpt lat="47.50023" lon="6.7581">
        <ele>375</ele>
        <time>2016-05-29T07:28:35.000Z</time>
      </trkpt>
      <trkpt lat="47.50014" lon="6.75796">
        <ele>375</ele>
        <time>2016-05-29T07:28:36.000Z</time>
      </trkpt>
      <trkpt lat="47.50009" lon="6.75787">
        <ele>375</ele>
        <time>2016-05-29T07:28:37.000Z</time>
      </trkpt>
      <trkpt lat="47.50001" lon="6.75776">
        <ele>375</ele>
        <time>2016-05-29T07:28:38.000Z</time>
      </trkpt>
      <trkpt lat="47.49993" lon="6.75769">
        <ele>375</ele>
        <time>2016-05-29T07:28:39.000Z</time>
      </trkpt>
      <trkpt lat="47.49978" lon="6.75759">
        <ele>375</ele>
        <time>2016-05-29T07:28:40.000Z</time>
      </trkpt>
      <trkpt lat="47.49964" lon="6.75744">
        <ele>372</ele>
        <time>2016-05-29T07:28:41.000Z</time>
      </trkpt>
      <trkpt lat="47.49955" lon="6.75733">
        <ele>371</ele>
        <time>2016-05-29T07:28:42.000Z</time>
      </trkpt>
      <trkpt lat="47.49949" lon="6.75725">
        <ele>370</ele>
        <time>2016-05-29T07:28:43.000Z</time>
      </trkpt>
      <trkpt lat="47.49935" lon="6.75712">
        <ele>370</ele>
        <time>2016-05-29T07:28:44.000Z</time>
      </trkpt>
      <trkpt lat="47.49927" lon="6.75705">
        <ele>370</ele>
        <time>2016-05-29T07:28:45.000Z</time>
      </trkpt>
      <trkpt lat="47.49914" lon="6.75713">
        <ele>365</ele>
        <time>2016-05-29T07:28:46.000Z</time>
      </trkpt>
      <trkpt lat="47.49906" lon="6.7571">
        <ele>364</ele>
        <time>2016-05-29T07:28:47.000Z</time>
      </trkpt>
      <trkpt lat="47.49895" lon="6.75711">
        <ele>364</ele>
        <time>2016-05-29T07:28:48.000Z</time>
      </trkpt>
      <trkpt lat="47.49888" lon="6.75711">
        <ele>363</ele>
        <time>2016-05-29T07:28:49.000Z</time>
      </trkpt>
      <trkpt lat="47.49878" lon="6.75712">
        <ele>363</ele>
        <time>2016-05-29T07:28:50.000Z</time>
      </trkpt>
      <trkpt lat="47.49863" lon="6.75715">
        <ele>362</ele>
        <time>2016-05-29T07:28:51.000Z</time>
      </trkpt>
      <trkpt lat="47.49853" lon="6.75711">
        <ele>361</ele>
        <time>2016-05-29T07:28:52.000Z</time>
      </trkpt>
      <trkpt lat="47.49843" lon="6.75711">
        <ele>361</ele>
        <time>2016-05-29T07:28:53.000Z</time>
      </trkpt>
      <trkpt lat="47.49833" lon="6.75714">
        <ele>353</ele>
        <time>2016-05-29T07:28:54.000Z</time>
      </trkpt>
      <trkpt lat="47.49824" lon="6.75716">
        <ele>353</ele>
        <time>2016-05-29T07:28:55.000Z</time>
      </trkpt>
      <trkpt lat="47.49815" lon="6.75717">
        <ele>353</ele>
        <time>2016-05-29T07:28:56.000Z</time>
      </trkpt>
      <trkpt lat="47.49805" lon="6.75718">
        <ele>352</ele>
        <time>2016-05-29T07:28:57.000Z</time>
      </trkpt>
      <trkpt lat="47.49795" lon="6.75721">
        <ele>351</ele>
        <time>2016-05-29T07:28:58.000Z</time>
      </trkpt>
      <trkpt lat="47.49786" lon="6.75722">
        <ele>351</ele>
        <time>2016-05-29T07:28:59.000Z</time>
      </trkpt>
      <trkpt lat="47.49775" lon="6.75725">
        <ele>350</ele>
        <time>2016-05-29T07:29:00.000Z</time>
      </trkpt>
      <trkpt lat="47.49767" lon="6.75726">
        <ele>350</ele>
        <time>2016-05-29T07:29:01.000Z</time>
      </trkpt>
      <trkpt lat="47.49757" lon="6.75724">
        <ele>350</ele>
        <time>2016-05-29T07:29:02.000Z</time>
      </trkpt>
      <trkpt lat="47.49748" lon="6.75726">
        <ele>344</ele>
        <time>2016-05-29T07:29:03.000Z</time>
      </trkpt>
      <trkpt lat="47.49734" lon="6.75736">
        <ele>345</ele>
        <time>2016-05-29T07:29:04.000Z</time>
      </trkpt>
      <trkpt lat="47.49725" lon="6.7574">
        <ele>344</ele>
        <time>2016-05-29T07:29:05.000Z</time>
      </trkpt>
      <trkpt lat="47.49716" lon="6.75743">
        <ele>343</ele>
        <time>2016-05-29T07:29:06.000Z</time>
      </trkpt>
      <trkpt lat="47.49707" lon="6.75746">
        <ele>343</ele>
        <time>2016-05-29T07:29:07.000Z</time>
      </trkpt>
      <trkpt lat="47.49699" lon="6.75756">
        <ele>351</ele>
        <time>2016-05-29T07:29:08.000Z</time>
      </trkpt>
      <trkpt lat="47.49692" lon="6.75757">
        <ele>351</ele>
        <time>2016-05-29T07:29:09.000Z</time>
      </trkpt>
      <trkpt lat="47.49687" lon="6.75758">
        <ele>350</ele>
        <time>2016-05-29T07:29:10.000Z</time>
      </trkpt>
      <trkpt lat="47.49682" lon="6.75757">
        <ele>349</ele>
        <time>2016-05-29T07:29:11.000Z</time>
      </trkpt>
      <trkpt lat="47.49675" lon="6.75757">
        <ele>348</ele>
        <time>2016-05-29T07:29:12.000Z</time>
      </trkpt>
      <trkpt lat="47.49668" lon="6.7576">
        <ele>348</ele>
        <time>2016-05-29T07:29:13.000Z</time>
      </trkpt>
      <trkpt lat="47.49661" lon="6.7576">
        <ele>345</ele>
        <time>2016-05-29T07:29:14.000Z</time>
      </trkpt>
      <trkpt lat="47.49654" lon="6.75761">
        <ele>345</ele>
        <time>2016-05-29T07:29:15.000Z</time>
      </trkpt>
      <trkpt lat="47.49647" lon="6.75759">
        <ele>345</ele>
        <time>2016-05-29T07:29:16.000Z</time>
      </trkpt>
      <trkpt lat="47.49644" lon="6.75749">
        <ele>337</ele>
        <time>2016-05-29T07:29:17.000Z</time>
      </trkpt>
      <trkpt lat="47.49638" lon="6.75747">
        <ele>336</ele>
        <time>2016-05-29T07:29:18.000Z</time>
      </trkpt>
      <trkpt lat="47.49633" lon="6.75743">
        <ele>335</ele>
        <time>2016-05-29T07:29:19.000Z</time>
      </trkpt>
      <trkpt lat="47.49627" lon="6.75748">
        <ele>334</ele>
        <time>2016-05-29T07:29:20.000Z</time>
      </trkpt>
      <trkpt lat="47.4962" lon="6.75746">
        <ele>334</ele>
        <time>2016-05-29T07:29:21.000Z</time>
      </trkpt>
      <trkpt lat="47.49617" lon="6.75747">
        <ele>334</ele>
        <time>2016-05-29T07:29:22.000Z</time>
      </trkpt>
      <trkpt lat="47.49609" lon="6.7575">
        <ele>342</ele>
        <time>2016-05-29T07:29:23.000Z</time>
      </trkpt>
      <trkpt lat="47.49604" lon="6.75752">
        <ele>341</ele>
        <time>2016-05-29T07:29:24.000Z</time>
      </trkpt>
      <trkpt lat="47.49597" lon="6.75755">
        <ele>339</ele>
        <time>2016-05-29T07:29:25.000Z</time>
      </trkpt>
      <trkpt lat="47.4959" lon="6.75756">
        <ele>338</ele>
        <time>2016-05-29T07:29:26.000Z</time>
      </trkpt>
      <trkpt lat="47.49585" lon="6.75756">
        <ele>337</ele>
        <time>2016-05-29T07:29:27.000Z</time>
      </trkpt>
      <trkpt lat="47.49582" lon="6.75756">
        <ele>335</ele>
        <time>2016-05-29T07:29:28.000Z</time>
      </trkpt>
      <trkpt lat="47.49579" lon="6.75754">
        <ele>334</ele>
        <time>2016-05-29T07:29:29.000Z</time>
      </trkpt>
      <trkpt lat="47.49575" lon="6.75748">
        <ele>331</ele>
        <time>2016-05-29T07:29:30.000Z</time>
      </trkpt>
      <trkpt lat="47.4957" lon="6.75742">
        <ele>330</ele>
        <time>2016-05-29T07:29:31.000Z</time>
      </trkpt>
      <trkpt lat="47.49567" lon="6.7574">
        <ele>329</ele>
        <time>2016-05-29T07:29:33.000Z</time>
      </trkpt>
      <trkpt lat="47.49566" lon="6.75739">
        <ele>329</ele>
        <time>2016-05-29T07:29:34.000Z</time>
      </trkpt>
      <trkpt lat="47.49565" lon="6.75746">
        <ele>329</ele>
        <time>2016-05-29T07:29:35.000Z</time>
      </trkpt>
      <trkpt lat="47.49567" lon="6.75744">
        <ele>329</ele>
        <time>2016-05-29T07:29:37.000Z</time>
      </trkpt>
      <trkpt lat="47.49569" lon="6.75743">
        <ele>330</ele>
        <time>2016-05-29T07:29:38.000Z</time>
      </trkpt>
      <trkpt lat="47.49572" lon="6.75742">
        <ele>330</ele>
        <time>2016-05-29T07:29:39.000Z</time>
      </trkpt>
      <trkpt lat="47.49575" lon="6.75741">
        <ele>330</ele>
        <time>2016-05-29T07:29:40.000Z</time>
      </trkpt>
      <trkpt lat="47.49578" lon="6.7574">
        <ele>331</ele>
        <time>2016-05-29T07:29:41.000Z</time>
      </trkpt>
      <trkpt lat="47.49582" lon="6.75739">
        <ele>331</ele>
        <time>2016-05-29T07:29:42.000Z</time>
      </trkpt>
      <trkpt lat="47.49585" lon="6.75736">
        <ele>333</ele>
        <time>2016-05-29T07:29:43.000Z</time>
      </trkpt>
      <trkpt lat="47.49589" lon="6.75734">
        <ele>333</ele>
        <time>2016-05-29T07:29:44.000Z</time>
      </trkpt>
      <trkpt lat="47.49593" lon="6.75732">
        <ele>332</ele>
        <time>2016-05-29T07:29:45.000Z</time>
      </trkpt>
      <trkpt lat="47.49596" lon="6.7573">
        <ele>332</ele>
        <time>2016-05-29T07:29:46.000Z</time>
      </trkpt>
      <trkpt lat="47.496" lon="6.75728">
        <ele>332</ele>
        <time>2016-05-29T07:29:47.000Z</time>
      </trkpt>
      <trkpt lat="47.49603" lon="6.75726">
        <ele>332</ele>
        <time>2016-05-29T07:29:48.000Z</time>
      </trkpt>
      <trkpt lat="47.49605" lon="6.75724">
        <ele>332</ele>
        <time>2016-05-29T07:29:49.000Z</time>
      </trkpt>
      <trkpt lat="47.49607" lon="6.75722">
        <ele>332</ele>
        <time>2016-05-29T07:29:50.000Z</time>
      </trkpt>
      <trkpt lat="47.4961" lon="6.75718">
        <ele>332</ele>
        <time>2016-05-29T07:29:51.000Z</time>
      </trkpt>
      <trkpt lat="47.49611" lon="6.75712">
        <ele>331</ele>
        <time>2016-05-29T07:29:52.000Z</time>
      </trkpt>
      <trkpt lat="47.4961" lon="6.75707">
        <ele>331</ele>
        <time>2016-05-29T07:29:53.000Z</time>
      </trkpt>
      <trkpt lat="47.49606" lon="6.75701">
        <ele>330</ele>
        <time>2016-05-29T07:29:54.000Z</time>
      </trkpt>
      <trkpt lat="47.49602" lon="6.75696">
        <ele>329</ele>
        <time>2016-05-29T07:29:55.000Z</time>
      </trkpt>
      <trkpt lat="47.49591" lon="6.7568">
        <ele>326</ele>
        <time>2016-05-29T07:29:56.000Z</time>
      </trkpt>
      <trkpt lat="47.49587" lon="6.75673">
        <ele>324</ele>
        <time>2016-05-29T07:29:57.000Z</time>
      </trkpt>
      <trkpt lat="47.49579" lon="6.75668">
        <ele>322</ele>
        <time>2016-05-29T07:29:58.000Z</time>
      </trkpt>
      <trkpt lat="47.49573" lon="6.7567">
        <ele>322</ele>
        <time>2016-05-29T07:29:59.000Z</time>
      </trkpt>
      <trkpt lat="47.49567" lon="6.75675">
        <ele>323</ele>
        <time>2016-05-29T07:30:00.000Z</time>
      </trkpt>
      <trkpt lat="47.49562" lon="6.75681">
        <ele>324</ele>
        <time>2016-05-29T07:30:01.000Z</time>
      </trkpt>
      <trkpt lat="47.49558" lon="6.75687">
        <ele>324</ele>
        <time>2016-05-29T07:30:02.000Z</time>
      </trkpt>
      <trkpt lat="47.49554" lon="6.75694">
        <ele>325</ele>
        <time>2016-05-29T07:30:03.000Z</time>
      </trkpt>
      <trkpt lat="47.4955" lon="6.757">
        <ele>325</ele>
        <time>2016-05-29T07:30:04.000Z</time>
      </trkpt>
      <trkpt lat="47.49545" lon="6.75707">
        <ele>325</ele>
        <time>2016-05-29T07:30:05.000Z</time>
      </trkpt>
      <trkpt lat="47.4954" lon="6.75711">
        <ele>325</ele>
        <time>2016-05-29T07:30:06.000Z</time>
      </trkpt>
      <trkpt lat="47.49536" lon="6.75716">
        <ele>325</ele>
        <time>2016-05-29T07:30:07.000Z</time>
      </trkpt>
      <trkpt lat="47.49531" lon="6.75721">
        <ele>325</ele>
        <time>2016-05-29T07:30:08.000Z</time>
      </trkpt>
      <trkpt lat="47.49526" lon="6.75728">
        <ele>325</ele>
        <time>2016-05-29T07:30:09.000Z</time>
      </trkpt>
      <trkpt lat="47.49521" lon="6.75733">
        <ele>325</ele>
        <time>2016-05-29T07:30:10.000Z</time>
      </trkpt>
      <trkpt lat="47.49515" lon="6.75736">
        <ele>325</ele>
        <time>2016-05-29T07:30:11.000Z</time>
      </trkpt>
      <trkpt lat="47.4951" lon="6.75738">
        <ele>325</ele>
        <time>2016-05-29T07:30:12.000Z</time>
      </trkpt>
      <trkpt lat="47.49504" lon="6.75741">
        <ele>324</ele>
        <time>2016-05-29T07:30:13.000Z</time>
      </trkpt>
      <trkpt lat="47.49499" lon="6.75744">
        <ele>323</ele>
        <time>2016-05-29T07:30:14.000Z</time>
      </trkpt>
      <trkpt lat="47.49493" lon="6.75746">
        <ele>323</ele>
        <time>2016-05-29T07:30:15.000Z</time>
      </trkpt>
      <trkpt lat="47.49486" lon="6.75746">
        <ele>323</ele>
        <time>2016-05-29T07:30:16.000Z</time>
      </trkpt>
      <trkpt lat="47.49481" lon="6.75743">
        <ele>322</ele>
        <time>2016-05-29T07:30:17.000Z</time>
      </trkpt>
      <trkpt lat="47.49478" lon="6.75734">
        <ele>322</ele>
        <time>2016-05-29T07:30:18.000Z</time>
      </trkpt>
      <trkpt lat="47.49476" lon="6.75725">
        <ele>322</ele>
        <time>2016-05-29T07:30:19.000Z</time>
      </trkpt>
      <trkpt lat="47.49474" lon="6.75716">
        <ele>321</ele>
        <time>2016-05-29T07:30:20.000Z</time>
      </trkpt>
      <trkpt lat="47.49472" lon="6.75708">
        <ele>321</ele>
        <time>2016-05-29T07:30:21.000Z</time>
      </trkpt>
      <trkpt lat="47.49468" lon="6.75701">
        <ele>321</ele>
        <time>2016-05-29T07:30:22.000Z</time>
      </trkpt>
      <trkpt lat="47.49464" lon="6.75695">
        <ele>321</ele>
        <time>2016-05-29T07:30:23.000Z</time>
      </trkpt>
      <trkpt lat="47.4946" lon="6.75692">
        <ele>321</ele>
        <time>2016-05-29T07:30:24.000Z</time>
      </trkpt>
      <trkpt lat="47.49455" lon="6.75695">
        <ele>321</ele>
        <time>2016-05-29T07:30:25.000Z</time>
      </trkpt>
      <trkpt lat="47.4945" lon="6.75698">
        <ele>321</ele>
        <time>2016-05-29T07:30:26.000Z</time>
      </trkpt>
      <trkpt lat="47.49447" lon="6.757">
        <ele>321</ele>
        <time>2016-05-29T07:30:27.000Z</time>
      </trkpt>
      <trkpt lat="47.49444" lon="6.75696">
        <ele>321</ele>
        <time>2016-05-29T07:30:28.000Z</time>
      </trkpt>
      <trkpt lat="47.49441" lon="6.75693">
        <ele>321</ele>
        <time>2016-05-29T07:30:29.000Z</time>
      </trkpt>
      <trkpt lat="47.49442" lon="6.75685">
        <ele>320</ele>
        <time>2016-05-29T07:30:30.000Z</time>
      </trkpt>
      <trkpt lat="47.49441" lon="6.7568">
        <ele>320</ele>
        <time>2016-05-29T07:30:31.000Z</time>
      </trkpt>
      <trkpt lat="47.49438" lon="6.75675">
        <ele>320</ele>
        <time>2016-05-29T07:30:32.000Z</time>
      </trkpt>
      <trkpt lat="47.49436" lon="6.75671">
        <ele>320</ele>
        <time>2016-05-29T07:30:33.000Z</time>
      </trkpt>
      <trkpt lat="47.49433" lon="6.75669">
        <ele>320</ele>
        <time>2016-05-29T07:30:34.000Z</time>
      </trkpt>
      <trkpt lat="47.4943" lon="6.75667">
        <ele>320</ele>
        <time>2016-05-29T07:30:35.000Z</time>
      </trkpt>
      <trkpt lat="47.49427" lon="6.75665">
        <ele>320</ele>
        <time>2016-05-29T07:30:36.000Z</time>
      </trkpt>
      <trkpt lat="47.49424" lon="6.75664">
        <ele>319</ele>
        <time>2016-05-29T07:30:37.000Z</time>
      </trkpt>
      <trkpt lat="47.49422" lon="6.75663">
        <ele>319</ele>
        <time>2016-05-29T07:30:38.000Z</time>
      </trkpt>
      <trkpt lat="47.49418" lon="6.75664">
        <ele>319</ele>
        <time>2016-05-29T07:30:39.000Z</time>
      </trkpt>
      <trkpt lat="47.49408" lon="6.75675">
        <ele>319</ele>
        <time>2016-05-29T07:30:40.000Z</time>
      </trkpt>
      <trkpt lat="47.49402" lon="6.7568">
        <ele>319</ele>
        <time>2016-05-29T07:30:41.000Z</time>
      </trkpt>
      <trkpt lat="47.49396" lon="6.75685">
        <ele>319</ele>
        <time>2016-05-29T07:30:42.000Z</time>
      </trkpt>
      <trkpt lat="47.49391" lon="6.75688">
        <ele>319</ele>
        <time>2016-05-29T07:30:43.000Z</time>
      </trkpt>
      <trkpt lat="47.49387" lon="6.75691">
        <ele>319</ele>
        <time>2016-05-29T07:30:44.000Z</time>
      </trkpt>
      <trkpt lat="47.49384" lon="6.75694">
        <ele>319</ele>
        <time>2016-05-29T07:30:45.000Z</time>
      </trkpt>
      <trkpt lat="47.4938" lon="6.75693">
        <ele>319</ele>
        <time>2016-05-29T07:30:46.000Z</time>
      </trkpt>
      <trkpt lat="47.49378" lon="6.75692">
        <ele>319</ele>
        <time>2016-05-29T07:30:47.000Z</time>
      </trkpt>
      <trkpt lat="47.49375" lon="6.75693">
        <ele>319</ele>
        <time>2016-05-29T07:30:48.000Z</time>
      </trkpt>
      <trkpt lat="47.49372" lon="6.75694">
        <ele>319</ele>
        <time>2016-05-29T07:30:49.000Z</time>
      </trkpt>
      <trkpt lat="47.49369" lon="6.75698">
        <ele>319</ele>
        <time>2016-05-29T07:30:50.000Z</time>
      </trkpt>
      <trkpt lat="47.49366" lon="6.757">
        <ele>319</ele>
        <time>2016-05-29T07:30:51.000Z</time>
      </trkpt>
      <trkpt lat="47.49363" lon="6.75703">
        <ele>319</ele>
        <time>2016-05-29T07:30:54.000Z</time>
      </trkpt>
      <trkpt lat="47.49361" lon="6.75705">
        <ele>319</ele>
        <time>2016-05-29T07:30:55.000Z</time>
      </trkpt>
      <trkpt lat="47.49359" lon="6.75706">
        <ele>319</ele>
        <time>2016-05-29T07:30:56.000Z</time>
      </trkpt>
      <trkpt lat="47.49356" lon="6.75708">
        <ele>319</ele>
        <time>2016-05-29T07:30:57.000Z</time>
      </trkpt>
      <trkpt lat="47.49353" lon="6.75709">
        <ele>319</ele>
        <time>2016-05-29T07:30:58.000Z</time>
      </trkpt>
      <trkpt lat="47.49349" lon="6.75711">
        <ele>319</ele>
        <time>2016-05-29T07:30:59.000Z</time>
      </trkpt>
      <trkpt lat="47.49345" lon="6.75712">
        <ele>319</ele>
        <time>2016-05-29T07:31:00.000Z</time>
      </trkpt>
      <trkpt lat="47.49342" lon="6.75714">
        <ele>318</ele>
        <time>2016-05-29T07:31:01.000Z</time>
      </trkpt>
      <trkpt lat="47.4934" lon="6.75716">
        <ele>318</ele>
        <time>2016-05-29T07:31:02.000Z</time>
      </trkpt>
      <trkpt lat="47.49337" lon="6.75718">
        <ele>318</ele>
        <time>2016-05-29T07:31:03.000Z</time>
      </trkpt>
      <trkpt lat="47.49334" lon="6.75721">
        <ele>318</ele>
        <time>2016-05-29T07:31:04.000Z</time>
      </trkpt>
      <trkpt lat="47.4933" lon="6.75723">
        <ele>319</ele>
        <time>2016-05-29T07:31:05.000Z</time>
      </trkpt>
      <trkpt lat="47.49326" lon="6.75725">
        <ele>319</ele>
        <time>2016-05-29T07:31:06.000Z</time>
      </trkpt>
      <trkpt lat="47.49317" lon="6.75739">
        <ele>319</ele>
        <time>2016-05-29T07:31:07.000Z</time>
      </trkpt>
      <trkpt lat="47.49313" lon="6.75745">
        <ele>319</ele>
        <time>2016-05-29T07:31:08.000Z</time>
      </trkpt>
      <trkpt lat="47.49309" lon="6.75749">
        <ele>319</ele>
        <time>2016-05-29T07:31:09.000Z</time>
      </trkpt>
      <trkpt lat="47.49306" lon="6.75752">
        <ele>318</ele>
        <time>2016-05-29T07:31:10.000Z</time>
      </trkpt>
      <trkpt lat="47.49303" lon="6.75756">
        <ele>318</ele>
        <time>2016-05-29T07:31:11.000Z</time>
      </trkpt>
      <trkpt lat="47.49299" lon="6.75761">
        <ele>318</ele>
        <time>2016-05-29T07:31:12.000Z</time>
      </trkpt>
      <trkpt lat="47.49295" lon="6.75767">
        <ele>318</ele>
        <time>2016-05-29T07:31:13.000Z</time>
      </trkpt>
      <trkpt lat="47.49291" lon="6.75773">
        <ele>318</ele>
        <time>2016-05-29T07:31:14.000Z</time>
      </trkpt>
      <trkpt lat="47.49288" lon="6.75779">
        <ele>318</ele>
        <time>2016-05-29T07:31:15.000Z</time>
      </trkpt>
      <trkpt lat="47.49282" lon="6.75785">
        <ele>318</ele>
        <time>2016-05-29T07:31:16.000Z</time>
      </trkpt>
      <trkpt lat="47.49279" lon="6.75789">
        <ele>318</ele>
        <time>2016-05-29T07:31:17.000Z</time>
      </trkpt>
      <trkpt lat="47.49274" lon="6.75796">
        <ele>317</ele>
        <time>2016-05-29T07:31:18.000Z</time>
      </trkpt>
      <trkpt lat="47.49268" lon="6.75802">
        <ele>317</ele>
        <time>2016-05-29T07:31:19.000Z</time>
      </trkpt>
      <trkpt lat="47.49262" lon="6.75808">
        <ele>317</ele>
        <time>2016-05-29T07:31:20.000Z</time>
      </trkpt>
      <trkpt lat="47.4926" lon="6.75816">
        <ele>316</ele>
        <time>2016-05-29T07:31:21.000Z</time>
      </trkpt>
      <trkpt lat="47.49255" lon="6.75821">
        <ele>315</ele>
        <time>2016-05-29T07:31:22.000Z</time>
      </trkpt>
      <trkpt lat="47.4925" lon="6.75826">
        <ele>316</ele>
        <time>2016-05-29T07:31:23.000Z</time>
      </trkpt>
      <trkpt lat="47.49248" lon="6.7583">
        <ele>315</ele>
        <time>2016-05-29T07:31:24.000Z</time>
      </trkpt>
      <trkpt lat="47.49244" lon="6.75834">
        <ele>315</ele>
        <time>2016-05-29T07:31:25.000Z</time>
      </trkpt>
      <trkpt lat="47.49241" lon="6.7584">
        <ele>316</ele>
        <time>2016-05-29T07:31:26.000Z</time>
      </trkpt>
      <trkpt lat="47.49239" lon="6.75844">
        <ele>316</ele>
        <time>2016-05-29T07:31:27.000Z</time>
      </trkpt>
      <trkpt lat="47.49234" lon="6.75849">
        <ele>317</ele>
        <time>2016-05-29T07:31:28.000Z</time>
      </trkpt>
      <trkpt lat="47.4923" lon="6.75853">
        <ele>318</ele>
        <time>2016-05-29T07:31:29.000Z</time>
      </trkpt>
      <trkpt lat="47.49226" lon="6.75857">
        <ele>318</ele>
        <time>2016-05-29T07:31:30.000Z</time>
      </trkpt>
      <trkpt lat="47.49221" lon="6.75866">
        <ele>319</ele>
        <time>2016-05-29T07:31:31.000Z</time>
      </trkpt>
      <trkpt lat="47.49215" lon="6.75871">
        <ele>319</ele>
        <time>2016-05-29T07:31:32.000Z</time>
      </trkpt>
      <trkpt lat="47.49213" lon="6.75879">
        <ele>319</ele>
        <time>2016-05-29T07:31:33.000Z</time>
      </trkpt>
      <trkpt lat="47.4921" lon="6.75884">
        <ele>319</ele>
        <time>2016-05-29T07:31:34.000Z</time>
      </trkpt>
      <trkpt lat="47.49206" lon="6.75892">
        <ele>320</ele>
        <time>2016-05-29T07:31:35.000Z</time>
      </trkpt>
      <trkpt lat="47.49203" lon="6.75903">
        <ele>320</ele>
        <time>2016-05-29T07:31:36.000Z</time>
      </trkpt>
      <trkpt lat="47.492" lon="6.75913">
        <ele>320</ele>
        <time>2016-05-29T07:31:37.000Z</time>
      </trkpt>
      <trkpt lat="47.49198" lon="6.75919">
        <ele>321</ele>
        <time>2016-05-29T07:31:38.000Z</time>
      </trkpt>
      <trkpt lat="47.49196" lon="6.75924">
        <ele>321</ele>
        <time>2016-05-29T07:31:39.000Z</time>
      </trkpt>
      <trkpt lat="47.49193" lon="6.75932">
        <ele>321</ele>
        <time>2016-05-29T07:31:40.000Z</time>
      </trkpt>
      <trkpt lat="47.49189" lon="6.75939">
        <ele>321</ele>
        <time>2016-05-29T07:31:41.000Z</time>
      </trkpt>
      <trkpt lat="47.49185" lon="6.75952">
        <ele>321</ele>
        <time>2016-05-29T07:31:42.000Z</time>
      </trkpt>
      <trkpt lat="47.49182" lon="6.75962">
        <ele>320</ele>
        <time>2016-05-29T07:31:43.000Z</time>
      </trkpt>
      <trkpt lat="47.49179" lon="6.7597">
        <ele>320</ele>
        <time>2016-05-29T07:31:44.000Z</time>
      </trkpt>
      <trkpt lat="47.49177" lon="6.7598">
        <ele>320</ele>
        <time>2016-05-29T07:31:45.000Z</time>
      </trkpt>
      <trkpt lat="47.49173" lon="6.75986">
        <ele>320</ele>
        <time>2016-05-29T07:31:46.000Z</time>
      </trkpt>
      <trkpt lat="47.49169" lon="6.75989">
        <ele>320</ele>
        <time>2016-05-29T07:31:47.000Z</time>
      </trkpt>
      <trkpt lat="47.49167" lon="6.75999">
        <ele>319</ele>
        <time>2016-05-29T07:31:48.000Z</time>
      </trkpt>
      <trkpt lat="47.49165" lon="6.76007">
        <ele>320</ele>
        <time>2016-05-29T07:31:49.000Z</time>
      </trkpt>
      <trkpt lat="47.49162" lon="6.76014">
        <ele>321</ele>
        <time>2016-05-29T07:31:50.000Z</time>
      </trkpt>
      <trkpt lat="47.49161" lon="6.76017">
        <ele>322</ele>
        <time>2016-05-29T07:31:51.000Z</time>
      </trkpt>
      <trkpt lat="47.49158" lon="6.76021">
        <ele>322</ele>
        <time>2016-05-29T07:31:52.000Z</time>
      </trkpt>
      <trkpt lat="47.49157" lon="6.76025">
        <ele>322</ele>
        <time>2016-05-29T07:31:53.000Z</time>
      </trkpt>
      <trkpt lat="47.49153" lon="6.76029">
        <ele>323</ele>
        <time>2016-05-29T07:31:54.000Z</time>
      </trkpt>
      <trkpt lat="47.4915" lon="6.76033">
        <ele>323</ele>
        <time>2016-05-29T07:31:55.000Z</time>
      </trkpt>
      <trkpt lat="47.49146" lon="6.76039">
        <ele>323</ele>
        <time>2016-05-29T07:31:56.000Z</time>
      </trkpt>
      <trkpt lat="47.49143" lon="6.76047">
        <ele>323</ele>
        <time>2016-05-29T07:31:57.000Z</time>
      </trkpt>
      <trkpt lat="47.49139" lon="6.76056">
        <ele>323</ele>
        <time>2016-05-29T07:31:58.000Z</time>
      </trkpt>
      <trkpt lat="47.49136" lon="6.76066">
        <ele>323</ele>
        <time>2016-05-29T07:31:59.000Z</time>
      </trkpt>
      <trkpt lat="47.49133" lon="6.76076">
        <ele>323</ele>
        <time>2016-05-29T07:32:00.000Z</time>
      </trkpt>
      <trkpt lat="47.49132" lon="6.76091">
        <ele>322</ele>
        <time>2016-05-29T07:32:01.000Z</time>
      </trkpt>
      <trkpt lat="47.4913" lon="6.76102">
        <ele>322</ele>
        <time>2016-05-29T07:32:02.000Z</time>
      </trkpt>
      <trkpt lat="47.49129" lon="6.76111">
        <ele>322</ele>
        <time>2016-05-29T07:32:03.000Z</time>
      </trkpt>
      <trkpt lat="47.49127" lon="6.76119">
        <ele>322</ele>
        <time>2016-05-29T07:32:04.000Z</time>
      </trkpt>
      <trkpt lat="47.49127" lon="6.76125">
        <ele>322</ele>
        <time>2016-05-29T07:32:05.000Z</time>
      </trkpt>
      <trkpt lat="47.49128" lon="6.76134">
        <ele>322</ele>
        <time>2016-05-29T07:32:06.000Z</time>
      </trkpt>
      <trkpt lat="47.49128" lon="6.76142">
        <ele>322</ele>
        <time>2016-05-29T07:32:07.000Z</time>
      </trkpt>
      <trkpt lat="47.49127" lon="6.76151">
        <ele>322</ele>
        <time>2016-05-29T07:32:08.000Z</time>
      </trkpt>
      <trkpt lat="47.49125" lon="6.76158">
        <ele>322</ele>
        <time>2016-05-29T07:32:09.000Z</time>
      </trkpt>
      <trkpt lat="47.4912" lon="6.76166">
        <ele>322</ele>
        <time>2016-05-29T07:32:10.000Z</time>
      </trkpt>
      <trkpt lat="47.49119" lon="6.76176">
        <ele>321</ele>
        <time>2016-05-29T07:32:11.000Z</time>
      </trkpt>
      <trkpt lat="47.49118" lon="6.76182">
        <ele>321</ele>
        <time>2016-05-29T07:32:12.000Z</time>
      </trkpt>
      <trkpt lat="47.49116" lon="6.76188">
        <ele>321</ele>
        <time>2016-05-29T07:32:13.000Z</time>
      </trkpt>
      <trkpt lat="47.49115" lon="6.76192">
        <ele>321</ele>
        <time>2016-05-29T07:32:15.000Z</time>
      </trkpt>
      <trkpt lat="47.49115" lon="6.76197">
        <ele>321</ele>
        <time>2016-05-29T07:32:16.000Z</time>
      </trkpt>
      <trkpt lat="47.49115" lon="6.762">
        <ele>321</ele>
        <time>2016-05-29T07:32:17.000Z</time>
      </trkpt>
      <trkpt lat="47.49114" lon="6.76205">
        <ele>321</ele>
        <time>2016-05-29T07:32:18.000Z</time>
      </trkpt>
      <trkpt lat="47.49112" lon="6.76213">
        <ele>322</ele>
        <time>2016-05-29T07:32:19.000Z</time>
      </trkpt>
      <trkpt lat="47.49112" lon="6.76218">
        <ele>322</ele>
        <time>2016-05-29T07:32:20.000Z</time>
      </trkpt>
      <trkpt lat="47.49112" lon="6.76224">
        <ele>322</ele>
        <time>2016-05-29T07:32:21.000Z</time>
      </trkpt>
      <trkpt lat="47.49111" lon="6.76229">
        <ele>322</ele>
        <time>2016-05-29T07:32:22.000Z</time>
      </trkpt>
      <trkpt lat="47.49111" lon="6.76234">
        <ele>322</ele>
        <time>2016-05-29T07:32:23.000Z</time>
      </trkpt>
      <trkpt lat="47.49111" lon="6.76241">
        <ele>322</ele>
        <time>2016-05-29T07:32:24.000Z</time>
      </trkpt>
      <trkpt lat="47.49111" lon="6.76248">
        <ele>322</ele>
        <time>2016-05-29T07:32:25.000Z</time>
      </trkpt>
      <trkpt lat="47.49111" lon="6.76255">
        <ele>321</ele>
        <time>2016-05-29T07:32:26.000Z</time>
      </trkpt>
      <trkpt lat="47.49111" lon="6.76262">
        <ele>321</ele>
        <time>2016-05-29T07:32:27.000Z</time>
      </trkpt>
      <trkpt lat="47.49111" lon="6.76268">
        <ele>321</ele>
        <time>2016-05-29T07:32:28.000Z</time>
      </trkpt>
      <trkpt lat="47.49111" lon="6.76275">
        <ele>321</ele>
        <time>2016-05-29T07:32:29.000Z</time>
      </trkpt>
      <trkpt lat="47.49111" lon="6.76282">
        <ele>320</ele>
        <time>2016-05-29T07:32:30.000Z</time>
      </trkpt>
      <trkpt lat="47.49111" lon="6.76289">
        <ele>320</ele>
        <time>2016-05-29T07:32:31.000Z</time>
      </trkpt>
      <trkpt lat="47.49111" lon="6.76296">
        <ele>320</ele>
        <time>2016-05-29T07:32:32.000Z</time>
      </trkpt>
      <trkpt lat="47.4911" lon="6.76304">
        <ele>320</ele>
        <time>2016-05-29T07:32:33.000Z</time>
      </trkpt>
      <trkpt lat="47.49108" lon="6.76312">
        <ele>320</ele>
        <time>2016-05-29T07:32:34.000Z</time>
      </trkpt>
      <trkpt lat="47.49107" lon="6.76322">
        <ele>320</ele>
        <time>2016-05-29T07:32:35.000Z</time>
      </trkpt>
      <trkpt lat="47.49107" lon="6.76357">
        <ele>319</ele>
        <time>2016-05-29T07:32:36.000Z</time>
      </trkpt>
      <trkpt lat="47.49107" lon="6.76366">
        <ele>319</ele>
        <time>2016-05-29T07:32:37.000Z</time>
      </trkpt>
      <trkpt lat="47.49107" lon="6.76375">
        <ele>319</ele>
        <time>2016-05-29T07:32:38.000Z</time>
      </trkpt>
      <trkpt lat="47.49107" lon="6.76383">
        <ele>319</ele>
        <time>2016-05-29T07:32:39.000Z</time>
      </trkpt>
      <trkpt lat="47.49107" lon="6.76391">
        <ele>319</ele>
        <time>2016-05-29T07:32:40.000Z</time>
      </trkpt>
      <trkpt lat="47.49107" lon="6.76399">
        <ele>319</ele>
        <time>2016-05-29T07:32:41.000Z</time>
      </trkpt>
      <trkpt lat="47.49107" lon="6.76408">
        <ele>319</ele>
        <time>2016-05-29T07:32:42.000Z</time>
      </trkpt>
      <trkpt lat="47.49107" lon="6.76418">
        <ele>318</ele>
        <time>2016-05-29T07:32:43.000Z</time>
      </trkpt>
      <trkpt lat="47.49108" lon="6.76428">
        <ele>318</ele>
        <time>2016-05-29T07:32:44.000Z</time>
      </trkpt>
      <trkpt lat="47.49108" lon="6.76437">
        <ele>318</ele>
        <time>2016-05-29T07:32:45.000Z</time>
      </trkpt>
      <trkpt lat="47.49107" lon="6.76445">
        <ele>318</ele>
        <time>2016-05-29T07:32:46.000Z</time>
      </trkpt>
      <trkpt lat="47.49107" lon="6.76453">
        <ele>318</ele>
        <time>2016-05-29T07:32:47.000Z</time>
      </trkpt>
      <trkpt lat="47.49107" lon="6.76461">
        <ele>318</ele>
        <time>2016-05-29T07:32:48.000Z</time>
      </trkpt>
      <trkpt lat="47.49109" lon="6.7648">
        <ele>318</ele>
        <time>2016-05-29T07:32:49.000Z</time>
      </trkpt>
      <trkpt lat="47.49111" lon="6.76504">
        <ele>317</ele>
        <time>2016-05-29T07:32:50.000Z</time>
      </trkpt>
      <trkpt lat="47.49117" lon="6.76515">
        <ele>317</ele>
        <time>2016-05-29T07:32:51.000Z</time>
      </trkpt>
      <trkpt lat="47.49122" lon="6.76521">
        <ele>316</ele>
        <time>2016-05-29T07:32:52.000Z</time>
      </trkpt>
      <trkpt lat="47.49127" lon="6.76522">
        <ele>316</ele>
        <time>2016-05-29T07:32:53.000Z</time>
      </trkpt>
      <trkpt lat="47.49132" lon="6.76522">
        <ele>316</ele>
        <time>2016-05-29T07:32:54.000Z</time>
      </trkpt>
      <trkpt lat="47.49138" lon="6.76524">
        <ele>315</ele>
        <time>2016-05-29T07:32:55.000Z</time>
      </trkpt>
      <trkpt lat="47.49143" lon="6.76522">
        <ele>315</ele>
        <time>2016-05-29T07:32:56.000Z</time>
      </trkpt>
      <trkpt lat="47.49147" lon="6.7652">
        <ele>315</ele>
        <time>2016-05-29T07:32:57.000Z</time>
      </trkpt>
      <trkpt lat="47.49151" lon="6.76518">
        <ele>315</ele>
        <time>2016-05-29T07:32:58.000Z</time>
      </trkpt>
      <trkpt lat="47.49155" lon="6.76516">
        <ele>315</ele>
        <time>2016-05-29T07:32:59.000Z</time>
      </trkpt>
      <trkpt lat="47.49157" lon="6.76515">
        <ele>314</ele>
        <time>2016-05-29T07:33:00.000Z</time>
      </trkpt>
      <trkpt lat="47.4916" lon="6.76513">
        <ele>314</ele>
        <time>2016-05-29T07:33:01.000Z</time>
      </trkpt>
      <trkpt lat="47.49163" lon="6.76511">
        <ele>314</ele>
        <time>2016-05-29T07:33:02.000Z</time>
      </trkpt>
      <trkpt lat="47.49165" lon="6.7651">
        <ele>314</ele>
        <time>2016-05-29T07:33:03.000Z</time>
      </trkpt>
      <trkpt lat="47.49168" lon="6.76508">
        <ele>314</ele>
        <time>2016-05-29T07:33:04.000Z</time>
      </trkpt>
      <trkpt lat="47.49169" lon="6.76506">
        <ele>314</ele>
        <time>2016-05-29T07:33:05.000Z</time>
      </trkpt>
      <trkpt lat="47.49172" lon="6.76501">
        <ele>314</ele>
        <time>2016-05-29T07:33:07.000Z</time>
      </trkpt>
      <trkpt lat="47.49172" lon="6.76498">
        <ele>314</ele>
        <time>2016-05-29T07:33:08.000Z</time>
      </trkpt>
      <trkpt lat="47.49172" lon="6.76492">
        <ele>315</ele>
        <time>2016-05-29T07:33:10.000Z</time>
      </trkpt>
      <trkpt lat="47.49172" lon="6.76489">
        <ele>315</ele>
        <time>2016-05-29T07:33:11.000Z</time>
      </trkpt>
      <trkpt lat="47.49174" lon="6.76483">
        <ele>315</ele>
        <time>2016-05-29T07:35:38.000Z</time>
      </trkpt>
      <trkpt lat="47.49174" lon="6.76483">
        <ele>315</ele>
        <time>2016-05-29T07:35:39.000Z</time>
      </trkpt>
      <trkpt lat="47.49173" lon="6.76489">
        <ele>315</ele>
        <time>2016-05-29T07:35:57.999Z</time>
      </trkpt>
      <trkpt lat="47.49174" lon="6.76491">
        <ele>315</ele>
        <time>2016-05-29T07:35:59.000Z</time>
      </trkpt>
      <trkpt lat="47.49173" lon="6.76497">
        <ele>314</ele>
        <time>2016-05-29T07:36:02.000Z</time>
      </trkpt>
      <trkpt lat="47.49173" lon="6.76499">
        <ele>314</ele>
        <time>2016-05-29T07:36:03.000Z</time>
      </trkpt>
      <trkpt lat="47.4917" lon="6.76503">
        <ele>314</ele>
        <time>2016-05-29T07:36:06.000Z</time>
      </trkpt>
      <trkpt lat="47.49169" lon="6.76504">
        <ele>314</ele>
        <time>2016-05-29T07:36:07.000Z</time>
      </trkpt>
      <trkpt lat="47.49167" lon="6.76506">
        <ele>314</ele>
        <time>2016-05-29T07:36:08.000Z</time>
      </trkpt>
      <trkpt lat="47.49164" lon="6.76507">
        <ele>314</ele>
        <time>2016-05-29T07:36:09.000Z</time>
      </trkpt>
      <trkpt lat="47.4916" lon="6.76509">
        <ele>314</ele>
        <time>2016-05-29T07:36:10.000Z</time>
      </trkpt>
      <trkpt lat="47.49156" lon="6.7651">
        <ele>314</ele>
        <time>2016-05-29T07:36:11.000Z</time>
      </trkpt>
      <trkpt lat="47.49151" lon="6.76511">
        <ele>315</ele>
        <time>2016-05-29T07:36:12.000Z</time>
      </trkpt>
      <trkpt lat="47.49146" lon="6.76511">
        <ele>315</ele>
        <time>2016-05-29T07:36:13.000Z</time>
      </trkpt>
      <trkpt lat="47.49138" lon="6.7651">
        <ele>315</ele>
        <time>2016-05-29T07:36:14.000Z</time>
      </trkpt>
      <trkpt lat="47.49134" lon="6.7651">
        <ele>316</ele>
        <time>2016-05-29T07:36:15.000Z</time>
      </trkpt>
      <trkpt lat="47.4913" lon="6.76511">
        <ele>316</ele>
        <time>2016-05-29T07:36:16.000Z</time>
      </trkpt>
      <trkpt lat="47.49127" lon="6.7651">
        <ele>316</ele>
        <time>2016-05-29T07:36:17.000Z</time>
      </trkpt>
      <trkpt lat="47.49124" lon="6.76511">
        <ele>316</ele>
        <time>2016-05-29T07:36:18.000Z</time>
      </trkpt>
      <trkpt lat="47.49123" lon="6.7652">
        <ele>316</ele>
        <time>2016-05-29T07:36:19.000Z</time>
      </trkpt>
      <trkpt lat="47.49122" lon="6.76528">
        <ele>316</ele>
        <time>2016-05-29T07:36:20.000Z</time>
      </trkpt>
      <trkpt lat="47.49121" lon="6.76537">
        <ele>316</ele>
        <time>2016-05-29T07:36:21.000Z</time>
      </trkpt>
      <trkpt lat="47.4912" lon="6.76545">
        <ele>316</ele>
        <time>2016-05-29T07:36:22.000Z</time>
      </trkpt>
      <trkpt lat="47.4912" lon="6.76553">
        <ele>316</ele>
        <time>2016-05-29T07:36:23.000Z</time>
      </trkpt>
      <trkpt lat="47.4912" lon="6.76561">
        <ele>316</ele>
        <time>2016-05-29T07:36:24.000Z</time>
      </trkpt>
      <trkpt lat="47.49121" lon="6.76569">
        <ele>316</ele>
        <time>2016-05-29T07:36:25.000Z</time>
      </trkpt>
      <trkpt lat="47.49121" lon="6.76576">
        <ele>315</ele>
        <time>2016-05-29T07:36:26.000Z</time>
      </trkpt>
      <trkpt lat="47.49122" lon="6.76583">
        <ele>315</ele>
        <time>2016-05-29T07:36:27.000Z</time>
      </trkpt>
      <trkpt lat="47.49123" lon="6.7659">
        <ele>314</ele>
        <time>2016-05-29T07:36:28.000Z</time>
      </trkpt>
      <trkpt lat="47.49124" lon="6.76597">
        <ele>314</ele>
        <time>2016-05-29T07:36:29.000Z</time>
      </trkpt>
      <trkpt lat="47.49125" lon="6.76604">
        <ele>314</ele>
        <time>2016-05-29T07:36:29.999Z</time>
      </trkpt>
      <trkpt lat="47.49125" lon="6.7661">
        <ele>314</ele>
        <time>2016-05-29T07:36:31.000Z</time>
      </trkpt>
      <trkpt lat="47.49126" lon="6.76617">
        <ele>314</ele>
        <time>2016-05-29T07:36:32.000Z</time>
      </trkpt>
      <trkpt lat="47.49127" lon="6.76623">
        <ele>314</ele>
        <time>2016-05-29T07:36:33.000Z</time>
      </trkpt>
      <trkpt lat="47.49128" lon="6.7663">
        <ele>314</ele>
        <time>2016-05-29T07:36:34.000Z</time>
      </trkpt>
      <trkpt lat="47.49129" lon="6.76636">
        <ele>314</ele>
        <time>2016-05-29T07:36:35.000Z</time>
      </trkpt>
      <trkpt lat="47.49128" lon="6.76643">
        <ele>314</ele>
        <time>2016-05-29T07:36:36.000Z</time>
      </trkpt>
      <trkpt lat="47.49128" lon="6.76648">
        <ele>314</ele>
        <time>2016-05-29T07:36:37.000Z</time>
      </trkpt>
      <trkpt lat="47.49128" lon="6.76653">
        <ele>314</ele>
        <time>2016-05-29T07:36:38.000Z</time>
      </trkpt>
      <trkpt lat="47.49128" lon="6.76658">
        <ele>314</ele>
        <time>2016-05-29T07:36:39.000Z</time>
      </trkpt>
      <trkpt lat="47.49129" lon="6.76663">
        <ele>314</ele>
        <time>2016-05-29T07:36:40.000Z</time>
      </trkpt>
      <trkpt lat="47.49129" lon="6.76667">
        <ele>314</ele>
        <time>2016-05-29T07:36:41.000Z</time>
      </trkpt>
      <trkpt lat="47.49129" lon="6.76672">
        <ele>314</ele>
        <time>2016-05-29T07:36:42.000Z</time>
      </trkpt>
      <trkpt lat="47.49129" lon="6.76678">
        <ele>313</ele>
        <time>2016-05-29T07:36:43.000Z</time>
      </trkpt>
      <trkpt lat="47.49129" lon="6.76684">
        <ele>313</ele>
        <time>2016-05-29T07:36:44.000Z</time>
      </trkpt>
      <trkpt lat="47.4913" lon="6.76689">
        <ele>313</ele>
        <time>2016-05-29T07:36:45.000Z</time>
      </trkpt>
      <trkpt lat="47.4913" lon="6.76695">
        <ele>313</ele>
        <time>2016-05-29T07:36:46.000Z</time>
      </trkpt>
      <trkpt lat="47.49131" lon="6.767">
        <ele>313</ele>
        <time>2016-05-29T07:36:47.000Z</time>
      </trkpt>
      <trkpt lat="47.49131" lon="6.76704">
        <ele>313</ele>
        <time>2016-05-29T07:36:48.000Z</time>
      </trkpt>
      <trkpt lat="47.49131" lon="6.76709">
        <ele>313</ele>
        <time>2016-05-29T07:36:49.000Z</time>
      </trkpt>
      <trkpt lat="47.4913" lon="6.76714">
        <ele>313</ele>
        <time>2016-05-29T07:36:50.000Z</time>
      </trkpt>
      <trkpt lat="47.4913" lon="6.7672">
        <ele>313</ele>
        <time>2016-05-29T07:36:51.000Z</time>
      </trkpt>
      <trkpt lat="47.4913" lon="6.76725">
        <ele>313</ele>
        <time>2016-05-29T07:36:52.000Z</time>
      </trkpt>
      <trkpt lat="47.4913" lon="6.76731">
        <ele>313</ele>
        <time>2016-05-29T07:36:53.000Z</time>
      </trkpt>
      <trkpt lat="47.49131" lon="6.76737">
        <ele>313</ele>
        <time>2016-05-29T07:36:54.000Z</time>
      </trkpt>
      <trkpt lat="47.49131" lon="6.76743">
        <ele>313</ele>
        <time>2016-05-29T07:36:55.000Z</time>
      </trkpt>
      <trkpt lat="47.49132" lon="6.76749">
        <ele>313</ele>
        <time>2016-05-29T07:36:56.000Z</time>
      </trkpt>
      <trkpt lat="47.49132" lon="6.76755">
        <ele>312</ele>
        <time>2016-05-29T07:36:57.000Z</time>
      </trkpt>
      <trkpt lat="47.49133" lon="6.7676">
        <ele>312</ele>
        <time>2016-05-29T07:36:58.000Z</time>
      </trkpt>
      <trkpt lat="47.49132" lon="6.76765">
        <ele>312</ele>
        <time>2016-05-29T07:36:59.000Z</time>
      </trkpt>
      <trkpt lat="47.49132" lon="6.76767">
        <ele>312</ele>
        <time>2016-05-29T07:37:00.000Z</time>
      </trkpt>
      <trkpt lat="47.49131" lon="6.76773">
        <ele>312</ele>
        <time>2016-05-29T07:37:03.000Z</time>
      </trkpt>
      <trkpt lat="47.49132" lon="6.76779">
        <ele>312</ele>
        <time>2016-05-29T07:37:04.000Z</time>
      </trkpt>
      <trkpt lat="47.49134" lon="6.76788">
        <ele>312</ele>
        <time>2016-05-29T07:37:05.000Z</time>
      </trkpt>
      <trkpt lat="47.49135" lon="6.76797">
        <ele>312</ele>
        <time>2016-05-29T07:37:06.000Z</time>
      </trkpt>
      <trkpt lat="47.49136" lon="6.76805">
        <ele>312</ele>
        <time>2016-05-29T07:37:07.000Z</time>
      </trkpt>
      <trkpt lat="47.49137" lon="6.76813">
        <ele>312</ele>
        <time>2016-05-29T07:37:08.000Z</time>
      </trkpt>
      <trkpt lat="47.49138" lon="6.76822">
        <ele>312</ele>
        <time>2016-05-29T07:37:09.000Z</time>
      </trkpt>
      <trkpt lat="47.49139" lon="6.7683">
        <ele>312</ele>
        <time>2016-05-29T07:37:10.000Z</time>
      </trkpt>
      <trkpt lat="47.49139" lon="6.76838">
        <ele>312</ele>
        <time>2016-05-29T07:37:11.000Z</time>
      </trkpt>
      <trkpt lat="47.4914" lon="6.76846">
        <ele>312</ele>
        <time>2016-05-29T07:37:12.000Z</time>
      </trkpt>
      <trkpt lat="47.4914" lon="6.76854">
        <ele>312</ele>
        <time>2016-05-29T07:37:13.000Z</time>
      </trkpt>
      <trkpt lat="47.4914" lon="6.76862">
        <ele>312</ele>
        <time>2016-05-29T07:37:14.000Z</time>
      </trkpt>
      <trkpt lat="47.4914" lon="6.7687">
        <ele>312</ele>
        <time>2016-05-29T07:37:15.000Z</time>
      </trkpt>
      <trkpt lat="47.4914" lon="6.76877">
        <ele>312</ele>
        <time>2016-05-29T07:37:16.000Z</time>
      </trkpt>
      <trkpt lat="47.4914" lon="6.76885">
        <ele>312</ele>
        <time>2016-05-29T07:37:17.000Z</time>
      </trkpt>
      <trkpt lat="47.49141" lon="6.76893">
        <ele>312</ele>
        <time>2016-05-29T07:37:18.000Z</time>
      </trkpt>
      <trkpt lat="47.4914" lon="6.769">
        <ele>312</ele>
        <time>2016-05-29T07:37:19.000Z</time>
      </trkpt>
      <trkpt lat="47.4914" lon="6.76908">
        <ele>312</ele>
        <time>2016-05-29T07:37:20.000Z</time>
      </trkpt>
      <trkpt lat="47.4914" lon="6.76916">
        <ele>312</ele>
        <time>2016-05-29T07:37:21.000Z</time>
      </trkpt>
      <trkpt lat="47.4914" lon="6.76922">
        <ele>312</ele>
        <time>2016-05-29T07:37:22.000Z</time>
      </trkpt>
      <trkpt lat="47.49139" lon="6.76928">
        <ele>312</ele>
        <time>2016-05-29T07:37:23.000Z</time>
      </trkpt>
      <trkpt lat="47.49138" lon="6.76933">
        <ele>312</ele>
        <time>2016-05-29T07:37:24.000Z</time>
      </trkpt>
      <trkpt lat="47.49137" lon="6.76937">
        <ele>312</ele>
        <time>2016-05-29T07:37:25.000Z</time>
      </trkpt>
      <trkpt lat="47.49136" lon="6.76943">
        <ele>312</ele>
        <time>2016-05-29T07:37:26.000Z</time>
      </trkpt>
      <trkpt lat="47.49135" lon="6.76949">
        <ele>312</ele>
        <time>2016-05-29T07:37:27.000Z</time>
      </trkpt>
      <trkpt lat="47.49135" lon="6.76955">
        <ele>312</ele>
        <time>2016-05-29T07:37:28.000Z</time>
      </trkpt>
      <trkpt lat="47.49136" lon="6.76962">
        <ele>312</ele>
        <time>2016-05-29T07:37:29.000Z</time>
      </trkpt>
      <trkpt lat="47.49138" lon="6.76968">
        <ele>312</ele>
        <time>2016-05-29T07:37:30.000Z</time>
      </trkpt>
      <trkpt lat="47.49141" lon="6.76974">
        <ele>312</ele>
        <time>2016-05-29T07:37:31.000Z</time>
      </trkpt>
      <trkpt lat="47.49149" lon="6.76988">
        <ele>312</ele>
        <time>2016-05-29T07:37:32.000Z</time>
      </trkpt>
      <trkpt lat="47.49151" lon="6.76995">
        <ele>312</ele>
        <time>2016-05-29T07:37:33.000Z</time>
      </trkpt>
      <trkpt lat="47.49152" lon="6.77001">
        <ele>312</ele>
        <time>2016-05-29T07:37:34.000Z</time>
      </trkpt>
      <trkpt lat="47.49154" lon="6.77007">
        <ele>312</ele>
        <time>2016-05-29T07:37:35.000Z</time>
      </trkpt>
      <trkpt lat="47.49156" lon="6.77013">
        <ele>312</ele>
        <time>2016-05-29T07:37:36.000Z</time>
      </trkpt>
      <trkpt lat="47.49157" lon="6.7702">
        <ele>312</ele>
        <time>2016-05-29T07:37:37.000Z</time>
      </trkpt>
      <trkpt lat="47.49157" lon="6.77029">
        <ele>312</ele>
        <time>2016-05-29T07:37:38.000Z</time>
      </trkpt>
      <trkpt lat="47.49158" lon="6.77037">
        <ele>312</ele>
        <time>2016-05-29T07:37:39.000Z</time>
      </trkpt>
      <trkpt lat="47.49158" lon="6.77042">
        <ele>312</ele>
        <time>2016-05-29T07:37:40.000Z</time>
      </trkpt>
      <trkpt lat="47.49158" lon="6.77048">
        <ele>312</ele>
        <time>2016-05-29T07:37:41.000Z</time>
      </trkpt>
      <trkpt lat="47.49159" lon="6.77055">
        <ele>312</ele>
        <time>2016-05-29T07:37:42.000Z</time>
      </trkpt>
      <trkpt lat="47.4916" lon="6.77061">
        <ele>312</ele>
        <time>2016-05-29T07:37:43.000Z</time>
      </trkpt>
      <trkpt lat="47.49161" lon="6.77067">
        <ele>312</ele>
        <time>2016-05-29T07:37:44.000Z</time>
      </trkpt>
      <trkpt lat="47.49166" lon="6.7708">
        <ele>312</ele>
        <time>2016-05-29T07:37:45.000Z</time>
      </trkpt>
      <trkpt lat="47.49168" lon="6.77088">
        <ele>312</ele>
        <time>2016-05-29T07:37:46.000Z</time>
      </trkpt>
      <trkpt lat="47.49169" lon="6.77091">
        <ele>312</ele>
        <time>2016-05-29T07:37:47.000Z</time>
      </trkpt>
      <trkpt lat="47.4917" lon="6.77098">
        <ele>312</ele>
        <time>2016-05-29T07:37:48.000Z</time>
      </trkpt>
      <trkpt lat="47.4917" lon="6.77102">
        <ele>312</ele>
        <time>2016-05-29T07:37:49.000Z</time>
      </trkpt>
      <trkpt lat="47.4917" lon="6.77106">
        <ele>312</ele>
        <time>2016-05-29T07:37:50.000Z</time>
      </trkpt>
      <trkpt lat="47.49172" lon="6.77111">
        <ele>313</ele>
        <time>2016-05-29T07:37:52.000Z</time>
      </trkpt>
      <trkpt lat="47.49172" lon="6.77113">
        <ele>313</ele>
        <time>2016-05-29T07:37:53.000Z</time>
      </trkpt>
      <trkpt lat="47.49172" lon="6.77118">
        <ele>313</ele>
        <time>2016-05-29T07:37:54.000Z</time>
      </trkpt>
      <trkpt lat="47.49172" lon="6.7712">
        <ele>313</ele>
        <time>2016-05-29T07:37:55.000Z</time>
      </trkpt>
      <trkpt lat="47.49172" lon="6.77126">
        <ele>313</ele>
        <time>2016-05-29T07:37:57.000Z</time>
      </trkpt>
      <trkpt lat="47.49172" lon="6.77131">
        <ele>313</ele>
        <time>2016-05-29T07:37:58.000Z</time>
      </trkpt>
      <trkpt lat="47.49173" lon="6.77136">
        <ele>313</ele>
        <time>2016-05-29T07:37:59.000Z</time>
      </trkpt>
      <trkpt lat="47.49173" lon="6.77142">
        <ele>313</ele>
        <time>2016-05-29T07:38:00.000Z</time>
      </trkpt>
      <trkpt lat="47.49174" lon="6.77147">
        <ele>313</ele>
        <time>2016-05-29T07:38:01.000Z</time>
      </trkpt>
      <trkpt lat="47.49174" lon="6.77153">
        <ele>313</ele>
        <time>2016-05-29T07:38:02.000Z</time>
      </trkpt>
      <trkpt lat="47.49175" lon="6.77159">
        <ele>313</ele>
        <time>2016-05-29T07:38:03.000Z</time>
      </trkpt>
      <trkpt lat="47.49176" lon="6.77164">
        <ele>313</ele>
        <time>2016-05-29T07:38:04.000Z</time>
      </trkpt>
      <trkpt lat="47.49176" lon="6.7717">
        <ele>313</ele>
        <time>2016-05-29T07:38:05.000Z</time>
      </trkpt>
      <trkpt lat="47.49177" lon="6.77177">
        <ele>313</ele>
        <time>2016-05-29T07:38:06.000Z</time>
      </trkpt>
      <trkpt lat="47.49177" lon="6.77183">
        <ele>313</ele>
        <time>2016-05-29T07:38:07.000Z</time>
      </trkpt>
      <trkpt lat="47.49176" lon="6.77189">
        <ele>313</ele>
        <time>2016-05-29T07:38:08.000Z</time>
      </trkpt>
      <trkpt lat="47.49176" lon="6.77196">
        <ele>312</ele>
        <time>2016-05-29T07:38:09.000Z</time>
      </trkpt>
      <trkpt lat="47.49176" lon="6.77202">
        <ele>312</ele>
        <time>2016-05-29T07:38:10.000Z</time>
      </trkpt>
      <trkpt lat="47.49175" lon="6.77208">
        <ele>312</ele>
        <time>2016-05-29T07:38:11.000Z</time>
      </trkpt>
      <trkpt lat="47.49175" lon="6.77214">
        <ele>312</ele>
        <time>2016-05-29T07:38:12.000Z</time>
      </trkpt>
      <trkpt lat="47.49175" lon="6.7722">
        <ele>312</ele>
        <time>2016-05-29T07:38:13.000Z</time>
      </trkpt>
      <trkpt lat="47.49175" lon="6.77226">
        <ele>312</ele>
        <time>2016-05-29T07:38:14.000Z</time>
      </trkpt>
      <trkpt lat="47.49175" lon="6.77232">
        <ele>312</ele>
        <time>2016-05-29T07:38:15.000Z</time>
      </trkpt>
      <trkpt lat="47.49181" lon="6.77245">
        <ele>312</ele>
        <time>2016-05-29T07:38:16.000Z</time>
      </trkpt>
      <trkpt lat="47.49181" lon="6.77255">
        <ele>311</ele>
        <time>2016-05-29T07:38:17.000Z</time>
      </trkpt>
      <trkpt lat="47.4918" lon="6.77262">
        <ele>311</ele>
        <time>2016-05-29T07:38:18.000Z</time>
      </trkpt>
      <trkpt lat="47.49179" lon="6.77269">
        <ele>311</ele>
        <time>2016-05-29T07:38:19.000Z</time>
      </trkpt>
      <trkpt lat="47.49179" lon="6.77278">
        <ele>311</ele>
        <time>2016-05-29T07:38:20.000Z</time>
      </trkpt>
      <trkpt lat="47.49178" lon="6.77286">
        <ele>311</ele>
        <time>2016-05-29T07:38:21.000Z</time>
      </trkpt>
      <trkpt lat="47.49178" lon="6.77293">
        <ele>311</ele>
        <time>2016-05-29T07:38:22.000Z</time>
      </trkpt>
      <trkpt lat="47.49179" lon="6.77301">
        <ele>311</ele>
        <time>2016-05-29T07:38:23.000Z</time>
      </trkpt>
      <trkpt lat="47.49179" lon="6.7731">
        <ele>311</ele>
        <time>2016-05-29T07:38:24.000Z</time>
      </trkpt>
      <trkpt lat="47.49178" lon="6.77317">
        <ele>310</ele>
        <time>2016-05-29T07:38:25.000Z</time>
      </trkpt>
      <trkpt lat="47.49176" lon="6.77323">
        <ele>310</ele>
        <time>2016-05-29T07:38:26.000Z</time>
      </trkpt>
      <trkpt lat="47.49178" lon="6.77329">
        <ele>310</ele>
        <time>2016-05-29T07:38:27.000Z</time>
      </trkpt>
      <trkpt lat="47.49181" lon="6.77332">
        <ele>310</ele>
        <time>2016-05-29T07:38:28.000Z</time>
      </trkpt>
      <trkpt lat="47.49184" lon="6.77334">
        <ele>310</ele>
        <time>2016-05-29T07:38:29.000Z</time>
      </trkpt>
      <trkpt lat="47.49181" lon="6.77339">
        <ele>310</ele>
        <time>2016-05-29T07:38:31.000Z</time>
      </trkpt>
      <trkpt lat="47.49179" lon="6.77336">
        <ele>310</ele>
        <time>2016-05-29T07:38:32.000Z</time>
      </trkpt>
      <trkpt lat="47.49176" lon="6.77335">
        <ele>310</ele>
        <time>2016-05-29T07:38:33.000Z</time>
      </trkpt>
      <trkpt lat="47.49173" lon="6.77334">
        <ele>310</ele>
        <time>2016-05-29T07:38:34.000Z</time>
      </trkpt>
      <trkpt lat="47.49167" lon="6.77335">
        <ele>310</ele>
        <time>2016-05-29T07:38:35.000Z</time>
      </trkpt>
      <trkpt lat="47.49162" lon="6.77333">
        <ele>310</ele>
        <time>2016-05-29T07:38:36.000Z</time>
      </trkpt>
      <trkpt lat="47.49157" lon="6.77332">
        <ele>310</ele>
        <time>2016-05-29T07:38:37.000Z</time>
      </trkpt>
      <trkpt lat="47.49151" lon="6.77332">
        <ele>311</ele>
        <time>2016-05-29T07:38:38.000Z</time>
      </trkpt>
      <trkpt lat="47.49146" lon="6.77333">
        <ele>311</ele>
        <time>2016-05-29T07:38:39.000Z</time>
      </trkpt>
      <trkpt lat="47.4914" lon="6.77332">
        <ele>311</ele>
        <time>2016-05-29T07:38:40.000Z</time>
      </trkpt>
      <trkpt lat="47.49135" lon="6.77331">
        <ele>311</ele>
        <time>2016-05-29T07:38:41.000Z</time>
      </trkpt>
      <trkpt lat="47.49129" lon="6.77331">
        <ele>311</ele>
        <time>2016-05-29T07:38:42.000Z</time>
      </trkpt>
      <trkpt lat="47.49124" lon="6.77331">
        <ele>311</ele>
        <time>2016-05-29T07:38:43.000Z</time>
      </trkpt>
      <trkpt lat="47.49118" lon="6.7733">
        <ele>311</ele>
        <time>2016-05-29T07:38:44.000Z</time>
      </trkpt>
      <trkpt lat="47.49112" lon="6.77329">
        <ele>311</ele>
        <time>2016-05-29T07:38:45.000Z</time>
      </trkpt>
      <trkpt lat="47.49107" lon="6.77328">
        <ele>311</ele>
        <time>2016-05-29T07:38:46.000Z</time>
      </trkpt>
      <trkpt lat="47.49101" lon="6.77327">
        <ele>311</ele>
        <time>2016-05-29T07:38:47.000Z</time>
      </trkpt>
      <trkpt lat="47.49095" lon="6.7733">
        <ele>311</ele>
        <time>2016-05-29T07:38:48.000Z</time>
      </trkpt>
      <trkpt lat="47.49089" lon="6.77331">
        <ele>311</ele>
        <time>2016-05-29T07:38:49.000Z</time>
      </trkpt>
      <trkpt lat="47.49083" lon="6.7733">
        <ele>311</ele>
        <time>2016-05-29T07:38:50.000Z</time>
      </trkpt>
      <trkpt lat="47.49078" lon="6.7733">
        <ele>311</ele>
        <time>2016-05-29T07:38:51.000Z</time>
      </trkpt>
      <trkpt lat="47.49073" lon="6.7733">
        <ele>311</ele>
        <time>2016-05-29T07:38:51.999Z</time>
      </trkpt>
      <trkpt lat="47.49064" lon="6.77332">
        <ele>311</ele>
        <time>2016-05-29T07:38:53.000Z</time>
      </trkpt>
      <trkpt lat="47.49058" lon="6.77333">
        <ele>311</ele>
        <time>2016-05-29T07:38:54.001Z</time>
      </trkpt>
      <trkpt lat="47.49052" lon="6.77328">
        <ele>311</ele>
        <time>2016-05-29T07:38:55.000Z</time>
      </trkpt>
      <trkpt lat="47.49047" lon="6.77327">
        <ele>311</ele>
        <time>2016-05-29T07:38:56.000Z</time>
      </trkpt>
      <trkpt lat="47.49042" lon="6.77327">
        <ele>311</ele>
        <time>2016-05-29T07:38:56.999Z</time>
      </trkpt>
      <trkpt lat="47.49037" lon="6.77327">
        <ele>311</ele>
        <time>2016-05-29T07:38:58.002Z</time>
      </trkpt>
      <trkpt lat="47.49032" lon="6.77327">
        <ele>311</ele>
        <time>2016-05-29T07:38:59.000Z</time>
      </trkpt>
      <trkpt lat="47.49028" lon="6.77325">
        <ele>311</ele>
        <time>2016-05-29T07:39:00.000Z</time>
      </trkpt>
      <trkpt lat="47.49022" lon="6.77324">
        <ele>311</ele>
        <time>2016-05-29T07:39:01.000Z</time>
      </trkpt>
      <trkpt lat="47.49016" lon="6.77325">
        <ele>311</ele>
        <time>2016-05-29T07:39:02.000Z</time>
      </trkpt>
      <trkpt lat="47.49011" lon="6.77324">
        <ele>311</ele>
        <time>2016-05-29T07:39:03.000Z</time>
      </trkpt>
      <trkpt lat="47.49005" lon="6.77323">
        <ele>311</ele>
        <time>2016-05-29T07:39:04.000Z</time>
      </trkpt>
      <trkpt lat="47.48999" lon="6.77323">
        <ele>311</ele>
        <time>2016-05-29T07:39:05.000Z</time>
      </trkpt>
      <trkpt lat="47.48994" lon="6.77322">
        <ele>311</ele>
        <time>2016-05-29T07:39:06.000Z</time>
      </trkpt>
      <trkpt lat="47.48989" lon="6.77321">
        <ele>311</ele>
        <time>2016-05-29T07:39:07.000Z</time>
      </trkpt>
      <trkpt lat="47.48983" lon="6.7732">
        <ele>311</ele>
        <time>2016-05-29T07:39:08.000Z</time>
      </trkpt>
      <trkpt lat="47.48978" lon="6.77319">
        <ele>311</ele>
        <time>2016-05-29T07:39:09.000Z</time>
      </trkpt>
      <trkpt lat="47.48972" lon="6.77319">
        <ele>311</ele>
        <time>2016-05-29T07:39:10.000Z</time>
      </trkpt>
      <trkpt lat="47.48967" lon="6.77319">
        <ele>311</ele>
        <time>2016-05-29T07:39:11.000Z</time>
      </trkpt>
      <trkpt lat="47.48961" lon="6.77318">
        <ele>311</ele>
        <time>2016-05-29T07:39:12.000Z</time>
      </trkpt>
      <trkpt lat="47.48956" lon="6.77317">
        <ele>311</ele>
        <time>2016-05-29T07:39:12.998Z</time>
      </trkpt>
      <trkpt lat="47.48951" lon="6.77317">
        <ele>311</ele>
        <time>2016-05-29T07:39:14.000Z</time>
      </trkpt>
      <trkpt lat="47.48946" lon="6.77316">
        <ele>311</ele>
        <time>2016-05-29T07:39:15.000Z</time>
      </trkpt>
      <trkpt lat="47.48941" lon="6.77312">
        <ele>311</ele>
        <time>2016-05-29T07:39:16.000Z</time>
      </trkpt>
      <trkpt lat="47.48935" lon="6.77309">
        <ele>311</ele>
        <time>2016-05-29T07:39:16.999Z</time>
      </trkpt>
      <trkpt lat="47.4893" lon="6.77309">
        <ele>311</ele>
        <time>2016-05-29T07:39:18.000Z</time>
      </trkpt>
      <trkpt lat="47.48924" lon="6.77306">
        <ele>311</ele>
        <time>2016-05-29T07:39:19.000Z</time>
      </trkpt>
      <trkpt lat="47.48919" lon="6.77304">
        <ele>311</ele>
        <time>2016-05-29T07:39:20.000Z</time>
      </trkpt>
      <trkpt lat="47.48914" lon="6.773">
        <ele>310</ele>
        <time>2016-05-29T07:39:21.000Z</time>
      </trkpt>
      <trkpt lat="47.48908" lon="6.77298">
        <ele>310</ele>
        <time>2016-05-29T07:39:21.999Z</time>
      </trkpt>
      <trkpt lat="47.48903" lon="6.77297">
        <ele>310</ele>
        <time>2016-05-29T07:39:23.000Z</time>
      </trkpt>
      <trkpt lat="47.48899" lon="6.77294">
        <ele>310</ele>
        <time>2016-05-29T07:39:24.000Z</time>
      </trkpt>
      <trkpt lat="47.48895" lon="6.77293">
        <ele>310</ele>
        <time>2016-05-29T07:39:25.000Z</time>
      </trkpt>
      <trkpt lat="47.48889" lon="6.77291">
        <ele>310</ele>
        <time>2016-05-29T07:39:26.000Z</time>
      </trkpt>
      <trkpt lat="47.48884" lon="6.77288">
        <ele>310</ele>
        <time>2016-05-29T07:39:27.000Z</time>
      </trkpt>
      <trkpt lat="47.48881" lon="6.77284">
        <ele>310</ele>
        <time>2016-05-29T07:39:28.000Z</time>
      </trkpt>
      <trkpt lat="47.48876" lon="6.77282">
        <ele>310</ele>
        <time>2016-05-29T07:39:29.000Z</time>
      </trkpt>
      <trkpt lat="47.48869" lon="6.77278">
        <ele>310</ele>
        <time>2016-05-29T07:39:30.000Z</time>
      </trkpt>
      <trkpt lat="47.48865" lon="6.77275">
        <ele>310</ele>
        <time>2016-05-29T07:39:30.999Z</time>
      </trkpt>
      <trkpt lat="47.48859" lon="6.77276">
        <ele>310</ele>
        <time>2016-05-29T07:39:32.000Z</time>
      </trkpt>
      <trkpt lat="47.48854" lon="6.77274">
        <ele>310</ele>
        <time>2016-05-29T07:39:33.002Z</time>
      </trkpt>
      <trkpt lat="47.48848" lon="6.77268">
        <ele>310</ele>
        <time>2016-05-29T07:39:34.000Z</time>
      </trkpt>
      <trkpt lat="47.48842" lon="6.77267">
        <ele>310</ele>
        <time>2016-05-29T07:39:35.000Z</time>
      </trkpt>
      <trkpt lat="47.48838" lon="6.77265">
        <ele>310</ele>
        <time>2016-05-29T07:39:36.000Z</time>
      </trkpt>
      <trkpt lat="47.48833" lon="6.77263">
        <ele>310</ele>
        <time>2016-05-29T07:39:37.000Z</time>
      </trkpt>
      <trkpt lat="47.48828" lon="6.77262">
        <ele>310</ele>
        <time>2016-05-29T07:39:38.000Z</time>
      </trkpt>
      <trkpt lat="47.48822" lon="6.77259">
        <ele>310</ele>
        <time>2016-05-29T07:39:39.000Z</time>
      </trkpt>
      <trkpt lat="47.48817" lon="6.77255">
        <ele>310</ele>
        <time>2016-05-29T07:39:40.000Z</time>
      </trkpt>
      <trkpt lat="47.48812" lon="6.77251">
        <ele>310</ele>
        <time>2016-05-29T07:39:40.999Z</time>
      </trkpt>
      <trkpt lat="47.48807" lon="6.77249">
        <ele>311</ele>
        <time>2016-05-29T07:39:42.000Z</time>
      </trkpt>
      <trkpt lat="47.48804" lon="6.77246">
        <ele>310</ele>
        <time>2016-05-29T07:39:43.000Z</time>
      </trkpt>
      <trkpt lat="47.48799" lon="6.77244">
        <ele>310</ele>
        <time>2016-05-29T07:39:44.000Z</time>
      </trkpt>
      <trkpt lat="47.48793" lon="6.77237">
        <ele>310</ele>
        <time>2016-05-29T07:39:45.000Z</time>
      </trkpt>
      <trkpt lat="47.48789" lon="6.77233">
        <ele>310</ele>
        <time>2016-05-29T07:39:46.000Z</time>
      </trkpt>
      <trkpt lat="47.48785" lon="6.77231">
        <ele>310</ele>
        <time>2016-05-29T07:39:47.000Z</time>
      </trkpt>
      <trkpt lat="47.48778" lon="6.77226">
        <ele>310</ele>
        <time>2016-05-29T07:39:48.000Z</time>
      </trkpt>
      <trkpt lat="47.48772" lon="6.77223">
        <ele>310</ele>
        <time>2016-05-29T07:39:49.000Z</time>
      </trkpt>
      <trkpt lat="47.48767" lon="6.7722">
        <ele>310</ele>
        <time>2016-05-29T07:39:49.999Z</time>
      </trkpt>
      <trkpt lat="47.48764" lon="6.77215">
        <ele>310</ele>
        <time>2016-05-29T07:39:51.000Z</time>
      </trkpt>
      <trkpt lat="47.48759" lon="6.77211">
        <ele>310</ele>
        <time>2016-05-29T07:39:52.000Z</time>
      </trkpt>
      <trkpt lat="47.48755" lon="6.77207">
        <ele>310</ele>
        <time>2016-05-29T07:39:53.000Z</time>
      </trkpt>
      <trkpt lat="47.48748" lon="6.77204">
        <ele>310</ele>
        <time>2016-05-29T07:39:54.000Z</time>
      </trkpt>
      <trkpt lat="47.48742" lon="6.772">
        <ele>310</ele>
        <time>2016-05-29T07:39:54.999Z</time>
      </trkpt>
      <trkpt lat="47.48738" lon="6.77197">
        <ele>310</ele>
        <time>2016-05-29T07:39:56.000Z</time>
      </trkpt>
      <trkpt lat="47.48734" lon="6.77194">
        <ele>310</ele>
        <time>2016-05-29T07:39:57.000Z</time>
      </trkpt>
      <trkpt lat="47.48729" lon="6.77191">
        <ele>310</ele>
        <time>2016-05-29T07:39:58.000Z</time>
      </trkpt>
      <trkpt lat="47.48724" lon="6.77188">
        <ele>310</ele>
        <time>2016-05-29T07:39:59.000Z</time>
      </trkpt>
      <trkpt lat="47.48719" lon="6.77185">
        <ele>310</ele>
        <time>2016-05-29T07:40:00.000Z</time>
      </trkpt>
      <trkpt lat="47.48715" lon="6.7718">
        <ele>310</ele>
        <time>2016-05-29T07:40:01.000Z</time>
      </trkpt>
      <trkpt lat="47.48711" lon="6.77176">
        <ele>310</ele>
        <time>2016-05-29T07:40:02.000Z</time>
      </trkpt>
      <trkpt lat="47.48707" lon="6.77172">
        <ele>311</ele>
        <time>2016-05-29T07:40:03.001Z</time>
      </trkpt>
      <trkpt lat="47.48702" lon="6.77167">
        <ele>311</ele>
        <time>2016-05-29T07:40:04.000Z</time>
      </trkpt>
      <trkpt lat="47.48698" lon="6.77164">
        <ele>311</ele>
        <time>2016-05-29T07:40:05.000Z</time>
      </trkpt>
      <trkpt lat="47.48693" lon="6.77159">
        <ele>311</ele>
        <time>2016-05-29T07:40:06.000Z</time>
      </trkpt>
      <trkpt lat="47.48688" lon="6.77155">
        <ele>311</ele>
        <time>2016-05-29T07:40:07.000Z</time>
      </trkpt>
      <trkpt lat="47.48683" lon="6.7715">
        <ele>311</ele>
        <time>2016-05-29T07:40:08.000Z</time>
      </trkpt>
      <trkpt lat="47.48679" lon="6.77148">
        <ele>311</ele>
        <time>2016-05-29T07:40:09.000Z</time>
      </trkpt>
      <trkpt lat="47.48675" lon="6.77144">
        <ele>311</ele>
        <time>2016-05-29T07:40:10.000Z</time>
      </trkpt>
      <trkpt lat="47.48672" lon="6.77139">
        <ele>311</ele>
        <time>2016-05-29T07:40:11.000Z</time>
      </trkpt>
      <trkpt lat="47.48668" lon="6.77135">
        <ele>312</ele>
        <time>2016-05-29T07:40:11.999Z</time>
      </trkpt>
      <trkpt lat="47.48662" lon="6.77128">
        <ele>312</ele>
        <time>2016-05-29T07:40:13.000Z</time>
      </trkpt>
      <trkpt lat="47.48658" lon="6.77123">
        <ele>312</ele>
        <time>2016-05-29T07:40:14.000Z</time>
      </trkpt>
      <trkpt lat="47.48654" lon="6.7712">
        <ele>312</ele>
        <time>2016-05-29T07:40:15.000Z</time>
      </trkpt>
      <trkpt lat="47.48649" lon="6.77115">
        <ele>312</ele>
        <time>2016-05-29T07:40:16.000Z</time>
      </trkpt>
      <trkpt lat="47.48645" lon="6.77111">
        <ele>312</ele>
        <time>2016-05-29T07:40:17.000Z</time>
      </trkpt>
      <trkpt lat="47.4864" lon="6.77106">
        <ele>312</ele>
        <time>2016-05-29T07:40:18.000Z</time>
      </trkpt>
      <trkpt lat="47.48635" lon="6.77102">
        <ele>312</ele>
        <time>2016-05-29T07:40:19.000Z</time>
      </trkpt>
      <trkpt lat="47.48631" lon="6.77097">
        <ele>312</ele>
        <time>2016-05-29T07:40:20.000Z</time>
      </trkpt>
      <trkpt lat="47.48627" lon="6.77093">
        <ele>312</ele>
        <time>2016-05-29T07:40:21.000Z</time>
      </trkpt>
      <trkpt lat="47.48624" lon="6.77091">
        <ele>312</ele>
        <time>2016-05-29T07:40:22.000Z</time>
      </trkpt>
      <trkpt lat="47.4862" lon="6.77087">
        <ele>312</ele>
        <time>2016-05-29T07:40:23.000Z</time>
      </trkpt>
      <trkpt lat="47.48616" lon="6.77084">
        <ele>312</ele>
        <time>2016-05-29T07:40:24.000Z</time>
      </trkpt>
      <trkpt lat="47.48613" lon="6.77082">
        <ele>313</ele>
        <time>2016-05-29T07:40:25.000Z</time>
      </trkpt>
      <trkpt lat="47.48609" lon="6.77078">
        <ele>313</ele>
        <time>2016-05-29T07:40:26.000Z</time>
      </trkpt>
      <trkpt lat="47.48605" lon="6.77074">
        <ele>313</ele>
        <time>2016-05-29T07:40:27.000Z</time>
      </trkpt>
      <trkpt lat="47.48599" lon="6.77066">
        <ele>313</ele>
        <time>2016-05-29T07:40:28.001Z</time>
      </trkpt>
      <trkpt lat="47.48594" lon="6.77061">
        <ele>313</ele>
        <time>2016-05-29T07:40:29.000Z</time>
      </trkpt>
      <trkpt lat="47.4859" lon="6.77057">
        <ele>313</ele>
        <time>2016-05-29T07:40:30.000Z</time>
      </trkpt>
      <trkpt lat="47.48585" lon="6.77052">
        <ele>314</ele>
        <time>2016-05-29T07:40:31.000Z</time>
      </trkpt>
      <trkpt lat="47.4858" lon="6.77055">
        <ele>314</ele>
        <time>2016-05-29T07:40:32.000Z</time>
      </trkpt>
      <trkpt lat="47.48576" lon="6.77053">
        <ele>314</ele>
        <time>2016-05-29T07:40:33.000Z</time>
      </trkpt>
      <trkpt lat="47.48572" lon="6.77049">
        <ele>314</ele>
        <time>2016-05-29T07:40:34.000Z</time>
      </trkpt>
      <trkpt lat="47.48569" lon="6.77045">
        <ele>314</ele>
        <time>2016-05-29T07:40:35.000Z</time>
      </trkpt>
      <trkpt lat="47.48562" lon="6.77043">
        <ele>314</ele>
        <time>2016-05-29T07:40:36.000Z</time>
      </trkpt>
      <trkpt lat="47.48558" lon="6.77041">
        <ele>314</ele>
        <time>2016-05-29T07:40:37.000Z</time>
      </trkpt>
      <trkpt lat="47.48553" lon="6.77038">
        <ele>314</ele>
        <time>2016-05-29T07:40:38.001Z</time>
      </trkpt>
      <trkpt lat="47.48544" lon="6.77029">
        <ele>314</ele>
        <time>2016-05-29T07:40:39.000Z</time>
      </trkpt>
      <trkpt lat="47.48538" lon="6.77024">
        <ele>314</ele>
        <time>2016-05-29T07:40:40.000Z</time>
      </trkpt>
      <trkpt lat="47.48533" lon="6.77016">
        <ele>315</ele>
        <time>2016-05-29T07:40:41.000Z</time>
      </trkpt>
      <trkpt lat="47.48528" lon="6.77012">
        <ele>315</ele>
        <time>2016-05-29T07:40:42.000Z</time>
      </trkpt>
      <trkpt lat="47.48525" lon="6.77008">
        <ele>315</ele>
        <time>2016-05-29T07:40:43.000Z</time>
      </trkpt>
      <trkpt lat="47.4852" lon="6.77004">
        <ele>315</ele>
        <time>2016-05-29T07:40:44.000Z</time>
      </trkpt>
      <trkpt lat="47.48515" lon="6.77001">
        <ele>315</ele>
        <time>2016-05-29T07:40:45.000Z</time>
      </trkpt>
      <trkpt lat="47.4851" lon="6.76996">
        <ele>316</ele>
        <time>2016-05-29T07:40:46.000Z</time>
      </trkpt>
      <trkpt lat="47.48505" lon="6.76991">
        <ele>316</ele>
        <time>2016-05-29T07:40:47.000Z</time>
      </trkpt>
      <trkpt lat="47.485" lon="6.7699">
        <ele>316</ele>
        <time>2016-05-29T07:40:48.000Z</time>
      </trkpt>
      <trkpt lat="47.48495" lon="6.76985">
        <ele>316</ele>
        <time>2016-05-29T07:40:49.000Z</time>
      </trkpt>
      <trkpt lat="47.4849" lon="6.76982">
        <ele>316</ele>
        <time>2016-05-29T07:40:50.000Z</time>
      </trkpt>
      <trkpt lat="47.48485" lon="6.76978">
        <ele>315</ele>
        <time>2016-05-29T07:40:51.000Z</time>
      </trkpt>
      <trkpt lat="47.4848" lon="6.76976">
        <ele>315</ele>
        <time>2016-05-29T07:40:52.000Z</time>
      </trkpt>
      <trkpt lat="47.48476" lon="6.76971">
        <ele>315</ele>
        <time>2016-05-29T07:40:53.000Z</time>
      </trkpt>
      <trkpt lat="47.48471" lon="6.76968">
        <ele>315</ele>
        <time>2016-05-29T07:40:54.000Z</time>
      </trkpt>
      <trkpt lat="47.48466" lon="6.76965">
        <ele>315</ele>
        <time>2016-05-29T07:40:55.000Z</time>
      </trkpt>
      <trkpt lat="47.4846" lon="6.76963">
        <ele>315</ele>
        <time>2016-05-29T07:40:56.000Z</time>
      </trkpt>
      <trkpt lat="47.48454" lon="6.7696">
        <ele>315</ele>
        <time>2016-05-29T07:40:57.000Z</time>
      </trkpt>
      <trkpt lat="47.48449" lon="6.76958">
        <ele>315</ele>
        <time>2016-05-29T07:40:58.000Z</time>
      </trkpt>
      <trkpt lat="47.48444" lon="6.76956">
        <ele>315</ele>
        <time>2016-05-29T07:40:59.000Z</time>
      </trkpt>
      <trkpt lat="47.48437" lon="6.76953">
        <ele>315</ele>
        <time>2016-05-29T07:41:00.000Z</time>
      </trkpt>
      <trkpt lat="47.4843" lon="6.7695">
        <ele>314</ele>
        <time>2016-05-29T07:41:01.000Z</time>
      </trkpt>
      <trkpt lat="47.48424" lon="6.76946">
        <ele>314</ele>
        <time>2016-05-29T07:41:02.000Z</time>
      </trkpt>
      <trkpt lat="47.48418" lon="6.76943">
        <ele>314</ele>
        <time>2016-05-29T07:41:03.000Z</time>
      </trkpt>
      <trkpt lat="47.48412" lon="6.76943">
        <ele>312</ele>
        <time>2016-05-29T07:41:04.000Z</time>
      </trkpt>
      <trkpt lat="47.48406" lon="6.7694">
        <ele>312</ele>
        <time>2016-05-29T07:41:05.000Z</time>
      </trkpt>
      <trkpt lat="47.48401" lon="6.76937">
        <ele>312</ele>
        <time>2016-05-29T07:41:06.000Z</time>
      </trkpt>
      <trkpt lat="47.48395" lon="6.76934">
        <ele>312</ele>
        <time>2016-05-29T07:41:07.000Z</time>
      </trkpt>
      <trkpt lat="47.48389" lon="6.76932">
        <ele>312</ele>
        <time>2016-05-29T07:41:08.000Z</time>
      </trkpt>
      <trkpt lat="47.48383" lon="6.76929">
        <ele>312</ele>
        <time>2016-05-29T07:41:09.000Z</time>
      </trkpt>
      <trkpt lat="47.48378" lon="6.76925">
        <ele>312</ele>
        <time>2016-05-29T07:41:10.000Z</time>
      </trkpt>
      <trkpt lat="47.48372" lon="6.76921">
        <ele>312</ele>
        <time>2016-05-29T07:41:11.000Z</time>
      </trkpt>
      <trkpt lat="47.48366" lon="6.76917">
        <ele>311</ele>
        <time>2016-05-29T07:41:12.000Z</time>
      </trkpt>
      <trkpt lat="47.4836" lon="6.76914">
        <ele>311</ele>
        <time>2016-05-29T07:41:13.000Z</time>
      </trkpt>
      <trkpt lat="47.48356" lon="6.76909">
        <ele>311</ele>
        <time>2016-05-29T07:41:14.000Z</time>
      </trkpt>
      <trkpt lat="47.48352" lon="6.76905">
        <ele>311</ele>
        <time>2016-05-29T07:41:15.000Z</time>
      </trkpt>
      <trkpt lat="47.48346" lon="6.76902">
        <ele>310</ele>
        <time>2016-05-29T07:41:16.000Z</time>
      </trkpt>
      <trkpt lat="47.4834" lon="6.76899">
        <ele>310</ele>
        <time>2016-05-29T07:41:17.000Z</time>
      </trkpt>
      <trkpt lat="47.48335" lon="6.76896">
        <ele>310</ele>
        <time>2016-05-29T07:41:18.000Z</time>
      </trkpt>
      <trkpt lat="47.4833" lon="6.76892">
        <ele>310</ele>
        <time>2016-05-29T07:41:19.000Z</time>
      </trkpt>
      <trkpt lat="47.48324" lon="6.76887">
        <ele>310</ele>
        <time>2016-05-29T07:41:20.000Z</time>
      </trkpt>
      <trkpt lat="47.4832" lon="6.76883">
        <ele>310</ele>
        <time>2016-05-29T07:41:21.000Z</time>
      </trkpt>
      <trkpt lat="47.48315" lon="6.76878">
        <ele>310</ele>
        <time>2016-05-29T07:41:22.000Z</time>
      </trkpt>
      <trkpt lat="47.48309" lon="6.76874">
        <ele>310</ele>
        <time>2016-05-29T07:41:23.000Z</time>
      </trkpt>
      <trkpt lat="47.48304" lon="6.76871">
        <ele>310</ele>
        <time>2016-05-29T07:41:24.000Z</time>
      </trkpt>
      <trkpt lat="47.48298" lon="6.76867">
        <ele>310</ele>
        <time>2016-05-29T07:41:25.000Z</time>
      </trkpt>
      <trkpt lat="47.48292" lon="6.7686">
        <ele>310</ele>
        <time>2016-05-29T07:41:26.000Z</time>
      </trkpt>
      <trkpt lat="47.48288" lon="6.76855">
        <ele>310</ele>
        <time>2016-05-29T07:41:27.000Z</time>
      </trkpt>
      <trkpt lat="47.48283" lon="6.7685">
        <ele>310</ele>
        <time>2016-05-29T07:41:28.000Z</time>
      </trkpt>
      <trkpt lat="47.48279" lon="6.76844">
        <ele>311</ele>
        <time>2016-05-29T07:41:29.000Z</time>
      </trkpt>
      <trkpt lat="47.48276" lon="6.76838">
        <ele>311</ele>
        <time>2016-05-29T07:41:30.000Z</time>
      </trkpt>
      <trkpt lat="47.48271" lon="6.76832">
        <ele>312</ele>
        <time>2016-05-29T07:41:31.000Z</time>
      </trkpt>
      <trkpt lat="47.48266" lon="6.76826">
        <ele>312</ele>
        <time>2016-05-29T07:41:32.000Z</time>
      </trkpt>
      <trkpt lat="47.48261" lon="6.76821">
        <ele>312</ele>
        <time>2016-05-29T07:41:33.000Z</time>
      </trkpt>
      <trkpt lat="47.48257" lon="6.76815">
        <ele>312</ele>
        <time>2016-05-29T07:41:34.000Z</time>
      </trkpt>
      <trkpt lat="47.48252" lon="6.76809">
        <ele>312</ele>
        <time>2016-05-29T07:41:35.000Z</time>
      </trkpt>
      <trkpt lat="47.48248" lon="6.76804">
        <ele>312</ele>
        <time>2016-05-29T07:41:36.000Z</time>
      </trkpt>
      <trkpt lat="47.48243" lon="6.76799">
        <ele>312</ele>
        <time>2016-05-29T07:41:37.000Z</time>
      </trkpt>
      <trkpt lat="47.48237" lon="6.76796">
        <ele>312</ele>
        <time>2016-05-29T07:41:38.000Z</time>
      </trkpt>
      <trkpt lat="47.48232" lon="6.76793">
        <ele>312</ele>
        <time>2016-05-29T07:41:39.000Z</time>
      </trkpt>
      <trkpt lat="47.48227" lon="6.7679">
        <ele>312</ele>
        <time>2016-05-29T07:41:40.000Z</time>
      </trkpt>
      <trkpt lat="47.4822" lon="6.76788">
        <ele>312</ele>
        <time>2016-05-29T07:41:41.000Z</time>
      </trkpt>
      <trkpt lat="47.48214" lon="6.76787">
        <ele>312</ele>
        <time>2016-05-29T07:41:42.000Z</time>
      </trkpt>
      <trkpt lat="47.48209" lon="6.76785">
        <ele>312</ele>
        <time>2016-05-29T07:41:43.000Z</time>
      </trkpt>
      <trkpt lat="47.48204" lon="6.76784">
        <ele>312</ele>
        <time>2016-05-29T07:41:44.000Z</time>
      </trkpt>
      <trkpt lat="47.48198" lon="6.76782">
        <ele>312</ele>
        <time>2016-05-29T07:41:45.000Z</time>
      </trkpt>
      <trkpt lat="47.48193" lon="6.76778">
        <ele>312</ele>
        <time>2016-05-29T07:41:46.000Z</time>
      </trkpt>
      <trkpt lat="47.48187" lon="6.76775">
        <ele>312</ele>
        <time>2016-05-29T07:41:47.000Z</time>
      </trkpt>
      <trkpt lat="47.48182" lon="6.7677">
        <ele>312</ele>
        <time>2016-05-29T07:41:48.000Z</time>
      </trkpt>
      <trkpt lat="47.48177" lon="6.76764">
        <ele>312</ele>
        <time>2016-05-29T07:41:49.000Z</time>
      </trkpt>
      <trkpt lat="47.48172" lon="6.76759">
        <ele>313</ele>
        <time>2016-05-29T07:41:50.000Z</time>
      </trkpt>
      <trkpt lat="47.4817" lon="6.76752">
        <ele>313</ele>
        <time>2016-05-29T07:41:51.000Z</time>
      </trkpt>
      <trkpt lat="47.48166" lon="6.76745">
        <ele>313</ele>
        <time>2016-05-29T07:41:52.000Z</time>
      </trkpt>
      <trkpt lat="47.48162" lon="6.7674">
        <ele>313</ele>
        <time>2016-05-29T07:41:53.000Z</time>
      </trkpt>
      <trkpt lat="47.48157" lon="6.76732">
        <ele>312</ele>
        <time>2016-05-29T07:41:54.000Z</time>
      </trkpt>
      <trkpt lat="47.48153" lon="6.76724">
        <ele>312</ele>
        <time>2016-05-29T07:41:55.000Z</time>
      </trkpt>
      <trkpt lat="47.48149" lon="6.76717">
        <ele>312</ele>
        <time>2016-05-29T07:41:56.000Z</time>
      </trkpt>
      <trkpt lat="47.48147" lon="6.7671">
        <ele>312</ele>
        <time>2016-05-29T07:41:57.000Z</time>
      </trkpt>
      <trkpt lat="47.48143" lon="6.76703">
        <ele>312</ele>
        <time>2016-05-29T07:41:58.000Z</time>
      </trkpt>
      <trkpt lat="47.4814" lon="6.76697">
        <ele>312</ele>
        <time>2016-05-29T07:41:59.000Z</time>
      </trkpt>
      <trkpt lat="47.48137" lon="6.7669">
        <ele>312</ele>
        <time>2016-05-29T07:42:00.000Z</time>
      </trkpt>
      <trkpt lat="47.48134" lon="6.76683">
        <ele>312</ele>
        <time>2016-05-29T07:42:01.000Z</time>
      </trkpt>
      <trkpt lat="47.4813" lon="6.76677">
        <ele>312</ele>
        <time>2016-05-29T07:42:02.000Z</time>
      </trkpt>
      <trkpt lat="47.48126" lon="6.76671">
        <ele>312</ele>
        <time>2016-05-29T07:42:03.000Z</time>
      </trkpt>
      <trkpt lat="47.48122" lon="6.76665">
        <ele>313</ele>
        <time>2016-05-29T07:42:04.000Z</time>
      </trkpt>
      <trkpt lat="47.48119" lon="6.7666">
        <ele>313</ele>
        <time>2016-05-29T07:42:05.000Z</time>
      </trkpt>
      <trkpt lat="47.48116" lon="6.76655">
        <ele>313</ele>
        <time>2016-05-29T07:42:06.000Z</time>
      </trkpt>
      <trkpt lat="47.48113" lon="6.7665">
        <ele>313</ele>
        <time>2016-05-29T07:42:07.000Z</time>
      </trkpt>
      <trkpt lat="47.4811" lon="6.76644">
        <ele>313</ele>
        <time>2016-05-29T07:42:08.000Z</time>
      </trkpt>
      <trkpt lat="47.48107" lon="6.7664">
        <ele>313</ele>
        <time>2016-05-29T07:42:09.000Z</time>
      </trkpt>
      <trkpt lat="47.48105" lon="6.76635">
        <ele>313</ele>
        <time>2016-05-29T07:42:10.000Z</time>
      </trkpt>
      <trkpt lat="47.48101" lon="6.76629">
        <ele>313</ele>
        <time>2016-05-29T07:42:11.000Z</time>
      </trkpt>
      <trkpt lat="47.48099" lon="6.76624">
        <ele>313</ele>
        <time>2016-05-29T07:42:12.000Z</time>
      </trkpt>
      <trkpt lat="47.48098" lon="6.76619">
        <ele>313</ele>
        <time>2016-05-29T07:42:13.000Z</time>
      </trkpt>
      <trkpt lat="47.48099" lon="6.76615">
        <ele>313</ele>
        <time>2016-05-29T07:42:14.000Z</time>
      </trkpt>
      <trkpt lat="47.48101" lon="6.76609">
        <ele>313</ele>
        <time>2016-05-29T07:42:15.000Z</time>
      </trkpt>
      <trkpt lat="47.48104" lon="6.76603">
        <ele>313</ele>
        <time>2016-05-29T07:42:16.000Z</time>
      </trkpt>
      <trkpt lat="47.48109" lon="6.76594">
        <ele>313</ele>
        <time>2016-05-29T07:42:17.000Z</time>
      </trkpt>
      <trkpt lat="47.4811" lon="6.76587">
        <ele>313</ele>
        <time>2016-05-29T07:42:18.000Z</time>
      </trkpt>
      <trkpt lat="47.48114" lon="6.76583">
        <ele>317</ele>
        <time>2016-05-29T07:42:19.000Z</time>
      </trkpt>
      <trkpt lat="47.48118" lon="6.76578">
        <ele>318</ele>
        <time>2016-05-29T07:42:20.000Z</time>
      </trkpt>
      <trkpt lat="47.48119" lon="6.76576">
        <ele>318</ele>
        <time>2016-05-29T07:42:21.000Z</time>
      </trkpt>
      <trkpt lat="47.4812" lon="6.76572">
        <ele>318</ele>
        <time>2016-05-29T07:42:22.000Z</time>
      </trkpt>
      <trkpt lat="47.4812" lon="6.76563">
        <ele>318</ele>
        <time>2016-05-29T07:42:23.000Z</time>
      </trkpt>
      <trkpt lat="47.4812" lon="6.76557">
        <ele>319</ele>
        <time>2016-05-29T07:42:24.000Z</time>
      </trkpt>
      <trkpt lat="47.4812" lon="6.76551">
        <ele>319</ele>
        <time>2016-05-29T07:42:25.000Z</time>
      </trkpt>
      <trkpt lat="47.48121" lon="6.76546">
        <ele>319</ele>
        <time>2016-05-29T07:42:27.000Z</time>
      </trkpt>
      <trkpt lat="47.48125" lon="6.76541">
        <ele>320</ele>
        <time>2016-05-29T07:42:28.000Z</time>
      </trkpt>
      <trkpt lat="47.48121" lon="6.76534">
        <ele>320</ele>
        <time>2016-05-29T07:42:29.000Z</time>
      </trkpt>
      <trkpt lat="47.4812" lon="6.76529">
        <ele>320</ele>
        <time>2016-05-29T07:42:30.000Z</time>
      </trkpt>
      <trkpt lat="47.48119" lon="6.76524">
        <ele>320</ele>
        <time>2016-05-29T07:42:31.000Z</time>
      </trkpt>
      <trkpt lat="47.48117" lon="6.76519">
        <ele>320</ele>
        <time>2016-05-29T07:42:32.000Z</time>
      </trkpt>
      <trkpt lat="47.48114" lon="6.76516">
        <ele>320</ele>
        <time>2016-05-29T07:42:33.000Z</time>
      </trkpt>
      <trkpt lat="47.4811" lon="6.76517">
        <ele>319</ele>
        <time>2016-05-29T07:42:34.000Z</time>
      </trkpt>
      <trkpt lat="47.48107" lon="6.76519">
        <ele>319</ele>
        <time>2016-05-29T07:42:35.000Z</time>
      </trkpt>
      <trkpt lat="47.48102" lon="6.76523">
        <ele>318</ele>
        <time>2016-05-29T07:42:36.000Z</time>
      </trkpt>
      <trkpt lat="47.48093" lon="6.76537">
        <ele>318</ele>
        <time>2016-05-29T07:42:37.000Z</time>
      </trkpt>
      <trkpt lat="47.48089" lon="6.76541">
        <ele>317</ele>
        <time>2016-05-29T07:42:38.000Z</time>
      </trkpt>
      <trkpt lat="47.48085" lon="6.76543">
        <ele>317</ele>
        <time>2016-05-29T07:42:39.000Z</time>
      </trkpt>
      <trkpt lat="47.48081" lon="6.76545">
        <ele>312</ele>
        <time>2016-05-29T07:42:40.000Z</time>
      </trkpt>
      <trkpt lat="47.48077" lon="6.76549">
        <ele>312</ele>
        <time>2016-05-29T07:42:41.000Z</time>
      </trkpt>
      <trkpt lat="47.48072" lon="6.76552">
        <ele>312</ele>
        <time>2016-05-29T07:42:42.000Z</time>
      </trkpt>
      <trkpt lat="47.48067" lon="6.76555">
        <ele>312</ele>
        <time>2016-05-29T07:42:43.000Z</time>
      </trkpt>
      <trkpt lat="47.48063" lon="6.76558">
        <ele>312</ele>
        <time>2016-05-29T07:42:44.000Z</time>
      </trkpt>
      <trkpt lat="47.48059" lon="6.76563">
        <ele>312</ele>
        <time>2016-05-29T07:42:45.000Z</time>
      </trkpt>
      <trkpt lat="47.48055" lon="6.76566">
        <ele>312</ele>
        <time>2016-05-29T07:42:46.000Z</time>
      </trkpt>
      <trkpt lat="47.48051" lon="6.76569">
        <ele>312</ele>
        <time>2016-05-29T07:42:47.000Z</time>
      </trkpt>
      <trkpt lat="47.48047" lon="6.7657">
        <ele>312</ele>
        <time>2016-05-29T07:42:48.000Z</time>
      </trkpt>
      <trkpt lat="47.48043" lon="6.76572">
        <ele>312</ele>
        <time>2016-05-29T07:42:49.000Z</time>
      </trkpt>
      <trkpt lat="47.48039" lon="6.76576">
        <ele>312</ele>
        <time>2016-05-29T07:42:50.000Z</time>
      </trkpt>
      <trkpt lat="47.48035" lon="6.76578">
        <ele>312</ele>
        <time>2016-05-29T07:42:51.000Z</time>
      </trkpt>
      <trkpt lat="47.48032" lon="6.76581">
        <ele>312</ele>
        <time>2016-05-29T07:42:52.000Z</time>
      </trkpt>
      <trkpt lat="47.48027" lon="6.76584">
        <ele>312</ele>
        <time>2016-05-29T07:42:53.000Z</time>
      </trkpt>
      <trkpt lat="47.48023" lon="6.76587">
        <ele>312</ele>
        <time>2016-05-29T07:42:54.000Z</time>
      </trkpt>
      <trkpt lat="47.48019" lon="6.76586">
        <ele>312</ele>
        <time>2016-05-29T07:42:55.000Z</time>
      </trkpt>
      <trkpt lat="47.48015" lon="6.76588">
        <ele>312</ele>
        <time>2016-05-29T07:42:56.000Z</time>
      </trkpt>
      <trkpt lat="47.48011" lon="6.76588">
        <ele>312</ele>
        <time>2016-05-29T07:42:57.000Z</time>
      </trkpt>
      <trkpt lat="47.48007" lon="6.7659">
        <ele>312</ele>
        <time>2016-05-29T07:42:58.000Z</time>
      </trkpt>
      <trkpt lat="47.48002" lon="6.76591">
        <ele>312</ele>
        <time>2016-05-29T07:42:59.000Z</time>
      </trkpt>
      <trkpt lat="47.47998" lon="6.76592">
        <ele>312</ele>
        <time>2016-05-29T07:43:00.000Z</time>
      </trkpt>
      <trkpt lat="47.47994" lon="6.76595">
        <ele>312</ele>
        <time>2016-05-29T07:43:01.000Z</time>
      </trkpt>
      <trkpt lat="47.4799" lon="6.76597">
        <ele>312</ele>
        <time>2016-05-29T07:43:02.000Z</time>
      </trkpt>
      <trkpt lat="47.47986" lon="6.76596">
        <ele>312</ele>
        <time>2016-05-29T07:43:03.000Z</time>
      </trkpt>
      <trkpt lat="47.47982" lon="6.76598">
        <ele>312</ele>
        <time>2016-05-29T07:43:04.000Z</time>
      </trkpt>
      <trkpt lat="47.47978" lon="6.766">
        <ele>311</ele>
        <time>2016-05-29T07:43:05.000Z</time>
      </trkpt>
      <trkpt lat="47.47974" lon="6.76604">
        <ele>311</ele>
        <time>2016-05-29T07:43:06.000Z</time>
      </trkpt>
      <trkpt lat="47.4797" lon="6.76608">
        <ele>311</ele>
        <time>2016-05-29T07:43:07.000Z</time>
      </trkpt>
      <trkpt lat="47.47966" lon="6.7661">
        <ele>311</ele>
        <time>2016-05-29T07:43:08.000Z</time>
      </trkpt>
      <trkpt lat="47.47962" lon="6.76613">
        <ele>311</ele>
        <time>2016-05-29T07:43:09.000Z</time>
      </trkpt>
      <trkpt lat="47.47958" lon="6.76615">
        <ele>311</ele>
        <time>2016-05-29T07:43:10.000Z</time>
      </trkpt>
      <trkpt lat="47.47953" lon="6.76619">
        <ele>311</ele>
        <time>2016-05-29T07:43:11.000Z</time>
      </trkpt>
      <trkpt lat="47.47948" lon="6.76622">
        <ele>311</ele>
        <time>2016-05-29T07:43:12.000Z</time>
      </trkpt>
      <trkpt lat="47.47943" lon="6.76623">
        <ele>311</ele>
        <time>2016-05-29T07:43:13.000Z</time>
      </trkpt>
      <trkpt lat="47.47937" lon="6.76625">
        <ele>311</ele>
        <time>2016-05-29T07:43:14.000Z</time>
      </trkpt>
      <trkpt lat="47.47931" lon="6.76627">
        <ele>311</ele>
        <time>2016-05-29T07:43:15.000Z</time>
      </trkpt>
      <trkpt lat="47.47926" lon="6.76629">
        <ele>311</ele>
        <time>2016-05-29T07:43:16.000Z</time>
      </trkpt>
      <trkpt lat="47.47921" lon="6.76631">
        <ele>311</ele>
        <time>2016-05-29T07:43:17.000Z</time>
      </trkpt>
      <trkpt lat="47.47915" lon="6.76633">
        <ele>310</ele>
        <time>2016-05-29T07:43:18.000Z</time>
      </trkpt>
      <trkpt lat="47.47909" lon="6.76636">
        <ele>310</ele>
        <time>2016-05-29T07:43:19.000Z</time>
      </trkpt>
      <trkpt lat="47.47904" lon="6.76636">
        <ele>310</ele>
        <time>2016-05-29T07:43:20.000Z</time>
      </trkpt>
      <trkpt lat="47.47898" lon="6.76657">
        <ele>310</ele>
        <time>2016-05-29T07:43:21.000Z</time>
      </trkpt>
      <trkpt lat="47.47895" lon="6.76663">
        <ele>310</ele>
        <time>2016-05-29T07:43:22.000Z</time>
      </trkpt>
      <trkpt lat="47.47888" lon="6.76671">
        <ele>310</ele>
        <time>2016-05-29T07:43:23.000Z</time>
      </trkpt>
      <trkpt lat="47.47883" lon="6.76677">
        <ele>310</ele>
        <time>2016-05-29T07:43:24.000Z</time>
      </trkpt>
      <trkpt lat="47.4788" lon="6.76685">
        <ele>310</ele>
        <time>2016-05-29T07:43:25.000Z</time>
      </trkpt>
      <trkpt lat="47.47875" lon="6.76695">
        <ele>310</ele>
        <time>2016-05-29T07:43:26.000Z</time>
      </trkpt>
      <trkpt lat="47.47872" lon="6.76702">
        <ele>310</ele>
        <time>2016-05-29T07:43:27.000Z</time>
      </trkpt>
      <trkpt lat="47.47869" lon="6.76711">
        <ele>310</ele>
        <time>2016-05-29T07:43:28.000Z</time>
      </trkpt>
      <trkpt lat="47.47865" lon="6.76719">
        <ele>310</ele>
        <time>2016-05-29T07:43:29.000Z</time>
      </trkpt>
      <trkpt lat="47.47862" lon="6.76726">
        <ele>310</ele>
        <time>2016-05-29T07:43:30.000Z</time>
      </trkpt>
      <trkpt lat="47.4786" lon="6.76732">
        <ele>310</ele>
        <time>2016-05-29T07:43:31.000Z</time>
      </trkpt>
      <trkpt lat="47.47857" lon="6.76737">
        <ele>310</ele>
        <time>2016-05-29T07:43:32.000Z</time>
      </trkpt>
      <trkpt lat="47.47853" lon="6.76743">
        <ele>310</ele>
        <time>2016-05-29T07:43:33.000Z</time>
      </trkpt>
      <trkpt lat="47.47849" lon="6.76751">
        <ele>311</ele>
        <time>2016-05-29T07:43:34.000Z</time>
      </trkpt>
      <trkpt lat="47.47845" lon="6.76759">
        <ele>310</ele>
        <time>2016-05-29T07:43:35.000Z</time>
      </trkpt>
      <trkpt lat="47.47841" lon="6.76767">
        <ele>311</ele>
        <time>2016-05-29T07:43:36.000Z</time>
      </trkpt>
      <trkpt lat="47.47838" lon="6.76774">
        <ele>311</ele>
        <time>2016-05-29T07:43:37.000Z</time>
      </trkpt>
      <trkpt lat="47.47835" lon="6.76781">
        <ele>311</ele>
        <time>2016-05-29T07:43:38.000Z</time>
      </trkpt>
      <trkpt lat="47.47831" lon="6.76788">
        <ele>310</ele>
        <time>2016-05-29T07:43:39.000Z</time>
      </trkpt>
      <trkpt lat="47.47828" lon="6.76794">
        <ele>310</ele>
        <time>2016-05-29T07:43:40.000Z</time>
      </trkpt>
      <trkpt lat="47.47823" lon="6.76798">
        <ele>310</ele>
        <time>2016-05-29T07:43:41.000Z</time>
      </trkpt>
      <trkpt lat="47.47819" lon="6.76802">
        <ele>310</ele>
        <time>2016-05-29T07:43:42.001Z</time>
      </trkpt>
      <trkpt lat="47.47814" lon="6.76805">
        <ele>310</ele>
        <time>2016-05-29T07:43:43.000Z</time>
      </trkpt>
      <trkpt lat="47.47808" lon="6.76799">
        <ele>310</ele>
        <time>2016-05-29T07:43:44.000Z</time>
      </trkpt>
      <trkpt lat="47.47802" lon="6.76796">
        <ele>310</ele>
        <time>2016-05-29T07:43:45.000Z</time>
      </trkpt>
      <trkpt lat="47.47797" lon="6.76793">
        <ele>310</ele>
        <time>2016-05-29T07:43:46.001Z</time>
      </trkpt>
      <trkpt lat="47.47792" lon="6.7679">
        <ele>310</ele>
        <time>2016-05-29T07:43:47.000Z</time>
      </trkpt>
      <trkpt lat="47.47786" lon="6.76789">
        <ele>311</ele>
        <time>2016-05-29T07:43:48.000Z</time>
      </trkpt>
      <trkpt lat="47.47784" lon="6.76784">
        <ele>311</ele>
        <time>2016-05-29T07:43:50.000Z</time>
      </trkpt>
      <trkpt lat="47.47779" lon="6.76783">
        <ele>311</ele>
        <time>2016-05-29T07:43:51.000Z</time>
      </trkpt>
      <trkpt lat="47.47773" lon="6.76784">
        <ele>311</ele>
        <time>2016-05-29T07:43:52.000Z</time>
      </trkpt>
      <trkpt lat="47.47769" lon="6.76783">
        <ele>311</ele>
        <time>2016-05-29T07:43:52.999Z</time>
      </trkpt>
      <trkpt lat="47.47763" lon="6.76785">
        <ele>311</ele>
        <time>2016-05-29T07:43:54.000Z</time>
      </trkpt>
      <trkpt lat="47.47759" lon="6.76785">
        <ele>311</ele>
        <time>2016-05-29T07:43:55.000Z</time>
      </trkpt>
      <trkpt lat="47.47753" lon="6.76791">
        <ele>311</ele>
        <time>2016-05-29T07:43:56.000Z</time>
      </trkpt>
      <trkpt lat="47.47748" lon="6.76791">
        <ele>311</ele>
        <time>2016-05-29T07:43:57.000Z</time>
      </trkpt>
      <trkpt lat="47.47742" lon="6.76792">
        <ele>311</ele>
        <time>2016-05-29T07:43:57.999Z</time>
      </trkpt>
      <trkpt lat="47.47736" lon="6.76795">
        <ele>311</ele>
        <time>2016-05-29T07:43:59.000Z</time>
      </trkpt>
      <trkpt lat="47.4773" lon="6.76799">
        <ele>311</ele>
        <time>2016-05-29T07:44:00.000Z</time>
      </trkpt>
      <trkpt lat="47.47726" lon="6.76802">
        <ele>311</ele>
        <time>2016-05-29T07:44:01.000Z</time>
      </trkpt>
      <trkpt lat="47.47722" lon="6.76811">
        <ele>311</ele>
        <time>2016-05-29T07:44:02.000Z</time>
      </trkpt>
      <trkpt lat="47.47717" lon="6.76821">
        <ele>311</ele>
        <time>2016-05-29T07:44:03.000Z</time>
      </trkpt>
      <trkpt lat="47.47713" lon="6.7683">
        <ele>311</ele>
        <time>2016-05-29T07:44:04.000Z</time>
      </trkpt>
      <trkpt lat="47.47709" lon="6.76839">
        <ele>311</ele>
        <time>2016-05-29T07:44:05.000Z</time>
      </trkpt>
      <trkpt lat="47.47706" lon="6.76847">
        <ele>311</ele>
        <time>2016-05-29T07:44:06.000Z</time>
      </trkpt>
      <trkpt lat="47.47703" lon="6.76857">
        <ele>311</ele>
        <time>2016-05-29T07:44:07.000Z</time>
      </trkpt>
      <trkpt lat="47.477" lon="6.76865">
        <ele>311</ele>
        <time>2016-05-29T07:44:08.000Z</time>
      </trkpt>
      <trkpt lat="47.47697" lon="6.76872">
        <ele>311</ele>
        <time>2016-05-29T07:44:09.000Z</time>
      </trkpt>
      <trkpt lat="47.47694" lon="6.76879">
        <ele>311</ele>
        <time>2016-05-29T07:44:10.000Z</time>
      </trkpt>
      <trkpt lat="47.47694" lon="6.76883">
        <ele>311</ele>
        <time>2016-05-29T07:44:11.000Z</time>
      </trkpt>
      <trkpt lat="47.47691" lon="6.7689">
        <ele>311</ele>
        <time>2016-05-29T07:44:12.000Z</time>
      </trkpt>
      <trkpt lat="47.47684" lon="6.76898">
        <ele>311</ele>
        <time>2016-05-29T07:44:13.000Z</time>
      </trkpt>
      <trkpt lat="47.47681" lon="6.76909">
        <ele>311</ele>
        <time>2016-05-29T07:44:14.000Z</time>
      </trkpt>
      <trkpt lat="47.47677" lon="6.76916">
        <ele>311</ele>
        <time>2016-05-29T07:44:15.000Z</time>
      </trkpt>
      <trkpt lat="47.47674" lon="6.76923">
        <ele>311</ele>
        <time>2016-05-29T07:44:16.000Z</time>
      </trkpt>
      <trkpt lat="47.4767" lon="6.76931">
        <ele>311</ele>
        <time>2016-05-29T07:44:17.000Z</time>
      </trkpt>
      <trkpt lat="47.47668" lon="6.76941">
        <ele>311</ele>
        <time>2016-05-29T07:44:18.000Z</time>
      </trkpt>
      <trkpt lat="47.47666" lon="6.76949">
        <ele>311</ele>
        <time>2016-05-29T07:44:19.000Z</time>
      </trkpt>
      <trkpt lat="47.47664" lon="6.76957">
        <ele>311</ele>
        <time>2016-05-29T07:44:20.000Z</time>
      </trkpt>
      <trkpt lat="47.47662" lon="6.76966">
        <ele>311</ele>
        <time>2016-05-29T07:44:21.000Z</time>
      </trkpt>
      <trkpt lat="47.47661" lon="6.76973">
        <ele>311</ele>
        <time>2016-05-29T07:44:22.000Z</time>
      </trkpt>
      <trkpt lat="47.47658" lon="6.76978">
        <ele>311</ele>
        <time>2016-05-29T07:44:23.000Z</time>
      </trkpt>
      <trkpt lat="47.47655" lon="6.76984">
        <ele>311</ele>
        <time>2016-05-29T07:44:24.000Z</time>
      </trkpt>
      <trkpt lat="47.47652" lon="6.7699">
        <ele>311</ele>
        <time>2016-05-29T07:44:25.000Z</time>
      </trkpt>
      <trkpt lat="47.47649" lon="6.76994">
        <ele>311</ele>
        <time>2016-05-29T07:44:26.000Z</time>
      </trkpt>
      <trkpt lat="47.47647" lon="6.77001">
        <ele>311</ele>
        <time>2016-05-29T07:44:27.000Z</time>
      </trkpt>
      <trkpt lat="47.47646" lon="6.77005">
        <ele>311</ele>
        <time>2016-05-29T07:44:28.000Z</time>
      </trkpt>
      <trkpt lat="47.47646" lon="6.7701">
        <ele>311</ele>
        <time>2016-05-29T07:44:29.000Z</time>
      </trkpt>
      <trkpt lat="47.47645" lon="6.77015">
        <ele>311</ele>
        <time>2016-05-29T07:44:30.000Z</time>
      </trkpt>
      <trkpt lat="47.47644" lon="6.77019">
        <ele>311</ele>
        <time>2016-05-29T07:44:31.000Z</time>
      </trkpt>
      <trkpt lat="47.47643" lon="6.77025">
        <ele>311</ele>
        <time>2016-05-29T07:44:33.000Z</time>
      </trkpt>
      <trkpt lat="47.47642" lon="6.77028">
        <ele>311</ele>
        <time>2016-05-29T07:44:34.000Z</time>
      </trkpt>
      <trkpt lat="47.47641" lon="6.77033">
        <ele>311</ele>
        <time>2016-05-29T07:44:35.000Z</time>
      </trkpt>
      <trkpt lat="47.47641" lon="6.77039">
        <ele>311</ele>
        <time>2016-05-29T07:44:36.000Z</time>
      </trkpt>
      <trkpt lat="47.4764" lon="6.77045">
        <ele>311</ele>
        <time>2016-05-29T07:44:37.000Z</time>
      </trkpt>
      <trkpt lat="47.47639" lon="6.77051">
        <ele>311</ele>
        <time>2016-05-29T07:44:38.000Z</time>
      </trkpt>
      <trkpt lat="47.47638" lon="6.77057">
        <ele>311</ele>
        <time>2016-05-29T07:44:39.000Z</time>
      </trkpt>
      <trkpt lat="47.47638" lon="6.77065">
        <ele>311</ele>
        <time>2016-05-29T07:44:40.000Z</time>
      </trkpt>
      <trkpt lat="47.47635" lon="6.77077">
        <ele>311</ele>
        <time>2016-05-29T07:44:41.000Z</time>
      </trkpt>
      <trkpt lat="47.47633" lon="6.77084">
        <ele>311</ele>
        <time>2016-05-29T07:44:42.000Z</time>
      </trkpt>
      <trkpt lat="47.47632" lon="6.77092">
        <ele>311</ele>
        <time>2016-05-29T07:44:43.000Z</time>
      </trkpt>
      <trkpt lat="47.4763" lon="6.77101">
        <ele>310</ele>
        <time>2016-05-29T07:44:44.000Z</time>
      </trkpt>
      <trkpt lat="47.47629" lon="6.77111">
        <ele>310</ele>
        <time>2016-05-29T07:44:45.000Z</time>
      </trkpt>
      <trkpt lat="47.4763" lon="6.77122">
        <ele>310</ele>
        <time>2016-05-29T07:44:46.000Z</time>
      </trkpt>
      <trkpt lat="47.47628" lon="6.77133">
        <ele>310</ele>
        <time>2016-05-29T07:44:47.000Z</time>
      </trkpt>
      <trkpt lat="47.47624" lon="6.77143">
        <ele>310</ele>
        <time>2016-05-29T07:44:48.000Z</time>
      </trkpt>
      <trkpt lat="47.4762" lon="6.77153">
        <ele>310</ele>
        <time>2016-05-29T07:44:49.000Z</time>
      </trkpt>
      <trkpt lat="47.47617" lon="6.77164">
        <ele>310</ele>
        <time>2016-05-29T07:44:50.000Z</time>
      </trkpt>
      <trkpt lat="47.47614" lon="6.77174">
        <ele>310</ele>
        <time>2016-05-29T07:44:51.000Z</time>
      </trkpt>
      <trkpt lat="47.47607" lon="6.77182">
        <ele>310</ele>
        <time>2016-05-29T07:44:52.000Z</time>
      </trkpt>
      <trkpt lat="47.476" lon="6.77191">
        <ele>310</ele>
        <time>2016-05-29T07:44:53.000Z</time>
      </trkpt>
      <trkpt lat="47.47594" lon="6.77199">
        <ele>310</ele>
        <time>2016-05-29T07:44:54.001Z</time>
      </trkpt>
      <trkpt lat="47.4759" lon="6.77179">
        <ele>310</ele>
        <time>2016-05-29T07:44:54.999Z</time>
      </trkpt>
      <trkpt lat="47.47584" lon="6.77174">
        <ele>309</ele>
        <time>2016-05-29T07:44:56.000Z</time>
      </trkpt>
      <trkpt lat="47.47578" lon="6.77167">
        <ele>309</ele>
        <time>2016-05-29T07:44:57.000Z</time>
      </trkpt>
      <trkpt lat="47.47572" lon="6.77162">
        <ele>309</ele>
        <time>2016-05-29T07:44:58.000Z</time>
      </trkpt>
      <trkpt lat="47.47567" lon="6.77158">
        <ele>310</ele>
        <time>2016-05-29T07:44:59.000Z</time>
      </trkpt>
      <trkpt lat="47.47561" lon="6.77155">
        <ele>310</ele>
        <time>2016-05-29T07:45:00.000Z</time>
      </trkpt>
      <trkpt lat="47.47556" lon="6.77151">
        <ele>310</ele>
        <time>2016-05-29T07:45:01.000Z</time>
      </trkpt>
      <trkpt lat="47.4755" lon="6.77152">
        <ele>310</ele>
        <time>2016-05-29T07:45:02.000Z</time>
      </trkpt>
      <trkpt lat="47.47545" lon="6.77149">
        <ele>310</ele>
        <time>2016-05-29T07:45:02.999Z</time>
      </trkpt>
      <trkpt lat="47.47541" lon="6.77144">
        <ele>310</ele>
        <time>2016-05-29T07:45:04.000Z</time>
      </trkpt>
      <trkpt lat="47.47535" lon="6.77142">
        <ele>310</ele>
        <time>2016-05-29T07:45:05.000Z</time>
      </trkpt>
      <trkpt lat="47.4753" lon="6.77141">
        <ele>310</ele>
        <time>2016-05-29T07:45:06.000Z</time>
      </trkpt>
      <trkpt lat="47.47523" lon="6.77142">
        <ele>310</ele>
        <time>2016-05-29T07:45:06.999Z</time>
      </trkpt>
      <trkpt lat="47.47518" lon="6.77143">
        <ele>310</ele>
        <time>2016-05-29T07:45:08.000Z</time>
      </trkpt>
      <trkpt lat="47.47512" lon="6.77144">
        <ele>310</ele>
        <time>2016-05-29T07:45:09.002Z</time>
      </trkpt>
      <trkpt lat="47.47508" lon="6.77146">
        <ele>310</ele>
        <time>2016-05-29T07:45:10.000Z</time>
      </trkpt>
      <trkpt lat="47.47504" lon="6.77164">
        <ele>309</ele>
        <time>2016-05-29T07:45:11.000Z</time>
      </trkpt>
      <trkpt lat="47.47514" lon="6.77173">
        <ele>310</ele>
        <time>2016-05-29T07:45:12.000Z</time>
      </trkpt>
      <trkpt lat="47.47519" lon="6.77184">
        <ele>310</ele>
        <time>2016-05-29T07:45:13.000Z</time>
      </trkpt>
      <trkpt lat="47.47524" lon="6.77191">
        <ele>310</ele>
        <time>2016-05-29T07:45:14.000Z</time>
      </trkpt>
      <trkpt lat="47.47528" lon="6.77197">
        <ele>310</ele>
        <time>2016-05-29T07:45:15.000Z</time>
      </trkpt>
      <trkpt lat="47.47533" lon="6.77201">
        <ele>310</ele>
        <time>2016-05-29T07:45:16.000Z</time>
      </trkpt>
      <trkpt lat="47.47537" lon="6.77203">
        <ele>310</ele>
        <time>2016-05-29T07:45:17.000Z</time>
      </trkpt>
      <trkpt lat="47.47544" lon="6.77205">
        <ele>310</ele>
        <time>2016-05-29T07:45:18.000Z</time>
      </trkpt>
      <trkpt lat="47.4755" lon="6.77209">
        <ele>311</ele>
        <time>2016-05-29T07:45:19.000Z</time>
      </trkpt>
      <trkpt lat="47.47556" lon="6.77212">
        <ele>311</ele>
        <time>2016-05-29T07:45:20.001Z</time>
      </trkpt>
      <trkpt lat="47.47561" lon="6.77216">
        <ele>311</ele>
        <time>2016-05-29T07:45:21.000Z</time>
      </trkpt>
      <trkpt lat="47.47567" lon="6.77222">
        <ele>311</ele>
        <time>2016-05-29T07:45:22.000Z</time>
      </trkpt>
      <trkpt lat="47.47572" lon="6.77227">
        <ele>311</ele>
        <time>2016-05-29T07:45:23.000Z</time>
      </trkpt>
      <trkpt lat="47.47578" lon="6.77232">
        <ele>311</ele>
        <time>2016-05-29T07:45:24.000Z</time>
      </trkpt>
      <trkpt lat="47.47583" lon="6.77236">
        <ele>311</ele>
        <time>2016-05-29T07:45:25.000Z</time>
      </trkpt>
      <trkpt lat="47.47589" lon="6.77241">
        <ele>311</ele>
        <time>2016-05-29T07:45:26.000Z</time>
      </trkpt>
      <trkpt lat="47.47594" lon="6.77246">
        <ele>311</ele>
        <time>2016-05-29T07:45:27.000Z</time>
      </trkpt>
      <trkpt lat="47.47599" lon="6.77251">
        <ele>311</ele>
        <time>2016-05-29T07:45:28.000Z</time>
      </trkpt>
      <trkpt lat="47.47604" lon="6.77257">
        <ele>311</ele>
        <time>2016-05-29T07:45:29.000Z</time>
      </trkpt>
      <trkpt lat="47.47609" lon="6.77261">
        <ele>311</ele>
        <time>2016-05-29T07:45:30.000Z</time>
      </trkpt>
      <trkpt lat="47.47613" lon="6.77266">
        <ele>311</ele>
        <time>2016-05-29T07:45:31.000Z</time>
      </trkpt>
      <trkpt lat="47.47619" lon="6.7727">
        <ele>311</ele>
        <time>2016-05-29T07:45:32.000Z</time>
      </trkpt>
      <trkpt lat="47.47625" lon="6.77274">
        <ele>311</ele>
        <time>2016-05-29T07:45:33.000Z</time>
      </trkpt>
      <trkpt lat="47.47629" lon="6.77278">
        <ele>311</ele>
        <time>2016-05-29T07:45:34.000Z</time>
      </trkpt>
      <trkpt lat="47.47632" lon="6.77284">
        <ele>311</ele>
        <time>2016-05-29T07:45:35.000Z</time>
      </trkpt>
      <trkpt lat="47.47635" lon="6.7729">
        <ele>311</ele>
        <time>2016-05-29T07:45:36.000Z</time>
      </trkpt>
      <trkpt lat="47.47637" lon="6.77298">
        <ele>311</ele>
        <time>2016-05-29T07:45:37.000Z</time>
      </trkpt>
      <trkpt lat="47.47638" lon="6.77306">
        <ele>311</ele>
        <time>2016-05-29T07:45:38.000Z</time>
      </trkpt>
      <trkpt lat="47.47638" lon="6.77314">
        <ele>311</ele>
        <time>2016-05-29T07:45:39.000Z</time>
      </trkpt>
      <trkpt lat="47.47634" lon="6.77322">
        <ele>311</ele>
        <time>2016-05-29T07:45:40.000Z</time>
      </trkpt>
      <trkpt lat="47.47631" lon="6.77329">
        <ele>311</ele>
        <time>2016-05-29T07:45:41.000Z</time>
      </trkpt>
      <trkpt lat="47.47629" lon="6.77336">
        <ele>312</ele>
        <time>2016-05-29T07:45:42.000Z</time>
      </trkpt>
      <trkpt lat="47.47627" lon="6.77344">
        <ele>312</ele>
        <time>2016-05-29T07:45:43.000Z</time>
      </trkpt>
      <trkpt lat="47.47626" lon="6.77354">
        <ele>312</ele>
        <time>2016-05-29T07:45:44.000Z</time>
      </trkpt>
      <trkpt lat="47.47623" lon="6.77359">
        <ele>312</ele>
        <time>2016-05-29T07:45:45.000Z</time>
      </trkpt>
      <trkpt lat="47.47621" lon="6.77367">
        <ele>312</ele>
        <time>2016-05-29T07:45:46.000Z</time>
      </trkpt>
      <trkpt lat="47.4762" lon="6.77373">
        <ele>312</ele>
        <time>2016-05-29T07:45:47.000Z</time>
      </trkpt>
      <trkpt lat="47.47618" lon="6.77379">
        <ele>312</ele>
        <time>2016-05-29T07:45:48.000Z</time>
      </trkpt>
      <trkpt lat="47.47616" lon="6.77384">
        <ele>312</ele>
        <time>2016-05-29T07:45:49.000Z</time>
      </trkpt>
      <trkpt lat="47.47616" lon="6.77396">
        <ele>312</ele>
        <time>2016-05-29T07:45:50.000Z</time>
      </trkpt>
      <trkpt lat="47.47612" lon="6.77402">
        <ele>313</ele>
        <time>2016-05-29T07:45:51.000Z</time>
      </trkpt>
      <trkpt lat="47.4761" lon="6.77408">
        <ele>313</ele>
        <time>2016-05-29T07:45:52.000Z</time>
      </trkpt>
      <trkpt lat="47.47608" lon="6.77416">
        <ele>313</ele>
        <time>2016-05-29T07:45:53.000Z</time>
      </trkpt>
      <trkpt lat="47.47604" lon="6.77415">
        <ele>313</ele>
        <time>2016-05-29T07:45:54.000Z</time>
      </trkpt>
      <trkpt lat="47.47601" lon="6.77419">
        <ele>314</ele>
        <time>2016-05-29T07:45:55.000Z</time>
      </trkpt>
      <trkpt lat="47.47598" lon="6.77424">
        <ele>314</ele>
        <time>2016-05-29T07:45:56.000Z</time>
      </trkpt>
      <trkpt lat="47.47596" lon="6.77434">
        <ele>314</ele>
        <time>2016-05-29T07:45:57.000Z</time>
      </trkpt>
      <trkpt lat="47.47593" lon="6.77439">
        <ele>314</ele>
        <time>2016-05-29T07:45:58.000Z</time>
      </trkpt>
      <trkpt lat="47.47592" lon="6.77445">
        <ele>314</ele>
        <time>2016-05-29T07:45:59.000Z</time>
      </trkpt>
      <trkpt lat="47.4759" lon="6.77451">
        <ele>314</ele>
        <time>2016-05-29T07:46:00.000Z</time>
      </trkpt>
      <trkpt lat="47.47591" lon="6.77453">
        <ele>314</ele>
        <time>2016-05-29T07:46:01.000Z</time>
      </trkpt>
      <trkpt lat="47.47592" lon="6.77458">
        <ele>314</ele>
        <time>2016-05-29T07:46:03.000Z</time>
      </trkpt>
      <trkpt lat="47.47593" lon="6.77461">
        <ele>314</ele>
        <time>2016-05-29T07:46:04.000Z</time>
      </trkpt>
      <trkpt lat="47.47596" lon="6.77465">
        <ele>314</ele>
        <time>2016-05-29T07:46:06.000Z</time>
      </trkpt>
      <trkpt lat="47.47599" lon="6.77469">
        <ele>314</ele>
        <time>2016-05-29T07:46:07.000Z</time>
      </trkpt>
      <trkpt lat="47.47601" lon="6.77472">
        <ele>314</ele>
        <time>2016-05-29T07:46:08.000Z</time>
      </trkpt>
      <trkpt lat="47.47604" lon="6.77476">
        <ele>314</ele>
        <time>2016-05-29T07:46:09.000Z</time>
      </trkpt>
      <trkpt lat="47.4761" lon="6.77483">
        <ele>314</ele>
        <time>2016-05-29T07:46:10.000Z</time>
      </trkpt>
      <trkpt lat="47.47614" lon="6.77486">
        <ele>314</ele>
        <time>2016-05-29T07:46:11.000Z</time>
      </trkpt>
      <trkpt lat="47.47617" lon="6.7749">
        <ele>314</ele>
        <time>2016-05-29T07:46:12.002Z</time>
      </trkpt>
      <trkpt lat="47.4762" lon="6.77493">
        <ele>314</ele>
        <time>2016-05-29T07:46:13.000Z</time>
      </trkpt>
      <trkpt lat="47.47624" lon="6.77496">
        <ele>314</ele>
        <time>2016-05-29T07:46:13.999Z</time>
      </trkpt>
      <trkpt lat="47.47627" lon="6.77502">
        <ele>315</ele>
        <time>2016-05-29T07:46:15.000Z</time>
      </trkpt>
      <trkpt lat="47.4763" lon="6.77505">
        <ele>315</ele>
        <time>2016-05-29T07:46:17.000Z</time>
      </trkpt>
      <trkpt lat="47.47631" lon="6.77505">
        <ele>315</ele>
        <time>2016-05-29T07:46:18.001Z</time>
      </trkpt>
      <trkpt lat="47.47636" lon="6.77513">
        <ele>315</ele>
        <time>2016-05-29T07:46:19.000Z</time>
      </trkpt>
      <trkpt lat="47.4764" lon="6.77519">
        <ele>315</ele>
        <time>2016-05-29T07:46:20.000Z</time>
      </trkpt>
      <trkpt lat="47.47642" lon="6.77521">
        <ele>315</ele>
        <time>2016-05-29T07:46:21.000Z</time>
      </trkpt>
      <trkpt lat="47.47647" lon="6.77527">
        <ele>315</ele>
        <time>2016-05-29T07:46:22.000Z</time>
      </trkpt>
      <trkpt lat="47.47651" lon="6.77528">
        <ele>315</ele>
        <time>2016-05-29T07:46:24.000Z</time>
      </trkpt>
      <trkpt lat="47.47653" lon="6.77528">
        <ele>315</ele>
        <time>2016-05-29T07:46:25.000Z</time>
      </trkpt>
      <trkpt lat="47.47657" lon="6.77536">
        <ele>315</ele>
        <time>2016-05-29T07:46:26.000Z</time>
      </trkpt>
      <trkpt lat="47.4766" lon="6.77541">
        <ele>315</ele>
        <time>2016-05-29T07:46:27.000Z</time>
      </trkpt>
      <trkpt lat="47.47663" lon="6.77545">
        <ele>315</ele>
        <time>2016-05-29T07:46:28.000Z</time>
      </trkpt>
      <trkpt lat="47.47665" lon="6.77549">
        <ele>315</ele>
        <time>2016-05-29T07:46:30.000Z</time>
      </trkpt>
      <trkpt lat="47.47668" lon="6.77553">
        <ele>314</ele>
        <time>2016-05-29T07:46:31.000Z</time>
      </trkpt>
      <trkpt lat="47.47673" lon="6.77561">
        <ele>314</ele>
        <time>2016-05-29T07:46:32.000Z</time>
      </trkpt>
      <trkpt lat="47.47677" lon="6.77568">
        <ele>314</ele>
        <time>2016-05-29T07:46:33.000Z</time>
      </trkpt>
      <trkpt lat="47.4768" lon="6.77572">
        <ele>314</ele>
        <time>2016-05-29T07:46:34.000Z</time>
      </trkpt>
      <trkpt lat="47.47684" lon="6.77581">
        <ele>314</ele>
        <time>2016-05-29T07:46:35.000Z</time>
      </trkpt>
      <trkpt lat="47.47688" lon="6.7759">
        <ele>314</ele>
        <time>2016-05-29T07:46:36.000Z</time>
      </trkpt>
      <trkpt lat="47.4769" lon="6.77598">
        <ele>314</ele>
        <time>2016-05-29T07:46:37.000Z</time>
      </trkpt>
      <trkpt lat="47.47693" lon="6.77605">
        <ele>314</ele>
        <time>2016-05-29T07:46:38.000Z</time>
      </trkpt>
      <trkpt lat="47.47693" lon="6.77612">
        <ele>314</ele>
        <time>2016-05-29T07:46:39.000Z</time>
      </trkpt>
      <trkpt lat="47.47694" lon="6.77622">
        <ele>314</ele>
        <time>2016-05-29T07:46:40.000Z</time>
      </trkpt>
      <trkpt lat="47.47696" lon="6.77634">
        <ele>314</ele>
        <time>2016-05-29T07:46:41.000Z</time>
      </trkpt>
      <trkpt lat="47.47696" lon="6.77641">
        <ele>314</ele>
        <time>2016-05-29T07:46:42.000Z</time>
      </trkpt>
      <trkpt lat="47.47697" lon="6.77648">
        <ele>314</ele>
        <time>2016-05-29T07:46:43.000Z</time>
      </trkpt>
      <trkpt lat="47.47703" lon="6.77659">
        <ele>314</ele>
        <time>2016-05-29T07:46:44.000Z</time>
      </trkpt>
      <trkpt lat="47.47704" lon="6.77667">
        <ele>314</ele>
        <time>2016-05-29T07:46:45.000Z</time>
      </trkpt>
      <trkpt lat="47.47704" lon="6.77674">
        <ele>315</ele>
        <time>2016-05-29T07:46:46.000Z</time>
      </trkpt>
      <trkpt lat="47.47707" lon="6.77681">
        <ele>315</ele>
        <time>2016-05-29T07:46:47.000Z</time>
      </trkpt>
      <trkpt lat="47.47709" lon="6.7769">
        <ele>315</ele>
        <time>2016-05-29T07:46:48.000Z</time>
      </trkpt>
      <trkpt lat="47.47711" lon="6.77698">
        <ele>315</ele>
        <time>2016-05-29T07:46:49.000Z</time>
      </trkpt>
      <trkpt lat="47.47711" lon="6.77705">
        <ele>315</ele>
        <time>2016-05-29T07:46:50.000Z</time>
      </trkpt>
      <trkpt lat="47.4771" lon="6.77711">
        <ele>315</ele>
        <time>2016-05-29T07:46:51.000Z</time>
      </trkpt>
      <trkpt lat="47.47708" lon="6.77709">
        <ele>316</ele>
        <time>2016-05-29T07:46:52.000Z</time>
      </trkpt>
      <trkpt lat="47.47704" lon="6.77715">
        <ele>316</ele>
        <time>2016-05-29T07:46:53.000Z</time>
      </trkpt>
      <trkpt lat="47.47703" lon="6.77721">
        <ele>316</ele>
        <time>2016-05-29T07:46:54.000Z</time>
      </trkpt>
      <trkpt lat="47.47702" lon="6.77725">
        <ele>316</ele>
        <time>2016-05-29T07:46:55.000Z</time>
      </trkpt>
      <trkpt lat="47.47701" lon="6.7773">
        <ele>316</ele>
        <time>2016-05-29T07:46:56.000Z</time>
      </trkpt>
      <trkpt lat="47.477" lon="6.77737">
        <ele>316</ele>
        <time>2016-05-29T07:46:57.000Z</time>
      </trkpt>
      <trkpt lat="47.477" lon="6.77744">
        <ele>316</ele>
        <time>2016-05-29T07:46:58.000Z</time>
      </trkpt>
      <trkpt lat="47.477" lon="6.7775">
        <ele>316</ele>
        <time>2016-05-29T07:46:59.000Z</time>
      </trkpt>
      <trkpt lat="47.477" lon="6.77758">
        <ele>316</ele>
        <time>2016-05-29T07:47:00.000Z</time>
      </trkpt>
      <trkpt lat="47.47699" lon="6.77764">
        <ele>316</ele>
        <time>2016-05-29T07:47:01.000Z</time>
      </trkpt>
      <trkpt lat="47.47696" lon="6.77765">
        <ele>317</ele>
        <time>2016-05-29T07:47:02.000Z</time>
      </trkpt>
      <trkpt lat="47.47695" lon="6.77769">
        <ele>317</ele>
        <time>2016-05-29T07:47:03.000Z</time>
      </trkpt>
      <trkpt lat="47.47694" lon="6.77773">
        <ele>317</ele>
        <time>2016-05-29T07:47:04.000Z</time>
      </trkpt>
      <trkpt lat="47.47691" lon="6.77777">
        <ele>317</ele>
        <time>2016-05-29T07:47:05.000Z</time>
      </trkpt>
      <trkpt lat="47.47689" lon="6.77782">
        <ele>317</ele>
        <time>2016-05-29T07:47:06.000Z</time>
      </trkpt>
      <trkpt lat="47.47687" lon="6.77786">
        <ele>317</ele>
        <time>2016-05-29T07:47:07.000Z</time>
      </trkpt>
      <trkpt lat="47.47689" lon="6.77793">
        <ele>317</ele>
        <time>2016-05-29T07:47:08.000Z</time>
      </trkpt>
      <trkpt lat="47.47689" lon="6.77798">
        <ele>317</ele>
        <time>2016-05-29T07:47:09.000Z</time>
      </trkpt>
      <trkpt lat="47.47689" lon="6.77804">
        <ele>317</ele>
        <time>2016-05-29T07:47:10.000Z</time>
      </trkpt>
      <trkpt lat="47.47689" lon="6.7781">
        <ele>317</ele>
        <time>2016-05-29T07:47:11.000Z</time>
      </trkpt>
      <trkpt lat="47.47689" lon="6.77816">
        <ele>317</ele>
        <time>2016-05-29T07:47:12.000Z</time>
      </trkpt>
      <trkpt lat="47.47689" lon="6.77822">
        <ele>317</ele>
        <time>2016-05-29T07:47:13.000Z</time>
      </trkpt>
      <trkpt lat="47.47689" lon="6.77829">
        <ele>317</ele>
        <time>2016-05-29T07:47:14.000Z</time>
      </trkpt>
      <trkpt lat="47.4769" lon="6.77835">
        <ele>318</ele>
        <time>2016-05-29T07:47:15.000Z</time>
      </trkpt>
      <trkpt lat="47.47694" lon="6.77849">
        <ele>318</ele>
        <time>2016-05-29T07:47:16.000Z</time>
      </trkpt>
      <trkpt lat="47.47697" lon="6.77859">
        <ele>318</ele>
        <time>2016-05-29T07:47:17.000Z</time>
      </trkpt>
      <trkpt lat="47.47697" lon="6.77861">
        <ele>318</ele>
        <time>2016-05-29T07:47:18.000Z</time>
      </trkpt>
      <trkpt lat="47.47698" lon="6.77869">
        <ele>318</ele>
        <time>2016-05-29T07:47:19.000Z</time>
      </trkpt>
      <trkpt lat="47.47699" lon="6.77875">
        <ele>318</ele>
        <time>2016-05-29T07:47:20.000Z</time>
      </trkpt>
      <trkpt lat="47.477" lon="6.77882">
        <ele>318</ele>
        <time>2016-05-29T07:47:21.000Z</time>
      </trkpt>
      <trkpt lat="47.477" lon="6.77886">
        <ele>318</ele>
        <time>2016-05-29T07:47:22.000Z</time>
      </trkpt>
      <trkpt lat="47.47701" lon="6.77891">
        <ele>318</ele>
        <time>2016-05-29T07:47:23.001Z</time>
      </trkpt>
      <trkpt lat="47.47702" lon="6.77895">
        <ele>318</ele>
        <time>2016-05-29T07:47:24.001Z</time>
      </trkpt>
      <trkpt lat="47.47703" lon="6.77906">
        <ele>318</ele>
        <time>2016-05-29T07:47:25.000Z</time>
      </trkpt>
      <trkpt lat="47.47703" lon="6.77912">
        <ele>318</ele>
        <time>2016-05-29T07:47:25.999Z</time>
      </trkpt>
      <trkpt lat="47.47704" lon="6.77917">
        <ele>320</ele>
        <time>2016-05-29T07:47:27.001Z</time>
      </trkpt>
      <trkpt lat="47.47705" lon="6.77925">
        <ele>320</ele>
        <time>2016-05-29T07:47:28.000Z</time>
      </trkpt>
      <trkpt lat="47.47707" lon="6.77931">
        <ele>320</ele>
        <time>2016-05-29T07:47:29.000Z</time>
      </trkpt>
      <trkpt lat="47.47707" lon="6.77937">
        <ele>320</ele>
        <time>2016-05-29T07:47:29.999Z</time>
      </trkpt>
      <trkpt lat="47.4771" lon="6.77943">
        <ele>320</ele>
        <time>2016-05-29T07:47:31.000Z</time>
      </trkpt>
      <trkpt lat="47.47713" lon="6.7795">
        <ele>320</ele>
        <time>2016-05-29T07:47:32.000Z</time>
      </trkpt>
      <trkpt lat="47.47714" lon="6.77956">
        <ele>320</ele>
        <time>2016-05-29T07:47:33.001Z</time>
      </trkpt>
      <trkpt lat="47.47715" lon="6.77961">
        <ele>320</ele>
        <time>2016-05-29T07:47:34.000Z</time>
      </trkpt>
      <trkpt lat="47.47716" lon="6.77966">
        <ele>320</ele>
        <time>2016-05-29T07:47:35.000Z</time>
      </trkpt>
      <trkpt lat="47.47717" lon="6.7797">
        <ele>320</ele>
        <time>2016-05-29T07:47:36.000Z</time>
      </trkpt>
      <trkpt lat="47.47717" lon="6.77976">
        <ele>320</ele>
        <time>2016-05-29T07:47:37.000Z</time>
      </trkpt>
      <trkpt lat="47.47717" lon="6.7798">
        <ele>320</ele>
        <time>2016-05-29T07:47:38.000Z</time>
      </trkpt>
      <trkpt lat="47.47719" lon="6.77988">
        <ele>320</ele>
        <time>2016-05-29T07:47:39.000Z</time>
      </trkpt>
      <trkpt lat="47.4772" lon="6.77995">
        <ele>320</ele>
        <time>2016-05-29T07:47:40.000Z</time>
      </trkpt>
      <trkpt lat="47.47721" lon="6.78002">
        <ele>321</ele>
        <time>2016-05-29T07:47:41.000Z</time>
      </trkpt>
      <trkpt lat="47.47722" lon="6.78007">
        <ele>321</ele>
        <time>2016-05-29T07:47:42.000Z</time>
      </trkpt>
      <trkpt lat="47.47723" lon="6.78013">
        <ele>321</ele>
        <time>2016-05-29T07:47:43.000Z</time>
      </trkpt>
      <trkpt lat="47.47724" lon="6.78019">
        <ele>321</ele>
        <time>2016-05-29T07:47:44.000Z</time>
      </trkpt>
      <trkpt lat="47.47725" lon="6.78025">
        <ele>321</ele>
        <time>2016-05-29T07:47:45.000Z</time>
      </trkpt>
      <trkpt lat="47.47726" lon="6.7803">
        <ele>322</ele>
        <time>2016-05-29T07:47:46.000Z</time>
      </trkpt>
      <trkpt lat="47.47726" lon="6.78036">
        <ele>322</ele>
        <time>2016-05-29T07:47:47.000Z</time>
      </trkpt>
      <trkpt lat="47.47726" lon="6.78041">
        <ele>322</ele>
        <time>2016-05-29T07:47:48.000Z</time>
      </trkpt>
      <trkpt lat="47.47726" lon="6.78046">
        <ele>322</ele>
        <time>2016-05-29T07:47:49.000Z</time>
      </trkpt>
      <trkpt lat="47.47726" lon="6.78051">
        <ele>322</ele>
        <time>2016-05-29T07:47:50.000Z</time>
      </trkpt>
      <trkpt lat="47.47725" lon="6.78055">
        <ele>322</ele>
        <time>2016-05-29T07:47:51.000Z</time>
      </trkpt>
      <trkpt lat="47.47724" lon="6.7806">
        <ele>322</ele>
        <time>2016-05-29T07:47:52.000Z</time>
      </trkpt>
      <trkpt lat="47.47722" lon="6.78064">
        <ele>322</ele>
        <time>2016-05-29T07:47:53.000Z</time>
      </trkpt>
      <trkpt lat="47.47721" lon="6.78069">
        <ele>322</ele>
        <time>2016-05-29T07:47:54.000Z</time>
      </trkpt>
      <trkpt lat="47.4772" lon="6.78074">
        <ele>322</ele>
        <time>2016-05-29T07:47:55.000Z</time>
      </trkpt>
      <trkpt lat="47.47719" lon="6.78079">
        <ele>322</ele>
        <time>2016-05-29T07:47:56.000Z</time>
      </trkpt>
      <trkpt lat="47.47718" lon="6.78083">
        <ele>322</ele>
        <time>2016-05-29T07:47:57.000Z</time>
      </trkpt>
      <trkpt lat="47.47717" lon="6.78087">
        <ele>325</ele>
        <time>2016-05-29T07:47:58.001Z</time>
      </trkpt>
      <trkpt lat="47.47716" lon="6.78092">
        <ele>325</ele>
        <time>2016-05-29T07:47:59.000Z</time>
      </trkpt>
      <trkpt lat="47.47716" lon="6.78097">
        <ele>325</ele>
        <time>2016-05-29T07:48:00.000Z</time>
      </trkpt>
      <trkpt lat="47.47716" lon="6.78101">
        <ele>325</ele>
        <time>2016-05-29T07:48:00.999Z</time>
      </trkpt>
      <trkpt lat="47.47715" lon="6.78107">
        <ele>325</ele>
        <time>2016-05-29T07:48:02.000Z</time>
      </trkpt>
      <trkpt lat="47.47715" lon="6.78112">
        <ele>326</ele>
        <time>2016-05-29T07:48:03.000Z</time>
      </trkpt>
      <trkpt lat="47.47713" lon="6.78116">
        <ele>326</ele>
        <time>2016-05-29T07:48:04.000Z</time>
      </trkpt>
      <trkpt lat="47.47712" lon="6.78118">
        <ele>326</ele>
        <time>2016-05-29T07:48:05.000Z</time>
      </trkpt>
      <trkpt lat="47.47708" lon="6.78122">
        <ele>326</ele>
        <time>2016-05-29T07:48:07.000Z</time>
      </trkpt>
      <trkpt lat="47.47706" lon="6.78124">
        <ele>326</ele>
        <time>2016-05-29T07:48:08.000Z</time>
      </trkpt>
      <trkpt lat="47.47704" lon="6.78127">
        <ele>326</ele>
        <time>2016-05-29T07:48:09.000Z</time>
      </trkpt>
      <trkpt lat="47.47702" lon="6.7813">
        <ele>327</ele>
        <time>2016-05-29T07:48:10.000Z</time>
      </trkpt>
      <trkpt lat="47.477" lon="6.78134">
        <ele>327</ele>
        <time>2016-05-29T07:48:11.000Z</time>
      </trkpt>
      <trkpt lat="47.47698" lon="6.78137">
        <ele>327</ele>
        <time>2016-05-29T07:48:12.000Z</time>
      </trkpt>
      <trkpt lat="47.47696" lon="6.78141">
        <ele>327</ele>
        <time>2016-05-29T07:48:13.000Z</time>
      </trkpt>
      <trkpt lat="47.47693" lon="6.78143">
        <ele>328</ele>
        <time>2016-05-29T07:48:14.000Z</time>
      </trkpt>
      <trkpt lat="47.47692" lon="6.78146">
        <ele>328</ele>
        <time>2016-05-29T07:48:15.000Z</time>
      </trkpt>
      <trkpt lat="47.4769" lon="6.78149">
        <ele>328</ele>
        <time>2016-05-29T07:48:16.000Z</time>
      </trkpt>
      <trkpt lat="47.47689" lon="6.78152">
        <ele>328</ele>
        <time>2016-05-29T07:48:17.000Z</time>
      </trkpt>
      <trkpt lat="47.47688" lon="6.78155">
        <ele>328</ele>
        <time>2016-05-29T07:48:18.000Z</time>
      </trkpt>
      <trkpt lat="47.47687" lon="6.7816">
        <ele>329</ele>
        <time>2016-05-29T07:48:22.000Z</time>
      </trkpt>
      <trkpt lat="47.47687" lon="6.78163">
        <ele>329</ele>
        <time>2016-05-29T07:48:23.000Z</time>
      </trkpt>
      <trkpt lat="47.47686" lon="6.78169">
        <ele>332</ele>
        <time>2016-05-29T07:48:25.000Z</time>
      </trkpt>
      <trkpt lat="47.47686" lon="6.78172">
        <ele>332</ele>
        <time>2016-05-29T07:48:26.000Z</time>
      </trkpt>
      <trkpt lat="47.47685" lon="6.78176">
        <ele>332</ele>
        <time>2016-05-29T07:48:27.000Z</time>
      </trkpt>
      <trkpt lat="47.47684" lon="6.78178">
        <ele>332</ele>
        <time>2016-05-29T07:48:28.000Z</time>
      </trkpt>
      <trkpt lat="47.47683" lon="6.78184">
        <ele>332</ele>
        <time>2016-05-29T07:48:30.000Z</time>
      </trkpt>
      <trkpt lat="47.47682" lon="6.78187">
        <ele>332</ele>
        <time>2016-05-29T07:48:31.000Z</time>
      </trkpt>
      <trkpt lat="47.47682" lon="6.78194">
        <ele>332</ele>
        <time>2016-05-29T07:48:33.000Z</time>
      </trkpt>
      <trkpt lat="47.47682" lon="6.78198">
        <ele>332</ele>
        <time>2016-05-29T07:48:34.000Z</time>
      </trkpt>
      <trkpt lat="47.47682" lon="6.78202">
        <ele>333</ele>
        <time>2016-05-29T07:48:35.000Z</time>
      </trkpt>
      <trkpt lat="47.47682" lon="6.78205">
        <ele>333</ele>
        <time>2016-05-29T07:48:36.001Z</time>
      </trkpt>
      <trkpt lat="47.47682" lon="6.78209">
        <ele>333</ele>
        <time>2016-05-29T07:48:37.000Z</time>
      </trkpt>
      <trkpt lat="47.47682" lon="6.78214">
        <ele>333</ele>
        <time>2016-05-29T07:48:38.000Z</time>
      </trkpt>
      <trkpt lat="47.47683" lon="6.78219">
        <ele>334</ele>
        <time>2016-05-29T07:48:39.000Z</time>
      </trkpt>
      <trkpt lat="47.47684" lon="6.78223">
        <ele>334</ele>
        <time>2016-05-29T07:48:40.000Z</time>
      </trkpt>
      <trkpt lat="47.47685" lon="6.78227">
        <ele>334</ele>
        <time>2016-05-29T07:48:41.000Z</time>
      </trkpt>
      <trkpt lat="47.47687" lon="6.78229">
        <ele>334</ele>
        <time>2016-05-29T07:48:42.000Z</time>
      </trkpt>
      <trkpt lat="47.47691" lon="6.7823">
        <ele>334</ele>
        <time>2016-05-29T07:48:47.000Z</time>
      </trkpt>
      <trkpt lat="47.47692" lon="6.78232">
        <ele>334</ele>
        <time>2016-05-29T07:48:48.000Z</time>
      </trkpt>
      <trkpt lat="47.47693" lon="6.78236">
        <ele>334</ele>
        <time>2016-05-29T07:48:49.000Z</time>
      </trkpt>
      <trkpt lat="47.47694" lon="6.78241">
        <ele>334</ele>
        <time>2016-05-29T07:48:50.000Z</time>
      </trkpt>
      <trkpt lat="47.47696" lon="6.78246">
        <ele>334</ele>
        <time>2016-05-29T07:48:51.000Z</time>
      </trkpt>
      <trkpt lat="47.47698" lon="6.78251">
        <ele>337</ele>
        <time>2016-05-29T07:48:52.000Z</time>
      </trkpt>
      <trkpt lat="47.47699" lon="6.78255">
        <ele>337</ele>
        <time>2016-05-29T07:48:53.000Z</time>
      </trkpt>
      <trkpt lat="47.477" lon="6.7826">
        <ele>337</ele>
        <time>2016-05-29T07:48:54.000Z</time>
      </trkpt>
      <trkpt lat="47.47701" lon="6.78264">
        <ele>337</ele>
        <time>2016-05-29T07:48:55.000Z</time>
      </trkpt>
      <trkpt lat="47.47702" lon="6.78268">
        <ele>337</ele>
        <time>2016-05-29T07:48:56.000Z</time>
      </trkpt>
      <trkpt lat="47.47703" lon="6.78271">
        <ele>337</ele>
        <time>2016-05-29T07:48:57.000Z</time>
      </trkpt>
      <trkpt lat="47.47703" lon="6.78274">
        <ele>337</ele>
        <time>2016-05-29T07:48:58.000Z</time>
      </trkpt>
      <trkpt lat="47.47705" lon="6.7828">
        <ele>337</ele>
        <time>2016-05-29T07:49:00.000Z</time>
      </trkpt>
      <trkpt lat="47.47705" lon="6.78283">
        <ele>337</ele>
        <time>2016-05-29T07:49:01.000Z</time>
      </trkpt>
      <trkpt lat="47.47706" lon="6.78289">
        <ele>338</ele>
        <time>2016-05-29T07:49:03.000Z</time>
      </trkpt>
      <trkpt lat="47.47706" lon="6.78291">
        <ele>338</ele>
        <time>2016-05-29T07:49:04.000Z</time>
      </trkpt>
      <trkpt lat="47.47705" lon="6.78294">
        <ele>338</ele>
        <time>2016-05-29T07:49:05.000Z</time>
      </trkpt>
      <trkpt lat="47.47704" lon="6.78298">
        <ele>338</ele>
        <time>2016-05-29T07:49:06.000Z</time>
      </trkpt>
      <trkpt lat="47.47703" lon="6.78301">
        <ele>338</ele>
        <time>2016-05-29T07:49:07.000Z</time>
      </trkpt>
      <trkpt lat="47.47702" lon="6.78306">
        <ele>338</ele>
        <time>2016-05-29T07:49:08.000Z</time>
      </trkpt>
      <trkpt lat="47.47702" lon="6.7831">
        <ele>338</ele>
        <time>2016-05-29T07:49:09.000Z</time>
      </trkpt>
      <trkpt lat="47.47702" lon="6.78314">
        <ele>339</ele>
        <time>2016-05-29T07:49:10.000Z</time>
      </trkpt>
      <trkpt lat="47.47702" lon="6.78319">
        <ele>339</ele>
        <time>2016-05-29T07:49:12.000Z</time>
      </trkpt>
      <trkpt lat="47.47701" lon="6.78322">
        <ele>339</ele>
        <time>2016-05-29T07:49:13.000Z</time>
      </trkpt>
      <trkpt lat="47.477" lon="6.78328">
        <ele>339</ele>
        <time>2016-05-29T07:49:16.000Z</time>
      </trkpt>
      <trkpt lat="47.477" lon="6.78331">
        <ele>339</ele>
        <time>2016-05-29T07:49:17.000Z</time>
      </trkpt>
      <trkpt lat="47.47699" lon="6.78334">
        <ele>341</ele>
        <time>2016-05-29T07:49:18.000Z</time>
      </trkpt>
      <trkpt lat="47.47697" lon="6.78338">
        <ele>341</ele>
        <time>2016-05-29T07:49:19.000Z</time>
      </trkpt>
      <trkpt lat="47.47695" lon="6.78342">
        <ele>341</ele>
        <time>2016-05-29T07:49:20.000Z</time>
      </trkpt>
      <trkpt lat="47.47692" lon="6.78347">
        <ele>341</ele>
        <time>2016-05-29T07:49:21.000Z</time>
      </trkpt>
      <trkpt lat="47.4769" lon="6.7835">
        <ele>341</ele>
        <time>2016-05-29T07:49:22.000Z</time>
      </trkpt>
      <trkpt lat="47.47688" lon="6.78352">
        <ele>341</ele>
        <time>2016-05-29T07:49:23.000Z</time>
      </trkpt>
      <trkpt lat="47.47684" lon="6.78354">
        <ele>341</ele>
        <time>2016-05-29T07:49:30.000Z</time>
      </trkpt>
      <trkpt lat="47.47681" lon="6.78359">
        <ele>341</ele>
        <time>2016-05-29T07:49:31.000Z</time>
      </trkpt>
      <trkpt lat="47.47677" lon="6.78366">
        <ele>341</ele>
        <time>2016-05-29T07:49:32.000Z</time>
      </trkpt>
      <trkpt lat="47.47672" lon="6.78374">
        <ele>341</ele>
        <time>2016-05-29T07:49:33.000Z</time>
      </trkpt>
      <trkpt lat="47.47667" lon="6.78382">
        <ele>345</ele>
        <time>2016-05-29T07:49:34.000Z</time>
      </trkpt>
      <trkpt lat="47.47662" lon="6.7839">
        <ele>345</ele>
        <time>2016-05-29T07:49:35.000Z</time>
      </trkpt>
      <trkpt lat="47.47659" lon="6.78399">
        <ele>344</ele>
        <time>2016-05-29T07:49:36.000Z</time>
      </trkpt>
      <trkpt lat="47.47657" lon="6.78406">
        <ele>344</ele>
        <time>2016-05-29T07:49:37.000Z</time>
      </trkpt>
      <trkpt lat="47.47654" lon="6.78414">
        <ele>343</ele>
        <time>2016-05-29T07:49:38.000Z</time>
      </trkpt>
      <trkpt lat="47.47652" lon="6.78421">
        <ele>344</ele>
        <time>2016-05-29T07:49:39.000Z</time>
      </trkpt>
      <trkpt lat="47.4765" lon="6.78427">
        <ele>344</ele>
        <time>2016-05-29T07:49:40.000Z</time>
      </trkpt>
      <trkpt lat="47.47647" lon="6.78432">
        <ele>345</ele>
        <time>2016-05-29T07:49:41.000Z</time>
      </trkpt>
      <trkpt lat="47.47644" lon="6.78437">
        <ele>345</ele>
        <time>2016-05-29T07:49:42.000Z</time>
      </trkpt>
      <trkpt lat="47.47641" lon="6.78442">
        <ele>346</ele>
        <time>2016-05-29T07:49:43.000Z</time>
      </trkpt>
      <trkpt lat="47.47638" lon="6.78447">
        <ele>346</ele>
        <time>2016-05-29T07:49:44.000Z</time>
      </trkpt>
      <trkpt lat="47.47635" lon="6.78451">
        <ele>346</ele>
        <time>2016-05-29T07:49:45.000Z</time>
      </trkpt>
      <trkpt lat="47.47632" lon="6.78455">
        <ele>346</ele>
        <time>2016-05-29T07:49:46.000Z</time>
      </trkpt>
      <trkpt lat="47.47631" lon="6.78459">
        <ele>346</ele>
        <time>2016-05-29T07:49:47.000Z</time>
      </trkpt>
      <trkpt lat="47.47629" lon="6.78464">
        <ele>347</ele>
        <time>2016-05-29T07:49:48.000Z</time>
      </trkpt>
      <trkpt lat="47.47627" lon="6.78468">
        <ele>347</ele>
        <time>2016-05-29T07:49:49.000Z</time>
      </trkpt>
      <trkpt lat="47.47625" lon="6.78472">
        <ele>347</ele>
        <time>2016-05-29T07:49:50.000Z</time>
      </trkpt>
      <trkpt lat="47.47623" lon="6.78477">
        <ele>347</ele>
        <time>2016-05-29T07:49:51.000Z</time>
      </trkpt>
      <trkpt lat="47.47621" lon="6.78481">
        <ele>347</ele>
        <time>2016-05-29T07:49:52.000Z</time>
      </trkpt>
      <trkpt lat="47.47619" lon="6.78487">
        <ele>347</ele>
        <time>2016-05-29T07:49:53.000Z</time>
      </trkpt>
      <trkpt lat="47.47617" lon="6.78491">
        <ele>348</ele>
        <time>2016-05-29T07:49:54.000Z</time>
      </trkpt>
      <trkpt lat="47.47615" lon="6.78496">
        <ele>348</ele>
        <time>2016-05-29T07:49:55.000Z</time>
      </trkpt>
      <trkpt lat="47.47613" lon="6.785">
        <ele>348</ele>
        <time>2016-05-29T07:49:56.000Z</time>
      </trkpt>
      <trkpt lat="47.4761" lon="6.78503">
        <ele>349</ele>
        <time>2016-05-29T07:49:57.000Z</time>
      </trkpt>
      <trkpt lat="47.47608" lon="6.78507">
        <ele>349</ele>
        <time>2016-05-29T07:49:58.000Z</time>
      </trkpt>
      <trkpt lat="47.47606" lon="6.7851">
        <ele>350</ele>
        <time>2016-05-29T07:49:59.000Z</time>
      </trkpt>
      <trkpt lat="47.47604" lon="6.78512">
        <ele>350</ele>
        <time>2016-05-29T07:50:00.000Z</time>
      </trkpt>
      <trkpt lat="47.47602" lon="6.78515">
        <ele>350</ele>
        <time>2016-05-29T07:50:01.000Z</time>
      </trkpt>
      <trkpt lat="47.476" lon="6.78518">
        <ele>350</ele>
        <time>2016-05-29T07:50:02.000Z</time>
      </trkpt>
      <trkpt lat="47.47598" lon="6.78522">
        <ele>350</ele>
        <time>2016-05-29T07:50:03.000Z</time>
      </trkpt>
      <trkpt lat="47.47597" lon="6.78526">
        <ele>350</ele>
        <time>2016-05-29T07:50:04.000Z</time>
      </trkpt>
      <trkpt lat="47.47595" lon="6.7853">
        <ele>350</ele>
        <time>2016-05-29T07:50:05.000Z</time>
      </trkpt>
      <trkpt lat="47.47594" lon="6.78533">
        <ele>350</ele>
        <time>2016-05-29T07:50:06.000Z</time>
      </trkpt>
      <trkpt lat="47.47593" lon="6.78537">
        <ele>350</ele>
        <time>2016-05-29T07:50:07.000Z</time>
      </trkpt>
      <trkpt lat="47.47591" lon="6.7854">
        <ele>350</ele>
        <time>2016-05-29T07:50:08.000Z</time>
      </trkpt>
      <trkpt lat="47.4759" lon="6.78544">
        <ele>350</ele>
        <time>2016-05-29T07:50:09.000Z</time>
      </trkpt>
      <trkpt lat="47.47588" lon="6.78547">
        <ele>350</ele>
        <time>2016-05-29T07:50:10.000Z</time>
      </trkpt>
      <trkpt lat="47.47586" lon="6.78549">
        <ele>350</ele>
        <time>2016-05-29T07:50:11.000Z</time>
      </trkpt>
      <trkpt lat="47.47583" lon="6.7855">
        <ele>354</ele>
        <time>2016-05-29T07:50:13.000Z</time>
      </trkpt>
      <trkpt lat="47.47582" lon="6.7855">
        <ele>354</ele>
        <time>2016-05-29T07:50:14.000Z</time>
      </trkpt>
      <trkpt lat="47.47579" lon="6.78553">
        <ele>354</ele>
        <time>2016-05-29T07:50:18.000Z</time>
      </trkpt>
      <trkpt lat="47.47578" lon="6.78557">
        <ele>354</ele>
        <time>2016-05-29T07:50:19.000Z</time>
      </trkpt>
      <trkpt lat="47.47577" lon="6.78562">
        <ele>354</ele>
        <time>2016-05-29T07:50:20.000Z</time>
      </trkpt>
      <trkpt lat="47.47576" lon="6.78566">
        <ele>354</ele>
        <time>2016-05-29T07:50:21.000Z</time>
      </trkpt>
      <trkpt lat="47.47574" lon="6.78571">
        <ele>353</ele>
        <time>2016-05-29T07:50:22.000Z</time>
      </trkpt>
      <trkpt lat="47.47573" lon="6.78573">
        <ele>353</ele>
        <time>2016-05-29T07:50:23.000Z</time>
      </trkpt>
      <trkpt lat="47.47569" lon="6.78576">
        <ele>354</ele>
        <time>2016-05-29T07:50:26.000Z</time>
      </trkpt>
      <trkpt lat="47.47568" lon="6.78578">
        <ele>354</ele>
        <time>2016-05-29T07:50:27.000Z</time>
      </trkpt>
      <trkpt lat="47.47567" lon="6.78583">
        <ele>354</ele>
        <time>2016-05-29T07:50:30.000Z</time>
      </trkpt>
      <trkpt lat="47.47566" lon="6.78584">
        <ele>354</ele>
        <time>2016-05-29T07:50:31.000Z</time>
      </trkpt>
      <trkpt lat="47.47565" lon="6.78587">
        <ele>355</ele>
        <time>2016-05-29T07:50:33.000Z</time>
      </trkpt>
      <trkpt lat="47.47564" lon="6.7859">
        <ele>355</ele>
        <time>2016-05-29T07:50:34.000Z</time>
      </trkpt>
      <trkpt lat="47.47563" lon="6.78595">
        <ele>355</ele>
        <time>2016-05-29T07:50:35.000Z</time>
      </trkpt>
      <trkpt lat="47.47561" lon="6.78599">
        <ele>356</ele>
        <time>2016-05-29T07:50:36.000Z</time>
      </trkpt>
      <trkpt lat="47.4756" lon="6.78604">
        <ele>356</ele>
        <time>2016-05-29T07:50:37.000Z</time>
      </trkpt>
      <trkpt lat="47.47558" lon="6.78608">
        <ele>356</ele>
        <time>2016-05-29T07:50:38.000Z</time>
      </trkpt>
      <trkpt lat="47.47557" lon="6.78613">
        <ele>356</ele>
        <time>2016-05-29T07:50:39.000Z</time>
      </trkpt>
      <trkpt lat="47.47555" lon="6.78618">
        <ele>357</ele>
        <time>2016-05-29T07:50:40.000Z</time>
      </trkpt>
      <trkpt lat="47.47554" lon="6.78623">
        <ele>357</ele>
        <time>2016-05-29T07:50:41.000Z</time>
      </trkpt>
      <trkpt lat="47.47552" lon="6.78627">
        <ele>357</ele>
        <time>2016-05-29T07:50:42.000Z</time>
      </trkpt>
      <trkpt lat="47.4755" lon="6.78631">
        <ele>357</ele>
        <time>2016-05-29T07:50:43.000Z</time>
      </trkpt>
      <trkpt lat="47.47548" lon="6.78635">
        <ele>357</ele>
        <time>2016-05-29T07:50:44.000Z</time>
      </trkpt>
      <trkpt lat="47.47547" lon="6.78642">
        <ele>358</ele>
        <time>2016-05-29T07:50:45.000Z</time>
      </trkpt>
      <trkpt lat="47.47546" lon="6.78645">
        <ele>358</ele>
        <time>2016-05-29T07:50:46.000Z</time>
      </trkpt>
      <trkpt lat="47.47545" lon="6.78651">
        <ele>358</ele>
        <time>2016-05-29T07:50:53.000Z</time>
      </trkpt>
      <trkpt lat="47.47545" lon="6.78652">
        <ele>358</ele>
        <time>2016-05-29T07:50:54.000Z</time>
      </trkpt>
      <trkpt lat="47.47545" lon="6.78657">
        <ele>358</ele>
        <time>2016-05-29T07:50:57.000Z</time>
      </trkpt>
      <trkpt lat="47.47544" lon="6.78659">
        <ele>358</ele>
        <time>2016-05-29T07:50:58.000Z</time>
      </trkpt>
      <trkpt lat="47.47543" lon="6.78665">
        <ele>358</ele>
        <time>2016-05-29T07:51:01.000Z</time>
      </trkpt>
      <trkpt lat="47.47542" lon="6.78667">
        <ele>359</ele>
        <time>2016-05-29T07:51:02.000Z</time>
      </trkpt>
      <trkpt lat="47.4754" lon="6.78672">
        <ele>359</ele>
        <time>2016-05-29T07:51:04.000Z</time>
      </trkpt>
      <trkpt lat="47.47539" lon="6.78676">
        <ele>359</ele>
        <time>2016-05-29T07:51:05.000Z</time>
      </trkpt>
      <trkpt lat="47.47538" lon="6.78679">
        <ele>359</ele>
        <time>2016-05-29T07:51:06.000Z</time>
      </trkpt>
      <trkpt lat="47.47537" lon="6.78682">
        <ele>359</ele>
        <time>2016-05-29T07:51:07.000Z</time>
      </trkpt>
      <trkpt lat="47.47536" lon="6.78685">
        <ele>359</ele>
        <time>2016-05-29T07:51:08.000Z</time>
      </trkpt>
      <trkpt lat="47.47534" lon="6.78688">
        <ele>360</ele>
        <time>2016-05-29T07:51:09.000Z</time>
      </trkpt>
      <trkpt lat="47.47532" lon="6.78692">
        <ele>360</ele>
        <time>2016-05-29T07:51:11.000Z</time>
      </trkpt>
      <trkpt lat="47.4753" lon="6.78695">
        <ele>360</ele>
        <time>2016-05-29T07:51:12.000Z</time>
      </trkpt>
      <trkpt lat="47.47528" lon="6.78698">
        <ele>360</ele>
        <time>2016-05-29T07:51:14.000Z</time>
      </trkpt>
      <trkpt lat="47.47527" lon="6.787">
        <ele>360</ele>
        <time>2016-05-29T07:51:15.000Z</time>
      </trkpt>
      <trkpt lat="47.47524" lon="6.78704">
        <ele>360</ele>
        <time>2016-05-29T07:51:18.000Z</time>
      </trkpt>
      <trkpt lat="47.47522" lon="6.78706">
        <ele>360</ele>
        <time>2016-05-29T07:51:19.000Z</time>
      </trkpt>
      <trkpt lat="47.4752" lon="6.7871">
        <ele>359</ele>
        <time>2016-05-29T07:51:21.000Z</time>
      </trkpt>
      <trkpt lat="47.47519" lon="6.78712">
        <ele>359</ele>
        <time>2016-05-29T07:51:22.000Z</time>
      </trkpt>
      <trkpt lat="47.47517" lon="6.78718">
        <ele>359</ele>
        <time>2016-05-29T07:51:27.000Z</time>
      </trkpt>
      <trkpt lat="47.47518" lon="6.78719">
        <ele>359</ele>
        <time>2016-05-29T07:51:28.000Z</time>
      </trkpt>
      <trkpt lat="47.4752" lon="6.78724">
        <ele>359</ele>
        <time>2016-05-29T07:51:31.000Z</time>
      </trkpt>
      <trkpt lat="47.4752" lon="6.78725">
        <ele>359</ele>
        <time>2016-05-29T07:51:32.000Z</time>
      </trkpt>
      <trkpt lat="47.47519" lon="6.7872">
        <ele>359</ele>
        <time>2016-05-29T07:51:49.000Z</time>
      </trkpt>
      <trkpt lat="47.47519" lon="6.78718">
        <ele>359</ele>
        <time>2016-05-29T07:51:50.000Z</time>
      </trkpt>
      <trkpt lat="47.47517" lon="6.78712">
        <ele>359</ele>
        <time>2016-05-29T07:51:54.000Z</time>
      </trkpt>
      <trkpt lat="47.47517" lon="6.78711">
        <ele>359</ele>
        <time>2016-05-29T07:51:55.000Z</time>
      </trkpt>
      <trkpt lat="47.47517" lon="6.78705">
        <ele>360</ele>
        <time>2016-05-29T07:52:01.000Z</time>
      </trkpt>
      <trkpt lat="47.47517" lon="6.78703">
        <ele>360</ele>
        <time>2016-05-29T07:52:02.000Z</time>
      </trkpt>
      <trkpt lat="47.47514" lon="6.787">
        <ele>360</ele>
        <time>2016-05-29T07:52:04.000Z</time>
      </trkpt>
      <trkpt lat="47.47512" lon="6.78699">
        <ele>360</ele>
        <time>2016-05-29T07:52:05.000Z</time>
      </trkpt>
      <trkpt lat="47.47508" lon="6.78696">
        <ele>360</ele>
        <time>2016-05-29T07:52:07.000Z</time>
      </trkpt>
      <trkpt lat="47.47506" lon="6.78694">
        <ele>360</ele>
        <time>2016-05-29T07:52:08.000Z</time>
      </trkpt>
      <trkpt lat="47.47504" lon="6.78692">
        <ele>360</ele>
        <time>2016-05-29T07:52:10.000Z</time>
      </trkpt>
      <trkpt lat="47.47502" lon="6.7869">
        <ele>360</ele>
        <time>2016-05-29T07:52:11.000Z</time>
      </trkpt>
      <trkpt lat="47.47499" lon="6.78687">
        <ele>362</ele>
        <time>2016-05-29T07:52:13.000Z</time>
      </trkpt>
      <trkpt lat="47.47498" lon="6.78685">
        <ele>362</ele>
        <time>2016-05-29T07:52:14.000Z</time>
      </trkpt>
      <trkpt lat="47.47496" lon="6.78683">
        <ele>362</ele>
        <time>2016-05-29T07:52:15.000Z</time>
      </trkpt>
      <trkpt lat="47.47494" lon="6.7868">
        <ele>362</ele>
        <time>2016-05-29T07:52:16.000Z</time>
      </trkpt>
      <trkpt lat="47.47491" lon="6.78675">
        <ele>362</ele>
        <time>2016-05-29T07:52:18.000Z</time>
      </trkpt>
      <trkpt lat="47.4749" lon="6.78673">
        <ele>362</ele>
        <time>2016-05-29T07:52:19.000Z</time>
      </trkpt>
      <trkpt lat="47.47489" lon="6.78667">
        <ele>362</ele>
        <time>2016-05-29T07:52:21.000Z</time>
      </trkpt>
      <trkpt lat="47.47488" lon="6.78664">
        <ele>362</ele>
        <time>2016-05-29T07:52:22.000Z</time>
      </trkpt>
      <trkpt lat="47.47487" lon="6.78659">
        <ele>362</ele>
        <time>2016-05-29T07:52:24.000Z</time>
      </trkpt>
      <trkpt lat="47.47486" lon="6.78657">
        <ele>362</ele>
        <time>2016-05-29T07:52:25.000Z</time>
      </trkpt>
      <trkpt lat="47.47483" lon="6.78653">
        <ele>363</ele>
        <time>2016-05-29T07:52:27.000Z</time>
      </trkpt>
      <trkpt lat="47.47482" lon="6.78651">
        <ele>363</ele>
        <time>2016-05-29T07:52:28.000Z</time>
      </trkpt>
      <trkpt lat="47.47478" lon="6.78648">
        <ele>363</ele>
        <time>2016-05-29T07:52:30.000Z</time>
      </trkpt>
      <trkpt lat="47.47477" lon="6.78647">
        <ele>363</ele>
        <time>2016-05-29T07:52:31.000Z</time>
      </trkpt>
      <trkpt lat="47.47473" lon="6.78644">
        <ele>363</ele>
        <time>2016-05-29T07:52:33.000Z</time>
      </trkpt>
      <trkpt lat="47.47472" lon="6.78643">
        <ele>363</ele>
        <time>2016-05-29T07:52:34.000Z</time>
      </trkpt>
      <trkpt lat="47.47469" lon="6.78639">
        <ele>363</ele>
        <time>2016-05-29T07:52:36.000Z</time>
      </trkpt>
      <trkpt lat="47.47467" lon="6.78637">
        <ele>363</ele>
        <time>2016-05-29T07:52:37.000Z</time>
      </trkpt>
      <trkpt lat="47.47465" lon="6.78632">
        <ele>364</ele>
        <time>2016-05-29T07:52:39.000Z</time>
      </trkpt>
      <trkpt lat="47.47463" lon="6.78629">
        <ele>364</ele>
        <time>2016-05-29T07:52:40.000Z</time>
      </trkpt>
      <trkpt lat="47.47462" lon="6.78626">
        <ele>364</ele>
        <time>2016-05-29T07:52:41.000Z</time>
      </trkpt>
      <trkpt lat="47.4746" lon="6.78622">
        <ele>364</ele>
        <time>2016-05-29T07:52:42.000Z</time>
      </trkpt>
      <trkpt lat="47.47458" lon="6.78618">
        <ele>364</ele>
        <time>2016-05-29T07:52:43.000Z</time>
      </trkpt>
      <trkpt lat="47.47456" lon="6.78613">
        <ele>364</ele>
        <time>2016-05-29T07:52:44.000Z</time>
      </trkpt>
      <trkpt lat="47.47453" lon="6.7861">
        <ele>364</ele>
        <time>2016-05-29T07:52:45.000Z</time>
      </trkpt>
      <trkpt lat="47.47449" lon="6.78608">
        <ele>364</ele>
        <time>2016-05-29T07:52:46.000Z</time>
      </trkpt>
      <trkpt lat="47.47444" lon="6.78607">
        <ele>364</ele>
        <time>2016-05-29T07:52:47.000Z</time>
      </trkpt>
      <trkpt lat="47.4744" lon="6.78605">
        <ele>364</ele>
        <time>2016-05-29T07:52:48.000Z</time>
      </trkpt>
      <trkpt lat="47.47436" lon="6.78605">
        <ele>364</ele>
        <time>2016-05-29T07:52:49.000Z</time>
      </trkpt>
      <trkpt lat="47.47433" lon="6.78604">
        <ele>365</ele>
        <time>2016-05-29T07:52:50.000Z</time>
      </trkpt>
      <trkpt lat="47.47431" lon="6.78604">
        <ele>365</ele>
        <time>2016-05-29T07:52:51.000Z</time>
      </trkpt>
      <trkpt lat="47.47419" lon="6.78616">
        <ele>365</ele>
        <time>2016-05-29T07:52:52.000Z</time>
      </trkpt>
      <trkpt lat="47.47416" lon="6.7862">
        <ele>366</ele>
        <time>2016-05-29T07:52:53.000Z</time>
      </trkpt>
      <trkpt lat="47.47413" lon="6.78624">
        <ele>366</ele>
        <time>2016-05-29T07:52:54.000Z</time>
      </trkpt>
      <trkpt lat="47.47411" lon="6.78622">
        <ele>366</ele>
        <time>2016-05-29T07:52:55.000Z</time>
      </trkpt>
      <trkpt lat="47.47408" lon="6.78622">
        <ele>366</ele>
        <time>2016-05-29T07:52:56.000Z</time>
      </trkpt>
      <trkpt lat="47.47404" lon="6.78629">
        <ele>367</ele>
        <time>2016-05-29T07:52:57.000Z</time>
      </trkpt>
      <trkpt lat="47.47401" lon="6.7863">
        <ele>367</ele>
        <time>2016-05-29T07:52:58.000Z</time>
      </trkpt>
      <trkpt lat="47.474" lon="6.78632">
        <ele>367</ele>
        <time>2016-05-29T07:52:59.000Z</time>
      </trkpt>
      <trkpt lat="47.47396" lon="6.78632">
        <ele>367</ele>
        <time>2016-05-29T07:53:01.000Z</time>
      </trkpt>
      <trkpt lat="47.47394" lon="6.78632">
        <ele>367</ele>
        <time>2016-05-29T07:53:02.000Z</time>
      </trkpt>
      <trkpt lat="47.4739" lon="6.78631">
        <ele>367</ele>
        <time>2016-05-29T07:53:04.000Z</time>
      </trkpt>
      <trkpt lat="47.47388" lon="6.7863">
        <ele>367</ele>
        <time>2016-05-29T07:53:05.000Z</time>
      </trkpt>
      <trkpt lat="47.47385" lon="6.78629">
        <ele>367</ele>
        <time>2016-05-29T07:53:06.000Z</time>
      </trkpt>
      <trkpt lat="47.47383" lon="6.78627">
        <ele>367</ele>
        <time>2016-05-29T07:53:07.000Z</time>
      </trkpt>
      <trkpt lat="47.47381" lon="6.78626">
        <ele>367</ele>
        <time>2016-05-29T07:53:08.000Z</time>
      </trkpt>
      <trkpt lat="47.47378" lon="6.78625">
        <ele>366</ele>
        <time>2016-05-29T07:53:09.000Z</time>
      </trkpt>
      <trkpt lat="47.47376" lon="6.78624">
        <ele>366</ele>
        <time>2016-05-29T07:53:10.000Z</time>
      </trkpt>
      <trkpt lat="47.47374" lon="6.78623">
        <ele>366</ele>
        <time>2016-05-29T07:53:11.000Z</time>
      </trkpt>
      <trkpt lat="47.47371" lon="6.7862">
        <ele>366</ele>
        <time>2016-05-29T07:53:12.000Z</time>
      </trkpt>
      <trkpt lat="47.47369" lon="6.78618">
        <ele>366</ele>
        <time>2016-05-29T07:53:13.000Z</time>
      </trkpt>
      <trkpt lat="47.47367" lon="6.78615">
        <ele>366</ele>
        <time>2016-05-29T07:53:14.000Z</time>
      </trkpt>
      <trkpt lat="47.47365" lon="6.78612">
        <ele>366</ele>
        <time>2016-05-29T07:53:15.000Z</time>
      </trkpt>
      <trkpt lat="47.47364" lon="6.78609">
        <ele>366</ele>
        <time>2016-05-29T07:53:16.000Z</time>
      </trkpt>
      <trkpt lat="47.47362" lon="6.78607">
        <ele>366</ele>
        <time>2016-05-29T07:53:17.000Z</time>
      </trkpt>
      <trkpt lat="47.47361" lon="6.78604">
        <ele>366</ele>
        <time>2016-05-29T07:53:18.000Z</time>
      </trkpt>
      <trkpt lat="47.47359" lon="6.78601">
        <ele>366</ele>
        <time>2016-05-29T07:53:19.000Z</time>
      </trkpt>
      <trkpt lat="47.47357" lon="6.78597">
        <ele>366</ele>
        <time>2016-05-29T07:53:20.000Z</time>
      </trkpt>
      <trkpt lat="47.47355" lon="6.78594">
        <ele>366</ele>
        <time>2016-05-29T07:53:21.000Z</time>
      </trkpt>
      <trkpt lat="47.47352" lon="6.78589">
        <ele>366</ele>
        <time>2016-05-29T07:53:23.000Z</time>
      </trkpt>
      <trkpt lat="47.47352" lon="6.78587">
        <ele>366</ele>
        <time>2016-05-29T07:53:24.000Z</time>
      </trkpt>
      <trkpt lat="47.47349" lon="6.78584">
        <ele>366</ele>
        <time>2016-05-29T07:53:26.000Z</time>
      </trkpt>
      <trkpt lat="47.47347" lon="6.78583">
        <ele>365</ele>
        <time>2016-05-29T07:53:27.000Z</time>
      </trkpt>
      <trkpt lat="47.47345" lon="6.78581">
        <ele>366</ele>
        <time>2016-05-29T07:53:28.000Z</time>
      </trkpt>
      <trkpt lat="47.47343" lon="6.78579">
        <ele>366</ele>
        <time>2016-05-29T07:53:29.000Z</time>
      </trkpt>
      <trkpt lat="47.47341" lon="6.78578">
        <ele>366</ele>
        <time>2016-05-29T07:53:30.000Z</time>
      </trkpt>
      <trkpt lat="47.47338" lon="6.78577">
        <ele>366</ele>
        <time>2016-05-29T07:53:31.000Z</time>
      </trkpt>
      <trkpt lat="47.47335" lon="6.78575">
        <ele>366</ele>
        <time>2016-05-29T07:53:32.000Z</time>
      </trkpt>
      <trkpt lat="47.47333" lon="6.78574">
        <ele>365</ele>
        <time>2016-05-29T07:53:33.000Z</time>
      </trkpt>
      <trkpt lat="47.4733" lon="6.78571">
        <ele>365</ele>
        <time>2016-05-29T07:53:34.000Z</time>
      </trkpt>
      <trkpt lat="47.47328" lon="6.78568">
        <ele>365</ele>
        <time>2016-05-29T07:53:35.000Z</time>
      </trkpt>
      <trkpt lat="47.47326" lon="6.78565">
        <ele>365</ele>
        <time>2016-05-29T07:53:36.000Z</time>
      </trkpt>
      <trkpt lat="47.47325" lon="6.78561">
        <ele>365</ele>
        <time>2016-05-29T07:53:37.000Z</time>
      </trkpt>
      <trkpt lat="47.47323" lon="6.78558">
        <ele>364</ele>
        <time>2016-05-29T07:53:38.000Z</time>
      </trkpt>
      <trkpt lat="47.47321" lon="6.78556">
        <ele>364</ele>
        <time>2016-05-29T07:53:39.000Z</time>
      </trkpt>
      <trkpt lat="47.47319" lon="6.78553">
        <ele>364</ele>
        <time>2016-05-29T07:53:40.000Z</time>
      </trkpt>
      <trkpt lat="47.47316" lon="6.78551">
        <ele>364</ele>
        <time>2016-05-29T07:53:41.000Z</time>
      </trkpt>
      <trkpt lat="47.47314" lon="6.78548">
        <ele>364</ele>
        <time>2016-05-29T07:53:42.000Z</time>
      </trkpt>
      <trkpt lat="47.47312" lon="6.78546">
        <ele>364</ele>
        <time>2016-05-29T07:53:43.000Z</time>
      </trkpt>
      <trkpt lat="47.47309" lon="6.78544">
        <ele>364</ele>
        <time>2016-05-29T07:53:44.000Z</time>
      </trkpt>
      <trkpt lat="47.47306" lon="6.78542">
        <ele>364</ele>
        <time>2016-05-29T07:53:45.000Z</time>
      </trkpt>
      <trkpt lat="47.47304" lon="6.78541">
        <ele>364</ele>
        <time>2016-05-29T07:53:46.000Z</time>
      </trkpt>
      <trkpt lat="47.47302" lon="6.78541">
        <ele>364</ele>
        <time>2016-05-29T07:53:47.000Z</time>
      </trkpt>
      <trkpt lat="47.47299" lon="6.78539">
        <ele>364</ele>
        <time>2016-05-29T07:53:48.000Z</time>
      </trkpt>
      <trkpt lat="47.47297" lon="6.78537">
        <ele>364</ele>
        <time>2016-05-29T07:53:49.000Z</time>
      </trkpt>
      <trkpt lat="47.47295" lon="6.78535">
        <ele>364</ele>
        <time>2016-05-29T07:53:50.000Z</time>
      </trkpt>
      <trkpt lat="47.47293" lon="6.78532">
        <ele>364</ele>
        <time>2016-05-29T07:53:51.000Z</time>
      </trkpt>
      <trkpt lat="47.4729" lon="6.7853">
        <ele>364</ele>
        <time>2016-05-29T07:53:52.000Z</time>
      </trkpt>
      <trkpt lat="47.47288" lon="6.78528">
        <ele>364</ele>
        <time>2016-05-29T07:53:53.000Z</time>
      </trkpt>
      <trkpt lat="47.47285" lon="6.78526">
        <ele>363</ele>
        <time>2016-05-29T07:53:54.000Z</time>
      </trkpt>
      <trkpt lat="47.47282" lon="6.78524">
        <ele>363</ele>
        <time>2016-05-29T07:53:55.000Z</time>
      </trkpt>
      <trkpt lat="47.47279" lon="6.78522">
        <ele>363</ele>
        <time>2016-05-29T07:53:56.000Z</time>
      </trkpt>
      <trkpt lat="47.47276" lon="6.78521">
        <ele>363</ele>
        <time>2016-05-29T07:53:57.000Z</time>
      </trkpt>
      <trkpt lat="47.47273" lon="6.78519">
        <ele>363</ele>
        <time>2016-05-29T07:53:58.000Z</time>
      </trkpt>
      <trkpt lat="47.47272" lon="6.78518">
        <ele>363</ele>
        <time>2016-05-29T07:53:59.000Z</time>
      </trkpt>
      <trkpt lat="47.47268" lon="6.78514">
        <ele>363</ele>
        <time>2016-05-29T07:54:01.000Z</time>
      </trkpt>
      <trkpt lat="47.47267" lon="6.78511">
        <ele>363</ele>
        <time>2016-05-29T07:54:02.000Z</time>
      </trkpt>
      <trkpt lat="47.47265" lon="6.78508">
        <ele>363</ele>
        <time>2016-05-29T07:54:03.000Z</time>
      </trkpt>
      <trkpt lat="47.47264" lon="6.78504">
        <ele>363</ele>
        <time>2016-05-29T07:54:04.000Z</time>
      </trkpt>
      <trkpt lat="47.47262" lon="6.78501">
        <ele>363</ele>
        <time>2016-05-29T07:54:05.000Z</time>
      </trkpt>
      <trkpt lat="47.47261" lon="6.78499">
        <ele>362</ele>
        <time>2016-05-29T07:54:06.000Z</time>
      </trkpt>
      <trkpt lat="47.47259" lon="6.78497">
        <ele>362</ele>
        <time>2016-05-29T07:54:07.000Z</time>
      </trkpt>
      <trkpt lat="47.47257" lon="6.78495">
        <ele>362</ele>
        <time>2016-05-29T07:54:08.000Z</time>
      </trkpt>
      <trkpt lat="47.47255" lon="6.78493">
        <ele>362</ele>
        <time>2016-05-29T07:54:09.000Z</time>
      </trkpt>
      <trkpt lat="47.47253" lon="6.7849">
        <ele>362</ele>
        <time>2016-05-29T07:54:10.000Z</time>
      </trkpt>
      <trkpt lat="47.47252" lon="6.78487">
        <ele>362</ele>
        <time>2016-05-29T07:54:11.000Z</time>
      </trkpt>
      <trkpt lat="47.4725" lon="6.78485">
        <ele>362</ele>
        <time>2016-05-29T07:54:12.000Z</time>
      </trkpt>
      <trkpt lat="47.47248" lon="6.78481">
        <ele>361</ele>
        <time>2016-05-29T07:54:14.000Z</time>
      </trkpt>
      <trkpt lat="47.47246" lon="6.78479">
        <ele>361</ele>
        <time>2016-05-29T07:54:15.000Z</time>
      </trkpt>
      <trkpt lat="47.47243" lon="6.78478">
        <ele>361</ele>
        <time>2016-05-29T07:54:16.000Z</time>
      </trkpt>
      <trkpt lat="47.4724" lon="6.78476">
        <ele>361</ele>
        <time>2016-05-29T07:54:17.000Z</time>
      </trkpt>
      <trkpt lat="47.47237" lon="6.78474">
        <ele>361</ele>
        <time>2016-05-29T07:54:18.000Z</time>
      </trkpt>
      <trkpt lat="47.47234" lon="6.78473">
        <ele>361</ele>
        <time>2016-05-29T07:54:19.000Z</time>
      </trkpt>
      <trkpt lat="47.47231" lon="6.78471">
        <ele>360</ele>
        <time>2016-05-29T07:54:20.000Z</time>
      </trkpt>
      <trkpt lat="47.47228" lon="6.78469">
        <ele>360</ele>
        <time>2016-05-29T07:54:21.000Z</time>
      </trkpt>
      <trkpt lat="47.47226" lon="6.78467">
        <ele>360</ele>
        <time>2016-05-29T07:54:22.000Z</time>
      </trkpt>
      <trkpt lat="47.47223" lon="6.78464">
        <ele>360</ele>
        <time>2016-05-29T07:54:23.000Z</time>
      </trkpt>
      <trkpt lat="47.4722" lon="6.78461">
        <ele>360</ele>
        <time>2016-05-29T07:54:24.000Z</time>
      </trkpt>
      <trkpt lat="47.47217" lon="6.78459">
        <ele>360</ele>
        <time>2016-05-29T07:54:25.000Z</time>
      </trkpt>
      <trkpt lat="47.47214" lon="6.78458">
        <ele>360</ele>
        <time>2016-05-29T07:54:26.000Z</time>
      </trkpt>
      <trkpt lat="47.47211" lon="6.78456">
        <ele>360</ele>
        <time>2016-05-29T07:54:27.000Z</time>
      </trkpt>
      <trkpt lat="47.47207" lon="6.78455">
        <ele>360</ele>
        <time>2016-05-29T07:54:28.000Z</time>
      </trkpt>
      <trkpt lat="47.47204" lon="6.78453">
        <ele>360</ele>
        <time>2016-05-29T07:54:29.000Z</time>
      </trkpt>
      <trkpt lat="47.472" lon="6.78451">
        <ele>360</ele>
        <time>2016-05-29T07:54:30.000Z</time>
      </trkpt>
      <trkpt lat="47.47197" lon="6.7845">
        <ele>360</ele>
        <time>2016-05-29T07:54:31.000Z</time>
      </trkpt>
      <trkpt lat="47.47194" lon="6.78449">
        <ele>360</ele>
        <time>2016-05-29T07:54:32.000Z</time>
      </trkpt>
      <trkpt lat="47.4719" lon="6.78449">
        <ele>360</ele>
        <time>2016-05-29T07:54:33.000Z</time>
      </trkpt>
      <trkpt lat="47.47187" lon="6.78449">
        <ele>360</ele>
        <time>2016-05-29T07:54:34.000Z</time>
      </trkpt>
      <trkpt lat="47.47184" lon="6.78448">
        <ele>360</ele>
        <time>2016-05-29T07:54:35.000Z</time>
      </trkpt>
      <trkpt lat="47.47181" lon="6.78447">
        <ele>360</ele>
        <time>2016-05-29T07:54:36.000Z</time>
      </trkpt>
      <trkpt lat="47.47178" lon="6.78446">
        <ele>359</ele>
        <time>2016-05-29T07:54:37.000Z</time>
      </trkpt>
      <trkpt lat="47.47175" lon="6.78444">
        <ele>359</ele>
        <time>2016-05-29T07:54:38.000Z</time>
      </trkpt>
      <trkpt lat="47.47173" lon="6.78442">
        <ele>359</ele>
        <time>2016-05-29T07:54:39.000Z</time>
      </trkpt>
      <trkpt lat="47.4717" lon="6.7844">
        <ele>359</ele>
        <time>2016-05-29T07:54:40.000Z</time>
      </trkpt>
      <trkpt lat="47.47168" lon="6.78439">
        <ele>359</ele>
        <time>2016-05-29T07:54:41.000Z</time>
      </trkpt>
      <trkpt lat="47.47165" lon="6.78438">
        <ele>358</ele>
        <time>2016-05-29T07:54:42.000Z</time>
      </trkpt>
      <trkpt lat="47.47162" lon="6.78438">
        <ele>358</ele>
        <time>2016-05-29T07:54:43.000Z</time>
      </trkpt>
      <trkpt lat="47.4716" lon="6.78439">
        <ele>358</ele>
        <time>2016-05-29T07:54:44.000Z</time>
      </trkpt>
      <trkpt lat="47.47157" lon="6.78441">
        <ele>358</ele>
        <time>2016-05-29T07:54:45.000Z</time>
      </trkpt>
      <trkpt lat="47.47155" lon="6.78445">
        <ele>358</ele>
        <time>2016-05-29T07:54:46.000Z</time>
      </trkpt>
      <trkpt lat="47.47153" lon="6.78448">
        <ele>358</ele>
        <time>2016-05-29T07:54:47.000Z</time>
      </trkpt>
      <trkpt lat="47.4715" lon="6.78452">
        <ele>358</ele>
        <time>2016-05-29T07:54:49.000Z</time>
      </trkpt>
      <trkpt lat="47.47148" lon="6.78452">
        <ele>358</ele>
        <time>2016-05-29T07:54:50.000Z</time>
      </trkpt>
      <trkpt lat="47.47144" lon="6.78452">
        <ele>358</ele>
        <time>2016-05-29T07:54:53.000Z</time>
      </trkpt>
      <trkpt lat="47.47142" lon="6.78453">
        <ele>358</ele>
        <time>2016-05-29T07:54:54.000Z</time>
      </trkpt>
      <trkpt lat="47.47139" lon="6.78455">
        <ele>358</ele>
        <time>2016-05-29T07:54:56.000Z</time>
      </trkpt>
      <trkpt lat="47.47137" lon="6.78456">
        <ele>358</ele>
        <time>2016-05-29T07:54:57.000Z</time>
      </trkpt>
      <trkpt lat="47.47133" lon="6.78459">
        <ele>358</ele>
        <time>2016-05-29T07:54:59.000Z</time>
      </trkpt>
      <trkpt lat="47.47131" lon="6.78461">
        <ele>358</ele>
        <time>2016-05-29T07:55:00.000Z</time>
      </trkpt>
      <trkpt lat="47.47129" lon="6.78462">
        <ele>358</ele>
        <time>2016-05-29T07:55:01.000Z</time>
      </trkpt>
      <trkpt lat="47.47127" lon="6.78463">
        <ele>358</ele>
        <time>2016-05-29T07:55:02.000Z</time>
      </trkpt>
      <trkpt lat="47.47124" lon="6.78465">
        <ele>358</ele>
        <time>2016-05-29T07:55:03.000Z</time>
      </trkpt>
      <trkpt lat="47.47122" lon="6.78466">
        <ele>358</ele>
        <time>2016-05-29T07:55:04.000Z</time>
      </trkpt>
      <trkpt lat="47.47119" lon="6.78467">
        <ele>358</ele>
        <time>2016-05-29T07:55:05.000Z</time>
      </trkpt>
      <trkpt lat="47.47117" lon="6.78469">
        <ele>358</ele>
        <time>2016-05-29T07:55:06.000Z</time>
      </trkpt>
      <trkpt lat="47.47113" lon="6.78471">
        <ele>358</ele>
        <time>2016-05-29T07:55:07.000Z</time>
      </trkpt>
      <trkpt lat="47.47108" lon="6.78474">
        <ele>359</ele>
        <time>2016-05-29T07:55:08.000Z</time>
      </trkpt>
      <trkpt lat="47.47104" lon="6.78477">
        <ele>359</ele>
        <time>2016-05-29T07:55:09.000Z</time>
      </trkpt>
      <trkpt lat="47.471" lon="6.78478">
        <ele>359</ele>
        <time>2016-05-29T07:55:10.000Z</time>
      </trkpt>
      <trkpt lat="47.47096" lon="6.78481">
        <ele>359</ele>
        <time>2016-05-29T07:55:11.000Z</time>
      </trkpt>
      <trkpt lat="47.47092" lon="6.78483">
        <ele>359</ele>
        <time>2016-05-29T07:55:12.000Z</time>
      </trkpt>
      <trkpt lat="47.47089" lon="6.78486">
        <ele>359</ele>
        <time>2016-05-29T07:55:13.000Z</time>
      </trkpt>
      <trkpt lat="47.47084" lon="6.78488">
        <ele>359</ele>
        <time>2016-05-29T07:55:14.000Z</time>
      </trkpt>
      <trkpt lat="47.4708" lon="6.78492">
        <ele>359</ele>
        <time>2016-05-29T07:55:15.000Z</time>
      </trkpt>
      <trkpt lat="47.47075" lon="6.78495">
        <ele>359</ele>
        <time>2016-05-29T07:55:16.000Z</time>
      </trkpt>
      <trkpt lat="47.4707" lon="6.78499">
        <ele>358</ele>
        <time>2016-05-29T07:55:17.000Z</time>
      </trkpt>
      <trkpt lat="47.47066" lon="6.78502">
        <ele>361</ele>
        <time>2016-05-29T07:55:18.000Z</time>
      </trkpt>
      <trkpt lat="47.47062" lon="6.78504">
        <ele>361</ele>
        <time>2016-05-29T07:55:19.000Z</time>
      </trkpt>
      <trkpt lat="47.47059" lon="6.78507">
        <ele>361</ele>
        <time>2016-05-29T07:55:20.000Z</time>
      </trkpt>
      <trkpt lat="47.47057" lon="6.78508">
        <ele>361</ele>
        <time>2016-05-29T07:55:20.998Z</time>
      </trkpt>
      <trkpt lat="47.47053" lon="6.78511">
        <ele>361</ele>
        <time>2016-05-29T07:55:22.000Z</time>
      </trkpt>
      <trkpt lat="47.4705" lon="6.78512">
        <ele>361</ele>
        <time>2016-05-29T07:55:23.000Z</time>
      </trkpt>
      <trkpt lat="47.47048" lon="6.78514">
        <ele>361</ele>
        <time>2016-05-29T07:55:24.000Z</time>
      </trkpt>
      <trkpt lat="47.47045" lon="6.78515">
        <ele>361</ele>
        <time>2016-05-29T07:55:25.000Z</time>
      </trkpt>
      <trkpt lat="47.47043" lon="6.78516">
        <ele>361</ele>
        <time>2016-05-29T07:55:26.000Z</time>
      </trkpt>
      <trkpt lat="47.4704" lon="6.78516">
        <ele>361</ele>
        <time>2016-05-29T07:55:27.000Z</time>
      </trkpt>
      <trkpt lat="47.47037" lon="6.78517">
        <ele>361</ele>
        <time>2016-05-29T07:55:28.000Z</time>
      </trkpt>
      <trkpt lat="47.47035" lon="6.78518">
        <ele>361</ele>
        <time>2016-05-29T07:55:29.000Z</time>
      </trkpt>
      <trkpt lat="47.47032" lon="6.78519">
        <ele>361</ele>
        <time>2016-05-29T07:55:30.000Z</time>
      </trkpt>
      <trkpt lat="47.47029" lon="6.7852">
        <ele>361</ele>
        <time>2016-05-29T07:55:31.000Z</time>
      </trkpt>
      <trkpt lat="47.47025" lon="6.78521">
        <ele>361</ele>
        <time>2016-05-29T07:55:32.000Z</time>
      </trkpt>
      <trkpt lat="47.47022" lon="6.78522">
        <ele>361</ele>
        <time>2016-05-29T07:55:33.000Z</time>
      </trkpt>
      <trkpt lat="47.47019" lon="6.78523">
        <ele>361</ele>
        <time>2016-05-29T07:55:34.000Z</time>
      </trkpt>
      <trkpt lat="47.47015" lon="6.78525">
        <ele>361</ele>
        <time>2016-05-29T07:55:35.000Z</time>
      </trkpt>
      <trkpt lat="47.47002" lon="6.78537">
        <ele>361</ele>
        <time>2016-05-29T07:55:36.000Z</time>
      </trkpt>
      <trkpt lat="47.46997" lon="6.7854">
        <ele>356</ele>
        <time>2016-05-29T07:55:37.000Z</time>
      </trkpt>
      <trkpt lat="47.46992" lon="6.78544">
        <ele>356</ele>
        <time>2016-05-29T07:55:38.000Z</time>
      </trkpt>
      <trkpt lat="47.46988" lon="6.78547">
        <ele>356</ele>
        <time>2016-05-29T07:55:39.000Z</time>
      </trkpt>
      <trkpt lat="47.46985" lon="6.78549">
        <ele>356</ele>
        <time>2016-05-29T07:55:40.000Z</time>
      </trkpt>
      <trkpt lat="47.46981" lon="6.78551">
        <ele>356</ele>
        <time>2016-05-29T07:55:41.000Z</time>
      </trkpt>
      <trkpt lat="47.46975" lon="6.78556">
        <ele>355</ele>
        <time>2016-05-29T07:55:42.000Z</time>
      </trkpt>
      <trkpt lat="47.46971" lon="6.78555">
        <ele>355</ele>
        <time>2016-05-29T07:55:43.000Z</time>
      </trkpt>
      <trkpt lat="47.46966" lon="6.78558">
        <ele>355</ele>
        <time>2016-05-29T07:55:44.000Z</time>
      </trkpt>
      <trkpt lat="47.46961" lon="6.78564">
        <ele>354</ele>
        <time>2016-05-29T07:55:45.000Z</time>
      </trkpt>
      <trkpt lat="47.46957" lon="6.78567">
        <ele>354</ele>
        <time>2016-05-29T07:55:46.000Z</time>
      </trkpt>
      <trkpt lat="47.46954" lon="6.78571">
        <ele>354</ele>
        <time>2016-05-29T07:55:47.000Z</time>
      </trkpt>
      <trkpt lat="47.46951" lon="6.78574">
        <ele>353</ele>
        <time>2016-05-29T07:55:48.000Z</time>
      </trkpt>
      <trkpt lat="47.46948" lon="6.78576">
        <ele>353</ele>
        <time>2016-05-29T07:55:49.000Z</time>
      </trkpt>
      <trkpt lat="47.46945" lon="6.78577">
        <ele>352</ele>
        <time>2016-05-29T07:55:50.000Z</time>
      </trkpt>
      <trkpt lat="47.46942" lon="6.78578">
        <ele>352</ele>
        <time>2016-05-29T07:55:51.000Z</time>
      </trkpt>
      <trkpt lat="47.4694" lon="6.78578">
        <ele>352</ele>
        <time>2016-05-29T07:55:52.000Z</time>
      </trkpt>
      <trkpt lat="47.46937" lon="6.78579">
        <ele>352</ele>
        <time>2016-05-29T07:55:53.000Z</time>
      </trkpt>
      <trkpt lat="47.46934" lon="6.7858">
        <ele>351</ele>
        <time>2016-05-29T07:55:54.000Z</time>
      </trkpt>
      <trkpt lat="47.46931" lon="6.78579">
        <ele>351</ele>
        <time>2016-05-29T07:55:55.000Z</time>
      </trkpt>
      <trkpt lat="47.46929" lon="6.78577">
        <ele>350</ele>
        <time>2016-05-29T07:55:56.000Z</time>
      </trkpt>
      <trkpt lat="47.46927" lon="6.78576">
        <ele>350</ele>
        <time>2016-05-29T07:55:57.000Z</time>
      </trkpt>
      <trkpt lat="47.46923" lon="6.78575">
        <ele>350</ele>
        <time>2016-05-29T07:56:01.000Z</time>
      </trkpt>
      <trkpt lat="47.46922" lon="6.78574">
        <ele>350</ele>
        <time>2016-05-29T07:56:02.000Z</time>
      </trkpt>
      <trkpt lat="47.46918" lon="6.78573">
        <ele>350</ele>
        <time>2016-05-29T07:56:04.000Z</time>
      </trkpt>
      <trkpt lat="47.46916" lon="6.78573">
        <ele>350</ele>
        <time>2016-05-29T07:56:05.000Z</time>
      </trkpt>
      <trkpt lat="47.46912" lon="6.78574">
        <ele>350</ele>
        <time>2016-05-29T07:56:06.000Z</time>
      </trkpt>
      <trkpt lat="47.46908" lon="6.78574">
        <ele>350</ele>
        <time>2016-05-29T07:56:07.000Z</time>
      </trkpt>
      <trkpt lat="47.46905" lon="6.78573">
        <ele>351</ele>
        <time>2016-05-29T07:56:08.000Z</time>
      </trkpt>
      <trkpt lat="47.46902" lon="6.78572">
        <ele>351</ele>
        <time>2016-05-29T07:56:09.000Z</time>
      </trkpt>
      <trkpt lat="47.46899" lon="6.78571">
        <ele>351</ele>
        <time>2016-05-29T07:56:10.000Z</time>
      </trkpt>
      <trkpt lat="47.46897" lon="6.7857">
        <ele>352</ele>
        <time>2016-05-29T07:56:11.000Z</time>
      </trkpt>
      <trkpt lat="47.46895" lon="6.7857">
        <ele>352</ele>
        <time>2016-05-29T07:56:12.000Z</time>
      </trkpt>
      <trkpt lat="47.46893" lon="6.7857">
        <ele>352</ele>
        <time>2016-05-29T07:56:13.000Z</time>
      </trkpt>
      <trkpt lat="47.46888" lon="6.7857">
        <ele>353</ele>
        <time>2016-05-29T07:56:15.000Z</time>
      </trkpt>
      <trkpt lat="47.46886" lon="6.7857">
        <ele>353</ele>
        <time>2016-05-29T07:56:16.000Z</time>
      </trkpt>
      <trkpt lat="47.46882" lon="6.78567">
        <ele>353</ele>
        <time>2016-05-29T07:56:18.000Z</time>
      </trkpt>
      <trkpt lat="47.4688" lon="6.78564">
        <ele>354</ele>
        <time>2016-05-29T07:56:19.000Z</time>
      </trkpt>
      <trkpt lat="47.46879" lon="6.7856">
        <ele>354</ele>
        <time>2016-05-29T07:56:20.000Z</time>
      </trkpt>
      <trkpt lat="47.46878" lon="6.78556">
        <ele>354</ele>
        <time>2016-05-29T07:56:21.000Z</time>
      </trkpt>
      <trkpt lat="47.46877" lon="6.78552">
        <ele>354</ele>
        <time>2016-05-29T07:56:22.000Z</time>
      </trkpt>
      <trkpt lat="47.46876" lon="6.78548">
        <ele>354</ele>
        <time>2016-05-29T07:56:23.000Z</time>
      </trkpt>
      <trkpt lat="47.46873" lon="6.78547">
        <ele>354</ele>
        <time>2016-05-29T07:56:25.000Z</time>
      </trkpt>
      <trkpt lat="47.46871" lon="6.78547">
        <ele>354</ele>
        <time>2016-05-29T07:56:26.000Z</time>
      </trkpt>
      <trkpt lat="47.46869" lon="6.78543">
        <ele>354</ele>
        <time>2016-05-29T07:56:28.000Z</time>
      </trkpt>
      <trkpt lat="47.46869" lon="6.7854">
        <ele>354</ele>
        <time>2016-05-29T07:56:29.000Z</time>
      </trkpt>
      <trkpt lat="47.46867" lon="6.78535">
        <ele>355</ele>
        <time>2016-05-29T07:56:31.000Z</time>
      </trkpt>
      <trkpt lat="47.46866" lon="6.78534">
        <ele>355</ele>
        <time>2016-05-29T07:56:32.000Z</time>
      </trkpt>
      <trkpt lat="47.46862" lon="6.78536">
        <ele>355</ele>
        <time>2016-05-29T07:56:36.000Z</time>
      </trkpt>
      <trkpt lat="47.46862" lon="6.78538">
        <ele>355</ele>
        <time>2016-05-29T07:56:37.000Z</time>
      </trkpt>
      <trkpt lat="47.46859" lon="6.78541">
        <ele>355</ele>
        <time>2016-05-29T07:56:41.000Z</time>
      </trkpt>
      <trkpt lat="47.46858" lon="6.78542">
        <ele>355</ele>
        <time>2016-05-29T07:56:42.000Z</time>
      </trkpt>
      <trkpt lat="47.46855" lon="6.78545">
        <ele>355</ele>
        <time>2016-05-29T07:56:44.000Z</time>
      </trkpt>
      <trkpt lat="47.46853" lon="6.78546">
        <ele>356</ele>
        <time>2016-05-29T07:56:45.000Z</time>
      </trkpt>
      <trkpt lat="47.4685" lon="6.7855">
        <ele>356</ele>
        <time>2016-05-29T07:56:47.000Z</time>
      </trkpt>
      <trkpt lat="47.46849" lon="6.78555">
        <ele>356</ele>
        <time>2016-05-29T07:56:48.000Z</time>
      </trkpt>
      <trkpt lat="47.46847" lon="6.7856">
        <ele>356</ele>
        <time>2016-05-29T07:56:51.000Z</time>
      </trkpt>
      <trkpt lat="47.46846" lon="6.78561">
        <ele>356</ele>
        <time>2016-05-29T07:56:52.000Z</time>
      </trkpt>
      <trkpt lat="47.46842" lon="6.78561">
        <ele>357</ele>
        <time>2016-05-29T07:56:55.000Z</time>
      </trkpt>
      <trkpt lat="47.46841" lon="6.78561">
        <ele>357</ele>
        <time>2016-05-29T07:56:56.000Z</time>
      </trkpt>
      <trkpt lat="47.46839" lon="6.78562">
        <ele>357</ele>
        <time>2016-05-29T07:56:57.000Z</time>
      </trkpt>
      <trkpt lat="47.46837" lon="6.78564">
        <ele>357</ele>
        <time>2016-05-29T07:56:58.000Z</time>
      </trkpt>
      <trkpt lat="47.46835" lon="6.78566">
        <ele>357</ele>
        <time>2016-05-29T07:56:59.000Z</time>
      </trkpt>
      <trkpt lat="47.46833" lon="6.78568">
        <ele>363</ele>
        <time>2016-05-29T07:57:00.000Z</time>
      </trkpt>
      <trkpt lat="47.46829" lon="6.78571">
        <ele>363</ele>
        <time>2016-05-29T07:57:02.000Z</time>
      </trkpt>
      <trkpt lat="47.46827" lon="6.78572">
        <ele>363</ele>
        <time>2016-05-29T07:57:03.000Z</time>
      </trkpt>
      <trkpt lat="47.46825" lon="6.78574">
        <ele>363</ele>
        <time>2016-05-29T07:57:04.000Z</time>
      </trkpt>
      <trkpt lat="47.46823" lon="6.78576">
        <ele>363</ele>
        <time>2016-05-29T07:57:05.000Z</time>
      </trkpt>
      <trkpt lat="47.46821" lon="6.78579">
        <ele>363</ele>
        <time>2016-05-29T07:57:06.000Z</time>
      </trkpt>
      <trkpt lat="47.46819" lon="6.78581">
        <ele>363</ele>
        <time>2016-05-29T07:57:07.000Z</time>
      </trkpt>
      <trkpt lat="47.46816" lon="6.78583">
        <ele>364</ele>
        <time>2016-05-29T07:57:09.000Z</time>
      </trkpt>
      <trkpt lat="47.46814" lon="6.78584">
        <ele>364</ele>
        <time>2016-05-29T07:57:10.000Z</time>
      </trkpt>
      <trkpt lat="47.46812" lon="6.78588">
        <ele>365</ele>
        <time>2016-05-29T07:57:13.000Z</time>
      </trkpt>
      <trkpt lat="47.46811" lon="6.7859">
        <ele>365</ele>
        <time>2016-05-29T07:57:14.000Z</time>
      </trkpt>
      <trkpt lat="47.4681" lon="6.78593">
        <ele>365</ele>
        <time>2016-05-29T07:57:16.000Z</time>
      </trkpt>
      <trkpt lat="47.46808" lon="6.78595">
        <ele>365</ele>
        <time>2016-05-29T07:57:17.000Z</time>
      </trkpt>
      <trkpt lat="47.46806" lon="6.78598">
        <ele>366</ele>
        <time>2016-05-29T07:57:18.000Z</time>
      </trkpt>
      <trkpt lat="47.46804" lon="6.786">
        <ele>366</ele>
        <time>2016-05-29T07:57:19.000Z</time>
      </trkpt>
      <trkpt lat="47.46802" lon="6.78603">
        <ele>366</ele>
        <time>2016-05-29T07:57:20.000Z</time>
      </trkpt>
      <trkpt lat="47.468" lon="6.78605">
        <ele>366</ele>
        <time>2016-05-29T07:57:21.000Z</time>
      </trkpt>
      <trkpt lat="47.46797" lon="6.78609">
        <ele>367</ele>
        <time>2016-05-29T07:57:24.000Z</time>
      </trkpt>
      <trkpt lat="47.46796" lon="6.78611">
        <ele>367</ele>
        <time>2016-05-29T07:57:25.000Z</time>
      </trkpt>
      <trkpt lat="47.46795" lon="6.78615">
        <ele>367</ele>
        <time>2016-05-29T07:57:27.000Z</time>
      </trkpt>
      <trkpt lat="47.46794" lon="6.78617">
        <ele>367</ele>
        <time>2016-05-29T07:57:28.000Z</time>
      </trkpt>
      <trkpt lat="47.4679" lon="6.7862">
        <ele>367</ele>
        <time>2016-05-29T07:57:30.000Z</time>
      </trkpt>
      <trkpt lat="47.46789" lon="6.78622">
        <ele>367</ele>
        <time>2016-05-29T07:57:31.000Z</time>
      </trkpt>
      <trkpt lat="47.46786" lon="6.78626">
        <ele>368</ele>
        <time>2016-05-29T07:57:33.000Z</time>
      </trkpt>
      <trkpt lat="47.46785" lon="6.78627">
        <ele>368</ele>
        <time>2016-05-29T07:57:34.000Z</time>
      </trkpt>
      <trkpt lat="47.46783" lon="6.78632">
        <ele>368</ele>
        <time>2016-05-29T07:57:37.000Z</time>
      </trkpt>
      <trkpt lat="47.46782" lon="6.78632">
        <ele>368</ele>
        <time>2016-05-29T07:57:38.000Z</time>
      </trkpt>
      <trkpt lat="47.46777" lon="6.78633">
        <ele>368</ele>
        <time>2016-05-29T07:57:41.000Z</time>
      </trkpt>
      <trkpt lat="47.46775" lon="6.78633">
        <ele>368</ele>
        <time>2016-05-29T07:57:42.000Z</time>
      </trkpt>
      <trkpt lat="47.46772" lon="6.78634">
        <ele>369</ele>
        <time>2016-05-29T07:57:43.000Z</time>
      </trkpt>
      <trkpt lat="47.4677" lon="6.78636">
        <ele>369</ele>
        <time>2016-05-29T07:57:44.000Z</time>
      </trkpt>
      <trkpt lat="47.46768" lon="6.78638">
        <ele>369</ele>
        <time>2016-05-29T07:57:45.000Z</time>
      </trkpt>
      <trkpt lat="47.46765" lon="6.78639">
        <ele>369</ele>
        <time>2016-05-29T07:57:46.000Z</time>
      </trkpt>
      <trkpt lat="47.46761" lon="6.78642">
        <ele>369</ele>
        <time>2016-05-29T07:57:48.000Z</time>
      </trkpt>
      <trkpt lat="47.4676" lon="6.78644">
        <ele>369</ele>
        <time>2016-05-29T07:57:49.000Z</time>
      </trkpt>
      <trkpt lat="47.46757" lon="6.78647">
        <ele>370</ele>
        <time>2016-05-29T07:57:51.000Z</time>
      </trkpt>
      <trkpt lat="47.46755" lon="6.78648">
        <ele>370</ele>
        <time>2016-05-29T07:57:52.000Z</time>
      </trkpt>
      <trkpt lat="47.46752" lon="6.78653">
        <ele>370</ele>
        <time>2016-05-29T07:57:55.000Z</time>
      </trkpt>
      <trkpt lat="47.46752" lon="6.78655">
        <ele>370</ele>
        <time>2016-05-29T07:57:56.000Z</time>
      </trkpt>
      <trkpt lat="47.46751" lon="6.78659">
        <ele>371</ele>
        <time>2016-05-29T07:57:58.000Z</time>
      </trkpt>
      <trkpt lat="47.4675" lon="6.78662">
        <ele>371</ele>
        <time>2016-05-29T07:57:59.000Z</time>
      </trkpt>
      <trkpt lat="47.46747" lon="6.78666">
        <ele>373</ele>
        <time>2016-05-29T07:58:03.000Z</time>
      </trkpt>
      <trkpt lat="47.46746" lon="6.78667">
        <ele>372</ele>
        <time>2016-05-29T07:58:04.000Z</time>
      </trkpt>
      <trkpt lat="47.46744" lon="6.78671">
        <ele>373</ele>
        <time>2016-05-29T07:58:07.000Z</time>
      </trkpt>
      <trkpt lat="47.46742" lon="6.78672">
        <ele>373</ele>
        <time>2016-05-29T07:58:08.000Z</time>
      </trkpt>
      <trkpt lat="47.46739" lon="6.78674">
        <ele>373</ele>
        <time>2016-05-29T07:58:10.000Z</time>
      </trkpt>
      <trkpt lat="47.46737" lon="6.78675">
        <ele>373</ele>
        <time>2016-05-29T07:58:11.000Z</time>
      </trkpt>
      <trkpt lat="47.46733" lon="6.78677">
        <ele>373</ele>
        <time>2016-05-29T07:58:13.000Z</time>
      </trkpt>
      <trkpt lat="47.46731" lon="6.78678">
        <ele>373</ele>
        <time>2016-05-29T07:58:14.000Z</time>
      </trkpt>
      <trkpt lat="47.46727" lon="6.78681">
        <ele>374</ele>
        <time>2016-05-29T07:58:16.000Z</time>
      </trkpt>
      <trkpt lat="47.46727" lon="6.78685">
        <ele>374</ele>
        <time>2016-05-29T07:58:17.000Z</time>
      </trkpt>
      <trkpt lat="47.46726" lon="6.7869">
        <ele>374</ele>
        <time>2016-05-29T07:58:19.000Z</time>
      </trkpt>
      <trkpt lat="47.46725" lon="6.78691">
        <ele>374</ele>
        <time>2016-05-29T07:58:20.000Z</time>
      </trkpt>
      <trkpt lat="47.46721" lon="6.78693">
        <ele>374</ele>
        <time>2016-05-29T07:58:23.000Z</time>
      </trkpt>
      <trkpt lat="47.4672" lon="6.78693">
        <ele>374</ele>
        <time>2016-05-29T07:58:24.000Z</time>
      </trkpt>
      <trkpt lat="47.46717" lon="6.78693">
        <ele>374</ele>
        <time>2016-05-29T07:58:33.000Z</time>
      </trkpt>
      <trkpt lat="47.46715" lon="6.78693">
        <ele>374</ele>
        <time>2016-05-29T07:58:34.000Z</time>
      </trkpt>
      <trkpt lat="47.46711" lon="6.78692">
        <ele>374</ele>
        <time>2016-05-29T07:58:37.000Z</time>
      </trkpt>
      <trkpt lat="47.4671" lon="6.78691">
        <ele>374</ele>
        <time>2016-05-29T07:58:38.000Z</time>
      </trkpt>
      <trkpt lat="47.46706" lon="6.78689">
        <ele>375</ele>
        <time>2016-05-29T07:58:42.000Z</time>
      </trkpt>
      <trkpt lat="47.46704" lon="6.78689">
        <ele>375</ele>
        <time>2016-05-29T07:58:43.000Z</time>
      </trkpt>
      <trkpt lat="47.467" lon="6.7869">
        <ele>375</ele>
        <time>2016-05-29T07:58:46.000Z</time>
      </trkpt>
      <trkpt lat="47.46699" lon="6.78691">
        <ele>375</ele>
        <time>2016-05-29T07:58:47.000Z</time>
      </trkpt>
      <trkpt lat="47.46695" lon="6.78691">
        <ele>375</ele>
        <time>2016-05-29T07:58:50.000Z</time>
      </trkpt>
      <trkpt lat="47.46694" lon="6.78692">
        <ele>375</ele>
        <time>2016-05-29T07:58:51.000Z</time>
      </trkpt>
      <trkpt lat="47.4669" lon="6.78691">
        <ele>376</ele>
        <time>2016-05-29T07:58:53.000Z</time>
      </trkpt>
      <trkpt lat="47.46689" lon="6.78691">
        <ele>376</ele>
        <time>2016-05-29T07:58:54.000Z</time>
      </trkpt>
      <trkpt lat="47.46684" lon="6.78692">
        <ele>376</ele>
        <time>2016-05-29T07:58:57.000Z</time>
      </trkpt>
      <trkpt lat="47.46683" lon="6.78692">
        <ele>376</ele>
        <time>2016-05-29T07:58:58.000Z</time>
      </trkpt>
      <trkpt lat="47.46679" lon="6.78694">
        <ele>376</ele>
        <time>2016-05-29T07:59:02.000Z</time>
      </trkpt>
      <trkpt lat="47.46678" lon="6.78694">
        <ele>376</ele>
        <time>2016-05-29T07:59:03.000Z</time>
      </trkpt>
      <trkpt lat="47.46674" lon="6.78692">
        <ele>377</ele>
        <time>2016-05-29T07:59:06.000Z</time>
      </trkpt>
      <trkpt lat="47.46673" lon="6.7869">
        <ele>377</ele>
        <time>2016-05-29T07:59:07.000Z</time>
      </trkpt>
      <trkpt lat="47.4667" lon="6.78687">
        <ele>377</ele>
        <time>2016-05-29T07:59:09.000Z</time>
      </trkpt>
      <trkpt lat="47.46668" lon="6.78685">
        <ele>378</ele>
        <time>2016-05-29T07:59:10.000Z</time>
      </trkpt>
      <trkpt lat="47.46665" lon="6.78681">
        <ele>381</ele>
        <time>2016-05-29T07:59:12.000Z</time>
      </trkpt>
      <trkpt lat="47.46663" lon="6.78681">
        <ele>381</ele>
        <time>2016-05-29T07:59:13.000Z</time>
      </trkpt>
      <trkpt lat="47.46659" lon="6.7868">
        <ele>381</ele>
        <time>2016-05-29T07:59:17.000Z</time>
      </trkpt>
      <trkpt lat="47.46658" lon="6.7868">
        <ele>381</ele>
        <time>2016-05-29T07:59:18.000Z</time>
      </trkpt>
      <trkpt lat="47.46655" lon="6.78681">
        <ele>381</ele>
        <time>2016-05-29T07:59:20.000Z</time>
      </trkpt>
      <trkpt lat="47.46653" lon="6.78681">
        <ele>381</ele>
        <time>2016-05-29T07:59:21.000Z</time>
      </trkpt>
      <trkpt lat="47.46651" lon="6.78681">
        <ele>381</ele>
        <time>2016-05-29T07:59:22.998Z</time>
      </trkpt>
      <trkpt lat="47.46649" lon="6.7868">
        <ele>381</ele>
        <time>2016-05-29T07:59:24.000Z</time>
      </trkpt>
      <trkpt lat="47.46645" lon="6.78679">
        <ele>381</ele>
        <time>2016-05-29T07:59:26.000Z</time>
      </trkpt>
      <trkpt lat="47.46644" lon="6.78679">
        <ele>381</ele>
        <time>2016-05-29T07:59:27.000Z</time>
      </trkpt>
      <trkpt lat="47.4664" lon="6.78678">
        <ele>382</ele>
        <time>2016-05-29T07:59:29.000Z</time>
      </trkpt>
      <trkpt lat="47.46639" lon="6.78678">
        <ele>382</ele>
        <time>2016-05-29T07:59:30.000Z</time>
      </trkpt>
      <trkpt lat="47.46635" lon="6.78679">
        <ele>382</ele>
        <time>2016-05-29T07:59:32.000Z</time>
      </trkpt>
      <trkpt lat="47.46634" lon="6.78679">
        <ele>382</ele>
        <time>2016-05-29T07:59:33.000Z</time>
      </trkpt>
      <trkpt lat="47.46629" lon="6.78678">
        <ele>382</ele>
        <time>2016-05-29T07:59:36.000Z</time>
      </trkpt>
      <trkpt lat="47.46628" lon="6.78678">
        <ele>382</ele>
        <time>2016-05-29T07:59:37.000Z</time>
      </trkpt>
      <trkpt lat="47.46624" lon="6.78678">
        <ele>382</ele>
        <time>2016-05-29T07:59:40.000Z</time>
      </trkpt>
      <trkpt lat="47.46622" lon="6.78679">
        <ele>382</ele>
        <time>2016-05-29T07:59:41.000Z</time>
      </trkpt>
      <trkpt lat="47.46619" lon="6.78681">
        <ele>382</ele>
        <time>2016-05-29T07:59:43.000Z</time>
      </trkpt>
      <trkpt lat="47.46618" lon="6.78681">
        <ele>382</ele>
        <time>2016-05-29T07:59:44.000Z</time>
      </trkpt>
      <trkpt lat="47.46613" lon="6.78682">
        <ele>383</ele>
        <time>2016-05-29T07:59:47.000Z</time>
      </trkpt>
      <trkpt lat="47.46613" lon="6.78682">
        <ele>383</ele>
        <time>2016-05-29T07:59:48.000Z</time>
      </trkpt>
      <trkpt lat="47.46609" lon="6.7868">
        <ele>383</ele>
        <time>2016-05-29T07:59:53.000Z</time>
      </trkpt>
      <trkpt lat="47.46608" lon="6.78679">
        <ele>383</ele>
        <time>2016-05-29T07:59:54.000Z</time>
      </trkpt>
      <trkpt lat="47.46604" lon="6.7868">
        <ele>383</ele>
        <time>2016-05-29T07:59:57.000Z</time>
      </trkpt>
      <trkpt lat="47.46603" lon="6.78681">
        <ele>383</ele>
        <time>2016-05-29T07:59:58.000Z</time>
      </trkpt>
      <trkpt lat="47.466" lon="6.78683">
        <ele>383</ele>
        <time>2016-05-29T08:00:00.000Z</time>
      </trkpt>
      <trkpt lat="47.46599" lon="6.78684">
        <ele>383</ele>
        <time>2016-05-29T08:00:01.000Z</time>
      </trkpt>
      <trkpt lat="47.46595" lon="6.78687">
        <ele>383</ele>
        <time>2016-05-29T08:00:04.000Z</time>
      </trkpt>
      <trkpt lat="47.46593" lon="6.78688">
        <ele>383</ele>
        <time>2016-05-29T08:00:05.000Z</time>
      </trkpt>
      <trkpt lat="47.46589" lon="6.7869">
        <ele>383</ele>
        <time>2016-05-29T08:00:07.000Z</time>
      </trkpt>
      <trkpt lat="47.46588" lon="6.78691">
        <ele>383</ele>
        <time>2016-05-29T08:00:08.000Z</time>
      </trkpt>
      <trkpt lat="47.46584" lon="6.7869">
        <ele>383</ele>
        <time>2016-05-29T08:00:10.000Z</time>
      </trkpt>
      <trkpt lat="47.46583" lon="6.78688">
        <ele>390</ele>
        <time>2016-05-29T08:00:11.000Z</time>
      </trkpt>
      <trkpt lat="47.4658" lon="6.78683">
        <ele>389</ele>
        <time>2016-05-29T08:00:13.000Z</time>
      </trkpt>
      <trkpt lat="47.46578" lon="6.78682">
        <ele>389</ele>
        <time>2016-05-29T08:00:14.000Z</time>
      </trkpt>
      <trkpt lat="47.46574" lon="6.78682">
        <ele>390</ele>
        <time>2016-05-29T08:00:16.000Z</time>
      </trkpt>
      <trkpt lat="47.46571" lon="6.78682">
        <ele>390</ele>
        <time>2016-05-29T08:00:17.000Z</time>
      </trkpt>
      <trkpt lat="47.46567" lon="6.78682">
        <ele>390</ele>
        <time>2016-05-29T08:00:19.000Z</time>
      </trkpt>
      <trkpt lat="47.46566" lon="6.78681">
        <ele>391</ele>
        <time>2016-05-29T08:00:20.000Z</time>
      </trkpt>
      <trkpt lat="47.46563" lon="6.78686">
        <ele>391</ele>
        <time>2016-05-29T08:00:42.000Z</time>
      </trkpt>
      <trkpt lat="47.46563" lon="6.78686">
        <ele>391</ele>
        <time>2016-05-29T08:00:43.000Z</time>
      </trkpt>
      <trkpt lat="47.46563" lon="6.78682">
        <ele>391</ele>
        <time>2016-05-29T08:01:31.000Z</time>
      </trkpt>
      <trkpt lat="47.46564" lon="6.78679">
        <ele>391</ele>
        <time>2016-05-29T08:01:32.000Z</time>
      </trkpt>
      <trkpt lat="47.46564" lon="6.78675">
        <ele>390</ele>
        <time>2016-05-29T08:01:34.000Z</time>
      </trkpt>
      <trkpt lat="47.46565" lon="6.78672">
        <ele>390</ele>
        <time>2016-05-29T08:01:35.000Z</time>
      </trkpt>
      <trkpt lat="47.46566" lon="6.78669">
        <ele>390</ele>
        <time>2016-05-29T08:01:36.000Z</time>
      </trkpt>
      <trkpt lat="47.46567" lon="6.78666">
        <ele>391</ele>
        <time>2016-05-29T08:01:37.000Z</time>
      </trkpt>
      <trkpt lat="47.46569" lon="6.78659">
        <ele>391</ele>
        <time>2016-05-29T08:01:39.000Z</time>
      </trkpt>
      <trkpt lat="47.46569" lon="6.78656">
        <ele>391</ele>
        <time>2016-05-29T08:01:40.000Z</time>
      </trkpt>
      <trkpt lat="47.46569" lon="6.78653">
        <ele>391</ele>
        <time>2016-05-29T08:01:41.000Z</time>
      </trkpt>
      <trkpt lat="47.46569" lon="6.78649">
        <ele>392</ele>
        <time>2016-05-29T08:01:42.000Z</time>
      </trkpt>
      <trkpt lat="47.46569" lon="6.78644">
        <ele>392</ele>
        <time>2016-05-29T08:01:43.000Z</time>
      </trkpt>
      <trkpt lat="47.4657" lon="6.7864">
        <ele>392</ele>
        <time>2016-05-29T08:01:44.000Z</time>
      </trkpt>
      <trkpt lat="47.4657" lon="6.78635">
        <ele>393</ele>
        <time>2016-05-29T08:01:45.000Z</time>
      </trkpt>
      <trkpt lat="47.4657" lon="6.7863">
        <ele>393</ele>
        <time>2016-05-29T08:01:46.000Z</time>
      </trkpt>
      <trkpt lat="47.4657" lon="6.78625">
        <ele>393</ele>
        <time>2016-05-29T08:01:47.000Z</time>
      </trkpt>
      <trkpt lat="47.4657" lon="6.78619">
        <ele>393</ele>
        <time>2016-05-29T08:01:48.000Z</time>
      </trkpt>
      <trkpt lat="47.4657" lon="6.78614">
        <ele>393</ele>
        <time>2016-05-29T08:01:49.000Z</time>
      </trkpt>
      <trkpt lat="47.4657" lon="6.78609">
        <ele>393</ele>
        <time>2016-05-29T08:01:50.000Z</time>
      </trkpt>
      <trkpt lat="47.46569" lon="6.78605">
        <ele>393</ele>
        <time>2016-05-29T08:01:51.000Z</time>
      </trkpt>
      <trkpt lat="47.46568" lon="6.786">
        <ele>393</ele>
        <time>2016-05-29T08:01:52.000Z</time>
      </trkpt>
      <trkpt lat="47.46567" lon="6.78596">
        <ele>393</ele>
        <time>2016-05-29T08:01:53.000Z</time>
      </trkpt>
      <trkpt lat="47.46566" lon="6.78592">
        <ele>393</ele>
        <time>2016-05-29T08:01:54.000Z</time>
      </trkpt>
      <trkpt lat="47.46566" lon="6.78588">
        <ele>393</ele>
        <time>2016-05-29T08:01:55.000Z</time>
      </trkpt>
      <trkpt lat="47.46565" lon="6.78584">
        <ele>393</ele>
        <time>2016-05-29T08:01:56.000Z</time>
      </trkpt>
      <trkpt lat="47.46565" lon="6.78579">
        <ele>392</ele>
        <time>2016-05-29T08:01:57.000Z</time>
      </trkpt>
      <trkpt lat="47.46564" lon="6.78574">
        <ele>392</ele>
        <time>2016-05-29T08:01:58.000Z</time>
      </trkpt>
      <trkpt lat="47.46564" lon="6.7857">
        <ele>392</ele>
        <time>2016-05-29T08:01:59.000Z</time>
      </trkpt>
      <trkpt lat="47.46563" lon="6.78565">
        <ele>393</ele>
        <time>2016-05-29T08:02:00.000Z</time>
      </trkpt>
      <trkpt lat="47.46563" lon="6.7856">
        <ele>393</ele>
        <time>2016-05-29T08:02:01.000Z</time>
      </trkpt>
      <trkpt lat="47.46568" lon="6.78553">
        <ele>392</ele>
        <time>2016-05-29T08:02:02.000Z</time>
      </trkpt>
      <trkpt lat="47.46569" lon="6.78547">
        <ele>392</ele>
        <time>2016-05-29T08:02:03.000Z</time>
      </trkpt>
      <trkpt lat="47.4657" lon="6.78542">
        <ele>392</ele>
        <time>2016-05-29T08:02:04.000Z</time>
      </trkpt>
      <trkpt lat="47.46571" lon="6.78539">
        <ele>392</ele>
        <time>2016-05-29T08:02:05.000Z</time>
      </trkpt>
      <trkpt lat="47.46571" lon="6.78533">
        <ele>392</ele>
        <time>2016-05-29T08:02:06.000Z</time>
      </trkpt>
      <trkpt lat="47.4657" lon="6.78527">
        <ele>392</ele>
        <time>2016-05-29T08:02:07.000Z</time>
      </trkpt>
      <trkpt lat="47.46571" lon="6.78521">
        <ele>391</ele>
        <time>2016-05-29T08:02:08.000Z</time>
      </trkpt>
      <trkpt lat="47.4657" lon="6.78514">
        <ele>391</ele>
        <time>2016-05-29T08:02:09.000Z</time>
      </trkpt>
      <trkpt lat="47.46571" lon="6.78509">
        <ele>390</ele>
        <time>2016-05-29T08:02:10.000Z</time>
      </trkpt>
      <trkpt lat="47.46568" lon="6.78504">
        <ele>390</ele>
        <time>2016-05-29T08:02:11.000Z</time>
      </trkpt>
      <trkpt lat="47.46568" lon="6.78498">
        <ele>389</ele>
        <time>2016-05-29T08:02:12.000Z</time>
      </trkpt>
      <trkpt lat="47.46568" lon="6.78492">
        <ele>389</ele>
        <time>2016-05-29T08:02:13.000Z</time>
      </trkpt>
      <trkpt lat="47.46568" lon="6.78486">
        <ele>390</ele>
        <time>2016-05-29T08:02:14.000Z</time>
      </trkpt>
      <trkpt lat="47.46565" lon="6.78479">
        <ele>390</ele>
        <time>2016-05-29T08:02:15.000Z</time>
      </trkpt>
      <trkpt lat="47.46565" lon="6.78471">
        <ele>390</ele>
        <time>2016-05-29T08:02:16.000Z</time>
      </trkpt>
      <trkpt lat="47.46565" lon="6.78463">
        <ele>390</ele>
        <time>2016-05-29T08:02:17.000Z</time>
      </trkpt>
      <trkpt lat="47.46564" lon="6.78454">
        <ele>390</ele>
        <time>2016-05-29T08:02:18.000Z</time>
      </trkpt>
      <trkpt lat="47.46564" lon="6.78446">
        <ele>390</ele>
        <time>2016-05-29T08:02:19.000Z</time>
      </trkpt>
      <trkpt lat="47.46564" lon="6.78434">
        <ele>390</ele>
        <time>2016-05-29T08:02:20.000Z</time>
      </trkpt>
      <trkpt lat="47.46562" lon="6.78421">
        <ele>389</ele>
        <time>2016-05-29T08:02:21.000Z</time>
      </trkpt>
      <trkpt lat="47.46561" lon="6.78411">
        <ele>387</ele>
        <time>2016-05-29T08:02:22.000Z</time>
      </trkpt>
      <trkpt lat="47.46556" lon="6.78404">
        <ele>387</ele>
        <time>2016-05-29T08:02:23.000Z</time>
      </trkpt>
      <trkpt lat="47.46551" lon="6.78397">
        <ele>388</ele>
        <time>2016-05-29T08:02:24.000Z</time>
      </trkpt>
      <trkpt lat="47.46546" lon="6.78399">
        <ele>388</ele>
        <time>2016-05-29T08:02:25.000Z</time>
      </trkpt>
      <trkpt lat="47.46543" lon="6.78394">
        <ele>388</ele>
        <time>2016-05-29T08:02:26.000Z</time>
      </trkpt>
      <trkpt lat="47.4654" lon="6.7839">
        <ele>388</ele>
        <time>2016-05-29T08:02:27.000Z</time>
      </trkpt>
      <trkpt lat="47.46537" lon="6.78387">
        <ele>388</ele>
        <time>2016-05-29T08:02:28.000Z</time>
      </trkpt>
      <trkpt lat="47.46531" lon="6.78384">
        <ele>388</ele>
        <time>2016-05-29T08:02:29.000Z</time>
      </trkpt>
      <trkpt lat="47.46528" lon="6.7838">
        <ele>388</ele>
        <time>2016-05-29T08:02:30.000Z</time>
      </trkpt>
      <trkpt lat="47.46524" lon="6.78377">
        <ele>388</ele>
        <time>2016-05-29T08:02:31.000Z</time>
      </trkpt>
      <trkpt lat="47.46518" lon="6.78372">
        <ele>388</ele>
        <time>2016-05-29T08:02:32.000Z</time>
      </trkpt>
      <trkpt lat="47.46514" lon="6.78368">
        <ele>388</ele>
        <time>2016-05-29T08:02:33.000Z</time>
      </trkpt>
      <trkpt lat="47.4651" lon="6.78364">
        <ele>388</ele>
        <time>2016-05-29T08:02:34.000Z</time>
      </trkpt>
      <trkpt lat="47.46506" lon="6.78359">
        <ele>388</ele>
        <time>2016-05-29T08:02:35.000Z</time>
      </trkpt>
      <trkpt lat="47.46503" lon="6.78355">
        <ele>388</ele>
        <time>2016-05-29T08:02:36.000Z</time>
      </trkpt>
      <trkpt lat="47.46501" lon="6.78351">
        <ele>387</ele>
        <time>2016-05-29T08:02:37.000Z</time>
      </trkpt>
      <trkpt lat="47.465" lon="6.78348">
        <ele>390</ele>
        <time>2016-05-29T08:02:38.000Z</time>
      </trkpt>
      <trkpt lat="47.46497" lon="6.78344">
        <ele>389</ele>
        <time>2016-05-29T08:02:38.999Z</time>
      </trkpt>
      <trkpt lat="47.46496" lon="6.78339">
        <ele>388</ele>
        <time>2016-05-29T08:02:40.000Z</time>
      </trkpt>
      <trkpt lat="47.46494" lon="6.78335">
        <ele>388</ele>
        <time>2016-05-29T08:02:41.001Z</time>
      </trkpt>
      <trkpt lat="47.46492" lon="6.78332">
        <ele>386</ele>
        <time>2016-05-29T08:02:43.000Z</time>
      </trkpt>
      <trkpt lat="47.46491" lon="6.78329">
        <ele>386</ele>
        <time>2016-05-29T08:02:44.000Z</time>
      </trkpt>
      <trkpt lat="47.46488" lon="6.78324">
        <ele>385</ele>
        <time>2016-05-29T08:02:45.000Z</time>
      </trkpt>
      <trkpt lat="47.46486" lon="6.7832">
        <ele>385</ele>
        <time>2016-05-29T08:02:46.000Z</time>
      </trkpt>
      <trkpt lat="47.46484" lon="6.78317">
        <ele>385</ele>
        <time>2016-05-29T08:02:47.000Z</time>
      </trkpt>
      <trkpt lat="47.46482" lon="6.78314">
        <ele>384</ele>
        <time>2016-05-29T08:02:48.000Z</time>
      </trkpt>
      <trkpt lat="47.4648" lon="6.78311">
        <ele>384</ele>
        <time>2016-05-29T08:02:49.000Z</time>
      </trkpt>
      <trkpt lat="47.46478" lon="6.78309">
        <ele>384</ele>
        <time>2016-05-29T08:02:50.000Z</time>
      </trkpt>
      <trkpt lat="47.46476" lon="6.78308">
        <ele>384</ele>
        <time>2016-05-29T08:02:51.000Z</time>
      </trkpt>
      <trkpt lat="47.46473" lon="6.78307">
        <ele>384</ele>
        <time>2016-05-29T08:02:52.000Z</time>
      </trkpt>
      <trkpt lat="47.4647" lon="6.78307">
        <ele>384</ele>
        <time>2016-05-29T08:02:53.000Z</time>
      </trkpt>
      <trkpt lat="47.46468" lon="6.78306">
        <ele>384</ele>
        <time>2016-05-29T08:02:54.000Z</time>
      </trkpt>
      <trkpt lat="47.46464" lon="6.78306">
        <ele>384</ele>
        <time>2016-05-29T08:02:56.000Z</time>
      </trkpt>
      <trkpt lat="47.46461" lon="6.78309">
        <ele>384</ele>
        <time>2016-05-29T08:02:57.000Z</time>
      </trkpt>
      <trkpt lat="47.46457" lon="6.78312">
        <ele>384</ele>
        <time>2016-05-29T08:02:58.000Z</time>
      </trkpt>
      <trkpt lat="47.46453" lon="6.78316">
        <ele>384</ele>
        <time>2016-05-29T08:02:59.000Z</time>
      </trkpt>
      <trkpt lat="47.46449" lon="6.7832">
        <ele>385</ele>
        <time>2016-05-29T08:03:00.000Z</time>
      </trkpt>
      <trkpt lat="47.46446" lon="6.78322">
        <ele>385</ele>
        <time>2016-05-29T08:03:01.000Z</time>
      </trkpt>
      <trkpt lat="47.46443" lon="6.78325">
        <ele>385</ele>
        <time>2016-05-29T08:03:02.000Z</time>
      </trkpt>
      <trkpt lat="47.4644" lon="6.78326">
        <ele>385</ele>
        <time>2016-05-29T08:03:03.000Z</time>
      </trkpt>
      <trkpt lat="47.46438" lon="6.78327">
        <ele>385</ele>
        <time>2016-05-29T08:03:04.000Z</time>
      </trkpt>
      <trkpt lat="47.46436" lon="6.78328">
        <ele>385</ele>
        <time>2016-05-29T08:03:05.000Z</time>
      </trkpt>
      <trkpt lat="47.46433" lon="6.7833">
        <ele>386</ele>
        <time>2016-05-29T08:03:06.000Z</time>
      </trkpt>
      <trkpt lat="47.46431" lon="6.78332">
        <ele>386</ele>
        <time>2016-05-29T08:03:07.000Z</time>
      </trkpt>
      <trkpt lat="47.46429" lon="6.78335">
        <ele>390</ele>
        <time>2016-05-29T08:03:08.000Z</time>
      </trkpt>
      <trkpt lat="47.46426" lon="6.78336">
        <ele>390</ele>
        <time>2016-05-29T08:03:09.000Z</time>
      </trkpt>
      <trkpt lat="47.46424" lon="6.78338">
        <ele>389</ele>
        <time>2016-05-29T08:03:10.000Z</time>
      </trkpt>
      <trkpt lat="47.4642" lon="6.7834">
        <ele>389</ele>
        <time>2016-05-29T08:03:12.000Z</time>
      </trkpt>
      <trkpt lat="47.46418" lon="6.78343">
        <ele>390</ele>
        <time>2016-05-29T08:03:13.000Z</time>
      </trkpt>
      <trkpt lat="47.46416" lon="6.78345">
        <ele>391</ele>
        <time>2016-05-29T08:03:14.000Z</time>
      </trkpt>
      <trkpt lat="47.46414" lon="6.78346">
        <ele>391</ele>
        <time>2016-05-29T08:03:15.000Z</time>
      </trkpt>
      <trkpt lat="47.4641" lon="6.78349">
        <ele>392</ele>
        <time>2016-05-29T08:03:17.000Z</time>
      </trkpt>
      <trkpt lat="47.46409" lon="6.78351">
        <ele>392</ele>
        <time>2016-05-29T08:03:18.000Z</time>
      </trkpt>
      <trkpt lat="47.46406" lon="6.78354">
        <ele>393</ele>
        <time>2016-05-29T08:03:20.000Z</time>
      </trkpt>
      <trkpt lat="47.46404" lon="6.78356">
        <ele>393</ele>
        <time>2016-05-29T08:03:21.000Z</time>
      </trkpt>
      <trkpt lat="47.46401" lon="6.78359">
        <ele>394</ele>
        <time>2016-05-29T08:03:24.000Z</time>
      </trkpt>
      <trkpt lat="47.464" lon="6.7836">
        <ele>394</ele>
        <time>2016-05-29T08:03:25.000Z</time>
      </trkpt>
      <trkpt lat="47.46397" lon="6.78365">
        <ele>394</ele>
        <time>2016-05-29T08:03:29.000Z</time>
      </trkpt>
      <trkpt lat="47.46396" lon="6.78366">
        <ele>394</ele>
        <time>2016-05-29T08:03:30.000Z</time>
      </trkpt>
      <trkpt lat="47.46392" lon="6.78368">
        <ele>395</ele>
        <time>2016-05-29T08:03:33.000Z</time>
      </trkpt>
      <trkpt lat="47.46392" lon="6.78369">
        <ele>395</ele>
        <time>2016-05-29T08:03:34.000Z</time>
      </trkpt>
      <trkpt lat="47.46389" lon="6.78372">
        <ele>395</ele>
        <time>2016-05-29T08:03:39.000Z</time>
      </trkpt>
      <trkpt lat="47.46388" lon="6.78373">
        <ele>395</ele>
        <time>2016-05-29T08:03:40.000Z</time>
      </trkpt>
      <trkpt lat="47.46386" lon="6.78377">
        <ele>396</ele>
        <time>2016-05-29T08:03:42.000Z</time>
      </trkpt>
      <trkpt lat="47.46385" lon="6.78379">
        <ele>396</ele>
        <time>2016-05-29T08:03:43.000Z</time>
      </trkpt>
      <trkpt lat="47.46384" lon="6.78383">
        <ele>396</ele>
        <time>2016-05-29T08:03:45.000Z</time>
      </trkpt>
      <trkpt lat="47.46383" lon="6.78386">
        <ele>396</ele>
        <time>2016-05-29T08:03:46.000Z</time>
      </trkpt>
      <trkpt lat="47.46383" lon="6.7839">
        <ele>396</ele>
        <time>2016-05-29T08:03:48.000Z</time>
      </trkpt>
      <trkpt lat="47.46382" lon="6.78393">
        <ele>397</ele>
        <time>2016-05-29T08:03:49.000Z</time>
      </trkpt>
      <trkpt lat="47.46381" lon="6.78397">
        <ele>397</ele>
        <time>2016-05-29T08:03:54.000Z</time>
      </trkpt>
      <trkpt lat="47.46381" lon="6.78399">
        <ele>397</ele>
        <time>2016-05-29T08:03:55.000Z</time>
      </trkpt>
      <trkpt lat="47.46377" lon="6.78402">
        <ele>397</ele>
        <time>2016-05-29T08:04:01.000Z</time>
      </trkpt>
      <trkpt lat="47.46376" lon="6.78401">
        <ele>397</ele>
        <time>2016-05-29T08:04:02.000Z</time>
      </trkpt>
      <trkpt lat="47.46372" lon="6.78398">
        <ele>397</ele>
        <time>2016-05-29T08:04:06.000Z</time>
      </trkpt>
      <trkpt lat="47.46371" lon="6.78399">
        <ele>397</ele>
        <time>2016-05-29T08:04:07.000Z</time>
      </trkpt>
      <trkpt lat="47.46368" lon="6.78399">
        <ele>397</ele>
        <time>2016-05-29T08:04:09.000Z</time>
      </trkpt>
      <trkpt lat="47.46365" lon="6.78398">
        <ele>397</ele>
        <time>2016-05-29T08:04:10.000Z</time>
      </trkpt>
      <trkpt lat="47.46363" lon="6.78397">
        <ele>397</ele>
        <time>2016-05-29T08:04:11.000Z</time>
      </trkpt>
      <trkpt lat="47.4636" lon="6.78397">
        <ele>397</ele>
        <time>2016-05-29T08:04:12.000Z</time>
      </trkpt>
      <trkpt lat="47.46356" lon="6.78397">
        <ele>397</ele>
        <time>2016-05-29T08:04:14.000Z</time>
      </trkpt>
      <trkpt lat="47.46354" lon="6.78397">
        <ele>397</ele>
        <time>2016-05-29T08:04:15.000Z</time>
      </trkpt>
      <trkpt lat="47.46351" lon="6.78397">
        <ele>397</ele>
        <time>2016-05-29T08:04:17.000Z</time>
      </trkpt>
      <trkpt lat="47.46349" lon="6.78397">
        <ele>397</ele>
        <time>2016-05-29T08:04:18.000Z</time>
      </trkpt>
      <trkpt lat="47.46346" lon="6.78399">
        <ele>398</ele>
        <time>2016-05-29T08:04:20.000Z</time>
      </trkpt>
      <trkpt lat="47.46344" lon="6.78401">
        <ele>398</ele>
        <time>2016-05-29T08:04:21.000Z</time>
      </trkpt>
      <trkpt lat="47.46342" lon="6.78403">
        <ele>398</ele>
        <time>2016-05-29T08:04:22.000Z</time>
      </trkpt>
      <trkpt lat="47.4634" lon="6.78404">
        <ele>398</ele>
        <time>2016-05-29T08:04:23.000Z</time>
      </trkpt>
      <trkpt lat="47.46337" lon="6.78406">
        <ele>398</ele>
        <time>2016-05-29T08:04:24.000Z</time>
      </trkpt>
      <trkpt lat="47.46335" lon="6.78407">
        <ele>399</ele>
        <time>2016-05-29T08:04:25.000Z</time>
      </trkpt>
      <trkpt lat="47.46331" lon="6.78408">
        <ele>400</ele>
        <time>2016-05-29T08:04:27.000Z</time>
      </trkpt>
      <trkpt lat="47.46329" lon="6.78408">
        <ele>400</ele>
        <time>2016-05-29T08:04:28.000Z</time>
      </trkpt>
      <trkpt lat="47.46326" lon="6.7841">
        <ele>400</ele>
        <time>2016-05-29T08:04:30.000Z</time>
      </trkpt>
      <trkpt lat="47.46325" lon="6.78411">
        <ele>400</ele>
        <time>2016-05-29T08:04:31.000Z</time>
      </trkpt>
      <trkpt lat="47.46322" lon="6.78413">
        <ele>400</ele>
        <time>2016-05-29T08:04:33.000Z</time>
      </trkpt>
      <trkpt lat="47.46321" lon="6.78413">
        <ele>400</ele>
        <time>2016-05-29T08:04:34.000Z</time>
      </trkpt>
      <trkpt lat="47.46316" lon="6.78414">
        <ele>400</ele>
        <time>2016-05-29T08:04:36.000Z</time>
      </trkpt>
      <trkpt lat="47.46314" lon="6.78414">
        <ele>400</ele>
        <time>2016-05-29T08:04:37.000Z</time>
      </trkpt>
      <trkpt lat="47.46311" lon="6.78415">
        <ele>400</ele>
        <time>2016-05-29T08:04:38.000Z</time>
      </trkpt>
      <trkpt lat="47.46309" lon="6.78415">
        <ele>400</ele>
        <time>2016-05-29T08:04:39.000Z</time>
      </trkpt>
      <trkpt lat="47.46306" lon="6.78416">
        <ele>400</ele>
        <time>2016-05-29T08:04:40.000Z</time>
      </trkpt>
      <trkpt lat="47.46302" lon="6.78418">
        <ele>402</ele>
        <time>2016-05-29T08:04:41.000Z</time>
      </trkpt>
      <trkpt lat="47.46298" lon="6.7842">
        <ele>402</ele>
        <time>2016-05-29T08:04:42.000Z</time>
      </trkpt>
      <trkpt lat="47.46294" lon="6.78422">
        <ele>402</ele>
        <time>2016-05-29T08:04:43.000Z</time>
      </trkpt>
      <trkpt lat="47.46291" lon="6.78424">
        <ele>402</ele>
        <time>2016-05-29T08:04:44.000Z</time>
      </trkpt>
      <trkpt lat="47.46287" lon="6.78426">
        <ele>402</ele>
        <time>2016-05-29T08:04:45.000Z</time>
      </trkpt>
      <trkpt lat="47.46285" lon="6.78428">
        <ele>403</ele>
        <time>2016-05-29T08:04:46.000Z</time>
      </trkpt>
      <trkpt lat="47.46282" lon="6.78428">
        <ele>403</ele>
        <time>2016-05-29T08:04:47.000Z</time>
      </trkpt>
      <trkpt lat="47.46279" lon="6.78429">
        <ele>403</ele>
        <time>2016-05-29T08:04:48.000Z</time>
      </trkpt>
      <trkpt lat="47.46276" lon="6.7843">
        <ele>403</ele>
        <time>2016-05-29T08:04:49.000Z</time>
      </trkpt>
      <trkpt lat="47.46274" lon="6.78429">
        <ele>403</ele>
        <time>2016-05-29T08:04:50.000Z</time>
      </trkpt>
      <trkpt lat="47.46271" lon="6.78428">
        <ele>403</ele>
        <time>2016-05-29T08:04:51.000Z</time>
      </trkpt>
      <trkpt lat="47.46269" lon="6.78428">
        <ele>403</ele>
        <time>2016-05-29T08:04:52.000Z</time>
      </trkpt>
      <trkpt lat="47.46267" lon="6.78429">
        <ele>403</ele>
        <time>2016-05-29T08:04:53.000Z</time>
      </trkpt>
      <trkpt lat="47.46264" lon="6.7843">
        <ele>403</ele>
        <time>2016-05-29T08:04:54.000Z</time>
      </trkpt>
      <trkpt lat="47.46261" lon="6.7843">
        <ele>403</ele>
        <time>2016-05-29T08:04:55.000Z</time>
      </trkpt>
      <trkpt lat="47.46259" lon="6.78429">
        <ele>403</ele>
        <time>2016-05-29T08:04:56.000Z</time>
      </trkpt>
      <trkpt lat="47.46256" lon="6.78429">
        <ele>403</ele>
        <time>2016-05-29T08:04:57.000Z</time>
      </trkpt>
      <trkpt lat="47.46253" lon="6.78429">
        <ele>403</ele>
        <time>2016-05-29T08:04:58.000Z</time>
      </trkpt>
      <trkpt lat="47.4625" lon="6.7843">
        <ele>405</ele>
        <time>2016-05-29T08:04:59.000Z</time>
      </trkpt>
      <trkpt lat="47.46247" lon="6.78432">
        <ele>405</ele>
        <time>2016-05-29T08:05:01.000Z</time>
      </trkpt>
      <trkpt lat="47.46245" lon="6.78433">
        <ele>405</ele>
        <time>2016-05-29T08:05:02.000Z</time>
      </trkpt>
      <trkpt lat="47.46242" lon="6.78436">
        <ele>406</ele>
        <time>2016-05-29T08:05:04.000Z</time>
      </trkpt>
      <trkpt lat="47.46241" lon="6.78438">
        <ele>406</ele>
        <time>2016-05-29T08:05:05.000Z</time>
      </trkpt>
      <trkpt lat="47.46237" lon="6.78442">
        <ele>406</ele>
        <time>2016-05-29T08:05:07.000Z</time>
      </trkpt>
      <trkpt lat="47.46235" lon="6.78444">
        <ele>406</ele>
        <time>2016-05-29T08:05:08.000Z</time>
      </trkpt>
      <trkpt lat="47.46233" lon="6.78445">
        <ele>406</ele>
        <time>2016-05-29T08:05:10.000Z</time>
      </trkpt>
      <trkpt lat="47.46231" lon="6.78447">
        <ele>406</ele>
        <time>2016-05-29T08:05:11.000Z</time>
      </trkpt>
      <trkpt lat="47.46227" lon="6.7845">
        <ele>406</ele>
        <time>2016-05-29T08:05:13.000Z</time>
      </trkpt>
      <trkpt lat="47.46225" lon="6.78451">
        <ele>406</ele>
        <time>2016-05-29T08:05:14.000Z</time>
      </trkpt>
      <trkpt lat="47.46223" lon="6.78451">
        <ele>406</ele>
        <time>2016-05-29T08:05:15.000Z</time>
      </trkpt>
      <trkpt lat="47.4622" lon="6.78451">
        <ele>407</ele>
        <time>2016-05-29T08:05:16.000Z</time>
      </trkpt>
      <trkpt lat="47.46217" lon="6.78452">
        <ele>407</ele>
        <time>2016-05-29T08:05:17.000Z</time>
      </trkpt>
      <trkpt lat="47.46214" lon="6.78452">
        <ele>407</ele>
        <time>2016-05-29T08:05:18.000Z</time>
      </trkpt>
      <trkpt lat="47.46211" lon="6.78453">
        <ele>407</ele>
        <time>2016-05-29T08:05:19.000Z</time>
      </trkpt>
      <trkpt lat="47.46209" lon="6.78454">
        <ele>407</ele>
        <time>2016-05-29T08:05:20.000Z</time>
      </trkpt>
      <trkpt lat="47.46206" lon="6.78456">
        <ele>407</ele>
        <time>2016-05-29T08:05:21.000Z</time>
      </trkpt>
      <trkpt lat="47.46204" lon="6.78457">
        <ele>407</ele>
        <time>2016-05-29T08:05:22.000Z</time>
      </trkpt>
      <trkpt lat="47.46201" lon="6.78459">
        <ele>407</ele>
        <time>2016-05-29T08:05:24.000Z</time>
      </trkpt>
      <trkpt lat="47.462" lon="6.7846">
        <ele>407</ele>
        <time>2016-05-29T08:05:25.000Z</time>
      </trkpt>
      <trkpt lat="47.46196" lon="6.78464">
        <ele>407</ele>
        <time>2016-05-29T08:05:27.000Z</time>
      </trkpt>
      <trkpt lat="47.46194" lon="6.78465">
        <ele>407</ele>
        <time>2016-05-29T08:05:28.000Z</time>
      </trkpt>
      <trkpt lat="47.46192" lon="6.78467">
        <ele>408</ele>
        <time>2016-05-29T08:05:29.000Z</time>
      </trkpt>
      <trkpt lat="47.46189" lon="6.78468">
        <ele>408</ele>
        <time>2016-05-29T08:05:30.000Z</time>
      </trkpt>
      <trkpt lat="47.46187" lon="6.7847">
        <ele>408</ele>
        <time>2016-05-29T08:05:31.000Z</time>
      </trkpt>
      <trkpt lat="47.46184" lon="6.78471">
        <ele>408</ele>
        <time>2016-05-29T08:05:32.000Z</time>
      </trkpt>
      <trkpt lat="47.46182" lon="6.78472">
        <ele>408</ele>
        <time>2016-05-29T08:05:33.000Z</time>
      </trkpt>
      <trkpt lat="47.4618" lon="6.78473">
        <ele>408</ele>
        <time>2016-05-29T08:05:34.000Z</time>
      </trkpt>
      <trkpt lat="47.46176" lon="6.78474">
        <ele>408</ele>
        <time>2016-05-29T08:05:36.000Z</time>
      </trkpt>
      <trkpt lat="47.46174" lon="6.78475">
        <ele>408</ele>
        <time>2016-05-29T08:05:37.000Z</time>
      </trkpt>
      <trkpt lat="47.4617" lon="6.78475">
        <ele>408</ele>
        <time>2016-05-29T08:05:39.000Z</time>
      </trkpt>
      <trkpt lat="47.46168" lon="6.78475">
        <ele>408</ele>
        <time>2016-05-29T08:05:40.000Z</time>
      </trkpt>
      <trkpt lat="47.46165" lon="6.78476">
        <ele>410</ele>
        <time>2016-05-29T08:05:42.000Z</time>
      </trkpt>
      <trkpt lat="47.46164" lon="6.78477">
        <ele>410</ele>
        <time>2016-05-29T08:05:43.000Z</time>
      </trkpt>
      <trkpt lat="47.4616" lon="6.78478">
        <ele>410</ele>
        <time>2016-05-29T08:05:45.000Z</time>
      </trkpt>
      <trkpt lat="47.46159" lon="6.78478">
        <ele>410</ele>
        <time>2016-05-29T08:05:46.000Z</time>
      </trkpt>
      <trkpt lat="47.46154" lon="6.78479">
        <ele>410</ele>
        <time>2016-05-29T08:05:48.000Z</time>
      </trkpt>
      <trkpt lat="47.46152" lon="6.78479">
        <ele>410</ele>
        <time>2016-05-29T08:05:49.000Z</time>
      </trkpt>
      <trkpt lat="47.4615" lon="6.78479">
        <ele>410</ele>
        <time>2016-05-29T08:05:50.000Z</time>
      </trkpt>
      <trkpt lat="47.46147" lon="6.7848">
        <ele>410</ele>
        <time>2016-05-29T08:05:51.000Z</time>
      </trkpt>
      <trkpt lat="47.46145" lon="6.78481">
        <ele>410</ele>
        <time>2016-05-29T08:05:52.000Z</time>
      </trkpt>
      <trkpt lat="47.46142" lon="6.78482">
        <ele>410</ele>
        <time>2016-05-29T08:05:53.000Z</time>
      </trkpt>
      <trkpt lat="47.4614" lon="6.78483">
        <ele>410</ele>
        <time>2016-05-29T08:05:54.000Z</time>
      </trkpt>
      <trkpt lat="47.46137" lon="6.78485">
        <ele>410</ele>
        <time>2016-05-29T08:05:55.000Z</time>
      </trkpt>
      <trkpt lat="47.46134" lon="6.78487">
        <ele>410</ele>
        <time>2016-05-29T08:05:56.000Z</time>
      </trkpt>
      <trkpt lat="47.46132" lon="6.78488">
        <ele>410</ele>
        <time>2016-05-29T08:05:57.000Z</time>
      </trkpt>
      <trkpt lat="47.46129" lon="6.78489">
        <ele>410</ele>
        <time>2016-05-29T08:05:58.000Z</time>
      </trkpt>
      <trkpt lat="47.46126" lon="6.78491">
        <ele>410</ele>
        <time>2016-05-29T08:05:59.000Z</time>
      </trkpt>
      <trkpt lat="47.46124" lon="6.78492">
        <ele>411</ele>
        <time>2016-05-29T08:06:00.000Z</time>
      </trkpt>
      <trkpt lat="47.46122" lon="6.78494">
        <ele>411</ele>
        <time>2016-05-29T08:06:01.000Z</time>
      </trkpt>
      <trkpt lat="47.46119" lon="6.78495">
        <ele>411</ele>
        <time>2016-05-29T08:06:03.000Z</time>
      </trkpt>
      <trkpt lat="47.46117" lon="6.78496">
        <ele>411</ele>
        <time>2016-05-29T08:06:04.000Z</time>
      </trkpt>
      <trkpt lat="47.46114" lon="6.78495">
        <ele>411</ele>
        <time>2016-05-29T08:06:05.000Z</time>
      </trkpt>
      <trkpt lat="47.4611" lon="6.78494">
        <ele>411</ele>
        <time>2016-05-29T08:06:06.000Z</time>
      </trkpt>
      <trkpt lat="47.46106" lon="6.78492">
        <ele>411</ele>
        <time>2016-05-29T08:06:07.000Z</time>
      </trkpt>
      <trkpt lat="47.46101" lon="6.7849">
        <ele>411</ele>
        <time>2016-05-29T08:06:08.000Z</time>
      </trkpt>
      <trkpt lat="47.46096" lon="6.78489">
        <ele>411</ele>
        <time>2016-05-29T08:06:09.000Z</time>
      </trkpt>
      <trkpt lat="47.46091" lon="6.78487">
        <ele>411</ele>
        <time>2016-05-29T08:06:10.000Z</time>
      </trkpt>
      <trkpt lat="47.46085" lon="6.78485">
        <ele>411</ele>
        <time>2016-05-29T08:06:11.000Z</time>
      </trkpt>
      <trkpt lat="47.4608" lon="6.78483">
        <ele>409</ele>
        <time>2016-05-29T08:06:12.000Z</time>
      </trkpt>
      <trkpt lat="47.46076" lon="6.78482">
        <ele>408</ele>
        <time>2016-05-29T08:06:13.000Z</time>
      </trkpt>
      <trkpt lat="47.46072" lon="6.7848">
        <ele>408</ele>
        <time>2016-05-29T08:06:14.000Z</time>
      </trkpt>
      <trkpt lat="47.46069" lon="6.78479">
        <ele>408</ele>
        <time>2016-05-29T08:06:15.000Z</time>
      </trkpt>
      <trkpt lat="47.46066" lon="6.78477">
        <ele>408</ele>
        <time>2016-05-29T08:06:16.000Z</time>
      </trkpt>
      <trkpt lat="47.46063" lon="6.78474">
        <ele>407</ele>
        <time>2016-05-29T08:06:17.000Z</time>
      </trkpt>
      <trkpt lat="47.46058" lon="6.78471">
        <ele>407</ele>
        <time>2016-05-29T08:06:18.000Z</time>
      </trkpt>
      <trkpt lat="47.46053" lon="6.78468">
        <ele>407</ele>
        <time>2016-05-29T08:06:19.000Z</time>
      </trkpt>
      <trkpt lat="47.46036" lon="6.78464">
        <ele>406</ele>
        <time>2016-05-29T08:06:20.000Z</time>
      </trkpt>
      <trkpt lat="47.46031" lon="6.78464">
        <ele>405</ele>
        <time>2016-05-29T08:06:21.000Z</time>
      </trkpt>
      <trkpt lat="47.46025" lon="6.78465">
        <ele>405</ele>
        <time>2016-05-29T08:06:22.000Z</time>
      </trkpt>
      <trkpt lat="47.4602" lon="6.78466">
        <ele>405</ele>
        <time>2016-05-29T08:06:23.000Z</time>
      </trkpt>
      <trkpt lat="47.46015" lon="6.78465">
        <ele>404</ele>
        <time>2016-05-29T08:06:24.000Z</time>
      </trkpt>
      <trkpt lat="47.46012" lon="6.78462">
        <ele>404</ele>
        <time>2016-05-29T08:06:25.000Z</time>
      </trkpt>
      <trkpt lat="47.4601" lon="6.78459">
        <ele>404</ele>
        <time>2016-05-29T08:06:26.000Z</time>
      </trkpt>
      <trkpt lat="47.46008" lon="6.78454">
        <ele>404</ele>
        <time>2016-05-29T08:06:28.000Z</time>
      </trkpt>
      <trkpt lat="47.46006" lon="6.78452">
        <ele>404</ele>
        <time>2016-05-29T08:06:29.000Z</time>
      </trkpt>
      <trkpt lat="47.46004" lon="6.78447">
        <ele>404</ele>
        <time>2016-05-29T08:06:31.000Z</time>
      </trkpt>
      <trkpt lat="47.46003" lon="6.78445">
        <ele>404</ele>
        <time>2016-05-29T08:06:32.000Z</time>
      </trkpt>
      <trkpt lat="47.46002" lon="6.78439">
        <ele>404</ele>
        <time>2016-05-29T08:06:34.000Z</time>
      </trkpt>
      <trkpt lat="47.46001" lon="6.78435">
        <ele>404</ele>
        <time>2016-05-29T08:06:35.000Z</time>
      </trkpt>
      <trkpt lat="47.45999" lon="6.78434">
        <ele>398</ele>
        <time>2016-05-29T08:06:40.000Z</time>
      </trkpt>
      <trkpt lat="47.45995" lon="6.78435">
        <ele>397</ele>
        <time>2016-05-29T08:06:41.000Z</time>
      </trkpt>
      <trkpt lat="47.45992" lon="6.78437">
        <ele>397</ele>
        <time>2016-05-29T08:06:42.000Z</time>
      </trkpt>
      <trkpt lat="47.45988" lon="6.78437">
        <ele>397</ele>
        <time>2016-05-29T08:06:43.000Z</time>
      </trkpt>
      <trkpt lat="47.45984" lon="6.78437">
        <ele>396</ele>
        <time>2016-05-29T08:06:44.000Z</time>
      </trkpt>
      <trkpt lat="47.45963" lon="6.78436">
        <ele>394</ele>
        <time>2016-05-29T08:06:45.000Z</time>
      </trkpt>
      <trkpt lat="47.45959" lon="6.78438">
        <ele>393</ele>
        <time>2016-05-29T08:06:47.000Z</time>
      </trkpt>
      <trkpt lat="47.45957" lon="6.7844">
        <ele>393</ele>
        <time>2016-05-29T08:06:48.000Z</time>
      </trkpt>
      <trkpt lat="47.45954" lon="6.78442">
        <ele>393</ele>
        <time>2016-05-29T08:06:50.000Z</time>
      </trkpt>
      <trkpt lat="47.45953" lon="6.78442">
        <ele>392</ele>
        <time>2016-05-29T08:06:51.000Z</time>
      </trkpt>
      <trkpt lat="47.45948" lon="6.78444">
        <ele>392</ele>
        <time>2016-05-29T08:06:54.000Z</time>
      </trkpt>
      <trkpt lat="47.45947" lon="6.78446">
        <ele>392</ele>
        <time>2016-05-29T08:06:55.000Z</time>
      </trkpt>
      <trkpt lat="47.45945" lon="6.78449">
        <ele>392</ele>
        <time>2016-05-29T08:06:56.000Z</time>
      </trkpt>
      <trkpt lat="47.45944" lon="6.78453">
        <ele>391</ele>
        <time>2016-05-29T08:06:57.000Z</time>
      </trkpt>
      <trkpt lat="47.45942" lon="6.78457">
        <ele>391</ele>
        <time>2016-05-29T08:06:58.000Z</time>
      </trkpt>
      <trkpt lat="47.45941" lon="6.78462">
        <ele>391</ele>
        <time>2016-05-29T08:06:59.000Z</time>
      </trkpt>
      <trkpt lat="47.45939" lon="6.78467">
        <ele>391</ele>
        <time>2016-05-29T08:07:00.000Z</time>
      </trkpt>
      <trkpt lat="47.45938" lon="6.78472">
        <ele>390</ele>
        <time>2016-05-29T08:07:01.000Z</time>
      </trkpt>
      <trkpt lat="47.45937" lon="6.78477">
        <ele>390</ele>
        <time>2016-05-29T08:07:02.000Z</time>
      </trkpt>
      <trkpt lat="47.45936" lon="6.78483">
        <ele>389</ele>
        <time>2016-05-29T08:07:03.000Z</time>
      </trkpt>
      <trkpt lat="47.45936" lon="6.78489">
        <ele>388</ele>
        <time>2016-05-29T08:07:04.000Z</time>
      </trkpt>
      <trkpt lat="47.45936" lon="6.78496">
        <ele>388</ele>
        <time>2016-05-29T08:07:05.000Z</time>
      </trkpt>
      <trkpt lat="47.45936" lon="6.78502">
        <ele>386</ele>
        <time>2016-05-29T08:07:06.000Z</time>
      </trkpt>
      <trkpt lat="47.45937" lon="6.7851">
        <ele>387</ele>
        <time>2016-05-29T08:07:07.000Z</time>
      </trkpt>
      <trkpt lat="47.45936" lon="6.78522">
        <ele>387</ele>
        <time>2016-05-29T08:07:08.000Z</time>
      </trkpt>
      <trkpt lat="47.45934" lon="6.78529">
        <ele>387</ele>
        <time>2016-05-29T08:07:09.000Z</time>
      </trkpt>
      <trkpt lat="47.45932" lon="6.78535">
        <ele>387</ele>
        <time>2016-05-29T08:07:10.000Z</time>
      </trkpt>
      <trkpt lat="47.45929" lon="6.7854">
        <ele>387</ele>
        <time>2016-05-29T08:07:11.000Z</time>
      </trkpt>
      <trkpt lat="47.45926" lon="6.78539">
        <ele>386</ele>
        <time>2016-05-29T08:07:12.000Z</time>
      </trkpt>
      <trkpt lat="47.45922" lon="6.78539">
        <ele>386</ele>
        <time>2016-05-29T08:07:13.000Z</time>
      </trkpt>
      <trkpt lat="47.45917" lon="6.78538">
        <ele>386</ele>
        <time>2016-05-29T08:07:14.000Z</time>
      </trkpt>
      <trkpt lat="47.45913" lon="6.78536">
        <ele>377</ele>
        <time>2016-05-29T08:07:15.000Z</time>
      </trkpt>
      <trkpt lat="47.45908" lon="6.78533">
        <ele>377</ele>
        <time>2016-05-29T08:07:16.000Z</time>
      </trkpt>
      <trkpt lat="47.45905" lon="6.7853">
        <ele>377</ele>
        <time>2016-05-29T08:07:17.000Z</time>
      </trkpt>
      <trkpt lat="47.45901" lon="6.78524">
        <ele>377</ele>
        <time>2016-05-29T08:07:18.000Z</time>
      </trkpt>
      <trkpt lat="47.45896" lon="6.78518">
        <ele>377</ele>
        <time>2016-05-29T08:07:19.000Z</time>
      </trkpt>
      <trkpt lat="47.45892" lon="6.78513">
        <ele>376</ele>
        <time>2016-05-29T08:07:20.000Z</time>
      </trkpt>
      <trkpt lat="47.45887" lon="6.78506">
        <ele>376</ele>
        <time>2016-05-29T08:07:21.000Z</time>
      </trkpt>
      <trkpt lat="47.45882" lon="6.78501">
        <ele>375</ele>
        <time>2016-05-29T08:07:22.000Z</time>
      </trkpt>
      <trkpt lat="47.45877" lon="6.78497">
        <ele>376</ele>
        <time>2016-05-29T08:07:23.000Z</time>
      </trkpt>
      <trkpt lat="47.45872" lon="6.78493">
        <ele>376</ele>
        <time>2016-05-29T08:07:24.000Z</time>
      </trkpt>
      <trkpt lat="47.45868" lon="6.78487">
        <ele>376</ele>
        <time>2016-05-29T08:07:25.000Z</time>
      </trkpt>
      <trkpt lat="47.45862" lon="6.78481">
        <ele>375</ele>
        <time>2016-05-29T08:07:26.000Z</time>
      </trkpt>
      <trkpt lat="47.45856" lon="6.78475">
        <ele>375</ele>
        <time>2016-05-29T08:07:27.000Z</time>
      </trkpt>
      <trkpt lat="47.45851" lon="6.7847">
        <ele>375</ele>
        <time>2016-05-29T08:07:27.999Z</time>
      </trkpt>
      <trkpt lat="47.45845" lon="6.78464">
        <ele>374</ele>
        <time>2016-05-29T08:07:29.000Z</time>
      </trkpt>
      <trkpt lat="47.45841" lon="6.7846">
        <ele>374</ele>
        <time>2016-05-29T08:07:30.000Z</time>
      </trkpt>
      <trkpt lat="47.45835" lon="6.78454">
        <ele>374</ele>
        <time>2016-05-29T08:07:31.000Z</time>
      </trkpt>
      <trkpt lat="47.4583" lon="6.78449">
        <ele>367</ele>
        <time>2016-05-29T08:07:32.000Z</time>
      </trkpt>
      <trkpt lat="47.45823" lon="6.78441">
        <ele>367</ele>
        <time>2016-05-29T08:07:33.000Z</time>
      </trkpt>
      <trkpt lat="47.45816" lon="6.78435">
        <ele>367</ele>
        <time>2016-05-29T08:07:34.000Z</time>
      </trkpt>
      <trkpt lat="47.45809" lon="6.78429">
        <ele>366</ele>
        <time>2016-05-29T08:07:35.000Z</time>
      </trkpt>
      <trkpt lat="47.45801" lon="6.78422">
        <ele>366</ele>
        <time>2016-05-29T08:07:36.000Z</time>
      </trkpt>
      <trkpt lat="47.45793" lon="6.78414">
        <ele>367</ele>
        <time>2016-05-29T08:07:37.000Z</time>
      </trkpt>
      <trkpt lat="47.45786" lon="6.78407">
        <ele>366</ele>
        <time>2016-05-29T08:07:38.000Z</time>
      </trkpt>
      <trkpt lat="47.45779" lon="6.78401">
        <ele>366</ele>
        <time>2016-05-29T08:07:39.000Z</time>
      </trkpt>
      <trkpt lat="47.45769" lon="6.78396">
        <ele>365</ele>
        <time>2016-05-29T08:07:40.000Z</time>
      </trkpt>
      <trkpt lat="47.4576" lon="6.78393">
        <ele>364</ele>
        <time>2016-05-29T08:07:41.000Z</time>
      </trkpt>
      <trkpt lat="47.45752" lon="6.78389">
        <ele>364</ele>
        <time>2016-05-29T08:07:42.000Z</time>
      </trkpt>
      <trkpt lat="47.45742" lon="6.78387">
        <ele>360</ele>
        <time>2016-05-29T08:07:43.000Z</time>
      </trkpt>
      <trkpt lat="47.45732" lon="6.78384">
        <ele>360</ele>
        <time>2016-05-29T08:07:44.000Z</time>
      </trkpt>
      <trkpt lat="47.45722" lon="6.78385">
        <ele>359</ele>
        <time>2016-05-29T08:07:45.000Z</time>
      </trkpt>
      <trkpt lat="47.45712" lon="6.78384">
        <ele>359</ele>
        <time>2016-05-29T08:07:46.000Z</time>
      </trkpt>
      <trkpt lat="47.45702" lon="6.78383">
        <ele>359</ele>
        <time>2016-05-29T08:07:47.000Z</time>
      </trkpt>
      <trkpt lat="47.45693" lon="6.78384">
        <ele>358</ele>
        <time>2016-05-29T08:07:48.000Z</time>
      </trkpt>
      <trkpt lat="47.45684" lon="6.78384">
        <ele>358</ele>
        <time>2016-05-29T08:07:49.000Z</time>
      </trkpt>
      <trkpt lat="47.45675" lon="6.78385">
        <ele>358</ele>
        <time>2016-05-29T08:07:50.000Z</time>
      </trkpt>
      <trkpt lat="47.45666" lon="6.78387">
        <ele>356</ele>
        <time>2016-05-29T08:07:51.000Z</time>
      </trkpt>
      <trkpt lat="47.45657" lon="6.78389">
        <ele>356</ele>
        <time>2016-05-29T08:07:52.000Z</time>
      </trkpt>
      <trkpt lat="47.45649" lon="6.78392">
        <ele>356</ele>
        <time>2016-05-29T08:07:53.000Z</time>
      </trkpt>
      <trkpt lat="47.45641" lon="6.78395">
        <ele>355</ele>
        <time>2016-05-29T08:07:54.000Z</time>
      </trkpt>
      <trkpt lat="47.45633" lon="6.78398">
        <ele>355</ele>
        <time>2016-05-29T08:07:55.000Z</time>
      </trkpt>
      <trkpt lat="47.45625" lon="6.78401">
        <ele>355</ele>
        <time>2016-05-29T08:07:56.000Z</time>
      </trkpt>
      <trkpt lat="47.45618" lon="6.78405">
        <ele>355</ele>
        <time>2016-05-29T08:07:57.000Z</time>
      </trkpt>
      <trkpt lat="47.45611" lon="6.78409">
        <ele>355</ele>
        <time>2016-05-29T08:07:58.000Z</time>
      </trkpt>
      <trkpt lat="47.45603" lon="6.78413">
        <ele>355</ele>
        <time>2016-05-29T08:07:59.000Z</time>
      </trkpt>
      <trkpt lat="47.45596" lon="6.78418">
        <ele>354</ele>
        <time>2016-05-29T08:08:00.000Z</time>
      </trkpt>
      <trkpt lat="47.45589" lon="6.78422">
        <ele>354</ele>
        <time>2016-05-29T08:08:01.000Z</time>
      </trkpt>
      <trkpt lat="47.45582" lon="6.78425">
        <ele>353</ele>
        <time>2016-05-29T08:08:02.000Z</time>
      </trkpt>
      <trkpt lat="47.45575" lon="6.78429">
        <ele>353</ele>
        <time>2016-05-29T08:08:03.000Z</time>
      </trkpt>
      <trkpt lat="47.45568" lon="6.78432">
        <ele>352</ele>
        <time>2016-05-29T08:08:04.000Z</time>
      </trkpt>
      <trkpt lat="47.45562" lon="6.78435">
        <ele>352</ele>
        <time>2016-05-29T08:08:05.000Z</time>
      </trkpt>
      <trkpt lat="47.45554" lon="6.7844">
        <ele>352</ele>
        <time>2016-05-29T08:08:06.000Z</time>
      </trkpt>
      <trkpt lat="47.45549" lon="6.78443">
        <ele>351</ele>
        <time>2016-05-29T08:08:07.000Z</time>
      </trkpt>
      <trkpt lat="47.45541" lon="6.78447">
        <ele>351</ele>
        <time>2016-05-29T08:08:08.000Z</time>
      </trkpt>
      <trkpt lat="47.45535" lon="6.78451">
        <ele>351</ele>
        <time>2016-05-29T08:08:09.000Z</time>
      </trkpt>
      <trkpt lat="47.45528" lon="6.78455">
        <ele>351</ele>
        <time>2016-05-29T08:08:10.000Z</time>
      </trkpt>
      <trkpt lat="47.45521" lon="6.78459">
        <ele>351</ele>
        <time>2016-05-29T08:08:11.000Z</time>
      </trkpt>
      <trkpt lat="47.45514" lon="6.78463">
        <ele>351</ele>
        <time>2016-05-29T08:08:12.000Z</time>
      </trkpt>
      <trkpt lat="47.45507" lon="6.78466">
        <ele>350</ele>
        <time>2016-05-29T08:08:13.000Z</time>
      </trkpt>
      <trkpt lat="47.455" lon="6.7847">
        <ele>350</ele>
        <time>2016-05-29T08:08:14.000Z</time>
      </trkpt>
      <trkpt lat="47.45494" lon="6.78473">
        <ele>348</ele>
        <time>2016-05-29T08:08:15.000Z</time>
      </trkpt>
      <trkpt lat="47.45487" lon="6.78477">
        <ele>348</ele>
        <time>2016-05-29T08:08:16.000Z</time>
      </trkpt>
      <trkpt lat="47.4548" lon="6.78482">
        <ele>348</ele>
        <time>2016-05-29T08:08:17.000Z</time>
      </trkpt>
      <trkpt lat="47.45473" lon="6.78485">
        <ele>348</ele>
        <time>2016-05-29T08:08:18.000Z</time>
      </trkpt>
      <trkpt lat="47.45466" lon="6.7849">
        <ele>347</ele>
        <time>2016-05-29T08:08:19.000Z</time>
      </trkpt>
      <trkpt lat="47.45458" lon="6.78494">
        <ele>347</ele>
        <time>2016-05-29T08:08:20.000Z</time>
      </trkpt>
      <trkpt lat="47.45451" lon="6.78497">
        <ele>347</ele>
        <time>2016-05-29T08:08:21.000Z</time>
      </trkpt>
      <trkpt lat="47.45443" lon="6.785">
        <ele>344</ele>
        <time>2016-05-29T08:08:22.000Z</time>
      </trkpt>
      <trkpt lat="47.45434" lon="6.78501">
        <ele>344</ele>
        <time>2016-05-29T08:08:23.000Z</time>
      </trkpt>
      <trkpt lat="47.45425" lon="6.78502">
        <ele>344</ele>
        <time>2016-05-29T08:08:24.000Z</time>
      </trkpt>
      <trkpt lat="47.45417" lon="6.785">
        <ele>344</ele>
        <time>2016-05-29T08:08:25.000Z</time>
      </trkpt>
      <trkpt lat="47.45409" lon="6.78496">
        <ele>343</ele>
        <time>2016-05-29T08:08:26.000Z</time>
      </trkpt>
      <trkpt lat="47.45402" lon="6.78491">
        <ele>343</ele>
        <time>2016-05-29T08:08:27.000Z</time>
      </trkpt>
      <trkpt lat="47.45396" lon="6.78487">
        <ele>343</ele>
        <time>2016-05-29T08:08:28.000Z</time>
      </trkpt>
      <trkpt lat="47.4539" lon="6.78482">
        <ele>342</ele>
        <time>2016-05-29T08:08:29.000Z</time>
      </trkpt>
      <trkpt lat="47.45384" lon="6.78478">
        <ele>342</ele>
        <time>2016-05-29T08:08:30.000Z</time>
      </trkpt>
      <trkpt lat="47.45379" lon="6.78476">
        <ele>342</ele>
        <time>2016-05-29T08:08:31.000Z</time>
      </trkpt>
      <trkpt lat="47.45374" lon="6.7848">
        <ele>342</ele>
        <time>2016-05-29T08:08:32.000Z</time>
      </trkpt>
      <trkpt lat="47.45371" lon="6.78487">
        <ele>341</ele>
        <time>2016-05-29T08:08:33.000Z</time>
      </trkpt>
      <trkpt lat="47.45371" lon="6.78495">
        <ele>341</ele>
        <time>2016-05-29T08:08:34.000Z</time>
      </trkpt>
      <trkpt lat="47.45372" lon="6.78506">
        <ele>339</ele>
        <time>2016-05-29T08:08:35.000Z</time>
      </trkpt>
      <trkpt lat="47.45373" lon="6.78515">
        <ele>339</ele>
        <time>2016-05-29T08:08:36.000Z</time>
      </trkpt>
      <trkpt lat="47.45374" lon="6.78525">
        <ele>339</ele>
        <time>2016-05-29T08:08:37.000Z</time>
      </trkpt>
      <trkpt lat="47.45375" lon="6.78535">
        <ele>339</ele>
        <time>2016-05-29T08:08:38.000Z</time>
      </trkpt>
      <trkpt lat="47.45376" lon="6.78546">
        <ele>338</ele>
        <time>2016-05-29T08:08:39.000Z</time>
      </trkpt>
      <trkpt lat="47.45379" lon="6.78556">
        <ele>338</ele>
        <time>2016-05-29T08:08:40.000Z</time>
      </trkpt>
      <trkpt lat="47.45382" lon="6.78566">
        <ele>338</ele>
        <time>2016-05-29T08:08:41.000Z</time>
      </trkpt>
      <trkpt lat="47.45386" lon="6.78575">
        <ele>338</ele>
        <time>2016-05-29T08:08:42.000Z</time>
      </trkpt>
      <trkpt lat="47.45391" lon="6.78583">
        <ele>338</ele>
        <time>2016-05-29T08:08:43.000Z</time>
      </trkpt>
      <trkpt lat="47.45395" lon="6.78591">
        <ele>337</ele>
        <time>2016-05-29T08:08:44.001Z</time>
      </trkpt>
      <trkpt lat="47.454" lon="6.786">
        <ele>337</ele>
        <time>2016-05-29T08:08:45.000Z</time>
      </trkpt>
      <trkpt lat="47.45405" lon="6.78608">
        <ele>336</ele>
        <time>2016-05-29T08:08:46.000Z</time>
      </trkpt>
      <trkpt lat="47.45411" lon="6.78616">
        <ele>336</ele>
        <time>2016-05-29T08:08:47.000Z</time>
      </trkpt>
      <trkpt lat="47.45416" lon="6.78623">
        <ele>336</ele>
        <time>2016-05-29T08:08:47.999Z</time>
      </trkpt>
      <trkpt lat="47.4542" lon="6.78631">
        <ele>338</ele>
        <time>2016-05-29T08:08:49.000Z</time>
      </trkpt>
      <trkpt lat="47.45426" lon="6.78639">
        <ele>337</ele>
        <time>2016-05-29T08:08:50.000Z</time>
      </trkpt>
      <trkpt lat="47.45431" lon="6.78648">
        <ele>337</ele>
        <time>2016-05-29T08:08:51.000Z</time>
      </trkpt>
      <trkpt lat="47.45436" lon="6.78656">
        <ele>337</ele>
        <time>2016-05-29T08:08:52.000Z</time>
      </trkpt>
      <trkpt lat="47.45441" lon="6.78665">
        <ele>337</ele>
        <time>2016-05-29T08:08:53.000Z</time>
      </trkpt>
      <trkpt lat="47.45446" lon="6.78673">
        <ele>335</ele>
        <time>2016-05-29T08:08:54.000Z</time>
      </trkpt>
      <trkpt lat="47.45451" lon="6.78679">
        <ele>335</ele>
        <time>2016-05-29T08:08:55.000Z</time>
      </trkpt>
      <trkpt lat="47.45455" lon="6.78688">
        <ele>335</ele>
        <time>2016-05-29T08:08:56.000Z</time>
      </trkpt>
      <trkpt lat="47.45459" lon="6.78696">
        <ele>335</ele>
        <time>2016-05-29T08:08:57.000Z</time>
      </trkpt>
      <trkpt lat="47.45464" lon="6.78703">
        <ele>335</ele>
        <time>2016-05-29T08:08:57.999Z</time>
      </trkpt>
      <trkpt lat="47.45467" lon="6.78711">
        <ele>335</ele>
        <time>2016-05-29T08:08:59.000Z</time>
      </trkpt>
      <trkpt lat="47.45471" lon="6.78719">
        <ele>335</ele>
        <time>2016-05-29T08:09:00.000Z</time>
      </trkpt>
      <trkpt lat="47.45474" lon="6.78726">
        <ele>335</ele>
        <time>2016-05-29T08:09:01.000Z</time>
      </trkpt>
      <trkpt lat="47.45477" lon="6.78734">
        <ele>335</ele>
        <time>2016-05-29T08:09:02.000Z</time>
      </trkpt>
      <trkpt lat="47.4548" lon="6.78741">
        <ele>335</ele>
        <time>2016-05-29T08:09:03.001Z</time>
      </trkpt>
      <trkpt lat="47.45484" lon="6.78747">
        <ele>335</ele>
        <time>2016-05-29T08:09:04.000Z</time>
      </trkpt>
      <trkpt lat="47.45487" lon="6.78753">
        <ele>334</ele>
        <time>2016-05-29T08:09:05.000Z</time>
      </trkpt>
      <trkpt lat="47.45488" lon="6.7876">
        <ele>334</ele>
        <time>2016-05-29T08:09:06.000Z</time>
      </trkpt>
      <trkpt lat="47.45487" lon="6.78766">
        <ele>334</ele>
        <time>2016-05-29T08:09:07.000Z</time>
      </trkpt>
      <trkpt lat="47.45484" lon="6.78774">
        <ele>334</ele>
        <time>2016-05-29T08:09:08.000Z</time>
      </trkpt>
      <trkpt lat="47.45479" lon="6.78781">
        <ele>334</ele>
        <time>2016-05-29T08:09:09.000Z</time>
      </trkpt>
      <trkpt lat="47.45475" lon="6.78785">
        <ele>334</ele>
        <time>2016-05-29T08:09:10.000Z</time>
      </trkpt>
      <trkpt lat="47.4547" lon="6.7879">
        <ele>333</ele>
        <time>2016-05-29T08:09:11.000Z</time>
      </trkpt>
      <trkpt lat="47.45465" lon="6.78794">
        <ele>333</ele>
        <time>2016-05-29T08:09:12.000Z</time>
      </trkpt>
      <trkpt lat="47.4546" lon="6.78799">
        <ele>333</ele>
        <time>2016-05-29T08:09:13.000Z</time>
      </trkpt>
      <trkpt lat="47.45456" lon="6.78804">
        <ele>333</ele>
        <time>2016-05-29T08:09:14.000Z</time>
      </trkpt>
      <trkpt lat="47.45452" lon="6.78812">
        <ele>333</ele>
        <time>2016-05-29T08:09:15.000Z</time>
      </trkpt>
      <trkpt lat="47.45448" lon="6.78819">
        <ele>333</ele>
        <time>2016-05-29T08:09:16.000Z</time>
      </trkpt>
      <trkpt lat="47.45445" lon="6.78826">
        <ele>333</ele>
        <time>2016-05-29T08:09:16.999Z</time>
      </trkpt>
      <trkpt lat="47.45439" lon="6.78832">
        <ele>333</ele>
        <time>2016-05-29T08:09:18.000Z</time>
      </trkpt>
      <trkpt lat="47.45434" lon="6.78838">
        <ele>332</ele>
        <time>2016-05-29T08:09:19.000Z</time>
      </trkpt>
      <trkpt lat="47.45429" lon="6.78843">
        <ele>332</ele>
        <time>2016-05-29T08:09:20.000Z</time>
      </trkpt>
      <trkpt lat="47.45424" lon="6.78848">
        <ele>332</ele>
        <time>2016-05-29T08:09:21.000Z</time>
      </trkpt>
      <trkpt lat="47.45418" lon="6.78852">
        <ele>332</ele>
        <time>2016-05-29T08:09:22.000Z</time>
      </trkpt>
      <trkpt lat="47.45413" lon="6.78858">
        <ele>332</ele>
        <time>2016-05-29T08:09:22.999Z</time>
      </trkpt>
      <trkpt lat="47.45407" lon="6.7886">
        <ele>332</ele>
        <time>2016-05-29T08:09:24.000Z</time>
      </trkpt>
      <trkpt lat="47.45401" lon="6.78863">
        <ele>332</ele>
        <time>2016-05-29T08:09:24.999Z</time>
      </trkpt>
      <trkpt lat="47.45399" lon="6.7887">
        <ele>332</ele>
        <time>2016-05-29T08:09:26.000Z</time>
      </trkpt>
      <trkpt lat="47.45395" lon="6.78874">
        <ele>332</ele>
        <time>2016-05-29T08:09:27.000Z</time>
      </trkpt>
      <trkpt lat="47.4539" lon="6.78877">
        <ele>332</ele>
        <time>2016-05-29T08:09:28.000Z</time>
      </trkpt>
      <trkpt lat="47.45386" lon="6.7888">
        <ele>332</ele>
        <time>2016-05-29T08:09:29.000Z</time>
      </trkpt>
      <trkpt lat="47.45383" lon="6.78883">
        <ele>332</ele>
        <time>2016-05-29T08:09:30.000Z</time>
      </trkpt>
      <trkpt lat="47.45379" lon="6.78888">
        <ele>332</ele>
        <time>2016-05-29T08:09:31.000Z</time>
      </trkpt>
      <trkpt lat="47.45375" lon="6.78894">
        <ele>332</ele>
        <time>2016-05-29T08:09:32.000Z</time>
      </trkpt>
      <trkpt lat="47.45372" lon="6.789">
        <ele>332</ele>
        <time>2016-05-29T08:09:33.000Z</time>
      </trkpt>
      <trkpt lat="47.45368" lon="6.78906">
        <ele>332</ele>
        <time>2016-05-29T08:09:33.999Z</time>
      </trkpt>
      <trkpt lat="47.45363" lon="6.78907">
        <ele>332</ele>
        <time>2016-05-29T08:09:35.000Z</time>
      </trkpt>
      <trkpt lat="47.45359" lon="6.78911">
        <ele>332</ele>
        <time>2016-05-29T08:09:35.999Z</time>
      </trkpt>
      <trkpt lat="47.45356" lon="6.78917">
        <ele>332</ele>
        <time>2016-05-29T08:09:37.000Z</time>
      </trkpt>
      <trkpt lat="47.45353" lon="6.78924">
        <ele>331</ele>
        <time>2016-05-29T08:09:38.000Z</time>
      </trkpt>
      <trkpt lat="47.45351" lon="6.78931">
        <ele>331</ele>
        <time>2016-05-29T08:09:39.000Z</time>
      </trkpt>
      <trkpt lat="47.45348" lon="6.78937">
        <ele>331</ele>
        <time>2016-05-29T08:09:39.998Z</time>
      </trkpt>
      <trkpt lat="47.45343" lon="6.78938">
        <ele>331</ele>
        <time>2016-05-29T08:09:41.000Z</time>
      </trkpt>
      <trkpt lat="47.45339" lon="6.78941">
        <ele>331</ele>
        <time>2016-05-29T08:09:42.000Z</time>
      </trkpt>
      <trkpt lat="47.45335" lon="6.78946">
        <ele>331</ele>
        <time>2016-05-29T08:09:43.000Z</time>
      </trkpt>
      <trkpt lat="47.45333" lon="6.78952">
        <ele>331</ele>
        <time>2016-05-29T08:09:44.000Z</time>
      </trkpt>
      <trkpt lat="47.4533" lon="6.78954">
        <ele>331</ele>
        <time>2016-05-29T08:09:45.000Z</time>
      </trkpt>
      <trkpt lat="47.45327" lon="6.78957">
        <ele>331</ele>
        <time>2016-05-29T08:09:46.000Z</time>
      </trkpt>
      <trkpt lat="47.45324" lon="6.7896">
        <ele>331</ele>
        <time>2016-05-29T08:09:47.000Z</time>
      </trkpt>
      <trkpt lat="47.45322" lon="6.78964">
        <ele>331</ele>
        <time>2016-05-29T08:09:48.000Z</time>
      </trkpt>
      <trkpt lat="47.45319" lon="6.78966">
        <ele>331</ele>
        <time>2016-05-29T08:09:49.000Z</time>
      </trkpt>
      <trkpt lat="47.45316" lon="6.78969">
        <ele>331</ele>
        <time>2016-05-29T08:09:49.999Z</time>
      </trkpt>
      <trkpt lat="47.45315" lon="6.78972">
        <ele>331</ele>
        <time>2016-05-29T08:09:51.000Z</time>
      </trkpt>
      <trkpt lat="47.45312" lon="6.78975">
        <ele>331</ele>
        <time>2016-05-29T08:09:52.000Z</time>
      </trkpt>
      <trkpt lat="47.4531" lon="6.78978">
        <ele>331</ele>
        <time>2016-05-29T08:09:53.000Z</time>
      </trkpt>
      <trkpt lat="47.45309" lon="6.7898">
        <ele>331</ele>
        <time>2016-05-29T08:09:54.000Z</time>
      </trkpt>
      <trkpt lat="47.45307" lon="6.78983">
        <ele>331</ele>
        <time>2016-05-29T08:09:55.000Z</time>
      </trkpt>
      <trkpt lat="47.45306" lon="6.78986">
        <ele>331</ele>
        <time>2016-05-29T08:09:56.000Z</time>
      </trkpt>
      <trkpt lat="47.45305" lon="6.78989">
        <ele>331</ele>
        <time>2016-05-29T08:09:57.000Z</time>
      </trkpt>
      <trkpt lat="47.45303" lon="6.78992">
        <ele>331</ele>
        <time>2016-05-29T08:09:58.000Z</time>
      </trkpt>
      <trkpt lat="47.45302" lon="6.78995">
        <ele>331</ele>
        <time>2016-05-29T08:09:59.000Z</time>
      </trkpt>
      <trkpt lat="47.453" lon="6.78997">
        <ele>331</ele>
        <time>2016-05-29T08:10:00.000Z</time>
      </trkpt>
      <trkpt lat="47.45298" lon="6.79001">
        <ele>331</ele>
        <time>2016-05-29T08:10:01.000Z</time>
      </trkpt>
      <trkpt lat="47.45296" lon="6.79005">
        <ele>331</ele>
        <time>2016-05-29T08:10:02.000Z</time>
      </trkpt>
      <trkpt lat="47.45294" lon="6.79008">
        <ele>331</ele>
        <time>2016-05-29T08:10:02.999Z</time>
      </trkpt>
      <trkpt lat="47.45291" lon="6.79015">
        <ele>331</ele>
        <time>2016-05-29T08:10:04.000Z</time>
      </trkpt>
      <trkpt lat="47.45289" lon="6.79019">
        <ele>331</ele>
        <time>2016-05-29T08:10:05.000Z</time>
      </trkpt>
      <trkpt lat="47.45286" lon="6.79026">
        <ele>331</ele>
        <time>2016-05-29T08:10:06.000Z</time>
      </trkpt>
      <trkpt lat="47.45284" lon="6.79031">
        <ele>331</ele>
        <time>2016-05-29T08:10:06.999Z</time>
      </trkpt>
      <trkpt lat="47.45282" lon="6.79035">
        <ele>331</ele>
        <time>2016-05-29T08:10:08.000Z</time>
      </trkpt>
      <trkpt lat="47.4528" lon="6.79039">
        <ele>331</ele>
        <time>2016-05-29T08:10:09.000Z</time>
      </trkpt>
      <trkpt lat="47.45279" lon="6.79043">
        <ele>331</ele>
        <time>2016-05-29T08:10:10.000Z</time>
      </trkpt>
      <trkpt lat="47.45278" lon="6.79046">
        <ele>331</ele>
        <time>2016-05-29T08:10:11.000Z</time>
      </trkpt>
      <trkpt lat="47.45276" lon="6.79049">
        <ele>331</ele>
        <time>2016-05-29T08:10:12.000Z</time>
      </trkpt>
      <trkpt lat="47.45275" lon="6.79052">
        <ele>331</ele>
        <time>2016-05-29T08:10:13.001Z</time>
      </trkpt>
      <trkpt lat="47.45273" lon="6.79056">
        <ele>331</ele>
        <time>2016-05-29T08:10:14.000Z</time>
      </trkpt>
      <trkpt lat="47.45272" lon="6.79061">
        <ele>331</ele>
        <time>2016-05-29T08:10:15.000Z</time>
      </trkpt>
      <trkpt lat="47.4527" lon="6.79065">
        <ele>332</ele>
        <time>2016-05-29T08:10:16.000Z</time>
      </trkpt>
      <trkpt lat="47.45269" lon="6.7907">
        <ele>332</ele>
        <time>2016-05-29T08:10:17.000Z</time>
      </trkpt>
      <trkpt lat="47.45267" lon="6.79075">
        <ele>332</ele>
        <time>2016-05-29T08:10:18.000Z</time>
      </trkpt>
      <trkpt lat="47.45266" lon="6.79079">
        <ele>332</ele>
        <time>2016-05-29T08:10:19.000Z</time>
      </trkpt>
      <trkpt lat="47.45264" lon="6.79084">
        <ele>332</ele>
        <time>2016-05-29T08:10:20.000Z</time>
      </trkpt>
      <trkpt lat="47.45262" lon="6.79088">
        <ele>332</ele>
        <time>2016-05-29T08:10:21.000Z</time>
      </trkpt>
      <trkpt lat="47.4526" lon="6.79094">
        <ele>332</ele>
        <time>2016-05-29T08:10:22.000Z</time>
      </trkpt>
      <trkpt lat="47.45259" lon="6.79099">
        <ele>332</ele>
        <time>2016-05-29T08:10:23.000Z</time>
      </trkpt>
      <trkpt lat="47.45258" lon="6.79104">
        <ele>332</ele>
        <time>2016-05-29T08:10:24.000Z</time>
      </trkpt>
      <trkpt lat="47.45257" lon="6.79109">
        <ele>332</ele>
        <time>2016-05-29T08:10:24.999Z</time>
      </trkpt>
      <trkpt lat="47.45256" lon="6.79114">
        <ele>332</ele>
        <time>2016-05-29T08:10:26.000Z</time>
      </trkpt>
      <trkpt lat="47.45255" lon="6.79118">
        <ele>332</ele>
        <time>2016-05-29T08:10:27.000Z</time>
      </trkpt>
      <trkpt lat="47.45253" lon="6.79123">
        <ele>332</ele>
        <time>2016-05-29T08:10:28.000Z</time>
      </trkpt>
      <trkpt lat="47.4525" lon="6.79126">
        <ele>332</ele>
        <time>2016-05-29T08:10:29.000Z</time>
      </trkpt>
      <trkpt lat="47.45247" lon="6.79129">
        <ele>333</ele>
        <time>2016-05-29T08:10:30.000Z</time>
      </trkpt>
      <trkpt lat="47.4524" lon="6.79125">
        <ele>333</ele>
        <time>2016-05-29T08:10:31.000Z</time>
      </trkpt>
      <trkpt lat="47.45236" lon="6.79127">
        <ele>333</ele>
        <time>2016-05-29T08:10:32.000Z</time>
      </trkpt>
      <trkpt lat="47.45233" lon="6.7913">
        <ele>333</ele>
        <time>2016-05-29T08:10:33.000Z</time>
      </trkpt>
      <trkpt lat="47.4523" lon="6.7913">
        <ele>333</ele>
        <time>2016-05-29T08:10:34.000Z</time>
      </trkpt>
      <trkpt lat="47.45227" lon="6.79127">
        <ele>333</ele>
        <time>2016-05-29T08:10:37.000Z</time>
      </trkpt>
      <trkpt lat="47.45226" lon="6.79126">
        <ele>333</ele>
        <time>2016-05-29T08:10:38.001Z</time>
      </trkpt>
      <trkpt lat="47.45229" lon="6.7913">
        <ele>333</ele>
        <time>2016-05-29T08:10:43.000Z</time>
      </trkpt>
      <trkpt lat="47.45229" lon="6.79131">
        <ele>333</ele>
        <time>2016-05-29T08:10:44.000Z</time>
      </trkpt>
      <trkpt lat="47.45226" lon="6.79128">
        <ele>333</ele>
        <time>2016-05-29T08:11:02.000Z</time>
      </trkpt>
      <trkpt lat="47.45225" lon="6.79128">
        <ele>333</ele>
        <time>2016-05-29T08:11:03.000Z</time>
      </trkpt>
      <trkpt lat="47.45222" lon="6.7913">
        <ele>333</ele>
        <time>2016-05-29T08:11:05.000Z</time>
      </trkpt>
      <trkpt lat="47.45219" lon="6.79132">
        <ele>333</ele>
        <time>2016-05-29T08:11:06.000Z</time>
      </trkpt>
      <trkpt lat="47.45216" lon="6.79132">
        <ele>333</ele>
        <time>2016-05-29T08:11:06.999Z</time>
      </trkpt>
      <trkpt lat="47.45214" lon="6.79137">
        <ele>333</ele>
        <time>2016-05-29T08:11:08.000Z</time>
      </trkpt>
      <trkpt lat="47.45212" lon="6.79141">
        <ele>333</ele>
        <time>2016-05-29T08:11:09.000Z</time>
      </trkpt>
      <trkpt lat="47.4521" lon="6.79144">
        <ele>333</ele>
        <time>2016-05-29T08:11:10.000Z</time>
      </trkpt>
      <trkpt lat="47.4521" lon="6.79152">
        <ele>333</ele>
        <time>2016-05-29T08:11:11.000Z</time>
      </trkpt>
      <trkpt lat="47.45209" lon="6.79156">
        <ele>333</ele>
        <time>2016-05-29T08:11:11.999Z</time>
      </trkpt>
      <trkpt lat="47.45209" lon="6.79164">
        <ele>333</ele>
        <time>2016-05-29T08:11:13.000Z</time>
      </trkpt>
      <trkpt lat="47.45209" lon="6.79171">
        <ele>333</ele>
        <time>2016-05-29T08:11:14.000Z</time>
      </trkpt>
      <trkpt lat="47.45208" lon="6.79176">
        <ele>334</ele>
        <time>2016-05-29T08:11:15.000Z</time>
      </trkpt>
      <trkpt lat="47.45206" lon="6.79181">
        <ele>334</ele>
        <time>2016-05-29T08:11:16.000Z</time>
      </trkpt>
      <trkpt lat="47.45204" lon="6.79187">
        <ele>334</ele>
        <time>2016-05-29T08:11:17.000Z</time>
      </trkpt>
      <trkpt lat="47.45203" lon="6.79191">
        <ele>334</ele>
        <time>2016-05-29T08:11:18.000Z</time>
      </trkpt>
      <trkpt lat="47.45198" lon="6.792">
        <ele>334</ele>
        <time>2016-05-29T08:11:19.000Z</time>
      </trkpt>
      <trkpt lat="47.45197" lon="6.79206">
        <ele>334</ele>
        <time>2016-05-29T08:11:20.000Z</time>
      </trkpt>
      <trkpt lat="47.45195" lon="6.79212">
        <ele>334</ele>
        <time>2016-05-29T08:11:21.000Z</time>
      </trkpt>
      <trkpt lat="47.45193" lon="6.79219">
        <ele>334</ele>
        <time>2016-05-29T08:11:22.000Z</time>
      </trkpt>
      <trkpt lat="47.45192" lon="6.79225">
        <ele>334</ele>
        <time>2016-05-29T08:11:23.000Z</time>
      </trkpt>
      <trkpt lat="47.4519" lon="6.79231">
        <ele>334</ele>
        <time>2016-05-29T08:11:24.000Z</time>
      </trkpt>
      <trkpt lat="47.45189" lon="6.79238">
        <ele>335</ele>
        <time>2016-05-29T08:11:25.000Z</time>
      </trkpt>
      <trkpt lat="47.45189" lon="6.79245">
        <ele>335</ele>
        <time>2016-05-29T08:11:25.999Z</time>
      </trkpt>
      <trkpt lat="47.45189" lon="6.79252">
        <ele>335</ele>
        <time>2016-05-29T08:11:27.000Z</time>
      </trkpt>
      <trkpt lat="47.45187" lon="6.79258">
        <ele>335</ele>
        <time>2016-05-29T08:11:28.000Z</time>
      </trkpt>
      <trkpt lat="47.45186" lon="6.79263">
        <ele>335</ele>
        <time>2016-05-29T08:11:29.000Z</time>
      </trkpt>
      <trkpt lat="47.45184" lon="6.7927">
        <ele>335</ele>
        <time>2016-05-29T08:11:30.000Z</time>
      </trkpt>
      <trkpt lat="47.45183" lon="6.79278">
        <ele>335</ele>
        <time>2016-05-29T08:11:31.000Z</time>
      </trkpt>
      <trkpt lat="47.4518" lon="6.79287">
        <ele>334</ele>
        <time>2016-05-29T08:11:32.000Z</time>
      </trkpt>
      <trkpt lat="47.45179" lon="6.79295">
        <ele>334</ele>
        <time>2016-05-29T08:11:33.000Z</time>
      </trkpt>
      <trkpt lat="47.45178" lon="6.79303">
        <ele>334</ele>
        <time>2016-05-29T08:11:34.000Z</time>
      </trkpt>
      <trkpt lat="47.45176" lon="6.7931">
        <ele>334</ele>
        <time>2016-05-29T08:11:35.002Z</time>
      </trkpt>
      <trkpt lat="47.45173" lon="6.79318">
        <ele>335</ele>
        <time>2016-05-29T08:11:36.000Z</time>
      </trkpt>
      <trkpt lat="47.45169" lon="6.79322">
        <ele>335</ele>
        <time>2016-05-29T08:11:37.000Z</time>
      </trkpt>
      <trkpt lat="47.45165" lon="6.79328">
        <ele>335</ele>
        <time>2016-05-29T08:11:38.000Z</time>
      </trkpt>
      <trkpt lat="47.45163" lon="6.79334">
        <ele>335</ele>
        <time>2016-05-29T08:11:39.000Z</time>
      </trkpt>
      <trkpt lat="47.45162" lon="6.79339">
        <ele>335</ele>
        <time>2016-05-29T08:11:40.000Z</time>
      </trkpt>
      <trkpt lat="47.45161" lon="6.79345">
        <ele>334</ele>
        <time>2016-05-29T08:11:41.000Z</time>
      </trkpt>
      <trkpt lat="47.45159" lon="6.7935">
        <ele>334</ele>
        <time>2016-05-29T08:11:42.000Z</time>
      </trkpt>
      <trkpt lat="47.45157" lon="6.79356">
        <ele>334</ele>
        <time>2016-05-29T08:11:43.000Z</time>
      </trkpt>
      <trkpt lat="47.45155" lon="6.79361">
        <ele>334</ele>
        <time>2016-05-29T08:11:44.000Z</time>
      </trkpt>
      <trkpt lat="47.45155" lon="6.79365">
        <ele>334</ele>
        <time>2016-05-29T08:11:45.000Z</time>
      </trkpt>
      <trkpt lat="47.45153" lon="6.7937">
        <ele>334</ele>
        <time>2016-05-29T08:11:46.000Z</time>
      </trkpt>
      <trkpt lat="47.45151" lon="6.79382">
        <ele>334</ele>
        <time>2016-05-29T08:11:47.000Z</time>
      </trkpt>
      <trkpt lat="47.45147" lon="6.79387">
        <ele>334</ele>
        <time>2016-05-29T08:11:48.000Z</time>
      </trkpt>
      <trkpt lat="47.45146" lon="6.79394">
        <ele>334</ele>
        <time>2016-05-29T08:11:49.000Z</time>
      </trkpt>
      <trkpt lat="47.45145" lon="6.794">
        <ele>334</ele>
        <time>2016-05-29T08:11:50.000Z</time>
      </trkpt>
      <trkpt lat="47.45145" lon="6.79408">
        <ele>333</ele>
        <time>2016-05-29T08:11:51.000Z</time>
      </trkpt>
      <trkpt lat="47.45142" lon="6.79415">
        <ele>333</ele>
        <time>2016-05-29T08:11:52.000Z</time>
      </trkpt>
      <trkpt lat="47.45141" lon="6.79423">
        <ele>333</ele>
        <time>2016-05-29T08:11:53.000Z</time>
      </trkpt>
      <trkpt lat="47.4514" lon="6.79429">
        <ele>333</ele>
        <time>2016-05-29T08:11:54.000Z</time>
      </trkpt>
      <trkpt lat="47.4514" lon="6.79436">
        <ele>333</ele>
        <time>2016-05-29T08:11:55.000Z</time>
      </trkpt>
      <trkpt lat="47.4514" lon="6.79442">
        <ele>333</ele>
        <time>2016-05-29T08:11:56.000Z</time>
      </trkpt>
      <trkpt lat="47.45138" lon="6.7945">
        <ele>333</ele>
        <time>2016-05-29T08:11:57.000Z</time>
      </trkpt>
      <trkpt lat="47.45136" lon="6.79457">
        <ele>333</ele>
        <time>2016-05-29T08:11:58.000Z</time>
      </trkpt>
      <trkpt lat="47.45135" lon="6.79464">
        <ele>333</ele>
        <time>2016-05-29T08:11:59.000Z</time>
      </trkpt>
      <trkpt lat="47.45134" lon="6.7947">
        <ele>333</ele>
        <time>2016-05-29T08:12:00.000Z</time>
      </trkpt>
      <trkpt lat="47.45133" lon="6.79476">
        <ele>333</ele>
        <time>2016-05-29T08:12:01.000Z</time>
      </trkpt>
      <trkpt lat="47.45132" lon="6.79482">
        <ele>333</ele>
        <time>2016-05-29T08:12:02.000Z</time>
      </trkpt>
      <trkpt lat="47.45131" lon="6.79489">
        <ele>333</ele>
        <time>2016-05-29T08:12:03.000Z</time>
      </trkpt>
      <trkpt lat="47.4513" lon="6.79495">
        <ele>333</ele>
        <time>2016-05-29T08:12:04.000Z</time>
      </trkpt>
      <trkpt lat="47.45128" lon="6.795">
        <ele>333</ele>
        <time>2016-05-29T08:12:05.000Z</time>
      </trkpt>
      <trkpt lat="47.45127" lon="6.79507">
        <ele>333</ele>
        <time>2016-05-29T08:12:06.000Z</time>
      </trkpt>
      <trkpt lat="47.45126" lon="6.79513">
        <ele>333</ele>
        <time>2016-05-29T08:12:07.000Z</time>
      </trkpt>
      <trkpt lat="47.45125" lon="6.7952">
        <ele>333</ele>
        <time>2016-05-29T08:12:08.000Z</time>
      </trkpt>
      <trkpt lat="47.45125" lon="6.79526">
        <ele>333</ele>
        <time>2016-05-29T08:12:09.000Z</time>
      </trkpt>
      <trkpt lat="47.45124" lon="6.79531">
        <ele>333</ele>
        <time>2016-05-29T08:12:10.000Z</time>
      </trkpt>
      <trkpt lat="47.45122" lon="6.79536">
        <ele>333</ele>
        <time>2016-05-29T08:12:12.000Z</time>
      </trkpt>
      <trkpt lat="47.45121" lon="6.79536">
        <ele>333</ele>
        <time>2016-05-29T08:12:13.000Z</time>
      </trkpt>
      <trkpt lat="47.45117" lon="6.79539">
        <ele>333</ele>
        <time>2016-05-29T08:12:15.000Z</time>
      </trkpt>
      <trkpt lat="47.45114" lon="6.79543">
        <ele>333</ele>
        <time>2016-05-29T08:12:16.000Z</time>
      </trkpt>
      <trkpt lat="47.45111" lon="6.79547">
        <ele>333</ele>
        <time>2016-05-29T08:12:17.000Z</time>
      </trkpt>
      <trkpt lat="47.45108" lon="6.79551">
        <ele>333</ele>
        <time>2016-05-29T08:12:18.000Z</time>
      </trkpt>
      <trkpt lat="47.45104" lon="6.79558">
        <ele>333</ele>
        <time>2016-05-29T08:12:19.000Z</time>
      </trkpt>
      <trkpt lat="47.45101" lon="6.79562">
        <ele>333</ele>
        <time>2016-05-29T08:12:20.000Z</time>
      </trkpt>
      <trkpt lat="47.45097" lon="6.79566">
        <ele>333</ele>
        <time>2016-05-29T08:12:21.000Z</time>
      </trkpt>
      <trkpt lat="47.45094" lon="6.79571">
        <ele>333</ele>
        <time>2016-05-29T08:12:22.000Z</time>
      </trkpt>
      <trkpt lat="47.45091" lon="6.79575">
        <ele>333</ele>
        <time>2016-05-29T08:12:23.000Z</time>
      </trkpt>
      <trkpt lat="47.45088" lon="6.79579">
        <ele>333</ele>
        <time>2016-05-29T08:12:24.000Z</time>
      </trkpt>
      <trkpt lat="47.45085" lon="6.79583">
        <ele>333</ele>
        <time>2016-05-29T08:12:25.000Z</time>
      </trkpt>
      <trkpt lat="47.45082" lon="6.79587">
        <ele>333</ele>
        <time>2016-05-29T08:12:26.000Z</time>
      </trkpt>
      <trkpt lat="47.45079" lon="6.79591">
        <ele>333</ele>
        <time>2016-05-29T08:12:27.000Z</time>
      </trkpt>
      <trkpt lat="47.45076" lon="6.79594">
        <ele>334</ele>
        <time>2016-05-29T08:12:28.000Z</time>
      </trkpt>
      <trkpt lat="47.45073" lon="6.79598">
        <ele>334</ele>
        <time>2016-05-29T08:12:29.000Z</time>
      </trkpt>
      <trkpt lat="47.4507" lon="6.79601">
        <ele>334</ele>
        <time>2016-05-29T08:12:30.000Z</time>
      </trkpt>
      <trkpt lat="47.45067" lon="6.79605">
        <ele>334</ele>
        <time>2016-05-29T08:12:31.000Z</time>
      </trkpt>
      <trkpt lat="47.45064" lon="6.79608">
        <ele>334</ele>
        <time>2016-05-29T08:12:32.000Z</time>
      </trkpt>
      <trkpt lat="47.45061" lon="6.79612">
        <ele>334</ele>
        <time>2016-05-29T08:12:33.000Z</time>
      </trkpt>
      <trkpt lat="47.45059" lon="6.79615">
        <ele>334</ele>
        <time>2016-05-29T08:12:34.000Z</time>
      </trkpt>
      <trkpt lat="47.45056" lon="6.79618">
        <ele>334</ele>
        <time>2016-05-29T08:12:35.000Z</time>
      </trkpt>
      <trkpt lat="47.45054" lon="6.79621">
        <ele>334</ele>
        <time>2016-05-29T08:12:36.000Z</time>
      </trkpt>
      <trkpt lat="47.45051" lon="6.79623">
        <ele>334</ele>
        <time>2016-05-29T08:12:37.000Z</time>
      </trkpt>
      <trkpt lat="47.4505" lon="6.79625">
        <ele>334</ele>
        <time>2016-05-29T08:12:38.000Z</time>
      </trkpt>
      <trkpt lat="47.45047" lon="6.79629">
        <ele>335</ele>
        <time>2016-05-29T08:12:40.000Z</time>
      </trkpt>
      <trkpt lat="47.45047" lon="6.79632">
        <ele>335</ele>
        <time>2016-05-29T08:12:41.000Z</time>
      </trkpt>
      <trkpt lat="47.45046" lon="6.79638">
        <ele>335</ele>
        <time>2016-05-29T08:12:43.000Z</time>
      </trkpt>
      <trkpt lat="47.45046" lon="6.79642">
        <ele>335</ele>
        <time>2016-05-29T08:12:44.000Z</time>
      </trkpt>
      <trkpt lat="47.45044" lon="6.79646">
        <ele>335</ele>
        <time>2016-05-29T08:12:45.000Z</time>
      </trkpt>
      <trkpt lat="47.45043" lon="6.79649">
        <ele>335</ele>
        <time>2016-05-29T08:12:46.000Z</time>
      </trkpt>
      <trkpt lat="47.45041" lon="6.79654">
        <ele>335</ele>
        <time>2016-05-29T08:12:47.000Z</time>
      </trkpt>
      <trkpt lat="47.45039" lon="6.79658">
        <ele>335</ele>
        <time>2016-05-29T08:12:48.000Z</time>
      </trkpt>
      <trkpt lat="47.45037" lon="6.79662">
        <ele>335</ele>
        <time>2016-05-29T08:12:49.000Z</time>
      </trkpt>
      <trkpt lat="47.45036" lon="6.79667">
        <ele>338</ele>
        <time>2016-05-29T08:12:49.999Z</time>
      </trkpt>
      <trkpt lat="47.45035" lon="6.79671">
        <ele>338</ele>
        <time>2016-05-29T08:12:50.999Z</time>
      </trkpt>
      <trkpt lat="47.45035" lon="6.79677">
        <ele>338</ele>
        <time>2016-05-29T08:12:52.000Z</time>
      </trkpt>
      <trkpt lat="47.45034" lon="6.79681">
        <ele>338</ele>
        <time>2016-05-29T08:12:52.999Z</time>
      </trkpt>
      <trkpt lat="47.45036" lon="6.79687">
        <ele>338</ele>
        <time>2016-05-29T08:12:54.000Z</time>
      </trkpt>
      <trkpt lat="47.45036" lon="6.79692">
        <ele>339</ele>
        <time>2016-05-29T08:12:55.001Z</time>
      </trkpt>
      <trkpt lat="47.45037" lon="6.79696">
        <ele>339</ele>
        <time>2016-05-29T08:12:55.999Z</time>
      </trkpt>
      <trkpt lat="47.45037" lon="6.797">
        <ele>339</ele>
        <time>2016-05-29T08:12:57.000Z</time>
      </trkpt>
      <trkpt lat="47.45038" lon="6.79704">
        <ele>339</ele>
        <time>2016-05-29T08:12:58.000Z</time>
      </trkpt>
      <trkpt lat="47.45038" lon="6.79708">
        <ele>339</ele>
        <time>2016-05-29T08:12:59.000Z</time>
      </trkpt>
      <trkpt lat="47.4504" lon="6.79716">
        <ele>339</ele>
        <time>2016-05-29T08:13:00.000Z</time>
      </trkpt>
      <trkpt lat="47.45037" lon="6.7972">
        <ele>340</ele>
        <time>2016-05-29T08:13:05.000Z</time>
      </trkpt>
      <trkpt lat="47.45035" lon="6.79721">
        <ele>340</ele>
        <time>2016-05-29T08:13:06.000Z</time>
      </trkpt>
      <trkpt lat="47.45033" lon="6.79725">
        <ele>340</ele>
        <time>2016-05-29T08:13:08.000Z</time>
      </trkpt>
      <trkpt lat="47.45031" lon="6.79726">
        <ele>340</ele>
        <time>2016-05-29T08:13:09.000Z</time>
      </trkpt>
      <trkpt lat="47.45028" lon="6.79724">
        <ele>340</ele>
        <time>2016-05-29T08:13:12.000Z</time>
      </trkpt>
      <trkpt lat="47.45027" lon="6.79723">
        <ele>340</ele>
        <time>2016-05-29T08:13:13.000Z</time>
      </trkpt>
      <trkpt lat="47.45024" lon="6.79719">
        <ele>340</ele>
        <time>2016-05-29T08:13:16.000Z</time>
      </trkpt>
      <trkpt lat="47.45023" lon="6.79718">
        <ele>340</ele>
        <time>2016-05-29T08:13:17.000Z</time>
      </trkpt>
      <trkpt lat="47.4502" lon="6.79716">
        <ele>340</ele>
        <time>2016-05-29T08:13:21.000Z</time>
      </trkpt>
      <trkpt lat="47.45019" lon="6.79714">
        <ele>340</ele>
        <time>2016-05-29T08:13:22.000Z</time>
      </trkpt>
      <trkpt lat="47.45017" lon="6.79711">
        <ele>340</ele>
        <time>2016-05-29T08:13:24.000Z</time>
      </trkpt>
      <trkpt lat="47.45016" lon="6.79709">
        <ele>340</ele>
        <time>2016-05-29T08:13:25.000Z</time>
      </trkpt>
      <trkpt lat="47.45012" lon="6.79706">
        <ele>339</ele>
        <time>2016-05-29T08:13:27.999Z</time>
      </trkpt>
      <trkpt lat="47.45011" lon="6.79705">
        <ele>339</ele>
        <time>2016-05-29T08:13:29.000Z</time>
      </trkpt>
      <trkpt lat="47.45008" lon="6.797">
        <ele>339</ele>
        <time>2016-05-29T08:13:32.000Z</time>
      </trkpt>
      <trkpt lat="47.45007" lon="6.79699">
        <ele>339</ele>
        <time>2016-05-29T08:13:33.000Z</time>
      </trkpt>
      <trkpt lat="47.45003" lon="6.79697">
        <ele>339</ele>
        <time>2016-05-29T08:13:35.000Z</time>
      </trkpt>
      <trkpt lat="47.45002" lon="6.79697">
        <ele>339</ele>
        <time>2016-05-29T08:13:36.000Z</time>
      </trkpt>
      <trkpt lat="47.44997" lon="6.79695">
        <ele>342</ele>
        <time>2016-05-29T08:13:41.000Z</time>
      </trkpt>
      <trkpt lat="47.44996" lon="6.79695">
        <ele>342</ele>
        <time>2016-05-29T08:13:42.000Z</time>
      </trkpt>
      <trkpt lat="47.44993" lon="6.79693">
        <ele>342</ele>
        <time>2016-05-29T08:13:44.000Z</time>
      </trkpt>
      <trkpt lat="47.44992" lon="6.79692">
        <ele>342</ele>
        <time>2016-05-29T08:13:44.999Z</time>
      </trkpt>
      <trkpt lat="47.44988" lon="6.79691">
        <ele>342</ele>
        <time>2016-05-29T08:13:47.000Z</time>
      </trkpt>
      <trkpt lat="47.44986" lon="6.7969">
        <ele>342</ele>
        <time>2016-05-29T08:13:48.000Z</time>
      </trkpt>
      <trkpt lat="47.44983" lon="6.79688">
        <ele>342</ele>
        <time>2016-05-29T08:13:49.999Z</time>
      </trkpt>
      <trkpt lat="47.44981" lon="6.79689">
        <ele>342</ele>
        <time>2016-05-29T08:13:51.000Z</time>
      </trkpt>
      <trkpt lat="47.44977" lon="6.79689">
        <ele>342</ele>
        <time>2016-05-29T08:13:53.000Z</time>
      </trkpt>
      <trkpt lat="47.44976" lon="6.79689">
        <ele>342</ele>
        <time>2016-05-29T08:13:53.999Z</time>
      </trkpt>
      <trkpt lat="47.44973" lon="6.79687">
        <ele>342</ele>
        <time>2016-05-29T08:13:55.000Z</time>
      </trkpt>
      <trkpt lat="47.44971" lon="6.79686">
        <ele>342</ele>
        <time>2016-05-29T08:13:56.000Z</time>
      </trkpt>
      <trkpt lat="47.44969" lon="6.79686">
        <ele>342</ele>
        <time>2016-05-29T08:13:57.000Z</time>
      </trkpt>
      <trkpt lat="47.44966" lon="6.79687">
        <ele>342</ele>
        <time>2016-05-29T08:13:58.000Z</time>
      </trkpt>
      <trkpt lat="47.44962" lon="6.79689">
        <ele>343</ele>
        <time>2016-05-29T08:14:00.000Z</time>
      </trkpt>
      <trkpt lat="47.44961" lon="6.79691">
        <ele>343</ele>
        <time>2016-05-29T08:14:01.000Z</time>
      </trkpt>
      <trkpt lat="47.44958" lon="6.79694">
        <ele>343</ele>
        <time>2016-05-29T08:14:02.999Z</time>
      </trkpt>
      <trkpt lat="47.44958" lon="6.79697">
        <ele>343</ele>
        <time>2016-05-29T08:14:04.000Z</time>
      </trkpt>
      <trkpt lat="47.44957" lon="6.79702">
        <ele>344</ele>
        <time>2016-05-29T08:14:06.000Z</time>
      </trkpt>
      <trkpt lat="47.44956" lon="6.79704">
        <ele>344</ele>
        <time>2016-05-29T08:14:07.000Z</time>
      </trkpt>
      <trkpt lat="47.44954" lon="6.79708">
        <ele>344</ele>
        <time>2016-05-29T08:14:09.000Z</time>
      </trkpt>
      <trkpt lat="47.44953" lon="6.7971">
        <ele>344</ele>
        <time>2016-05-29T08:14:10.000Z</time>
      </trkpt>
      <trkpt lat="47.44948" lon="6.79713">
        <ele>344</ele>
        <time>2016-05-29T08:14:12.000Z</time>
      </trkpt>
      <trkpt lat="47.44947" lon="6.79714">
        <ele>344</ele>
        <time>2016-05-29T08:14:13.000Z</time>
      </trkpt>
      <trkpt lat="47.44944" lon="6.79716">
        <ele>345</ele>
        <time>2016-05-29T08:14:14.000Z</time>
      </trkpt>
      <trkpt lat="47.44942" lon="6.79718">
        <ele>345</ele>
        <time>2016-05-29T08:14:15.000Z</time>
      </trkpt>
      <trkpt lat="47.44939" lon="6.7972">
        <ele>345</ele>
        <time>2016-05-29T08:14:16.000Z</time>
      </trkpt>
      <trkpt lat="47.44936" lon="6.79722">
        <ele>345</ele>
        <time>2016-05-29T08:14:17.000Z</time>
      </trkpt>
      <trkpt lat="47.44934" lon="6.79723">
        <ele>345</ele>
        <time>2016-05-29T08:14:18.000Z</time>
      </trkpt>
      <trkpt lat="47.44931" lon="6.79724">
        <ele>346</ele>
        <time>2016-05-29T08:14:19.000Z</time>
      </trkpt>
      <trkpt lat="47.44927" lon="6.79725">
        <ele>346</ele>
        <time>2016-05-29T08:14:21.000Z</time>
      </trkpt>
      <trkpt lat="47.44925" lon="6.79724">
        <ele>346</ele>
        <time>2016-05-29T08:14:22.000Z</time>
      </trkpt>
      <trkpt lat="47.44921" lon="6.79725">
        <ele>346</ele>
        <time>2016-05-29T08:14:24.000Z</time>
      </trkpt>
      <trkpt lat="47.44919" lon="6.79727">
        <ele>346</ele>
        <time>2016-05-29T08:14:25.000Z</time>
      </trkpt>
      <trkpt lat="47.44915" lon="6.79729">
        <ele>348</ele>
        <time>2016-05-29T08:14:27.000Z</time>
      </trkpt>
      <trkpt lat="47.44913" lon="6.79731">
        <ele>348</ele>
        <time>2016-05-29T08:14:28.000Z</time>
      </trkpt>
      <trkpt lat="47.4491" lon="6.79734">
        <ele>348</ele>
        <time>2016-05-29T08:14:30.000Z</time>
      </trkpt>
      <trkpt lat="47.44908" lon="6.79736">
        <ele>348</ele>
        <time>2016-05-29T08:14:30.999Z</time>
      </trkpt>
      <trkpt lat="47.44906" lon="6.79737">
        <ele>348</ele>
        <time>2016-05-29T08:14:32.000Z</time>
      </trkpt>
      <trkpt lat="47.44904" lon="6.79739">
        <ele>348</ele>
        <time>2016-05-29T08:14:33.000Z</time>
      </trkpt>
      <trkpt lat="47.44901" lon="6.79741">
        <ele>348</ele>
        <time>2016-05-29T08:14:34.000Z</time>
      </trkpt>
      <trkpt lat="47.44899" lon="6.79742">
        <ele>348</ele>
        <time>2016-05-29T08:14:35.000Z</time>
      </trkpt>
      <trkpt lat="47.44896" lon="6.79743">
        <ele>348</ele>
        <time>2016-05-29T08:14:36.000Z</time>
      </trkpt>
      <trkpt lat="47.44894" lon="6.79741">
        <ele>348</ele>
        <time>2016-05-29T08:14:37.000Z</time>
      </trkpt>
      <trkpt lat="47.4489" lon="6.79739">
        <ele>348</ele>
        <time>2016-05-29T08:14:39.000Z</time>
      </trkpt>
      <trkpt lat="47.44888" lon="6.79738">
        <ele>348</ele>
        <time>2016-05-29T08:14:40.000Z</time>
      </trkpt>
      <trkpt lat="47.44884" lon="6.79735">
        <ele>347</ele>
        <time>2016-05-29T08:14:42.000Z</time>
      </trkpt>
      <trkpt lat="47.44882" lon="6.79733">
        <ele>347</ele>
        <time>2016-05-29T08:14:43.000Z</time>
      </trkpt>
      <trkpt lat="47.4488" lon="6.7973">
        <ele>347</ele>
        <time>2016-05-29T08:14:44.000Z</time>
      </trkpt>
      <trkpt lat="47.44878" lon="6.79728">
        <ele>347</ele>
        <time>2016-05-29T08:14:45.000Z</time>
      </trkpt>
      <trkpt lat="47.44876" lon="6.79726">
        <ele>347</ele>
        <time>2016-05-29T08:14:46.000Z</time>
      </trkpt>
      <trkpt lat="47.44873" lon="6.79725">
        <ele>347</ele>
        <time>2016-05-29T08:14:47.000Z</time>
      </trkpt>
      <trkpt lat="47.4487" lon="6.79724">
        <ele>347</ele>
        <time>2016-05-29T08:14:48.000Z</time>
      </trkpt>
      <trkpt lat="47.44867" lon="6.79722">
        <ele>347</ele>
        <time>2016-05-29T08:14:48.999Z</time>
      </trkpt>
      <trkpt lat="47.44863" lon="6.79721">
        <ele>347</ele>
        <time>2016-05-29T08:14:50.000Z</time>
      </trkpt>
      <trkpt lat="47.4486" lon="6.79719">
        <ele>347</ele>
        <time>2016-05-29T08:14:51.000Z</time>
      </trkpt>
      <trkpt lat="47.44857" lon="6.79718">
        <ele>347</ele>
        <time>2016-05-29T08:14:52.000Z</time>
      </trkpt>
      <trkpt lat="47.44853" lon="6.79718">
        <ele>347</ele>
        <time>2016-05-29T08:14:53.000Z</time>
      </trkpt>
      <trkpt lat="47.44851" lon="6.79718">
        <ele>347</ele>
        <time>2016-05-29T08:14:54.000Z</time>
      </trkpt>
      <trkpt lat="47.44848" lon="6.79718">
        <ele>347</ele>
        <time>2016-05-29T08:14:55.000Z</time>
      </trkpt>
      <trkpt lat="47.44845" lon="6.79718">
        <ele>347</ele>
        <time>2016-05-29T08:14:56.000Z</time>
      </trkpt>
      <trkpt lat="47.44842" lon="6.79719">
        <ele>347</ele>
        <time>2016-05-29T08:14:57.000Z</time>
      </trkpt>
      <trkpt lat="47.4484" lon="6.79719">
        <ele>347</ele>
        <time>2016-05-29T08:14:58.000Z</time>
      </trkpt>
      <trkpt lat="47.44837" lon="6.7972">
        <ele>347</ele>
        <time>2016-05-29T08:14:59.000Z</time>
      </trkpt>
      <trkpt lat="47.44834" lon="6.7972">
        <ele>347</ele>
        <time>2016-05-29T08:15:00.000Z</time>
      </trkpt>
      <trkpt lat="47.44831" lon="6.79721">
        <ele>347</ele>
        <time>2016-05-29T08:15:01.000Z</time>
      </trkpt>
      <trkpt lat="47.44828" lon="6.79722">
        <ele>348</ele>
        <time>2016-05-29T08:15:02.000Z</time>
      </trkpt>
      <trkpt lat="47.44825" lon="6.79723">
        <ele>348</ele>
        <time>2016-05-29T08:15:03.000Z</time>
      </trkpt>
      <trkpt lat="47.44822" lon="6.79726">
        <ele>348</ele>
        <time>2016-05-29T08:15:05.000Z</time>
      </trkpt>
      <trkpt lat="47.44821" lon="6.79728">
        <ele>348</ele>
        <time>2016-05-29T08:15:06.000Z</time>
      </trkpt>
      <trkpt lat="47.44819" lon="6.79732">
        <ele>348</ele>
        <time>2016-05-29T08:15:08.000Z</time>
      </trkpt>
      <trkpt lat="47.44819" lon="6.79735">
        <ele>348</ele>
        <time>2016-05-29T08:15:09.000Z</time>
      </trkpt>
      <trkpt lat="47.44818" lon="6.79739">
        <ele>349</ele>
        <time>2016-05-29T08:15:10.000Z</time>
      </trkpt>
      <trkpt lat="47.44817" lon="6.79743">
        <ele>349</ele>
        <time>2016-05-29T08:15:11.000Z</time>
      </trkpt>
      <trkpt lat="47.44816" lon="6.79748">
        <ele>349</ele>
        <time>2016-05-29T08:15:12.000Z</time>
      </trkpt>
      <trkpt lat="47.44815" lon="6.79753">
        <ele>352</ele>
        <time>2016-05-29T08:15:13.000Z</time>
      </trkpt>
      <trkpt lat="47.44815" lon="6.79757">
        <ele>352</ele>
        <time>2016-05-29T08:15:14.000Z</time>
      </trkpt>
      <trkpt lat="47.44814" lon="6.79762">
        <ele>352</ele>
        <time>2016-05-29T08:15:15.000Z</time>
      </trkpt>
      <trkpt lat="47.44814" lon="6.79766">
        <ele>352</ele>
        <time>2016-05-29T08:15:16.000Z</time>
      </trkpt>
      <trkpt lat="47.44813" lon="6.79769">
        <ele>352</ele>
        <time>2016-05-29T08:15:17.000Z</time>
      </trkpt>
      <trkpt lat="47.44813" lon="6.79772">
        <ele>352</ele>
        <time>2016-05-29T08:15:18.000Z</time>
      </trkpt>
      <trkpt lat="47.44812" lon="6.79776">
        <ele>352</ele>
        <time>2016-05-29T08:15:19.000Z</time>
      </trkpt>
      <trkpt lat="47.44811" lon="6.7978">
        <ele>353</ele>
        <time>2016-05-29T08:15:20.000Z</time>
      </trkpt>
      <trkpt lat="47.44811" lon="6.79784">
        <ele>353</ele>
        <time>2016-05-29T08:15:21.000Z</time>
      </trkpt>
      <trkpt lat="47.4481" lon="6.79789">
        <ele>353</ele>
        <time>2016-05-29T08:15:22.000Z</time>
      </trkpt>
      <trkpt lat="47.44809" lon="6.79792">
        <ele>353</ele>
        <time>2016-05-29T08:15:23.000Z</time>
      </trkpt>
      <trkpt lat="47.44809" lon="6.79798">
        <ele>353</ele>
        <time>2016-05-29T08:15:24.000Z</time>
      </trkpt>
      <trkpt lat="47.44809" lon="6.79801">
        <ele>353</ele>
        <time>2016-05-29T08:15:25.000Z</time>
      </trkpt>
      <trkpt lat="47.44809" lon="6.79805">
        <ele>353</ele>
        <time>2016-05-29T08:15:26.000Z</time>
      </trkpt>
      <trkpt lat="47.4481" lon="6.79809">
        <ele>353</ele>
        <time>2016-05-29T08:15:27.000Z</time>
      </trkpt>
      <trkpt lat="47.4481" lon="6.79813">
        <ele>353</ele>
        <time>2016-05-29T08:15:28.000Z</time>
      </trkpt>
      <trkpt lat="47.44809" lon="6.79817">
        <ele>353</ele>
        <time>2016-05-29T08:15:29.000Z</time>
      </trkpt>
      <trkpt lat="47.44809" lon="6.79821">
        <ele>353</ele>
        <time>2016-05-29T08:15:30.001Z</time>
      </trkpt>
      <trkpt lat="47.44808" lon="6.79826">
        <ele>353</ele>
        <time>2016-05-29T08:15:31.000Z</time>
      </trkpt>
      <trkpt lat="47.44807" lon="6.7983">
        <ele>353</ele>
        <time>2016-05-29T08:15:32.000Z</time>
      </trkpt>
      <trkpt lat="47.44807" lon="6.79834">
        <ele>354</ele>
        <time>2016-05-29T08:15:33.000Z</time>
      </trkpt>
      <trkpt lat="47.44806" lon="6.79838">
        <ele>354</ele>
        <time>2016-05-29T08:15:34.000Z</time>
      </trkpt>
      <trkpt lat="47.44806" lon="6.79842">
        <ele>354</ele>
        <time>2016-05-29T08:15:34.998Z</time>
      </trkpt>
      <trkpt lat="47.44807" lon="6.79848">
        <ele>354</ele>
        <time>2016-05-29T08:15:38.000Z</time>
      </trkpt>
      <trkpt lat="47.44806" lon="6.7985">
        <ele>354</ele>
        <time>2016-05-29T08:15:39.000Z</time>
      </trkpt>
      <trkpt lat="47.44805" lon="6.79854">
        <ele>354</ele>
        <time>2016-05-29T08:15:41.000Z</time>
      </trkpt>
      <trkpt lat="47.44803" lon="6.79859">
        <ele>354</ele>
        <time>2016-05-29T08:15:42.000Z</time>
      </trkpt>
      <trkpt lat="47.44802" lon="6.79863">
        <ele>354</ele>
        <time>2016-05-29T08:15:42.999Z</time>
      </trkpt>
      <trkpt lat="47.44801" lon="6.79868">
        <ele>355</ele>
        <time>2016-05-29T08:15:44.000Z</time>
      </trkpt>
      <trkpt lat="47.44801" lon="6.79872">
        <ele>355</ele>
        <time>2016-05-29T08:15:45.000Z</time>
      </trkpt>
      <trkpt lat="47.448" lon="6.79876">
        <ele>355</ele>
        <time>2016-05-29T08:15:45.999Z</time>
      </trkpt>
      <trkpt lat="47.44799" lon="6.79881">
        <ele>355</ele>
        <time>2016-05-29T08:15:47.000Z</time>
      </trkpt>
      <trkpt lat="47.44799" lon="6.79885">
        <ele>355</ele>
        <time>2016-05-29T08:15:48.000Z</time>
      </trkpt>
      <trkpt lat="47.44798" lon="6.79888">
        <ele>355</ele>
        <time>2016-05-29T08:15:49.000Z</time>
      </trkpt>
      <trkpt lat="47.44799" lon="6.79892">
        <ele>355</ele>
        <time>2016-05-29T08:15:50.000Z</time>
      </trkpt>
      <trkpt lat="47.44798" lon="6.79896">
        <ele>355</ele>
        <time>2016-05-29T08:15:51.000Z</time>
      </trkpt>
      <trkpt lat="47.44798" lon="6.799">
        <ele>355</ele>
        <time>2016-05-29T08:15:51.999Z</time>
      </trkpt>
      <trkpt lat="47.44799" lon="6.79905">
        <ele>355</ele>
        <time>2016-05-29T08:15:53.000Z</time>
      </trkpt>
      <trkpt lat="47.448" lon="6.79909">
        <ele>355</ele>
        <time>2016-05-29T08:15:54.000Z</time>
      </trkpt>
      <trkpt lat="47.448" lon="6.79914">
        <ele>355</ele>
        <time>2016-05-29T08:15:55.000Z</time>
      </trkpt>
      <trkpt lat="47.448" lon="6.79918">
        <ele>355</ele>
        <time>2016-05-29T08:15:56.000Z</time>
      </trkpt>
      <trkpt lat="47.44799" lon="6.79923">
        <ele>355</ele>
        <time>2016-05-29T08:15:57.000Z</time>
      </trkpt>
      <trkpt lat="47.44799" lon="6.79926">
        <ele>355</ele>
        <time>2016-05-29T08:15:58.000Z</time>
      </trkpt>
      <trkpt lat="47.44799" lon="6.79932">
        <ele>355</ele>
        <time>2016-05-29T08:15:59.000Z</time>
      </trkpt>
      <trkpt lat="47.44798" lon="6.79937">
        <ele>356</ele>
        <time>2016-05-29T08:16:00.001Z</time>
      </trkpt>
      <trkpt lat="47.44798" lon="6.79942">
        <ele>356</ele>
        <time>2016-05-29T08:16:01.000Z</time>
      </trkpt>
      <trkpt lat="47.44797" lon="6.79947">
        <ele>356</ele>
        <time>2016-05-29T08:16:02.000Z</time>
      </trkpt>
      <trkpt lat="47.44796" lon="6.79951">
        <ele>356</ele>
        <time>2016-05-29T08:16:03.000Z</time>
      </trkpt>
      <trkpt lat="47.44796" lon="6.79956">
        <ele>356</ele>
        <time>2016-05-29T08:16:04.000Z</time>
      </trkpt>
      <trkpt lat="47.44795" lon="6.7996">
        <ele>356</ele>
        <time>2016-05-29T08:16:05.000Z</time>
      </trkpt>
      <trkpt lat="47.44795" lon="6.79965">
        <ele>356</ele>
        <time>2016-05-29T08:16:06.000Z</time>
      </trkpt>
      <trkpt lat="47.44794" lon="6.79969">
        <ele>356</ele>
        <time>2016-05-29T08:16:07.000Z</time>
      </trkpt>
      <trkpt lat="47.44793" lon="6.79972">
        <ele>356</ele>
        <time>2016-05-29T08:16:08.000Z</time>
      </trkpt>
      <trkpt lat="47.44792" lon="6.79978">
        <ele>356</ele>
        <time>2016-05-29T08:16:10.000Z</time>
      </trkpt>
      <trkpt lat="47.44791" lon="6.79979">
        <ele>356</ele>
        <time>2016-05-29T08:16:11.000Z</time>
      </trkpt>
      <trkpt lat="47.44789" lon="6.79983">
        <ele>356</ele>
        <time>2016-05-29T08:16:14.000Z</time>
      </trkpt>
      <trkpt lat="47.44788" lon="6.79984">
        <ele>356</ele>
        <time>2016-05-29T08:16:15.001Z</time>
      </trkpt>
      <trkpt lat="47.44784" lon="6.79983">
        <ele>356</ele>
        <time>2016-05-29T08:16:17.000Z</time>
      </trkpt>
      <trkpt lat="47.44781" lon="6.79982">
        <ele>356</ele>
        <time>2016-05-29T08:16:18.000Z</time>
      </trkpt>
      <trkpt lat="47.44779" lon="6.79982">
        <ele>356</ele>
        <time>2016-05-29T08:16:19.000Z</time>
      </trkpt>
      <trkpt lat="47.44775" lon="6.7998">
        <ele>356</ele>
        <time>2016-05-29T08:16:20.000Z</time>
      </trkpt>
      <trkpt lat="47.44772" lon="6.79979">
        <ele>356</ele>
        <time>2016-05-29T08:16:21.001Z</time>
      </trkpt>
      <trkpt lat="47.44769" lon="6.79979">
        <ele>356</ele>
        <time>2016-05-29T08:16:22.000Z</time>
      </trkpt>
      <trkpt lat="47.44767" lon="6.79979">
        <ele>357</ele>
        <time>2016-05-29T08:16:23.000Z</time>
      </trkpt>
      <trkpt lat="47.44763" lon="6.79978">
        <ele>357</ele>
        <time>2016-05-29T08:16:24.000Z</time>
      </trkpt>
      <trkpt lat="47.4476" lon="6.79977">
        <ele>357</ele>
        <time>2016-05-29T08:16:25.000Z</time>
      </trkpt>
      <trkpt lat="47.44757" lon="6.79976">
        <ele>357</ele>
        <time>2016-05-29T08:16:25.999Z</time>
      </trkpt>
      <trkpt lat="47.44753" lon="6.79973">
        <ele>357</ele>
        <time>2016-05-29T08:16:27.000Z</time>
      </trkpt>
      <trkpt lat="47.4475" lon="6.79971">
        <ele>357</ele>
        <time>2016-05-29T08:16:28.000Z</time>
      </trkpt>
      <trkpt lat="47.44747" lon="6.7997">
        <ele>358</ele>
        <time>2016-05-29T08:16:29.000Z</time>
      </trkpt>
      <trkpt lat="47.44743" lon="6.79968">
        <ele>359</ele>
        <time>2016-05-29T08:16:30.000Z</time>
      </trkpt>
      <trkpt lat="47.4474" lon="6.79966">
        <ele>359</ele>
        <time>2016-05-29T08:16:31.000Z</time>
      </trkpt>
      <trkpt lat="47.44737" lon="6.79964">
        <ele>359</ele>
        <time>2016-05-29T08:16:31.999Z</time>
      </trkpt>
      <trkpt lat="47.44735" lon="6.79965">
        <ele>359</ele>
        <time>2016-05-29T08:16:33.000Z</time>
      </trkpt>
      <trkpt lat="47.44733" lon="6.79965">
        <ele>359</ele>
        <time>2016-05-29T08:16:34.000Z</time>
      </trkpt>
      <trkpt lat="47.44728" lon="6.79966">
        <ele>359</ele>
        <time>2016-05-29T08:16:36.000Z</time>
      </trkpt>
      <trkpt lat="47.44726" lon="6.79966">
        <ele>359</ele>
        <time>2016-05-29T08:16:37.001Z</time>
      </trkpt>
      <trkpt lat="47.44724" lon="6.79966">
        <ele>359</ele>
        <time>2016-05-29T08:16:38.000Z</time>
      </trkpt>
      <trkpt lat="47.44721" lon="6.79966">
        <ele>359</ele>
        <time>2016-05-29T08:16:39.000Z</time>
      </trkpt>
      <trkpt lat="47.44719" lon="6.79966">
        <ele>359</ele>
        <time>2016-05-29T08:16:40.000Z</time>
      </trkpt>
      <trkpt lat="47.44717" lon="6.79966">
        <ele>359</ele>
        <time>2016-05-29T08:16:41.000Z</time>
      </trkpt>
      <trkpt lat="47.44714" lon="6.79966">
        <ele>359</ele>
        <time>2016-05-29T08:16:42.000Z</time>
      </trkpt>
      <trkpt lat="47.44712" lon="6.79966">
        <ele>359</ele>
        <time>2016-05-29T08:16:43.000Z</time>
      </trkpt>
      <trkpt lat="47.44709" lon="6.79965">
        <ele>359</ele>
        <time>2016-05-29T08:16:44.000Z</time>
      </trkpt>
      <trkpt lat="47.44707" lon="6.79965">
        <ele>359</ele>
        <time>2016-05-29T08:16:45.000Z</time>
      </trkpt>
      <trkpt lat="47.44704" lon="6.79964">
        <ele>359</ele>
        <time>2016-05-29T08:16:46.000Z</time>
      </trkpt>
      <trkpt lat="47.44702" lon="6.79964">
        <ele>359</ele>
        <time>2016-05-29T08:16:47.000Z</time>
      </trkpt>
      <trkpt lat="47.44699" lon="6.79963">
        <ele>359</ele>
        <time>2016-05-29T08:16:48.000Z</time>
      </trkpt>
      <trkpt lat="47.44697" lon="6.79962">
        <ele>359</ele>
        <time>2016-05-29T08:16:49.000Z</time>
      </trkpt>
      <trkpt lat="47.44694" lon="6.79962">
        <ele>359</ele>
        <time>2016-05-29T08:16:50.000Z</time>
      </trkpt>
      <trkpt lat="47.44692" lon="6.79962">
        <ele>359</ele>
        <time>2016-05-29T08:16:51.000Z</time>
      </trkpt>
      <trkpt lat="47.44689" lon="6.79961">
        <ele>359</ele>
        <time>2016-05-29T08:16:52.000Z</time>
      </trkpt>
      <trkpt lat="47.44687" lon="6.79961">
        <ele>359</ele>
        <time>2016-05-29T08:16:53.000Z</time>
      </trkpt>
      <trkpt lat="47.44685" lon="6.7996">
        <ele>359</ele>
        <time>2016-05-29T08:16:54.000Z</time>
      </trkpt>
      <trkpt lat="47.44682" lon="6.7996">
        <ele>359</ele>
        <time>2016-05-29T08:16:55.000Z</time>
      </trkpt>
      <trkpt lat="47.4468" lon="6.79959">
        <ele>359</ele>
        <time>2016-05-29T08:16:56.000Z</time>
      </trkpt>
      <trkpt lat="47.44677" lon="6.79959">
        <ele>359</ele>
        <time>2016-05-29T08:16:57.000Z</time>
      </trkpt>
      <trkpt lat="47.44674" lon="6.79959">
        <ele>360</ele>
        <time>2016-05-29T08:16:58.000Z</time>
      </trkpt>
      <trkpt lat="47.44672" lon="6.79958">
        <ele>360</ele>
        <time>2016-05-29T08:16:59.000Z</time>
      </trkpt>
      <trkpt lat="47.44669" lon="6.79957">
        <ele>360</ele>
        <time>2016-05-29T08:17:00.000Z</time>
      </trkpt>
      <trkpt lat="47.44667" lon="6.79957">
        <ele>360</ele>
        <time>2016-05-29T08:17:01.000Z</time>
      </trkpt>
      <trkpt lat="47.44664" lon="6.79956">
        <ele>361</ele>
        <time>2016-05-29T08:17:02.000Z</time>
      </trkpt>
      <trkpt lat="47.44661" lon="6.79956">
        <ele>361</ele>
        <time>2016-05-29T08:17:03.000Z</time>
      </trkpt>
      <trkpt lat="47.44659" lon="6.79956">
        <ele>361</ele>
        <time>2016-05-29T08:17:04.000Z</time>
      </trkpt>
      <trkpt lat="47.44656" lon="6.79955">
        <ele>361</ele>
        <time>2016-05-29T08:17:05.000Z</time>
      </trkpt>
      <trkpt lat="47.44653" lon="6.79955">
        <ele>361</ele>
        <time>2016-05-29T08:17:06.000Z</time>
      </trkpt>
      <trkpt lat="47.4465" lon="6.79955">
        <ele>361</ele>
        <time>2016-05-29T08:17:07.000Z</time>
      </trkpt>
      <trkpt lat="47.44648" lon="6.79954">
        <ele>361</ele>
        <time>2016-05-29T08:17:08.000Z</time>
      </trkpt>
      <trkpt lat="47.44645" lon="6.79954">
        <ele>361</ele>
        <time>2016-05-29T08:17:09.000Z</time>
      </trkpt>
      <trkpt lat="47.44642" lon="6.79953">
        <ele>362</ele>
        <time>2016-05-29T08:17:10.000Z</time>
      </trkpt>
      <trkpt lat="47.44639" lon="6.79953">
        <ele>362</ele>
        <time>2016-05-29T08:17:11.000Z</time>
      </trkpt>
      <trkpt lat="47.44637" lon="6.79953">
        <ele>362</ele>
        <time>2016-05-29T08:17:12.000Z</time>
      </trkpt>
      <trkpt lat="47.44634" lon="6.79953">
        <ele>362</ele>
        <time>2016-05-29T08:17:13.000Z</time>
      </trkpt>
      <trkpt lat="47.44632" lon="6.79952">
        <ele>362</ele>
        <time>2016-05-29T08:17:14.000Z</time>
      </trkpt>
      <trkpt lat="47.4463" lon="6.79951">
        <ele>362</ele>
        <time>2016-05-29T08:17:15.000Z</time>
      </trkpt>
      <trkpt lat="47.44627" lon="6.7995">
        <ele>362</ele>
        <time>2016-05-29T08:17:16.000Z</time>
      </trkpt>
      <trkpt lat="47.44625" lon="6.79948">
        <ele>362</ele>
        <time>2016-05-29T08:17:17.000Z</time>
      </trkpt>
      <trkpt lat="47.44623" lon="6.79947">
        <ele>362</ele>
        <time>2016-05-29T08:17:18.000Z</time>
      </trkpt>
      <trkpt lat="47.44621" lon="6.79945">
        <ele>362</ele>
        <time>2016-05-29T08:17:19.000Z</time>
      </trkpt>
      <trkpt lat="47.44619" lon="6.79943">
        <ele>362</ele>
        <time>2016-05-29T08:17:20.000Z</time>
      </trkpt>
      <trkpt lat="47.44616" lon="6.79942">
        <ele>362</ele>
        <time>2016-05-29T08:17:21.000Z</time>
      </trkpt>
      <trkpt lat="47.44614" lon="6.7994">
        <ele>362</ele>
        <time>2016-05-29T08:17:22.000Z</time>
      </trkpt>
      <trkpt lat="47.44612" lon="6.79938">
        <ele>362</ele>
        <time>2016-05-29T08:17:23.000Z</time>
      </trkpt>
      <trkpt lat="47.44609" lon="6.79937">
        <ele>362</ele>
        <time>2016-05-29T08:17:24.000Z</time>
      </trkpt>
      <trkpt lat="47.44606" lon="6.79936">
        <ele>362</ele>
        <time>2016-05-29T08:17:25.000Z</time>
      </trkpt>
      <trkpt lat="47.44603" lon="6.79935">
        <ele>362</ele>
        <time>2016-05-29T08:17:26.000Z</time>
      </trkpt>
      <trkpt lat="47.44601" lon="6.79934">
        <ele>362</ele>
        <time>2016-05-29T08:17:27.000Z</time>
      </trkpt>
      <trkpt lat="47.44598" lon="6.79932">
        <ele>362</ele>
        <time>2016-05-29T08:17:27.999Z</time>
      </trkpt>
      <trkpt lat="47.44595" lon="6.79932">
        <ele>362</ele>
        <time>2016-05-29T08:17:29.000Z</time>
      </trkpt>
      <trkpt lat="47.44592" lon="6.79931">
        <ele>362</ele>
        <time>2016-05-29T08:17:30.000Z</time>
      </trkpt>
      <trkpt lat="47.44589" lon="6.79931">
        <ele>362</ele>
        <time>2016-05-29T08:17:31.000Z</time>
      </trkpt>
      <trkpt lat="47.44586" lon="6.7993">
        <ele>363</ele>
        <time>2016-05-29T08:17:32.000Z</time>
      </trkpt>
      <trkpt lat="47.44582" lon="6.79929">
        <ele>363</ele>
        <time>2016-05-29T08:17:33.000Z</time>
      </trkpt>
      <trkpt lat="47.44579" lon="6.79929">
        <ele>363</ele>
        <time>2016-05-29T08:17:34.000Z</time>
      </trkpt>
      <trkpt lat="47.44576" lon="6.79928">
        <ele>364</ele>
        <time>2016-05-29T08:17:35.000Z</time>
      </trkpt>
      <trkpt lat="47.44573" lon="6.79927">
        <ele>364</ele>
        <time>2016-05-29T08:17:36.000Z</time>
      </trkpt>
      <trkpt lat="47.4457" lon="6.79927">
        <ele>364</ele>
        <time>2016-05-29T08:17:37.000Z</time>
      </trkpt>
      <trkpt lat="47.44567" lon="6.79926">
        <ele>364</ele>
        <time>2016-05-29T08:17:38.000Z</time>
      </trkpt>
      <trkpt lat="47.44564" lon="6.79925">
        <ele>364</ele>
        <time>2016-05-29T08:17:39.000Z</time>
      </trkpt>
      <trkpt lat="47.44561" lon="6.79924">
        <ele>364</ele>
        <time>2016-05-29T08:17:40.000Z</time>
      </trkpt>
      <trkpt lat="47.44558" lon="6.79923">
        <ele>364</ele>
        <time>2016-05-29T08:17:41.000Z</time>
      </trkpt>
      <trkpt lat="47.44555" lon="6.79922">
        <ele>364</ele>
        <time>2016-05-29T08:17:42.000Z</time>
      </trkpt>
      <trkpt lat="47.44553" lon="6.79922">
        <ele>364</ele>
        <time>2016-05-29T08:17:43.000Z</time>
      </trkpt>
      <trkpt lat="47.4455" lon="6.7992">
        <ele>364</ele>
        <time>2016-05-29T08:17:44.000Z</time>
      </trkpt>
      <trkpt lat="47.44547" lon="6.79919">
        <ele>364</ele>
        <time>2016-05-29T08:17:45.000Z</time>
      </trkpt>
      <trkpt lat="47.44545" lon="6.79918">
        <ele>364</ele>
        <time>2016-05-29T08:17:46.000Z</time>
      </trkpt>
      <trkpt lat="47.44543" lon="6.79917">
        <ele>364</ele>
        <time>2016-05-29T08:17:47.000Z</time>
      </trkpt>
      <trkpt lat="47.44541" lon="6.79916">
        <ele>365</ele>
        <time>2016-05-29T08:17:48.000Z</time>
      </trkpt>
      <trkpt lat="47.44538" lon="6.79915">
        <ele>365</ele>
        <time>2016-05-29T08:17:49.000Z</time>
      </trkpt>
      <trkpt lat="47.44535" lon="6.79914">
        <ele>365</ele>
        <time>2016-05-29T08:17:50.000Z</time>
      </trkpt>
      <trkpt lat="47.44532" lon="6.79913">
        <ele>365</ele>
        <time>2016-05-29T08:17:51.000Z</time>
      </trkpt>
      <trkpt lat="47.4453" lon="6.79912">
        <ele>365</ele>
        <time>2016-05-29T08:17:52.000Z</time>
      </trkpt>
      <trkpt lat="47.44527" lon="6.79912">
        <ele>365</ele>
        <time>2016-05-29T08:17:53.000Z</time>
      </trkpt>
      <trkpt lat="47.44524" lon="6.79911">
        <ele>365</ele>
        <time>2016-05-29T08:17:54.000Z</time>
      </trkpt>
      <trkpt lat="47.44521" lon="6.79911">
        <ele>365</ele>
        <time>2016-05-29T08:17:55.000Z</time>
      </trkpt>
      <trkpt lat="47.44519" lon="6.79911">
        <ele>365</ele>
        <time>2016-05-29T08:17:56.000Z</time>
      </trkpt>
      <trkpt lat="47.44516" lon="6.79911">
        <ele>365</ele>
        <time>2016-05-29T08:17:57.000Z</time>
      </trkpt>
      <trkpt lat="47.44514" lon="6.7991">
        <ele>366</ele>
        <time>2016-05-29T08:17:58.000Z</time>
      </trkpt>
      <trkpt lat="47.44511" lon="6.79911">
        <ele>366</ele>
        <time>2016-05-29T08:17:59.000Z</time>
      </trkpt>
      <trkpt lat="47.44509" lon="6.79911">
        <ele>366</ele>
        <time>2016-05-29T08:18:00.000Z</time>
      </trkpt>
      <trkpt lat="47.44506" lon="6.79911">
        <ele>366</ele>
        <time>2016-05-29T08:18:01.000Z</time>
      </trkpt>
      <trkpt lat="47.44504" lon="6.79912">
        <ele>366</ele>
        <time>2016-05-29T08:18:02.000Z</time>
      </trkpt>
      <trkpt lat="47.44502" lon="6.79912">
        <ele>366</ele>
        <time>2016-05-29T08:18:03.000Z</time>
      </trkpt>
      <trkpt lat="47.44499" lon="6.79912">
        <ele>367</ele>
        <time>2016-05-29T08:18:04.000Z</time>
      </trkpt>
      <trkpt lat="47.44497" lon="6.79912">
        <ele>367</ele>
        <time>2016-05-29T08:18:05.000Z</time>
      </trkpt>
      <trkpt lat="47.44495" lon="6.79913">
        <ele>367</ele>
        <time>2016-05-29T08:18:06.000Z</time>
      </trkpt>
      <trkpt lat="47.44492" lon="6.79913">
        <ele>368</ele>
        <time>2016-05-29T08:18:07.000Z</time>
      </trkpt>
      <trkpt lat="47.4449" lon="6.79912">
        <ele>368</ele>
        <time>2016-05-29T08:18:08.000Z</time>
      </trkpt>
      <trkpt lat="47.44488" lon="6.79911">
        <ele>368</ele>
        <time>2016-05-29T08:18:09.000Z</time>
      </trkpt>
      <trkpt lat="47.44484" lon="6.7991">
        <ele>369</ele>
        <time>2016-05-29T08:18:11.000Z</time>
      </trkpt>
      <trkpt lat="47.44482" lon="6.79909">
        <ele>369</ele>
        <time>2016-05-29T08:18:12.000Z</time>
      </trkpt>
      <trkpt lat="47.44477" lon="6.79907">
        <ele>370</ele>
        <time>2016-05-29T08:18:14.000Z</time>
      </trkpt>
      <trkpt lat="47.44476" lon="6.79906">
        <ele>370</ele>
        <time>2016-05-29T08:18:15.000Z</time>
      </trkpt>
      <trkpt lat="47.44472" lon="6.79905">
        <ele>370</ele>
        <time>2016-05-29T08:18:17.000Z</time>
      </trkpt>
      <trkpt lat="47.4447" lon="6.79905">
        <ele>370</ele>
        <time>2016-05-29T08:18:18.000Z</time>
      </trkpt>
      <trkpt lat="47.44466" lon="6.79905">
        <ele>371</ele>
        <time>2016-05-29T08:18:20.001Z</time>
      </trkpt>
      <trkpt lat="47.44464" lon="6.79905">
        <ele>371</ele>
        <time>2016-05-29T08:18:21.000Z</time>
      </trkpt>
      <trkpt lat="47.4446" lon="6.79904">
        <ele>371</ele>
        <time>2016-05-29T08:18:23.000Z</time>
      </trkpt>
      <trkpt lat="47.44458" lon="6.79903">
        <ele>371</ele>
        <time>2016-05-29T08:18:24.000Z</time>
      </trkpt>
      <trkpt lat="47.44453" lon="6.799">
        <ele>372</ele>
        <time>2016-05-29T08:18:26.000Z</time>
      </trkpt>
      <trkpt lat="47.44451" lon="6.79899">
        <ele>372</ele>
        <time>2016-05-29T08:18:27.000Z</time>
      </trkpt>
      <trkpt lat="47.44448" lon="6.79897">
        <ele>372</ele>
        <time>2016-05-29T08:18:29.000Z</time>
      </trkpt>
      <trkpt lat="47.44446" lon="6.79895">
        <ele>372</ele>
        <time>2016-05-29T08:18:30.000Z</time>
      </trkpt>
      <trkpt lat="47.44443" lon="6.79892">
        <ele>372</ele>
        <time>2016-05-29T08:18:32.000Z</time>
      </trkpt>
      <trkpt lat="47.44441" lon="6.79891">
        <ele>372</ele>
        <time>2016-05-29T08:18:33.000Z</time>
      </trkpt>
      <trkpt lat="47.44437" lon="6.7989">
        <ele>372</ele>
        <time>2016-05-29T08:18:35.000Z</time>
      </trkpt>
      <trkpt lat="47.44435" lon="6.7989">
        <ele>373</ele>
        <time>2016-05-29T08:18:36.000Z</time>
      </trkpt>
      <trkpt lat="47.44432" lon="6.79887">
        <ele>373</ele>
        <time>2016-05-29T08:18:38.000Z</time>
      </trkpt>
      <trkpt lat="47.4443" lon="6.79886">
        <ele>373</ele>
        <time>2016-05-29T08:18:39.000Z</time>
      </trkpt>
      <trkpt lat="47.44426" lon="6.79885">
        <ele>373</ele>
        <time>2016-05-29T08:18:41.000Z</time>
      </trkpt>
      <trkpt lat="47.44425" lon="6.79884">
        <ele>373</ele>
        <time>2016-05-29T08:18:41.999Z</time>
      </trkpt>
      <trkpt lat="47.44423" lon="6.79883">
        <ele>373</ele>
        <time>2016-05-29T08:18:43.000Z</time>
      </trkpt>
      <trkpt lat="47.4442" lon="6.79882">
        <ele>373</ele>
        <time>2016-05-29T08:18:44.000Z</time>
      </trkpt>
      <trkpt lat="47.44418" lon="6.7988">
        <ele>373</ele>
        <time>2016-05-29T08:18:45.001Z</time>
      </trkpt>
      <trkpt lat="47.44416" lon="6.7988">
        <ele>381</ele>
        <time>2016-05-29T08:18:46.000Z</time>
      </trkpt>
      <trkpt lat="47.44412" lon="6.7988">
        <ele>381</ele>
        <time>2016-05-29T08:18:48.000Z</time>
      </trkpt>
      <trkpt lat="47.4441" lon="6.7988">
        <ele>381</ele>
        <time>2016-05-29T08:18:49.000Z</time>
      </trkpt>
      <trkpt lat="47.44406" lon="6.79878">
        <ele>381</ele>
        <time>2016-05-29T08:18:51.000Z</time>
      </trkpt>
      <trkpt lat="47.44402" lon="6.79877">
        <ele>381</ele>
        <time>2016-05-29T08:18:52.001Z</time>
      </trkpt>
      <trkpt lat="47.44399" lon="6.79876">
        <ele>382</ele>
        <time>2016-05-29T08:18:53.000Z</time>
      </trkpt>
      <trkpt lat="47.44396" lon="6.79876">
        <ele>382</ele>
        <time>2016-05-29T08:18:54.000Z</time>
      </trkpt>
      <trkpt lat="47.44393" lon="6.79873">
        <ele>382</ele>
        <time>2016-05-29T08:18:57.000Z</time>
      </trkpt>
      <trkpt lat="47.44392" lon="6.79872">
        <ele>382</ele>
        <time>2016-05-29T08:18:58.000Z</time>
      </trkpt>
      <trkpt lat="47.44389" lon="6.79868">
        <ele>382</ele>
        <time>2016-05-29T08:19:01.000Z</time>
      </trkpt>
      <trkpt lat="47.44389" lon="6.79866">
        <ele>382</ele>
        <time>2016-05-29T08:19:02.000Z</time>
      </trkpt>
      <trkpt lat="47.44389" lon="6.79861">
        <ele>382</ele>
        <time>2016-05-29T08:19:05.000Z</time>
      </trkpt>
      <trkpt lat="47.44389" lon="6.79859">
        <ele>382</ele>
        <time>2016-05-29T08:19:06.000Z</time>
      </trkpt>
      <trkpt lat="47.4439" lon="6.79854">
        <ele>382</ele>
        <time>2016-05-29T08:19:08.000Z</time>
      </trkpt>
      <trkpt lat="47.4439" lon="6.79852">
        <ele>382</ele>
        <time>2016-05-29T08:19:09.000Z</time>
      </trkpt>
      <trkpt lat="47.44393" lon="6.79848">
        <ele>381</ele>
        <time>2016-05-29T08:19:12.000Z</time>
      </trkpt>
      <trkpt lat="47.44393" lon="6.79846">
        <ele>381</ele>
        <time>2016-05-29T08:19:13.000Z</time>
      </trkpt>
      <trkpt lat="47.44394" lon="6.7984">
        <ele>381</ele>
        <time>2016-05-29T08:19:17.000Z</time>
      </trkpt>
      <trkpt lat="47.44394" lon="6.79839">
        <ele>381</ele>
        <time>2016-05-29T08:19:18.000Z</time>
      </trkpt>
      <trkpt lat="47.44394" lon="6.79834">
        <ele>381</ele>
        <time>2016-05-29T08:19:22.000Z</time>
      </trkpt>
      <trkpt lat="47.44394" lon="6.79832">
        <ele>383</ele>
        <time>2016-05-29T08:19:23.000Z</time>
      </trkpt>
      <trkpt lat="47.44395" lon="6.79827">
        <ele>383</ele>
        <time>2016-05-29T08:19:26.000Z</time>
      </trkpt>
      <trkpt lat="47.44396" lon="6.79826">
        <ele>383</ele>
        <time>2016-05-29T08:19:27.000Z</time>
      </trkpt>
      <trkpt lat="47.44397" lon="6.79821">
        <ele>383</ele>
        <time>2016-05-29T08:19:30.000Z</time>
      </trkpt>
      <trkpt lat="47.44398" lon="6.79819">
        <ele>383</ele>
        <time>2016-05-29T08:19:31.000Z</time>
      </trkpt>
      <trkpt lat="47.44398" lon="6.79813">
        <ele>384</ele>
        <time>2016-05-29T08:19:34.000Z</time>
      </trkpt>
      <trkpt lat="47.44398" lon="6.79811">
        <ele>384</ele>
        <time>2016-05-29T08:19:35.000Z</time>
      </trkpt>
      <trkpt lat="47.44397" lon="6.79804">
        <ele>385</ele>
        <time>2016-05-29T08:19:38.000Z</time>
      </trkpt>
      <trkpt lat="47.44396" lon="6.79802">
        <ele>385</ele>
        <time>2016-05-29T08:19:39.000Z</time>
      </trkpt>
      <trkpt lat="47.44395" lon="6.79797">
        <ele>385</ele>
        <time>2016-05-29T08:19:41.000Z</time>
      </trkpt>
      <trkpt lat="47.44394" lon="6.79795">
        <ele>385</ele>
        <time>2016-05-29T08:19:42.000Z</time>
      </trkpt>
      <trkpt lat="47.44393" lon="6.7979">
        <ele>386</ele>
        <time>2016-05-29T08:19:45.000Z</time>
      </trkpt>
      <trkpt lat="47.44393" lon="6.79789">
        <ele>386</ele>
        <time>2016-05-29T08:19:46.000Z</time>
      </trkpt>
      <trkpt lat="47.44389" lon="6.79785">
        <ele>386</ele>
        <time>2016-05-29T08:19:51.000Z</time>
      </trkpt>
      <trkpt lat="47.44389" lon="6.79784">
        <ele>386</ele>
        <time>2016-05-29T08:19:52.000Z</time>
      </trkpt>
      <trkpt lat="47.44385" lon="6.79782">
        <ele>387</ele>
        <time>2016-05-29T08:19:59.000Z</time>
      </trkpt>
      <trkpt lat="47.44384" lon="6.79783">
        <ele>387</ele>
        <time>2016-05-29T08:20:00.000Z</time>
      </trkpt>
      <trkpt lat="47.44381" lon="6.79784">
        <ele>387</ele>
        <time>2016-05-29T08:20:03.000Z</time>
      </trkpt>
      <trkpt lat="47.4438" lon="6.79785">
        <ele>387</ele>
        <time>2016-05-29T08:20:04.000Z</time>
      </trkpt>
      <trkpt lat="47.44376" lon="6.79786">
        <ele>388</ele>
        <time>2016-05-29T08:20:08.000Z</time>
      </trkpt>
      <trkpt lat="47.44375" lon="6.79786">
        <ele>388</ele>
        <time>2016-05-29T08:20:09.000Z</time>
      </trkpt>
      <trkpt lat="47.44371" lon="6.79788">
        <ele>388</ele>
        <time>2016-05-29T08:20:14.000Z</time>
      </trkpt>
      <trkpt lat="47.44371" lon="6.79789">
        <ele>388</ele>
        <time>2016-05-29T08:20:15.000Z</time>
      </trkpt>
      <trkpt lat="47.44368" lon="6.79792">
        <ele>389</ele>
        <time>2016-05-29T08:20:18.000Z</time>
      </trkpt>
      <trkpt lat="47.44366" lon="6.79792">
        <ele>389</ele>
        <time>2016-05-29T08:20:19.000Z</time>
      </trkpt>
      <trkpt lat="47.44364" lon="6.79796">
        <ele>389</ele>
        <time>2016-05-29T08:20:24.000Z</time>
      </trkpt>
      <trkpt lat="47.44363" lon="6.79796">
        <ele>389</ele>
        <time>2016-05-29T08:20:25.000Z</time>
      </trkpt>
      <trkpt lat="47.4436" lon="6.79799">
        <ele>389</ele>
        <time>2016-05-29T08:20:29.000Z</time>
      </trkpt>
      <trkpt lat="47.44358" lon="6.79799">
        <ele>389</ele>
        <time>2016-05-29T08:20:30.000Z</time>
      </trkpt>
      <trkpt lat="47.44355" lon="6.79802">
        <ele>390</ele>
        <time>2016-05-29T08:20:32.000Z</time>
      </trkpt>
      <trkpt lat="47.44354" lon="6.79804">
        <ele>390</ele>
        <time>2016-05-29T08:20:33.000Z</time>
      </trkpt>
      <trkpt lat="47.44351" lon="6.79807">
        <ele>390</ele>
        <time>2016-05-29T08:20:36.000Z</time>
      </trkpt>
      <trkpt lat="47.44349" lon="6.79808">
        <ele>390</ele>
        <time>2016-05-29T08:20:37.000Z</time>
      </trkpt>
      <trkpt lat="47.44347" lon="6.79811">
        <ele>391</ele>
        <time>2016-05-29T08:20:40.000Z</time>
      </trkpt>
      <trkpt lat="47.44345" lon="6.79812">
        <ele>391</ele>
        <time>2016-05-29T08:20:41.000Z</time>
      </trkpt>
      <trkpt lat="47.44342" lon="6.79816">
        <ele>391</ele>
        <time>2016-05-29T08:20:45.000Z</time>
      </trkpt>
      <trkpt lat="47.44342" lon="6.79817">
        <ele>391</ele>
        <time>2016-05-29T08:20:46.000Z</time>
      </trkpt>
      <trkpt lat="47.44339" lon="6.79821">
        <ele>392</ele>
        <time>2016-05-29T08:20:50.000Z</time>
      </trkpt>
      <trkpt lat="47.44338" lon="6.79822">
        <ele>392</ele>
        <time>2016-05-29T08:20:51.000Z</time>
      </trkpt>
      <trkpt lat="47.44334" lon="6.79825">
        <ele>393</ele>
        <time>2016-05-29T08:20:54.000Z</time>
      </trkpt>
      <trkpt lat="47.44333" lon="6.79826">
        <ele>399</ele>
        <time>2016-05-29T08:20:55.000Z</time>
      </trkpt>
      <trkpt lat="47.4433" lon="6.79827">
        <ele>399</ele>
        <time>2016-05-29T08:20:57.000Z</time>
      </trkpt>
      <trkpt lat="47.44329" lon="6.79828">
        <ele>399</ele>
        <time>2016-05-29T08:20:58.000Z</time>
      </trkpt>
      <trkpt lat="47.44325" lon="6.79831">
        <ele>399</ele>
        <time>2016-05-29T08:21:01.000Z</time>
      </trkpt>
      <trkpt lat="47.44324" lon="6.79831">
        <ele>400</ele>
        <time>2016-05-29T08:21:02.000Z</time>
      </trkpt>
      <trkpt lat="47.4432" lon="6.79834">
        <ele>399</ele>
        <time>2016-05-29T08:21:06.000Z</time>
      </trkpt>
      <trkpt lat="47.4432" lon="6.79834">
        <ele>399</ele>
        <time>2016-05-29T08:21:07.000Z</time>
      </trkpt>
      <trkpt lat="47.44317" lon="6.79839">
        <ele>400</ele>
        <time>2016-05-29T08:21:12.000Z</time>
      </trkpt>
      <trkpt lat="47.44317" lon="6.79841">
        <ele>400</ele>
        <time>2016-05-29T08:21:13.000Z</time>
      </trkpt>
      <trkpt lat="47.44315" lon="6.79845">
        <ele>401</ele>
        <time>2016-05-29T08:21:17.000Z</time>
      </trkpt>
      <trkpt lat="47.44314" lon="6.79847">
        <ele>401</ele>
        <time>2016-05-29T08:21:18.000Z</time>
      </trkpt>
      <trkpt lat="47.44311" lon="6.79853">
        <ele>402</ele>
        <time>2016-05-29T08:21:20.000Z</time>
      </trkpt>
      <trkpt lat="47.4431" lon="6.79855">
        <ele>402</ele>
        <time>2016-05-29T08:21:21.000Z</time>
      </trkpt>
      <trkpt lat="47.44307" lon="6.79858">
        <ele>403</ele>
        <time>2016-05-29T08:21:23.000Z</time>
      </trkpt>
      <trkpt lat="47.44306" lon="6.7986">
        <ele>403</ele>
        <time>2016-05-29T08:21:24.000Z</time>
      </trkpt>
      <trkpt lat="47.44305" lon="6.79864">
        <ele>403</ele>
        <time>2016-05-29T08:21:27.000Z</time>
      </trkpt>
      <trkpt lat="47.44303" lon="6.79865">
        <ele>403</ele>
        <time>2016-05-29T08:21:28.000Z</time>
      </trkpt>
      <trkpt lat="47.443" lon="6.79868">
        <ele>403</ele>
        <time>2016-05-29T08:21:30.000Z</time>
      </trkpt>
      <trkpt lat="47.44299" lon="6.79869">
        <ele>403</ele>
        <time>2016-05-29T08:21:31.000Z</time>
      </trkpt>
      <trkpt lat="47.44295" lon="6.79871">
        <ele>404</ele>
        <time>2016-05-29T08:21:34.000Z</time>
      </trkpt>
      <trkpt lat="47.44293" lon="6.79872">
        <ele>404</ele>
        <time>2016-05-29T08:21:35.000Z</time>
      </trkpt>
      <trkpt lat="47.4429" lon="6.79874">
        <ele>405</ele>
        <time>2016-05-29T08:21:37.000Z</time>
      </trkpt>
      <trkpt lat="47.44289" lon="6.79875">
        <ele>405</ele>
        <time>2016-05-29T08:21:38.000Z</time>
      </trkpt>
      <trkpt lat="47.44285" lon="6.79877">
        <ele>405</ele>
        <time>2016-05-29T08:21:41.000Z</time>
      </trkpt>
      <trkpt lat="47.44284" lon="6.79878">
        <ele>405</ele>
        <time>2016-05-29T08:21:42.000Z</time>
      </trkpt>
      <trkpt lat="47.4428" lon="6.7988">
        <ele>406</ele>
        <time>2016-05-29T08:21:46.000Z</time>
      </trkpt>
      <trkpt lat="47.44279" lon="6.79881">
        <ele>406</ele>
        <time>2016-05-29T08:21:47.000Z</time>
      </trkpt>
      <trkpt lat="47.44274" lon="6.79881">
        <ele>406</ele>
        <time>2016-05-29T08:21:50.000Z</time>
      </trkpt>
      <trkpt lat="47.44273" lon="6.79881">
        <ele>407</ele>
        <time>2016-05-29T08:21:51.000Z</time>
      </trkpt>
      <trkpt lat="47.44269" lon="6.79883">
        <ele>407</ele>
        <time>2016-05-29T08:21:53.000Z</time>
      </trkpt>
      <trkpt lat="47.44268" lon="6.79883">
        <ele>407</ele>
        <time>2016-05-29T08:21:54.000Z</time>
      </trkpt>
      <trkpt lat="47.44263" lon="6.79885">
        <ele>407</ele>
        <time>2016-05-29T08:21:58.000Z</time>
      </trkpt>
      <trkpt lat="47.44262" lon="6.79886">
        <ele>408</ele>
        <time>2016-05-29T08:21:59.000Z</time>
      </trkpt>
      <trkpt lat="47.44258" lon="6.79889">
        <ele>408</ele>
        <time>2016-05-29T08:22:03.000Z</time>
      </trkpt>
      <trkpt lat="47.44258" lon="6.7989">
        <ele>408</ele>
        <time>2016-05-29T08:22:04.000Z</time>
      </trkpt>
      <trkpt lat="47.44255" lon="6.79893">
        <ele>408</ele>
        <time>2016-05-29T08:22:09.000Z</time>
      </trkpt>
      <trkpt lat="47.44254" lon="6.79894">
        <ele>408</ele>
        <time>2016-05-29T08:22:10.000Z</time>
      </trkpt>
      <trkpt lat="47.44251" lon="6.79894">
        <ele>409</ele>
        <time>2016-05-29T08:22:12.000Z</time>
      </trkpt>
      <trkpt lat="47.44249" lon="6.79894">
        <ele>419</ele>
        <time>2016-05-29T08:22:13.000Z</time>
      </trkpt>
      <trkpt lat="47.44245" lon="6.79898">
        <ele>418</ele>
        <time>2016-05-29T08:22:17.000Z</time>
      </trkpt>
      <trkpt lat="47.44245" lon="6.79899">
        <ele>418</ele>
        <time>2016-05-29T08:22:18.000Z</time>
      </trkpt>
      <trkpt lat="47.44241" lon="6.79901">
        <ele>418</ele>
        <time>2016-05-29T08:22:23.000Z</time>
      </trkpt>
      <trkpt lat="47.4424" lon="6.79901">
        <ele>418</ele>
        <time>2016-05-29T08:22:24.000Z</time>
      </trkpt>
      <trkpt lat="47.44238" lon="6.79904">
        <ele>418</ele>
        <time>2016-05-29T08:22:28.000Z</time>
      </trkpt>
      <trkpt lat="47.44236" lon="6.79904">
        <ele>418</ele>
        <time>2016-05-29T08:22:29.000Z</time>
      </trkpt>
      <trkpt lat="47.44233" lon="6.79906">
        <ele>419</ele>
        <time>2016-05-29T08:22:31.000Z</time>
      </trkpt>
      <trkpt lat="47.44231" lon="6.79907">
        <ele>419</ele>
        <time>2016-05-29T08:22:32.000Z</time>
      </trkpt>
      <trkpt lat="47.44228" lon="6.7991">
        <ele>419</ele>
        <time>2016-05-29T08:22:39.000Z</time>
      </trkpt>
      <trkpt lat="47.44227" lon="6.79911">
        <ele>419</ele>
        <time>2016-05-29T08:22:40.000Z</time>
      </trkpt>
      <trkpt lat="47.44224" lon="6.79913">
        <ele>420</ele>
        <time>2016-05-29T08:22:45.000Z</time>
      </trkpt>
      <trkpt lat="47.44223" lon="6.79913">
        <ele>420</ele>
        <time>2016-05-29T08:22:46.000Z</time>
      </trkpt>
      <trkpt lat="47.4422" lon="6.79915">
        <ele>421</ele>
        <time>2016-05-29T08:22:48.000Z</time>
      </trkpt>
      <trkpt lat="47.44219" lon="6.79917">
        <ele>416</ele>
        <time>2016-05-29T08:22:49.000Z</time>
      </trkpt>
      <trkpt lat="47.44216" lon="6.7992">
        <ele>416</ele>
        <time>2016-05-29T08:22:51.000Z</time>
      </trkpt>
      <trkpt lat="47.44214" lon="6.7992">
        <ele>416</ele>
        <time>2016-05-29T08:22:52.000Z</time>
      </trkpt>
      <trkpt lat="47.44211" lon="6.7992">
        <ele>417</ele>
        <time>2016-05-29T08:22:54.000Z</time>
      </trkpt>
      <trkpt lat="47.4421" lon="6.7992">
        <ele>417</ele>
        <time>2016-05-29T08:22:55.000Z</time>
      </trkpt>
      <trkpt lat="47.44206" lon="6.79922">
        <ele>417</ele>
        <time>2016-05-29T08:22:58.000Z</time>
      </trkpt>
      <trkpt lat="47.44205" lon="6.79922">
        <ele>417</ele>
        <time>2016-05-29T08:22:59.000Z</time>
      </trkpt>
      <trkpt lat="47.44201" lon="6.7992">
        <ele>418</ele>
        <time>2016-05-29T08:23:07.000Z</time>
      </trkpt>
      <trkpt lat="47.44201" lon="6.7992">
        <ele>418</ele>
        <time>2016-05-29T08:23:08.000Z</time>
      </trkpt>
      <trkpt lat="47.44201" lon="6.79913">
        <ele>424</ele>
        <time>2016-05-29T08:23:18.000Z</time>
      </trkpt>
      <trkpt lat="47.44201" lon="6.79913">
        <ele>424</ele>
        <time>2016-05-29T08:23:19.000Z</time>
      </trkpt>
      <trkpt lat="47.44202" lon="6.79906">
        <ele>424</ele>
        <time>2016-05-29T08:23:27.000Z</time>
      </trkpt>
      <trkpt lat="47.44202" lon="6.79905">
        <ele>424</ele>
        <time>2016-05-29T08:23:28.000Z</time>
      </trkpt>
      <trkpt lat="47.442" lon="6.799">
        <ele>424</ele>
        <time>2016-05-29T08:23:30.000Z</time>
      </trkpt>
      <trkpt lat="47.442" lon="6.79897">
        <ele>424</ele>
        <time>2016-05-29T08:23:31.000Z</time>
      </trkpt>
      <trkpt lat="47.44199" lon="6.79894">
        <ele>424</ele>
        <time>2016-05-29T08:23:32.000Z</time>
      </trkpt>
      <trkpt lat="47.44198" lon="6.79891">
        <ele>424</ele>
        <time>2016-05-29T08:23:33.000Z</time>
      </trkpt>
      <trkpt lat="47.44198" lon="6.79887">
        <ele>424</ele>
        <time>2016-05-29T08:23:34.000Z</time>
      </trkpt>
      <trkpt lat="47.44197" lon="6.79884">
        <ele>425</ele>
        <time>2016-05-29T08:23:35.000Z</time>
      </trkpt>
      <trkpt lat="47.44197" lon="6.79879">
        <ele>425</ele>
        <time>2016-05-29T08:23:37.000Z</time>
      </trkpt>
      <trkpt lat="47.44197" lon="6.79877">
        <ele>425</ele>
        <time>2016-05-29T08:23:38.000Z</time>
      </trkpt>
      <trkpt lat="47.44197" lon="6.79872">
        <ele>425</ele>
        <time>2016-05-29T08:23:40.000Z</time>
      </trkpt>
      <trkpt lat="47.44197" lon="6.7987">
        <ele>425</ele>
        <time>2016-05-29T08:23:41.000Z</time>
      </trkpt>
      <trkpt lat="47.44196" lon="6.79865">
        <ele>426</ele>
        <time>2016-05-29T08:23:43.000Z</time>
      </trkpt>
      <trkpt lat="47.44196" lon="6.79863">
        <ele>426</ele>
        <time>2016-05-29T08:23:44.000Z</time>
      </trkpt>
      <trkpt lat="47.44195" lon="6.79858">
        <ele>426</ele>
        <time>2016-05-29T08:23:46.000Z</time>
      </trkpt>
      <trkpt lat="47.44194" lon="6.79856">
        <ele>426</ele>
        <time>2016-05-29T08:23:47.000Z</time>
      </trkpt>
      <trkpt lat="47.44193" lon="6.79851">
        <ele>427</ele>
        <time>2016-05-29T08:23:50.000Z</time>
      </trkpt>
      <trkpt lat="47.44193" lon="6.79849">
        <ele>427</ele>
        <time>2016-05-29T08:23:51.000Z</time>
      </trkpt>
      <trkpt lat="47.44193" lon="6.79842">
        <ele>427</ele>
        <time>2016-05-29T08:23:54.000Z</time>
      </trkpt>
      <trkpt lat="47.44193" lon="6.79841">
        <ele>428</ele>
        <time>2016-05-29T08:23:55.000Z</time>
      </trkpt>
      <trkpt lat="47.44192" lon="6.79835">
        <ele>428</ele>
        <time>2016-05-29T08:23:58.000Z</time>
      </trkpt>
      <trkpt lat="47.44192" lon="6.79833">
        <ele>431</ele>
        <time>2016-05-29T08:23:59.000Z</time>
      </trkpt>
      <trkpt lat="47.44192" lon="6.79828">
        <ele>431</ele>
        <time>2016-05-29T08:24:01.000Z</time>
      </trkpt>
      <trkpt lat="47.44192" lon="6.79825">
        <ele>431</ele>
        <time>2016-05-29T08:24:02.000Z</time>
      </trkpt>
      <trkpt lat="47.44191" lon="6.79819">
        <ele>431</ele>
        <time>2016-05-29T08:24:05.000Z</time>
      </trkpt>
      <trkpt lat="47.44191" lon="6.79817">
        <ele>431</ele>
        <time>2016-05-29T08:24:06.000Z</time>
      </trkpt>
      <trkpt lat="47.4419" lon="6.79812">
        <ele>431</ele>
        <time>2016-05-29T08:24:08.000Z</time>
      </trkpt>
      <trkpt lat="47.44189" lon="6.79809">
        <ele>431</ele>
        <time>2016-05-29T08:24:09.000Z</time>
      </trkpt>
      <trkpt lat="47.44188" lon="6.79804">
        <ele>431</ele>
        <time>2016-05-29T08:24:11.000Z</time>
      </trkpt>
      <trkpt lat="47.44188" lon="6.79802">
        <ele>432</ele>
        <time>2016-05-29T08:24:12.000Z</time>
      </trkpt>
      <trkpt lat="47.44188" lon="6.79797">
        <ele>432</ele>
        <time>2016-05-29T08:24:14.000Z</time>
      </trkpt>
      <trkpt lat="47.44188" lon="6.79794">
        <ele>432</ele>
        <time>2016-05-29T08:24:15.000Z</time>
      </trkpt>
      <trkpt lat="47.44187" lon="6.79789">
        <ele>432</ele>
        <time>2016-05-29T08:24:17.000Z</time>
      </trkpt>
      <trkpt lat="47.44188" lon="6.79786">
        <ele>432</ele>
        <time>2016-05-29T08:24:18.000Z</time>
      </trkpt>
      <trkpt lat="47.44189" lon="6.7978">
        <ele>432</ele>
        <time>2016-05-29T08:24:20.000Z</time>
      </trkpt>
      <trkpt lat="47.4419" lon="6.79778">
        <ele>432</ele>
        <time>2016-05-29T08:24:21.000Z</time>
      </trkpt>
      <trkpt lat="47.44191" lon="6.79771">
        <ele>432</ele>
        <time>2016-05-29T08:24:23.000Z</time>
      </trkpt>
      <trkpt lat="47.44192" lon="6.79768">
        <ele>433</ele>
        <time>2016-05-29T08:24:24.000Z</time>
      </trkpt>
      <trkpt lat="47.44192" lon="6.79765">
        <ele>433</ele>
        <time>2016-05-29T08:24:25.000Z</time>
      </trkpt>
      <trkpt lat="47.44192" lon="6.79761">
        <ele>433</ele>
        <time>2016-05-29T08:24:26.000Z</time>
      </trkpt>
      <trkpt lat="47.44193" lon="6.79755">
        <ele>433</ele>
        <time>2016-05-29T08:24:28.000Z</time>
      </trkpt>
      <trkpt lat="47.44193" lon="6.79752">
        <ele>433</ele>
        <time>2016-05-29T08:24:29.000Z</time>
      </trkpt>
      <trkpt lat="47.44193" lon="6.79746">
        <ele>435</ele>
        <time>2016-05-29T08:24:31.000Z</time>
      </trkpt>
      <trkpt lat="47.44193" lon="6.79743">
        <ele>435</ele>
        <time>2016-05-29T08:24:32.000Z</time>
      </trkpt>
      <trkpt lat="47.44193" lon="6.79736">
        <ele>435</ele>
        <time>2016-05-29T08:24:34.000Z</time>
      </trkpt>
      <trkpt lat="47.44193" lon="6.79732">
        <ele>435</ele>
        <time>2016-05-29T08:24:35.000Z</time>
      </trkpt>
      <trkpt lat="47.44193" lon="6.79728">
        <ele>435</ele>
        <time>2016-05-29T08:24:36.000Z</time>
      </trkpt>
      <trkpt lat="47.44193" lon="6.79723">
        <ele>435</ele>
        <time>2016-05-29T08:24:37.000Z</time>
      </trkpt>
      <trkpt lat="47.44193" lon="6.79719">
        <ele>435</ele>
        <time>2016-05-29T08:24:38.000Z</time>
      </trkpt>
      <trkpt lat="47.44193" lon="6.79714">
        <ele>435</ele>
        <time>2016-05-29T08:24:39.000Z</time>
      </trkpt>
      <trkpt lat="47.44193" lon="6.79709">
        <ele>435</ele>
        <time>2016-05-29T08:24:40.000Z</time>
      </trkpt>
      <trkpt lat="47.44193" lon="6.79705">
        <ele>435</ele>
        <time>2016-05-29T08:24:41.000Z</time>
      </trkpt>
      <trkpt lat="47.44192" lon="6.797">
        <ele>435</ele>
        <time>2016-05-29T08:24:42.000Z</time>
      </trkpt>
      <trkpt lat="47.44191" lon="6.79695">
        <ele>436</ele>
        <time>2016-05-29T08:24:43.000Z</time>
      </trkpt>
      <trkpt lat="47.4419" lon="6.79691">
        <ele>436</ele>
        <time>2016-05-29T08:24:44.000Z</time>
      </trkpt>
      <trkpt lat="47.44189" lon="6.79687">
        <ele>436</ele>
        <time>2016-05-29T08:24:45.000Z</time>
      </trkpt>
      <trkpt lat="47.44188" lon="6.79683">
        <ele>437</ele>
        <time>2016-05-29T08:24:46.000Z</time>
      </trkpt>
      <trkpt lat="47.44187" lon="6.79679">
        <ele>437</ele>
        <time>2016-05-29T08:24:47.000Z</time>
      </trkpt>
      <trkpt lat="47.44186" lon="6.79675">
        <ele>438</ele>
        <time>2016-05-29T08:24:48.000Z</time>
      </trkpt>
      <trkpt lat="47.44185" lon="6.79672">
        <ele>438</ele>
        <time>2016-05-29T08:24:49.000Z</time>
      </trkpt>
      <trkpt lat="47.44183" lon="6.79669">
        <ele>438</ele>
        <time>2016-05-29T08:24:50.000Z</time>
      </trkpt>
      <trkpt lat="47.44182" lon="6.79666">
        <ele>439</ele>
        <time>2016-05-29T08:24:51.000Z</time>
      </trkpt>
      <trkpt lat="47.4418" lon="6.79661">
        <ele>440</ele>
        <time>2016-05-29T08:24:53.000Z</time>
      </trkpt>
      <trkpt lat="47.44179" lon="6.79659">
        <ele>440</ele>
        <time>2016-05-29T08:24:54.000Z</time>
      </trkpt>
      <trkpt lat="47.44177" lon="6.79655">
        <ele>440</ele>
        <time>2016-05-29T08:24:56.000Z</time>
      </trkpt>
      <trkpt lat="47.44176" lon="6.79653">
        <ele>440</ele>
        <time>2016-05-29T08:24:57.000Z</time>
      </trkpt>
      <trkpt lat="47.44173" lon="6.79648">
        <ele>439</ele>
        <time>2016-05-29T08:25:00.000Z</time>
      </trkpt>
      <trkpt lat="47.44172" lon="6.79647">
        <ele>439</ele>
        <time>2016-05-29T08:25:01.000Z</time>
      </trkpt>
      <trkpt lat="47.44169" lon="6.79643">
        <ele>439</ele>
        <time>2016-05-29T08:25:04.000Z</time>
      </trkpt>
      <trkpt lat="47.44168" lon="6.79642">
        <ele>439</ele>
        <time>2016-05-29T08:25:05.000Z</time>
      </trkpt>
      <trkpt lat="47.44164" lon="6.79639">
        <ele>445</ele>
        <time>2016-05-29T08:25:07.000Z</time>
      </trkpt>
      <trkpt lat="47.44163" lon="6.79638">
        <ele>446</ele>
        <time>2016-05-29T08:25:08.000Z</time>
      </trkpt>
      <trkpt lat="47.4416" lon="6.79637">
        <ele>446</ele>
        <time>2016-05-29T08:25:09.000Z</time>
      </trkpt>
      <trkpt lat="47.44158" lon="6.79636">
        <ele>446</ele>
        <time>2016-05-29T08:25:10.000Z</time>
      </trkpt>
      <trkpt lat="47.44155" lon="6.79634">
        <ele>446</ele>
        <time>2016-05-29T08:25:11.000Z</time>
      </trkpt>
      <trkpt lat="47.44152" lon="6.79632">
        <ele>446</ele>
        <time>2016-05-29T08:25:12.000Z</time>
      </trkpt>
      <trkpt lat="47.4415" lon="6.79631">
        <ele>446</ele>
        <time>2016-05-29T08:25:13.000Z</time>
      </trkpt>
      <trkpt lat="47.44147" lon="6.79629">
        <ele>446</ele>
        <time>2016-05-29T08:25:14.000Z</time>
      </trkpt>
      <trkpt lat="47.44145" lon="6.79627">
        <ele>446</ele>
        <time>2016-05-29T08:25:15.000Z</time>
      </trkpt>
      <trkpt lat="47.44142" lon="6.79625">
        <ele>447</ele>
        <time>2016-05-29T08:25:16.000Z</time>
      </trkpt>
      <trkpt lat="47.4414" lon="6.79623">
        <ele>447</ele>
        <time>2016-05-29T08:25:17.000Z</time>
      </trkpt>
      <trkpt lat="47.44138" lon="6.79621">
        <ele>447</ele>
        <time>2016-05-29T08:25:18.000Z</time>
      </trkpt>
      <trkpt lat="47.44135" lon="6.79619">
        <ele>447</ele>
        <time>2016-05-29T08:25:20.000Z</time>
      </trkpt>
      <trkpt lat="47.44134" lon="6.79619">
        <ele>447</ele>
        <time>2016-05-29T08:25:21.000Z</time>
      </trkpt>
      <trkpt lat="47.44129" lon="6.79617">
        <ele>447</ele>
        <time>2016-05-29T08:25:24.000Z</time>
      </trkpt>
      <trkpt lat="47.44128" lon="6.79616">
        <ele>447</ele>
        <time>2016-05-29T08:25:25.000Z</time>
      </trkpt>
      <trkpt lat="47.44125" lon="6.79613">
        <ele>447</ele>
        <time>2016-05-29T08:25:28.000Z</time>
      </trkpt>
      <trkpt lat="47.44123" lon="6.79612">
        <ele>448</ele>
        <time>2016-05-29T08:25:29.000Z</time>
      </trkpt>
      <trkpt lat="47.4412" lon="6.7961">
        <ele>448</ele>
        <time>2016-05-29T08:25:31.000Z</time>
      </trkpt>
      <trkpt lat="47.44118" lon="6.79609">
        <ele>448</ele>
        <time>2016-05-29T08:25:32.000Z</time>
      </trkpt>
      <trkpt lat="47.44114" lon="6.79606">
        <ele>448</ele>
        <time>2016-05-29T08:25:34.000Z</time>
      </trkpt>
      <trkpt lat="47.44112" lon="6.79604">
        <ele>448</ele>
        <time>2016-05-29T08:25:35.000Z</time>
      </trkpt>
      <trkpt lat="47.44108" lon="6.79602">
        <ele>449</ele>
        <time>2016-05-29T08:25:37.000Z</time>
      </trkpt>
      <trkpt lat="47.44106" lon="6.796">
        <ele>449</ele>
        <time>2016-05-29T08:25:38.000Z</time>
      </trkpt>
      <trkpt lat="47.44104" lon="6.79599">
        <ele>449</ele>
        <time>2016-05-29T08:25:39.000Z</time>
      </trkpt>
      <trkpt lat="47.44102" lon="6.79597">
        <ele>449</ele>
        <time>2016-05-29T08:25:40.000Z</time>
      </trkpt>
      <trkpt lat="47.44099" lon="6.79595">
        <ele>449</ele>
        <time>2016-05-29T08:25:41.000Z</time>
      </trkpt>
      <trkpt lat="47.44097" lon="6.79594">
        <ele>450</ele>
        <time>2016-05-29T08:25:42.000Z</time>
      </trkpt>
      <trkpt lat="47.44094" lon="6.79592">
        <ele>450</ele>
        <time>2016-05-29T08:25:43.000Z</time>
      </trkpt>
      <trkpt lat="47.44092" lon="6.79591">
        <ele>450</ele>
        <time>2016-05-29T08:25:44.000Z</time>
      </trkpt>
      <trkpt lat="47.44089" lon="6.79589">
        <ele>451</ele>
        <time>2016-05-29T08:25:45.000Z</time>
      </trkpt>
      <trkpt lat="47.44087" lon="6.79587">
        <ele>451</ele>
        <time>2016-05-29T08:25:46.000Z</time>
      </trkpt>
      <trkpt lat="47.44085" lon="6.79586">
        <ele>452</ele>
        <time>2016-05-29T08:25:47.000Z</time>
      </trkpt>
      <trkpt lat="47.44083" lon="6.79584">
        <ele>452</ele>
        <time>2016-05-29T08:25:48.000Z</time>
      </trkpt>
      <trkpt lat="47.4408" lon="6.79582">
        <ele>452</ele>
        <time>2016-05-29T08:25:49.000Z</time>
      </trkpt>
      <trkpt lat="47.44078" lon="6.79581">
        <ele>453</ele>
        <time>2016-05-29T08:25:50.000Z</time>
      </trkpt>
      <trkpt lat="47.44075" lon="6.7958">
        <ele>453</ele>
        <time>2016-05-29T08:25:51.000Z</time>
      </trkpt>
      <trkpt lat="47.44072" lon="6.79579">
        <ele>453</ele>
        <time>2016-05-29T08:25:52.000Z</time>
      </trkpt>
      <trkpt lat="47.44069" lon="6.79578">
        <ele>453</ele>
        <time>2016-05-29T08:25:53.000Z</time>
      </trkpt>
      <trkpt lat="47.44066" lon="6.79577">
        <ele>453</ele>
        <time>2016-05-29T08:25:54.000Z</time>
      </trkpt>
      <trkpt lat="47.44063" lon="6.79577">
        <ele>453</ele>
        <time>2016-05-29T08:25:55.000Z</time>
      </trkpt>
      <trkpt lat="47.4406" lon="6.79576">
        <ele>454</ele>
        <time>2016-05-29T08:25:56.000Z</time>
      </trkpt>
      <trkpt lat="47.44058" lon="6.79576">
        <ele>454</ele>
        <time>2016-05-29T08:25:57.000Z</time>
      </trkpt>
      <trkpt lat="47.44055" lon="6.79575">
        <ele>454</ele>
        <time>2016-05-29T08:25:58.000Z</time>
      </trkpt>
      <trkpt lat="47.44051" lon="6.79572">
        <ele>454</ele>
        <time>2016-05-29T08:26:00.000Z</time>
      </trkpt>
      <trkpt lat="47.4405" lon="6.79571">
        <ele>454</ele>
        <time>2016-05-29T08:26:01.000Z</time>
      </trkpt>
      <trkpt lat="47.44046" lon="6.79569">
        <ele>454</ele>
        <time>2016-05-29T08:26:03.000Z</time>
      </trkpt>
      <trkpt lat="47.44045" lon="6.79569">
        <ele>454</ele>
        <time>2016-05-29T08:26:04.000Z</time>
      </trkpt>
      <trkpt lat="47.44041" lon="6.79569">
        <ele>454</ele>
        <time>2016-05-29T08:26:06.000Z</time>
      </trkpt>
      <trkpt lat="47.44038" lon="6.79569">
        <ele>454</ele>
        <time>2016-05-29T08:26:07.000Z</time>
      </trkpt>
      <trkpt lat="47.44036" lon="6.79569">
        <ele>455</ele>
        <time>2016-05-29T08:26:08.000Z</time>
      </trkpt>
      <trkpt lat="47.44034" lon="6.79569">
        <ele>455</ele>
        <time>2016-05-29T08:26:09.000Z</time>
      </trkpt>
      <trkpt lat="47.44031" lon="6.79568">
        <ele>455</ele>
        <time>2016-05-29T08:26:10.000Z</time>
      </trkpt>
      <trkpt lat="47.44029" lon="6.79568">
        <ele>455</ele>
        <time>2016-05-29T08:26:11.000Z</time>
      </trkpt>
      <trkpt lat="47.44025" lon="6.79566">
        <ele>455</ele>
        <time>2016-05-29T08:26:13.000Z</time>
      </trkpt>
      <trkpt lat="47.44023" lon="6.79565">
        <ele>455</ele>
        <time>2016-05-29T08:26:14.000Z</time>
      </trkpt>
      <trkpt lat="47.44019" lon="6.79563">
        <ele>455</ele>
        <time>2016-05-29T08:26:16.000Z</time>
      </trkpt>
      <trkpt lat="47.44017" lon="6.79563">
        <ele>455</ele>
        <time>2016-05-29T08:26:17.000Z</time>
      </trkpt>
      <trkpt lat="47.44014" lon="6.79562">
        <ele>455</ele>
        <time>2016-05-29T08:26:19.000Z</time>
      </trkpt>
      <trkpt lat="47.44012" lon="6.79562">
        <ele>455</ele>
        <time>2016-05-29T08:26:20.000Z</time>
      </trkpt>
      <trkpt lat="47.44008" lon="6.79563">
        <ele>455</ele>
        <time>2016-05-29T08:26:22.000Z</time>
      </trkpt>
      <trkpt lat="47.44006" lon="6.79564">
        <ele>455</ele>
        <time>2016-05-29T08:26:23.000Z</time>
      </trkpt>
      <trkpt lat="47.44003" lon="6.79565">
        <ele>455</ele>
        <time>2016-05-29T08:26:25.000Z</time>
      </trkpt>
      <trkpt lat="47.44001" lon="6.79566">
        <ele>455</ele>
        <time>2016-05-29T08:26:26.000Z</time>
      </trkpt>
      <trkpt lat="47.43996" lon="6.79569">
        <ele>458</ele>
        <time>2016-05-29T08:26:28.000Z</time>
      </trkpt>
      <trkpt lat="47.43994" lon="6.7957">
        <ele>458</ele>
        <time>2016-05-29T08:26:29.000Z</time>
      </trkpt>
      <trkpt lat="47.43992" lon="6.79572">
        <ele>458</ele>
        <time>2016-05-29T08:26:30.000Z</time>
      </trkpt>
      <trkpt lat="47.4399" lon="6.79574">
        <ele>458</ele>
        <time>2016-05-29T08:26:31.000Z</time>
      </trkpt>
      <trkpt lat="47.43987" lon="6.79576">
        <ele>458</ele>
        <time>2016-05-29T08:26:32.000Z</time>
      </trkpt>
      <trkpt lat="47.43985" lon="6.79578">
        <ele>458</ele>
        <time>2016-05-29T08:26:33.000Z</time>
      </trkpt>
      <trkpt lat="47.43983" lon="6.79579">
        <ele>458</ele>
        <time>2016-05-29T08:26:34.000Z</time>
      </trkpt>
      <trkpt lat="47.4398" lon="6.7958">
        <ele>458</ele>
        <time>2016-05-29T08:26:35.000Z</time>
      </trkpt>
      <trkpt lat="47.43977" lon="6.79581">
        <ele>458</ele>
        <time>2016-05-29T08:26:37.000Z</time>
      </trkpt>
      <trkpt lat="47.43975" lon="6.79581">
        <ele>459</ele>
        <time>2016-05-29T08:26:38.000Z</time>
      </trkpt>
      <trkpt lat="47.43972" lon="6.79581">
        <ele>459</ele>
        <time>2016-05-29T08:26:40.000Z</time>
      </trkpt>
      <trkpt lat="47.43969" lon="6.79582">
        <ele>459</ele>
        <time>2016-05-29T08:26:41.000Z</time>
      </trkpt>
      <trkpt lat="47.43966" lon="6.79581">
        <ele>459</ele>
        <time>2016-05-29T08:26:43.000Z</time>
      </trkpt>
      <trkpt lat="47.43964" lon="6.79581">
        <ele>459</ele>
        <time>2016-05-29T08:26:44.000Z</time>
      </trkpt>
      <trkpt lat="47.4396" lon="6.7958">
        <ele>460</ele>
        <time>2016-05-29T08:26:46.000Z</time>
      </trkpt>
      <trkpt lat="47.43958" lon="6.7958">
        <ele>460</ele>
        <time>2016-05-29T08:26:47.000Z</time>
      </trkpt>
      <trkpt lat="47.43956" lon="6.79579">
        <ele>460</ele>
        <time>2016-05-29T08:26:48.000Z</time>
      </trkpt>
      <trkpt lat="47.43953" lon="6.79578">
        <ele>460</ele>
        <time>2016-05-29T08:26:49.000Z</time>
      </trkpt>
      <trkpt lat="47.4395" lon="6.79575">
        <ele>460</ele>
        <time>2016-05-29T08:26:51.000Z</time>
      </trkpt>
      <trkpt lat="47.43949" lon="6.79574">
        <ele>460</ele>
        <time>2016-05-29T08:26:52.000Z</time>
      </trkpt>
      <trkpt lat="47.43945" lon="6.7957">
        <ele>460</ele>
        <time>2016-05-29T08:26:55.000Z</time>
      </trkpt>
      <trkpt lat="47.43944" lon="6.7957">
        <ele>460</ele>
        <time>2016-05-29T08:26:56.000Z</time>
      </trkpt>
      <trkpt lat="47.43942" lon="6.79569">
        <ele>460</ele>
        <time>2016-05-29T08:26:57.000Z</time>
      </trkpt>
      <trkpt lat="47.43939" lon="6.79567">
        <ele>461</ele>
        <time>2016-05-29T08:26:58.000Z</time>
      </trkpt>
      <trkpt lat="47.43937" lon="6.79563">
        <ele>461</ele>
        <time>2016-05-29T08:26:59.000Z</time>
      </trkpt>
      <trkpt lat="47.43935" lon="6.7956">
        <ele>461</ele>
        <time>2016-05-29T08:27:00.000Z</time>
      </trkpt>
      <trkpt lat="47.43932" lon="6.79556">
        <ele>461</ele>
        <time>2016-05-29T08:27:01.000Z</time>
      </trkpt>
      <trkpt lat="47.4393" lon="6.79553">
        <ele>461</ele>
        <time>2016-05-29T08:27:02.000Z</time>
      </trkpt>
      <trkpt lat="47.43927" lon="6.7955">
        <ele>461</ele>
        <time>2016-05-29T08:27:03.000Z</time>
      </trkpt>
      <trkpt lat="47.43925" lon="6.79548">
        <ele>461</ele>
        <time>2016-05-29T08:27:04.000Z</time>
      </trkpt>
      <trkpt lat="47.43922" lon="6.79546">
        <ele>461</ele>
        <time>2016-05-29T08:27:05.000Z</time>
      </trkpt>
      <trkpt lat="47.43919" lon="6.79544">
        <ele>461</ele>
        <time>2016-05-29T08:27:06.000Z</time>
      </trkpt>
      <trkpt lat="47.43917" lon="6.79543">
        <ele>461</ele>
        <time>2016-05-29T08:27:07.000Z</time>
      </trkpt>
      <trkpt lat="47.43914" lon="6.79542">
        <ele>465</ele>
        <time>2016-05-29T08:27:08.000Z</time>
      </trkpt>
      <trkpt lat="47.43911" lon="6.79541">
        <ele>465</ele>
        <time>2016-05-29T08:27:09.000Z</time>
      </trkpt>
      <trkpt lat="47.43909" lon="6.7954">
        <ele>465</ele>
        <time>2016-05-29T08:27:10.000Z</time>
      </trkpt>
      <trkpt lat="47.43906" lon="6.7954">
        <ele>465</ele>
        <time>2016-05-29T08:27:11.000Z</time>
      </trkpt>
      <trkpt lat="47.43904" lon="6.7954">
        <ele>465</ele>
        <time>2016-05-29T08:27:12.000Z</time>
      </trkpt>
      <trkpt lat="47.43899" lon="6.7954">
        <ele>465</ele>
        <time>2016-05-29T08:27:14.000Z</time>
      </trkpt>
      <trkpt lat="47.43897" lon="6.79539">
        <ele>465</ele>
        <time>2016-05-29T08:27:15.000Z</time>
      </trkpt>
      <trkpt lat="47.43894" lon="6.79539">
        <ele>465</ele>
        <time>2016-05-29T08:27:16.000Z</time>
      </trkpt>
      <trkpt lat="47.43891" lon="6.79539">
        <ele>465</ele>
        <time>2016-05-29T08:27:17.000Z</time>
      </trkpt>
      <trkpt lat="47.43889" lon="6.79539">
        <ele>465</ele>
        <time>2016-05-29T08:27:18.000Z</time>
      </trkpt>
      <trkpt lat="47.43886" lon="6.79539">
        <ele>465</ele>
        <time>2016-05-29T08:27:19.000Z</time>
      </trkpt>
      <trkpt lat="47.43882" lon="6.79539">
        <ele>465</ele>
        <time>2016-05-29T08:27:21.000Z</time>
      </trkpt>
      <trkpt lat="47.4388" lon="6.79538">
        <ele>465</ele>
        <time>2016-05-29T08:27:22.000Z</time>
      </trkpt>
      <trkpt lat="47.43876" lon="6.79538">
        <ele>465</ele>
        <time>2016-05-29T08:27:24.000Z</time>
      </trkpt>
      <trkpt lat="47.43874" lon="6.79538">
        <ele>466</ele>
        <time>2016-05-29T08:27:25.000Z</time>
      </trkpt>
      <trkpt lat="47.4387" lon="6.79539">
        <ele>466</ele>
        <time>2016-05-29T08:27:28.000Z</time>
      </trkpt>
      <trkpt lat="47.43869" lon="6.79539">
        <ele>466</ele>
        <time>2016-05-29T08:27:29.000Z</time>
      </trkpt>
      <trkpt lat="47.43866" lon="6.7954">
        <ele>466</ele>
        <time>2016-05-29T08:27:31.000Z</time>
      </trkpt>
      <trkpt lat="47.43864" lon="6.7954">
        <ele>466</ele>
        <time>2016-05-29T08:27:32.000Z</time>
      </trkpt>
      <trkpt lat="47.43861" lon="6.79539">
        <ele>466</ele>
        <time>2016-05-29T08:27:33.000Z</time>
      </trkpt>
      <trkpt lat="47.43859" lon="6.79539">
        <ele>466</ele>
        <time>2016-05-29T08:27:34.000Z</time>
      </trkpt>
      <trkpt lat="47.43856" lon="6.7954">
        <ele>466</ele>
        <time>2016-05-29T08:27:35.000Z</time>
      </trkpt>
      <trkpt lat="47.43852" lon="6.7954">
        <ele>466</ele>
        <time>2016-05-29T08:27:36.000Z</time>
      </trkpt>
      <trkpt lat="47.43849" lon="6.7954">
        <ele>466</ele>
        <time>2016-05-29T08:27:37.000Z</time>
      </trkpt>
      <trkpt lat="47.43845" lon="6.7954">
        <ele>466</ele>
        <time>2016-05-29T08:27:38.000Z</time>
      </trkpt>
      <trkpt lat="47.43842" lon="6.7954">
        <ele>466</ele>
        <time>2016-05-29T08:27:39.000Z</time>
      </trkpt>
      <trkpt lat="47.43839" lon="6.79541">
        <ele>466</ele>
        <time>2016-05-29T08:27:40.000Z</time>
      </trkpt>
      <trkpt lat="47.43836" lon="6.79542">
        <ele>466</ele>
        <time>2016-05-29T08:27:41.000Z</time>
      </trkpt>
      <trkpt lat="47.43834" lon="6.79543">
        <ele>466</ele>
        <time>2016-05-29T08:27:42.000Z</time>
      </trkpt>
      <trkpt lat="47.43831" lon="6.79545">
        <ele>470</ele>
        <time>2016-05-29T08:27:43.000Z</time>
      </trkpt>
      <trkpt lat="47.43829" lon="6.79547">
        <ele>470</ele>
        <time>2016-05-29T08:27:44.000Z</time>
      </trkpt>
      <trkpt lat="47.43825" lon="6.79548">
        <ele>470</ele>
        <time>2016-05-29T08:27:46.000Z</time>
      </trkpt>
      <trkpt lat="47.43823" lon="6.79548">
        <ele>470</ele>
        <time>2016-05-29T08:27:47.000Z</time>
      </trkpt>
      <trkpt lat="47.43819" lon="6.79548">
        <ele>470</ele>
        <time>2016-05-29T08:27:50.000Z</time>
      </trkpt>
      <trkpt lat="47.43818" lon="6.79548">
        <ele>470</ele>
        <time>2016-05-29T08:27:51.000Z</time>
      </trkpt>
      <trkpt lat="47.43814" lon="6.7955">
        <ele>470</ele>
        <time>2016-05-29T08:27:57.000Z</time>
      </trkpt>
      <trkpt lat="47.43813" lon="6.7955">
        <ele>470</ele>
        <time>2016-05-29T08:27:58.000Z</time>
      </trkpt>
      <trkpt lat="47.43811" lon="6.79547">
        <ele>470</ele>
        <time>2016-05-29T08:28:20.000Z</time>
      </trkpt>
      <trkpt lat="47.4381" lon="6.79544">
        <ele>470</ele>
        <time>2016-05-29T08:28:21.000Z</time>
      </trkpt>
      <trkpt lat="47.43809" lon="6.79539">
        <ele>470</ele>
        <time>2016-05-29T08:28:23.000Z</time>
      </trkpt>
      <trkpt lat="47.43808" lon="6.79537">
        <ele>470</ele>
        <time>2016-05-29T08:28:24.000Z</time>
      </trkpt>
      <trkpt lat="47.43809" lon="6.79531">
        <ele>470</ele>
        <time>2016-05-29T08:28:26.000Z</time>
      </trkpt>
      <trkpt lat="47.43809" lon="6.79528">
        <ele>470</ele>
        <time>2016-05-29T08:28:27.000Z</time>
      </trkpt>
      <trkpt lat="47.43809" lon="6.79521">
        <ele>470</ele>
        <time>2016-05-29T08:28:29.000Z</time>
      </trkpt>
      <trkpt lat="47.43808" lon="6.79518">
        <ele>470</ele>
        <time>2016-05-29T08:28:30.000Z</time>
      </trkpt>
      <trkpt lat="47.43808" lon="6.79514">
        <ele>470</ele>
        <time>2016-05-29T08:28:31.000Z</time>
      </trkpt>
      <trkpt lat="47.43807" lon="6.79511">
        <ele>470</ele>
        <time>2016-05-29T08:28:32.000Z</time>
      </trkpt>
      <trkpt lat="47.43806" lon="6.79507">
        <ele>470</ele>
        <time>2016-05-29T08:28:33.000Z</time>
      </trkpt>
      <trkpt lat="47.43805" lon="6.79503">
        <ele>470</ele>
        <time>2016-05-29T08:28:34.000Z</time>
      </trkpt>
      <trkpt lat="47.43803" lon="6.79499">
        <ele>469</ele>
        <time>2016-05-29T08:28:35.000Z</time>
      </trkpt>
      <trkpt lat="47.43801" lon="6.79495">
        <ele>469</ele>
        <time>2016-05-29T08:28:36.000Z</time>
      </trkpt>
      <trkpt lat="47.438" lon="6.79492">
        <ele>469</ele>
        <time>2016-05-29T08:28:37.000Z</time>
      </trkpt>
      <trkpt lat="47.43798" lon="6.79488">
        <ele>469</ele>
        <time>2016-05-29T08:28:38.000Z</time>
      </trkpt>
      <trkpt lat="47.43797" lon="6.79485">
        <ele>469</ele>
        <time>2016-05-29T08:28:39.000Z</time>
      </trkpt>
      <trkpt lat="47.43796" lon="6.79482">
        <ele>469</ele>
        <time>2016-05-29T08:28:40.000Z</time>
      </trkpt>
      <trkpt lat="47.43796" lon="6.79476">
        <ele>469</ele>
        <time>2016-05-29T08:28:42.000Z</time>
      </trkpt>
      <trkpt lat="47.43796" lon="6.79473">
        <ele>469</ele>
        <time>2016-05-29T08:28:43.000Z</time>
      </trkpt>
      <trkpt lat="47.43795" lon="6.79467">
        <ele>469</ele>
        <time>2016-05-29T08:28:45.000Z</time>
      </trkpt>
      <trkpt lat="47.43794" lon="6.79463">
        <ele>469</ele>
        <time>2016-05-29T08:28:46.000Z</time>
      </trkpt>
      <trkpt lat="47.43794" lon="6.7946">
        <ele>469</ele>
        <time>2016-05-29T08:28:47.000Z</time>
      </trkpt>
      <trkpt lat="47.43793" lon="6.79456">
        <ele>469</ele>
        <time>2016-05-29T08:28:48.000Z</time>
      </trkpt>
      <trkpt lat="47.43792" lon="6.7945">
        <ele>469</ele>
        <time>2016-05-29T08:28:50.000Z</time>
      </trkpt>
      <trkpt lat="47.43791" lon="6.79448">
        <ele>469</ele>
        <time>2016-05-29T08:28:50.999Z</time>
      </trkpt>
      <trkpt lat="47.43791" lon="6.79445">
        <ele>469</ele>
        <time>2016-05-29T08:28:52.000Z</time>
      </trkpt>
      <trkpt lat="47.43789" lon="6.79442">
        <ele>469</ele>
        <time>2016-05-29T08:28:53.000Z</time>
      </trkpt>
      <trkpt lat="47.43788" lon="6.79438">
        <ele>469</ele>
        <time>2016-05-29T08:28:54.000Z</time>
      </trkpt>
      <trkpt lat="47.43786" lon="6.79436">
        <ele>469</ele>
        <time>2016-05-29T08:28:55.000Z</time>
      </trkpt>
      <trkpt lat="47.43782" lon="6.79432">
        <ele>469</ele>
        <time>2016-05-29T08:28:57.000Z</time>
      </trkpt>
      <trkpt lat="47.4378" lon="6.7943">
        <ele>469</ele>
        <time>2016-05-29T08:28:58.000Z</time>
      </trkpt>
      <trkpt lat="47.43779" lon="6.79429">
        <ele>469</ele>
        <time>2016-05-29T08:28:59.000Z</time>
      </trkpt>
      <trkpt lat="47.43776" lon="6.79427">
        <ele>469</ele>
        <time>2016-05-29T08:29:00.000Z</time>
      </trkpt>
      <trkpt lat="47.43774" lon="6.79426">
        <ele>469</ele>
        <time>2016-05-29T08:29:01.000Z</time>
      </trkpt>
      <trkpt lat="47.43771" lon="6.79425">
        <ele>469</ele>
        <time>2016-05-29T08:29:02.000Z</time>
      </trkpt>
      <trkpt lat="47.43768" lon="6.79425">
        <ele>469</ele>
        <time>2016-05-29T08:29:03.000Z</time>
      </trkpt>
      <trkpt lat="47.43766" lon="6.79425">
        <ele>469</ele>
        <time>2016-05-29T08:29:04.000Z</time>
      </trkpt>
      <trkpt lat="47.43763" lon="6.79425">
        <ele>469</ele>
        <time>2016-05-29T08:29:05.000Z</time>
      </trkpt>
      <trkpt lat="47.43761" lon="6.79425">
        <ele>470</ele>
        <time>2016-05-29T08:29:06.000Z</time>
      </trkpt>
      <trkpt lat="47.43759" lon="6.79425">
        <ele>470</ele>
        <time>2016-05-29T08:29:07.000Z</time>
      </trkpt>
      <trkpt lat="47.43756" lon="6.79425">
        <ele>470</ele>
        <time>2016-05-29T08:29:08.000Z</time>
      </trkpt>
      <trkpt lat="47.43753" lon="6.79425">
        <ele>470</ele>
        <time>2016-05-29T08:29:09.000Z</time>
      </trkpt>
      <trkpt lat="47.4375" lon="6.79425">
        <ele>470</ele>
        <time>2016-05-29T08:29:10.000Z</time>
      </trkpt>
      <trkpt lat="47.43748" lon="6.79425">
        <ele>471</ele>
        <time>2016-05-29T08:29:11.000Z</time>
      </trkpt>
      <trkpt lat="47.43745" lon="6.79425">
        <ele>471</ele>
        <time>2016-05-29T08:29:12.000Z</time>
      </trkpt>
      <trkpt lat="47.43743" lon="6.79425">
        <ele>471</ele>
        <time>2016-05-29T08:29:13.000Z</time>
      </trkpt>
      <trkpt lat="47.4374" lon="6.79425">
        <ele>471</ele>
        <time>2016-05-29T08:29:14.000Z</time>
      </trkpt>
      <trkpt lat="47.43738" lon="6.79425">
        <ele>471</ele>
        <time>2016-05-29T08:29:15.000Z</time>
      </trkpt>
      <trkpt lat="47.43736" lon="6.79425">
        <ele>471</ele>
        <time>2016-05-29T08:29:16.000Z</time>
      </trkpt>
      <trkpt lat="47.43733" lon="6.79424">
        <ele>471</ele>
        <time>2016-05-29T08:29:17.000Z</time>
      </trkpt>
      <trkpt lat="47.43731" lon="6.79424">
        <ele>471</ele>
        <time>2016-05-29T08:29:18.000Z</time>
      </trkpt>
      <trkpt lat="47.43728" lon="6.79423">
        <ele>471</ele>
        <time>2016-05-29T08:29:19.000Z</time>
      </trkpt>
      <trkpt lat="47.43726" lon="6.79423">
        <ele>471</ele>
        <time>2016-05-29T08:29:20.000Z</time>
      </trkpt>
      <trkpt lat="47.43723" lon="6.79422">
        <ele>471</ele>
        <time>2016-05-29T08:29:21.000Z</time>
      </trkpt>
      <trkpt lat="47.43721" lon="6.79422">
        <ele>471</ele>
        <time>2016-05-29T08:29:22.000Z</time>
      </trkpt>
      <trkpt lat="47.43717" lon="6.79421">
        <ele>471</ele>
        <time>2016-05-29T08:29:24.000Z</time>
      </trkpt>
      <trkpt lat="47.43715" lon="6.7942">
        <ele>471</ele>
        <time>2016-05-29T08:29:25.000Z</time>
      </trkpt>
      <trkpt lat="47.43711" lon="6.7942">
        <ele>471</ele>
        <time>2016-05-29T08:29:27.000Z</time>
      </trkpt>
      <trkpt lat="47.43709" lon="6.79421">
        <ele>471</ele>
        <time>2016-05-29T08:29:28.000Z</time>
      </trkpt>
      <trkpt lat="47.43705" lon="6.79423">
        <ele>471</ele>
        <time>2016-05-29T08:29:30.000Z</time>
      </trkpt>
      <trkpt lat="47.43703" lon="6.79425">
        <ele>471</ele>
        <time>2016-05-29T08:29:31.000Z</time>
      </trkpt>
      <trkpt lat="47.43701" lon="6.79426">
        <ele>471</ele>
        <time>2016-05-29T08:29:32.000Z</time>
      </trkpt>
      <trkpt lat="47.43699" lon="6.79428">
        <ele>471</ele>
        <time>2016-05-29T08:29:33.000Z</time>
      </trkpt>
      <trkpt lat="47.43695" lon="6.7943">
        <ele>471</ele>
        <time>2016-05-29T08:29:35.000Z</time>
      </trkpt>
      <trkpt lat="47.43694" lon="6.7943">
        <ele>471</ele>
        <time>2016-05-29T08:29:36.000Z</time>
      </trkpt>
      <trkpt lat="47.43689" lon="6.7943">
        <ele>471</ele>
        <time>2016-05-29T08:29:39.000Z</time>
      </trkpt>
      <trkpt lat="47.43687" lon="6.7943">
        <ele>471</ele>
        <time>2016-05-29T08:29:40.000Z</time>
      </trkpt>
      <trkpt lat="47.43683" lon="6.79431">
        <ele>471</ele>
        <time>2016-05-29T08:29:42.000Z</time>
      </trkpt>
      <trkpt lat="47.43681" lon="6.79431">
        <ele>471</ele>
        <time>2016-05-29T08:29:43.000Z</time>
      </trkpt>
      <trkpt lat="47.43678" lon="6.79432">
        <ele>470</ele>
        <time>2016-05-29T08:29:44.000Z</time>
      </trkpt>
      <trkpt lat="47.43676" lon="6.79432">
        <ele>470</ele>
        <time>2016-05-29T08:29:45.000Z</time>
      </trkpt>
      <trkpt lat="47.43673" lon="6.79433">
        <ele>470</ele>
        <time>2016-05-29T08:29:47.000Z</time>
      </trkpt>
      <trkpt lat="47.43671" lon="6.79434">
        <ele>470</ele>
        <time>2016-05-29T08:29:48.000Z</time>
      </trkpt>
      <trkpt lat="47.43667" lon="6.79434">
        <ele>470</ele>
        <time>2016-05-29T08:29:50.000Z</time>
      </trkpt>
      <trkpt lat="47.43665" lon="6.79434">
        <ele>471</ele>
        <time>2016-05-29T08:29:51.000Z</time>
      </trkpt>
      <trkpt lat="47.43662" lon="6.79435">
        <ele>471</ele>
        <time>2016-05-29T08:29:53.000Z</time>
      </trkpt>
      <trkpt lat="47.4366" lon="6.79435">
        <ele>471</ele>
        <time>2016-05-29T08:29:54.000Z</time>
      </trkpt>
      <trkpt lat="47.43656" lon="6.79434">
        <ele>471</ele>
        <time>2016-05-29T08:29:57.000Z</time>
      </trkpt>
      <trkpt lat="47.43654" lon="6.79434">
        <ele>471</ele>
        <time>2016-05-29T08:29:58.000Z</time>
      </trkpt>
      <trkpt lat="47.43651" lon="6.79434">
        <ele>471</ele>
        <time>2016-05-29T08:30:00.000Z</time>
      </trkpt>
      <trkpt lat="47.43649" lon="6.79434">
        <ele>471</ele>
        <time>2016-05-29T08:30:01.000Z</time>
      </trkpt>
      <trkpt lat="47.43645" lon="6.79435">
        <ele>471</ele>
        <time>2016-05-29T08:30:04.000Z</time>
      </trkpt>
      <trkpt lat="47.43643" lon="6.79435">
        <ele>471</ele>
        <time>2016-05-29T08:30:05.000Z</time>
      </trkpt>
      <trkpt lat="47.43639" lon="6.79434">
        <ele>471</ele>
        <time>2016-05-29T08:30:07.000Z</time>
      </trkpt>
      <trkpt lat="47.43637" lon="6.79434">
        <ele>471</ele>
        <time>2016-05-29T08:30:08.000Z</time>
      </trkpt>
      <trkpt lat="47.43634" lon="6.79433">
        <ele>471</ele>
        <time>2016-05-29T08:30:10.000Z</time>
      </trkpt>
      <trkpt lat="47.43632" lon="6.79433">
        <ele>471</ele>
        <time>2016-05-29T08:30:11.000Z</time>
      </trkpt>
      <trkpt lat="47.4363" lon="6.79432">
        <ele>471</ele>
        <time>2016-05-29T08:30:12.000Z</time>
      </trkpt>
      <trkpt lat="47.43627" lon="6.79432">
        <ele>471</ele>
        <time>2016-05-29T08:30:13.000Z</time>
      </trkpt>
      <trkpt lat="47.43624" lon="6.79432">
        <ele>471</ele>
        <time>2016-05-29T08:30:14.000Z</time>
      </trkpt>
      <trkpt lat="47.4362" lon="6.79431">
        <ele>471</ele>
        <time>2016-05-29T08:30:15.000Z</time>
      </trkpt>
      <trkpt lat="47.43617" lon="6.79431">
        <ele>471</ele>
        <time>2016-05-29T08:30:16.000Z</time>
      </trkpt>
      <trkpt lat="47.43614" lon="6.79432">
        <ele>471</ele>
        <time>2016-05-29T08:30:17.000Z</time>
      </trkpt>
      <trkpt lat="47.43612" lon="6.79432">
        <ele>471</ele>
        <time>2016-05-29T08:30:18.000Z</time>
      </trkpt>
      <trkpt lat="47.43609" lon="6.79433">
        <ele>471</ele>
        <time>2016-05-29T08:30:19.000Z</time>
      </trkpt>
      <trkpt lat="47.43606" lon="6.79435">
        <ele>471</ele>
        <time>2016-05-29T08:30:21.000Z</time>
      </trkpt>
      <trkpt lat="47.43604" lon="6.79436">
        <ele>471</ele>
        <time>2016-05-29T08:30:22.000Z</time>
      </trkpt>
      <trkpt lat="47.436" lon="6.79436">
        <ele>471</ele>
        <time>2016-05-29T08:30:24.000Z</time>
      </trkpt>
      <trkpt lat="47.43598" lon="6.79437">
        <ele>470</ele>
        <time>2016-05-29T08:30:25.000Z</time>
      </trkpt>
      <trkpt lat="47.43594" lon="6.79438">
        <ele>470</ele>
        <time>2016-05-29T08:30:26.000Z</time>
      </trkpt>
      <trkpt lat="47.43591" lon="6.79439">
        <ele>470</ele>
        <time>2016-05-29T08:30:27.000Z</time>
      </trkpt>
      <trkpt lat="47.43588" lon="6.7944">
        <ele>471</ele>
        <time>2016-05-29T08:30:28.000Z</time>
      </trkpt>
      <trkpt lat="47.43585" lon="6.79441">
        <ele>471</ele>
        <time>2016-05-29T08:30:29.000Z</time>
      </trkpt>
      <trkpt lat="47.43582" lon="6.79442">
        <ele>467</ele>
        <time>2016-05-29T08:30:30.000Z</time>
      </trkpt>
      <trkpt lat="47.43579" lon="6.79442">
        <ele>467</ele>
        <time>2016-05-29T08:30:31.000Z</time>
      </trkpt>
      <trkpt lat="47.43576" lon="6.79443">
        <ele>467</ele>
        <time>2016-05-29T08:30:32.000Z</time>
      </trkpt>
      <trkpt lat="47.43574" lon="6.79444">
        <ele>467</ele>
        <time>2016-05-29T08:30:33.000Z</time>
      </trkpt>
      <trkpt lat="47.4357" lon="6.79445">
        <ele>467</ele>
        <time>2016-05-29T08:30:35.000Z</time>
      </trkpt>
      <trkpt lat="47.43568" lon="6.79446">
        <ele>467</ele>
        <time>2016-05-29T08:30:36.000Z</time>
      </trkpt>
      <trkpt lat="47.43566" lon="6.79446">
        <ele>467</ele>
        <time>2016-05-29T08:30:37.000Z</time>
      </trkpt>
      <trkpt lat="47.43563" lon="6.79447">
        <ele>467</ele>
        <time>2016-05-29T08:30:38.000Z</time>
      </trkpt>
      <trkpt lat="47.43561" lon="6.79447">
        <ele>467</ele>
        <time>2016-05-29T08:30:39.000Z</time>
      </trkpt>
      <trkpt lat="47.43558" lon="6.79448">
        <ele>467</ele>
        <time>2016-05-29T08:30:40.000Z</time>
      </trkpt>
      <trkpt lat="47.43554" lon="6.79449">
        <ele>467</ele>
        <time>2016-05-29T08:30:42.000Z</time>
      </trkpt>
      <trkpt lat="47.43552" lon="6.79449">
        <ele>467</ele>
        <time>2016-05-29T08:30:43.000Z</time>
      </trkpt>
      <trkpt lat="47.43548" lon="6.79451">
        <ele>467</ele>
        <time>2016-05-29T08:30:45.000Z</time>
      </trkpt>
      <trkpt lat="47.43547" lon="6.79452">
        <ele>467</ele>
        <time>2016-05-29T08:30:46.000Z</time>
      </trkpt>
      <trkpt lat="47.43542" lon="6.79453">
        <ele>467</ele>
        <time>2016-05-29T08:30:48.000Z</time>
      </trkpt>
      <trkpt lat="47.4354" lon="6.79453">
        <ele>467</ele>
        <time>2016-05-29T08:30:49.000Z</time>
      </trkpt>
      <trkpt lat="47.43538" lon="6.79454">
        <ele>466</ele>
        <time>2016-05-29T08:30:50.000Z</time>
      </trkpt>
      <trkpt lat="47.43535" lon="6.79455">
        <ele>466</ele>
        <time>2016-05-29T08:30:51.000Z</time>
      </trkpt>
      <trkpt lat="47.43533" lon="6.79456">
        <ele>466</ele>
        <time>2016-05-29T08:30:52.000Z</time>
      </trkpt>
      <trkpt lat="47.43531" lon="6.79457">
        <ele>466</ele>
        <time>2016-05-29T08:30:53.000Z</time>
      </trkpt>
      <trkpt lat="47.43528" lon="6.79458">
        <ele>467</ele>
        <time>2016-05-29T08:30:54.000Z</time>
      </trkpt>
      <trkpt lat="47.43526" lon="6.79459">
        <ele>466</ele>
        <time>2016-05-29T08:30:55.000Z</time>
      </trkpt>
      <trkpt lat="47.43523" lon="6.79459">
        <ele>466</ele>
        <time>2016-05-29T08:30:56.000Z</time>
      </trkpt>
      <trkpt lat="47.4352" lon="6.7946">
        <ele>466</ele>
        <time>2016-05-29T08:30:57.000Z</time>
      </trkpt>
      <trkpt lat="47.43516" lon="6.79462">
        <ele>467</ele>
        <time>2016-05-29T08:30:59.000Z</time>
      </trkpt>
      <trkpt lat="47.43514" lon="6.79464">
        <ele>467</ele>
        <time>2016-05-29T08:31:00.000Z</time>
      </trkpt>
      <trkpt lat="47.4351" lon="6.79467">
        <ele>468</ele>
        <time>2016-05-29T08:31:02.000Z</time>
      </trkpt>
      <trkpt lat="47.43508" lon="6.79468">
        <ele>468</ele>
        <time>2016-05-29T08:31:03.000Z</time>
      </trkpt>
      <trkpt lat="47.43504" lon="6.7947">
        <ele>469</ele>
        <time>2016-05-29T08:31:05.000Z</time>
      </trkpt>
      <trkpt lat="47.43503" lon="6.7947">
        <ele>469</ele>
        <time>2016-05-29T08:31:06.000Z</time>
      </trkpt>
      <trkpt lat="47.43499" lon="6.79472">
        <ele>460</ele>
        <time>2016-05-29T08:31:08.000Z</time>
      </trkpt>
      <trkpt lat="47.43497" lon="6.79473">
        <ele>461</ele>
        <time>2016-05-29T08:31:09.000Z</time>
      </trkpt>
      <trkpt lat="47.43495" lon="6.79475">
        <ele>462</ele>
        <time>2016-05-29T08:31:10.000Z</time>
      </trkpt>
      <trkpt lat="47.43493" lon="6.79477">
        <ele>462</ele>
        <time>2016-05-29T08:31:11.000Z</time>
      </trkpt>
      <trkpt lat="47.4349" lon="6.79479">
        <ele>462</ele>
        <time>2016-05-29T08:31:12.000Z</time>
      </trkpt>
      <trkpt lat="47.43488" lon="6.79481">
        <ele>463</ele>
        <time>2016-05-29T08:31:13.000Z</time>
      </trkpt>
      <trkpt lat="47.43485" lon="6.79483">
        <ele>463</ele>
        <time>2016-05-29T08:31:14.000Z</time>
      </trkpt>
      <trkpt lat="47.43482" lon="6.79485">
        <ele>463</ele>
        <time>2016-05-29T08:31:15.000Z</time>
      </trkpt>
      <trkpt lat="47.43479" lon="6.79488">
        <ele>463</ele>
        <time>2016-05-29T08:31:16.000Z</time>
      </trkpt>
      <trkpt lat="47.43476" lon="6.7949">
        <ele>462</ele>
        <time>2016-05-29T08:31:17.000Z</time>
      </trkpt>
      <trkpt lat="47.43474" lon="6.79493">
        <ele>462</ele>
        <time>2016-05-29T08:31:18.000Z</time>
      </trkpt>
      <trkpt lat="47.43471" lon="6.79496">
        <ele>461</ele>
        <time>2016-05-29T08:31:19.000Z</time>
      </trkpt>
      <trkpt lat="47.43468" lon="6.795">
        <ele>461</ele>
        <time>2016-05-29T08:31:20.000Z</time>
      </trkpt>
      <trkpt lat="47.43465" lon="6.79504">
        <ele>477</ele>
        <time>2016-05-29T08:31:21.000Z</time>
      </trkpt>
      <trkpt lat="47.43463" lon="6.79508">
        <ele>477</ele>
        <time>2016-05-29T08:31:22.000Z</time>
      </trkpt>
      <trkpt lat="47.4346" lon="6.79511">
        <ele>477</ele>
        <time>2016-05-29T08:31:23.000Z</time>
      </trkpt>
      <trkpt lat="47.43458" lon="6.79514">
        <ele>477</ele>
        <time>2016-05-29T08:31:24.000Z</time>
      </trkpt>
      <trkpt lat="47.43455" lon="6.79517">
        <ele>477</ele>
        <time>2016-05-29T08:31:25.000Z</time>
      </trkpt>
      <trkpt lat="47.43452" lon="6.79519">
        <ele>477</ele>
        <time>2016-05-29T08:31:26.000Z</time>
      </trkpt>
      <trkpt lat="47.43448" lon="6.79521">
        <ele>476</ele>
        <time>2016-05-29T08:31:27.000Z</time>
      </trkpt>
      <trkpt lat="47.43445" lon="6.79522">
        <ele>476</ele>
        <time>2016-05-29T08:31:28.000Z</time>
      </trkpt>
      <trkpt lat="47.43442" lon="6.79523">
        <ele>476</ele>
        <time>2016-05-29T08:31:29.000Z</time>
      </trkpt>
      <trkpt lat="47.43439" lon="6.79523">
        <ele>476</ele>
        <time>2016-05-29T08:31:30.000Z</time>
      </trkpt>
      <trkpt lat="47.43436" lon="6.79524">
        <ele>475</ele>
        <time>2016-05-29T08:31:31.000Z</time>
      </trkpt>
      <trkpt lat="47.43434" lon="6.79524">
        <ele>475</ele>
        <time>2016-05-29T08:31:32.000Z</time>
      </trkpt>
      <trkpt lat="47.43431" lon="6.79524">
        <ele>475</ele>
        <time>2016-05-29T08:31:33.000Z</time>
      </trkpt>
      <trkpt lat="47.43428" lon="6.79524">
        <ele>475</ele>
        <time>2016-05-29T08:31:34.000Z</time>
      </trkpt>
      <trkpt lat="47.43425" lon="6.79524">
        <ele>474</ele>
        <time>2016-05-29T08:31:35.000Z</time>
      </trkpt>
      <trkpt lat="47.43423" lon="6.79523">
        <ele>474</ele>
        <time>2016-05-29T08:31:36.000Z</time>
      </trkpt>
      <trkpt lat="47.4342" lon="6.79523">
        <ele>474</ele>
        <time>2016-05-29T08:31:37.000Z</time>
      </trkpt>
      <trkpt lat="47.43416" lon="6.79523">
        <ele>469</ele>
        <time>2016-05-29T08:31:38.000Z</time>
      </trkpt>
      <trkpt lat="47.43413" lon="6.79523">
        <ele>469</ele>
        <time>2016-05-29T08:31:39.000Z</time>
      </trkpt>
      <trkpt lat="47.4341" lon="6.79524">
        <ele>470</ele>
        <time>2016-05-29T08:31:40.000Z</time>
      </trkpt>
      <trkpt lat="47.43406" lon="6.79525">
        <ele>470</ele>
        <time>2016-05-29T08:31:41.000Z</time>
      </trkpt>
      <trkpt lat="47.43403" lon="6.79526">
        <ele>470</ele>
        <time>2016-05-29T08:31:42.000Z</time>
      </trkpt>
      <trkpt lat="47.434" lon="6.79527">
        <ele>470</ele>
        <time>2016-05-29T08:31:43.000Z</time>
      </trkpt>
      <trkpt lat="47.43396" lon="6.79529">
        <ele>470</ele>
        <time>2016-05-29T08:31:45.000Z</time>
      </trkpt>
      <trkpt lat="47.43395" lon="6.79529">
        <ele>470</ele>
        <time>2016-05-29T08:31:46.000Z</time>
      </trkpt>
      <trkpt lat="47.43391" lon="6.7953">
        <ele>470</ele>
        <time>2016-05-29T08:31:48.000Z</time>
      </trkpt>
      <trkpt lat="47.43388" lon="6.79531">
        <ele>470</ele>
        <time>2016-05-29T08:31:49.000Z</time>
      </trkpt>
      <trkpt lat="47.43384" lon="6.79533">
        <ele>471</ele>
        <time>2016-05-29T08:31:51.000Z</time>
      </trkpt>
      <trkpt lat="47.43383" lon="6.79535">
        <ele>471</ele>
        <time>2016-05-29T08:31:52.000Z</time>
      </trkpt>
      <trkpt lat="47.4338" lon="6.79537">
        <ele>471</ele>
        <time>2016-05-29T08:31:55.000Z</time>
      </trkpt>
      <trkpt lat="47.43378" lon="6.79536">
        <ele>471</ele>
        <time>2016-05-29T08:31:56.000Z</time>
      </trkpt>
      <trkpt lat="47.43376" lon="6.79536">
        <ele>471</ele>
        <time>2016-05-29T08:31:57.000Z</time>
      </trkpt>
      <trkpt lat="47.43373" lon="6.79535">
        <ele>470</ele>
        <time>2016-05-29T08:31:58.000Z</time>
      </trkpt>
      <trkpt lat="47.4337" lon="6.79535">
        <ele>470</ele>
        <time>2016-05-29T08:31:59.000Z</time>
      </trkpt>
      <trkpt lat="47.43368" lon="6.79535">
        <ele>470</ele>
        <time>2016-05-29T08:32:00.000Z</time>
      </trkpt>
      <trkpt lat="47.43364" lon="6.79537">
        <ele>470</ele>
        <time>2016-05-29T08:32:02.000Z</time>
      </trkpt>
      <trkpt lat="47.43362" lon="6.79537">
        <ele>470</ele>
        <time>2016-05-29T08:32:03.000Z</time>
      </trkpt>
      <trkpt lat="47.43359" lon="6.79538">
        <ele>470</ele>
        <time>2016-05-29T08:32:05.000Z</time>
      </trkpt>
      <trkpt lat="47.43358" lon="6.79539">
        <ele>470</ele>
        <time>2016-05-29T08:32:06.000Z</time>
      </trkpt>
      <trkpt lat="47.43354" lon="6.79539">
        <ele>470</ele>
        <time>2016-05-29T08:32:08.000Z</time>
      </trkpt>
      <trkpt lat="47.43352" lon="6.79539">
        <ele>470</ele>
        <time>2016-05-29T08:32:09.000Z</time>
      </trkpt>
      <trkpt lat="47.43349" lon="6.79539">
        <ele>470</ele>
        <time>2016-05-29T08:32:11.000Z</time>
      </trkpt>
      <trkpt lat="47.43347" lon="6.79539">
        <ele>470</ele>
        <time>2016-05-29T08:32:12.000Z</time>
      </trkpt>
      <trkpt lat="47.43343" lon="6.79541">
        <ele>470</ele>
        <time>2016-05-29T08:32:15.000Z</time>
      </trkpt>
      <trkpt lat="47.43341" lon="6.79541">
        <ele>470</ele>
        <time>2016-05-29T08:32:17.000Z</time>
      </trkpt>
      <trkpt lat="47.43337" lon="6.79542">
        <ele>470</ele>
        <time>2016-05-29T08:32:19.000Z</time>
      </trkpt>
      <trkpt lat="47.43336" lon="6.79543">
        <ele>471</ele>
        <time>2016-05-29T08:32:20.000Z</time>
      </trkpt>
      <trkpt lat="47.43332" lon="6.79545">
        <ele>468</ele>
        <time>2016-05-29T08:32:22.000Z</time>
      </trkpt>
      <trkpt lat="47.43329" lon="6.79546">
        <ele>469</ele>
        <time>2016-05-29T08:32:23.000Z</time>
      </trkpt>
      <trkpt lat="47.43327" lon="6.79547">
        <ele>469</ele>
        <time>2016-05-29T08:32:24.000Z</time>
      </trkpt>
      <trkpt lat="47.43324" lon="6.79548">
        <ele>469</ele>
        <time>2016-05-29T08:32:25.000Z</time>
      </trkpt>
      <trkpt lat="47.43322" lon="6.79549">
        <ele>469</ele>
        <time>2016-05-29T08:32:26.000Z</time>
      </trkpt>
      <trkpt lat="47.43319" lon="6.7955">
        <ele>470</ele>
        <time>2016-05-29T08:32:27.000Z</time>
      </trkpt>
      <trkpt lat="47.43316" lon="6.79551">
        <ele>470</ele>
        <time>2016-05-29T08:32:28.000Z</time>
      </trkpt>
      <trkpt lat="47.43314" lon="6.79552">
        <ele>470</ele>
        <time>2016-05-29T08:32:29.000Z</time>
      </trkpt>
      <trkpt lat="47.43311" lon="6.79553">
        <ele>470</ele>
        <time>2016-05-29T08:32:30.000Z</time>
      </trkpt>
      <trkpt lat="47.43309" lon="6.79554">
        <ele>470</ele>
        <time>2016-05-29T08:32:31.000Z</time>
      </trkpt>
      <trkpt lat="47.43306" lon="6.79555">
        <ele>470</ele>
        <time>2016-05-29T08:32:33.000Z</time>
      </trkpt>
      <trkpt lat="47.43304" lon="6.79556">
        <ele>470</ele>
        <time>2016-05-29T08:32:34.000Z</time>
      </trkpt>
      <trkpt lat="47.433" lon="6.79557">
        <ele>470</ele>
        <time>2016-05-29T08:32:36.000Z</time>
      </trkpt>
      <trkpt lat="47.43298" lon="6.79557">
        <ele>470</ele>
        <time>2016-05-29T08:32:37.000Z</time>
      </trkpt>
      <trkpt lat="47.43294" lon="6.79557">
        <ele>470</ele>
        <time>2016-05-29T08:32:39.000Z</time>
      </trkpt>
      <trkpt lat="47.43291" lon="6.79557">
        <ele>470</ele>
        <time>2016-05-29T08:32:40.000Z</time>
      </trkpt>
      <trkpt lat="47.43288" lon="6.79557">
        <ele>470</ele>
        <time>2016-05-29T08:32:41.000Z</time>
      </trkpt>
      <trkpt lat="47.43285" lon="6.79556">
        <ele>470</ele>
        <time>2016-05-29T08:32:42.000Z</time>
      </trkpt>
      <trkpt lat="47.43283" lon="6.79555">
        <ele>470</ele>
        <time>2016-05-29T08:32:43.000Z</time>
      </trkpt>
      <trkpt lat="47.4328" lon="6.79554">
        <ele>470</ele>
        <time>2016-05-29T08:32:44.000Z</time>
      </trkpt>
      <trkpt lat="47.43278" lon="6.79553">
        <ele>470</ele>
        <time>2016-05-29T08:32:45.000Z</time>
      </trkpt>
      <trkpt lat="47.43275" lon="6.79553">
        <ele>470</ele>
        <time>2016-05-29T08:32:46.000Z</time>
      </trkpt>
      <trkpt lat="47.43272" lon="6.79553">
        <ele>470</ele>
        <time>2016-05-29T08:32:47.000Z</time>
      </trkpt>
      <trkpt lat="47.43268" lon="6.79553">
        <ele>470</ele>
        <time>2016-05-29T08:32:48.000Z</time>
      </trkpt>
      <trkpt lat="47.43264" lon="6.79554">
        <ele>471</ele>
        <time>2016-05-29T08:32:49.000Z</time>
      </trkpt>
      <trkpt lat="47.43261" lon="6.79555">
        <ele>471</ele>
        <time>2016-05-29T08:32:50.000Z</time>
      </trkpt>
      <trkpt lat="47.43258" lon="6.79556">
        <ele>472</ele>
        <time>2016-05-29T08:32:51.000Z</time>
      </trkpt>
      <trkpt lat="47.43256" lon="6.79557">
        <ele>472</ele>
        <time>2016-05-29T08:32:52.000Z</time>
      </trkpt>
      <trkpt lat="47.43253" lon="6.79558">
        <ele>473</ele>
        <time>2016-05-29T08:32:53.000Z</time>
      </trkpt>
      <trkpt lat="47.43251" lon="6.79558">
        <ele>473</ele>
        <time>2016-05-29T08:32:54.000Z</time>
      </trkpt>
      <trkpt lat="47.43248" lon="6.79558">
        <ele>472</ele>
        <time>2016-05-29T08:32:55.000Z</time>
      </trkpt>
      <trkpt lat="47.43245" lon="6.79556">
        <ele>471</ele>
        <time>2016-05-29T08:32:56.000Z</time>
      </trkpt>
      <trkpt lat="47.43242" lon="6.79555">
        <ele>470</ele>
        <time>2016-05-29T08:32:57.000Z</time>
      </trkpt>
      <trkpt lat="47.43239" lon="6.79553">
        <ele>469</ele>
        <time>2016-05-29T08:32:58.000Z</time>
      </trkpt>
      <trkpt lat="47.43236" lon="6.79552">
        <ele>469</ele>
        <time>2016-05-29T08:32:59.000Z</time>
      </trkpt>
      <trkpt lat="47.43233" lon="6.79552">
        <ele>469</ele>
        <time>2016-05-29T08:33:00.000Z</time>
      </trkpt>
      <trkpt lat="47.4323" lon="6.79551">
        <ele>468</ele>
        <time>2016-05-29T08:33:01.000Z</time>
      </trkpt>
      <trkpt lat="47.43226" lon="6.79551">
        <ele>468</ele>
        <time>2016-05-29T08:33:02.000Z</time>
      </trkpt>
      <trkpt lat="47.43222" lon="6.79551">
        <ele>468</ele>
        <time>2016-05-29T08:33:03.000Z</time>
      </trkpt>
      <trkpt lat="47.43219" lon="6.79551">
        <ele>468</ele>
        <time>2016-05-29T08:33:04.000Z</time>
      </trkpt>
      <trkpt lat="47.43216" lon="6.79551">
        <ele>468</ele>
        <time>2016-05-29T08:33:05.000Z</time>
      </trkpt>
      <trkpt lat="47.43212" lon="6.79552">
        <ele>468</ele>
        <time>2016-05-29T08:33:06.000Z</time>
      </trkpt>
      <trkpt lat="47.43209" lon="6.79553">
        <ele>468</ele>
        <time>2016-05-29T08:33:07.000Z</time>
      </trkpt>
      <trkpt lat="47.43206" lon="6.79553">
        <ele>468</ele>
        <time>2016-05-29T08:33:08.000Z</time>
      </trkpt>
      <trkpt lat="47.43204" lon="6.79554">
        <ele>468</ele>
        <time>2016-05-29T08:33:09.000Z</time>
      </trkpt>
      <trkpt lat="47.432" lon="6.79554">
        <ele>468</ele>
        <time>2016-05-29T08:33:10.000Z</time>
      </trkpt>
      <trkpt lat="47.43197" lon="6.79554">
        <ele>468</ele>
        <time>2016-05-29T08:33:11.000Z</time>
      </trkpt>
      <trkpt lat="47.43193" lon="6.79554">
        <ele>468</ele>
        <time>2016-05-29T08:33:12.000Z</time>
      </trkpt>
      <trkpt lat="47.4319" lon="6.79555">
        <ele>469</ele>
        <time>2016-05-29T08:33:13.000Z</time>
      </trkpt>
      <trkpt lat="47.43187" lon="6.79556">
        <ele>469</ele>
        <time>2016-05-29T08:33:14.000Z</time>
      </trkpt>
      <trkpt lat="47.43183" lon="6.79557">
        <ele>470</ele>
        <time>2016-05-29T08:33:15.000Z</time>
      </trkpt>
      <trkpt lat="47.4318" lon="6.79558">
        <ele>470</ele>
        <time>2016-05-29T08:33:16.000Z</time>
      </trkpt>
      <trkpt lat="47.43177" lon="6.7956">
        <ele>471</ele>
        <time>2016-05-29T08:33:17.000Z</time>
      </trkpt>
      <trkpt lat="47.43174" lon="6.79562">
        <ele>472</ele>
        <time>2016-05-29T08:33:18.000Z</time>
      </trkpt>
      <trkpt lat="47.43172" lon="6.79565">
        <ele>474</ele>
        <time>2016-05-29T08:33:19.000Z</time>
      </trkpt>
      <trkpt lat="47.43171" lon="6.79568">
        <ele>475</ele>
        <time>2016-05-29T08:33:20.000Z</time>
      </trkpt>
      <trkpt lat="47.43169" lon="6.79572">
        <ele>477</ele>
        <time>2016-05-29T08:33:21.000Z</time>
      </trkpt>
      <trkpt lat="47.43167" lon="6.79576">
        <ele>480</ele>
        <time>2016-05-29T08:33:22.000Z</time>
      </trkpt>
      <trkpt lat="47.43166" lon="6.79581">
        <ele>483</ele>
        <time>2016-05-29T08:33:23.000Z</time>
      </trkpt>
      <trkpt lat="47.43164" lon="6.79585">
        <ele>485</ele>
        <time>2016-05-29T08:33:24.000Z</time>
      </trkpt>
      <trkpt lat="47.43163" lon="6.79591">
        <ele>486</ele>
        <time>2016-05-29T08:33:26.000Z</time>
      </trkpt>
      <trkpt lat="47.43162" lon="6.79593">
        <ele>486</ele>
        <time>2016-05-29T08:33:27.000Z</time>
      </trkpt>
      <trkpt lat="47.43161" lon="6.79598">
        <ele>487</ele>
        <time>2016-05-29T08:33:30.000Z</time>
      </trkpt>
      <trkpt lat="47.43161" lon="6.796">
        <ele>487</ele>
        <time>2016-05-29T08:33:31.000Z</time>
      </trkpt>
      <trkpt lat="47.43158" lon="6.79603">
        <ele>487</ele>
        <time>2016-05-29T08:33:33.000Z</time>
      </trkpt>
      <trkpt lat="47.43156" lon="6.79604">
        <ele>487</ele>
        <time>2016-05-29T08:33:34.000Z</time>
      </trkpt>
      <trkpt lat="47.43152" lon="6.79604">
        <ele>488</ele>
        <time>2016-05-29T08:33:36.000Z</time>
      </trkpt>
      <trkpt lat="47.43151" lon="6.79604">
        <ele>488</ele>
        <time>2016-05-29T08:33:37.000Z</time>
      </trkpt>
      <trkpt lat="47.43147" lon="6.79604">
        <ele>488</ele>
        <time>2016-05-29T08:33:41.000Z</time>
      </trkpt>
      <trkpt lat="47.43146" lon="6.79603">
        <ele>488</ele>
        <time>2016-05-29T08:33:42.000Z</time>
      </trkpt>
      <trkpt lat="47.43144" lon="6.796">
        <ele>487</ele>
        <time>2016-05-29T08:33:44.000Z</time>
      </trkpt>
      <trkpt lat="47.43142" lon="6.79598">
        <ele>487</ele>
        <time>2016-05-29T08:33:45.000Z</time>
      </trkpt>
      <trkpt lat="47.43139" lon="6.79594">
        <ele>487</ele>
        <time>2016-05-29T08:33:47.000Z</time>
      </trkpt>
      <trkpt lat="47.43138" lon="6.79592">
        <ele>487</ele>
        <time>2016-05-29T08:33:48.000Z</time>
      </trkpt>
      <trkpt lat="47.43136" lon="6.7959">
        <ele>487</ele>
        <time>2016-05-29T08:33:49.000Z</time>
      </trkpt>
      <trkpt lat="47.43134" lon="6.79587">
        <ele>487</ele>
        <time>2016-05-29T08:33:50.000Z</time>
      </trkpt>
      <trkpt lat="47.43133" lon="6.79584">
        <ele>487</ele>
        <time>2016-05-29T08:33:51.000Z</time>
      </trkpt>
      <trkpt lat="47.43132" lon="6.79581">
        <ele>473</ele>
        <time>2016-05-29T08:33:52.000Z</time>
      </trkpt>
      <trkpt lat="47.4313" lon="6.79576">
        <ele>472</ele>
        <time>2016-05-29T08:33:54.000Z</time>
      </trkpt>
      <trkpt lat="47.43129" lon="6.79574">
        <ele>472</ele>
        <time>2016-05-29T08:33:55.000Z</time>
      </trkpt>
      <trkpt lat="47.43126" lon="6.7957">
        <ele>471</ele>
        <time>2016-05-29T08:33:57.000Z</time>
      </trkpt>
      <trkpt lat="47.43124" lon="6.79569">
        <ele>471</ele>
        <time>2016-05-29T08:33:58.000Z</time>
      </trkpt>
      <trkpt lat="47.43119" lon="6.7957">
        <ele>471</ele>
        <time>2016-05-29T08:34:00.000Z</time>
      </trkpt>
      <trkpt lat="47.43117" lon="6.79572">
        <ele>472</ele>
        <time>2016-05-29T08:34:01.000Z</time>
      </trkpt>
      <trkpt lat="47.43115" lon="6.79574">
        <ele>472</ele>
        <time>2016-05-29T08:34:02.000Z</time>
      </trkpt>
      <trkpt lat="47.43112" lon="6.79575">
        <ele>473</ele>
        <time>2016-05-29T08:34:03.000Z</time>
      </trkpt>
      <trkpt lat="47.4311" lon="6.79576">
        <ele>473</ele>
        <time>2016-05-29T08:34:04.000Z</time>
      </trkpt>
      <trkpt lat="47.43107" lon="6.79577">
        <ele>474</ele>
        <time>2016-05-29T08:34:05.000Z</time>
      </trkpt>
      <trkpt lat="47.43105" lon="6.79577">
        <ele>474</ele>
        <time>2016-05-29T08:34:06.000Z</time>
      </trkpt>
      <trkpt lat="47.43103" lon="6.79578">
        <ele>475</ele>
        <time>2016-05-29T08:34:07.000Z</time>
      </trkpt>
      <trkpt lat="47.431" lon="6.79578">
        <ele>476</ele>
        <time>2016-05-29T08:34:08.000Z</time>
      </trkpt>
      <trkpt lat="47.43097" lon="6.79578">
        <ele>477</ele>
        <time>2016-05-29T08:34:09.000Z</time>
      </trkpt>
      <trkpt lat="47.43094" lon="6.79578">
        <ele>478</ele>
        <time>2016-05-29T08:34:10.000Z</time>
      </trkpt>
      <trkpt lat="47.43092" lon="6.79577">
        <ele>478</ele>
        <time>2016-05-29T08:34:11.000Z</time>
      </trkpt>
      <trkpt lat="47.43089" lon="6.79572">
        <ele>477</ele>
        <time>2016-05-29T08:34:14.000Z</time>
      </trkpt>
      <trkpt lat="47.43089" lon="6.7957">
        <ele>476</ele>
        <time>2016-05-29T08:34:15.000Z</time>
      </trkpt>
      <trkpt lat="47.43085" lon="6.79573">
        <ele>478</ele>
        <time>2016-05-29T08:34:26.000Z</time>
      </trkpt>
      <trkpt lat="47.43085" lon="6.79574">
        <ele>479</ele>
        <time>2016-05-29T08:34:27.000Z</time>
      </trkpt>
      <trkpt lat="47.43082" lon="6.79578">
        <ele>482</ele>
        <time>2016-05-29T08:40:09.000Z</time>
      </trkpt>
      <trkpt lat="47.43082" lon="6.79579">
        <ele>482</ele>
        <time>2016-05-29T08:40:10.000Z</time>
      </trkpt>
      <trkpt lat="47.43082" lon="6.79582">
        <ele>484</ele>
        <time>2016-05-29T08:40:12.999Z</time>
      </trkpt>
      <trkpt lat="47.43082" lon="6.79586">
        <ele>486</ele>
        <time>2016-05-29T08:40:14.000Z</time>
      </trkpt>
      <trkpt lat="47.43083" lon="6.79589">
        <ele>486</ele>
        <time>2016-05-29T08:40:15.001Z</time>
      </trkpt>
      <trkpt lat="47.43084" lon="6.79594">
        <ele>486</ele>
        <time>2016-05-29T08:40:16.000Z</time>
      </trkpt>
      <trkpt lat="47.43083" lon="6.796">
        <ele>487</ele>
        <time>2016-05-29T08:40:22.000Z</time>
      </trkpt>
      <trkpt lat="47.43082" lon="6.79601">
        <ele>487</ele>
        <time>2016-05-29T08:40:23.000Z</time>
      </trkpt>
      <trkpt lat="47.43082" lon="6.79607">
        <ele>488</ele>
        <time>2016-05-29T08:40:28.000Z</time>
      </trkpt>
      <trkpt lat="47.43082" lon="6.7961">
        <ele>488</ele>
        <time>2016-05-29T08:40:29.000Z</time>
      </trkpt>
      <trkpt lat="47.43081" lon="6.79616">
        <ele>488</ele>
        <time>2016-05-29T08:40:35.000Z</time>
      </trkpt>
      <trkpt lat="47.4308" lon="6.79616">
        <ele>488</ele>
        <time>2016-05-29T08:40:36.000Z</time>
      </trkpt>
      <trkpt lat="47.43076" lon="6.79616">
        <ele>488</ele>
        <time>2016-05-29T08:40:40.000Z</time>
      </trkpt>
      <trkpt lat="47.43075" lon="6.79616">
        <ele>488</ele>
        <time>2016-05-29T08:40:41.000Z</time>
      </trkpt>
      <trkpt lat="47.43072" lon="6.79617">
        <ele>489</ele>
        <time>2016-05-29T08:40:44.000Z</time>
      </trkpt>
      <trkpt lat="47.43071" lon="6.79617">
        <ele>489</ele>
        <time>2016-05-29T08:40:45.000Z</time>
      </trkpt>
      <trkpt lat="47.43067" lon="6.79619">
        <ele>489</ele>
        <time>2016-05-29T08:40:47.000Z</time>
      </trkpt>
      <trkpt lat="47.43065" lon="6.7962">
        <ele>489</ele>
        <time>2016-05-29T08:40:48.000Z</time>
      </trkpt>
      <trkpt lat="47.43063" lon="6.79621">
        <ele>489</ele>
        <time>2016-05-29T08:40:49.000Z</time>
      </trkpt>
      <trkpt lat="47.43061" lon="6.79623">
        <ele>489</ele>
        <time>2016-05-29T08:40:50.000Z</time>
      </trkpt>
      <trkpt lat="47.43058" lon="6.79624">
        <ele>489</ele>
        <time>2016-05-29T08:40:51.000Z</time>
      </trkpt>
      <trkpt lat="47.43056" lon="6.79625">
        <ele>489</ele>
        <time>2016-05-29T08:40:52.000Z</time>
      </trkpt>
      <trkpt lat="47.43054" lon="6.79628">
        <ele>489</ele>
        <time>2016-05-29T08:40:53.000Z</time>
      </trkpt>
      <trkpt lat="47.43052" lon="6.79631">
        <ele>489</ele>
        <time>2016-05-29T08:40:54.000Z</time>
      </trkpt>
      <trkpt lat="47.4305" lon="6.79635">
        <ele>490</ele>
        <time>2016-05-29T08:40:55.000Z</time>
      </trkpt>
      <trkpt lat="47.43047" lon="6.79639">
        <ele>490</ele>
        <time>2016-05-29T08:40:56.000Z</time>
      </trkpt>
      <trkpt lat="47.43044" lon="6.79644">
        <ele>490</ele>
        <time>2016-05-29T08:40:57.000Z</time>
      </trkpt>
      <trkpt lat="47.43042" lon="6.79648">
        <ele>490</ele>
        <time>2016-05-29T08:40:58.000Z</time>
      </trkpt>
      <trkpt lat="47.43039" lon="6.79651">
        <ele>490</ele>
        <time>2016-05-29T08:40:59.000Z</time>
      </trkpt>
      <trkpt lat="47.43036" lon="6.79655">
        <ele>490</ele>
        <time>2016-05-29T08:41:00.000Z</time>
      </trkpt>
      <trkpt lat="47.43034" lon="6.79658">
        <ele>490</ele>
        <time>2016-05-29T08:41:01.000Z</time>
      </trkpt>
      <trkpt lat="47.43033" lon="6.79662">
        <ele>491</ele>
        <time>2016-05-29T08:41:02.000Z</time>
      </trkpt>
      <trkpt lat="47.43032" lon="6.79665">
        <ele>491</ele>
        <time>2016-05-29T08:41:03.000Z</time>
      </trkpt>
      <trkpt lat="47.43031" lon="6.79668">
        <ele>492</ele>
        <time>2016-05-29T08:41:04.000Z</time>
      </trkpt>
      <trkpt lat="47.4303" lon="6.79671">
        <ele>492</ele>
        <time>2016-05-29T08:41:05.000Z</time>
      </trkpt>
      <trkpt lat="47.4303" lon="6.79674">
        <ele>492</ele>
        <time>2016-05-29T08:41:06.000Z</time>
      </trkpt>
      <trkpt lat="47.43029" lon="6.79679">
        <ele>492</ele>
        <time>2016-05-29T08:41:07.000Z</time>
      </trkpt>
      <trkpt lat="47.43028" lon="6.79686">
        <ele>492</ele>
        <time>2016-05-29T08:41:08.000Z</time>
      </trkpt>
      <trkpt lat="47.43028" lon="6.79693">
        <ele>492</ele>
        <time>2016-05-29T08:41:09.000Z</time>
      </trkpt>
      <trkpt lat="47.43027" lon="6.79701">
        <ele>492</ele>
        <time>2016-05-29T08:41:10.000Z</time>
      </trkpt>
      <trkpt lat="47.43026" lon="6.79707">
        <ele>492</ele>
        <time>2016-05-29T08:41:11.000Z</time>
      </trkpt>
      <trkpt lat="47.43024" lon="6.79711">
        <ele>492</ele>
        <time>2016-05-29T08:41:12.000Z</time>
      </trkpt>
      <trkpt lat="47.43023" lon="6.79715">
        <ele>492</ele>
        <time>2016-05-29T08:41:13.000Z</time>
      </trkpt>
      <trkpt lat="47.43021" lon="6.79718">
        <ele>492</ele>
        <time>2016-05-29T08:41:14.000Z</time>
      </trkpt>
      <trkpt lat="47.4302" lon="6.79721">
        <ele>492</ele>
        <time>2016-05-29T08:41:15.000Z</time>
      </trkpt>
      <trkpt lat="47.43018" lon="6.79724">
        <ele>492</ele>
        <time>2016-05-29T08:41:16.000Z</time>
      </trkpt>
      <trkpt lat="47.43016" lon="6.79728">
        <ele>492</ele>
        <time>2016-05-29T08:41:17.000Z</time>
      </trkpt>
      <trkpt lat="47.43014" lon="6.79731">
        <ele>492</ele>
        <time>2016-05-29T08:41:18.000Z</time>
      </trkpt>
      <trkpt lat="47.43012" lon="6.79734">
        <ele>492</ele>
        <time>2016-05-29T08:41:19.000Z</time>
      </trkpt>
      <trkpt lat="47.4301" lon="6.79737">
        <ele>492</ele>
        <time>2016-05-29T08:41:20.000Z</time>
      </trkpt>
      <trkpt lat="47.43008" lon="6.7974">
        <ele>493</ele>
        <time>2016-05-29T08:41:21.000Z</time>
      </trkpt>
      <trkpt lat="47.43007" lon="6.79744">
        <ele>493</ele>
        <time>2016-05-29T08:41:22.000Z</time>
      </trkpt>
      <trkpt lat="47.43006" lon="6.79748">
        <ele>493</ele>
        <time>2016-05-29T08:41:23.000Z</time>
      </trkpt>
      <trkpt lat="47.43004" lon="6.79752">
        <ele>493</ele>
        <time>2016-05-29T08:41:24.000Z</time>
      </trkpt>
      <trkpt lat="47.43003" lon="6.79755">
        <ele>493</ele>
        <time>2016-05-29T08:41:25.000Z</time>
      </trkpt>
      <trkpt lat="47.43002" lon="6.79759">
        <ele>493</ele>
        <time>2016-05-29T08:41:26.000Z</time>
      </trkpt>
      <trkpt lat="47.43" lon="6.79764">
        <ele>492</ele>
        <time>2016-05-29T08:41:27.000Z</time>
      </trkpt>
      <trkpt lat="47.42999" lon="6.79768">
        <ele>493</ele>
        <time>2016-05-29T08:41:28.000Z</time>
      </trkpt>
      <trkpt lat="47.42997" lon="6.79773">
        <ele>493</ele>
        <time>2016-05-29T08:41:29.000Z</time>
      </trkpt>
      <trkpt lat="47.42995" lon="6.79777">
        <ele>493</ele>
        <time>2016-05-29T08:41:30.000Z</time>
      </trkpt>
      <trkpt lat="47.42994" lon="6.7978">
        <ele>492</ele>
        <time>2016-05-29T08:41:31.000Z</time>
      </trkpt>
      <trkpt lat="47.42993" lon="6.79783">
        <ele>492</ele>
        <time>2016-05-29T08:41:32.000Z</time>
      </trkpt>
      <trkpt lat="47.42991" lon="6.79788">
        <ele>492</ele>
        <time>2016-05-29T08:41:34.000Z</time>
      </trkpt>
      <trkpt lat="47.42991" lon="6.79789">
        <ele>492</ele>
        <time>2016-05-29T08:41:35.000Z</time>
      </trkpt>
      <trkpt lat="47.42986" lon="6.79787">
        <ele>492</ele>
        <time>2016-05-29T08:41:38.000Z</time>
      </trkpt>
      <trkpt lat="47.42985" lon="6.79785">
        <ele>492</ele>
        <time>2016-05-29T08:41:39.000Z</time>
      </trkpt>
      <trkpt lat="47.42982" lon="6.79781">
        <ele>492</ele>
        <time>2016-05-29T08:41:41.000Z</time>
      </trkpt>
      <trkpt lat="47.42979" lon="6.7978">
        <ele>492</ele>
        <time>2016-05-29T08:41:42.000Z</time>
      </trkpt>
      <trkpt lat="47.42975" lon="6.7978">
        <ele>492</ele>
        <time>2016-05-29T08:41:43.000Z</time>
      </trkpt>
      <trkpt lat="47.42971" lon="6.79779">
        <ele>492</ele>
        <time>2016-05-29T08:41:44.000Z</time>
      </trkpt>
      <trkpt lat="47.42967" lon="6.79778">
        <ele>492</ele>
        <time>2016-05-29T08:41:45.000Z</time>
      </trkpt>
      <trkpt lat="47.42963" lon="6.79775">
        <ele>492</ele>
        <time>2016-05-29T08:41:46.000Z</time>
      </trkpt>
      <trkpt lat="47.4296" lon="6.79774">
        <ele>492</ele>
        <time>2016-05-29T08:41:47.000Z</time>
      </trkpt>
      <trkpt lat="47.42956" lon="6.79771">
        <ele>492</ele>
        <time>2016-05-29T08:41:48.000Z</time>
      </trkpt>
      <trkpt lat="47.42953" lon="6.7977">
        <ele>492</ele>
        <time>2016-05-29T08:41:49.000Z</time>
      </trkpt>
      <trkpt lat="47.42949" lon="6.79769">
        <ele>492</ele>
        <time>2016-05-29T08:41:50.000Z</time>
      </trkpt>
      <trkpt lat="47.42945" lon="6.79769">
        <ele>492</ele>
        <time>2016-05-29T08:41:51.000Z</time>
      </trkpt>
      <trkpt lat="47.42941" lon="6.79768">
        <ele>492</ele>
        <time>2016-05-29T08:41:52.000Z</time>
      </trkpt>
      <trkpt lat="47.42938" lon="6.79768">
        <ele>492</ele>
        <time>2016-05-29T08:41:53.000Z</time>
      </trkpt>
      <trkpt lat="47.42934" lon="6.79767">
        <ele>492</ele>
        <time>2016-05-29T08:41:54.000Z</time>
      </trkpt>
      <trkpt lat="47.4293" lon="6.79767">
        <ele>492</ele>
        <time>2016-05-29T08:41:55.000Z</time>
      </trkpt>
      <trkpt lat="47.42927" lon="6.79767">
        <ele>491</ele>
        <time>2016-05-29T08:41:56.000Z</time>
      </trkpt>
      <trkpt lat="47.42924" lon="6.79767">
        <ele>491</ele>
        <time>2016-05-29T08:41:57.000Z</time>
      </trkpt>
      <trkpt lat="47.4292" lon="6.79767">
        <ele>491</ele>
        <time>2016-05-29T08:41:58.000Z</time>
      </trkpt>
      <trkpt lat="47.42917" lon="6.79766">
        <ele>490</ele>
        <time>2016-05-29T08:41:59.000Z</time>
      </trkpt>
      <trkpt lat="47.42912" lon="6.79767">
        <ele>490</ele>
        <time>2016-05-29T08:42:00.000Z</time>
      </trkpt>
      <trkpt lat="47.42908" lon="6.79767">
        <ele>490</ele>
        <time>2016-05-29T08:42:01.000Z</time>
      </trkpt>
      <trkpt lat="47.42904" lon="6.79768">
        <ele>489</ele>
        <time>2016-05-29T08:42:02.000Z</time>
      </trkpt>
      <trkpt lat="47.42899" lon="6.79769">
        <ele>489</ele>
        <time>2016-05-29T08:42:03.000Z</time>
      </trkpt>
      <trkpt lat="47.42894" lon="6.79769">
        <ele>489</ele>
        <time>2016-05-29T08:42:04.000Z</time>
      </trkpt>
      <trkpt lat="47.42883" lon="6.79774">
        <ele>489</ele>
        <time>2016-05-29T08:42:05.000Z</time>
      </trkpt>
      <trkpt lat="47.42878" lon="6.79775">
        <ele>488</ele>
        <time>2016-05-29T08:42:06.000Z</time>
      </trkpt>
      <trkpt lat="47.42873" lon="6.79776">
        <ele>488</ele>
        <time>2016-05-29T08:42:07.000Z</time>
      </trkpt>
      <trkpt lat="47.42869" lon="6.79778">
        <ele>488</ele>
        <time>2016-05-29T08:42:08.000Z</time>
      </trkpt>
      <trkpt lat="47.42865" lon="6.79779">
        <ele>488</ele>
        <time>2016-05-29T08:42:09.000Z</time>
      </trkpt>
      <trkpt lat="47.4286" lon="6.79781">
        <ele>488</ele>
        <time>2016-05-29T08:42:10.000Z</time>
      </trkpt>
      <trkpt lat="47.42857" lon="6.79783">
        <ele>488</ele>
        <time>2016-05-29T08:42:11.000Z</time>
      </trkpt>
      <trkpt lat="47.42855" lon="6.79784">
        <ele>488</ele>
        <time>2016-05-29T08:42:12.000Z</time>
      </trkpt>
      <trkpt lat="47.42851" lon="6.79786">
        <ele>488</ele>
        <time>2016-05-29T08:42:14.000Z</time>
      </trkpt>
      <trkpt lat="47.42849" lon="6.79786">
        <ele>488</ele>
        <time>2016-05-29T08:42:15.000Z</time>
      </trkpt>
      <trkpt lat="47.42846" lon="6.79787">
        <ele>488</ele>
        <time>2016-05-29T08:42:16.000Z</time>
      </trkpt>
      <trkpt lat="47.42843" lon="6.79787">
        <ele>488</ele>
        <time>2016-05-29T08:42:17.000Z</time>
      </trkpt>
      <trkpt lat="47.42839" lon="6.79788">
        <ele>488</ele>
        <time>2016-05-29T08:42:18.000Z</time>
      </trkpt>
      <trkpt lat="47.42835" lon="6.7979">
        <ele>487</ele>
        <time>2016-05-29T08:42:19.000Z</time>
      </trkpt>
      <trkpt lat="47.42829" lon="6.79792">
        <ele>488</ele>
        <time>2016-05-29T08:42:20.000Z</time>
      </trkpt>
      <trkpt lat="47.42825" lon="6.79797">
        <ele>488</ele>
        <time>2016-05-29T08:42:20.999Z</time>
      </trkpt>
      <trkpt lat="47.42821" lon="6.79799">
        <ele>488</ele>
        <time>2016-05-29T08:42:22.000Z</time>
      </trkpt>
      <trkpt lat="47.42817" lon="6.79799">
        <ele>488</ele>
        <time>2016-05-29T08:42:23.000Z</time>
      </trkpt>
      <trkpt lat="47.42813" lon="6.79798">
        <ele>488</ele>
        <time>2016-05-29T08:42:24.000Z</time>
      </trkpt>
      <trkpt lat="47.42809" lon="6.79798">
        <ele>489</ele>
        <time>2016-05-29T08:42:25.000Z</time>
      </trkpt>
      <trkpt lat="47.42805" lon="6.79798">
        <ele>489</ele>
        <time>2016-05-29T08:42:26.000Z</time>
      </trkpt>
      <trkpt lat="47.42802" lon="6.79799">
        <ele>489</ele>
        <time>2016-05-29T08:42:27.000Z</time>
      </trkpt>
      <trkpt lat="47.42798" lon="6.798">
        <ele>489</ele>
        <time>2016-05-29T08:42:28.000Z</time>
      </trkpt>
      <trkpt lat="47.42793" lon="6.798">
        <ele>489</ele>
        <time>2016-05-29T08:42:29.000Z</time>
      </trkpt>
      <trkpt lat="47.42789" lon="6.79801">
        <ele>489</ele>
        <time>2016-05-29T08:42:30.000Z</time>
      </trkpt>
      <trkpt lat="47.42784" lon="6.79801">
        <ele>490</ele>
        <time>2016-05-29T08:42:30.999Z</time>
      </trkpt>
      <trkpt lat="47.42781" lon="6.79798">
        <ele>490</ele>
        <time>2016-05-29T08:42:35.000Z</time>
      </trkpt>
      <trkpt lat="47.42776" lon="6.79797">
        <ele>490</ele>
        <time>2016-05-29T08:42:36.000Z</time>
      </trkpt>
      <trkpt lat="47.42774" lon="6.79795">
        <ele>490</ele>
        <time>2016-05-29T08:42:37.000Z</time>
      </trkpt>
      <trkpt lat="47.4277" lon="6.79801">
        <ele>490</ele>
        <time>2016-05-29T08:42:38.000Z</time>
      </trkpt>
      <trkpt lat="47.42767" lon="6.79802">
        <ele>490</ele>
        <time>2016-05-29T08:42:39.000Z</time>
      </trkpt>
      <trkpt lat="47.42765" lon="6.79802">
        <ele>490</ele>
        <time>2016-05-29T08:42:40.000Z</time>
      </trkpt>
      <trkpt lat="47.42761" lon="6.79803">
        <ele>490</ele>
        <time>2016-05-29T08:42:42.000Z</time>
      </trkpt>
      <trkpt lat="47.42759" lon="6.79803">
        <ele>491</ele>
        <time>2016-05-29T08:42:43.000Z</time>
      </trkpt>
      <trkpt lat="47.42756" lon="6.79803">
        <ele>491</ele>
        <time>2016-05-29T08:42:44.000Z</time>
      </trkpt>
      <trkpt lat="47.42753" lon="6.79803">
        <ele>491</ele>
        <time>2016-05-29T08:42:45.000Z</time>
      </trkpt>
      <trkpt lat="47.42749" lon="6.79803">
        <ele>494</ele>
        <time>2016-05-29T08:42:46.000Z</time>
      </trkpt>
      <trkpt lat="47.42744" lon="6.79803">
        <ele>494</ele>
        <time>2016-05-29T08:42:47.000Z</time>
      </trkpt>
      <trkpt lat="47.42739" lon="6.79804">
        <ele>494</ele>
        <time>2016-05-29T08:42:48.000Z</time>
      </trkpt>
      <trkpt lat="47.42734" lon="6.79804">
        <ele>494</ele>
        <time>2016-05-29T08:42:49.000Z</time>
      </trkpt>
      <trkpt lat="47.42729" lon="6.79805">
        <ele>495</ele>
        <time>2016-05-29T08:42:50.000Z</time>
      </trkpt>
      <trkpt lat="47.42725" lon="6.79804">
        <ele>495</ele>
        <time>2016-05-29T08:42:51.000Z</time>
      </trkpt>
      <trkpt lat="47.42721" lon="6.79803">
        <ele>495</ele>
        <time>2016-05-29T08:42:52.000Z</time>
      </trkpt>
      <trkpt lat="47.42717" lon="6.79803">
        <ele>495</ele>
        <time>2016-05-29T08:42:53.000Z</time>
      </trkpt>
      <trkpt lat="47.42713" lon="6.79803">
        <ele>495</ele>
        <time>2016-05-29T08:42:54.000Z</time>
      </trkpt>
      <trkpt lat="47.4271" lon="6.79802">
        <ele>495</ele>
        <time>2016-05-29T08:42:54.998Z</time>
      </trkpt>
      <trkpt lat="47.42708" lon="6.79804">
        <ele>495</ele>
        <time>2016-05-29T08:42:56.000Z</time>
      </trkpt>
      <trkpt lat="47.42705" lon="6.79806">
        <ele>495</ele>
        <time>2016-05-29T08:42:57.000Z</time>
      </trkpt>
      <trkpt lat="47.42703" lon="6.79807">
        <ele>495</ele>
        <time>2016-05-29T08:42:58.000Z</time>
      </trkpt>
      <trkpt lat="47.42701" lon="6.79808">
        <ele>496</ele>
        <time>2016-05-29T08:42:59.000Z</time>
      </trkpt>
      <trkpt lat="47.42699" lon="6.7981">
        <ele>496</ele>
        <time>2016-05-29T08:43:00.000Z</time>
      </trkpt>
      <trkpt lat="47.42695" lon="6.79811">
        <ele>496</ele>
        <time>2016-05-29T08:43:01.999Z</time>
      </trkpt>
      <trkpt lat="47.42692" lon="6.79813">
        <ele>496</ele>
        <time>2016-05-29T08:43:03.000Z</time>
      </trkpt>
      <trkpt lat="47.4269" lon="6.79814">
        <ele>496</ele>
        <time>2016-05-29T08:43:04.000Z</time>
      </trkpt>
      <trkpt lat="47.42688" lon="6.79816">
        <ele>496</ele>
        <time>2016-05-29T08:43:05.000Z</time>
      </trkpt>
      <trkpt lat="47.42686" lon="6.79818">
        <ele>496</ele>
        <time>2016-05-29T08:43:06.000Z</time>
      </trkpt>
      <trkpt lat="47.42683" lon="6.79821">
        <ele>496</ele>
        <time>2016-05-29T08:43:07.000Z</time>
      </trkpt>
      <trkpt lat="47.42681" lon="6.79823">
        <ele>497</ele>
        <time>2016-05-29T08:43:08.000Z</time>
      </trkpt>
      <trkpt lat="47.42679" lon="6.79826">
        <ele>497</ele>
        <time>2016-05-29T08:43:09.000Z</time>
      </trkpt>
      <trkpt lat="47.42675" lon="6.79828">
        <ele>497</ele>
        <time>2016-05-29T08:43:11.000Z</time>
      </trkpt>
      <trkpt lat="47.42674" lon="6.7983">
        <ele>497</ele>
        <time>2016-05-29T08:43:11.999Z</time>
      </trkpt>
      <trkpt lat="47.4267" lon="6.79829">
        <ele>497</ele>
        <time>2016-05-29T08:43:13.000Z</time>
      </trkpt>
      <trkpt lat="47.42668" lon="6.79828">
        <ele>498</ele>
        <time>2016-05-29T08:43:14.000Z</time>
      </trkpt>
      <trkpt lat="47.42665" lon="6.79829">
        <ele>499</ele>
        <time>2016-05-29T08:43:15.000Z</time>
      </trkpt>
      <trkpt lat="47.42663" lon="6.79829">
        <ele>499</ele>
        <time>2016-05-29T08:43:16.000Z</time>
      </trkpt>
      <trkpt lat="47.42659" lon="6.79829">
        <ele>499</ele>
        <time>2016-05-29T08:43:18.000Z</time>
      </trkpt>
      <trkpt lat="47.42657" lon="6.79829">
        <ele>499</ele>
        <time>2016-05-29T08:43:19.000Z</time>
      </trkpt>
      <trkpt lat="47.42654" lon="6.7983">
        <ele>499</ele>
        <time>2016-05-29T08:43:20.999Z</time>
      </trkpt>
      <trkpt lat="47.42652" lon="6.79831">
        <ele>499</ele>
        <time>2016-05-29T08:43:22.000Z</time>
      </trkpt>
      <trkpt lat="47.42648" lon="6.79831">
        <ele>500</ele>
        <time>2016-05-29T08:43:24.000Z</time>
      </trkpt>
      <trkpt lat="47.42646" lon="6.79831">
        <ele>500</ele>
        <time>2016-05-29T08:43:25.000Z</time>
      </trkpt>
      <trkpt lat="47.42642" lon="6.7983">
        <ele>500</ele>
        <time>2016-05-29T08:43:26.999Z</time>
      </trkpt>
      <trkpt lat="47.42639" lon="6.7983">
        <ele>500</ele>
        <time>2016-05-29T08:43:28.001Z</time>
      </trkpt>
      <trkpt lat="47.42637" lon="6.79829">
        <ele>500</ele>
        <time>2016-05-29T08:43:29.000Z</time>
      </trkpt>
      <trkpt lat="47.42634" lon="6.79828">
        <ele>500</ele>
        <time>2016-05-29T08:43:29.999Z</time>
      </trkpt>
      <trkpt lat="47.42632" lon="6.79827">
        <ele>501</ele>
        <time>2016-05-29T08:43:31.000Z</time>
      </trkpt>
      <trkpt lat="47.4263" lon="6.79825">
        <ele>501</ele>
        <time>2016-05-29T08:43:32.000Z</time>
      </trkpt>
      <trkpt lat="47.42627" lon="6.79823">
        <ele>501</ele>
        <time>2016-05-29T08:43:33.000Z</time>
      </trkpt>
      <trkpt lat="47.42625" lon="6.79821">
        <ele>501</ele>
        <time>2016-05-29T08:43:34.000Z</time>
      </trkpt>
      <trkpt lat="47.42622" lon="6.79819">
        <ele>501</ele>
        <time>2016-05-29T08:43:36.000Z</time>
      </trkpt>
      <trkpt lat="47.42619" lon="6.79821">
        <ele>501</ele>
        <time>2016-05-29T08:43:37.000Z</time>
      </trkpt>
      <trkpt lat="47.42618" lon="6.7982">
        <ele>501</ele>
        <time>2016-05-29T08:43:37.999Z</time>
      </trkpt>
      <trkpt lat="47.42613" lon="6.79823">
        <ele>502</ele>
        <time>2016-05-29T08:43:39.000Z</time>
      </trkpt>
      <trkpt lat="47.4261" lon="6.79824">
        <ele>502</ele>
        <time>2016-05-29T08:43:40.000Z</time>
      </trkpt>
      <trkpt lat="47.42607" lon="6.79824">
        <ele>502</ele>
        <time>2016-05-29T08:43:41.000Z</time>
      </trkpt>
      <trkpt lat="47.42603" lon="6.79823">
        <ele>502</ele>
        <time>2016-05-29T08:43:43.000Z</time>
      </trkpt>
      <trkpt lat="47.42601" lon="6.79823">
        <ele>502</ele>
        <time>2016-05-29T08:43:44.000Z</time>
      </trkpt>
      <trkpt lat="47.42599" lon="6.79823">
        <ele>502</ele>
        <time>2016-05-29T08:43:46.000Z</time>
      </trkpt>
      <trkpt lat="47.42597" lon="6.79822">
        <ele>502</ele>
        <time>2016-05-29T08:43:47.000Z</time>
      </trkpt>
      <trkpt lat="47.42593" lon="6.79823">
        <ele>503</ele>
        <time>2016-05-29T08:43:49.000Z</time>
      </trkpt>
      <trkpt lat="47.42591" lon="6.79823">
        <ele>503</ele>
        <time>2016-05-29T08:43:50.000Z</time>
      </trkpt>
      <trkpt lat="47.42588" lon="6.79823">
        <ele>503</ele>
        <time>2016-05-29T08:43:51.000Z</time>
      </trkpt>
      <trkpt lat="47.42586" lon="6.79824">
        <ele>503</ele>
        <time>2016-05-29T08:43:52.000Z</time>
      </trkpt>
      <trkpt lat="47.42583" lon="6.79824">
        <ele>505</ele>
        <time>2016-05-29T08:43:52.999Z</time>
      </trkpt>
      <trkpt lat="47.4258" lon="6.79825">
        <ele>505</ele>
        <time>2016-05-29T08:43:54.000Z</time>
      </trkpt>
      <trkpt lat="47.42577" lon="6.79826">
        <ele>505</ele>
        <time>2016-05-29T08:43:55.000Z</time>
      </trkpt>
      <trkpt lat="47.42575" lon="6.79827">
        <ele>506</ele>
        <time>2016-05-29T08:43:56.000Z</time>
      </trkpt>
      <trkpt lat="47.4257" lon="6.79827">
        <ele>506</ele>
        <time>2016-05-29T08:43:58.000Z</time>
      </trkpt>
      <trkpt lat="47.42568" lon="6.79826">
        <ele>506</ele>
        <time>2016-05-29T08:43:59.000Z</time>
      </trkpt>
      <trkpt lat="47.42565" lon="6.79825">
        <ele>506</ele>
        <time>2016-05-29T08:44:00.000Z</time>
      </trkpt>
      <trkpt lat="47.42563" lon="6.79825">
        <ele>507</ele>
        <time>2016-05-29T08:44:00.999Z</time>
      </trkpt>
      <trkpt lat="47.4256" lon="6.79826">
        <ele>507</ele>
        <time>2016-05-29T08:44:02.000Z</time>
      </trkpt>
      <trkpt lat="47.42557" lon="6.79826">
        <ele>507</ele>
        <time>2016-05-29T08:44:03.000Z</time>
      </trkpt>
      <trkpt lat="47.42554" lon="6.79826">
        <ele>507</ele>
        <time>2016-05-29T08:44:04.000Z</time>
      </trkpt>
      <trkpt lat="47.42551" lon="6.79826">
        <ele>508</ele>
        <time>2016-05-29T08:44:05.000Z</time>
      </trkpt>
      <trkpt lat="47.42548" lon="6.79827">
        <ele>508</ele>
        <time>2016-05-29T08:44:06.000Z</time>
      </trkpt>
      <trkpt lat="47.42546" lon="6.79827">
        <ele>508</ele>
        <time>2016-05-29T08:44:07.000Z</time>
      </trkpt>
      <trkpt lat="47.42541" lon="6.79827">
        <ele>508</ele>
        <time>2016-05-29T08:44:09.000Z</time>
      </trkpt>
      <trkpt lat="47.42539" lon="6.79827">
        <ele>508</ele>
        <time>2016-05-29T08:44:10.000Z</time>
      </trkpt>
      <trkpt lat="47.42536" lon="6.79827">
        <ele>509</ele>
        <time>2016-05-29T08:44:12.000Z</time>
      </trkpt>
      <trkpt lat="47.42535" lon="6.79828">
        <ele>509</ele>
        <time>2016-05-29T08:44:13.000Z</time>
      </trkpt>
      <trkpt lat="47.42533" lon="6.7983">
        <ele>509</ele>
        <time>2016-05-29T08:44:14.000Z</time>
      </trkpt>
      <trkpt lat="47.4253" lon="6.79831">
        <ele>509</ele>
        <time>2016-05-29T08:44:15.000Z</time>
      </trkpt>
      <trkpt lat="47.42527" lon="6.79833">
        <ele>509</ele>
        <time>2016-05-29T08:44:16.000Z</time>
      </trkpt>
      <trkpt lat="47.42525" lon="6.79833">
        <ele>509</ele>
        <time>2016-05-29T08:44:17.000Z</time>
      </trkpt>
      <trkpt lat="47.42521" lon="6.79835">
        <ele>509</ele>
        <time>2016-05-29T08:44:18.000Z</time>
      </trkpt>
      <trkpt lat="47.42517" lon="6.79836">
        <ele>510</ele>
        <time>2016-05-29T08:44:19.000Z</time>
      </trkpt>
      <trkpt lat="47.42514" lon="6.79837">
        <ele>510</ele>
        <time>2016-05-29T08:44:20.000Z</time>
      </trkpt>
      <trkpt lat="47.42511" lon="6.79837">
        <ele>510</ele>
        <time>2016-05-29T08:44:20.999Z</time>
      </trkpt>
      <trkpt lat="47.42506" lon="6.79838">
        <ele>511</ele>
        <time>2016-05-29T08:44:22.000Z</time>
      </trkpt>
      <trkpt lat="47.42503" lon="6.79839">
        <ele>511</ele>
        <time>2016-05-29T08:44:23.000Z</time>
      </trkpt>
      <trkpt lat="47.425" lon="6.79839">
        <ele>511</ele>
        <time>2016-05-29T08:44:24.000Z</time>
      </trkpt>
      <trkpt lat="47.42497" lon="6.7984">
        <ele>512</ele>
        <time>2016-05-29T08:44:24.999Z</time>
      </trkpt>
      <trkpt lat="47.42492" lon="6.79842">
        <ele>513</ele>
        <time>2016-05-29T08:44:26.000Z</time>
      </trkpt>
      <trkpt lat="47.42489" lon="6.79843">
        <ele>513</ele>
        <time>2016-05-29T08:44:27.000Z</time>
      </trkpt>
      <trkpt lat="47.42487" lon="6.79844">
        <ele>513</ele>
        <time>2016-05-29T08:44:28.000Z</time>
      </trkpt>
      <trkpt lat="47.42484" lon="6.79843">
        <ele>513</ele>
        <time>2016-05-29T08:44:30.001Z</time>
      </trkpt>
      <trkpt lat="47.42482" lon="6.79842">
        <ele>513</ele>
        <time>2016-05-29T08:44:31.000Z</time>
      </trkpt>
      <trkpt lat="47.4248" lon="6.79842">
        <ele>513</ele>
        <time>2016-05-29T08:44:32.000Z</time>
      </trkpt>
      <trkpt lat="47.42477" lon="6.79842">
        <ele>513</ele>
        <time>2016-05-29T08:44:33.000Z</time>
      </trkpt>
      <trkpt lat="47.42474" lon="6.79841">
        <ele>513</ele>
        <time>2016-05-29T08:44:34.000Z</time>
      </trkpt>
      <trkpt lat="47.42471" lon="6.7984">
        <ele>513</ele>
        <time>2016-05-29T08:44:35.000Z</time>
      </trkpt>
      <trkpt lat="47.42468" lon="6.7984">
        <ele>514</ele>
        <time>2016-05-29T08:44:36.000Z</time>
      </trkpt>
      <trkpt lat="47.42464" lon="6.79839">
        <ele>514</ele>
        <time>2016-05-29T08:44:37.000Z</time>
      </trkpt>
      <trkpt lat="47.42461" lon="6.79839">
        <ele>514</ele>
        <time>2016-05-29T08:44:38.000Z</time>
      </trkpt>
      <trkpt lat="47.42458" lon="6.79839">
        <ele>514</ele>
        <time>2016-05-29T08:44:39.000Z</time>
      </trkpt>
      <trkpt lat="47.42455" lon="6.79839">
        <ele>514</ele>
        <time>2016-05-29T08:44:40.000Z</time>
      </trkpt>
      <trkpt lat="47.42452" lon="6.79838">
        <ele>514</ele>
        <time>2016-05-29T08:44:41.000Z</time>
      </trkpt>
      <trkpt lat="47.42449" lon="6.79837">
        <ele>514</ele>
        <time>2016-05-29T08:44:42.000Z</time>
      </trkpt>
      <trkpt lat="47.42447" lon="6.79837">
        <ele>514</ele>
        <time>2016-05-29T08:44:43.000Z</time>
      </trkpt>
      <trkpt lat="47.42444" lon="6.79837">
        <ele>515</ele>
        <time>2016-05-29T08:44:44.000Z</time>
      </trkpt>
      <trkpt lat="47.42441" lon="6.79838">
        <ele>515</ele>
        <time>2016-05-29T08:44:45.000Z</time>
      </trkpt>
      <trkpt lat="47.42439" lon="6.79838">
        <ele>515</ele>
        <time>2016-05-29T08:44:46.000Z</time>
      </trkpt>
      <trkpt lat="47.42436" lon="6.79839">
        <ele>515</ele>
        <time>2016-05-29T08:44:47.000Z</time>
      </trkpt>
      <trkpt lat="47.42433" lon="6.79839">
        <ele>515</ele>
        <time>2016-05-29T08:44:48.000Z</time>
      </trkpt>
      <trkpt lat="47.4243" lon="6.7984">
        <ele>515</ele>
        <time>2016-05-29T08:44:49.000Z</time>
      </trkpt>
      <trkpt lat="47.42427" lon="6.79841">
        <ele>515</ele>
        <time>2016-05-29T08:44:50.000Z</time>
      </trkpt>
      <trkpt lat="47.42423" lon="6.79843">
        <ele>515</ele>
        <time>2016-05-29T08:44:51.000Z</time>
      </trkpt>
      <trkpt lat="47.42419" lon="6.79844">
        <ele>515</ele>
        <time>2016-05-29T08:44:52.000Z</time>
      </trkpt>
      <trkpt lat="47.42414" lon="6.79847">
        <ele>518</ele>
        <time>2016-05-29T08:44:53.000Z</time>
      </trkpt>
      <trkpt lat="47.4241" lon="6.79848">
        <ele>518</ele>
        <time>2016-05-29T08:44:54.000Z</time>
      </trkpt>
      <trkpt lat="47.42407" lon="6.79849">
        <ele>518</ele>
        <time>2016-05-29T08:44:55.000Z</time>
      </trkpt>
      <trkpt lat="47.42403" lon="6.79852">
        <ele>519</ele>
        <time>2016-05-29T08:44:56.000Z</time>
      </trkpt>
      <trkpt lat="47.424" lon="6.79854">
        <ele>519</ele>
        <time>2016-05-29T08:44:57.000Z</time>
      </trkpt>
      <trkpt lat="47.42397" lon="6.79857">
        <ele>519</ele>
        <time>2016-05-29T08:44:58.000Z</time>
      </trkpt>
      <trkpt lat="47.42394" lon="6.7986">
        <ele>519</ele>
        <time>2016-05-29T08:44:59.000Z</time>
      </trkpt>
      <trkpt lat="47.42391" lon="6.79863">
        <ele>519</ele>
        <time>2016-05-29T08:45:00.000Z</time>
      </trkpt>
      <trkpt lat="47.42388" lon="6.79865">
        <ele>520</ele>
        <time>2016-05-29T08:45:01.000Z</time>
      </trkpt>
      <trkpt lat="47.42385" lon="6.79868">
        <ele>520</ele>
        <time>2016-05-29T08:45:02.000Z</time>
      </trkpt>
      <trkpt lat="47.42382" lon="6.7987">
        <ele>520</ele>
        <time>2016-05-29T08:45:03.000Z</time>
      </trkpt>
      <trkpt lat="47.4238" lon="6.79873">
        <ele>520</ele>
        <time>2016-05-29T08:45:04.000Z</time>
      </trkpt>
      <trkpt lat="47.42378" lon="6.79877">
        <ele>520</ele>
        <time>2016-05-29T08:45:05.000Z</time>
      </trkpt>
      <trkpt lat="47.42376" lon="6.79879">
        <ele>520</ele>
        <time>2016-05-29T08:45:06.000Z</time>
      </trkpt>
      <trkpt lat="47.42373" lon="6.79883">
        <ele>520</ele>
        <time>2016-05-29T08:45:07.000Z</time>
      </trkpt>
      <trkpt lat="47.42371" lon="6.79886">
        <ele>521</ele>
        <time>2016-05-29T08:45:08.000Z</time>
      </trkpt>
      <trkpt lat="47.42368" lon="6.79888">
        <ele>521</ele>
        <time>2016-05-29T08:45:09.000Z</time>
      </trkpt>
      <trkpt lat="47.42365" lon="6.79891">
        <ele>521</ele>
        <time>2016-05-29T08:45:10.000Z</time>
      </trkpt>
      <trkpt lat="47.42363" lon="6.79894">
        <ele>521</ele>
        <time>2016-05-29T08:45:11.000Z</time>
      </trkpt>
      <trkpt lat="47.42361" lon="6.79897">
        <ele>521</ele>
        <time>2016-05-29T08:45:12.000Z</time>
      </trkpt>
      <trkpt lat="47.4236" lon="6.79902">
        <ele>521</ele>
        <time>2016-05-29T08:45:12.999Z</time>
      </trkpt>
      <trkpt lat="47.42358" lon="6.79905">
        <ele>521</ele>
        <time>2016-05-29T08:45:14.000Z</time>
      </trkpt>
      <trkpt lat="47.42357" lon="6.79908">
        <ele>522</ele>
        <time>2016-05-29T08:45:15.000Z</time>
      </trkpt>
      <trkpt lat="47.42354" lon="6.79911">
        <ele>522</ele>
        <time>2016-05-29T08:45:17.000Z</time>
      </trkpt>
      <trkpt lat="47.42351" lon="6.79911">
        <ele>522</ele>
        <time>2016-05-29T08:45:18.000Z</time>
      </trkpt>
      <trkpt lat="47.42349" lon="6.79912">
        <ele>522</ele>
        <time>2016-05-29T08:45:19.000Z</time>
      </trkpt>
      <trkpt lat="47.42346" lon="6.79913">
        <ele>522</ele>
        <time>2016-05-29T08:45:20.000Z</time>
      </trkpt>
      <trkpt lat="47.42344" lon="6.79915">
        <ele>523</ele>
        <time>2016-05-29T08:45:21.000Z</time>
      </trkpt>
      <trkpt lat="47.42342" lon="6.79918">
        <ele>523</ele>
        <time>2016-05-29T08:45:22.000Z</time>
      </trkpt>
      <trkpt lat="47.4234" lon="6.79921">
        <ele>523</ele>
        <time>2016-05-29T08:45:23.000Z</time>
      </trkpt>
      <trkpt lat="47.42339" lon="6.79923">
        <ele>523</ele>
        <time>2016-05-29T08:45:23.999Z</time>
      </trkpt>
      <trkpt lat="47.42336" lon="6.79927">
        <ele>523</ele>
        <time>2016-05-29T08:45:26.000Z</time>
      </trkpt>
      <trkpt lat="47.42335" lon="6.79928">
        <ele>523</ele>
        <time>2016-05-29T08:45:27.000Z</time>
      </trkpt>
      <trkpt lat="47.42332" lon="6.79932">
        <ele>524</ele>
        <time>2016-05-29T08:45:29.000Z</time>
      </trkpt>
      <trkpt lat="47.4233" lon="6.79933">
        <ele>524</ele>
        <time>2016-05-29T08:45:30.000Z</time>
      </trkpt>
      <trkpt lat="47.42327" lon="6.79936">
        <ele>524</ele>
        <time>2016-05-29T08:45:31.000Z</time>
      </trkpt>
      <trkpt lat="47.42324" lon="6.79938">
        <ele>524</ele>
        <time>2016-05-29T08:45:32.000Z</time>
      </trkpt>
      <trkpt lat="47.42321" lon="6.7994">
        <ele>525</ele>
        <time>2016-05-29T08:45:33.000Z</time>
      </trkpt>
      <trkpt lat="47.42319" lon="6.79942">
        <ele>525</ele>
        <time>2016-05-29T08:45:34.000Z</time>
      </trkpt>
      <trkpt lat="47.42317" lon="6.79944">
        <ele>525</ele>
        <time>2016-05-29T08:45:35.000Z</time>
      </trkpt>
      <trkpt lat="47.42315" lon="6.79945">
        <ele>525</ele>
        <time>2016-05-29T08:45:35.999Z</time>
      </trkpt>
      <trkpt lat="47.42311" lon="6.79948">
        <ele>525</ele>
        <time>2016-05-29T08:45:37.000Z</time>
      </trkpt>
      <trkpt lat="47.42308" lon="6.79949">
        <ele>525</ele>
        <time>2016-05-29T08:45:38.000Z</time>
      </trkpt>
      <trkpt lat="47.42303" lon="6.79949">
        <ele>525</ele>
        <time>2016-05-29T08:45:39.000Z</time>
      </trkpt>
      <trkpt lat="47.42299" lon="6.79949">
        <ele>525</ele>
        <time>2016-05-29T08:45:40.000Z</time>
      </trkpt>
      <trkpt lat="47.42295" lon="6.79949">
        <ele>525</ele>
        <time>2016-05-29T08:45:41.001Z</time>
      </trkpt>
      <trkpt lat="47.42291" lon="6.79949">
        <ele>525</ele>
        <time>2016-05-29T08:45:42.000Z</time>
      </trkpt>
      <trkpt lat="47.42288" lon="6.79952">
        <ele>525</ele>
        <time>2016-05-29T08:45:43.000Z</time>
      </trkpt>
      <trkpt lat="47.42286" lon="6.79955">
        <ele>525</ele>
        <time>2016-05-29T08:45:44.000Z</time>
      </trkpt>
      <trkpt lat="47.42284" lon="6.79959">
        <ele>525</ele>
        <time>2016-05-29T08:45:45.000Z</time>
      </trkpt>
      <trkpt lat="47.42282" lon="6.79964">
        <ele>525</ele>
        <time>2016-05-29T08:45:46.000Z</time>
      </trkpt>
      <trkpt lat="47.4228" lon="6.79969">
        <ele>525</ele>
        <time>2016-05-29T08:45:47.000Z</time>
      </trkpt>
      <trkpt lat="47.42277" lon="6.79973">
        <ele>525</ele>
        <time>2016-05-29T08:45:48.000Z</time>
      </trkpt>
      <trkpt lat="47.42275" lon="6.79976">
        <ele>526</ele>
        <time>2016-05-29T08:45:49.000Z</time>
      </trkpt>
      <trkpt lat="47.42273" lon="6.79978">
        <ele>526</ele>
        <time>2016-05-29T08:45:50.000Z</time>
      </trkpt>
      <trkpt lat="47.42271" lon="6.7998">
        <ele>526</ele>
        <time>2016-05-29T08:45:51.000Z</time>
      </trkpt>
      <trkpt lat="47.42268" lon="6.79982">
        <ele>526</ele>
        <time>2016-05-29T08:45:52.000Z</time>
      </trkpt>
      <trkpt lat="47.42266" lon="6.79983">
        <ele>526</ele>
        <time>2016-05-29T08:45:53.000Z</time>
      </trkpt>
      <trkpt lat="47.42264" lon="6.79986">
        <ele>526</ele>
        <time>2016-05-29T08:45:54.000Z</time>
      </trkpt>
      <trkpt lat="47.42262" lon="6.79988">
        <ele>526</ele>
        <time>2016-05-29T08:45:55.000Z</time>
      </trkpt>
      <trkpt lat="47.4226" lon="6.7999">
        <ele>527</ele>
        <time>2016-05-29T08:45:56.000Z</time>
      </trkpt>
      <trkpt lat="47.42258" lon="6.79992">
        <ele>527</ele>
        <time>2016-05-29T08:45:57.000Z</time>
      </trkpt>
      <trkpt lat="47.42256" lon="6.79995">
        <ele>527</ele>
        <time>2016-05-29T08:45:58.000Z</time>
      </trkpt>
      <trkpt lat="47.42254" lon="6.79997">
        <ele>527</ele>
        <time>2016-05-29T08:45:59.000Z</time>
      </trkpt>
      <trkpt lat="47.42253" lon="6.79999">
        <ele>528</ele>
        <time>2016-05-29T08:46:00.000Z</time>
      </trkpt>
      <trkpt lat="47.42249" lon="6.80002">
        <ele>528</ele>
        <time>2016-05-29T08:46:02.000Z</time>
      </trkpt>
      <trkpt lat="47.42247" lon="6.80004">
        <ele>528</ele>
        <time>2016-05-29T08:46:03.000Z</time>
      </trkpt>
      <trkpt lat="47.42244" lon="6.80007">
        <ele>529</ele>
        <time>2016-05-29T08:46:05.000Z</time>
      </trkpt>
      <trkpt lat="47.42243" lon="6.8001">
        <ele>529</ele>
        <time>2016-05-29T08:46:06.000Z</time>
      </trkpt>
      <trkpt lat="47.42239" lon="6.80012">
        <ele>529</ele>
        <time>2016-05-29T08:46:08.000Z</time>
      </trkpt>
      <trkpt lat="47.42238" lon="6.80012">
        <ele>529</ele>
        <time>2016-05-29T08:46:09.000Z</time>
      </trkpt>
      <trkpt lat="47.42234" lon="6.80015">
        <ele>530</ele>
        <time>2016-05-29T08:46:11.000Z</time>
      </trkpt>
      <trkpt lat="47.42232" lon="6.80017">
        <ele>530</ele>
        <time>2016-05-29T08:46:12.000Z</time>
      </trkpt>
      <trkpt lat="47.42229" lon="6.80021">
        <ele>530</ele>
        <time>2016-05-29T08:46:13.000Z</time>
      </trkpt>
      <trkpt lat="47.42227" lon="6.80024">
        <ele>530</ele>
        <time>2016-05-29T08:46:14.000Z</time>
      </trkpt>
      <trkpt lat="47.42225" lon="6.80028">
        <ele>530</ele>
        <time>2016-05-29T08:46:15.000Z</time>
      </trkpt>
      <trkpt lat="47.42223" lon="6.80031">
        <ele>530</ele>
        <time>2016-05-29T08:46:16.000Z</time>
      </trkpt>
      <trkpt lat="47.42221" lon="6.80035">
        <ele>531</ele>
        <time>2016-05-29T08:46:17.000Z</time>
      </trkpt>
      <trkpt lat="47.42219" lon="6.80039">
        <ele>531</ele>
        <time>2016-05-29T08:46:18.000Z</time>
      </trkpt>
      <trkpt lat="47.42216" lon="6.80043">
        <ele>531</ele>
        <time>2016-05-29T08:46:19.000Z</time>
      </trkpt>
      <trkpt lat="47.42214" lon="6.80046">
        <ele>531</ele>
        <time>2016-05-29T08:46:20.000Z</time>
      </trkpt>
      <trkpt lat="47.42212" lon="6.80048">
        <ele>531</ele>
        <time>2016-05-29T08:46:21.000Z</time>
      </trkpt>
      <trkpt lat="47.42209" lon="6.80051">
        <ele>531</ele>
        <time>2016-05-29T08:46:22.000Z</time>
      </trkpt>
      <trkpt lat="47.42206" lon="6.80055">
        <ele>531</ele>
        <time>2016-05-29T08:46:23.000Z</time>
      </trkpt>
      <trkpt lat="47.42204" lon="6.80058">
        <ele>531</ele>
        <time>2016-05-29T08:46:24.000Z</time>
      </trkpt>
      <trkpt lat="47.42201" lon="6.80061">
        <ele>532</ele>
        <time>2016-05-29T08:46:25.000Z</time>
      </trkpt>
      <trkpt lat="47.42199" lon="6.80063">
        <ele>532</ele>
        <time>2016-05-29T08:46:26.000Z</time>
      </trkpt>
      <trkpt lat="47.42196" lon="6.80067">
        <ele>532</ele>
        <time>2016-05-29T08:46:27.000Z</time>
      </trkpt>
      <trkpt lat="47.42194" lon="6.8007">
        <ele>532</ele>
        <time>2016-05-29T08:46:28.000Z</time>
      </trkpt>
      <trkpt lat="47.42192" lon="6.80073">
        <ele>532</ele>
        <time>2016-05-29T08:46:29.000Z</time>
      </trkpt>
      <trkpt lat="47.42189" lon="6.80076">
        <ele>532</ele>
        <time>2016-05-29T08:46:30.000Z</time>
      </trkpt>
      <trkpt lat="47.42187" lon="6.80079">
        <ele>533</ele>
        <time>2016-05-29T08:46:31.000Z</time>
      </trkpt>
      <trkpt lat="47.42185" lon="6.80081">
        <ele>533</ele>
        <time>2016-05-29T08:46:32.000Z</time>
      </trkpt>
      <trkpt lat="47.42182" lon="6.80084">
        <ele>533</ele>
        <time>2016-05-29T08:46:33.000Z</time>
      </trkpt>
      <trkpt lat="47.4218" lon="6.80087">
        <ele>533</ele>
        <time>2016-05-29T08:46:34.000Z</time>
      </trkpt>
      <trkpt lat="47.42178" lon="6.8009">
        <ele>533</ele>
        <time>2016-05-29T08:46:35.000Z</time>
      </trkpt>
      <trkpt lat="47.42176" lon="6.80093">
        <ele>533</ele>
        <time>2016-05-29T08:46:36.000Z</time>
      </trkpt>
      <trkpt lat="47.42173" lon="6.80096">
        <ele>533</ele>
        <time>2016-05-29T08:46:37.000Z</time>
      </trkpt>
      <trkpt lat="47.42164" lon="6.80111">
        <ele>533</ele>
        <time>2016-05-29T08:46:38.000Z</time>
      </trkpt>
      <trkpt lat="47.4216" lon="6.80113">
        <ele>532</ele>
        <time>2016-05-29T08:46:39.000Z</time>
      </trkpt>
      <trkpt lat="47.42157" lon="6.80115">
        <ele>532</ele>
        <time>2016-05-29T08:46:40.000Z</time>
      </trkpt>
      <trkpt lat="47.42152" lon="6.80118">
        <ele>532</ele>
        <time>2016-05-29T08:46:41.000Z</time>
      </trkpt>
      <trkpt lat="47.42148" lon="6.80119">
        <ele>532</ele>
        <time>2016-05-29T08:46:42.000Z</time>
      </trkpt>
      <trkpt lat="47.42143" lon="6.80122">
        <ele>532</ele>
        <time>2016-05-29T08:46:43.000Z</time>
      </trkpt>
      <trkpt lat="47.42139" lon="6.80123">
        <ele>532</ele>
        <time>2016-05-29T08:46:44.000Z</time>
      </trkpt>
      <trkpt lat="47.42134" lon="6.80127">
        <ele>531</ele>
        <time>2016-05-29T08:46:45.000Z</time>
      </trkpt>
      <trkpt lat="47.4213" lon="6.80128">
        <ele>531</ele>
        <time>2016-05-29T08:46:46.000Z</time>
      </trkpt>
      <trkpt lat="47.42126" lon="6.80131">
        <ele>531</ele>
        <time>2016-05-29T08:46:47.000Z</time>
      </trkpt>
      <trkpt lat="47.42121" lon="6.80134">
        <ele>531</ele>
        <time>2016-05-29T08:46:48.000Z</time>
      </trkpt>
      <trkpt lat="47.42117" lon="6.80135">
        <ele>531</ele>
        <time>2016-05-29T08:46:49.000Z</time>
      </trkpt>
      <trkpt lat="47.42113" lon="6.80138">
        <ele>531</ele>
        <time>2016-05-29T08:46:50.000Z</time>
      </trkpt>
      <trkpt lat="47.42109" lon="6.8014">
        <ele>531</ele>
        <time>2016-05-29T08:46:51.000Z</time>
      </trkpt>
      <trkpt lat="47.42105" lon="6.80143">
        <ele>531</ele>
        <time>2016-05-29T08:46:52.000Z</time>
      </trkpt>
      <trkpt lat="47.42101" lon="6.80147">
        <ele>530</ele>
        <time>2016-05-29T08:46:53.000Z</time>
      </trkpt>
      <trkpt lat="47.42098" lon="6.80151">
        <ele>530</ele>
        <time>2016-05-29T08:46:54.000Z</time>
      </trkpt>
      <trkpt lat="47.42096" lon="6.80156">
        <ele>530</ele>
        <time>2016-05-29T08:46:55.000Z</time>
      </trkpt>
      <trkpt lat="47.42095" lon="6.80163">
        <ele>530</ele>
        <time>2016-05-29T08:46:56.000Z</time>
      </trkpt>
      <trkpt lat="47.42096" lon="6.8017">
        <ele>529</ele>
        <time>2016-05-29T08:46:57.000Z</time>
      </trkpt>
      <trkpt lat="47.42098" lon="6.80178">
        <ele>529</ele>
        <time>2016-05-29T08:46:58.000Z</time>
      </trkpt>
      <trkpt lat="47.42099" lon="6.80185">
        <ele>529</ele>
        <time>2016-05-29T08:46:59.000Z</time>
      </trkpt>
      <trkpt lat="47.421" lon="6.80193">
        <ele>529</ele>
        <time>2016-05-29T08:47:00.000Z</time>
      </trkpt>
      <trkpt lat="47.42102" lon="6.802">
        <ele>529</ele>
        <time>2016-05-29T08:47:01.000Z</time>
      </trkpt>
      <trkpt lat="47.42102" lon="6.80206">
        <ele>529</ele>
        <time>2016-05-29T08:47:02.000Z</time>
      </trkpt>
      <trkpt lat="47.42103" lon="6.80212">
        <ele>529</ele>
        <time>2016-05-29T08:47:03.000Z</time>
      </trkpt>
      <trkpt lat="47.42105" lon="6.80218">
        <ele>528</ele>
        <time>2016-05-29T08:47:04.000Z</time>
      </trkpt>
      <trkpt lat="47.42106" lon="6.80223">
        <ele>528</ele>
        <time>2016-05-29T08:47:05.000Z</time>
      </trkpt>
      <trkpt lat="47.42109" lon="6.8023">
        <ele>528</ele>
        <time>2016-05-29T08:47:06.000Z</time>
      </trkpt>
      <trkpt lat="47.42111" lon="6.80236">
        <ele>528</ele>
        <time>2016-05-29T08:47:07.000Z</time>
      </trkpt>
      <trkpt lat="47.42118" lon="6.80254">
        <ele>526</ele>
        <time>2016-05-29T08:47:08.000Z</time>
      </trkpt>
      <trkpt lat="47.42121" lon="6.80261">
        <ele>526</ele>
        <time>2016-05-29T08:47:09.000Z</time>
      </trkpt>
      <trkpt lat="47.42124" lon="6.80269">
        <ele>525</ele>
        <time>2016-05-29T08:47:10.000Z</time>
      </trkpt>
      <trkpt lat="47.42127" lon="6.80275">
        <ele>525</ele>
        <time>2016-05-29T08:47:11.000Z</time>
      </trkpt>
      <trkpt lat="47.4213" lon="6.8028">
        <ele>525</ele>
        <time>2016-05-29T08:47:12.000Z</time>
      </trkpt>
      <trkpt lat="47.42132" lon="6.80285">
        <ele>525</ele>
        <time>2016-05-29T08:47:13.000Z</time>
      </trkpt>
      <trkpt lat="47.42135" lon="6.80292">
        <ele>525</ele>
        <time>2016-05-29T08:47:14.000Z</time>
      </trkpt>
      <trkpt lat="47.42139" lon="6.80298">
        <ele>525</ele>
        <time>2016-05-29T08:47:15.000Z</time>
      </trkpt>
      <trkpt lat="47.42142" lon="6.80304">
        <ele>525</ele>
        <time>2016-05-29T08:47:16.000Z</time>
      </trkpt>
      <trkpt lat="47.42143" lon="6.80309">
        <ele>524</ele>
        <time>2016-05-29T08:47:17.000Z</time>
      </trkpt>
      <trkpt lat="47.42145" lon="6.80314">
        <ele>524</ele>
        <time>2016-05-29T08:47:18.000Z</time>
      </trkpt>
      <trkpt lat="47.42148" lon="6.80319">
        <ele>524</ele>
        <time>2016-05-29T08:47:19.000Z</time>
      </trkpt>
      <trkpt lat="47.42152" lon="6.80324">
        <ele>524</ele>
        <time>2016-05-29T08:47:20.000Z</time>
      </trkpt>
      <trkpt lat="47.42155" lon="6.80329">
        <ele>524</ele>
        <time>2016-05-29T08:47:21.000Z</time>
      </trkpt>
      <trkpt lat="47.42158" lon="6.80335">
        <ele>522</ele>
        <time>2016-05-29T08:47:22.000Z</time>
      </trkpt>
      <trkpt lat="47.42161" lon="6.80341">
        <ele>522</ele>
        <time>2016-05-29T08:47:23.000Z</time>
      </trkpt>
      <trkpt lat="47.42168" lon="6.80355">
        <ele>522</ele>
        <time>2016-05-29T08:47:24.000Z</time>
      </trkpt>
      <trkpt lat="47.42173" lon="6.80362">
        <ele>521</ele>
        <time>2016-05-29T08:47:25.000Z</time>
      </trkpt>
      <trkpt lat="47.42178" lon="6.80372">
        <ele>521</ele>
        <time>2016-05-29T08:47:26.000Z</time>
      </trkpt>
      <trkpt lat="47.42181" lon="6.80379">
        <ele>520</ele>
        <time>2016-05-29T08:47:27.000Z</time>
      </trkpt>
      <trkpt lat="47.42183" lon="6.80386">
        <ele>520</ele>
        <time>2016-05-29T08:47:28.000Z</time>
      </trkpt>
      <trkpt lat="47.42188" lon="6.80396">
        <ele>520</ele>
        <time>2016-05-29T08:47:29.000Z</time>
      </trkpt>
      <trkpt lat="47.42193" lon="6.80403">
        <ele>519</ele>
        <time>2016-05-29T08:47:30.000Z</time>
      </trkpt>
      <trkpt lat="47.42196" lon="6.80412">
        <ele>519</ele>
        <time>2016-05-29T08:47:31.000Z</time>
      </trkpt>
      <trkpt lat="47.42195" lon="6.80419">
        <ele>515</ele>
        <time>2016-05-29T08:47:32.000Z</time>
      </trkpt>
      <trkpt lat="47.42201" lon="6.80426">
        <ele>515</ele>
        <time>2016-05-29T08:47:33.000Z</time>
      </trkpt>
      <trkpt lat="47.42206" lon="6.80434">
        <ele>515</ele>
        <time>2016-05-29T08:47:34.000Z</time>
      </trkpt>
      <trkpt lat="47.4221" lon="6.80442">
        <ele>515</ele>
        <time>2016-05-29T08:47:35.000Z</time>
      </trkpt>
      <trkpt lat="47.42212" lon="6.80446">
        <ele>514</ele>
        <time>2016-05-29T08:47:36.000Z</time>
      </trkpt>
      <trkpt lat="47.42215" lon="6.80451">
        <ele>514</ele>
        <time>2016-05-29T08:47:37.000Z</time>
      </trkpt>
      <trkpt lat="47.42221" lon="6.80462">
        <ele>514</ele>
        <time>2016-05-29T08:47:38.000Z</time>
      </trkpt>
      <trkpt lat="47.42226" lon="6.80472">
        <ele>513</ele>
        <time>2016-05-29T08:47:39.000Z</time>
      </trkpt>
      <trkpt lat="47.4223" lon="6.80479">
        <ele>512</ele>
        <time>2016-05-29T08:47:40.000Z</time>
      </trkpt>
      <trkpt lat="47.42235" lon="6.80488">
        <ele>512</ele>
        <time>2016-05-29T08:47:41.000Z</time>
      </trkpt>
      <trkpt lat="47.4224" lon="6.80495">
        <ele>511</ele>
        <time>2016-05-29T08:47:42.000Z</time>
      </trkpt>
      <trkpt lat="47.42243" lon="6.80502">
        <ele>508</ele>
        <time>2016-05-29T08:47:43.000Z</time>
      </trkpt>
      <trkpt lat="47.42244" lon="6.80507">
        <ele>508</ele>
        <time>2016-05-29T08:47:44.000Z</time>
      </trkpt>
      <trkpt lat="47.42245" lon="6.8051">
        <ele>508</ele>
        <time>2016-05-29T08:47:45.000Z</time>
      </trkpt>
      <trkpt lat="47.42248" lon="6.80515">
        <ele>507</ele>
        <time>2016-05-29T08:47:46.000Z</time>
      </trkpt>
      <trkpt lat="47.4225" lon="6.80524">
        <ele>506</ele>
        <time>2016-05-29T08:47:47.000Z</time>
      </trkpt>
      <trkpt lat="47.42252" lon="6.80531">
        <ele>506</ele>
        <time>2016-05-29T08:47:48.000Z</time>
      </trkpt>
      <trkpt lat="47.42255" lon="6.80536">
        <ele>506</ele>
        <time>2016-05-29T08:47:49.000Z</time>
      </trkpt>
      <trkpt lat="47.42258" lon="6.80541">
        <ele>506</ele>
        <time>2016-05-29T08:47:50.000Z</time>
      </trkpt>
      <trkpt lat="47.4226" lon="6.80547">
        <ele>505</ele>
        <time>2016-05-29T08:47:51.000Z</time>
      </trkpt>
      <trkpt lat="47.42264" lon="6.80552">
        <ele>505</ele>
        <time>2016-05-29T08:47:52.000Z</time>
      </trkpt>
      <trkpt lat="47.42266" lon="6.80558">
        <ele>504</ele>
        <time>2016-05-29T08:47:53.000Z</time>
      </trkpt>
      <trkpt lat="47.42269" lon="6.80563">
        <ele>504</ele>
        <time>2016-05-29T08:47:54.000Z</time>
      </trkpt>
      <trkpt lat="47.42271" lon="6.80568">
        <ele>503</ele>
        <time>2016-05-29T08:47:55.000Z</time>
      </trkpt>
      <trkpt lat="47.42274" lon="6.80575">
        <ele>503</ele>
        <time>2016-05-29T08:47:56.000Z</time>
      </trkpt>
      <trkpt lat="47.42276" lon="6.80581">
        <ele>503</ele>
        <time>2016-05-29T08:47:57.000Z</time>
      </trkpt>
      <trkpt lat="47.42279" lon="6.80588">
        <ele>498</ele>
        <time>2016-05-29T08:47:58.000Z</time>
      </trkpt>
      <trkpt lat="47.42283" lon="6.80596">
        <ele>498</ele>
        <time>2016-05-29T08:47:59.000Z</time>
      </trkpt>
      <trkpt lat="47.42302" lon="6.80623">
        <ele>499</ele>
        <time>2016-05-29T08:48:00.000Z</time>
      </trkpt>
      <trkpt lat="47.42306" lon="6.8063">
        <ele>499</ele>
        <time>2016-05-29T08:48:01.000Z</time>
      </trkpt>
      <trkpt lat="47.42309" lon="6.80637">
        <ele>498</ele>
        <time>2016-05-29T08:48:02.000Z</time>
      </trkpt>
      <trkpt lat="47.42322" lon="6.80646">
        <ele>499</ele>
        <time>2016-05-29T08:48:03.000Z</time>
      </trkpt>
      <trkpt lat="47.42337" lon="6.80656">
        <ele>501</ele>
        <time>2016-05-29T08:48:04.000Z</time>
      </trkpt>
      <trkpt lat="47.42343" lon="6.80664">
        <ele>501</ele>
        <time>2016-05-29T08:48:05.000Z</time>
      </trkpt>
      <trkpt lat="47.42351" lon="6.80669">
        <ele>500</ele>
        <time>2016-05-29T08:48:06.000Z</time>
      </trkpt>
      <trkpt lat="47.42358" lon="6.80674">
        <ele>501</ele>
        <time>2016-05-29T08:48:07.000Z</time>
      </trkpt>
      <trkpt lat="47.4236" lon="6.80677">
        <ele>501</ele>
        <time>2016-05-29T08:48:08.000Z</time>
      </trkpt>
      <trkpt lat="47.42363" lon="6.80679">
        <ele>501</ele>
        <time>2016-05-29T08:48:09.000Z</time>
      </trkpt>
      <trkpt lat="47.42366" lon="6.80681">
        <ele>501</ele>
        <time>2016-05-29T08:48:10.000Z</time>
      </trkpt>
      <trkpt lat="47.42369" lon="6.80684">
        <ele>501</ele>
        <time>2016-05-29T08:48:11.000Z</time>
      </trkpt>
      <trkpt lat="47.42371" lon="6.80686">
        <ele>501</ele>
        <time>2016-05-29T08:48:12.000Z</time>
      </trkpt>
      <trkpt lat="47.42373" lon="6.80689">
        <ele>501</ele>
        <time>2016-05-29T08:48:13.000Z</time>
      </trkpt>
      <trkpt lat="47.42376" lon="6.80693">
        <ele>501</ele>
        <time>2016-05-29T08:48:14.000Z</time>
      </trkpt>
      <trkpt lat="47.42379" lon="6.80697">
        <ele>501</ele>
        <time>2016-05-29T08:48:15.000Z</time>
      </trkpt>
      <trkpt lat="47.42382" lon="6.80701">
        <ele>502</ele>
        <time>2016-05-29T08:48:16.000Z</time>
      </trkpt>
      <trkpt lat="47.42384" lon="6.80705">
        <ele>502</ele>
        <time>2016-05-29T08:48:17.000Z</time>
      </trkpt>
      <trkpt lat="47.42386" lon="6.80708">
        <ele>502</ele>
        <time>2016-05-29T08:48:18.000Z</time>
      </trkpt>
      <trkpt lat="47.42388" lon="6.80711">
        <ele>502</ele>
        <time>2016-05-29T08:48:19.000Z</time>
      </trkpt>
      <trkpt lat="47.42388" lon="6.80715">
        <ele>502</ele>
        <time>2016-05-29T08:48:20.000Z</time>
      </trkpt>
      <trkpt lat="47.42389" lon="6.80718">
        <ele>502</ele>
        <time>2016-05-29T08:48:21.000Z</time>
      </trkpt>
      <trkpt lat="47.4239" lon="6.80721">
        <ele>502</ele>
        <time>2016-05-29T08:48:22.000Z</time>
      </trkpt>
      <trkpt lat="47.42392" lon="6.80725">
        <ele>502</ele>
        <time>2016-05-29T08:48:23.000Z</time>
      </trkpt>
      <trkpt lat="47.42394" lon="6.80728">
        <ele>502</ele>
        <time>2016-05-29T08:48:24.000Z</time>
      </trkpt>
      <trkpt lat="47.42396" lon="6.80732">
        <ele>502</ele>
        <time>2016-05-29T08:48:25.000Z</time>
      </trkpt>
      <trkpt lat="47.42398" lon="6.80735">
        <ele>503</ele>
        <time>2016-05-29T08:48:26.000Z</time>
      </trkpt>
      <trkpt lat="47.424" lon="6.80739">
        <ele>503</ele>
        <time>2016-05-29T08:48:27.000Z</time>
      </trkpt>
      <trkpt lat="47.42402" lon="6.80743">
        <ele>503</ele>
        <time>2016-05-29T08:48:28.000Z</time>
      </trkpt>
      <trkpt lat="47.42404" lon="6.80746">
        <ele>504</ele>
        <time>2016-05-29T08:48:29.000Z</time>
      </trkpt>
      <trkpt lat="47.42406" lon="6.8075">
        <ele>504</ele>
        <time>2016-05-29T08:48:30.000Z</time>
      </trkpt>
      <trkpt lat="47.42408" lon="6.80754">
        <ele>502</ele>
        <time>2016-05-29T08:48:31.000Z</time>
      </trkpt>
      <trkpt lat="47.42411" lon="6.80759">
        <ele>502</ele>
        <time>2016-05-29T08:48:32.000Z</time>
      </trkpt>
      <trkpt lat="47.42413" lon="6.80765">
        <ele>501</ele>
        <time>2016-05-29T08:48:33.000Z</time>
      </trkpt>
      <trkpt lat="47.42416" lon="6.8077">
        <ele>500</ele>
        <time>2016-05-29T08:48:34.000Z</time>
      </trkpt>
      <trkpt lat="47.4242" lon="6.80775">
        <ele>501</ele>
        <time>2016-05-29T08:48:35.000Z</time>
      </trkpt>
      <trkpt lat="47.42424" lon="6.80779">
        <ele>501</ele>
        <time>2016-05-29T08:48:36.000Z</time>
      </trkpt>
      <trkpt lat="47.42428" lon="6.80784">
        <ele>500</ele>
        <time>2016-05-29T08:48:37.000Z</time>
      </trkpt>
      <trkpt lat="47.42433" lon="6.80788">
        <ele>500</ele>
        <time>2016-05-29T08:48:38.000Z</time>
      </trkpt>
      <trkpt lat="47.42438" lon="6.80792">
        <ele>500</ele>
        <time>2016-05-29T08:48:39.000Z</time>
      </trkpt>
      <trkpt lat="47.42443" lon="6.80797">
        <ele>499</ele>
        <time>2016-05-29T08:48:40.000Z</time>
      </trkpt>
      <trkpt lat="47.42462" lon="6.80811">
        <ele>499</ele>
        <time>2016-05-29T08:48:41.000Z</time>
      </trkpt>
      <trkpt lat="47.42465" lon="6.80818">
        <ele>499</ele>
        <time>2016-05-29T08:48:42.000Z</time>
      </trkpt>
      <trkpt lat="47.42471" lon="6.80824">
        <ele>499</ele>
        <time>2016-05-29T08:48:43.000Z</time>
      </trkpt>
      <trkpt lat="47.42475" lon="6.8083">
        <ele>499</ele>
        <time>2016-05-29T08:48:44.000Z</time>
      </trkpt>
      <trkpt lat="47.4248" lon="6.80837">
        <ele>499</ele>
        <time>2016-05-29T08:48:45.000Z</time>
      </trkpt>
      <trkpt lat="47.42487" lon="6.80846">
        <ele>499</ele>
        <time>2016-05-29T08:48:46.000Z</time>
      </trkpt>
      <trkpt lat="47.42501" lon="6.80855">
        <ele>498</ele>
        <time>2016-05-29T08:48:47.000Z</time>
      </trkpt>
      <trkpt lat="47.42512" lon="6.80863">
        <ele>497</ele>
        <time>2016-05-29T08:48:48.000Z</time>
      </trkpt>
      <trkpt lat="47.42521" lon="6.80867">
        <ele>497</ele>
        <time>2016-05-29T08:48:49.000Z</time>
      </trkpt>
      <trkpt lat="47.42528" lon="6.80871">
        <ele>497</ele>
        <time>2016-05-29T08:48:50.000Z</time>
      </trkpt>
      <trkpt lat="47.42536" lon="6.80875">
        <ele>496</ele>
        <time>2016-05-29T08:48:51.000Z</time>
      </trkpt>
      <trkpt lat="47.42543" lon="6.8088">
        <ele>496</ele>
        <time>2016-05-29T08:48:52.000Z</time>
      </trkpt>
      <trkpt lat="47.42548" lon="6.80884">
        <ele>496</ele>
        <time>2016-05-29T08:48:53.000Z</time>
      </trkpt>
      <trkpt lat="47.42556" lon="6.80888">
        <ele>496</ele>
        <time>2016-05-29T08:48:54.000Z</time>
      </trkpt>
      <trkpt lat="47.42564" lon="6.80891">
        <ele>495</ele>
        <time>2016-05-29T08:48:55.000Z</time>
      </trkpt>
      <trkpt lat="47.42568" lon="6.80893">
        <ele>495</ele>
        <time>2016-05-29T08:48:56.000Z</time>
      </trkpt>
      <trkpt lat="47.42577" lon="6.80896">
        <ele>495</ele>
        <time>2016-05-29T08:48:57.000Z</time>
      </trkpt>
      <trkpt lat="47.42583" lon="6.80899">
        <ele>495</ele>
        <time>2016-05-29T08:48:58.000Z</time>
      </trkpt>
      <trkpt lat="47.42587" lon="6.80905">
        <ele>491</ele>
        <time>2016-05-29T08:48:59.000Z</time>
      </trkpt>
      <trkpt lat="47.42589" lon="6.80909">
        <ele>491</ele>
        <time>2016-05-29T08:49:00.000Z</time>
      </trkpt>
      <trkpt lat="47.42598" lon="6.80912">
        <ele>490</ele>
        <time>2016-05-29T08:49:01.000Z</time>
      </trkpt>
      <trkpt lat="47.42601" lon="6.80916">
        <ele>490</ele>
        <time>2016-05-29T08:49:02.000Z</time>
      </trkpt>
      <trkpt lat="47.42605" lon="6.80919">
        <ele>490</ele>
        <time>2016-05-29T08:49:03.000Z</time>
      </trkpt>
      <trkpt lat="47.42606" lon="6.80924">
        <ele>489</ele>
        <time>2016-05-29T08:49:04.000Z</time>
      </trkpt>
      <trkpt lat="47.42608" lon="6.8093">
        <ele>489</ele>
        <time>2016-05-29T08:49:05.000Z</time>
      </trkpt>
      <trkpt lat="47.42613" lon="6.80935">
        <ele>488</ele>
        <time>2016-05-29T08:49:06.000Z</time>
      </trkpt>
      <trkpt lat="47.42617" lon="6.80942">
        <ele>488</ele>
        <time>2016-05-29T08:49:07.000Z</time>
      </trkpt>
      <trkpt lat="47.42622" lon="6.80947">
        <ele>487</ele>
        <time>2016-05-29T08:49:08.000Z</time>
      </trkpt>
      <trkpt lat="47.42627" lon="6.80949">
        <ele>487</ele>
        <time>2016-05-29T08:49:09.000Z</time>
      </trkpt>
      <trkpt lat="47.4263" lon="6.80952">
        <ele>487</ele>
        <time>2016-05-29T08:49:10.000Z</time>
      </trkpt>
      <trkpt lat="47.42633" lon="6.80954">
        <ele>487</ele>
        <time>2016-05-29T08:49:11.000Z</time>
      </trkpt>
      <trkpt lat="47.42636" lon="6.80956">
        <ele>486</ele>
        <time>2016-05-29T08:49:12.000Z</time>
      </trkpt>
      <trkpt lat="47.42639" lon="6.80957">
        <ele>486</ele>
        <time>2016-05-29T08:49:13.000Z</time>
      </trkpt>
      <trkpt lat="47.42642" lon="6.80958">
        <ele>486</ele>
        <time>2016-05-29T08:49:14.000Z</time>
      </trkpt>
      <trkpt lat="47.42646" lon="6.80959">
        <ele>486</ele>
        <time>2016-05-29T08:49:15.000Z</time>
      </trkpt>
      <trkpt lat="47.42649" lon="6.80961">
        <ele>486</ele>
        <time>2016-05-29T08:49:16.000Z</time>
      </trkpt>
      <trkpt lat="47.42651" lon="6.80963">
        <ele>486</ele>
        <time>2016-05-29T08:49:17.000Z</time>
      </trkpt>
      <trkpt lat="47.42654" lon="6.80967">
        <ele>486</ele>
        <time>2016-05-29T08:49:19.000Z</time>
      </trkpt>
      <trkpt lat="47.42655" lon="6.80968">
        <ele>486</ele>
        <time>2016-05-29T08:49:20.000Z</time>
      </trkpt>
      <trkpt lat="47.42657" lon="6.8097">
        <ele>485</ele>
        <time>2016-05-29T08:49:21.000Z</time>
      </trkpt>
      <trkpt lat="47.42659" lon="6.80972">
        <ele>485</ele>
        <time>2016-05-29T08:49:22.000Z</time>
      </trkpt>
      <trkpt lat="47.42661" lon="6.80975">
        <ele>485</ele>
        <time>2016-05-29T08:49:23.000Z</time>
      </trkpt>
      <trkpt lat="47.42664" lon="6.80977">
        <ele>485</ele>
        <time>2016-05-29T08:49:24.000Z</time>
      </trkpt>
      <trkpt lat="47.42666" lon="6.8098">
        <ele>485</ele>
        <time>2016-05-29T08:49:25.000Z</time>
      </trkpt>
      <trkpt lat="47.42669" lon="6.80984">
        <ele>483</ele>
        <time>2016-05-29T08:49:26.000Z</time>
      </trkpt>
      <trkpt lat="47.42671" lon="6.80987">
        <ele>483</ele>
        <time>2016-05-29T08:49:27.000Z</time>
      </trkpt>
      <trkpt lat="47.42674" lon="6.80991">
        <ele>483</ele>
        <time>2016-05-29T08:49:28.000Z</time>
      </trkpt>
      <trkpt lat="47.42677" lon="6.80995">
        <ele>483</ele>
        <time>2016-05-29T08:49:29.000Z</time>
      </trkpt>
      <trkpt lat="47.4268" lon="6.80999">
        <ele>483</ele>
        <time>2016-05-29T08:49:30.000Z</time>
      </trkpt>
      <trkpt lat="47.42683" lon="6.81003">
        <ele>481</ele>
        <time>2016-05-29T08:49:31.000Z</time>
      </trkpt>
      <trkpt lat="47.42687" lon="6.81007">
        <ele>480</ele>
        <time>2016-05-29T08:49:32.000Z</time>
      </trkpt>
      <trkpt lat="47.4269" lon="6.81011">
        <ele>480</ele>
        <time>2016-05-29T08:49:33.000Z</time>
      </trkpt>
      <trkpt lat="47.42693" lon="6.81015">
        <ele>479</ele>
        <time>2016-05-29T08:49:34.000Z</time>
      </trkpt>
      <trkpt lat="47.42696" lon="6.8102">
        <ele>479</ele>
        <time>2016-05-29T08:49:35.000Z</time>
      </trkpt>
      <trkpt lat="47.42699" lon="6.81024">
        <ele>479</ele>
        <time>2016-05-29T08:49:36.000Z</time>
      </trkpt>
      <trkpt lat="47.42702" lon="6.81028">
        <ele>478</ele>
        <time>2016-05-29T08:49:37.000Z</time>
      </trkpt>
      <trkpt lat="47.42706" lon="6.81032">
        <ele>478</ele>
        <time>2016-05-29T08:49:38.000Z</time>
      </trkpt>
      <trkpt lat="47.42709" lon="6.81037">
        <ele>478</ele>
        <time>2016-05-29T08:49:39.000Z</time>
      </trkpt>
      <trkpt lat="47.42713" lon="6.81042">
        <ele>478</ele>
        <time>2016-05-29T08:49:40.000Z</time>
      </trkpt>
      <trkpt lat="47.42717" lon="6.81047">
        <ele>477</ele>
        <time>2016-05-29T08:49:41.000Z</time>
      </trkpt>
      <trkpt lat="47.42721" lon="6.81052">
        <ele>477</ele>
        <time>2016-05-29T08:49:42.000Z</time>
      </trkpt>
      <trkpt lat="47.42726" lon="6.81058">
        <ele>477</ele>
        <time>2016-05-29T08:49:43.000Z</time>
      </trkpt>
      <trkpt lat="47.42731" lon="6.81064">
        <ele>476</ele>
        <time>2016-05-29T08:49:44.000Z</time>
      </trkpt>
      <trkpt lat="47.42735" lon="6.8107">
        <ele>476</ele>
        <time>2016-05-29T08:49:45.000Z</time>
      </trkpt>
      <trkpt lat="47.4274" lon="6.81075">
        <ele>475</ele>
        <time>2016-05-29T08:49:46.000Z</time>
      </trkpt>
      <trkpt lat="47.42744" lon="6.81081">
        <ele>475</ele>
        <time>2016-05-29T08:49:47.000Z</time>
      </trkpt>
      <trkpt lat="47.42748" lon="6.81085">
        <ele>473</ele>
        <time>2016-05-29T08:49:48.000Z</time>
      </trkpt>
      <trkpt lat="47.42752" lon="6.81089">
        <ele>473</ele>
        <time>2016-05-29T08:49:49.000Z</time>
      </trkpt>
      <trkpt lat="47.42756" lon="6.81093">
        <ele>473</ele>
        <time>2016-05-29T08:49:50.000Z</time>
      </trkpt>
      <trkpt lat="47.4276" lon="6.81097">
        <ele>472</ele>
        <time>2016-05-29T08:49:51.000Z</time>
      </trkpt>
      <trkpt lat="47.42763" lon="6.811">
        <ele>472</ele>
        <time>2016-05-29T08:49:52.000Z</time>
      </trkpt>
      <trkpt lat="47.42767" lon="6.81104">
        <ele>472</ele>
        <time>2016-05-29T08:49:53.000Z</time>
      </trkpt>
      <trkpt lat="47.4277" lon="6.81108">
        <ele>472</ele>
        <time>2016-05-29T08:49:54.000Z</time>
      </trkpt>
      <trkpt lat="47.42772" lon="6.81113">
        <ele>471</ele>
        <time>2016-05-29T08:49:55.000Z</time>
      </trkpt>
      <trkpt lat="47.42775" lon="6.81117">
        <ele>471</ele>
        <time>2016-05-29T08:49:56.000Z</time>
      </trkpt>
      <trkpt lat="47.42777" lon="6.81121">
        <ele>471</ele>
        <time>2016-05-29T08:49:57.000Z</time>
      </trkpt>
      <trkpt lat="47.4278" lon="6.81125">
        <ele>471</ele>
        <time>2016-05-29T08:49:58.000Z</time>
      </trkpt>
      <trkpt lat="47.42782" lon="6.81128">
        <ele>471</ele>
        <time>2016-05-29T08:49:59.000Z</time>
      </trkpt>
      <trkpt lat="47.42786" lon="6.81132">
        <ele>471</ele>
        <time>2016-05-29T08:50:00.000Z</time>
      </trkpt>
      <trkpt lat="47.42789" lon="6.81137">
        <ele>470</ele>
        <time>2016-05-29T08:50:01.000Z</time>
      </trkpt>
      <trkpt lat="47.42793" lon="6.81142">
        <ele>470</ele>
        <time>2016-05-29T08:50:02.000Z</time>
      </trkpt>
      <trkpt lat="47.42797" lon="6.81146">
        <ele>470</ele>
        <time>2016-05-29T08:50:03.000Z</time>
      </trkpt>
      <trkpt lat="47.428" lon="6.8115">
        <ele>471</ele>
        <time>2016-05-29T08:50:04.000Z</time>
      </trkpt>
      <trkpt lat="47.42803" lon="6.81154">
        <ele>471</ele>
        <time>2016-05-29T08:50:05.000Z</time>
      </trkpt>
      <trkpt lat="47.42807" lon="6.8116">
        <ele>471</ele>
        <time>2016-05-29T08:50:06.000Z</time>
      </trkpt>
      <trkpt lat="47.4281" lon="6.81165">
        <ele>471</ele>
        <time>2016-05-29T08:50:07.000Z</time>
      </trkpt>
      <trkpt lat="47.42813" lon="6.8117">
        <ele>466</ele>
        <time>2016-05-29T08:50:08.000Z</time>
      </trkpt>
      <trkpt lat="47.42815" lon="6.81176">
        <ele>466</ele>
        <time>2016-05-29T08:50:09.000Z</time>
      </trkpt>
      <trkpt lat="47.42818" lon="6.81181">
        <ele>466</ele>
        <time>2016-05-29T08:50:10.000Z</time>
      </trkpt>
      <trkpt lat="47.4282" lon="6.81185">
        <ele>465</ele>
        <time>2016-05-29T08:50:11.000Z</time>
      </trkpt>
      <trkpt lat="47.42823" lon="6.81191">
        <ele>465</ele>
        <time>2016-05-29T08:50:12.000Z</time>
      </trkpt>
      <trkpt lat="47.42825" lon="6.81197">
        <ele>464</ele>
        <time>2016-05-29T08:50:13.000Z</time>
      </trkpt>
      <trkpt lat="47.42828" lon="6.81203">
        <ele>464</ele>
        <time>2016-05-29T08:50:14.000Z</time>
      </trkpt>
      <trkpt lat="47.42831" lon="6.81209">
        <ele>463</ele>
        <time>2016-05-29T08:50:15.000Z</time>
      </trkpt>
      <trkpt lat="47.42834" lon="6.81214">
        <ele>467</ele>
        <time>2016-05-29T08:50:16.000Z</time>
      </trkpt>
      <trkpt lat="47.42837" lon="6.81219">
        <ele>467</ele>
        <time>2016-05-29T08:50:17.000Z</time>
      </trkpt>
      <trkpt lat="47.4284" lon="6.81224">
        <ele>466</ele>
        <time>2016-05-29T08:50:18.000Z</time>
      </trkpt>
      <trkpt lat="47.42844" lon="6.8123">
        <ele>466</ele>
        <time>2016-05-29T08:50:19.000Z</time>
      </trkpt>
      <trkpt lat="47.42847" lon="6.81235">
        <ele>466</ele>
        <time>2016-05-29T08:50:20.000Z</time>
      </trkpt>
      <trkpt lat="47.4285" lon="6.8124">
        <ele>465</ele>
        <time>2016-05-29T08:50:21.000Z</time>
      </trkpt>
      <trkpt lat="47.42854" lon="6.81247">
        <ele>466</ele>
        <time>2016-05-29T08:50:22.000Z</time>
      </trkpt>
      <trkpt lat="47.42859" lon="6.81254">
        <ele>462</ele>
        <time>2016-05-29T08:50:23.000Z</time>
      </trkpt>
      <trkpt lat="47.42863" lon="6.81261">
        <ele>461</ele>
        <time>2016-05-29T08:50:24.000Z</time>
      </trkpt>
      <trkpt lat="47.42876" lon="6.81278">
        <ele>461</ele>
        <time>2016-05-29T08:50:25.000Z</time>
      </trkpt>
      <trkpt lat="47.4288" lon="6.81284">
        <ele>461</ele>
        <time>2016-05-29T08:50:26.000Z</time>
      </trkpt>
      <trkpt lat="47.42885" lon="6.81287">
        <ele>461</ele>
        <time>2016-05-29T08:50:27.000Z</time>
      </trkpt>
      <trkpt lat="47.42888" lon="6.81291">
        <ele>461</ele>
        <time>2016-05-29T08:50:28.000Z</time>
      </trkpt>
      <trkpt lat="47.42891" lon="6.81294">
        <ele>461</ele>
        <time>2016-05-29T08:50:29.000Z</time>
      </trkpt>
      <trkpt lat="47.42894" lon="6.81298">
        <ele>461</ele>
        <time>2016-05-29T08:50:30.000Z</time>
      </trkpt>
      <trkpt lat="47.42897" lon="6.81301">
        <ele>461</ele>
        <time>2016-05-29T08:50:31.000Z</time>
      </trkpt>
      <trkpt lat="47.429" lon="6.81305">
        <ele>461</ele>
        <time>2016-05-29T08:50:33.000Z</time>
      </trkpt>
      <trkpt lat="47.429" lon="6.81306">
        <ele>461</ele>
        <time>2016-05-29T08:50:34.000Z</time>
      </trkpt>
      <trkpt lat="47.42903" lon="6.8131">
        <ele>461</ele>
        <time>2016-05-29T08:50:37.000Z</time>
      </trkpt>
      <trkpt lat="47.42904" lon="6.81311">
        <ele>461</ele>
        <time>2016-05-29T08:50:38.000Z</time>
      </trkpt>
      <trkpt lat="47.42907" lon="6.81315">
        <ele>461</ele>
        <time>2016-05-29T08:50:40.000Z</time>
      </trkpt>
      <trkpt lat="47.42908" lon="6.81317">
        <ele>461</ele>
        <time>2016-05-29T08:50:41.000Z</time>
      </trkpt>
      <trkpt lat="47.4291" lon="6.81321">
        <ele>461</ele>
        <time>2016-05-29T08:50:43.000Z</time>
      </trkpt>
      <trkpt lat="47.42911" lon="6.81323">
        <ele>461</ele>
        <time>2016-05-29T08:50:44.000Z</time>
      </trkpt>
      <trkpt lat="47.42913" lon="6.81327">
        <ele>462</ele>
        <time>2016-05-29T08:50:46.000Z</time>
      </trkpt>
      <trkpt lat="47.42915" lon="6.8133">
        <ele>462</ele>
        <time>2016-05-29T08:50:47.000Z</time>
      </trkpt>
      <trkpt lat="47.42916" lon="6.81333">
        <ele>462</ele>
        <time>2016-05-29T08:50:48.000Z</time>
      </trkpt>
      <trkpt lat="47.42918" lon="6.81336">
        <ele>462</ele>
        <time>2016-05-29T08:50:49.000Z</time>
      </trkpt>
      <trkpt lat="47.42919" lon="6.81339">
        <ele>462</ele>
        <time>2016-05-29T08:50:50.000Z</time>
      </trkpt>
      <trkpt lat="47.4292" lon="6.81342">
        <ele>462</ele>
        <time>2016-05-29T08:50:51.000Z</time>
      </trkpt>
      <trkpt lat="47.42923" lon="6.81346">
        <ele>462</ele>
        <time>2016-05-29T08:50:53.000Z</time>
      </trkpt>
      <trkpt lat="47.42924" lon="6.81348">
        <ele>462</ele>
        <time>2016-05-29T08:50:54.000Z</time>
      </trkpt>
      <trkpt lat="47.42926" lon="6.81351">
        <ele>461</ele>
        <time>2016-05-29T08:50:55.000Z</time>
      </trkpt>
      <trkpt lat="47.42928" lon="6.81354">
        <ele>461</ele>
        <time>2016-05-29T08:50:56.000Z</time>
      </trkpt>
      <trkpt lat="47.42929" lon="6.81357">
        <ele>461</ele>
        <time>2016-05-29T08:50:57.000Z</time>
      </trkpt>
      <trkpt lat="47.42931" lon="6.8136">
        <ele>461</ele>
        <time>2016-05-29T08:50:58.000Z</time>
      </trkpt>
      <trkpt lat="47.42932" lon="6.81363">
        <ele>461</ele>
        <time>2016-05-29T08:50:59.000Z</time>
      </trkpt>
      <trkpt lat="47.42934" lon="6.81366">
        <ele>461</ele>
        <time>2016-05-29T08:51:00.000Z</time>
      </trkpt>
      <trkpt lat="47.42936" lon="6.81369">
        <ele>461</ele>
        <time>2016-05-29T08:51:01.000Z</time>
      </trkpt>
      <trkpt lat="47.42938" lon="6.81372">
        <ele>461</ele>
        <time>2016-05-29T08:51:02.000Z</time>
      </trkpt>
      <trkpt lat="47.42939" lon="6.81375">
        <ele>461</ele>
        <time>2016-05-29T08:51:03.000Z</time>
      </trkpt>
      <trkpt lat="47.42942" lon="6.81378">
        <ele>461</ele>
        <time>2016-05-29T08:51:04.000Z</time>
      </trkpt>
      <trkpt lat="47.42943" lon="6.81381">
        <ele>460</ele>
        <time>2016-05-29T08:51:05.000Z</time>
      </trkpt>
      <trkpt lat="47.42945" lon="6.81384">
        <ele>460</ele>
        <time>2016-05-29T08:51:06.000Z</time>
      </trkpt>
      <trkpt lat="47.42947" lon="6.81388">
        <ele>460</ele>
        <time>2016-05-29T08:51:07.000Z</time>
      </trkpt>
      <trkpt lat="47.42948" lon="6.81392">
        <ele>460</ele>
        <time>2016-05-29T08:51:08.000Z</time>
      </trkpt>
      <trkpt lat="47.4295" lon="6.81395">
        <ele>460</ele>
        <time>2016-05-29T08:51:09.000Z</time>
      </trkpt>
      <trkpt lat="47.42951" lon="6.81399">
        <ele>460</ele>
        <time>2016-05-29T08:51:10.000Z</time>
      </trkpt>
      <trkpt lat="47.42954" lon="6.81403">
        <ele>460</ele>
        <time>2016-05-29T08:51:11.000Z</time>
      </trkpt>
      <trkpt lat="47.42956" lon="6.81407">
        <ele>460</ele>
        <time>2016-05-29T08:51:12.000Z</time>
      </trkpt>
      <trkpt lat="47.42959" lon="6.81411">
        <ele>460</ele>
        <time>2016-05-29T08:51:13.000Z</time>
      </trkpt>
      <trkpt lat="47.42962" lon="6.81415">
        <ele>461</ele>
        <time>2016-05-29T08:51:14.000Z</time>
      </trkpt>
      <trkpt lat="47.42966" lon="6.81419">
        <ele>456</ele>
        <time>2016-05-29T08:51:15.000Z</time>
      </trkpt>
      <trkpt lat="47.42969" lon="6.81423">
        <ele>457</ele>
        <time>2016-05-29T08:51:16.000Z</time>
      </trkpt>
      <trkpt lat="47.42973" lon="6.81428">
        <ele>457</ele>
        <time>2016-05-29T08:51:17.000Z</time>
      </trkpt>
      <trkpt lat="47.42977" lon="6.81432">
        <ele>457</ele>
        <time>2016-05-29T08:51:18.000Z</time>
      </trkpt>
      <trkpt lat="47.4298" lon="6.81437">
        <ele>457</ele>
        <time>2016-05-29T08:51:19.000Z</time>
      </trkpt>
      <trkpt lat="47.42984" lon="6.81441">
        <ele>457</ele>
        <time>2016-05-29T08:51:20.000Z</time>
      </trkpt>
      <trkpt lat="47.42989" lon="6.81445">
        <ele>457</ele>
        <time>2016-05-29T08:51:21.000Z</time>
      </trkpt>
      <trkpt lat="47.42993" lon="6.8145">
        <ele>457</ele>
        <time>2016-05-29T08:51:22.000Z</time>
      </trkpt>
      <trkpt lat="47.42997" lon="6.81455">
        <ele>456</ele>
        <time>2016-05-29T08:51:23.000Z</time>
      </trkpt>
      <trkpt lat="47.43001" lon="6.8146">
        <ele>459</ele>
        <time>2016-05-29T08:51:24.000Z</time>
      </trkpt>
      <trkpt lat="47.43005" lon="6.81465">
        <ele>459</ele>
        <time>2016-05-29T08:51:25.000Z</time>
      </trkpt>
      <trkpt lat="47.4301" lon="6.81471">
        <ele>458</ele>
        <time>2016-05-29T08:51:26.000Z</time>
      </trkpt>
      <trkpt lat="47.43014" lon="6.81476">
        <ele>458</ele>
        <time>2016-05-29T08:51:27.000Z</time>
      </trkpt>
      <trkpt lat="47.43018" lon="6.8148">
        <ele>458</ele>
        <time>2016-05-29T08:51:28.000Z</time>
      </trkpt>
      <trkpt lat="47.43022" lon="6.81486">
        <ele>458</ele>
        <time>2016-05-29T08:51:29.000Z</time>
      </trkpt>
      <trkpt lat="47.43025" lon="6.8149">
        <ele>458</ele>
        <time>2016-05-29T08:51:30.000Z</time>
      </trkpt>
      <trkpt lat="47.43028" lon="6.81495">
        <ele>457</ele>
        <time>2016-05-29T08:51:31.000Z</time>
      </trkpt>
      <trkpt lat="47.4303" lon="6.815">
        <ele>457</ele>
        <time>2016-05-29T08:51:32.000Z</time>
      </trkpt>
      <trkpt lat="47.43032" lon="6.81504">
        <ele>452</ele>
        <time>2016-05-29T08:51:33.000Z</time>
      </trkpt>
      <trkpt lat="47.43033" lon="6.81509">
        <ele>452</ele>
        <time>2016-05-29T08:51:34.000Z</time>
      </trkpt>
      <trkpt lat="47.43035" lon="6.81514">
        <ele>452</ele>
        <time>2016-05-29T08:51:35.000Z</time>
      </trkpt>
      <trkpt lat="47.43035" lon="6.81517">
        <ele>451</ele>
        <time>2016-05-29T08:51:36.000Z</time>
      </trkpt>
      <trkpt lat="47.43033" lon="6.81522">
        <ele>451</ele>
        <time>2016-05-29T08:51:38.000Z</time>
      </trkpt>
      <trkpt lat="47.43031" lon="6.81523">
        <ele>451</ele>
        <time>2016-05-29T08:51:39.000Z</time>
      </trkpt>
      <trkpt lat="47.4303" lon="6.81529">
        <ele>451</ele>
        <time>2016-05-29T08:51:46.000Z</time>
      </trkpt>
      <trkpt lat="47.4303" lon="6.8153">
        <ele>451</ele>
        <time>2016-05-29T08:51:47.000Z</time>
      </trkpt>
      <trkpt lat="47.43032" lon="6.81535">
        <ele>450</ele>
        <time>2016-05-29T08:51:59.000Z</time>
      </trkpt>
      <trkpt lat="47.43034" lon="6.81537">
        <ele>450</ele>
        <time>2016-05-29T08:52:00.000Z</time>
      </trkpt>
      <trkpt lat="47.43038" lon="6.81539">
        <ele>450</ele>
        <time>2016-05-29T08:52:02.000Z</time>
      </trkpt>
      <trkpt lat="47.4304" lon="6.81541">
        <ele>450</ele>
        <time>2016-05-29T08:52:03.000Z</time>
      </trkpt>
      <trkpt lat="47.43043" lon="6.81543">
        <ele>450</ele>
        <time>2016-05-29T08:52:06.000Z</time>
      </trkpt>
      <trkpt lat="47.43044" lon="6.81542">
        <ele>450</ele>
        <time>2016-05-29T08:52:07.000Z</time>
      </trkpt>
      <trkpt lat="47.43043" lon="6.81544">
        <ele>450</ele>
        <time>2016-05-29T08:52:42.000Z</time>
      </trkpt>
      <trkpt lat="47.43046" lon="6.81549">
        <ele>449</ele>
        <time>2016-05-29T08:52:43.000Z</time>
      </trkpt>
      <trkpt lat="47.43048" lon="6.81552">
        <ele>449</ele>
        <time>2016-05-29T08:52:44.000Z</time>
      </trkpt>
      <trkpt lat="47.43049" lon="6.81555">
        <ele>449</ele>
        <time>2016-05-29T08:52:45.000Z</time>
      </trkpt>
      <trkpt lat="47.43052" lon="6.8156">
        <ele>448</ele>
        <time>2016-05-29T08:52:47.000Z</time>
      </trkpt>
      <trkpt lat="47.43053" lon="6.81563">
        <ele>448</ele>
        <time>2016-05-29T08:52:48.000Z</time>
      </trkpt>
      <trkpt lat="47.43055" lon="6.81566">
        <ele>448</ele>
        <time>2016-05-29T08:52:49.000Z</time>
      </trkpt>
      <trkpt lat="47.43057" lon="6.8157">
        <ele>448</ele>
        <time>2016-05-29T08:52:50.000Z</time>
      </trkpt>
      <trkpt lat="47.43061" lon="6.81573">
        <ele>447</ele>
        <time>2016-05-29T08:52:51.000Z</time>
      </trkpt>
      <trkpt lat="47.43065" lon="6.81577">
        <ele>447</ele>
        <time>2016-05-29T08:52:52.000Z</time>
      </trkpt>
      <trkpt lat="47.43071" lon="6.8158">
        <ele>446</ele>
        <time>2016-05-29T08:52:53.000Z</time>
      </trkpt>
      <trkpt lat="47.43076" lon="6.81584">
        <ele>441</ele>
        <time>2016-05-29T08:52:54.000Z</time>
      </trkpt>
      <trkpt lat="47.43081" lon="6.81587">
        <ele>442</ele>
        <time>2016-05-29T08:52:55.000Z</time>
      </trkpt>
      <trkpt lat="47.43086" lon="6.81589">
        <ele>441</ele>
        <time>2016-05-29T08:52:56.000Z</time>
      </trkpt>
      <trkpt lat="47.4309" lon="6.81591">
        <ele>440</ele>
        <time>2016-05-29T08:52:57.000Z</time>
      </trkpt>
      <trkpt lat="47.43094" lon="6.81592">
        <ele>439</ele>
        <time>2016-05-29T08:52:58.000Z</time>
      </trkpt>
      <trkpt lat="47.43097" lon="6.81594">
        <ele>438</ele>
        <time>2016-05-29T08:52:59.000Z</time>
      </trkpt>
      <trkpt lat="47.43101" lon="6.81596">
        <ele>438</ele>
        <time>2016-05-29T08:53:00.000Z</time>
      </trkpt>
      <trkpt lat="47.43106" lon="6.81599">
        <ele>437</ele>
        <time>2016-05-29T08:53:01.000Z</time>
      </trkpt>
      <trkpt lat="47.43112" lon="6.81602">
        <ele>436</ele>
        <time>2016-05-29T08:53:02.000Z</time>
      </trkpt>
      <trkpt lat="47.43118" lon="6.81605">
        <ele>435</ele>
        <time>2016-05-29T08:53:03.000Z</time>
      </trkpt>
      <trkpt lat="47.43124" lon="6.81607">
        <ele>435</ele>
        <time>2016-05-29T08:53:04.000Z</time>
      </trkpt>
      <trkpt lat="47.4313" lon="6.81609">
        <ele>435</ele>
        <time>2016-05-29T08:53:05.000Z</time>
      </trkpt>
      <trkpt lat="47.43137" lon="6.81611">
        <ele>435</ele>
        <time>2016-05-29T08:53:06.000Z</time>
      </trkpt>
      <trkpt lat="47.43143" lon="6.81612">
        <ele>435</ele>
        <time>2016-05-29T08:53:07.000Z</time>
      </trkpt>
      <trkpt lat="47.43148" lon="6.81614">
        <ele>435</ele>
        <time>2016-05-29T08:53:08.000Z</time>
      </trkpt>
      <trkpt lat="47.43154" lon="6.81616">
        <ele>434</ele>
        <time>2016-05-29T08:53:09.000Z</time>
      </trkpt>
      <trkpt lat="47.43159" lon="6.81617">
        <ele>434</ele>
        <time>2016-05-29T08:53:10.000Z</time>
      </trkpt>
      <trkpt lat="47.43163" lon="6.81619">
        <ele>434</ele>
        <time>2016-05-29T08:53:11.000Z</time>
      </trkpt>
      <trkpt lat="47.43168" lon="6.8162">
        <ele>435</ele>
        <time>2016-05-29T08:53:12.000Z</time>
      </trkpt>
      <trkpt lat="47.43173" lon="6.8162">
        <ele>435</ele>
        <time>2016-05-29T08:53:13.000Z</time>
      </trkpt>
      <trkpt lat="47.43178" lon="6.81622">
        <ele>435</ele>
        <time>2016-05-29T08:53:14.000Z</time>
      </trkpt>
      <trkpt lat="47.43194" lon="6.81624">
        <ele>435</ele>
        <time>2016-05-29T08:53:15.000Z</time>
      </trkpt>
      <trkpt lat="47.43201" lon="6.81627">
        <ele>435</ele>
        <time>2016-05-29T08:53:16.000Z</time>
      </trkpt>
      <trkpt lat="47.43207" lon="6.81631">
        <ele>435</ele>
        <time>2016-05-29T08:53:17.000Z</time>
      </trkpt>
      <trkpt lat="47.43217" lon="6.81631">
        <ele>435</ele>
        <time>2016-05-29T08:53:18.000Z</time>
      </trkpt>
      <trkpt lat="47.43221" lon="6.81631">
        <ele>435</ele>
        <time>2016-05-29T08:53:19.000Z</time>
      </trkpt>
      <trkpt lat="47.43222" lon="6.81631">
        <ele>435</ele>
        <time>2016-05-29T08:53:20.000Z</time>
      </trkpt>
      <trkpt lat="47.43225" lon="6.81627">
        <ele>435</ele>
        <time>2016-05-29T08:53:21.000Z</time>
      </trkpt>
      <trkpt lat="47.4323" lon="6.81625">
        <ele>436</ele>
        <time>2016-05-29T08:53:22.000Z</time>
      </trkpt>
      <trkpt lat="47.43235" lon="6.81626">
        <ele>436</ele>
        <time>2016-05-29T08:53:23.000Z</time>
      </trkpt>
      <trkpt lat="47.43236" lon="6.81625">
        <ele>436</ele>
        <time>2016-05-29T08:53:25.000Z</time>
      </trkpt>
      <trkpt lat="47.43239" lon="6.81624">
        <ele>436</ele>
        <time>2016-05-29T08:53:26.000Z</time>
      </trkpt>
      <trkpt lat="47.43244" lon="6.81623">
        <ele>436</ele>
        <time>2016-05-29T08:53:34.000Z</time>
      </trkpt>
      <trkpt lat="47.43244" lon="6.81623">
        <ele>436</ele>
        <time>2016-05-29T08:53:35.000Z</time>
      </trkpt>
      <trkpt lat="47.43242" lon="6.81628">
        <ele>436</ele>
        <time>2016-05-29T08:53:53.000Z</time>
      </trkpt>
      <trkpt lat="47.43242" lon="6.81631">
        <ele>435</ele>
        <time>2016-05-29T08:53:54.000Z</time>
      </trkpt>
      <trkpt lat="47.43244" lon="6.81635">
        <ele>435</ele>
        <time>2016-05-29T08:53:55.000Z</time>
      </trkpt>
      <trkpt lat="47.43246" lon="6.8164">
        <ele>434</ele>
        <time>2016-05-29T08:53:56.000Z</time>
      </trkpt>
      <trkpt lat="47.43248" lon="6.81645">
        <ele>434</ele>
        <time>2016-05-29T08:53:57.000Z</time>
      </trkpt>
      <trkpt lat="47.4325" lon="6.81649">
        <ele>434</ele>
        <time>2016-05-29T08:53:58.000Z</time>
      </trkpt>
      <trkpt lat="47.43251" lon="6.81654">
        <ele>434</ele>
        <time>2016-05-29T08:53:59.000Z</time>
      </trkpt>
      <trkpt lat="47.43252" lon="6.81658">
        <ele>433</ele>
        <time>2016-05-29T08:54:00.000Z</time>
      </trkpt>
      <trkpt lat="47.43252" lon="6.81664">
        <ele>432</ele>
        <time>2016-05-29T08:54:01.000Z</time>
      </trkpt>
      <trkpt lat="47.43254" lon="6.81669">
        <ele>430</ele>
        <time>2016-05-29T08:54:02.000Z</time>
      </trkpt>
      <trkpt lat="47.43256" lon="6.81675">
        <ele>428</ele>
        <time>2016-05-29T08:54:03.000Z</time>
      </trkpt>
      <trkpt lat="47.43259" lon="6.81679">
        <ele>427</ele>
        <time>2016-05-29T08:54:04.000Z</time>
      </trkpt>
      <trkpt lat="47.43263" lon="6.81681">
        <ele>426</ele>
        <time>2016-05-29T08:54:05.000Z</time>
      </trkpt>
      <trkpt lat="47.43267" lon="6.81683">
        <ele>426</ele>
        <time>2016-05-29T08:54:06.000Z</time>
      </trkpt>
      <trkpt lat="47.4327" lon="6.81685">
        <ele>425</ele>
        <time>2016-05-29T08:54:07.000Z</time>
      </trkpt>
      <trkpt lat="47.43274" lon="6.81689">
        <ele>425</ele>
        <time>2016-05-29T08:54:08.000Z</time>
      </trkpt>
      <trkpt lat="47.43279" lon="6.81693">
        <ele>424</ele>
        <time>2016-05-29T08:54:09.000Z</time>
      </trkpt>
      <trkpt lat="47.43284" lon="6.81698">
        <ele>424</ele>
        <time>2016-05-29T08:54:10.000Z</time>
      </trkpt>
      <trkpt lat="47.43288" lon="6.81702">
        <ele>423</ele>
        <time>2016-05-29T08:54:11.000Z</time>
      </trkpt>
      <trkpt lat="47.43291" lon="6.81707">
        <ele>423</ele>
        <time>2016-05-29T08:54:12.000Z</time>
      </trkpt>
      <trkpt lat="47.43294" lon="6.81711">
        <ele>423</ele>
        <time>2016-05-29T08:54:13.000Z</time>
      </trkpt>
      <trkpt lat="47.43297" lon="6.81715">
        <ele>422</ele>
        <time>2016-05-29T08:54:14.000Z</time>
      </trkpt>
      <trkpt lat="47.433" lon="6.81719">
        <ele>422</ele>
        <time>2016-05-29T08:54:15.000Z</time>
      </trkpt>
      <trkpt lat="47.43304" lon="6.81723">
        <ele>422</ele>
        <time>2016-05-29T08:54:16.000Z</time>
      </trkpt>
      <trkpt lat="47.43309" lon="6.81726">
        <ele>421</ele>
        <time>2016-05-29T08:54:17.000Z</time>
      </trkpt>
      <trkpt lat="47.43315" lon="6.81728">
        <ele>421</ele>
        <time>2016-05-29T08:54:18.000Z</time>
      </trkpt>
      <trkpt lat="47.4332" lon="6.8173">
        <ele>421</ele>
        <time>2016-05-29T08:54:19.000Z</time>
      </trkpt>
      <trkpt lat="47.43324" lon="6.81732">
        <ele>421</ele>
        <time>2016-05-29T08:54:20.000Z</time>
      </trkpt>
      <trkpt lat="47.43329" lon="6.81735">
        <ele>420</ele>
        <time>2016-05-29T08:54:21.000Z</time>
      </trkpt>
      <trkpt lat="47.43334" lon="6.81738">
        <ele>419</ele>
        <time>2016-05-29T08:54:22.000Z</time>
      </trkpt>
      <trkpt lat="47.43338" lon="6.8174">
        <ele>419</ele>
        <time>2016-05-29T08:54:23.000Z</time>
      </trkpt>
      <trkpt lat="47.43343" lon="6.81742">
        <ele>419</ele>
        <time>2016-05-29T08:54:24.000Z</time>
      </trkpt>
      <trkpt lat="47.43347" lon="6.81743">
        <ele>419</ele>
        <time>2016-05-29T08:54:25.000Z</time>
      </trkpt>
      <trkpt lat="47.43351" lon="6.81744">
        <ele>419</ele>
        <time>2016-05-29T08:54:26.000Z</time>
      </trkpt>
      <trkpt lat="47.43354" lon="6.81746">
        <ele>419</ele>
        <time>2016-05-29T08:54:27.000Z</time>
      </trkpt>
      <trkpt lat="47.43357" lon="6.81747">
        <ele>419</ele>
        <time>2016-05-29T08:54:28.000Z</time>
      </trkpt>
      <trkpt lat="47.43361" lon="6.81747">
        <ele>418</ele>
        <time>2016-05-29T08:54:42.000Z</time>
      </trkpt>
      <trkpt lat="47.43361" lon="6.81748">
        <ele>418</ele>
        <time>2016-05-29T08:54:43.000Z</time>
      </trkpt>
      <trkpt lat="47.43365" lon="6.81748">
        <ele>418</ele>
        <time>2016-05-29T08:54:51.000Z</time>
      </trkpt>
      <trkpt lat="47.43366" lon="6.81749">
        <ele>418</ele>
        <time>2016-05-29T08:54:52.000Z</time>
      </trkpt>
      <trkpt lat="47.43369" lon="6.81751">
        <ele>408</ele>
        <time>2016-05-29T08:54:54.000Z</time>
      </trkpt>
      <trkpt lat="47.4337" lon="6.81752">
        <ele>408</ele>
        <time>2016-05-29T08:54:55.000Z</time>
      </trkpt>
      <trkpt lat="47.43372" lon="6.81757">
        <ele>407</ele>
        <time>2016-05-29T08:54:57.000Z</time>
      </trkpt>
      <trkpt lat="47.43373" lon="6.8176">
        <ele>407</ele>
        <time>2016-05-29T08:54:58.000Z</time>
      </trkpt>
      <trkpt lat="47.43374" lon="6.81764">
        <ele>407</ele>
        <time>2016-05-29T08:54:59.000Z</time>
      </trkpt>
      <trkpt lat="47.43377" lon="6.81768">
        <ele>406</ele>
        <time>2016-05-29T08:55:00.000Z</time>
      </trkpt>
      <trkpt lat="47.43381" lon="6.81772">
        <ele>406</ele>
        <time>2016-05-29T08:55:01.000Z</time>
      </trkpt>
      <trkpt lat="47.43384" lon="6.81774">
        <ele>405</ele>
        <time>2016-05-29T08:55:02.000Z</time>
      </trkpt>
      <trkpt lat="47.43388" lon="6.81775">
        <ele>405</ele>
        <time>2016-05-29T08:55:03.000Z</time>
      </trkpt>
      <trkpt lat="47.43391" lon="6.81775">
        <ele>405</ele>
        <time>2016-05-29T08:55:04.000Z</time>
      </trkpt>
      <trkpt lat="47.43393" lon="6.81775">
        <ele>405</ele>
        <time>2016-05-29T08:55:05.000Z</time>
      </trkpt>
      <trkpt lat="47.43396" lon="6.81776">
        <ele>405</ele>
        <time>2016-05-29T08:55:06.000Z</time>
      </trkpt>
      <trkpt lat="47.43398" lon="6.81776">
        <ele>405</ele>
        <time>2016-05-29T08:55:07.000Z</time>
      </trkpt>
      <trkpt lat="47.43401" lon="6.81776">
        <ele>405</ele>
        <time>2016-05-29T08:55:08.000Z</time>
      </trkpt>
      <trkpt lat="47.43409" lon="6.8177">
        <ele>406</ele>
        <time>2016-05-29T08:55:09.000Z</time>
      </trkpt>
      <trkpt lat="47.43413" lon="6.8177">
        <ele>406</ele>
        <time>2016-05-29T08:55:10.000Z</time>
      </trkpt>
      <trkpt lat="47.43416" lon="6.8177">
        <ele>406</ele>
        <time>2016-05-29T08:55:11.000Z</time>
      </trkpt>
      <trkpt lat="47.43421" lon="6.81769">
        <ele>402</ele>
        <time>2016-05-29T08:55:12.000Z</time>
      </trkpt>
      <trkpt lat="47.43424" lon="6.81772">
        <ele>401</ele>
        <time>2016-05-29T08:55:13.000Z</time>
      </trkpt>
      <trkpt lat="47.4343" lon="6.81775">
        <ele>400</ele>
        <time>2016-05-29T08:55:14.000Z</time>
      </trkpt>
      <trkpt lat="47.43434" lon="6.81776">
        <ele>400</ele>
        <time>2016-05-29T08:55:15.000Z</time>
      </trkpt>
      <trkpt lat="47.43437" lon="6.81776">
        <ele>399</ele>
        <time>2016-05-29T08:55:16.000Z</time>
      </trkpt>
      <trkpt lat="47.43445" lon="6.81777">
        <ele>399</ele>
        <time>2016-05-29T08:55:17.000Z</time>
      </trkpt>
      <trkpt lat="47.4345" lon="6.81778">
        <ele>398</ele>
        <time>2016-05-29T08:55:18.000Z</time>
      </trkpt>
      <trkpt lat="47.43457" lon="6.81783">
        <ele>397</ele>
        <time>2016-05-29T08:55:19.000Z</time>
      </trkpt>
      <trkpt lat="47.43467" lon="6.81786">
        <ele>396</ele>
        <time>2016-05-29T08:55:20.000Z</time>
      </trkpt>
      <trkpt lat="47.43477" lon="6.81788">
        <ele>396</ele>
        <time>2016-05-29T08:55:21.000Z</time>
      </trkpt>
      <trkpt lat="47.43485" lon="6.8179">
        <ele>395</ele>
        <time>2016-05-29T08:55:22.000Z</time>
      </trkpt>
      <trkpt lat="47.4349" lon="6.81792">
        <ele>395</ele>
        <time>2016-05-29T08:55:23.000Z</time>
      </trkpt>
      <trkpt lat="47.43495" lon="6.81793">
        <ele>395</ele>
        <time>2016-05-29T08:55:24.000Z</time>
      </trkpt>
      <trkpt lat="47.435" lon="6.81794">
        <ele>395</ele>
        <time>2016-05-29T08:55:25.000Z</time>
      </trkpt>
      <trkpt lat="47.43504" lon="6.81792">
        <ele>389</ele>
        <time>2016-05-29T08:55:26.000Z</time>
      </trkpt>
      <trkpt lat="47.43506" lon="6.81792">
        <ele>389</ele>
        <time>2016-05-29T08:55:27.000Z</time>
      </trkpt>
      <trkpt lat="47.43509" lon="6.8179">
        <ele>389</ele>
        <time>2016-05-29T08:55:28.000Z</time>
      </trkpt>
      <trkpt lat="47.43514" lon="6.8179">
        <ele>389</ele>
        <time>2016-05-29T08:55:29.000Z</time>
      </trkpt>
      <trkpt lat="47.43518" lon="6.81791">
        <ele>388</ele>
        <time>2016-05-29T08:55:30.000Z</time>
      </trkpt>
      <trkpt lat="47.43521" lon="6.81789">
        <ele>388</ele>
        <time>2016-05-29T08:55:31.000Z</time>
      </trkpt>
      <trkpt lat="47.43524" lon="6.81787">
        <ele>388</ele>
        <time>2016-05-29T08:55:32.000Z</time>
      </trkpt>
      <trkpt lat="47.43527" lon="6.81786">
        <ele>388</ele>
        <time>2016-05-29T08:55:33.000Z</time>
      </trkpt>
      <trkpt lat="47.4353" lon="6.81786">
        <ele>388</ele>
        <time>2016-05-29T08:55:34.000Z</time>
      </trkpt>
      <trkpt lat="47.43533" lon="6.81786">
        <ele>388</ele>
        <time>2016-05-29T08:55:35.000Z</time>
      </trkpt>
      <trkpt lat="47.43535" lon="6.81787">
        <ele>388</ele>
        <time>2016-05-29T08:55:36.000Z</time>
      </trkpt>
      <trkpt lat="47.43538" lon="6.81787">
        <ele>387</ele>
        <time>2016-05-29T08:55:37.000Z</time>
      </trkpt>
      <trkpt lat="47.4354" lon="6.81787">
        <ele>387</ele>
        <time>2016-05-29T08:55:38.000Z</time>
      </trkpt>
      <trkpt lat="47.43543" lon="6.81787">
        <ele>387</ele>
        <time>2016-05-29T08:55:39.000Z</time>
      </trkpt>
      <trkpt lat="47.43546" lon="6.81788">
        <ele>387</ele>
        <time>2016-05-29T08:55:40.000Z</time>
      </trkpt>
      <trkpt lat="47.43548" lon="6.81788">
        <ele>387</ele>
        <time>2016-05-29T08:55:41.000Z</time>
      </trkpt>
      <trkpt lat="47.43551" lon="6.81789">
        <ele>387</ele>
        <time>2016-05-29T08:55:42.000Z</time>
      </trkpt>
      <trkpt lat="47.43555" lon="6.8179">
        <ele>386</ele>
        <time>2016-05-29T08:55:43.000Z</time>
      </trkpt>
      <trkpt lat="47.4356" lon="6.81791">
        <ele>386</ele>
        <time>2016-05-29T08:55:44.000Z</time>
      </trkpt>
      <trkpt lat="47.43563" lon="6.8179">
        <ele>386</ele>
        <time>2016-05-29T08:55:45.000Z</time>
      </trkpt>
      <trkpt lat="47.43567" lon="6.81788">
        <ele>386</ele>
        <time>2016-05-29T08:55:46.000Z</time>
      </trkpt>
      <trkpt lat="47.4357" lon="6.81785">
        <ele>386</ele>
        <time>2016-05-29T08:55:47.000Z</time>
      </trkpt>
      <trkpt lat="47.43573" lon="6.81783">
        <ele>386</ele>
        <time>2016-05-29T08:55:48.000Z</time>
      </trkpt>
      <trkpt lat="47.43576" lon="6.8178">
        <ele>386</ele>
        <time>2016-05-29T08:55:49.000Z</time>
      </trkpt>
      <trkpt lat="47.43579" lon="6.81779">
        <ele>386</ele>
        <time>2016-05-29T08:55:50.000Z</time>
      </trkpt>
      <trkpt lat="47.43581" lon="6.81777">
        <ele>386</ele>
        <time>2016-05-29T08:55:51.000Z</time>
      </trkpt>
      <trkpt lat="47.43584" lon="6.81775">
        <ele>379</ele>
        <time>2016-05-29T08:55:52.000Z</time>
      </trkpt>
      <trkpt lat="47.43587" lon="6.81772">
        <ele>379</ele>
        <time>2016-05-29T08:55:53.000Z</time>
      </trkpt>
      <trkpt lat="47.4359" lon="6.81769">
        <ele>379</ele>
        <time>2016-05-29T08:55:54.000Z</time>
      </trkpt>
      <trkpt lat="47.43593" lon="6.81767">
        <ele>379</ele>
        <time>2016-05-29T08:55:55.000Z</time>
      </trkpt>
      <trkpt lat="47.43596" lon="6.81764">
        <ele>379</ele>
        <time>2016-05-29T08:55:56.000Z</time>
      </trkpt>
      <trkpt lat="47.43598" lon="6.81762">
        <ele>379</ele>
        <time>2016-05-29T08:55:57.000Z</time>
      </trkpt>
      <trkpt lat="47.436" lon="6.8176">
        <ele>379</ele>
        <time>2016-05-29T08:55:58.000Z</time>
      </trkpt>
      <trkpt lat="47.43603" lon="6.81759">
        <ele>379</ele>
        <time>2016-05-29T08:55:59.000Z</time>
      </trkpt>
      <trkpt lat="47.43606" lon="6.81758">
        <ele>378</ele>
        <time>2016-05-29T08:56:00.000Z</time>
      </trkpt>
      <trkpt lat="47.43609" lon="6.81756">
        <ele>378</ele>
        <time>2016-05-29T08:56:01.000Z</time>
      </trkpt>
      <trkpt lat="47.43611" lon="6.81754">
        <ele>377</ele>
        <time>2016-05-29T08:56:02.000Z</time>
      </trkpt>
      <trkpt lat="47.43613" lon="6.81751">
        <ele>377</ele>
        <time>2016-05-29T08:56:03.000Z</time>
      </trkpt>
      <trkpt lat="47.43615" lon="6.81748">
        <ele>378</ele>
        <time>2016-05-29T08:56:04.000Z</time>
      </trkpt>
      <trkpt lat="47.43617" lon="6.81742">
        <ele>378</ele>
        <time>2016-05-29T08:56:06.000Z</time>
      </trkpt>
      <trkpt lat="47.43618" lon="6.81739">
        <ele>378</ele>
        <time>2016-05-29T08:56:07.000Z</time>
      </trkpt>
      <trkpt lat="47.43618" lon="6.81735">
        <ele>377</ele>
        <time>2016-05-29T08:56:08.000Z</time>
      </trkpt>
      <trkpt lat="47.43619" lon="6.81732">
        <ele>377</ele>
        <time>2016-05-29T08:56:09.000Z</time>
      </trkpt>
      <trkpt lat="47.43619" lon="6.81726">
        <ele>377</ele>
        <time>2016-05-29T08:56:11.000Z</time>
      </trkpt>
      <trkpt lat="47.43619" lon="6.81723">
        <ele>377</ele>
        <time>2016-05-29T08:56:12.000Z</time>
      </trkpt>
      <trkpt lat="47.4362" lon="6.81717">
        <ele>377</ele>
        <time>2016-05-29T08:56:14.000Z</time>
      </trkpt>
      <trkpt lat="47.43621" lon="6.81714">
        <ele>377</ele>
        <time>2016-05-29T08:56:15.000Z</time>
      </trkpt>
      <trkpt lat="47.43622" lon="6.8171">
        <ele>377</ele>
        <time>2016-05-29T08:56:16.000Z</time>
      </trkpt>
      <trkpt lat="47.43623" lon="6.81705">
        <ele>377</ele>
        <time>2016-05-29T08:56:17.000Z</time>
      </trkpt>
      <trkpt lat="47.43624" lon="6.81701">
        <ele>377</ele>
        <time>2016-05-29T08:56:18.000Z</time>
      </trkpt>
      <trkpt lat="47.43625" lon="6.81696">
        <ele>377</ele>
        <time>2016-05-29T08:56:19.000Z</time>
      </trkpt>
      <trkpt lat="47.43625" lon="6.81692">
        <ele>377</ele>
        <time>2016-05-29T08:56:20.000Z</time>
      </trkpt>
      <trkpt lat="47.43625" lon="6.81689">
        <ele>377</ele>
        <time>2016-05-29T08:56:21.000Z</time>
      </trkpt>
      <trkpt lat="47.43626" lon="6.81684">
        <ele>377</ele>
        <time>2016-05-29T08:56:22.000Z</time>
      </trkpt>
      <trkpt lat="47.43626" lon="6.81681">
        <ele>377</ele>
        <time>2016-05-29T08:56:23.000Z</time>
      </trkpt>
      <trkpt lat="47.43626" lon="6.81677">
        <ele>377</ele>
        <time>2016-05-29T08:56:24.000Z</time>
      </trkpt>
      <trkpt lat="47.43626" lon="6.81673">
        <ele>377</ele>
        <time>2016-05-29T08:56:25.000Z</time>
      </trkpt>
      <trkpt lat="47.43627" lon="6.81668">
        <ele>377</ele>
        <time>2016-05-29T08:56:26.000Z</time>
      </trkpt>
      <trkpt lat="47.43627" lon="6.81664">
        <ele>378</ele>
        <time>2016-05-29T08:56:27.000Z</time>
      </trkpt>
      <trkpt lat="47.43627" lon="6.81659">
        <ele>378</ele>
        <time>2016-05-29T08:56:28.000Z</time>
      </trkpt>
      <trkpt lat="47.43627" lon="6.81655">
        <ele>378</ele>
        <time>2016-05-29T08:56:29.000Z</time>
      </trkpt>
      <trkpt lat="47.43628" lon="6.81649">
        <ele>378</ele>
        <time>2016-05-29T08:56:31.000Z</time>
      </trkpt>
      <trkpt lat="47.43628" lon="6.81646">
        <ele>378</ele>
        <time>2016-05-29T08:56:32.000Z</time>
      </trkpt>
      <trkpt lat="47.43629" lon="6.81641">
        <ele>378</ele>
        <time>2016-05-29T08:56:34.000Z</time>
      </trkpt>
      <trkpt lat="47.43629" lon="6.81639">
        <ele>378</ele>
        <time>2016-05-29T08:56:35.000Z</time>
      </trkpt>
      <trkpt lat="47.4363" lon="6.81634">
        <ele>378</ele>
        <time>2016-05-29T08:56:38.000Z</time>
      </trkpt>
      <trkpt lat="47.43629" lon="6.81632">
        <ele>378</ele>
        <time>2016-05-29T08:56:39.000Z</time>
      </trkpt>
      <trkpt lat="47.43629" lon="6.81625">
        <ele>378</ele>
        <time>2016-05-29T08:56:52.000Z</time>
      </trkpt>
      <trkpt lat="47.43628" lon="6.81625">
        <ele>378</ele>
        <time>2016-05-29T08:56:53.000Z</time>
      </trkpt>
      <trkpt lat="47.43626" lon="6.81624">
        <ele>378</ele>
        <time>2016-05-29T08:56:58.000Z</time>
      </trkpt>
      <trkpt lat="47.43623" lon="6.81623">
        <ele>378</ele>
        <time>2016-05-29T08:56:59.000Z</time>
      </trkpt>
      <trkpt lat="47.43624" lon="6.81617">
        <ele>378</ele>
        <time>2016-05-29T08:57:37.000Z</time>
      </trkpt>
      <trkpt lat="47.43623" lon="6.81616">
        <ele>378</ele>
        <time>2016-05-29T08:57:38.000Z</time>
      </trkpt>
      <trkpt lat="47.43621" lon="6.81611">
        <ele>379</ele>
        <time>2016-05-29T08:57:41.000Z</time>
      </trkpt>
      <trkpt lat="47.4362" lon="6.81609">
        <ele>379</ele>
        <time>2016-05-29T08:57:42.000Z</time>
      </trkpt>
      <trkpt lat="47.43619" lon="6.81603">
        <ele>379</ele>
        <time>2016-05-29T08:57:45.000Z</time>
      </trkpt>
      <trkpt lat="47.43619" lon="6.816">
        <ele>379</ele>
        <time>2016-05-29T08:57:46.000Z</time>
      </trkpt>
      <trkpt lat="47.43618" lon="6.81594">
        <ele>379</ele>
        <time>2016-05-29T08:57:48.000Z</time>
      </trkpt>
      <trkpt lat="47.43617" lon="6.81591">
        <ele>379</ele>
        <time>2016-05-29T08:57:49.000Z</time>
      </trkpt>
      <trkpt lat="47.43616" lon="6.81586">
        <ele>379</ele>
        <time>2016-05-29T08:57:51.000Z</time>
      </trkpt>
      <trkpt lat="47.43615" lon="6.81584">
        <ele>379</ele>
        <time>2016-05-29T08:57:52.000Z</time>
      </trkpt>
      <trkpt lat="47.43614" lon="6.81578">
        <ele>380</ele>
        <time>2016-05-29T08:57:55.000Z</time>
      </trkpt>
      <trkpt lat="47.43613" lon="6.81576">
        <ele>380</ele>
        <time>2016-05-29T08:57:56.000Z</time>
      </trkpt>
      <trkpt lat="47.43611" lon="6.81571">
        <ele>381</ele>
        <time>2016-05-29T08:57:58.000Z</time>
      </trkpt>
      <trkpt lat="47.43609" lon="6.81568">
        <ele>381</ele>
        <time>2016-05-29T08:57:59.000Z</time>
      </trkpt>
      <trkpt lat="47.43607" lon="6.81565">
        <ele>381</ele>
        <time>2016-05-29T08:58:00.000Z</time>
      </trkpt>
      <trkpt lat="47.43606" lon="6.81562">
        <ele>381</ele>
        <time>2016-05-29T08:58:01.000Z</time>
      </trkpt>
      <trkpt lat="47.43604" lon="6.81559">
        <ele>381</ele>
        <time>2016-05-29T08:58:02.000Z</time>
      </trkpt>
      <trkpt lat="47.43602" lon="6.81555">
        <ele>381</ele>
        <time>2016-05-29T08:58:03.000Z</time>
      </trkpt>
      <trkpt lat="47.436" lon="6.81552">
        <ele>381</ele>
        <time>2016-05-29T08:58:04.000Z</time>
      </trkpt>
      <trkpt lat="47.43598" lon="6.81549">
        <ele>381</ele>
        <time>2016-05-29T08:58:05.000Z</time>
      </trkpt>
      <trkpt lat="47.43596" lon="6.81547">
        <ele>381</ele>
        <time>2016-05-29T08:58:06.000Z</time>
      </trkpt>
      <trkpt lat="47.43594" lon="6.81544">
        <ele>381</ele>
        <time>2016-05-29T08:58:07.000Z</time>
      </trkpt>
      <trkpt lat="47.43591" lon="6.81541">
        <ele>381</ele>
        <time>2016-05-29T08:58:09.000Z</time>
      </trkpt>
      <trkpt lat="47.4359" lon="6.8154">
        <ele>381</ele>
        <time>2016-05-29T08:58:10.000Z</time>
      </trkpt>
      <trkpt lat="47.43588" lon="6.81534">
        <ele>381</ele>
        <time>2016-05-29T08:58:13.000Z</time>
      </trkpt>
      <trkpt lat="47.43587" lon="6.81532">
        <ele>381</ele>
        <time>2016-05-29T08:58:14.000Z</time>
      </trkpt>
      <trkpt lat="47.43586" lon="6.81526">
        <ele>381</ele>
        <time>2016-05-29T08:58:17.000Z</time>
      </trkpt>
      <trkpt lat="47.43586" lon="6.81525">
        <ele>381</ele>
        <time>2016-05-29T08:58:18.000Z</time>
      </trkpt>
      <trkpt lat="47.4359" lon="6.81522">
        <ele>381</ele>
        <time>2016-05-29T08:58:28.000Z</time>
      </trkpt>
      <trkpt lat="47.4359" lon="6.81522">
        <ele>381</ele>
        <time>2016-05-29T08:58:29.000Z</time>
      </trkpt>
      <trkpt lat="47.43594" lon="6.81522">
        <ele>381</ele>
        <time>2016-05-29T08:58:56.000Z</time>
      </trkpt>
      <trkpt lat="47.43595" lon="6.81521">
        <ele>381</ele>
        <time>2016-05-29T08:58:57.000Z</time>
      </trkpt>
      <trkpt lat="47.43599" lon="6.81523">
        <ele>381</ele>
        <time>2016-05-29T08:59:02.000Z</time>
      </trkpt>
      <trkpt lat="47.43599" lon="6.81524">
        <ele>381</ele>
        <time>2016-05-29T08:59:03.000Z</time>
      </trkpt>
      <trkpt lat="47.43603" lon="6.81527">
        <ele>381</ele>
        <time>2016-05-29T08:59:10.000Z</time>
      </trkpt>
      <trkpt lat="47.43603" lon="6.81527">
        <ele>381</ele>
        <time>2016-05-29T08:59:11.000Z</time>
      </trkpt>
      <trkpt lat="47.43607" lon="6.81529">
        <ele>381</ele>
        <time>2016-05-29T08:59:14.000Z</time>
      </trkpt>
      <trkpt lat="47.43609" lon="6.81529">
        <ele>381</ele>
        <time>2016-05-29T08:59:15.000Z</time>
      </trkpt>
      <trkpt lat="47.43611" lon="6.81529">
        <ele>381</ele>
        <time>2016-05-29T08:59:16.000Z</time>
      </trkpt>
      <trkpt lat="47.43613" lon="6.8153">
        <ele>381</ele>
        <time>2016-05-29T08:59:17.000Z</time>
      </trkpt>
      <trkpt lat="47.43616" lon="6.81531">
        <ele>381</ele>
        <time>2016-05-29T08:59:18.000Z</time>
      </trkpt>
      <trkpt lat="47.43618" lon="6.81531">
        <ele>381</ele>
        <time>2016-05-29T08:59:19.000Z</time>
      </trkpt>
      <trkpt lat="47.43622" lon="6.81533">
        <ele>381</ele>
        <time>2016-05-29T08:59:21.000Z</time>
      </trkpt>
      <trkpt lat="47.43623" lon="6.81533">
        <ele>381</ele>
        <time>2016-05-29T08:59:22.000Z</time>
      </trkpt>
      <trkpt lat="47.43626" lon="6.81534">
        <ele>381</ele>
        <time>2016-05-29T08:59:24.000Z</time>
      </trkpt>
      <trkpt lat="47.43628" lon="6.81535">
        <ele>381</ele>
        <time>2016-05-29T08:59:25.000Z</time>
      </trkpt>
      <trkpt lat="47.4363" lon="6.81536">
        <ele>381</ele>
        <time>2016-05-29T08:59:26.000Z</time>
      </trkpt>
      <trkpt lat="47.43632" lon="6.81536">
        <ele>381</ele>
        <time>2016-05-29T08:59:27.000Z</time>
      </trkpt>
      <trkpt lat="47.43634" lon="6.81537">
        <ele>381</ele>
        <time>2016-05-29T08:59:28.000Z</time>
      </trkpt>
      <trkpt lat="47.43637" lon="6.81538">
        <ele>381</ele>
        <time>2016-05-29T08:59:29.000Z</time>
      </trkpt>
      <trkpt lat="47.4364" lon="6.8154">
        <ele>381</ele>
        <time>2016-05-29T08:59:31.000Z</time>
      </trkpt>
      <trkpt lat="47.43641" lon="6.8154">
        <ele>381</ele>
        <time>2016-05-29T08:59:32.000Z</time>
      </trkpt>
      <trkpt lat="47.43645" lon="6.81539">
        <ele>381</ele>
        <time>2016-05-29T08:59:35.000Z</time>
      </trkpt>
      <trkpt lat="47.43646" lon="6.81538">
        <ele>381</ele>
        <time>2016-05-29T08:59:36.000Z</time>
      </trkpt>
      <trkpt lat="47.43645" lon="6.81532">
        <ele>381</ele>
        <time>2016-05-29T08:59:44.000Z</time>
      </trkpt>
      <trkpt lat="47.43646" lon="6.81532">
        <ele>381</ele>
        <time>2016-05-29T08:59:45.000Z</time>
      </trkpt>
      <trkpt lat="47.43649" lon="6.8153">
        <ele>381</ele>
        <time>2016-05-29T08:59:47.000Z</time>
      </trkpt>
      <trkpt lat="47.4365" lon="6.81529">
        <ele>381</ele>
        <time>2016-05-29T08:59:48.000Z</time>
      </trkpt>
      <trkpt lat="47.43653" lon="6.81527">
        <ele>381</ele>
        <time>2016-05-29T08:59:50.000Z</time>
      </trkpt>
      <trkpt lat="47.43654" lon="6.81526">
        <ele>381</ele>
        <time>2016-05-29T08:59:51.000Z</time>
      </trkpt>
      <trkpt lat="47.43656" lon="6.8152">
        <ele>381</ele>
        <time>2016-05-29T08:59:57.000Z</time>
      </trkpt>
      <trkpt lat="47.43657" lon="6.81519">
        <ele>382</ele>
        <time>2016-05-29T08:59:58.000Z</time>
      </trkpt>
      <trkpt lat="47.43656" lon="6.81513">
        <ele>382</ele>
        <time>2016-05-29T09:00:06.000Z</time>
      </trkpt>
      <trkpt lat="47.43655" lon="6.81512">
        <ele>382</ele>
        <time>2016-05-29T09:00:07.000Z</time>
      </trkpt>
      <trkpt lat="47.43653" lon="6.81507">
        <ele>382</ele>
        <time>2016-05-29T09:00:11.000Z</time>
      </trkpt>
      <trkpt lat="47.43652" lon="6.81505">
        <ele>382</ele>
        <time>2016-05-29T09:00:12.000Z</time>
      </trkpt>
      <trkpt lat="47.43649" lon="6.815">
        <ele>382</ele>
        <time>2016-05-29T09:00:20.000Z</time>
      </trkpt>
      <trkpt lat="47.43648" lon="6.815">
        <ele>385</ele>
        <time>2016-05-29T09:00:21.000Z</time>
      </trkpt>
      <trkpt lat="47.43645" lon="6.81497">
        <ele>385</ele>
        <time>2016-05-29T09:00:24.000Z</time>
      </trkpt>
      <trkpt lat="47.43644" lon="6.81496">
        <ele>385</ele>
        <time>2016-05-29T09:00:25.000Z</time>
      </trkpt>
      <trkpt lat="47.4364" lon="6.81493">
        <ele>385</ele>
        <time>2016-05-29T09:00:29.000Z</time>
      </trkpt>
      <trkpt lat="47.43639" lon="6.81492">
        <ele>385</ele>
        <time>2016-05-29T09:00:30.000Z</time>
      </trkpt>
      <trkpt lat="47.43637" lon="6.81489">
        <ele>385</ele>
        <time>2016-05-29T09:00:33.000Z</time>
      </trkpt>
      <trkpt lat="47.43636" lon="6.81487">
        <ele>385</ele>
        <time>2016-05-29T09:00:34.000Z</time>
      </trkpt>
      <trkpt lat="47.43632" lon="6.81484">
        <ele>386</ele>
        <time>2016-05-29T09:00:36.000Z</time>
      </trkpt>
      <trkpt lat="47.4363" lon="6.81482">
        <ele>386</ele>
        <time>2016-05-29T09:00:37.000Z</time>
      </trkpt>
      <trkpt lat="47.43628" lon="6.81479">
        <ele>386</ele>
        <time>2016-05-29T09:00:38.000Z</time>
      </trkpt>
      <trkpt lat="47.43626" lon="6.81477">
        <ele>386</ele>
        <time>2016-05-29T09:00:39.000Z</time>
      </trkpt>
      <trkpt lat="47.43623" lon="6.81473">
        <ele>386</ele>
        <time>2016-05-29T09:00:41.000Z</time>
      </trkpt>
      <trkpt lat="47.43622" lon="6.81472">
        <ele>386</ele>
        <time>2016-05-29T09:00:42.000Z</time>
      </trkpt>
      <trkpt lat="47.43619" lon="6.8147">
        <ele>386</ele>
        <time>2016-05-29T09:00:44.000Z</time>
      </trkpt>
      <trkpt lat="47.43617" lon="6.81469">
        <ele>387</ele>
        <time>2016-05-29T09:00:45.000Z</time>
      </trkpt>
      <trkpt lat="47.43615" lon="6.81464">
        <ele>387</ele>
        <time>2016-05-29T09:00:48.000Z</time>
      </trkpt>
      <trkpt lat="47.43615" lon="6.81463">
        <ele>387</ele>
        <time>2016-05-29T09:00:49.000Z</time>
      </trkpt>
      <trkpt lat="47.43613" lon="6.81458">
        <ele>387</ele>
        <time>2016-05-29T09:00:53.000Z</time>
      </trkpt>
      <trkpt lat="47.43612" lon="6.81457">
        <ele>387</ele>
        <time>2016-05-29T09:00:54.000Z</time>
      </trkpt>
      <trkpt lat="47.43612" lon="6.81451">
        <ele>388</ele>
        <time>2016-05-29T09:00:57.000Z</time>
      </trkpt>
      <trkpt lat="47.43611" lon="6.81449">
        <ele>388</ele>
        <time>2016-05-29T09:00:58.000Z</time>
      </trkpt>
      <trkpt lat="47.43611" lon="6.81444">
        <ele>388</ele>
        <time>2016-05-29T09:01:00.000Z</time>
      </trkpt>
      <trkpt lat="47.43611" lon="6.81442">
        <ele>389</ele>
        <time>2016-05-29T09:01:01.000Z</time>
      </trkpt>
      <trkpt lat="47.43612" lon="6.81436">
        <ele>389</ele>
        <time>2016-05-29T09:01:05.000Z</time>
      </trkpt>
      <trkpt lat="47.43612" lon="6.81435">
        <ele>389</ele>
        <time>2016-05-29T09:01:06.000Z</time>
      </trkpt>
      <trkpt lat="47.43612" lon="6.8143">
        <ele>389</ele>
        <time>2016-05-29T09:01:09.000Z</time>
      </trkpt>
      <trkpt lat="47.43612" lon="6.81428">
        <ele>389</ele>
        <time>2016-05-29T09:01:10.000Z</time>
      </trkpt>
      <trkpt lat="47.43615" lon="6.81424">
        <ele>389</ele>
        <time>2016-05-29T09:01:14.000Z</time>
      </trkpt>
      <trkpt lat="47.43616" lon="6.81423">
        <ele>389</ele>
        <time>2016-05-29T09:01:15.000Z</time>
      </trkpt>
      <trkpt lat="47.43619" lon="6.81418">
        <ele>389</ele>
        <time>2016-05-29T09:01:18.000Z</time>
      </trkpt>
      <trkpt lat="47.43619" lon="6.81416">
        <ele>396</ele>
        <time>2016-05-29T09:01:19.000Z</time>
      </trkpt>
      <trkpt lat="47.43621" lon="6.8141">
        <ele>396</ele>
        <time>2016-05-29T09:01:22.000Z</time>
      </trkpt>
      <trkpt lat="47.43621" lon="6.81407">
        <ele>396</ele>
        <time>2016-05-29T09:01:23.000Z</time>
      </trkpt>
      <trkpt lat="47.43621" lon="6.81401">
        <ele>397</ele>
        <time>2016-05-29T09:01:25.000Z</time>
      </trkpt>
      <trkpt lat="47.43622" lon="6.81398">
        <ele>397</ele>
        <time>2016-05-29T09:01:26.000Z</time>
      </trkpt>
      <trkpt lat="47.43624" lon="6.81391">
        <ele>397</ele>
        <time>2016-05-29T09:01:28.000Z</time>
      </trkpt>
      <trkpt lat="47.43624" lon="6.81388">
        <ele>397</ele>
        <time>2016-05-29T09:01:29.000Z</time>
      </trkpt>
      <trkpt lat="47.43625" lon="6.81385">
        <ele>397</ele>
        <time>2016-05-29T09:01:30.000Z</time>
      </trkpt>
      <trkpt lat="47.43626" lon="6.81382">
        <ele>398</ele>
        <time>2016-05-29T09:01:31.000Z</time>
      </trkpt>
      <trkpt lat="47.43627" lon="6.81379">
        <ele>398</ele>
        <time>2016-05-29T09:01:32.000Z</time>
      </trkpt>
      <trkpt lat="47.43629" lon="6.81376">
        <ele>398</ele>
        <time>2016-05-29T09:01:33.000Z</time>
      </trkpt>
      <trkpt lat="47.43631" lon="6.81371">
        <ele>398</ele>
        <time>2016-05-29T09:01:35.000Z</time>
      </trkpt>
      <trkpt lat="47.43631" lon="6.81368">
        <ele>398</ele>
        <time>2016-05-29T09:01:36.000Z</time>
      </trkpt>
      <trkpt lat="47.43631" lon="6.81365">
        <ele>398</ele>
        <time>2016-05-29T09:01:37.000Z</time>
      </trkpt>
      <trkpt lat="47.43631" lon="6.81362">
        <ele>399</ele>
        <time>2016-05-29T09:01:38.000Z</time>
      </trkpt>
      <trkpt lat="47.43631" lon="6.81358">
        <ele>399</ele>
        <time>2016-05-29T09:01:39.000Z</time>
      </trkpt>
      <trkpt lat="47.4363" lon="6.81354">
        <ele>399</ele>
        <time>2016-05-29T09:01:40.000Z</time>
      </trkpt>
      <trkpt lat="47.43631" lon="6.8135">
        <ele>399</ele>
        <time>2016-05-29T09:01:41.000Z</time>
      </trkpt>
      <trkpt lat="47.43632" lon="6.81347">
        <ele>399</ele>
        <time>2016-05-29T09:01:42.000Z</time>
      </trkpt>
      <trkpt lat="47.43633" lon="6.81344">
        <ele>399</ele>
        <time>2016-05-29T09:01:43.000Z</time>
      </trkpt>
      <trkpt lat="47.43634" lon="6.81341">
        <ele>399</ele>
        <time>2016-05-29T09:01:44.000Z</time>
      </trkpt>
      <trkpt lat="47.43635" lon="6.81338">
        <ele>399</ele>
        <time>2016-05-29T09:01:45.000Z</time>
      </trkpt>
      <trkpt lat="47.43636" lon="6.81334">
        <ele>399</ele>
        <time>2016-05-29T09:01:46.000Z</time>
      </trkpt>
      <trkpt lat="47.43637" lon="6.81331">
        <ele>408</ele>
        <time>2016-05-29T09:01:47.000Z</time>
      </trkpt>
      <trkpt lat="47.43638" lon="6.81327">
        <ele>408</ele>
        <time>2016-05-29T09:01:48.000Z</time>
      </trkpt>
      <trkpt lat="47.43639" lon="6.81323">
        <ele>408</ele>
        <time>2016-05-29T09:01:49.000Z</time>
      </trkpt>
      <trkpt lat="47.4364" lon="6.8132">
        <ele>408</ele>
        <time>2016-05-29T09:01:50.000Z</time>
      </trkpt>
      <trkpt lat="47.43641" lon="6.81315">
        <ele>408</ele>
        <time>2016-05-29T09:01:52.000Z</time>
      </trkpt>
      <trkpt lat="47.43642" lon="6.81313">
        <ele>408</ele>
        <time>2016-05-29T09:01:53.000Z</time>
      </trkpt>
      <trkpt lat="47.43642" lon="6.81309">
        <ele>409</ele>
        <time>2016-05-29T09:01:54.000Z</time>
      </trkpt>
      <trkpt lat="47.43642" lon="6.81306">
        <ele>409</ele>
        <time>2016-05-29T09:01:55.000Z</time>
      </trkpt>
      <trkpt lat="47.43642" lon="6.813">
        <ele>410</ele>
        <time>2016-05-29T09:01:57.001Z</time>
      </trkpt>
      <trkpt lat="47.43643" lon="6.81298">
        <ele>410</ele>
        <time>2016-05-29T09:01:58.000Z</time>
      </trkpt>
      <trkpt lat="47.43645" lon="6.81294">
        <ele>410</ele>
        <time>2016-05-29T09:01:59.999Z</time>
      </trkpt>
      <trkpt lat="47.43648" lon="6.81292">
        <ele>410</ele>
        <time>2016-05-29T09:02:01.000Z</time>
      </trkpt>
      <trkpt lat="47.43649" lon="6.8129">
        <ele>410</ele>
        <time>2016-05-29T09:02:01.999Z</time>
      </trkpt>
      <trkpt lat="47.43651" lon="6.81288">
        <ele>410</ele>
        <time>2016-05-29T09:02:03.000Z</time>
      </trkpt>
      <trkpt lat="47.43653" lon="6.81285">
        <ele>410</ele>
        <time>2016-05-29T09:02:04.000Z</time>
      </trkpt>
      <trkpt lat="47.43655" lon="6.81284">
        <ele>410</ele>
        <time>2016-05-29T09:02:04.999Z</time>
      </trkpt>
      <trkpt lat="47.43657" lon="6.81282">
        <ele>410</ele>
        <time>2016-05-29T09:02:06.000Z</time>
      </trkpt>
      <trkpt lat="47.4366" lon="6.81279">
        <ele>410</ele>
        <time>2016-05-29T09:02:07.000Z</time>
      </trkpt>
      <trkpt lat="47.43663" lon="6.81276">
        <ele>410</ele>
        <time>2016-05-29T09:02:08.000Z</time>
      </trkpt>
      <trkpt lat="47.43665" lon="6.81274">
        <ele>410</ele>
        <time>2016-05-29T09:02:09.000Z</time>
      </trkpt>
      <trkpt lat="47.43667" lon="6.81271">
        <ele>399</ele>
        <time>2016-05-29T09:02:10.000Z</time>
      </trkpt>
      <trkpt lat="47.43669" lon="6.81269">
        <ele>400</ele>
        <time>2016-05-29T09:02:11.000Z</time>
      </trkpt>
      <trkpt lat="47.43671" lon="6.81266">
        <ele>400</ele>
        <time>2016-05-29T09:02:12.000Z</time>
      </trkpt>
      <trkpt lat="47.43672" lon="6.81265">
        <ele>401</ele>
        <time>2016-05-29T09:02:13.000Z</time>
      </trkpt>
      <trkpt lat="47.43674" lon="6.8126">
        <ele>402</ele>
        <time>2016-05-29T09:02:14.000Z</time>
      </trkpt>
      <trkpt lat="47.43676" lon="6.81258">
        <ele>402</ele>
        <time>2016-05-29T09:02:15.000Z</time>
      </trkpt>
      <trkpt lat="47.43679" lon="6.81256">
        <ele>401</ele>
        <time>2016-05-29T09:02:16.000Z</time>
      </trkpt>
      <trkpt lat="47.43681" lon="6.81254">
        <ele>401</ele>
        <time>2016-05-29T09:02:17.000Z</time>
      </trkpt>
      <trkpt lat="47.43683" lon="6.81251">
        <ele>400</ele>
        <time>2016-05-29T09:02:18.000Z</time>
      </trkpt>
      <trkpt lat="47.43685" lon="6.81248">
        <ele>405</ele>
        <time>2016-05-29T09:02:19.000Z</time>
      </trkpt>
      <trkpt lat="47.43687" lon="6.81244">
        <ele>405</ele>
        <time>2016-05-29T09:02:20.000Z</time>
      </trkpt>
      <trkpt lat="47.43688" lon="6.81242">
        <ele>404</ele>
        <time>2016-05-29T09:02:21.000Z</time>
      </trkpt>
      <trkpt lat="47.4369" lon="6.81238">
        <ele>404</ele>
        <time>2016-05-29T09:02:22.000Z</time>
      </trkpt>
      <trkpt lat="47.43691" lon="6.81235">
        <ele>404</ele>
        <time>2016-05-29T09:02:23.000Z</time>
      </trkpt>
      <trkpt lat="47.43693" lon="6.8123">
        <ele>404</ele>
        <time>2016-05-29T09:02:24.000Z</time>
      </trkpt>
      <trkpt lat="47.43694" lon="6.81227">
        <ele>404</ele>
        <time>2016-05-29T09:02:25.001Z</time>
      </trkpt>
      <trkpt lat="47.43695" lon="6.81222">
        <ele>404</ele>
        <time>2016-05-29T09:02:26.000Z</time>
      </trkpt>
      <trkpt lat="47.43697" lon="6.81218">
        <ele>404</ele>
        <time>2016-05-29T09:02:27.000Z</time>
      </trkpt>
      <trkpt lat="47.437" lon="6.81216">
        <ele>403</ele>
        <time>2016-05-29T09:02:28.000Z</time>
      </trkpt>
      <trkpt lat="47.43703" lon="6.81214">
        <ele>403</ele>
        <time>2016-05-29T09:02:29.000Z</time>
      </trkpt>
      <trkpt lat="47.43705" lon="6.81212">
        <ele>403</ele>
        <time>2016-05-29T09:02:30.000Z</time>
      </trkpt>
      <trkpt lat="47.43707" lon="6.81211">
        <ele>403</ele>
        <time>2016-05-29T09:02:31.000Z</time>
      </trkpt>
      <trkpt lat="47.4371" lon="6.81207">
        <ele>402</ele>
        <time>2016-05-29T09:02:33.000Z</time>
      </trkpt>
      <trkpt lat="47.43712" lon="6.81204">
        <ele>402</ele>
        <time>2016-05-29T09:02:34.000Z</time>
      </trkpt>
      <trkpt lat="47.43715" lon="6.812">
        <ele>402</ele>
        <time>2016-05-29T09:02:36.000Z</time>
      </trkpt>
      <trkpt lat="47.43716" lon="6.81198">
        <ele>402</ele>
        <time>2016-05-29T09:02:37.000Z</time>
      </trkpt>
      <trkpt lat="47.43719" lon="6.81194">
        <ele>402</ele>
        <time>2016-05-29T09:02:39.000Z</time>
      </trkpt>
      <trkpt lat="47.43721" lon="6.81192">
        <ele>401</ele>
        <time>2016-05-29T09:02:40.000Z</time>
      </trkpt>
      <trkpt lat="47.43724" lon="6.81189">
        <ele>401</ele>
        <time>2016-05-29T09:02:41.000Z</time>
      </trkpt>
      <trkpt lat="47.43726" lon="6.81186">
        <ele>401</ele>
        <time>2016-05-29T09:02:42.000Z</time>
      </trkpt>
      <trkpt lat="47.43728" lon="6.81183">
        <ele>400</ele>
        <time>2016-05-29T09:02:43.000Z</time>
      </trkpt>
      <trkpt lat="47.4373" lon="6.8118">
        <ele>400</ele>
        <time>2016-05-29T09:02:44.000Z</time>
      </trkpt>
      <trkpt lat="47.43733" lon="6.81177">
        <ele>399</ele>
        <time>2016-05-29T09:02:45.000Z</time>
      </trkpt>
      <trkpt lat="47.43736" lon="6.81175">
        <ele>398</ele>
        <time>2016-05-29T09:02:46.000Z</time>
      </trkpt>
      <trkpt lat="47.43739" lon="6.81172">
        <ele>398</ele>
        <time>2016-05-29T09:02:47.000Z</time>
      </trkpt>
      <trkpt lat="47.43742" lon="6.81169">
        <ele>397</ele>
        <time>2016-05-29T09:02:48.000Z</time>
      </trkpt>
      <trkpt lat="47.43745" lon="6.81165">
        <ele>399</ele>
        <time>2016-05-29T09:02:49.000Z</time>
      </trkpt>
      <trkpt lat="47.43747" lon="6.81161">
        <ele>399</ele>
        <time>2016-05-29T09:02:50.000Z</time>
      </trkpt>
      <trkpt lat="47.43749" lon="6.81157">
        <ele>401</ele>
        <time>2016-05-29T09:02:51.000Z</time>
      </trkpt>
      <trkpt lat="47.43751" lon="6.81153">
        <ele>394</ele>
        <time>2016-05-29T09:02:52.000Z</time>
      </trkpt>
      <trkpt lat="47.43753" lon="6.81149">
        <ele>395</ele>
        <time>2016-05-29T09:02:53.000Z</time>
      </trkpt>
      <trkpt lat="47.43755" lon="6.81144">
        <ele>395</ele>
        <time>2016-05-29T09:02:54.000Z</time>
      </trkpt>
      <trkpt lat="47.43757" lon="6.8114">
        <ele>395</ele>
        <time>2016-05-29T09:02:55.000Z</time>
      </trkpt>
      <trkpt lat="47.4376" lon="6.81135">
        <ele>395</ele>
        <time>2016-05-29T09:02:56.000Z</time>
      </trkpt>
      <trkpt lat="47.43762" lon="6.8113">
        <ele>396</ele>
        <time>2016-05-29T09:02:57.000Z</time>
      </trkpt>
      <trkpt lat="47.43765" lon="6.81125">
        <ele>396</ele>
        <time>2016-05-29T09:02:58.000Z</time>
      </trkpt>
      <trkpt lat="47.43767" lon="6.81121">
        <ele>397</ele>
        <time>2016-05-29T09:02:59.000Z</time>
      </trkpt>
      <trkpt lat="47.43769" lon="6.81118">
        <ele>397</ele>
        <time>2016-05-29T09:03:00.000Z</time>
      </trkpt>
      <trkpt lat="47.43772" lon="6.81114">
        <ele>397</ele>
        <time>2016-05-29T09:03:01.000Z</time>
      </trkpt>
      <trkpt lat="47.43774" lon="6.8111">
        <ele>397</ele>
        <time>2016-05-29T09:03:02.000Z</time>
      </trkpt>
      <trkpt lat="47.43776" lon="6.81107">
        <ele>397</ele>
        <time>2016-05-29T09:03:03.000Z</time>
      </trkpt>
      <trkpt lat="47.43778" lon="6.81103">
        <ele>398</ele>
        <time>2016-05-29T09:03:04.000Z</time>
      </trkpt>
      <trkpt lat="47.4378" lon="6.81098">
        <ele>398</ele>
        <time>2016-05-29T09:03:05.000Z</time>
      </trkpt>
      <trkpt lat="47.43782" lon="6.81092">
        <ele>398</ele>
        <time>2016-05-29T09:03:06.000Z</time>
      </trkpt>
      <trkpt lat="47.43784" lon="6.81087">
        <ele>398</ele>
        <time>2016-05-29T09:03:07.000Z</time>
      </trkpt>
      <trkpt lat="47.43785" lon="6.81082">
        <ele>406</ele>
        <time>2016-05-29T09:03:08.000Z</time>
      </trkpt>
      <trkpt lat="47.43786" lon="6.81077">
        <ele>405</ele>
        <time>2016-05-29T09:03:09.000Z</time>
      </trkpt>
      <trkpt lat="47.43788" lon="6.81071">
        <ele>405</ele>
        <time>2016-05-29T09:03:10.000Z</time>
      </trkpt>
      <trkpt lat="47.43789" lon="6.81066">
        <ele>405</ele>
        <time>2016-05-29T09:03:11.000Z</time>
      </trkpt>
      <trkpt lat="47.43791" lon="6.81061">
        <ele>405</ele>
        <time>2016-05-29T09:03:12.000Z</time>
      </trkpt>
      <trkpt lat="47.43793" lon="6.81058">
        <ele>405</ele>
        <time>2016-05-29T09:03:13.000Z</time>
      </trkpt>
      <trkpt lat="47.43794" lon="6.81055">
        <ele>405</ele>
        <time>2016-05-29T09:03:14.000Z</time>
      </trkpt>
      <trkpt lat="47.43797" lon="6.8105">
        <ele>405</ele>
        <time>2016-05-29T09:03:16.000Z</time>
      </trkpt>
      <trkpt lat="47.43799" lon="6.81047">
        <ele>405</ele>
        <time>2016-05-29T09:03:17.000Z</time>
      </trkpt>
      <trkpt lat="47.43802" lon="6.81045">
        <ele>405</ele>
        <time>2016-05-29T09:03:18.000Z</time>
      </trkpt>
      <trkpt lat="47.43805" lon="6.81042">
        <ele>405</ele>
        <time>2016-05-29T09:03:19.000Z</time>
      </trkpt>
      <trkpt lat="47.43808" lon="6.81039">
        <ele>405</ele>
        <time>2016-05-29T09:03:20.000Z</time>
      </trkpt>
      <trkpt lat="47.43812" lon="6.81037">
        <ele>405</ele>
        <time>2016-05-29T09:03:21.000Z</time>
      </trkpt>
      <trkpt lat="47.43815" lon="6.81035">
        <ele>404</ele>
        <time>2016-05-29T09:03:22.000Z</time>
      </trkpt>
      <trkpt lat="47.43817" lon="6.81034">
        <ele>404</ele>
        <time>2016-05-29T09:03:23.000Z</time>
      </trkpt>
      <trkpt lat="47.43819" lon="6.81032">
        <ele>404</ele>
        <time>2016-05-29T09:03:24.000Z</time>
      </trkpt>
      <trkpt lat="47.43821" lon="6.81031">
        <ele>404</ele>
        <time>2016-05-29T09:03:25.000Z</time>
      </trkpt>
      <trkpt lat="47.43826" lon="6.81031">
        <ele>404</ele>
        <time>2016-05-29T09:03:27.000Z</time>
      </trkpt>
      <trkpt lat="47.43828" lon="6.81032">
        <ele>404</ele>
        <time>2016-05-29T09:03:28.000Z</time>
      </trkpt>
      <trkpt lat="47.43831" lon="6.81033">
        <ele>403</ele>
        <time>2016-05-29T09:03:29.000Z</time>
      </trkpt>
      <trkpt lat="47.43834" lon="6.81033">
        <ele>392</ele>
        <time>2016-05-29T09:03:30.000Z</time>
      </trkpt>
      <trkpt lat="47.43838" lon="6.81032">
        <ele>392</ele>
        <time>2016-05-29T09:03:31.000Z</time>
      </trkpt>
      <trkpt lat="47.43841" lon="6.8103">
        <ele>392</ele>
        <time>2016-05-29T09:03:32.000Z</time>
      </trkpt>
      <trkpt lat="47.43845" lon="6.81027">
        <ele>392</ele>
        <time>2016-05-29T09:03:33.000Z</time>
      </trkpt>
      <trkpt lat="47.43847" lon="6.81024">
        <ele>393</ele>
        <time>2016-05-29T09:03:34.000Z</time>
      </trkpt>
      <trkpt lat="47.4385" lon="6.81021">
        <ele>393</ele>
        <time>2016-05-29T09:03:35.000Z</time>
      </trkpt>
      <trkpt lat="47.43851" lon="6.81017">
        <ele>393</ele>
        <time>2016-05-29T09:03:36.000Z</time>
      </trkpt>
      <trkpt lat="47.43853" lon="6.81014">
        <ele>393</ele>
        <time>2016-05-29T09:03:37.000Z</time>
      </trkpt>
      <trkpt lat="47.43854" lon="6.8101">
        <ele>393</ele>
        <time>2016-05-29T09:03:38.000Z</time>
      </trkpt>
      <trkpt lat="47.43856" lon="6.81007">
        <ele>393</ele>
        <time>2016-05-29T09:03:39.000Z</time>
      </trkpt>
      <trkpt lat="47.43858" lon="6.81004">
        <ele>393</ele>
        <time>2016-05-29T09:03:40.000Z</time>
      </trkpt>
      <trkpt lat="47.4386" lon="6.81">
        <ele>393</ele>
        <time>2016-05-29T09:03:41.000Z</time>
      </trkpt>
      <trkpt lat="47.43862" lon="6.80997">
        <ele>397</ele>
        <time>2016-05-29T09:03:42.000Z</time>
      </trkpt>
      <trkpt lat="47.43865" lon="6.80993">
        <ele>397</ele>
        <time>2016-05-29T09:03:43.000Z</time>
      </trkpt>
      <trkpt lat="47.43867" lon="6.80989">
        <ele>396</ele>
        <time>2016-05-29T09:03:44.000Z</time>
      </trkpt>
      <trkpt lat="47.4387" lon="6.80985">
        <ele>396</ele>
        <time>2016-05-29T09:03:45.000Z</time>
      </trkpt>
      <trkpt lat="47.43872" lon="6.8098">
        <ele>396</ele>
        <time>2016-05-29T09:03:46.000Z</time>
      </trkpt>
      <trkpt lat="47.43875" lon="6.80976">
        <ele>396</ele>
        <time>2016-05-29T09:03:47.000Z</time>
      </trkpt>
      <trkpt lat="47.43877" lon="6.80971">
        <ele>395</ele>
        <time>2016-05-29T09:03:48.000Z</time>
      </trkpt>
      <trkpt lat="47.43879" lon="6.80966">
        <ele>395</ele>
        <time>2016-05-29T09:03:49.000Z</time>
      </trkpt>
      <trkpt lat="47.43881" lon="6.80961">
        <ele>395</ele>
        <time>2016-05-29T09:03:50.000Z</time>
      </trkpt>
      <trkpt lat="47.43884" lon="6.80956">
        <ele>395</ele>
        <time>2016-05-29T09:03:51.000Z</time>
      </trkpt>
      <trkpt lat="47.43886" lon="6.80951">
        <ele>395</ele>
        <time>2016-05-29T09:03:52.000Z</time>
      </trkpt>
      <trkpt lat="47.43888" lon="6.80946">
        <ele>395</ele>
        <time>2016-05-29T09:03:53.000Z</time>
      </trkpt>
      <trkpt lat="47.43891" lon="6.80941">
        <ele>395</ele>
        <time>2016-05-29T09:03:54.000Z</time>
      </trkpt>
      <trkpt lat="47.43893" lon="6.80936">
        <ele>395</ele>
        <time>2016-05-29T09:03:55.000Z</time>
      </trkpt>
      <trkpt lat="47.43895" lon="6.8093">
        <ele>394</ele>
        <time>2016-05-29T09:03:56.000Z</time>
      </trkpt>
      <trkpt lat="47.43896" lon="6.80924">
        <ele>394</ele>
        <time>2016-05-29T09:03:57.000Z</time>
      </trkpt>
      <trkpt lat="47.43898" lon="6.80918">
        <ele>393</ele>
        <time>2016-05-29T09:03:58.000Z</time>
      </trkpt>
      <trkpt lat="47.439" lon="6.80912">
        <ele>396</ele>
        <time>2016-05-29T09:03:59.000Z</time>
      </trkpt>
      <trkpt lat="47.43901" lon="6.80907">
        <ele>396</ele>
        <time>2016-05-29T09:04:00.000Z</time>
      </trkpt>
      <trkpt lat="47.43903" lon="6.80901">
        <ele>396</ele>
        <time>2016-05-29T09:04:01.000Z</time>
      </trkpt>
      <trkpt lat="47.43905" lon="6.80896">
        <ele>397</ele>
        <time>2016-05-29T09:04:02.000Z</time>
      </trkpt>
      <trkpt lat="47.43907" lon="6.80891">
        <ele>397</ele>
        <time>2016-05-29T09:04:03.000Z</time>
      </trkpt>
      <trkpt lat="47.43908" lon="6.80885">
        <ele>398</ele>
        <time>2016-05-29T09:04:04.000Z</time>
      </trkpt>
      <trkpt lat="47.4391" lon="6.80879">
        <ele>398</ele>
        <time>2016-05-29T09:04:05.000Z</time>
      </trkpt>
      <trkpt lat="47.43912" lon="6.80873">
        <ele>398</ele>
        <time>2016-05-29T09:04:06.000Z</time>
      </trkpt>
      <trkpt lat="47.43912" lon="6.80866">
        <ele>398</ele>
        <time>2016-05-29T09:04:07.000Z</time>
      </trkpt>
      <trkpt lat="47.43914" lon="6.80859">
        <ele>398</ele>
        <time>2016-05-29T09:04:08.000Z</time>
      </trkpt>
      <trkpt lat="47.43915" lon="6.80854">
        <ele>398</ele>
        <time>2016-05-29T09:04:09.000Z</time>
      </trkpt>
      <trkpt lat="47.43917" lon="6.80848">
        <ele>391</ele>
        <time>2016-05-29T09:04:10.000Z</time>
      </trkpt>
      <trkpt lat="47.4392" lon="6.80843">
        <ele>392</ele>
        <time>2016-05-29T09:04:11.000Z</time>
      </trkpt>
      <trkpt lat="47.43922" lon="6.80837">
        <ele>392</ele>
        <time>2016-05-29T09:04:12.000Z</time>
      </trkpt>
      <trkpt lat="47.43923" lon="6.80831">
        <ele>393</ele>
        <time>2016-05-29T09:04:13.000Z</time>
      </trkpt>
      <trkpt lat="47.43925" lon="6.80826">
        <ele>392</ele>
        <time>2016-05-29T09:04:14.000Z</time>
      </trkpt>
      <trkpt lat="47.43926" lon="6.80821">
        <ele>392</ele>
        <time>2016-05-29T09:04:15.000Z</time>
      </trkpt>
      <trkpt lat="47.43928" lon="6.80817">
        <ele>392</ele>
        <time>2016-05-29T09:04:16.000Z</time>
      </trkpt>
      <trkpt lat="47.43929" lon="6.80813">
        <ele>391</ele>
        <time>2016-05-29T09:04:17.000Z</time>
      </trkpt>
      <trkpt lat="47.43932" lon="6.80808">
        <ele>391</ele>
        <time>2016-05-29T09:04:18.000Z</time>
      </trkpt>
      <trkpt lat="47.43934" lon="6.80802">
        <ele>391</ele>
        <time>2016-05-29T09:04:19.000Z</time>
      </trkpt>
      <trkpt lat="47.43936" lon="6.80796">
        <ele>391</ele>
        <time>2016-05-29T09:04:20.000Z</time>
      </trkpt>
      <trkpt lat="47.43938" lon="6.8079">
        <ele>391</ele>
        <time>2016-05-29T09:04:21.000Z</time>
      </trkpt>
      <trkpt lat="47.43941" lon="6.80784">
        <ele>391</ele>
        <time>2016-05-29T09:04:22.000Z</time>
      </trkpt>
      <trkpt lat="47.43943" lon="6.80779">
        <ele>391</ele>
        <time>2016-05-29T09:04:23.000Z</time>
      </trkpt>
      <trkpt lat="47.43946" lon="6.80775">
        <ele>391</ele>
        <time>2016-05-29T09:04:24.000Z</time>
      </trkpt>
      <trkpt lat="47.43949" lon="6.80773">
        <ele>391</ele>
        <time>2016-05-29T09:04:25.000Z</time>
      </trkpt>
      <trkpt lat="47.43952" lon="6.80772">
        <ele>390</ele>
        <time>2016-05-29T09:04:26.000Z</time>
      </trkpt>
      <trkpt lat="47.43954" lon="6.8077">
        <ele>390</ele>
        <time>2016-05-29T09:04:27.000Z</time>
      </trkpt>
      <trkpt lat="47.43957" lon="6.80767">
        <ele>390</ele>
        <time>2016-05-29T09:04:28.000Z</time>
      </trkpt>
      <trkpt lat="47.43959" lon="6.80763">
        <ele>390</ele>
        <time>2016-05-29T09:04:29.000Z</time>
      </trkpt>
      <trkpt lat="47.43961" lon="6.80758">
        <ele>390</ele>
        <time>2016-05-29T09:04:30.000Z</time>
      </trkpt>
      <trkpt lat="47.43962" lon="6.80753">
        <ele>389</ele>
        <time>2016-05-29T09:04:31.000Z</time>
      </trkpt>
      <trkpt lat="47.43964" lon="6.80748">
        <ele>390</ele>
        <time>2016-05-29T09:04:32.000Z</time>
      </trkpt>
      <trkpt lat="47.43966" lon="6.80743">
        <ele>390</ele>
        <time>2016-05-29T09:04:33.000Z</time>
      </trkpt>
      <trkpt lat="47.43969" lon="6.80738">
        <ele>390</ele>
        <time>2016-05-29T09:04:34.000Z</time>
      </trkpt>
      <trkpt lat="47.43971" lon="6.80732">
        <ele>390</ele>
        <time>2016-05-29T09:04:35.000Z</time>
      </trkpt>
      <trkpt lat="47.43972" lon="6.80727">
        <ele>390</ele>
        <time>2016-05-29T09:04:36.000Z</time>
      </trkpt>
      <trkpt lat="47.43973" lon="6.80722">
        <ele>390</ele>
        <time>2016-05-29T09:04:37.000Z</time>
      </trkpt>
      <trkpt lat="47.43974" lon="6.80718">
        <ele>390</ele>
        <time>2016-05-29T09:04:38.000Z</time>
      </trkpt>
      <trkpt lat="47.43973" lon="6.80713">
        <ele>390</ele>
        <time>2016-05-29T09:04:39.000Z</time>
      </trkpt>
      <trkpt lat="47.43972" lon="6.80707">
        <ele>390</ele>
        <time>2016-05-29T09:04:40.000Z</time>
      </trkpt>
      <trkpt lat="47.4397" lon="6.80701">
        <ele>391</ele>
        <time>2016-05-29T09:04:41.000Z</time>
      </trkpt>
      <trkpt lat="47.43969" lon="6.80694">
        <ele>391</ele>
        <time>2016-05-29T09:04:42.000Z</time>
      </trkpt>
      <trkpt lat="47.43968" lon="6.80687">
        <ele>391</ele>
        <time>2016-05-29T09:04:43.000Z</time>
      </trkpt>
      <trkpt lat="47.43968" lon="6.8068">
        <ele>391</ele>
        <time>2016-05-29T09:04:44.000Z</time>
      </trkpt>
      <trkpt lat="47.43968" lon="6.80673">
        <ele>391</ele>
        <time>2016-05-29T09:04:45.000Z</time>
      </trkpt>
      <trkpt lat="47.43969" lon="6.80668">
        <ele>391</ele>
        <time>2016-05-29T09:04:46.000Z</time>
      </trkpt>
      <trkpt lat="47.4397" lon="6.80662">
        <ele>391</ele>
        <time>2016-05-29T09:04:47.000Z</time>
      </trkpt>
      <trkpt lat="47.43972" lon="6.80657">
        <ele>391</ele>
        <time>2016-05-29T09:04:48.000Z</time>
      </trkpt>
      <trkpt lat="47.43974" lon="6.80653">
        <ele>391</ele>
        <time>2016-05-29T09:04:49.000Z</time>
      </trkpt>
      <trkpt lat="47.43975" lon="6.80649">
        <ele>391</ele>
        <time>2016-05-29T09:04:50.000Z</time>
      </trkpt>
      <trkpt lat="47.43977" lon="6.80646">
        <ele>390</ele>
        <time>2016-05-29T09:04:51.000Z</time>
      </trkpt>
      <trkpt lat="47.4398" lon="6.80643">
        <ele>390</ele>
        <time>2016-05-29T09:04:52.000Z</time>
      </trkpt>
      <trkpt lat="47.43982" lon="6.8064">
        <ele>390</ele>
        <time>2016-05-29T09:04:53.001Z</time>
      </trkpt>
      <trkpt lat="47.43984" lon="6.80636">
        <ele>390</ele>
        <time>2016-05-29T09:04:54.000Z</time>
      </trkpt>
      <trkpt lat="47.43985" lon="6.80631">
        <ele>390</ele>
        <time>2016-05-29T09:04:55.000Z</time>
      </trkpt>
      <trkpt lat="47.43987" lon="6.80626">
        <ele>390</ele>
        <time>2016-05-29T09:04:56.000Z</time>
      </trkpt>
      <trkpt lat="47.43988" lon="6.80619">
        <ele>390</ele>
        <time>2016-05-29T09:04:57.000Z</time>
      </trkpt>
      <trkpt lat="47.43989" lon="6.80615">
        <ele>390</ele>
        <time>2016-05-29T09:04:58.001Z</time>
      </trkpt>
      <trkpt lat="47.43991" lon="6.80608">
        <ele>390</ele>
        <time>2016-05-29T09:04:59.001Z</time>
      </trkpt>
      <trkpt lat="47.43992" lon="6.80599">
        <ele>389</ele>
        <time>2016-05-29T09:05:00.000Z</time>
      </trkpt>
      <trkpt lat="47.43992" lon="6.80593">
        <ele>389</ele>
        <time>2016-05-29T09:05:01.000Z</time>
      </trkpt>
      <trkpt lat="47.43991" lon="6.80586">
        <ele>388</ele>
        <time>2016-05-29T09:05:02.000Z</time>
      </trkpt>
      <trkpt lat="47.4399" lon="6.8058">
        <ele>389</ele>
        <time>2016-05-29T09:05:03.000Z</time>
      </trkpt>
      <trkpt lat="47.43986" lon="6.80563">
        <ele>390</ele>
        <time>2016-05-29T09:05:04.000Z</time>
      </trkpt>
      <trkpt lat="47.43984" lon="6.80556">
        <ele>390</ele>
        <time>2016-05-29T09:05:05.000Z</time>
      </trkpt>
      <trkpt lat="47.43983" lon="6.80548">
        <ele>390</ele>
        <time>2016-05-29T09:05:06.000Z</time>
      </trkpt>
      <trkpt lat="47.43982" lon="6.80541">
        <ele>391</ele>
        <time>2016-05-29T09:05:07.000Z</time>
      </trkpt>
      <trkpt lat="47.43981" lon="6.80535">
        <ele>391</ele>
        <time>2016-05-29T09:05:08.000Z</time>
      </trkpt>
      <trkpt lat="47.4398" lon="6.80532">
        <ele>391</ele>
        <time>2016-05-29T09:05:09.000Z</time>
      </trkpt>
      <trkpt lat="47.43977" lon="6.8053">
        <ele>391</ele>
        <time>2016-05-29T09:05:11.000Z</time>
      </trkpt>
      <trkpt lat="47.4398" lon="6.80521">
        <ele>391</ele>
        <time>2016-05-29T09:05:12.000Z</time>
      </trkpt>
      <trkpt lat="47.43978" lon="6.80517">
        <ele>391</ele>
        <time>2016-05-29T09:05:13.000Z</time>
      </trkpt>
      <trkpt lat="47.43978" lon="6.80513">
        <ele>391</ele>
        <time>2016-05-29T09:05:14.000Z</time>
      </trkpt>
      <trkpt lat="47.43979" lon="6.80507">
        <ele>390</ele>
        <time>2016-05-29T09:05:16.000Z</time>
      </trkpt>
      <trkpt lat="47.43983" lon="6.80508">
        <ele>390</ele>
        <time>2016-05-29T09:05:17.000Z</time>
      </trkpt>
      <trkpt lat="47.43985" lon="6.80504">
        <ele>390</ele>
        <time>2016-05-29T09:05:20.000Z</time>
      </trkpt>
      <trkpt lat="47.43986" lon="6.805">
        <ele>393</ele>
        <time>2016-05-29T09:05:21.000Z</time>
      </trkpt>
      <trkpt lat="47.43989" lon="6.80494">
        <ele>393</ele>
        <time>2016-05-29T09:05:24.000Z</time>
      </trkpt>
      <trkpt lat="47.43989" lon="6.80493">
        <ele>393</ele>
        <time>2016-05-29T09:05:25.000Z</time>
      </trkpt>
      <trkpt lat="47.43991" lon="6.80488">
        <ele>394</ele>
        <time>2016-05-29T09:05:29.000Z</time>
      </trkpt>
      <trkpt lat="47.43992" lon="6.80487">
        <ele>394</ele>
        <time>2016-05-29T09:05:30.000Z</time>
      </trkpt>
      <trkpt lat="47.43994" lon="6.80481">
        <ele>395</ele>
        <time>2016-05-29T09:05:36.000Z</time>
      </trkpt>
      <trkpt lat="47.43994" lon="6.80481">
        <ele>395</ele>
        <time>2016-05-29T09:05:37.000Z</time>
      </trkpt>
      <trkpt lat="47.43997" lon="6.80477">
        <ele>396</ele>
        <time>2016-05-29T09:05:44.000Z</time>
      </trkpt>
      <trkpt lat="47.43999" lon="6.80476">
        <ele>396</ele>
        <time>2016-05-29T09:05:45.000Z</time>
      </trkpt>
      <trkpt lat="47.44002" lon="6.80474">
        <ele>390</ele>
        <time>2016-05-29T09:05:47.000Z</time>
      </trkpt>
      <trkpt lat="47.44003" lon="6.80473">
        <ele>390</ele>
        <time>2016-05-29T09:05:48.000Z</time>
      </trkpt>
      <trkpt lat="47.44006" lon="6.80471">
        <ele>391</ele>
        <time>2016-05-29T09:05:49.000Z</time>
      </trkpt>
      <trkpt lat="47.44008" lon="6.80469">
        <ele>391</ele>
        <time>2016-05-29T09:05:50.000Z</time>
      </trkpt>
      <trkpt lat="47.44011" lon="6.80467">
        <ele>391</ele>
        <time>2016-05-29T09:05:51.000Z</time>
      </trkpt>
      <trkpt lat="47.44013" lon="6.80465">
        <ele>391</ele>
        <time>2016-05-29T09:05:52.000Z</time>
      </trkpt>
      <trkpt lat="47.44016" lon="6.80462">
        <ele>391</ele>
        <time>2016-05-29T09:05:53.000Z</time>
      </trkpt>
      <trkpt lat="47.44019" lon="6.80459">
        <ele>391</ele>
        <time>2016-05-29T09:05:54.000Z</time>
      </trkpt>
      <trkpt lat="47.44021" lon="6.80456">
        <ele>391</ele>
        <time>2016-05-29T09:05:55.000Z</time>
      </trkpt>
      <trkpt lat="47.44024" lon="6.80453">
        <ele>391</ele>
        <time>2016-05-29T09:05:56.000Z</time>
      </trkpt>
      <trkpt lat="47.44027" lon="6.8045">
        <ele>391</ele>
        <time>2016-05-29T09:05:57.000Z</time>
      </trkpt>
      <trkpt lat="47.4403" lon="6.80447">
        <ele>391</ele>
        <time>2016-05-29T09:05:58.000Z</time>
      </trkpt>
      <trkpt lat="47.44032" lon="6.80444">
        <ele>391</ele>
        <time>2016-05-29T09:05:59.000Z</time>
      </trkpt>
      <trkpt lat="47.44035" lon="6.80441">
        <ele>391</ele>
        <time>2016-05-29T09:06:00.000Z</time>
      </trkpt>
      <trkpt lat="47.44044" lon="6.80432">
        <ele>391</ele>
        <time>2016-05-29T09:06:01.000Z</time>
      </trkpt>
      <trkpt lat="47.44046" lon="6.80428">
        <ele>390</ele>
        <time>2016-05-29T09:06:02.000Z</time>
      </trkpt>
      <trkpt lat="47.44049" lon="6.80422">
        <ele>390</ele>
        <time>2016-05-29T09:06:03.000Z</time>
      </trkpt>
      <trkpt lat="47.44051" lon="6.8042">
        <ele>390</ele>
        <time>2016-05-29T09:06:04.000Z</time>
      </trkpt>
      <trkpt lat="47.44054" lon="6.80418">
        <ele>390</ele>
        <time>2016-05-29T09:06:05.000Z</time>
      </trkpt>
      <trkpt lat="47.44055" lon="6.80417">
        <ele>394</ele>
        <time>2016-05-29T09:06:06.000Z</time>
      </trkpt>
      <trkpt lat="47.44058" lon="6.8041">
        <ele>394</ele>
        <time>2016-05-29T09:06:07.000Z</time>
      </trkpt>
      <trkpt lat="47.4406" lon="6.8041">
        <ele>393</ele>
        <time>2016-05-29T09:06:08.000Z</time>
      </trkpt>
      <trkpt lat="47.44063" lon="6.80404">
        <ele>393</ele>
        <time>2016-05-29T09:06:09.000Z</time>
      </trkpt>
      <trkpt lat="47.44066" lon="6.80398">
        <ele>393</ele>
        <time>2016-05-29T09:06:10.000Z</time>
      </trkpt>
      <trkpt lat="47.44068" lon="6.80395">
        <ele>393</ele>
        <time>2016-05-29T09:06:11.000Z</time>
      </trkpt>
      <trkpt lat="47.44069" lon="6.8039">
        <ele>394</ele>
        <time>2016-05-29T09:06:12.000Z</time>
      </trkpt>
      <trkpt lat="47.4407" lon="6.80385">
        <ele>394</ele>
        <time>2016-05-29T09:06:13.000Z</time>
      </trkpt>
      <trkpt lat="47.4407" lon="6.8038">
        <ele>394</ele>
        <time>2016-05-29T09:06:14.000Z</time>
      </trkpt>
      <trkpt lat="47.44072" lon="6.80376">
        <ele>394</ele>
        <time>2016-05-29T09:06:15.000Z</time>
      </trkpt>
      <trkpt lat="47.44073" lon="6.80372">
        <ele>395</ele>
        <time>2016-05-29T09:06:16.000Z</time>
      </trkpt>
      <trkpt lat="47.44075" lon="6.80369">
        <ele>394</ele>
        <time>2016-05-29T09:06:17.000Z</time>
      </trkpt>
      <trkpt lat="47.44077" lon="6.80367">
        <ele>394</ele>
        <time>2016-05-29T09:06:18.000Z</time>
      </trkpt>
      <trkpt lat="47.44081" lon="6.80363">
        <ele>394</ele>
        <time>2016-05-29T09:06:21.000Z</time>
      </trkpt>
      <trkpt lat="47.44082" lon="6.80362">
        <ele>394</ele>
        <time>2016-05-29T09:06:22.000Z</time>
      </trkpt>
      <trkpt lat="47.44085" lon="6.80359">
        <ele>387</ele>
        <time>2016-05-29T09:06:24.000Z</time>
      </trkpt>
      <trkpt lat="47.44085" lon="6.80356">
        <ele>387</ele>
        <time>2016-05-29T09:06:25.000Z</time>
      </trkpt>
      <trkpt lat="47.44086" lon="6.80352">
        <ele>387</ele>
        <time>2016-05-29T09:06:26.000Z</time>
      </trkpt>
      <trkpt lat="47.44087" lon="6.80348">
        <ele>388</ele>
        <time>2016-05-29T09:06:27.000Z</time>
      </trkpt>
      <trkpt lat="47.44087" lon="6.80345">
        <ele>388</ele>
        <time>2016-05-29T09:06:28.000Z</time>
      </trkpt>
      <trkpt lat="47.44088" lon="6.80341">
        <ele>389</ele>
        <time>2016-05-29T09:06:29.000Z</time>
      </trkpt>
      <trkpt lat="47.44089" lon="6.80338">
        <ele>389</ele>
        <time>2016-05-29T09:06:30.000Z</time>
      </trkpt>
      <trkpt lat="47.4409" lon="6.80334">
        <ele>389</ele>
        <time>2016-05-29T09:06:31.000Z</time>
      </trkpt>
      <trkpt lat="47.44091" lon="6.80329">
        <ele>390</ele>
        <time>2016-05-29T09:06:33.000Z</time>
      </trkpt>
      <trkpt lat="47.44092" lon="6.80326">
        <ele>390</ele>
        <time>2016-05-29T09:06:34.000Z</time>
      </trkpt>
      <trkpt lat="47.44095" lon="6.80321">
        <ele>390</ele>
        <time>2016-05-29T09:06:36.000Z</time>
      </trkpt>
      <trkpt lat="47.44097" lon="6.80319">
        <ele>390</ele>
        <time>2016-05-29T09:06:37.000Z</time>
      </trkpt>
      <trkpt lat="47.44098" lon="6.80316">
        <ele>390</ele>
        <time>2016-05-29T09:06:38.000Z</time>
      </trkpt>
      <trkpt lat="47.441" lon="6.80313">
        <ele>390</ele>
        <time>2016-05-29T09:06:39.000Z</time>
      </trkpt>
      <trkpt lat="47.44101" lon="6.80308">
        <ele>390</ele>
        <time>2016-05-29T09:06:40.000Z</time>
      </trkpt>
      <trkpt lat="47.44103" lon="6.80303">
        <ele>390</ele>
        <time>2016-05-29T09:06:41.000Z</time>
      </trkpt>
      <trkpt lat="47.44104" lon="6.80297">
        <ele>390</ele>
        <time>2016-05-29T09:06:42.000Z</time>
      </trkpt>
      <trkpt lat="47.44105" lon="6.80292">
        <ele>390</ele>
        <time>2016-05-29T09:06:43.000Z</time>
      </trkpt>
      <trkpt lat="47.44106" lon="6.80287">
        <ele>391</ele>
        <time>2016-05-29T09:06:44.000Z</time>
      </trkpt>
      <trkpt lat="47.44107" lon="6.80283">
        <ele>391</ele>
        <time>2016-05-29T09:06:45.000Z</time>
      </trkpt>
      <trkpt lat="47.44109" lon="6.80279">
        <ele>391</ele>
        <time>2016-05-29T09:06:46.000Z</time>
      </trkpt>
      <trkpt lat="47.44111" lon="6.80276">
        <ele>391</ele>
        <time>2016-05-29T09:06:47.000Z</time>
      </trkpt>
      <trkpt lat="47.44113" lon="6.80273">
        <ele>391</ele>
        <time>2016-05-29T09:06:48.000Z</time>
      </trkpt>
      <trkpt lat="47.44115" lon="6.80271">
        <ele>391</ele>
        <time>2016-05-29T09:06:49.000Z</time>
      </trkpt>
      <trkpt lat="47.44118" lon="6.80269">
        <ele>391</ele>
        <time>2016-05-29T09:06:50.000Z</time>
      </trkpt>
      <trkpt lat="47.44132" lon="6.80272">
        <ele>390</ele>
        <time>2016-05-29T09:06:52.000Z</time>
      </trkpt>
      <trkpt lat="47.44137" lon="6.80275">
        <ele>390</ele>
        <time>2016-05-29T09:06:53.000Z</time>
      </trkpt>
      <trkpt lat="47.44141" lon="6.80276">
        <ele>389</ele>
        <time>2016-05-29T09:06:54.000Z</time>
      </trkpt>
      <trkpt lat="47.44147" lon="6.80277">
        <ele>389</ele>
        <time>2016-05-29T09:06:55.000Z</time>
      </trkpt>
      <trkpt lat="47.44153" lon="6.8028">
        <ele>389</ele>
        <time>2016-05-29T09:06:56.000Z</time>
      </trkpt>
      <trkpt lat="47.44161" lon="6.80286">
        <ele>388</ele>
        <time>2016-05-29T09:06:57.000Z</time>
      </trkpt>
      <trkpt lat="47.44169" lon="6.80287">
        <ele>384</ele>
        <time>2016-05-29T09:06:58.000Z</time>
      </trkpt>
      <trkpt lat="47.44176" lon="6.80292">
        <ele>384</ele>
        <time>2016-05-29T09:06:59.000Z</time>
      </trkpt>
      <trkpt lat="47.44183" lon="6.80295">
        <ele>383</ele>
        <time>2016-05-29T09:07:00.000Z</time>
      </trkpt>
      <trkpt lat="47.44188" lon="6.80299">
        <ele>383</ele>
        <time>2016-05-29T09:07:01.000Z</time>
      </trkpt>
      <trkpt lat="47.44194" lon="6.80301">
        <ele>383</ele>
        <time>2016-05-29T09:07:02.000Z</time>
      </trkpt>
      <trkpt lat="47.442" lon="6.80299">
        <ele>382</ele>
        <time>2016-05-29T09:07:03.000Z</time>
      </trkpt>
      <trkpt lat="47.44207" lon="6.80296">
        <ele>382</ele>
        <time>2016-05-29T09:07:04.000Z</time>
      </trkpt>
      <trkpt lat="47.44212" lon="6.80294">
        <ele>382</ele>
        <time>2016-05-29T09:07:05.000Z</time>
      </trkpt>
      <trkpt lat="47.44215" lon="6.80292">
        <ele>382</ele>
        <time>2016-05-29T09:07:06.000Z</time>
      </trkpt>
      <trkpt lat="47.44219" lon="6.80283">
        <ele>382</ele>
        <time>2016-05-29T09:07:07.000Z</time>
      </trkpt>
      <trkpt lat="47.44222" lon="6.8028">
        <ele>383</ele>
        <time>2016-05-29T09:07:08.000Z</time>
      </trkpt>
      <trkpt lat="47.44225" lon="6.80279">
        <ele>382</ele>
        <time>2016-05-29T09:07:09.000Z</time>
      </trkpt>
      <trkpt lat="47.44229" lon="6.80279">
        <ele>382</ele>
        <time>2016-05-29T09:07:10.000Z</time>
      </trkpt>
      <trkpt lat="47.44234" lon="6.80277">
        <ele>382</ele>
        <time>2016-05-29T09:07:11.000Z</time>
      </trkpt>
      <trkpt lat="47.44238" lon="6.80277">
        <ele>382</ele>
        <time>2016-05-29T09:07:12.000Z</time>
      </trkpt>
      <trkpt lat="47.44241" lon="6.80276">
        <ele>382</ele>
        <time>2016-05-29T09:07:13.000Z</time>
      </trkpt>
      <trkpt lat="47.44245" lon="6.80274">
        <ele>382</ele>
        <time>2016-05-29T09:07:15.000Z</time>
      </trkpt>
      <trkpt lat="47.44248" lon="6.80275">
        <ele>382</ele>
        <time>2016-05-29T09:07:16.000Z</time>
      </trkpt>
      <trkpt lat="47.44251" lon="6.80275">
        <ele>379</ele>
        <time>2016-05-29T09:07:17.000Z</time>
      </trkpt>
      <trkpt lat="47.44254" lon="6.80276">
        <ele>379</ele>
        <time>2016-05-29T09:07:18.000Z</time>
      </trkpt>
      <trkpt lat="47.44257" lon="6.80276">
        <ele>379</ele>
        <time>2016-05-29T09:07:19.000Z</time>
      </trkpt>
      <trkpt lat="47.4426" lon="6.80275">
        <ele>379</ele>
        <time>2016-05-29T09:07:20.000Z</time>
      </trkpt>
      <trkpt lat="47.44262" lon="6.80274">
        <ele>379</ele>
        <time>2016-05-29T09:07:21.000Z</time>
      </trkpt>
      <trkpt lat="47.44265" lon="6.80271">
        <ele>379</ele>
        <time>2016-05-29T09:07:22.000Z</time>
      </trkpt>
      <trkpt lat="47.44266" lon="6.80268">
        <ele>379</ele>
        <time>2016-05-29T09:07:23.000Z</time>
      </trkpt>
      <trkpt lat="47.44268" lon="6.80264">
        <ele>379</ele>
        <time>2016-05-29T09:07:24.000Z</time>
      </trkpt>
      <trkpt lat="47.44269" lon="6.8026">
        <ele>379</ele>
        <time>2016-05-29T09:07:25.000Z</time>
      </trkpt>
      <trkpt lat="47.44271" lon="6.80255">
        <ele>379</ele>
        <time>2016-05-29T09:07:26.000Z</time>
      </trkpt>
      <trkpt lat="47.44272" lon="6.80251">
        <ele>379</ele>
        <time>2016-05-29T09:07:27.000Z</time>
      </trkpt>
      <trkpt lat="47.44274" lon="6.80246">
        <ele>382</ele>
        <time>2016-05-29T09:07:28.000Z</time>
      </trkpt>
      <trkpt lat="47.44275" lon="6.80242">
        <ele>382</ele>
        <time>2016-05-29T09:07:29.000Z</time>
      </trkpt>
      <trkpt lat="47.44276" lon="6.80238">
        <ele>382</ele>
        <time>2016-05-29T09:07:30.000Z</time>
      </trkpt>
      <trkpt lat="47.44278" lon="6.80235">
        <ele>382</ele>
        <time>2016-05-29T09:07:31.000Z</time>
      </trkpt>
      <trkpt lat="47.44279" lon="6.80232">
        <ele>382</ele>
        <time>2016-05-29T09:07:32.000Z</time>
      </trkpt>
      <trkpt lat="47.44281" lon="6.80228">
        <ele>382</ele>
        <time>2016-05-29T09:07:33.000Z</time>
      </trkpt>
      <trkpt lat="47.44283" lon="6.80224">
        <ele>382</ele>
        <time>2016-05-29T09:07:34.000Z</time>
      </trkpt>
      <trkpt lat="47.44284" lon="6.8022">
        <ele>382</ele>
        <time>2016-05-29T09:07:35.000Z</time>
      </trkpt>
      <trkpt lat="47.44286" lon="6.80216">
        <ele>382</ele>
        <time>2016-05-29T09:07:36.000Z</time>
      </trkpt>
      <trkpt lat="47.44287" lon="6.80211">
        <ele>382</ele>
        <time>2016-05-29T09:07:37.000Z</time>
      </trkpt>
      <trkpt lat="47.44289" lon="6.80207">
        <ele>382</ele>
        <time>2016-05-29T09:07:38.000Z</time>
      </trkpt>
      <trkpt lat="47.4429" lon="6.80203">
        <ele>382</ele>
        <time>2016-05-29T09:07:39.000Z</time>
      </trkpt>
      <trkpt lat="47.44292" lon="6.80199">
        <ele>382</ele>
        <time>2016-05-29T09:07:40.000Z</time>
      </trkpt>
      <trkpt lat="47.44295" lon="6.80195">
        <ele>382</ele>
        <time>2016-05-29T09:07:41.000Z</time>
      </trkpt>
      <trkpt lat="47.44297" lon="6.8019">
        <ele>382</ele>
        <time>2016-05-29T09:07:42.000Z</time>
      </trkpt>
      <trkpt lat="47.44299" lon="6.80185">
        <ele>382</ele>
        <time>2016-05-29T09:07:43.000Z</time>
      </trkpt>
      <trkpt lat="47.44302" lon="6.8018">
        <ele>381</ele>
        <time>2016-05-29T09:07:44.000Z</time>
      </trkpt>
      <trkpt lat="47.44304" lon="6.80174">
        <ele>381</ele>
        <time>2016-05-29T09:07:45.000Z</time>
      </trkpt>
      <trkpt lat="47.44307" lon="6.80168">
        <ele>381</ele>
        <time>2016-05-29T09:07:46.000Z</time>
      </trkpt>
      <trkpt lat="47.4431" lon="6.80162">
        <ele>383</ele>
        <time>2016-05-29T09:07:47.000Z</time>
      </trkpt>
      <trkpt lat="47.44313" lon="6.80156">
        <ele>383</ele>
        <time>2016-05-29T09:07:48.000Z</time>
      </trkpt>
      <trkpt lat="47.44315" lon="6.80151">
        <ele>383</ele>
        <time>2016-05-29T09:07:49.000Z</time>
      </trkpt>
      <trkpt lat="47.44317" lon="6.80145">
        <ele>383</ele>
        <time>2016-05-29T09:07:50.000Z</time>
      </trkpt>
      <trkpt lat="47.44319" lon="6.8014">
        <ele>384</ele>
        <time>2016-05-29T09:07:51.000Z</time>
      </trkpt>
      <trkpt lat="47.44321" lon="6.80134">
        <ele>384</ele>
        <time>2016-05-29T09:07:52.000Z</time>
      </trkpt>
      <trkpt lat="47.44322" lon="6.80129">
        <ele>384</ele>
        <time>2016-05-29T09:07:53.000Z</time>
      </trkpt>
      <trkpt lat="47.44324" lon="6.80124">
        <ele>384</ele>
        <time>2016-05-29T09:07:54.000Z</time>
      </trkpt>
      <trkpt lat="47.44325" lon="6.80119">
        <ele>384</ele>
        <time>2016-05-29T09:07:55.000Z</time>
      </trkpt>
      <trkpt lat="47.44326" lon="6.80114">
        <ele>384</ele>
        <time>2016-05-29T09:07:56.000Z</time>
      </trkpt>
      <trkpt lat="47.44327" lon="6.80108">
        <ele>384</ele>
        <time>2016-05-29T09:07:57.000Z</time>
      </trkpt>
      <trkpt lat="47.44328" lon="6.80101">
        <ele>383</ele>
        <time>2016-05-29T09:07:58.000Z</time>
      </trkpt>
      <trkpt lat="47.44329" lon="6.80095">
        <ele>383</ele>
        <time>2016-05-29T09:07:59.000Z</time>
      </trkpt>
      <trkpt lat="47.44331" lon="6.80088">
        <ele>382</ele>
        <time>2016-05-29T09:08:00.000Z</time>
      </trkpt>
      <trkpt lat="47.44332" lon="6.80082">
        <ele>382</ele>
        <time>2016-05-29T09:08:01.000Z</time>
      </trkpt>
      <trkpt lat="47.44333" lon="6.80076">
        <ele>384</ele>
        <time>2016-05-29T09:08:02.000Z</time>
      </trkpt>
      <trkpt lat="47.44334" lon="6.8007">
        <ele>379</ele>
        <time>2016-05-29T09:08:03.000Z</time>
      </trkpt>
      <trkpt lat="47.44335" lon="6.80064">
        <ele>379</ele>
        <time>2016-05-29T09:08:04.000Z</time>
      </trkpt>
      <trkpt lat="47.44336" lon="6.80057">
        <ele>378</ele>
        <time>2016-05-29T09:08:05.000Z</time>
      </trkpt>
      <trkpt lat="47.44338" lon="6.80049">
        <ele>378</ele>
        <time>2016-05-29T09:08:06.000Z</time>
      </trkpt>
      <trkpt lat="47.44339" lon="6.80043">
        <ele>378</ele>
        <time>2016-05-29T09:08:07.000Z</time>
      </trkpt>
      <trkpt lat="47.4434" lon="6.80038">
        <ele>378</ele>
        <time>2016-05-29T09:08:08.000Z</time>
      </trkpt>
      <trkpt lat="47.44341" lon="6.80033">
        <ele>378</ele>
        <time>2016-05-29T09:08:09.000Z</time>
      </trkpt>
      <trkpt lat="47.44342" lon="6.80028">
        <ele>379</ele>
        <time>2016-05-29T09:08:10.000Z</time>
      </trkpt>
      <trkpt lat="47.44343" lon="6.80024">
        <ele>379</ele>
        <time>2016-05-29T09:08:11.000Z</time>
      </trkpt>
      <trkpt lat="47.44344" lon="6.80018">
        <ele>380</ele>
        <time>2016-05-29T09:08:12.000Z</time>
      </trkpt>
      <trkpt lat="47.44345" lon="6.8001">
        <ele>380</ele>
        <time>2016-05-29T09:08:13.000Z</time>
      </trkpt>
      <trkpt lat="47.44347" lon="6.80004">
        <ele>380</ele>
        <time>2016-05-29T09:08:14.000Z</time>
      </trkpt>
      <trkpt lat="47.4435" lon="6.79997">
        <ele>382</ele>
        <time>2016-05-29T09:08:15.000Z</time>
      </trkpt>
      <trkpt lat="47.44352" lon="6.79991">
        <ele>382</ele>
        <time>2016-05-29T09:08:16.000Z</time>
      </trkpt>
      <trkpt lat="47.44354" lon="6.79986">
        <ele>381</ele>
        <time>2016-05-29T09:08:17.000Z</time>
      </trkpt>
      <trkpt lat="47.44356" lon="6.79982">
        <ele>381</ele>
        <time>2016-05-29T09:08:18.000Z</time>
      </trkpt>
      <trkpt lat="47.44358" lon="6.79978">
        <ele>381</ele>
        <time>2016-05-29T09:08:19.000Z</time>
      </trkpt>
      <trkpt lat="47.4436" lon="6.79972">
        <ele>381</ele>
        <time>2016-05-29T09:08:20.000Z</time>
      </trkpt>
      <trkpt lat="47.44362" lon="6.79967">
        <ele>381</ele>
        <time>2016-05-29T09:08:21.000Z</time>
      </trkpt>
      <trkpt lat="47.44364" lon="6.79962">
        <ele>381</ele>
        <time>2016-05-29T09:08:22.000Z</time>
      </trkpt>
      <trkpt lat="47.44366" lon="6.79957">
        <ele>381</ele>
        <time>2016-05-29T09:08:23.000Z</time>
      </trkpt>
      <trkpt lat="47.44368" lon="6.79951">
        <ele>381</ele>
        <time>2016-05-29T09:08:24.000Z</time>
      </trkpt>
      <trkpt lat="47.4437" lon="6.79945">
        <ele>381</ele>
        <time>2016-05-29T09:08:25.000Z</time>
      </trkpt>
      <trkpt lat="47.44372" lon="6.79939">
        <ele>381</ele>
        <time>2016-05-29T09:08:26.000Z</time>
      </trkpt>
      <trkpt lat="47.44375" lon="6.79932">
        <ele>381</ele>
        <time>2016-05-29T09:08:27.000Z</time>
      </trkpt>
      <trkpt lat="47.44378" lon="6.79926">
        <ele>381</ele>
        <time>2016-05-29T09:08:28.000Z</time>
      </trkpt>
      <trkpt lat="47.44381" lon="6.7992">
        <ele>380</ele>
        <time>2016-05-29T09:08:29.000Z</time>
      </trkpt>
      <trkpt lat="47.44383" lon="6.79916">
        <ele>382</ele>
        <time>2016-05-29T09:08:30.000Z</time>
      </trkpt>
      <trkpt lat="47.44385" lon="6.79912">
        <ele>382</ele>
        <time>2016-05-29T09:08:31.000Z</time>
      </trkpt>
      <trkpt lat="47.44387" lon="6.79908">
        <ele>382</ele>
        <time>2016-05-29T09:08:32.000Z</time>
      </trkpt>
      <trkpt lat="47.44389" lon="6.79905">
        <ele>382</ele>
        <time>2016-05-29T09:08:33.000Z</time>
      </trkpt>
      <trkpt lat="47.44391" lon="6.79902">
        <ele>382</ele>
        <time>2016-05-29T09:08:34.000Z</time>
      </trkpt>
      <trkpt lat="47.44392" lon="6.79899">
        <ele>382</ele>
        <time>2016-05-29T09:08:35.000Z</time>
      </trkpt>
      <trkpt lat="47.44393" lon="6.79893">
        <ele>382</ele>
        <time>2016-05-29T09:08:37.000Z</time>
      </trkpt>
      <trkpt lat="47.44394" lon="6.79892">
        <ele>382</ele>
        <time>2016-05-29T09:08:38.000Z</time>
      </trkpt>
      <trkpt lat="47.44396" lon="6.79896">
        <ele>381</ele>
        <time>2016-05-29T09:08:41.000Z</time>
      </trkpt>
      <trkpt lat="47.44398" lon="6.79897">
        <ele>381</ele>
        <time>2016-05-29T09:08:42.000Z</time>
      </trkpt>
      <trkpt lat="47.44401" lon="6.79899">
        <ele>380</ele>
        <time>2016-05-29T09:08:44.000Z</time>
      </trkpt>
      <trkpt lat="47.44403" lon="6.799">
        <ele>380</ele>
        <time>2016-05-29T09:08:45.000Z</time>
      </trkpt>
      <trkpt lat="47.44406" lon="6.79901">
        <ele>380</ele>
        <time>2016-05-29T09:08:46.000Z</time>
      </trkpt>
      <trkpt lat="47.44408" lon="6.79902">
        <ele>380</ele>
        <time>2016-05-29T09:08:47.000Z</time>
      </trkpt>
      <trkpt lat="47.44411" lon="6.79902">
        <ele>379</ele>
        <time>2016-05-29T09:08:48.000Z</time>
      </trkpt>
      <trkpt lat="47.44414" lon="6.79903">
        <ele>379</ele>
        <time>2016-05-29T09:08:49.000Z</time>
      </trkpt>
      <trkpt lat="47.44418" lon="6.79903">
        <ele>374</ele>
        <time>2016-05-29T09:08:50.000Z</time>
      </trkpt>
      <trkpt lat="47.44422" lon="6.79904">
        <ele>374</ele>
        <time>2016-05-29T09:08:51.000Z</time>
      </trkpt>
      <trkpt lat="47.44426" lon="6.79905">
        <ele>374</ele>
        <time>2016-05-29T09:08:52.000Z</time>
      </trkpt>
      <trkpt lat="47.44432" lon="6.79903">
        <ele>373</ele>
        <time>2016-05-29T09:08:53.000Z</time>
      </trkpt>
      <trkpt lat="47.44437" lon="6.79906">
        <ele>373</ele>
        <time>2016-05-29T09:08:54.000Z</time>
      </trkpt>
      <trkpt lat="47.44442" lon="6.79907">
        <ele>373</ele>
        <time>2016-05-29T09:08:55.000Z</time>
      </trkpt>
      <trkpt lat="47.44447" lon="6.79907">
        <ele>372</ele>
        <time>2016-05-29T09:08:56.000Z</time>
      </trkpt>
      <trkpt lat="47.44453" lon="6.7991">
        <ele>372</ele>
        <time>2016-05-29T09:08:57.000Z</time>
      </trkpt>
      <trkpt lat="47.44457" lon="6.79908">
        <ele>371</ele>
        <time>2016-05-29T09:08:58.000Z</time>
      </trkpt>
      <trkpt lat="47.44463" lon="6.79909">
        <ele>371</ele>
        <time>2016-05-29T09:08:59.000Z</time>
      </trkpt>
      <trkpt lat="47.44468" lon="6.79912">
        <ele>370</ele>
        <time>2016-05-29T09:09:00.000Z</time>
      </trkpt>
      <trkpt lat="47.44476" lon="6.79915">
        <ele>370</ele>
        <time>2016-05-29T09:09:01.000Z</time>
      </trkpt>
      <trkpt lat="47.44482" lon="6.79917">
        <ele>368</ele>
        <time>2016-05-29T09:09:02.000Z</time>
      </trkpt>
      <trkpt lat="47.44489" lon="6.79919">
        <ele>367</ele>
        <time>2016-05-29T09:09:03.000Z</time>
      </trkpt>
      <trkpt lat="47.44497" lon="6.79919">
        <ele>367</ele>
        <time>2016-05-29T09:09:04.000Z</time>
      </trkpt>
      <trkpt lat="47.44504" lon="6.79919">
        <ele>366</ele>
        <time>2016-05-29T09:09:05.000Z</time>
      </trkpt>
      <trkpt lat="47.44511" lon="6.79919">
        <ele>365</ele>
        <time>2016-05-29T09:09:06.000Z</time>
      </trkpt>
      <trkpt lat="47.44518" lon="6.79919">
        <ele>365</ele>
        <time>2016-05-29T09:09:07.000Z</time>
      </trkpt>
      <trkpt lat="47.44526" lon="6.7992">
        <ele>365</ele>
        <time>2016-05-29T09:09:08.000Z</time>
      </trkpt>
      <trkpt lat="47.44533" lon="6.79921">
        <ele>365</ele>
        <time>2016-05-29T09:09:09.000Z</time>
      </trkpt>
      <trkpt lat="47.4454" lon="6.79922">
        <ele>364</ele>
        <time>2016-05-29T09:09:10.000Z</time>
      </trkpt>
      <trkpt lat="47.44547" lon="6.79923">
        <ele>364</ele>
        <time>2016-05-29T09:09:11.000Z</time>
      </trkpt>
      <trkpt lat="47.44554" lon="6.79925">
        <ele>364</ele>
        <time>2016-05-29T09:09:12.000Z</time>
      </trkpt>
      <trkpt lat="47.44561" lon="6.79928">
        <ele>364</ele>
        <time>2016-05-29T09:09:13.000Z</time>
      </trkpt>
      <trkpt lat="47.44567" lon="6.79931">
        <ele>364</ele>
        <time>2016-05-29T09:09:14.000Z</time>
      </trkpt>
      <trkpt lat="47.44573" lon="6.79935">
        <ele>364</ele>
        <time>2016-05-29T09:09:15.001Z</time>
      </trkpt>
      <trkpt lat="47.4458" lon="6.79937">
        <ele>364</ele>
        <time>2016-05-29T09:09:16.000Z</time>
      </trkpt>
      <trkpt lat="47.44586" lon="6.79938">
        <ele>362</ele>
        <time>2016-05-29T09:09:17.000Z</time>
      </trkpt>
      <trkpt lat="47.44592" lon="6.79939">
        <ele>362</ele>
        <time>2016-05-29T09:09:18.000Z</time>
      </trkpt>
      <trkpt lat="47.44598" lon="6.79941">
        <ele>362</ele>
        <time>2016-05-29T09:09:19.000Z</time>
      </trkpt>
      <trkpt lat="47.44603" lon="6.79942">
        <ele>362</ele>
        <time>2016-05-29T09:09:20.000Z</time>
      </trkpt>
      <trkpt lat="47.44609" lon="6.79944">
        <ele>362</ele>
        <time>2016-05-29T09:09:21.000Z</time>
      </trkpt>
      <trkpt lat="47.44613" lon="6.79946">
        <ele>362</ele>
        <time>2016-05-29T09:09:22.000Z</time>
      </trkpt>
      <trkpt lat="47.44618" lon="6.79947">
        <ele>362</ele>
        <time>2016-05-29T09:09:23.000Z</time>
      </trkpt>
      <trkpt lat="47.44623" lon="6.79948">
        <ele>362</ele>
        <time>2016-05-29T09:09:24.000Z</time>
      </trkpt>
      <trkpt lat="47.44627" lon="6.7995">
        <ele>362</ele>
        <time>2016-05-29T09:09:25.000Z</time>
      </trkpt>
      <trkpt lat="47.44631" lon="6.79952">
        <ele>362</ele>
        <time>2016-05-29T09:09:26.001Z</time>
      </trkpt>
      <trkpt lat="47.44635" lon="6.79954">
        <ele>362</ele>
        <time>2016-05-29T09:09:27.000Z</time>
      </trkpt>
      <trkpt lat="47.4464" lon="6.79954">
        <ele>362</ele>
        <time>2016-05-29T09:09:28.000Z</time>
      </trkpt>
      <trkpt lat="47.44644" lon="6.79955">
        <ele>361</ele>
        <time>2016-05-29T09:09:29.000Z</time>
      </trkpt>
      <trkpt lat="47.44649" lon="6.79956">
        <ele>361</ele>
        <time>2016-05-29T09:09:30.000Z</time>
      </trkpt>
      <trkpt lat="47.44654" lon="6.79957">
        <ele>361</ele>
        <time>2016-05-29T09:09:31.000Z</time>
      </trkpt>
      <trkpt lat="47.44659" lon="6.79959">
        <ele>361</ele>
        <time>2016-05-29T09:09:32.000Z</time>
      </trkpt>
      <trkpt lat="47.44664" lon="6.7996">
        <ele>361</ele>
        <time>2016-05-29T09:09:33.000Z</time>
      </trkpt>
      <trkpt lat="47.4467" lon="6.79961">
        <ele>360</ele>
        <time>2016-05-29T09:09:34.000Z</time>
      </trkpt>
      <trkpt lat="47.44675" lon="6.79962">
        <ele>359</ele>
        <time>2016-05-29T09:09:35.000Z</time>
      </trkpt>
      <trkpt lat="47.44681" lon="6.79963">
        <ele>359</ele>
        <time>2016-05-29T09:09:36.000Z</time>
      </trkpt>
      <trkpt lat="47.44687" lon="6.79964">
        <ele>359</ele>
        <time>2016-05-29T09:09:37.000Z</time>
      </trkpt>
      <trkpt lat="47.44693" lon="6.79966">
        <ele>359</ele>
        <time>2016-05-29T09:09:38.000Z</time>
      </trkpt>
      <trkpt lat="47.44699" lon="6.79968">
        <ele>359</ele>
        <time>2016-05-29T09:09:39.000Z</time>
      </trkpt>
      <trkpt lat="47.44705" lon="6.79968">
        <ele>359</ele>
        <time>2016-05-29T09:09:40.000Z</time>
      </trkpt>
      <trkpt lat="47.44711" lon="6.79969">
        <ele>359</ele>
        <time>2016-05-29T09:09:41.000Z</time>
      </trkpt>
      <trkpt lat="47.44716" lon="6.7997">
        <ele>359</ele>
        <time>2016-05-29T09:09:42.000Z</time>
      </trkpt>
      <trkpt lat="47.44723" lon="6.79971">
        <ele>359</ele>
        <time>2016-05-29T09:09:43.000Z</time>
      </trkpt>
      <trkpt lat="47.44728" lon="6.79972">
        <ele>359</ele>
        <time>2016-05-29T09:09:44.000Z</time>
      </trkpt>
      <trkpt lat="47.44734" lon="6.79973">
        <ele>359</ele>
        <time>2016-05-29T09:09:45.000Z</time>
      </trkpt>
      <trkpt lat="47.4474" lon="6.79973">
        <ele>359</ele>
        <time>2016-05-29T09:09:46.000Z</time>
      </trkpt>
      <trkpt lat="47.44746" lon="6.79974">
        <ele>358</ele>
        <time>2016-05-29T09:09:47.000Z</time>
      </trkpt>
      <trkpt lat="47.44752" lon="6.79975">
        <ele>357</ele>
        <time>2016-05-29T09:09:48.000Z</time>
      </trkpt>
      <trkpt lat="47.44757" lon="6.79977">
        <ele>357</ele>
        <time>2016-05-29T09:09:49.000Z</time>
      </trkpt>
      <trkpt lat="47.44763" lon="6.79978">
        <ele>357</ele>
        <time>2016-05-29T09:09:50.000Z</time>
      </trkpt>
      <trkpt lat="47.44769" lon="6.79979">
        <ele>356</ele>
        <time>2016-05-29T09:09:51.000Z</time>
      </trkpt>
      <trkpt lat="47.44774" lon="6.7998">
        <ele>356</ele>
        <time>2016-05-29T09:09:52.000Z</time>
      </trkpt>
      <trkpt lat="47.44779" lon="6.79981">
        <ele>356</ele>
        <time>2016-05-29T09:09:53.000Z</time>
      </trkpt>
      <trkpt lat="47.44784" lon="6.79983">
        <ele>356</ele>
        <time>2016-05-29T09:09:54.000Z</time>
      </trkpt>
      <trkpt lat="47.44788" lon="6.79982">
        <ele>356</ele>
        <time>2016-05-29T09:09:55.000Z</time>
      </trkpt>
      <trkpt lat="47.44789" lon="6.79979">
        <ele>356</ele>
        <time>2016-05-29T09:09:56.000Z</time>
      </trkpt>
      <trkpt lat="47.44789" lon="6.79973">
        <ele>356</ele>
        <time>2016-05-29T09:09:58.000Z</time>
      </trkpt>
      <trkpt lat="47.4479" lon="6.7997">
        <ele>356</ele>
        <time>2016-05-29T09:09:59.000Z</time>
      </trkpt>
      <trkpt lat="47.4479" lon="6.79966">
        <ele>356</ele>
        <time>2016-05-29T09:10:00.000Z</time>
      </trkpt>
      <trkpt lat="47.44791" lon="6.79961">
        <ele>356</ele>
        <time>2016-05-29T09:10:01.000Z</time>
      </trkpt>
      <trkpt lat="47.44792" lon="6.79956">
        <ele>356</ele>
        <time>2016-05-29T09:10:02.000Z</time>
      </trkpt>
      <trkpt lat="47.44793" lon="6.79951">
        <ele>356</ele>
        <time>2016-05-29T09:10:03.000Z</time>
      </trkpt>
      <trkpt lat="47.44794" lon="6.79945">
        <ele>356</ele>
        <time>2016-05-29T09:10:04.000Z</time>
      </trkpt>
      <trkpt lat="47.44795" lon="6.79939">
        <ele>356</ele>
        <time>2016-05-29T09:10:05.000Z</time>
      </trkpt>
      <trkpt lat="47.44796" lon="6.79933">
        <ele>356</ele>
        <time>2016-05-29T09:10:06.001Z</time>
      </trkpt>
      <trkpt lat="47.44797" lon="6.79925">
        <ele>356</ele>
        <time>2016-05-29T09:10:07.000Z</time>
      </trkpt>
      <trkpt lat="47.44798" lon="6.7992">
        <ele>355</ele>
        <time>2016-05-29T09:10:08.000Z</time>
      </trkpt>
      <trkpt lat="47.44799" lon="6.79915">
        <ele>355</ele>
        <time>2016-05-29T09:10:08.999Z</time>
      </trkpt>
      <trkpt lat="47.448" lon="6.79907">
        <ele>355</ele>
        <time>2016-05-29T09:10:10.002Z</time>
      </trkpt>
      <trkpt lat="47.44802" lon="6.79902">
        <ele>355</ele>
        <time>2016-05-29T09:10:10.999Z</time>
      </trkpt>
      <trkpt lat="47.44803" lon="6.79896">
        <ele>355</ele>
        <time>2016-05-29T09:10:12.000Z</time>
      </trkpt>
      <trkpt lat="47.44803" lon="6.79889">
        <ele>355</ele>
        <time>2016-05-29T09:10:13.000Z</time>
      </trkpt>
      <trkpt lat="47.44803" lon="6.79883">
        <ele>355</ele>
        <time>2016-05-29T09:10:14.000Z</time>
      </trkpt>
      <trkpt lat="47.44803" lon="6.79877">
        <ele>355</ele>
        <time>2016-05-29T09:10:15.000Z</time>
      </trkpt>
      <trkpt lat="47.44804" lon="6.79869">
        <ele>355</ele>
        <time>2016-05-29T09:10:16.000Z</time>
      </trkpt>
      <trkpt lat="47.44805" lon="6.79863">
        <ele>354</ele>
        <time>2016-05-29T09:10:17.000Z</time>
      </trkpt>
      <trkpt lat="47.44806" lon="6.79858">
        <ele>354</ele>
        <time>2016-05-29T09:10:18.001Z</time>
      </trkpt>
      <trkpt lat="47.44807" lon="6.79851">
        <ele>354</ele>
        <time>2016-05-29T09:10:18.999Z</time>
      </trkpt>
      <trkpt lat="47.44808" lon="6.79846">
        <ele>354</ele>
        <time>2016-05-29T09:10:19.999Z</time>
      </trkpt>
      <trkpt lat="47.44808" lon="6.7984">
        <ele>354</ele>
        <time>2016-05-29T09:10:21.000Z</time>
      </trkpt>
      <trkpt lat="47.44809" lon="6.79835">
        <ele>354</ele>
        <time>2016-05-29T09:10:22.000Z</time>
      </trkpt>
      <trkpt lat="47.4481" lon="6.7983">
        <ele>353</ele>
        <time>2016-05-29T09:10:23.000Z</time>
      </trkpt>
      <trkpt lat="47.4481" lon="6.79826">
        <ele>353</ele>
        <time>2016-05-29T09:10:24.000Z</time>
      </trkpt>
      <trkpt lat="47.44811" lon="6.79821">
        <ele>353</ele>
        <time>2016-05-29T09:10:25.000Z</time>
      </trkpt>
      <trkpt lat="47.44812" lon="6.79817">
        <ele>353</ele>
        <time>2016-05-29T09:10:26.000Z</time>
      </trkpt>
      <trkpt lat="47.44813" lon="6.79813">
        <ele>353</ele>
        <time>2016-05-29T09:10:27.000Z</time>
      </trkpt>
      <trkpt lat="47.44815" lon="6.79808">
        <ele>353</ele>
        <time>2016-05-29T09:10:28.000Z</time>
      </trkpt>
      <trkpt lat="47.44816" lon="6.79804">
        <ele>353</ele>
        <time>2016-05-29T09:10:29.000Z</time>
      </trkpt>
      <trkpt lat="47.44816" lon="6.798">
        <ele>353</ele>
        <time>2016-05-29T09:10:30.000Z</time>
      </trkpt>
      <trkpt lat="47.44817" lon="6.79796">
        <ele>353</ele>
        <time>2016-05-29T09:10:30.999Z</time>
      </trkpt>
      <trkpt lat="47.44817" lon="6.79791">
        <ele>353</ele>
        <time>2016-05-29T09:10:32.000Z</time>
      </trkpt>
      <trkpt lat="47.44817" lon="6.79787">
        <ele>353</ele>
        <time>2016-05-29T09:10:33.000Z</time>
      </trkpt>
      <trkpt lat="47.44818" lon="6.79782">
        <ele>353</ele>
        <time>2016-05-29T09:10:34.000Z</time>
      </trkpt>
      <trkpt lat="47.44819" lon="6.79776">
        <ele>352</ele>
        <time>2016-05-29T09:10:35.000Z</time>
      </trkpt>
      <trkpt lat="47.4482" lon="6.79771">
        <ele>352</ele>
        <time>2016-05-29T09:10:36.000Z</time>
      </trkpt>
      <trkpt lat="47.44821" lon="6.79766">
        <ele>352</ele>
        <time>2016-05-29T09:10:37.000Z</time>
      </trkpt>
      <trkpt lat="47.44822" lon="6.79761">
        <ele>352</ele>
        <time>2016-05-29T09:10:38.001Z</time>
      </trkpt>
      <trkpt lat="47.44823" lon="6.79757">
        <ele>352</ele>
        <time>2016-05-29T09:10:39.000Z</time>
      </trkpt>
      <trkpt lat="47.44823" lon="6.79754">
        <ele>352</ele>
        <time>2016-05-29T09:10:40.000Z</time>
      </trkpt>
      <trkpt lat="47.44824" lon="6.79747">
        <ele>350</ele>
        <time>2016-05-29T09:10:42.000Z</time>
      </trkpt>
      <trkpt lat="47.44824" lon="6.79744">
        <ele>349</ele>
        <time>2016-05-29T09:10:43.001Z</time>
      </trkpt>
      <trkpt lat="47.44824" lon="6.79739">
        <ele>349</ele>
        <time>2016-05-29T09:10:44.000Z</time>
      </trkpt>
      <trkpt lat="47.44825" lon="6.79735">
        <ele>349</ele>
        <time>2016-05-29T09:10:45.001Z</time>
      </trkpt>
      <trkpt lat="47.44825" lon="6.7973">
        <ele>348</ele>
        <time>2016-05-29T09:10:46.000Z</time>
      </trkpt>
      <trkpt lat="47.44828" lon="6.79728">
        <ele>348</ele>
        <time>2016-05-29T09:10:47.000Z</time>
      </trkpt>
      <trkpt lat="47.44831" lon="6.79726">
        <ele>348</ele>
        <time>2016-05-29T09:10:48.000Z</time>
      </trkpt>
      <trkpt lat="47.44835" lon="6.79725">
        <ele>348</ele>
        <time>2016-05-29T09:10:49.000Z</time>
      </trkpt>
      <trkpt lat="47.44839" lon="6.79724">
        <ele>348</ele>
        <time>2016-05-29T09:10:50.000Z</time>
      </trkpt>
      <trkpt lat="47.44843" lon="6.79724">
        <ele>348</ele>
        <time>2016-05-29T09:10:51.000Z</time>
      </trkpt>
      <trkpt lat="47.44848" lon="6.79725">
        <ele>347</ele>
        <time>2016-05-29T09:10:52.000Z</time>
      </trkpt>
      <trkpt lat="47.44852" lon="6.79725">
        <ele>347</ele>
        <time>2016-05-29T09:10:53.000Z</time>
      </trkpt>
      <trkpt lat="47.44857" lon="6.79725">
        <ele>347</ele>
        <time>2016-05-29T09:10:54.000Z</time>
      </trkpt>
      <trkpt lat="47.44861" lon="6.79725">
        <ele>347</ele>
        <time>2016-05-29T09:10:55.000Z</time>
      </trkpt>
      <trkpt lat="47.44865" lon="6.79726">
        <ele>347</ele>
        <time>2016-05-29T09:10:56.000Z</time>
      </trkpt>
      <trkpt lat="47.4487" lon="6.79727">
        <ele>347</ele>
        <time>2016-05-29T09:10:57.000Z</time>
      </trkpt>
      <trkpt lat="47.44874" lon="6.79732">
        <ele>347</ele>
        <time>2016-05-29T09:10:58.000Z</time>
      </trkpt>
      <trkpt lat="47.44878" lon="6.79733">
        <ele>347</ele>
        <time>2016-05-29T09:10:59.000Z</time>
      </trkpt>
      <trkpt lat="47.44881" lon="6.79735">
        <ele>347</ele>
        <time>2016-05-29T09:11:00.001Z</time>
      </trkpt>
      <trkpt lat="47.44885" lon="6.79737">
        <ele>348</ele>
        <time>2016-05-29T09:11:01.000Z</time>
      </trkpt>
      <trkpt lat="47.44888" lon="6.79739">
        <ele>348</ele>
        <time>2016-05-29T09:11:02.000Z</time>
      </trkpt>
      <trkpt lat="47.44891" lon="6.79742">
        <ele>348</ele>
        <time>2016-05-29T09:11:03.000Z</time>
      </trkpt>
      <trkpt lat="47.44895" lon="6.79744">
        <ele>348</ele>
        <time>2016-05-29T09:11:04.000Z</time>
      </trkpt>
      <trkpt lat="47.44899" lon="6.79744">
        <ele>348</ele>
        <time>2016-05-29T09:11:05.000Z</time>
      </trkpt>
      <trkpt lat="47.44903" lon="6.79744">
        <ele>348</ele>
        <time>2016-05-29T09:11:06.000Z</time>
      </trkpt>
      <trkpt lat="47.44907" lon="6.79744">
        <ele>349</ele>
        <time>2016-05-29T09:11:06.999Z</time>
      </trkpt>
      <trkpt lat="47.44909" lon="6.79741">
        <ele>349</ele>
        <time>2016-05-29T09:11:08.000Z</time>
      </trkpt>
      <trkpt lat="47.44913" lon="6.7974">
        <ele>349</ele>
        <time>2016-05-29T09:11:09.000Z</time>
      </trkpt>
      <trkpt lat="47.44916" lon="6.79738">
        <ele>349</ele>
        <time>2016-05-29T09:11:10.000Z</time>
      </trkpt>
      <trkpt lat="47.44919" lon="6.79737">
        <ele>347</ele>
        <time>2016-05-29T09:11:11.000Z</time>
      </trkpt>
      <trkpt lat="47.44922" lon="6.79735">
        <ele>347</ele>
        <time>2016-05-29T09:11:11.999Z</time>
      </trkpt>
      <trkpt lat="47.44926" lon="6.79732">
        <ele>347</ele>
        <time>2016-05-29T09:11:13.000Z</time>
      </trkpt>
      <trkpt lat="47.4493" lon="6.79729">
        <ele>346</ele>
        <time>2016-05-29T09:11:14.000Z</time>
      </trkpt>
      <trkpt lat="47.44933" lon="6.79727">
        <ele>346</ele>
        <time>2016-05-29T09:11:15.000Z</time>
      </trkpt>
      <trkpt lat="47.44937" lon="6.79724">
        <ele>345</ele>
        <time>2016-05-29T09:11:16.000Z</time>
      </trkpt>
      <trkpt lat="47.44942" lon="6.79722">
        <ele>345</ele>
        <time>2016-05-29T09:11:17.000Z</time>
      </trkpt>
      <trkpt lat="47.44946" lon="6.7972">
        <ele>345</ele>
        <time>2016-05-29T09:11:18.000Z</time>
      </trkpt>
      <trkpt lat="47.4495" lon="6.79719">
        <ele>345</ele>
        <time>2016-05-29T09:11:19.000Z</time>
      </trkpt>
      <trkpt lat="47.44954" lon="6.79713">
        <ele>344</ele>
        <time>2016-05-29T09:11:20.000Z</time>
      </trkpt>
      <trkpt lat="47.44957" lon="6.79708">
        <ele>344</ele>
        <time>2016-05-29T09:11:21.000Z</time>
      </trkpt>
      <trkpt lat="47.4496" lon="6.79704">
        <ele>344</ele>
        <time>2016-05-29T09:11:22.000Z</time>
      </trkpt>
      <trkpt lat="47.44963" lon="6.79699">
        <ele>343</ele>
        <time>2016-05-29T09:11:23.000Z</time>
      </trkpt>
      <trkpt lat="47.44966" lon="6.79693">
        <ele>343</ele>
        <time>2016-05-29T09:11:23.999Z</time>
      </trkpt>
      <trkpt lat="47.44972" lon="6.7969">
        <ele>342</ele>
        <time>2016-05-29T09:11:25.000Z</time>
      </trkpt>
      <trkpt lat="47.44977" lon="6.79688">
        <ele>342</ele>
        <time>2016-05-29T09:11:26.000Z</time>
      </trkpt>
      <trkpt lat="47.44982" lon="6.79687">
        <ele>342</ele>
        <time>2016-05-29T09:11:27.000Z</time>
      </trkpt>
      <trkpt lat="47.44988" lon="6.79691">
        <ele>342</ele>
        <time>2016-05-29T09:11:28.000Z</time>
      </trkpt>
      <trkpt lat="47.44994" lon="6.79693">
        <ele>342</ele>
        <time>2016-05-29T09:11:29.000Z</time>
      </trkpt>
      <trkpt lat="47.44999" lon="6.79696">
        <ele>342</ele>
        <time>2016-05-29T09:11:30.000Z</time>
      </trkpt>
      <trkpt lat="47.45004" lon="6.797">
        <ele>339</ele>
        <time>2016-05-29T09:11:31.000Z</time>
      </trkpt>
      <trkpt lat="47.45009" lon="6.79702">
        <ele>339</ele>
        <time>2016-05-29T09:11:31.999Z</time>
      </trkpt>
      <trkpt lat="47.45017" lon="6.79711">
        <ele>340</ele>
        <time>2016-05-29T09:11:33.000Z</time>
      </trkpt>
      <trkpt lat="47.45025" lon="6.79716">
        <ele>340</ele>
        <time>2016-05-29T09:11:34.000Z</time>
      </trkpt>
      <trkpt lat="47.45029" lon="6.79717">
        <ele>340</ele>
        <time>2016-05-29T09:11:35.000Z</time>
      </trkpt>
      <trkpt lat="47.45034" lon="6.79719">
        <ele>340</ele>
        <time>2016-05-29T09:11:36.000Z</time>
      </trkpt>
      <trkpt lat="47.45038" lon="6.79715">
        <ele>339</ele>
        <time>2016-05-29T09:11:37.000Z</time>
      </trkpt>
      <trkpt lat="47.45041" lon="6.79711">
        <ele>339</ele>
        <time>2016-05-29T09:11:38.000Z</time>
      </trkpt>
      <trkpt lat="47.45043" lon="6.79706">
        <ele>339</ele>
        <time>2016-05-29T09:11:39.000Z</time>
      </trkpt>
      <trkpt lat="47.45045" lon="6.79701">
        <ele>339</ele>
        <time>2016-05-29T09:11:40.001Z</time>
      </trkpt>
      <trkpt lat="47.45044" lon="6.79685">
        <ele>338</ele>
        <time>2016-05-29T09:11:41.000Z</time>
      </trkpt>
      <trkpt lat="47.45045" lon="6.79675">
        <ele>338</ele>
        <time>2016-05-29T09:11:42.000Z</time>
      </trkpt>
      <trkpt lat="47.45047" lon="6.79665">
        <ele>335</ele>
        <time>2016-05-29T09:11:43.000Z</time>
      </trkpt>
      <trkpt lat="47.45049" lon="6.79655">
        <ele>335</ele>
        <time>2016-05-29T09:11:44.000Z</time>
      </trkpt>
      <trkpt lat="47.45053" lon="6.79648">
        <ele>335</ele>
        <time>2016-05-29T09:11:45.000Z</time>
      </trkpt>
      <trkpt lat="47.45056" lon="6.79642">
        <ele>335</ele>
        <time>2016-05-29T09:11:46.000Z</time>
      </trkpt>
      <trkpt lat="47.45059" lon="6.79637">
        <ele>335</ele>
        <time>2016-05-29T09:11:47.001Z</time>
      </trkpt>
      <trkpt lat="47.45059" lon="6.79635">
        <ele>335</ele>
        <time>2016-05-29T09:11:48.000Z</time>
      </trkpt>
      <trkpt lat="47.45058" lon="6.79632">
        <ele>335</ele>
        <time>2016-05-29T09:11:49.998Z</time>
      </trkpt>
      <trkpt lat="47.45058" lon="6.79629">
        <ele>334</ele>
        <time>2016-05-29T09:11:51.000Z</time>
      </trkpt>
      <trkpt lat="47.45057" lon="6.79622">
        <ele>334</ele>
        <time>2016-05-29T09:11:53.000Z</time>
      </trkpt>
      <trkpt lat="47.45065" lon="6.79614">
        <ele>334</ele>
        <time>2016-05-29T09:11:54.000Z</time>
      </trkpt>
      <trkpt lat="47.45067" lon="6.79611">
        <ele>334</ele>
        <time>2016-05-29T09:11:55.000Z</time>
      </trkpt>
      <trkpt lat="47.4507" lon="6.79606">
        <ele>334</ele>
        <time>2016-05-29T09:11:56.000Z</time>
      </trkpt>
      <trkpt lat="47.45073" lon="6.79602">
        <ele>334</ele>
        <time>2016-05-29T09:11:57.000Z</time>
      </trkpt>
      <trkpt lat="47.45076" lon="6.79597">
        <ele>334</ele>
        <time>2016-05-29T09:11:58.000Z</time>
      </trkpt>
      <trkpt lat="47.45079" lon="6.79593">
        <ele>333</ele>
        <time>2016-05-29T09:11:59.000Z</time>
      </trkpt>
      <trkpt lat="47.45082" lon="6.79589">
        <ele>333</ele>
        <time>2016-05-29T09:12:00.000Z</time>
      </trkpt>
      <trkpt lat="47.45086" lon="6.79585">
        <ele>333</ele>
        <time>2016-05-29T09:12:01.000Z</time>
      </trkpt>
      <trkpt lat="47.45089" lon="6.79581">
        <ele>333</ele>
        <time>2016-05-29T09:12:02.000Z</time>
      </trkpt>
      <trkpt lat="47.45091" lon="6.79577">
        <ele>333</ele>
        <time>2016-05-29T09:12:03.000Z</time>
      </trkpt>
      <trkpt lat="47.45094" lon="6.79573">
        <ele>333</ele>
        <time>2016-05-29T09:12:04.000Z</time>
      </trkpt>
      <trkpt lat="47.45097" lon="6.79569">
        <ele>333</ele>
        <time>2016-05-29T09:12:05.000Z</time>
      </trkpt>
      <trkpt lat="47.45099" lon="6.79565">
        <ele>333</ele>
        <time>2016-05-29T09:12:06.000Z</time>
      </trkpt>
      <trkpt lat="47.45102" lon="6.79562">
        <ele>333</ele>
        <time>2016-05-29T09:12:07.000Z</time>
      </trkpt>
      <trkpt lat="47.45104" lon="6.79558">
        <ele>333</ele>
        <time>2016-05-29T09:12:08.000Z</time>
      </trkpt>
      <trkpt lat="47.45107" lon="6.79555">
        <ele>333</ele>
        <time>2016-05-29T09:12:09.000Z</time>
      </trkpt>
      <trkpt lat="47.4511" lon="6.79551">
        <ele>333</ele>
        <time>2016-05-29T09:12:10.000Z</time>
      </trkpt>
      <trkpt lat="47.45113" lon="6.79548">
        <ele>333</ele>
        <time>2016-05-29T09:12:11.001Z</time>
      </trkpt>
      <trkpt lat="47.45115" lon="6.79544">
        <ele>333</ele>
        <time>2016-05-29T09:12:12.000Z</time>
      </trkpt>
      <trkpt lat="47.45118" lon="6.79541">
        <ele>333</ele>
        <time>2016-05-29T09:12:13.000Z</time>
      </trkpt>
      <trkpt lat="47.45121" lon="6.79537">
        <ele>333</ele>
        <time>2016-05-29T09:12:14.000Z</time>
      </trkpt>
      <trkpt lat="47.45123" lon="6.79534">
        <ele>333</ele>
        <time>2016-05-29T09:12:15.000Z</time>
      </trkpt>
      <trkpt lat="47.45125" lon="6.7953">
        <ele>333</ele>
        <time>2016-05-29T09:12:16.000Z</time>
      </trkpt>
      <trkpt lat="47.45127" lon="6.79527">
        <ele>333</ele>
        <time>2016-05-29T09:12:17.000Z</time>
      </trkpt>
      <trkpt lat="47.45128" lon="6.79523">
        <ele>333</ele>
        <time>2016-05-29T09:12:18.000Z</time>
      </trkpt>
      <trkpt lat="47.4513" lon="6.7952">
        <ele>333</ele>
        <time>2016-05-29T09:12:18.999Z</time>
      </trkpt>
      <trkpt lat="47.4513" lon="6.79514">
        <ele>333</ele>
        <time>2016-05-29T09:12:20.000Z</time>
      </trkpt>
      <trkpt lat="47.4513" lon="6.79508">
        <ele>333</ele>
        <time>2016-05-29T09:12:21.000Z</time>
      </trkpt>
      <trkpt lat="47.45131" lon="6.79503">
        <ele>333</ele>
        <time>2016-05-29T09:12:22.000Z</time>
      </trkpt>
      <trkpt lat="47.45133" lon="6.79497">
        <ele>333</ele>
        <time>2016-05-29T09:12:23.000Z</time>
      </trkpt>
      <trkpt lat="47.45134" lon="6.79492">
        <ele>333</ele>
        <time>2016-05-29T09:12:24.000Z</time>
      </trkpt>
      <trkpt lat="47.45135" lon="6.79487">
        <ele>333</ele>
        <time>2016-05-29T09:12:25.000Z</time>
      </trkpt>
      <trkpt lat="47.45137" lon="6.79482">
        <ele>333</ele>
        <time>2016-05-29T09:12:26.000Z</time>
      </trkpt>
      <trkpt lat="47.45138" lon="6.79477">
        <ele>333</ele>
        <time>2016-05-29T09:12:27.000Z</time>
      </trkpt>
      <trkpt lat="47.4514" lon="6.79472">
        <ele>333</ele>
        <time>2016-05-29T09:12:28.000Z</time>
      </trkpt>
      <trkpt lat="47.45141" lon="6.79468">
        <ele>333</ele>
        <time>2016-05-29T09:12:29.000Z</time>
      </trkpt>
      <trkpt lat="47.45142" lon="6.79464">
        <ele>333</ele>
        <time>2016-05-29T09:12:30.000Z</time>
      </trkpt>
      <trkpt lat="47.45145" lon="6.79454">
        <ele>333</ele>
        <time>2016-05-29T09:12:31.000Z</time>
      </trkpt>
      <trkpt lat="47.45146" lon="6.79448">
        <ele>333</ele>
        <time>2016-05-29T09:12:31.999Z</time>
      </trkpt>
      <trkpt lat="47.45147" lon="6.79441">
        <ele>333</ele>
        <time>2016-05-29T09:12:33.000Z</time>
      </trkpt>
      <trkpt lat="47.45147" lon="6.79435">
        <ele>333</ele>
        <time>2016-05-29T09:12:34.000Z</time>
      </trkpt>
      <trkpt lat="47.45148" lon="6.79435">
        <ele>333</ele>
        <time>2016-05-29T09:12:35.000Z</time>
      </trkpt>
      <trkpt lat="47.4515" lon="6.79427">
        <ele>333</ele>
        <time>2016-05-29T09:12:36.000Z</time>
      </trkpt>
      <trkpt lat="47.45152" lon="6.7942">
        <ele>333</ele>
        <time>2016-05-29T09:12:37.000Z</time>
      </trkpt>
      <trkpt lat="47.45153" lon="6.79411">
        <ele>333</ele>
        <time>2016-05-29T09:12:38.000Z</time>
      </trkpt>
      <trkpt lat="47.45154" lon="6.79406">
        <ele>333</ele>
        <time>2016-05-29T09:12:39.000Z</time>
      </trkpt>
      <trkpt lat="47.45155" lon="6.79402">
        <ele>333</ele>
        <time>2016-05-29T09:12:40.000Z</time>
      </trkpt>
      <trkpt lat="47.45157" lon="6.79397">
        <ele>333</ele>
        <time>2016-05-29T09:12:41.000Z</time>
      </trkpt>
      <trkpt lat="47.45158" lon="6.79392">
        <ele>334</ele>
        <time>2016-05-29T09:12:41.999Z</time>
      </trkpt>
      <trkpt lat="47.4516" lon="6.79385">
        <ele>334</ele>
        <time>2016-05-29T09:12:43.000Z</time>
      </trkpt>
      <trkpt lat="47.45161" lon="6.79379">
        <ele>334</ele>
        <time>2016-05-29T09:12:44.000Z</time>
      </trkpt>
      <trkpt lat="47.45162" lon="6.79375">
        <ele>334</ele>
        <time>2016-05-29T09:12:45.000Z</time>
      </trkpt>
      <trkpt lat="47.45163" lon="6.7937">
        <ele>334</ele>
        <time>2016-05-29T09:12:46.000Z</time>
      </trkpt>
      <trkpt lat="47.45164" lon="6.79367">
        <ele>334</ele>
        <time>2016-05-29T09:12:47.000Z</time>
      </trkpt>
      <trkpt lat="47.45164" lon="6.79362">
        <ele>334</ele>
        <time>2016-05-29T09:12:47.999Z</time>
      </trkpt>
      <trkpt lat="47.45168" lon="6.79361">
        <ele>334</ele>
        <time>2016-05-29T09:12:49.000Z</time>
      </trkpt>
      <trkpt lat="47.4517" lon="6.79356">
        <ele>334</ele>
        <time>2016-05-29T09:12:50.000Z</time>
      </trkpt>
      <trkpt lat="47.45172" lon="6.79353">
        <ele>334</ele>
        <time>2016-05-29T09:12:50.999Z</time>
      </trkpt>
      <trkpt lat="47.45175" lon="6.79344">
        <ele>334</ele>
        <time>2016-05-29T09:12:52.000Z</time>
      </trkpt>
      <trkpt lat="47.45177" lon="6.79336">
        <ele>334</ele>
        <time>2016-05-29T09:12:53.000Z</time>
      </trkpt>
      <trkpt lat="47.45179" lon="6.7933">
        <ele>335</ele>
        <time>2016-05-29T09:12:53.999Z</time>
      </trkpt>
      <trkpt lat="47.45181" lon="6.79321">
        <ele>334</ele>
        <time>2016-05-29T09:12:55.000Z</time>
      </trkpt>
      <trkpt lat="47.45184" lon="6.79312">
        <ele>334</ele>
        <time>2016-05-29T09:12:56.000Z</time>
      </trkpt>
      <trkpt lat="47.45186" lon="6.79305">
        <ele>334</ele>
        <time>2016-05-29T09:12:57.000Z</time>
      </trkpt>
      <trkpt lat="47.45189" lon="6.79297">
        <ele>334</ele>
        <time>2016-05-29T09:12:58.000Z</time>
      </trkpt>
      <trkpt lat="47.45191" lon="6.7929">
        <ele>334</ele>
        <time>2016-05-29T09:12:59.001Z</time>
      </trkpt>
      <trkpt lat="47.45193" lon="6.79284">
        <ele>334</ele>
        <time>2016-05-29T09:13:00.000Z</time>
      </trkpt>
      <trkpt lat="47.45194" lon="6.79278">
        <ele>334</ele>
        <time>2016-05-29T09:13:01.000Z</time>
      </trkpt>
      <trkpt lat="47.45196" lon="6.7927">
        <ele>334</ele>
        <time>2016-05-29T09:13:02.000Z</time>
      </trkpt>
      <trkpt lat="47.45198" lon="6.79261">
        <ele>334</ele>
        <time>2016-05-29T09:13:03.000Z</time>
      </trkpt>
      <trkpt lat="47.452" lon="6.79258">
        <ele>334</ele>
        <time>2016-05-29T09:13:04.000Z</time>
      </trkpt>
      <trkpt lat="47.45202" lon="6.79251">
        <ele>334</ele>
        <time>2016-05-29T09:13:05.000Z</time>
      </trkpt>
      <trkpt lat="47.45202" lon="6.79243">
        <ele>334</ele>
        <time>2016-05-29T09:13:06.000Z</time>
      </trkpt>
      <trkpt lat="47.45203" lon="6.79233">
        <ele>334</ele>
        <time>2016-05-29T09:13:07.000Z</time>
      </trkpt>
      <trkpt lat="47.45205" lon="6.79229">
        <ele>334</ele>
        <time>2016-05-29T09:13:08.000Z</time>
      </trkpt>
      <trkpt lat="47.45207" lon="6.79222">
        <ele>334</ele>
        <time>2016-05-29T09:13:09.000Z</time>
      </trkpt>
      <trkpt lat="47.45208" lon="6.79215">
        <ele>334</ele>
        <time>2016-05-29T09:13:10.000Z</time>
      </trkpt>
      <trkpt lat="47.4521" lon="6.79209">
        <ele>334</ele>
        <time>2016-05-29T09:13:11.000Z</time>
      </trkpt>
      <trkpt lat="47.45211" lon="6.79201">
        <ele>334</ele>
        <time>2016-05-29T09:13:12.000Z</time>
      </trkpt>
      <trkpt lat="47.45213" lon="6.79194">
        <ele>334</ele>
        <time>2016-05-29T09:13:13.000Z</time>
      </trkpt>
      <trkpt lat="47.45215" lon="6.79187">
        <ele>333</ele>
        <time>2016-05-29T09:13:14.000Z</time>
      </trkpt>
      <trkpt lat="47.45217" lon="6.7918">
        <ele>333</ele>
        <time>2016-05-29T09:13:15.000Z</time>
      </trkpt>
      <trkpt lat="47.45218" lon="6.79174">
        <ele>333</ele>
        <time>2016-05-29T09:13:16.000Z</time>
      </trkpt>
      <trkpt lat="47.45219" lon="6.79168">
        <ele>333</ele>
        <time>2016-05-29T09:13:17.000Z</time>
      </trkpt>
      <trkpt lat="47.45221" lon="6.79162">
        <ele>333</ele>
        <time>2016-05-29T09:13:18.000Z</time>
      </trkpt>
      <trkpt lat="47.45222" lon="6.79155">
        <ele>333</ele>
        <time>2016-05-29T09:13:18.999Z</time>
      </trkpt>
      <trkpt lat="47.45225" lon="6.79148">
        <ele>333</ele>
        <time>2016-05-29T09:13:20.000Z</time>
      </trkpt>
      <trkpt lat="47.45228" lon="6.79145">
        <ele>333</ele>
        <time>2016-05-29T09:13:21.000Z</time>
      </trkpt>
      <trkpt lat="47.45231" lon="6.79141">
        <ele>333</ele>
        <time>2016-05-29T09:13:22.000Z</time>
      </trkpt>
      <trkpt lat="47.45236" lon="6.79139">
        <ele>333</ele>
        <time>2016-05-29T09:13:23.000Z</time>
      </trkpt>
      <trkpt lat="47.4524" lon="6.79138">
        <ele>333</ele>
        <time>2016-05-29T09:13:24.000Z</time>
      </trkpt>
      <trkpt lat="47.45244" lon="6.79136">
        <ele>333</ele>
        <time>2016-05-29T09:13:25.000Z</time>
      </trkpt>
      <trkpt lat="47.45249" lon="6.79131">
        <ele>333</ele>
        <time>2016-05-29T09:13:26.000Z</time>
      </trkpt>
      <trkpt lat="47.45252" lon="6.79127">
        <ele>332</ele>
        <time>2016-05-29T09:13:27.000Z</time>
      </trkpt>
      <trkpt lat="47.45256" lon="6.79122">
        <ele>332</ele>
        <time>2016-05-29T09:13:28.000Z</time>
      </trkpt>
      <trkpt lat="47.45258" lon="6.79115">
        <ele>332</ele>
        <time>2016-05-29T09:13:29.000Z</time>
      </trkpt>
      <trkpt lat="47.4526" lon="6.79106">
        <ele>332</ele>
        <time>2016-05-29T09:13:30.000Z</time>
      </trkpt>
      <trkpt lat="47.45263" lon="6.79099">
        <ele>332</ele>
        <time>2016-05-29T09:13:30.999Z</time>
      </trkpt>
      <trkpt lat="47.45266" lon="6.79089">
        <ele>332</ele>
        <time>2016-05-29T09:13:32.000Z</time>
      </trkpt>
      <trkpt lat="47.45268" lon="6.7908">
        <ele>332</ele>
        <time>2016-05-29T09:13:33.000Z</time>
      </trkpt>
      <trkpt lat="47.4527" lon="6.7907">
        <ele>332</ele>
        <time>2016-05-29T09:13:33.999Z</time>
      </trkpt>
      <trkpt lat="47.45272" lon="6.79063">
        <ele>331</ele>
        <time>2016-05-29T09:13:35.000Z</time>
      </trkpt>
      <trkpt lat="47.45273" lon="6.79057">
        <ele>331</ele>
        <time>2016-05-29T09:13:36.000Z</time>
      </trkpt>
      <trkpt lat="47.45274" lon="6.7905">
        <ele>331</ele>
        <time>2016-05-29T09:13:37.000Z</time>
      </trkpt>
      <trkpt lat="47.45276" lon="6.79044">
        <ele>331</ele>
        <time>2016-05-29T09:13:38.000Z</time>
      </trkpt>
      <trkpt lat="47.45279" lon="6.79035">
        <ele>331</ele>
        <time>2016-05-29T09:13:39.000Z</time>
      </trkpt>
      <trkpt lat="47.45282" lon="6.79027">
        <ele>331</ele>
        <time>2016-05-29T09:13:40.000Z</time>
      </trkpt>
      <trkpt lat="47.45286" lon="6.79019">
        <ele>331</ele>
        <time>2016-05-29T09:13:41.000Z</time>
      </trkpt>
      <trkpt lat="47.4529" lon="6.79013">
        <ele>331</ele>
        <time>2016-05-29T09:13:41.999Z</time>
      </trkpt>
      <trkpt lat="47.45294" lon="6.79006">
        <ele>331</ele>
        <time>2016-05-29T09:13:43.000Z</time>
      </trkpt>
      <trkpt lat="47.45298" lon="6.79001">
        <ele>331</ele>
        <time>2016-05-29T09:13:44.000Z</time>
      </trkpt>
      <trkpt lat="47.45302" lon="6.78994">
        <ele>331</ele>
        <time>2016-05-29T09:13:44.999Z</time>
      </trkpt>
      <trkpt lat="47.45306" lon="6.78991">
        <ele>331</ele>
        <time>2016-05-29T09:13:46.000Z</time>
      </trkpt>
      <trkpt lat="47.45311" lon="6.7898">
        <ele>331</ele>
        <time>2016-05-29T09:13:47.000Z</time>
      </trkpt>
      <trkpt lat="47.45315" lon="6.78975">
        <ele>331</ele>
        <time>2016-05-29T09:13:47.999Z</time>
      </trkpt>
      <trkpt lat="47.45318" lon="6.78969">
        <ele>331</ele>
        <time>2016-05-29T09:13:49.000Z</time>
      </trkpt>
      <trkpt lat="47.4532" lon="6.78967">
        <ele>331</ele>
        <time>2016-05-29T09:13:50.000Z</time>
      </trkpt>
      <trkpt lat="47.45323" lon="6.78963">
        <ele>331</ele>
        <time>2016-05-29T09:13:51.000Z</time>
      </trkpt>
      <trkpt lat="47.45326" lon="6.7896">
        <ele>331</ele>
        <time>2016-05-29T09:13:51.999Z</time>
      </trkpt>
      <trkpt lat="47.45329" lon="6.78954">
        <ele>331</ele>
        <time>2016-05-29T09:13:53.000Z</time>
      </trkpt>
      <trkpt lat="47.45334" lon="6.7895">
        <ele>331</ele>
        <time>2016-05-29T09:13:54.000Z</time>
      </trkpt>
      <trkpt lat="47.45338" lon="6.78945">
        <ele>331</ele>
        <time>2016-05-29T09:13:55.000Z</time>
      </trkpt>
      <trkpt lat="47.4534" lon="6.78937">
        <ele>331</ele>
        <time>2016-05-29T09:13:56.000Z</time>
      </trkpt>
      <trkpt lat="47.45343" lon="6.78932">
        <ele>331</ele>
        <time>2016-05-29T09:13:56.999Z</time>
      </trkpt>
      <trkpt lat="47.45348" lon="6.7893">
        <ele>331</ele>
        <time>2016-05-29T09:13:58.000Z</time>
      </trkpt>
      <trkpt lat="47.45352" lon="6.78926">
        <ele>331</ele>
        <time>2016-05-29T09:13:59.000Z</time>
      </trkpt>
      <trkpt lat="47.45354" lon="6.78922">
        <ele>331</ele>
        <time>2016-05-29T09:14:00.000Z</time>
      </trkpt>
      <trkpt lat="47.45359" lon="6.78916">
        <ele>332</ele>
        <time>2016-05-29T09:14:01.000Z</time>
      </trkpt>
      <trkpt lat="47.45362" lon="6.78911">
        <ele>332</ele>
        <time>2016-05-29T09:14:02.000Z</time>
      </trkpt>
      <trkpt lat="47.45364" lon="6.78906">
        <ele>332</ele>
        <time>2016-05-29T09:14:03.000Z</time>
      </trkpt>
      <trkpt lat="47.45367" lon="6.78902">
        <ele>332</ele>
        <time>2016-05-29T09:14:04.000Z</time>
      </trkpt>
      <trkpt lat="47.45371" lon="6.78897">
        <ele>332</ele>
        <time>2016-05-29T09:14:05.001Z</time>
      </trkpt>
      <trkpt lat="47.45375" lon="6.78896">
        <ele>332</ele>
        <time>2016-05-29T09:14:06.000Z</time>
      </trkpt>
      <trkpt lat="47.45378" lon="6.78894">
        <ele>332</ele>
        <time>2016-05-29T09:14:07.000Z</time>
      </trkpt>
      <trkpt lat="47.45379" lon="6.78889">
        <ele>332</ele>
        <time>2016-05-29T09:14:08.000Z</time>
      </trkpt>
      <trkpt lat="47.45382" lon="6.78884">
        <ele>332</ele>
        <time>2016-05-29T09:14:09.000Z</time>
      </trkpt>
      <trkpt lat="47.45385" lon="6.7888">
        <ele>332</ele>
        <time>2016-05-29T09:14:10.000Z</time>
      </trkpt>
      <trkpt lat="47.45389" lon="6.78875">
        <ele>332</ele>
        <time>2016-05-29T09:14:11.000Z</time>
      </trkpt>
      <trkpt lat="47.45391" lon="6.7887">
        <ele>332</ele>
        <time>2016-05-29T09:14:12.000Z</time>
      </trkpt>
      <trkpt lat="47.45394" lon="6.78865">
        <ele>332</ele>
        <time>2016-05-29T09:14:13.000Z</time>
      </trkpt>
      <trkpt lat="47.45397" lon="6.78861">
        <ele>332</ele>
        <time>2016-05-29T09:14:14.001Z</time>
      </trkpt>
      <trkpt lat="47.45399" lon="6.78858">
        <ele>332</ele>
        <time>2016-05-29T09:14:15.000Z</time>
      </trkpt>
      <trkpt lat="47.45402" lon="6.78857">
        <ele>332</ele>
        <time>2016-05-29T09:14:16.000Z</time>
      </trkpt>
      <trkpt lat="47.45405" lon="6.78856">
        <ele>332</ele>
        <time>2016-05-29T09:14:17.000Z</time>
      </trkpt>
      <trkpt lat="47.45409" lon="6.78856">
        <ele>332</ele>
        <time>2016-05-29T09:14:19.000Z</time>
      </trkpt>
      <trkpt lat="47.45411" lon="6.78853">
        <ele>332</ele>
        <time>2016-05-29T09:14:20.000Z</time>
      </trkpt>
      <trkpt lat="47.45414" lon="6.78851">
        <ele>332</ele>
        <time>2016-05-29T09:14:21.000Z</time>
      </trkpt>
      <trkpt lat="47.45416" lon="6.78852">
        <ele>332</ele>
        <time>2016-05-29T09:14:22.000Z</time>
      </trkpt>
      <trkpt lat="47.4542" lon="6.78851">
        <ele>332</ele>
        <time>2016-05-29T09:14:23.000Z</time>
      </trkpt>
      <trkpt lat="47.45422" lon="6.78848">
        <ele>332</ele>
        <time>2016-05-29T09:14:24.000Z</time>
      </trkpt>
      <trkpt lat="47.45425" lon="6.78845">
        <ele>332</ele>
        <time>2016-05-29T09:14:25.000Z</time>
      </trkpt>
      <trkpt lat="47.45428" lon="6.78841">
        <ele>332</ele>
        <time>2016-05-29T09:14:26.000Z</time>
      </trkpt>
      <trkpt lat="47.4543" lon="6.78838">
        <ele>332</ele>
        <time>2016-05-29T09:14:27.000Z</time>
      </trkpt>
      <trkpt lat="47.45433" lon="6.78835">
        <ele>332</ele>
        <time>2016-05-29T09:14:28.000Z</time>
      </trkpt>
      <trkpt lat="47.45436" lon="6.78832">
        <ele>333</ele>
        <time>2016-05-29T09:14:29.000Z</time>
      </trkpt>
      <trkpt lat="47.45439" lon="6.78828">
        <ele>333</ele>
        <time>2016-05-29T09:14:30.000Z</time>
      </trkpt>
      <trkpt lat="47.45441" lon="6.78825">
        <ele>333</ele>
        <time>2016-05-29T09:14:31.000Z</time>
      </trkpt>
      <trkpt lat="47.45444" lon="6.78821">
        <ele>333</ele>
        <time>2016-05-29T09:14:32.000Z</time>
      </trkpt>
      <trkpt lat="47.45447" lon="6.78818">
        <ele>333</ele>
        <time>2016-05-29T09:14:33.000Z</time>
      </trkpt>
      <trkpt lat="47.4545" lon="6.78814">
        <ele>333</ele>
        <time>2016-05-29T09:14:34.000Z</time>
      </trkpt>
      <trkpt lat="47.45452" lon="6.78811">
        <ele>333</ele>
        <time>2016-05-29T09:14:35.000Z</time>
      </trkpt>
      <trkpt lat="47.45455" lon="6.78807">
        <ele>333</ele>
        <time>2016-05-29T09:14:36.000Z</time>
      </trkpt>
      <trkpt lat="47.45458" lon="6.78804">
        <ele>333</ele>
        <time>2016-05-29T09:14:37.000Z</time>
      </trkpt>
      <trkpt lat="47.4546" lon="6.788">
        <ele>333</ele>
        <time>2016-05-29T09:14:38.000Z</time>
      </trkpt>
      <trkpt lat="47.45463" lon="6.78796">
        <ele>333</ele>
        <time>2016-05-29T09:14:39.000Z</time>
      </trkpt>
      <trkpt lat="47.45465" lon="6.78792">
        <ele>333</ele>
        <time>2016-05-29T09:14:40.000Z</time>
      </trkpt>
      <trkpt lat="47.45468" lon="6.78788">
        <ele>333</ele>
        <time>2016-05-29T09:14:41.000Z</time>
      </trkpt>
      <trkpt lat="47.45471" lon="6.78785">
        <ele>333</ele>
        <time>2016-05-29T09:14:42.000Z</time>
      </trkpt>
      <trkpt lat="47.45475" lon="6.78782">
        <ele>334</ele>
        <time>2016-05-29T09:14:43.000Z</time>
      </trkpt>
      <trkpt lat="47.45478" lon="6.78779">
        <ele>334</ele>
        <time>2016-05-29T09:14:44.000Z</time>
      </trkpt>
      <trkpt lat="47.45481" lon="6.78776">
        <ele>334</ele>
        <time>2016-05-29T09:14:45.000Z</time>
      </trkpt>
      <trkpt lat="47.45484" lon="6.78771">
        <ele>334</ele>
        <time>2016-05-29T09:14:46.000Z</time>
      </trkpt>
      <trkpt lat="47.45486" lon="6.78768">
        <ele>334</ele>
        <time>2016-05-29T09:14:47.000Z</time>
      </trkpt>
      <trkpt lat="47.45488" lon="6.78764">
        <ele>334</ele>
        <time>2016-05-29T09:14:48.000Z</time>
      </trkpt>
      <trkpt lat="47.4549" lon="6.78761">
        <ele>334</ele>
        <time>2016-05-29T09:14:49.000Z</time>
      </trkpt>
      <trkpt lat="47.45491" lon="6.78758">
        <ele>334</ele>
        <time>2016-05-29T09:14:50.000Z</time>
      </trkpt>
      <trkpt lat="47.45492" lon="6.78755">
        <ele>334</ele>
        <time>2016-05-29T09:14:51.000Z</time>
      </trkpt>
      <trkpt lat="47.45492" lon="6.78752">
        <ele>334</ele>
        <time>2016-05-29T09:14:52.000Z</time>
      </trkpt>
      <trkpt lat="47.45491" lon="6.78747">
        <ele>335</ele>
        <time>2016-05-29T09:14:53.000Z</time>
      </trkpt>
      <trkpt lat="47.4549" lon="6.78743">
        <ele>335</ele>
        <time>2016-05-29T09:14:54.000Z</time>
      </trkpt>
      <trkpt lat="47.45488" lon="6.78738">
        <ele>335</ele>
        <time>2016-05-29T09:14:55.000Z</time>
      </trkpt>
      <trkpt lat="47.45486" lon="6.78734">
        <ele>335</ele>
        <time>2016-05-29T09:14:56.000Z</time>
      </trkpt>
      <trkpt lat="47.45482" lon="6.78729">
        <ele>335</ele>
        <time>2016-05-29T09:14:57.000Z</time>
      </trkpt>
      <trkpt lat="47.45479" lon="6.78725">
        <ele>335</ele>
        <time>2016-05-29T09:14:58.000Z</time>
      </trkpt>
      <trkpt lat="47.45476" lon="6.78721">
        <ele>335</ele>
        <time>2016-05-29T09:14:59.000Z</time>
      </trkpt>
      <trkpt lat="47.45473" lon="6.78717">
        <ele>335</ele>
        <time>2016-05-29T09:15:00.000Z</time>
      </trkpt>
      <trkpt lat="47.45471" lon="6.78712">
        <ele>335</ele>
        <time>2016-05-29T09:15:01.000Z</time>
      </trkpt>
      <trkpt lat="47.45468" lon="6.78707">
        <ele>335</ele>
        <time>2016-05-29T09:15:02.000Z</time>
      </trkpt>
      <trkpt lat="47.45466" lon="6.78703">
        <ele>335</ele>
        <time>2016-05-29T09:15:03.000Z</time>
      </trkpt>
      <trkpt lat="47.45464" lon="6.78698">
        <ele>335</ele>
        <time>2016-05-29T09:15:03.999Z</time>
      </trkpt>
      <trkpt lat="47.45462" lon="6.78695">
        <ele>335</ele>
        <time>2016-05-29T09:15:05.000Z</time>
      </trkpt>
      <trkpt lat="47.4546" lon="6.7869">
        <ele>335</ele>
        <time>2016-05-29T09:15:06.000Z</time>
      </trkpt>
      <trkpt lat="47.45456" lon="6.78685">
        <ele>335</ele>
        <time>2016-05-29T09:15:07.000Z</time>
      </trkpt>
      <trkpt lat="47.45453" lon="6.7868">
        <ele>335</ele>
        <time>2016-05-29T09:15:08.000Z</time>
      </trkpt>
      <trkpt lat="47.4545" lon="6.78674">
        <ele>335</ele>
        <time>2016-05-29T09:15:09.000Z</time>
      </trkpt>
      <trkpt lat="47.45448" lon="6.78669">
        <ele>335</ele>
        <time>2016-05-29T09:15:10.000Z</time>
      </trkpt>
      <trkpt lat="47.45446" lon="6.78665">
        <ele>337</ele>
        <time>2016-05-29T09:15:11.000Z</time>
      </trkpt>
      <trkpt lat="47.45442" lon="6.78661">
        <ele>337</ele>
        <time>2016-05-29T09:15:12.000Z</time>
      </trkpt>
      <trkpt lat="47.45439" lon="6.78654">
        <ele>337</ele>
        <time>2016-05-29T09:15:13.000Z</time>
      </trkpt>
      <trkpt lat="47.45436" lon="6.78649">
        <ele>337</ele>
        <time>2016-05-29T09:15:14.000Z</time>
      </trkpt>
      <trkpt lat="47.45433" lon="6.78644">
        <ele>337</ele>
        <time>2016-05-29T09:15:15.000Z</time>
      </trkpt>
      <trkpt lat="47.4543" lon="6.78638">
        <ele>338</ele>
        <time>2016-05-29T09:15:16.000Z</time>
      </trkpt>
      <trkpt lat="47.45427" lon="6.78634">
        <ele>338</ele>
        <time>2016-05-29T09:15:17.000Z</time>
      </trkpt>
      <trkpt lat="47.45425" lon="6.78629">
        <ele>338</ele>
        <time>2016-05-29T09:15:18.000Z</time>
      </trkpt>
      <trkpt lat="47.45422" lon="6.78624">
        <ele>338</ele>
        <time>2016-05-29T09:15:19.000Z</time>
      </trkpt>
      <trkpt lat="47.45419" lon="6.78619">
        <ele>338</ele>
        <time>2016-05-29T09:15:19.998Z</time>
      </trkpt>
      <trkpt lat="47.45417" lon="6.78616">
        <ele>338</ele>
        <time>2016-05-29T09:15:21.000Z</time>
      </trkpt>
      <trkpt lat="47.45415" lon="6.78612">
        <ele>336</ele>
        <time>2016-05-29T09:15:22.000Z</time>
      </trkpt>
      <trkpt lat="47.45413" lon="6.78605">
        <ele>337</ele>
        <time>2016-05-29T09:15:23.000Z</time>
      </trkpt>
      <trkpt lat="47.45411" lon="6.78599">
        <ele>337</ele>
        <time>2016-05-29T09:15:24.000Z</time>
      </trkpt>
      <trkpt lat="47.45408" lon="6.78593">
        <ele>337</ele>
        <time>2016-05-29T09:15:25.000Z</time>
      </trkpt>
      <trkpt lat="47.45404" lon="6.78591">
        <ele>337</ele>
        <time>2016-05-29T09:15:26.000Z</time>
      </trkpt>
      <trkpt lat="47.45402" lon="6.78586">
        <ele>337</ele>
        <time>2016-05-29T09:15:27.000Z</time>
      </trkpt>
      <trkpt lat="47.454" lon="6.7858">
        <ele>339</ele>
        <time>2016-05-29T09:15:28.000Z</time>
      </trkpt>
      <trkpt lat="47.45398" lon="6.78574">
        <ele>339</ele>
        <time>2016-05-29T09:15:29.000Z</time>
      </trkpt>
      <trkpt lat="47.45396" lon="6.7857">
        <ele>339</ele>
        <time>2016-05-29T09:15:30.000Z</time>
      </trkpt>
      <trkpt lat="47.45393" lon="6.78566">
        <ele>339</ele>
        <time>2016-05-29T09:15:31.000Z</time>
      </trkpt>
      <trkpt lat="47.4539" lon="6.78561">
        <ele>339</ele>
        <time>2016-05-29T09:15:32.000Z</time>
      </trkpt>
      <trkpt lat="47.45387" lon="6.78556">
        <ele>339</ele>
        <time>2016-05-29T09:15:33.000Z</time>
      </trkpt>
      <trkpt lat="47.45385" lon="6.78551">
        <ele>339</ele>
        <time>2016-05-29T09:15:34.000Z</time>
      </trkpt>
      <trkpt lat="47.45383" lon="6.78544">
        <ele>339</ele>
        <time>2016-05-29T09:15:35.000Z</time>
      </trkpt>
      <trkpt lat="47.45381" lon="6.78539">
        <ele>339</ele>
        <time>2016-05-29T09:15:36.000Z</time>
      </trkpt>
      <trkpt lat="47.45379" lon="6.78534">
        <ele>339</ele>
        <time>2016-05-29T09:15:37.000Z</time>
      </trkpt>
      <trkpt lat="47.45379" lon="6.78528">
        <ele>339</ele>
        <time>2016-05-29T09:15:38.000Z</time>
      </trkpt>
      <trkpt lat="47.45378" lon="6.78522">
        <ele>339</ele>
        <time>2016-05-29T09:15:39.000Z</time>
      </trkpt>
      <trkpt lat="47.45378" lon="6.78517">
        <ele>339</ele>
        <time>2016-05-29T09:15:40.000Z</time>
      </trkpt>
      <trkpt lat="47.45377" lon="6.78512">
        <ele>339</ele>
        <time>2016-05-29T09:15:41.000Z</time>
      </trkpt>
      <trkpt lat="47.45376" lon="6.78509">
        <ele>339</ele>
        <time>2016-05-29T09:15:42.000Z</time>
      </trkpt>
      <trkpt lat="47.45375" lon="6.78505">
        <ele>339</ele>
        <time>2016-05-29T09:15:43.000Z</time>
      </trkpt>
      <trkpt lat="47.45374" lon="6.78501">
        <ele>339</ele>
        <time>2016-05-29T09:15:43.999Z</time>
      </trkpt>
      <trkpt lat="47.45373" lon="6.78498">
        <ele>341</ele>
        <time>2016-05-29T09:15:45.000Z</time>
      </trkpt>
      <trkpt lat="47.45372" lon="6.78494">
        <ele>341</ele>
        <time>2016-05-29T09:15:46.000Z</time>
      </trkpt>
      <trkpt lat="47.45372" lon="6.7849">
        <ele>341</ele>
        <time>2016-05-29T09:15:47.000Z</time>
      </trkpt>
      <trkpt lat="47.45373" lon="6.78484">
        <ele>342</ele>
        <time>2016-05-29T09:15:49.000Z</time>
      </trkpt>
      <trkpt lat="47.45375" lon="6.78483">
        <ele>342</ele>
        <time>2016-05-29T09:15:50.000Z</time>
      </trkpt>
      <trkpt lat="47.45378" lon="6.78482">
        <ele>342</ele>
        <time>2016-05-29T09:15:52.000Z</time>
      </trkpt>
      <trkpt lat="47.45383" lon="6.78484">
        <ele>342</ele>
        <time>2016-05-29T09:15:53.000Z</time>
      </trkpt>
      <trkpt lat="47.45386" lon="6.78486">
        <ele>342</ele>
        <time>2016-05-29T09:15:54.000Z</time>
      </trkpt>
      <trkpt lat="47.4539" lon="6.78489">
        <ele>342</ele>
        <time>2016-05-29T09:15:55.000Z</time>
      </trkpt>
      <trkpt lat="47.45392" lon="6.7849">
        <ele>343</ele>
        <time>2016-05-29T09:15:56.001Z</time>
      </trkpt>
      <trkpt lat="47.45396" lon="6.78494">
        <ele>343</ele>
        <time>2016-05-29T09:15:57.000Z</time>
      </trkpt>
      <trkpt lat="47.454" lon="6.78497">
        <ele>343</ele>
        <time>2016-05-29T09:15:58.000Z</time>
      </trkpt>
      <trkpt lat="47.45403" lon="6.785">
        <ele>343</ele>
        <time>2016-05-29T09:15:59.000Z</time>
      </trkpt>
      <trkpt lat="47.45406" lon="6.78502">
        <ele>342</ele>
        <time>2016-05-29T09:16:00.000Z</time>
      </trkpt>
      <trkpt lat="47.45409" lon="6.78503">
        <ele>342</ele>
        <time>2016-05-29T09:16:01.000Z</time>
      </trkpt>
      <trkpt lat="47.45412" lon="6.78505">
        <ele>343</ele>
        <time>2016-05-29T09:16:02.000Z</time>
      </trkpt>
      <trkpt lat="47.45415" lon="6.78506">
        <ele>343</ele>
        <time>2016-05-29T09:16:03.000Z</time>
      </trkpt>
      <trkpt lat="47.45418" lon="6.78508">
        <ele>344</ele>
        <time>2016-05-29T09:16:04.000Z</time>
      </trkpt>
      <trkpt lat="47.45421" lon="6.78509">
        <ele>344</ele>
        <time>2016-05-29T09:16:05.000Z</time>
      </trkpt>
      <trkpt lat="47.45424" lon="6.78511">
        <ele>344</ele>
        <time>2016-05-29T09:16:06.000Z</time>
      </trkpt>
      <trkpt lat="47.45427" lon="6.78511">
        <ele>344</ele>
        <time>2016-05-29T09:16:07.000Z</time>
      </trkpt>
      <trkpt lat="47.4543" lon="6.78512">
        <ele>344</ele>
        <time>2016-05-29T09:16:08.000Z</time>
      </trkpt>
      <trkpt lat="47.45434" lon="6.78512">
        <ele>344</ele>
        <time>2016-05-29T09:16:09.000Z</time>
      </trkpt>
      <trkpt lat="47.45437" lon="6.78511">
        <ele>344</ele>
        <time>2016-05-29T09:16:10.000Z</time>
      </trkpt>
      <trkpt lat="47.45441" lon="6.7851">
        <ele>344</ele>
        <time>2016-05-29T09:16:11.000Z</time>
      </trkpt>
      <trkpt lat="47.45444" lon="6.7851">
        <ele>344</ele>
        <time>2016-05-29T09:16:12.000Z</time>
      </trkpt>
      <trkpt lat="47.45447" lon="6.7851">
        <ele>344</ele>
        <time>2016-05-29T09:16:12.999Z</time>
      </trkpt>
      <trkpt lat="47.4545" lon="6.78509">
        <ele>344</ele>
        <time>2016-05-29T09:16:14.000Z</time>
      </trkpt>
      <trkpt lat="47.45453" lon="6.78508">
        <ele>344</ele>
        <time>2016-05-29T09:16:15.000Z</time>
      </trkpt>
      <trkpt lat="47.45456" lon="6.78506">
        <ele>344</ele>
        <time>2016-05-29T09:16:16.000Z</time>
      </trkpt>
      <trkpt lat="47.45458" lon="6.78505">
        <ele>344</ele>
        <time>2016-05-29T09:16:16.999Z</time>
      </trkpt>
      <trkpt lat="47.45461" lon="6.78504">
        <ele>345</ele>
        <time>2016-05-29T09:16:18.000Z</time>
      </trkpt>
      <trkpt lat="47.45463" lon="6.78502">
        <ele>345</ele>
        <time>2016-05-29T09:16:19.000Z</time>
      </trkpt>
      <trkpt lat="47.45466" lon="6.785">
        <ele>345</ele>
        <time>2016-05-29T09:16:20.000Z</time>
      </trkpt>
      <trkpt lat="47.45468" lon="6.78497">
        <ele>347</ele>
        <time>2016-05-29T09:16:21.000Z</time>
      </trkpt>
      <trkpt lat="47.4547" lon="6.78494">
        <ele>347</ele>
        <time>2016-05-29T09:16:22.000Z</time>
      </trkpt>
      <trkpt lat="47.45472" lon="6.78492">
        <ele>348</ele>
        <time>2016-05-29T09:16:23.000Z</time>
      </trkpt>
      <trkpt lat="47.45475" lon="6.7849">
        <ele>348</ele>
        <time>2016-05-29T09:16:24.000Z</time>
      </trkpt>
      <trkpt lat="47.45477" lon="6.78488">
        <ele>348</ele>
        <time>2016-05-29T09:16:25.000Z</time>
      </trkpt>
      <trkpt lat="47.4548" lon="6.78487">
        <ele>348</ele>
        <time>2016-05-29T09:16:26.000Z</time>
      </trkpt>
      <trkpt lat="47.45483" lon="6.78485">
        <ele>348</ele>
        <time>2016-05-29T09:16:27.000Z</time>
      </trkpt>
      <trkpt lat="47.45485" lon="6.78482">
        <ele>348</ele>
        <time>2016-05-29T09:16:28.000Z</time>
      </trkpt>
      <trkpt lat="47.45488" lon="6.78479">
        <ele>348</ele>
        <time>2016-05-29T09:16:29.000Z</time>
      </trkpt>
      <trkpt lat="47.45491" lon="6.78477">
        <ele>348</ele>
        <time>2016-05-29T09:16:30.000Z</time>
      </trkpt>
      <trkpt lat="47.45493" lon="6.78474">
        <ele>348</ele>
        <time>2016-05-29T09:16:31.001Z</time>
      </trkpt>
      <trkpt lat="47.45496" lon="6.78471">
        <ele>348</ele>
        <time>2016-05-29T09:16:32.000Z</time>
      </trkpt>
      <trkpt lat="47.45499" lon="6.78468">
        <ele>348</ele>
        <time>2016-05-29T09:16:33.000Z</time>
      </trkpt>
      <trkpt lat="47.45501" lon="6.78466">
        <ele>350</ele>
        <time>2016-05-29T09:16:34.000Z</time>
      </trkpt>
      <trkpt lat="47.45503" lon="6.78464">
        <ele>350</ele>
        <time>2016-05-29T09:16:35.000Z</time>
      </trkpt>
      <trkpt lat="47.45505" lon="6.78457">
        <ele>351</ele>
        <time>2016-05-29T09:16:36.000Z</time>
      </trkpt>
      <trkpt lat="47.45508" lon="6.78451">
        <ele>351</ele>
        <time>2016-05-29T09:16:37.000Z</time>
      </trkpt>
      <trkpt lat="47.4551" lon="6.7845">
        <ele>351</ele>
        <time>2016-05-29T09:16:38.000Z</time>
      </trkpt>
      <trkpt lat="47.45513" lon="6.78449">
        <ele>351</ele>
        <time>2016-05-29T09:16:39.000Z</time>
      </trkpt>
      <trkpt lat="47.45515" lon="6.78445">
        <ele>351</ele>
        <time>2016-05-29T09:16:40.000Z</time>
      </trkpt>
      <trkpt lat="47.45519" lon="6.78443">
        <ele>351</ele>
        <time>2016-05-29T09:16:41.000Z</time>
      </trkpt>
      <trkpt lat="47.45522" lon="6.78442">
        <ele>351</ele>
        <time>2016-05-29T09:16:42.000Z</time>
      </trkpt>
      <trkpt lat="47.45525" lon="6.7844">
        <ele>351</ele>
        <time>2016-05-29T09:16:43.000Z</time>
      </trkpt>
      <trkpt lat="47.45528" lon="6.78439">
        <ele>351</ele>
        <time>2016-05-29T09:16:44.000Z</time>
      </trkpt>
      <trkpt lat="47.45531" lon="6.7844">
        <ele>351</ele>
        <time>2016-05-29T09:16:45.000Z</time>
      </trkpt>
      <trkpt lat="47.45534" lon="6.78439">
        <ele>351</ele>
        <time>2016-05-29T09:16:46.000Z</time>
      </trkpt>
      <trkpt lat="47.45539" lon="6.78431">
        <ele>352</ele>
        <time>2016-05-29T09:16:47.000Z</time>
      </trkpt>
      <trkpt lat="47.45542" lon="6.78436">
        <ele>352</ele>
        <time>2016-05-29T09:16:48.000Z</time>
      </trkpt>
      <trkpt lat="47.45544" lon="6.78434">
        <ele>352</ele>
        <time>2016-05-29T09:16:49.000Z</time>
      </trkpt>
      <trkpt lat="47.45546" lon="6.78433">
        <ele>352</ele>
        <time>2016-05-29T09:16:50.000Z</time>
      </trkpt>
      <trkpt lat="47.4555" lon="6.78433">
        <ele>352</ele>
        <time>2016-05-29T09:16:51.000Z</time>
      </trkpt>
      <trkpt lat="47.45554" lon="6.7843">
        <ele>352</ele>
        <time>2016-05-29T09:16:52.000Z</time>
      </trkpt>
      <trkpt lat="47.45558" lon="6.78427">
        <ele>352</ele>
        <time>2016-05-29T09:16:52.999Z</time>
      </trkpt>
      <trkpt lat="47.45561" lon="6.78426">
        <ele>352</ele>
        <time>2016-05-29T09:16:54.000Z</time>
      </trkpt>
      <trkpt lat="47.45563" lon="6.78422">
        <ele>352</ele>
        <time>2016-05-29T09:16:55.000Z</time>
      </trkpt>
      <trkpt lat="47.45566" lon="6.78421">
        <ele>353</ele>
        <time>2016-05-29T09:16:56.000Z</time>
      </trkpt>
      <trkpt lat="47.4557" lon="6.78419">
        <ele>353</ele>
        <time>2016-05-29T09:16:57.000Z</time>
      </trkpt>
      <trkpt lat="47.45573" lon="6.78417">
        <ele>353</ele>
        <time>2016-05-29T09:16:58.000Z</time>
      </trkpt>
      <trkpt lat="47.45576" lon="6.78416">
        <ele>354</ele>
        <time>2016-05-29T09:16:59.000Z</time>
      </trkpt>
      <trkpt lat="47.45578" lon="6.78413">
        <ele>354</ele>
        <time>2016-05-29T09:17:00.000Z</time>
      </trkpt>
      <trkpt lat="47.45581" lon="6.78411">
        <ele>354</ele>
        <time>2016-05-29T09:17:01.000Z</time>
      </trkpt>
      <trkpt lat="47.45584" lon="6.78409">
        <ele>354</ele>
        <time>2016-05-29T09:17:02.000Z</time>
      </trkpt>
      <trkpt lat="47.45586" lon="6.78407">
        <ele>354</ele>
        <time>2016-05-29T09:17:03.001Z</time>
      </trkpt>
      <trkpt lat="47.45589" lon="6.78408">
        <ele>354</ele>
        <time>2016-05-29T09:17:04.000Z</time>
      </trkpt>
      <trkpt lat="47.45592" lon="6.78407">
        <ele>354</ele>
        <time>2016-05-29T09:17:05.000Z</time>
      </trkpt>
      <trkpt lat="47.45595" lon="6.78406">
        <ele>355</ele>
        <time>2016-05-29T09:17:06.000Z</time>
      </trkpt>
      <trkpt lat="47.45598" lon="6.78404">
        <ele>355</ele>
        <time>2016-05-29T09:17:07.001Z</time>
      </trkpt>
      <trkpt lat="47.45602" lon="6.78404">
        <ele>355</ele>
        <time>2016-05-29T09:17:08.000Z</time>
      </trkpt>
      <trkpt lat="47.45604" lon="6.78404">
        <ele>355</ele>
        <time>2016-05-29T09:17:09.000Z</time>
      </trkpt>
      <trkpt lat="47.45607" lon="6.78403">
        <ele>355</ele>
        <time>2016-05-29T09:17:10.000Z</time>
      </trkpt>
      <trkpt lat="47.4561" lon="6.78402">
        <ele>355</ele>
        <time>2016-05-29T09:17:11.000Z</time>
      </trkpt>
      <trkpt lat="47.45613" lon="6.78401">
        <ele>355</ele>
        <time>2016-05-29T09:17:12.000Z</time>
      </trkpt>
      <trkpt lat="47.45616" lon="6.784">
        <ele>355</ele>
        <time>2016-05-29T09:17:13.000Z</time>
      </trkpt>
      <trkpt lat="47.45618" lon="6.78399">
        <ele>355</ele>
        <time>2016-05-29T09:17:14.000Z</time>
      </trkpt>
      <trkpt lat="47.45621" lon="6.78398">
        <ele>355</ele>
        <time>2016-05-29T09:17:15.000Z</time>
      </trkpt>
      <trkpt lat="47.45624" lon="6.78396">
        <ele>355</ele>
        <time>2016-05-29T09:17:16.001Z</time>
      </trkpt>
      <trkpt lat="47.45627" lon="6.78395">
        <ele>355</ele>
        <time>2016-05-29T09:17:17.000Z</time>
      </trkpt>
      <trkpt lat="47.4563" lon="6.78394">
        <ele>355</ele>
        <time>2016-05-29T09:17:18.000Z</time>
      </trkpt>
      <trkpt lat="47.45633" lon="6.78393">
        <ele>355</ele>
        <time>2016-05-29T09:17:19.000Z</time>
      </trkpt>
      <trkpt lat="47.45636" lon="6.78392">
        <ele>355</ele>
        <time>2016-05-29T09:17:19.999Z</time>
      </trkpt>
      <trkpt lat="47.45639" lon="6.78392">
        <ele>355</ele>
        <time>2016-05-29T09:17:21.000Z</time>
      </trkpt>
      <trkpt lat="47.45642" lon="6.78392">
        <ele>355</ele>
        <time>2016-05-29T09:17:22.000Z</time>
      </trkpt>
      <trkpt lat="47.45645" lon="6.78392">
        <ele>355</ele>
        <time>2016-05-29T09:17:23.000Z</time>
      </trkpt>
      <trkpt lat="47.45648" lon="6.78391">
        <ele>356</ele>
        <time>2016-05-29T09:17:24.000Z</time>
      </trkpt>
      <trkpt lat="47.45652" lon="6.78392">
        <ele>356</ele>
        <time>2016-05-29T09:17:25.000Z</time>
      </trkpt>
      <trkpt lat="47.45655" lon="6.78391">
        <ele>356</ele>
        <time>2016-05-29T09:17:26.000Z</time>
      </trkpt>
      <trkpt lat="47.45658" lon="6.78391">
        <ele>356</ele>
        <time>2016-05-29T09:17:27.000Z</time>
      </trkpt>
      <trkpt lat="47.45661" lon="6.7839">
        <ele>356</ele>
        <time>2016-05-29T09:17:28.000Z</time>
      </trkpt>
      <trkpt lat="47.45664" lon="6.7839">
        <ele>356</ele>
        <time>2016-05-29T09:17:29.000Z</time>
      </trkpt>
      <trkpt lat="47.45668" lon="6.78389">
        <ele>358</ele>
        <time>2016-05-29T09:17:30.000Z</time>
      </trkpt>
      <trkpt lat="47.45671" lon="6.78388">
        <ele>358</ele>
        <time>2016-05-29T09:17:31.000Z</time>
      </trkpt>
      <trkpt lat="47.45675" lon="6.78387">
        <ele>358</ele>
        <time>2016-05-29T09:17:32.000Z</time>
      </trkpt>
      <trkpt lat="47.45678" lon="6.78386">
        <ele>358</ele>
        <time>2016-05-29T09:17:33.000Z</time>
      </trkpt>
      <trkpt lat="47.45681" lon="6.78385">
        <ele>358</ele>
        <time>2016-05-29T09:17:34.000Z</time>
      </trkpt>
      <trkpt lat="47.45684" lon="6.78384">
        <ele>358</ele>
        <time>2016-05-29T09:17:35.001Z</time>
      </trkpt>
      <trkpt lat="47.45687" lon="6.78384">
        <ele>358</ele>
        <time>2016-05-29T09:17:36.000Z</time>
      </trkpt>
      <trkpt lat="47.4569" lon="6.78383">
        <ele>358</ele>
        <time>2016-05-29T09:17:37.000Z</time>
      </trkpt>
      <trkpt lat="47.45694" lon="6.78381">
        <ele>358</ele>
        <time>2016-05-29T09:17:38.000Z</time>
      </trkpt>
      <trkpt lat="47.45697" lon="6.7838">
        <ele>359</ele>
        <time>2016-05-29T09:17:39.000Z</time>
      </trkpt>
      <trkpt lat="47.457" lon="6.7838">
        <ele>359</ele>
        <time>2016-05-29T09:17:40.000Z</time>
      </trkpt>
      <trkpt lat="47.45703" lon="6.78379">
        <ele>359</ele>
        <time>2016-05-29T09:17:41.000Z</time>
      </trkpt>
      <trkpt lat="47.45708" lon="6.78381">
        <ele>359</ele>
        <time>2016-05-29T09:17:42.000Z</time>
      </trkpt>
      <trkpt lat="47.45712" lon="6.78381">
        <ele>359</ele>
        <time>2016-05-29T09:17:43.000Z</time>
      </trkpt>
      <trkpt lat="47.45715" lon="6.78382">
        <ele>359</ele>
        <time>2016-05-29T09:17:44.000Z</time>
      </trkpt>
      <trkpt lat="47.45718" lon="6.78383">
        <ele>359</ele>
        <time>2016-05-29T09:17:45.000Z</time>
      </trkpt>
      <trkpt lat="47.45721" lon="6.78384">
        <ele>359</ele>
        <time>2016-05-29T09:17:46.000Z</time>
      </trkpt>
      <trkpt lat="47.45724" lon="6.78384">
        <ele>359</ele>
        <time>2016-05-29T09:17:47.000Z</time>
      </trkpt>
      <trkpt lat="47.45728" lon="6.78385">
        <ele>359</ele>
        <time>2016-05-29T09:17:48.000Z</time>
      </trkpt>
      <trkpt lat="47.45732" lon="6.78383">
        <ele>360</ele>
        <time>2016-05-29T09:17:49.000Z</time>
      </trkpt>
      <trkpt lat="47.45735" lon="6.78383">
        <ele>360</ele>
        <time>2016-05-29T09:17:50.000Z</time>
      </trkpt>
      <trkpt lat="47.45739" lon="6.78385">
        <ele>360</ele>
        <time>2016-05-29T09:17:52.000Z</time>
      </trkpt>
      <trkpt lat="47.45741" lon="6.78387">
        <ele>360</ele>
        <time>2016-05-29T09:17:53.000Z</time>
      </trkpt>
      <trkpt lat="47.45744" lon="6.78388">
        <ele>360</ele>
        <time>2016-05-29T09:17:54.000Z</time>
      </trkpt>
      <trkpt lat="47.45747" lon="6.78389">
        <ele>360</ele>
        <time>2016-05-29T09:17:55.000Z</time>
      </trkpt>
      <trkpt lat="47.45749" lon="6.7839">
        <ele>360</ele>
        <time>2016-05-29T09:17:56.000Z</time>
      </trkpt>
      <trkpt lat="47.45752" lon="6.78391">
        <ele>364</ele>
        <time>2016-05-29T09:17:57.000Z</time>
      </trkpt>
      <trkpt lat="47.45755" lon="6.7839">
        <ele>364</ele>
        <time>2016-05-29T09:17:59.000Z</time>
      </trkpt>
      <trkpt lat="47.45757" lon="6.7839">
        <ele>365</ele>
        <time>2016-05-29T09:18:00.000Z</time>
      </trkpt>
      <trkpt lat="47.45761" lon="6.78391">
        <ele>365</ele>
        <time>2016-05-29T09:18:02.000Z</time>
      </trkpt>
      <trkpt lat="47.45763" lon="6.78392">
        <ele>365</ele>
        <time>2016-05-29T09:18:03.000Z</time>
      </trkpt>
      <trkpt lat="47.45766" lon="6.78394">
        <ele>365</ele>
        <time>2016-05-29T09:18:04.000Z</time>
      </trkpt>
      <trkpt lat="47.45768" lon="6.78395">
        <ele>365</ele>
        <time>2016-05-29T09:18:05.000Z</time>
      </trkpt>
      <trkpt lat="47.4577" lon="6.78397">
        <ele>365</ele>
        <time>2016-05-29T09:18:06.000Z</time>
      </trkpt>
      <trkpt lat="47.45772" lon="6.78399">
        <ele>365</ele>
        <time>2016-05-29T09:18:07.000Z</time>
      </trkpt>
      <trkpt lat="47.45775" lon="6.784">
        <ele>365</ele>
        <time>2016-05-29T09:18:08.000Z</time>
      </trkpt>
      <trkpt lat="47.45777" lon="6.78403">
        <ele>365</ele>
        <time>2016-05-29T09:18:09.000Z</time>
      </trkpt>
      <trkpt lat="47.45779" lon="6.78405">
        <ele>365</ele>
        <time>2016-05-29T09:18:10.000Z</time>
      </trkpt>
      <trkpt lat="47.45782" lon="6.78407">
        <ele>366</ele>
        <time>2016-05-29T09:18:11.000Z</time>
      </trkpt>
      <trkpt lat="47.45785" lon="6.78409">
        <ele>366</ele>
        <time>2016-05-29T09:18:12.000Z</time>
      </trkpt>
      <trkpt lat="47.45788" lon="6.78411">
        <ele>366</ele>
        <time>2016-05-29T09:18:13.000Z</time>
      </trkpt>
      <trkpt lat="47.45791" lon="6.78415">
        <ele>367</ele>
        <time>2016-05-29T09:18:15.000Z</time>
      </trkpt>
      <trkpt lat="47.45793" lon="6.78417">
        <ele>365</ele>
        <time>2016-05-29T09:18:16.000Z</time>
      </trkpt>
      <trkpt lat="47.45796" lon="6.78419">
        <ele>365</ele>
        <time>2016-05-29T09:18:18.000Z</time>
      </trkpt>
      <trkpt lat="47.45799" lon="6.78421">
        <ele>365</ele>
        <time>2016-05-29T09:18:19.000Z</time>
      </trkpt>
      <trkpt lat="47.45801" lon="6.78422">
        <ele>366</ele>
        <time>2016-05-29T09:18:20.000Z</time>
      </trkpt>
      <trkpt lat="47.45804" lon="6.78423">
        <ele>366</ele>
        <time>2016-05-29T09:18:21.001Z</time>
      </trkpt>
      <trkpt lat="47.45806" lon="6.78425">
        <ele>366</ele>
        <time>2016-05-29T09:18:22.000Z</time>
      </trkpt>
      <trkpt lat="47.45808" lon="6.78426">
        <ele>366</ele>
        <time>2016-05-29T09:18:23.000Z</time>
      </trkpt>
      <trkpt lat="47.4581" lon="6.78429">
        <ele>366</ele>
        <time>2016-05-29T09:18:24.000Z</time>
      </trkpt>
      <trkpt lat="47.45812" lon="6.78431">
        <ele>367</ele>
        <time>2016-05-29T09:18:25.000Z</time>
      </trkpt>
      <trkpt lat="47.45814" lon="6.78434">
        <ele>367</ele>
        <time>2016-05-29T09:18:26.000Z</time>
      </trkpt>
      <trkpt lat="47.45816" lon="6.78436">
        <ele>367</ele>
        <time>2016-05-29T09:18:26.999Z</time>
      </trkpt>
      <trkpt lat="47.45819" lon="6.78439">
        <ele>367</ele>
        <time>2016-05-29T09:18:28.000Z</time>
      </trkpt>
      <trkpt lat="47.45821" lon="6.78442">
        <ele>367</ele>
        <time>2016-05-29T09:18:29.000Z</time>
      </trkpt>
      <trkpt lat="47.45824" lon="6.78445">
        <ele>367</ele>
        <time>2016-05-29T09:18:30.000Z</time>
      </trkpt>
      <trkpt lat="47.45826" lon="6.78448">
        <ele>366</ele>
        <time>2016-05-29T09:18:31.000Z</time>
      </trkpt>
      <trkpt lat="47.45828" lon="6.78451">
        <ele>366</ele>
        <time>2016-05-29T09:18:32.000Z</time>
      </trkpt>
      <trkpt lat="47.4583" lon="6.78453">
        <ele>366</ele>
        <time>2016-05-29T09:18:33.000Z</time>
      </trkpt>
      <trkpt lat="47.45832" lon="6.78455">
        <ele>366</ele>
        <time>2016-05-29T09:18:34.000Z</time>
      </trkpt>
      <trkpt lat="47.45834" lon="6.78456">
        <ele>374</ele>
        <time>2016-05-29T09:18:35.000Z</time>
      </trkpt>
      <trkpt lat="47.45836" lon="6.78458">
        <ele>374</ele>
        <time>2016-05-29T09:18:36.000Z</time>
      </trkpt>
      <trkpt lat="47.45838" lon="6.7846">
        <ele>374</ele>
        <time>2016-05-29T09:18:37.000Z</time>
      </trkpt>
      <trkpt lat="47.45841" lon="6.78463">
        <ele>374</ele>
        <time>2016-05-29T09:18:39.000Z</time>
      </trkpt>
      <trkpt lat="47.45842" lon="6.78464">
        <ele>374</ele>
        <time>2016-05-29T09:18:40.000Z</time>
      </trkpt>
      <trkpt lat="47.45845" lon="6.78468">
        <ele>374</ele>
        <time>2016-05-29T09:18:42.000Z</time>
      </trkpt>
      <trkpt lat="47.45847" lon="6.7847">
        <ele>374</ele>
        <time>2016-05-29T09:18:43.000Z</time>
      </trkpt>
      <trkpt lat="47.45849" lon="6.78472">
        <ele>374</ele>
        <time>2016-05-29T09:18:44.000Z</time>
      </trkpt>
      <trkpt lat="47.45851" lon="6.78474">
        <ele>374</ele>
        <time>2016-05-29T09:18:45.001Z</time>
      </trkpt>
      <trkpt lat="47.45853" lon="6.78476">
        <ele>374</ele>
        <time>2016-05-29T09:18:46.000Z</time>
      </trkpt>
      <trkpt lat="47.45856" lon="6.78477">
        <ele>375</ele>
        <time>2016-05-29T09:18:47.000Z</time>
      </trkpt>
      <trkpt lat="47.45858" lon="6.78479">
        <ele>375</ele>
        <time>2016-05-29T09:18:48.000Z</time>
      </trkpt>
      <trkpt lat="47.45861" lon="6.78481">
        <ele>375</ele>
        <time>2016-05-29T09:18:49.000Z</time>
      </trkpt>
      <trkpt lat="47.45863" lon="6.78483">
        <ele>375</ele>
        <time>2016-05-29T09:18:49.999Z</time>
      </trkpt>
      <trkpt lat="47.45865" lon="6.78484">
        <ele>375</ele>
        <time>2016-05-29T09:18:51.000Z</time>
      </trkpt>
      <trkpt lat="47.45867" lon="6.78486">
        <ele>375</ele>
        <time>2016-05-29T09:18:52.000Z</time>
      </trkpt>
      <trkpt lat="47.45869" lon="6.78488">
        <ele>376</ele>
        <time>2016-05-29T09:18:53.000Z</time>
      </trkpt>
      <trkpt lat="47.45871" lon="6.7849">
        <ele>376</ele>
        <time>2016-05-29T09:18:54.000Z</time>
      </trkpt>
      <trkpt lat="47.45873" lon="6.78492">
        <ele>376</ele>
        <time>2016-05-29T09:18:55.000Z</time>
      </trkpt>
      <trkpt lat="47.45876" lon="6.78495">
        <ele>376</ele>
        <time>2016-05-29T09:18:56.000Z</time>
      </trkpt>
      <trkpt lat="47.45878" lon="6.78497">
        <ele>377</ele>
        <time>2016-05-29T09:18:57.000Z</time>
      </trkpt>
      <trkpt lat="47.4588" lon="6.78499">
        <ele>377</ele>
        <time>2016-05-29T09:18:58.000Z</time>
      </trkpt>
      <trkpt lat="47.45882" lon="6.78501">
        <ele>375</ele>
        <time>2016-05-29T09:18:59.000Z</time>
      </trkpt>
      <trkpt lat="47.45886" lon="6.78504">
        <ele>376</ele>
        <time>2016-05-29T09:19:01.000Z</time>
      </trkpt>
      <trkpt lat="47.45888" lon="6.78506">
        <ele>376</ele>
        <time>2016-05-29T09:19:02.000Z</time>
      </trkpt>
      <trkpt lat="47.4589" lon="6.7851">
        <ele>376</ele>
        <time>2016-05-29T09:19:04.000Z</time>
      </trkpt>
      <trkpt lat="47.45892" lon="6.78513">
        <ele>376</ele>
        <time>2016-05-29T09:19:05.000Z</time>
      </trkpt>
      <trkpt lat="47.45894" lon="6.78515">
        <ele>377</ele>
        <time>2016-05-29T09:19:06.000Z</time>
      </trkpt>
      <trkpt lat="47.45896" lon="6.78517">
        <ele>377</ele>
        <time>2016-05-29T09:19:07.000Z</time>
      </trkpt>
      <trkpt lat="47.45897" lon="6.7852">
        <ele>377</ele>
        <time>2016-05-29T09:19:08.000Z</time>
      </trkpt>
      <trkpt lat="47.45899" lon="6.78522">
        <ele>377</ele>
        <time>2016-05-29T09:19:09.000Z</time>
      </trkpt>
      <trkpt lat="47.45901" lon="6.78525">
        <ele>377</ele>
        <time>2016-05-29T09:19:10.000Z</time>
      </trkpt>
      <trkpt lat="47.45903" lon="6.78527">
        <ele>377</ele>
        <time>2016-05-29T09:19:11.000Z</time>
      </trkpt>
      <trkpt lat="47.45905" lon="6.7853">
        <ele>377</ele>
        <time>2016-05-29T09:19:12.001Z</time>
      </trkpt>
      <trkpt lat="47.45906" lon="6.78533">
        <ele>377</ele>
        <time>2016-05-29T09:19:13.000Z</time>
      </trkpt>
      <trkpt lat="47.45908" lon="6.78535">
        <ele>377</ele>
        <time>2016-05-29T09:19:14.000Z</time>
      </trkpt>
      <trkpt lat="47.4591" lon="6.78537">
        <ele>377</ele>
        <time>2016-05-29T09:19:15.000Z</time>
      </trkpt>
      <trkpt lat="47.45913" lon="6.7854">
        <ele>377</ele>
        <time>2016-05-29T09:19:18.000Z</time>
      </trkpt>
      <trkpt lat="47.45914" lon="6.78542">
        <ele>377</ele>
        <time>2016-05-29T09:19:19.000Z</time>
      </trkpt>
      <trkpt lat="47.45918" lon="6.78542">
        <ele>386</ele>
        <time>2016-05-29T09:19:22.000Z</time>
      </trkpt>
      <trkpt lat="47.4592" lon="6.78541">
        <ele>386</ele>
        <time>2016-05-29T09:19:23.000Z</time>
      </trkpt>
      <trkpt lat="47.45923" lon="6.7854">
        <ele>386</ele>
        <time>2016-05-29T09:19:25.000Z</time>
      </trkpt>
      <trkpt lat="47.45926" lon="6.7854">
        <ele>386</ele>
        <time>2016-05-29T09:19:26.000Z</time>
      </trkpt>
      <trkpt lat="47.4593" lon="6.78539">
        <ele>387</ele>
        <time>2016-05-29T09:19:28.000Z</time>
      </trkpt>
      <trkpt lat="47.45932" lon="6.78539">
        <ele>387</ele>
        <time>2016-05-29T09:19:28.999Z</time>
      </trkpt>
      <trkpt lat="47.45934" lon="6.78536">
        <ele>387</ele>
        <time>2016-05-29T09:19:30.000Z</time>
      </trkpt>
      <trkpt lat="47.45936" lon="6.78534">
        <ele>387</ele>
        <time>2016-05-29T09:19:31.000Z</time>
      </trkpt>
      <trkpt lat="47.45939" lon="6.7853">
        <ele>387</ele>
        <time>2016-05-29T09:19:33.000Z</time>
      </trkpt>
      <trkpt lat="47.4594" lon="6.78528">
        <ele>388</ele>
        <time>2016-05-29T09:19:34.000Z</time>
      </trkpt>
      <trkpt lat="47.45942" lon="6.78522">
        <ele>388</ele>
        <time>2016-05-29T09:19:36.000Z</time>
      </trkpt>
      <trkpt lat="47.45942" lon="6.78518">
        <ele>388</ele>
        <time>2016-05-29T09:19:37.000Z</time>
      </trkpt>
      <trkpt lat="47.45942" lon="6.78515">
        <ele>388</ele>
        <time>2016-05-29T09:19:38.000Z</time>
      </trkpt>
      <trkpt lat="47.45941" lon="6.78512">
        <ele>387</ele>
        <time>2016-05-29T09:19:39.000Z</time>
      </trkpt>
      <trkpt lat="47.45939" lon="6.78507">
        <ele>387</ele>
        <time>2016-05-29T09:19:41.000Z</time>
      </trkpt>
      <trkpt lat="47.45937" lon="6.78505">
        <ele>387</ele>
        <time>2016-05-29T09:19:42.000Z</time>
      </trkpt>
      <trkpt lat="47.45935" lon="6.785">
        <ele>386</ele>
        <time>2016-05-29T09:19:44.001Z</time>
      </trkpt>
      <trkpt lat="47.45936" lon="6.78496">
        <ele>388</ele>
        <time>2016-05-29T09:19:45.000Z</time>
      </trkpt>
      <trkpt lat="47.45935" lon="6.78492">
        <ele>388</ele>
        <time>2016-05-29T09:19:46.000Z</time>
      </trkpt>
      <trkpt lat="47.45935" lon="6.78489">
        <ele>388</ele>
        <time>2016-05-29T09:19:47.000Z</time>
      </trkpt>
      <trkpt lat="47.45934" lon="6.78483">
        <ele>389</ele>
        <time>2016-05-29T09:19:49.000Z</time>
      </trkpt>
      <trkpt lat="47.45934" lon="6.7848">
        <ele>389</ele>
        <time>2016-05-29T09:19:50.000Z</time>
      </trkpt>
      <trkpt lat="47.45935" lon="6.78474">
        <ele>390</ele>
        <time>2016-05-29T09:19:52.000Z</time>
      </trkpt>
      <trkpt lat="47.45935" lon="6.78472">
        <ele>390</ele>
        <time>2016-05-29T09:19:53.000Z</time>
      </trkpt>
      <trkpt lat="47.45937" lon="6.78467">
        <ele>390</ele>
        <time>2016-05-29T09:19:55.000Z</time>
      </trkpt>
      <trkpt lat="47.45938" lon="6.78464">
        <ele>391</ele>
        <time>2016-05-29T09:19:56.000Z</time>
      </trkpt>
      <trkpt lat="47.4594" lon="6.78459">
        <ele>391</ele>
        <time>2016-05-29T09:19:59.000Z</time>
      </trkpt>
      <trkpt lat="47.45941" lon="6.78458">
        <ele>391</ele>
        <time>2016-05-29T09:20:00.000Z</time>
      </trkpt>
      <trkpt lat="47.45944" lon="6.78455">
        <ele>391</ele>
        <time>2016-05-29T09:20:03.000Z</time>
      </trkpt>
      <trkpt lat="47.45945" lon="6.78454">
        <ele>392</ele>
        <time>2016-05-29T09:20:04.000Z</time>
      </trkpt>
      <trkpt lat="47.45949" lon="6.78452">
        <ele>392</ele>
        <time>2016-05-29T09:20:06.000Z</time>
      </trkpt>
      <trkpt lat="47.45951" lon="6.7845">
        <ele>392</ele>
        <time>2016-05-29T09:20:07.000Z</time>
      </trkpt>
      <trkpt lat="47.45953" lon="6.78446">
        <ele>393</ele>
        <time>2016-05-29T09:20:09.000Z</time>
      </trkpt>
      <trkpt lat="47.45955" lon="6.78443">
        <ele>393</ele>
        <time>2016-05-29T09:20:10.000Z</time>
      </trkpt>
      <trkpt lat="47.45957" lon="6.78438">
        <ele>393</ele>
        <time>2016-05-29T09:20:14.000Z</time>
      </trkpt>
      <trkpt lat="47.45958" lon="6.78438">
        <ele>393</ele>
        <time>2016-05-29T09:20:15.000Z</time>
      </trkpt>
      <trkpt lat="47.45961" lon="6.78442">
        <ele>393</ele>
        <time>2016-05-29T09:20:23.000Z</time>
      </trkpt>
      <trkpt lat="47.45961" lon="6.78443">
        <ele>393</ele>
        <time>2016-05-29T09:20:24.000Z</time>
      </trkpt>
      <trkpt lat="47.45963" lon="6.78448">
        <ele>393</ele>
        <time>2016-05-29T09:20:28.000Z</time>
      </trkpt>
      <trkpt lat="47.45963" lon="6.78449">
        <ele>393</ele>
        <time>2016-05-29T09:20:29.000Z</time>
      </trkpt>
      <trkpt lat="47.45964" lon="6.78455">
        <ele>393</ele>
        <time>2016-05-29T09:20:34.000Z</time>
      </trkpt>
      <trkpt lat="47.45964" lon="6.78456">
        <ele>393</ele>
        <time>2016-05-29T09:20:35.000Z</time>
      </trkpt>
      <trkpt lat="47.45966" lon="6.78461">
        <ele>393</ele>
        <time>2016-05-29T09:20:39.000Z</time>
      </trkpt>
      <trkpt lat="47.45966" lon="6.78462">
        <ele>393</ele>
        <time>2016-05-29T09:20:40.000Z</time>
      </trkpt>
      <trkpt lat="47.45967" lon="6.78467">
        <ele>393</ele>
        <time>2016-05-29T09:20:43.000Z</time>
      </trkpt>
      <trkpt lat="47.45967" lon="6.78469">
        <ele>393</ele>
        <time>2016-05-29T09:20:44.000Z</time>
      </trkpt>
      <trkpt lat="47.4597" lon="6.78472">
        <ele>394</ele>
        <time>2016-05-29T09:20:46.000Z</time>
      </trkpt>
      <trkpt lat="47.45971" lon="6.78473">
        <ele>394</ele>
        <time>2016-05-29T09:20:47.000Z</time>
      </trkpt>
      <trkpt lat="47.45975" lon="6.78476">
        <ele>394</ele>
        <time>2016-05-29T09:20:49.000Z</time>
      </trkpt>
      <trkpt lat="47.45976" lon="6.78476">
        <ele>394</ele>
        <time>2016-05-29T09:20:50.000Z</time>
      </trkpt>
      <trkpt lat="47.45979" lon="6.78478">
        <ele>395</ele>
        <time>2016-05-29T09:20:54.000Z</time>
      </trkpt>
      <trkpt lat="47.4598" lon="6.78478">
        <ele>395</ele>
        <time>2016-05-29T09:20:55.000Z</time>
      </trkpt>
      <trkpt lat="47.45983" lon="6.78481">
        <ele>395</ele>
        <time>2016-05-29T09:20:57.000Z</time>
      </trkpt>
      <trkpt lat="47.45985" lon="6.78483">
        <ele>396</ele>
        <time>2016-05-29T09:20:58.000Z</time>
      </trkpt>
      <trkpt lat="47.45988" lon="6.78485">
        <ele>396</ele>
        <time>2016-05-29T09:21:00.000Z</time>
      </trkpt>
      <trkpt lat="47.4599" lon="6.78486">
        <ele>396</ele>
        <time>2016-05-29T09:21:01.000Z</time>
      </trkpt>
      <trkpt lat="47.45993" lon="6.78487">
        <ele>397</ele>
        <time>2016-05-29T09:21:03.000Z</time>
      </trkpt>
      <trkpt lat="47.45995" lon="6.78487">
        <ele>397</ele>
        <time>2016-05-29T09:21:04.000Z</time>
      </trkpt>
      <trkpt lat="47.45998" lon="6.78489">
        <ele>397</ele>
        <time>2016-05-29T09:21:06.000Z</time>
      </trkpt>
      <trkpt lat="47.45999" lon="6.78489">
        <ele>398</ele>
        <time>2016-05-29T09:21:07.000Z</time>
      </trkpt>
      <trkpt lat="47.46003" lon="6.7849">
        <ele>402</ele>
        <time>2016-05-29T09:21:09.000Z</time>
      </trkpt>
      <trkpt lat="47.46005" lon="6.78491">
        <ele>402</ele>
        <time>2016-05-29T09:21:10.000Z</time>
      </trkpt>
      <trkpt lat="47.46008" lon="6.78492">
        <ele>402</ele>
        <time>2016-05-29T09:21:12.000Z</time>
      </trkpt>
      <trkpt lat="47.4601" lon="6.78494">
        <ele>402</ele>
        <time>2016-05-29T09:21:13.000Z</time>
      </trkpt>
      <trkpt lat="47.46013" lon="6.78496">
        <ele>403</ele>
        <time>2016-05-29T09:21:15.000Z</time>
      </trkpt>
      <trkpt lat="47.46014" lon="6.78497">
        <ele>403</ele>
        <time>2016-05-29T09:21:16.000Z</time>
      </trkpt>
      <trkpt lat="47.46018" lon="6.78499">
        <ele>403</ele>
        <time>2016-05-29T09:21:18.000Z</time>
      </trkpt>
      <trkpt lat="47.4602" lon="6.785">
        <ele>404</ele>
        <time>2016-05-29T09:21:19.000Z</time>
      </trkpt>
      <trkpt lat="47.46025" lon="6.78501">
        <ele>402</ele>
        <time>2016-05-29T09:21:22.000Z</time>
      </trkpt>
      <trkpt lat="47.46026" lon="6.78501">
        <ele>402</ele>
        <time>2016-05-29T09:21:23.000Z</time>
      </trkpt>
      <trkpt lat="47.46029" lon="6.78503">
        <ele>403</ele>
        <time>2016-05-29T09:21:26.000Z</time>
      </trkpt>
      <trkpt lat="47.4603" lon="6.78504">
        <ele>403</ele>
        <time>2016-05-29T09:21:27.000Z</time>
      </trkpt>
      <trkpt lat="47.46033" lon="6.78508">
        <ele>403</ele>
        <time>2016-05-29T09:21:30.000Z</time>
      </trkpt>
      <trkpt lat="47.46034" lon="6.78509">
        <ele>403</ele>
        <time>2016-05-29T09:21:31.000Z</time>
      </trkpt>
      <trkpt lat="47.46036" lon="6.78512">
        <ele>403</ele>
        <time>2016-05-29T09:21:33.000Z</time>
      </trkpt>
      <trkpt lat="47.46037" lon="6.78513">
        <ele>403</ele>
        <time>2016-05-29T09:21:34.000Z</time>
      </trkpt>
      <trkpt lat="47.4604" lon="6.78516">
        <ele>403</ele>
        <time>2016-05-29T09:21:36.000Z</time>
      </trkpt>
      <trkpt lat="47.46041" lon="6.78518">
        <ele>403</ele>
        <time>2016-05-29T09:21:37.000Z</time>
      </trkpt>
      <trkpt lat="47.46044" lon="6.78521">
        <ele>404</ele>
        <time>2016-05-29T09:21:39.000Z</time>
      </trkpt>
      <trkpt lat="47.46045" lon="6.78522">
        <ele>404</ele>
        <time>2016-05-29T09:21:40.000Z</time>
      </trkpt>
      <trkpt lat="47.46047" lon="6.78525">
        <ele>404</ele>
        <time>2016-05-29T09:21:42.000Z</time>
      </trkpt>
      <trkpt lat="47.46049" lon="6.78527">
        <ele>404</ele>
        <time>2016-05-29T09:21:43.000Z</time>
      </trkpt>
      <trkpt lat="47.46052" lon="6.78529">
        <ele>404</ele>
        <time>2016-05-29T09:21:45.000Z</time>
      </trkpt>
      <trkpt lat="47.46055" lon="6.7853">
        <ele>404</ele>
        <time>2016-05-29T09:21:46.000Z</time>
      </trkpt>
      <trkpt lat="47.46057" lon="6.78531">
        <ele>404</ele>
        <time>2016-05-29T09:21:47.000Z</time>
      </trkpt>
      <trkpt lat="47.4606" lon="6.78532">
        <ele>404</ele>
        <time>2016-05-29T09:21:48.000Z</time>
      </trkpt>
      <trkpt lat="47.46063" lon="6.78533">
        <ele>404</ele>
        <time>2016-05-29T09:21:49.000Z</time>
      </trkpt>
      <trkpt lat="47.46066" lon="6.78533">
        <ele>405</ele>
        <time>2016-05-29T09:21:50.000Z</time>
      </trkpt>
      <trkpt lat="47.46068" lon="6.78533">
        <ele>405</ele>
        <time>2016-05-29T09:21:51.000Z</time>
      </trkpt>
      <trkpt lat="47.46071" lon="6.78533">
        <ele>405</ele>
        <time>2016-05-29T09:21:52.000Z</time>
      </trkpt>
      <trkpt lat="47.46075" lon="6.78533">
        <ele>405</ele>
        <time>2016-05-29T09:21:54.000Z</time>
      </trkpt>
      <trkpt lat="47.46077" lon="6.78534">
        <ele>405</ele>
        <time>2016-05-29T09:21:55.000Z</time>
      </trkpt>
      <trkpt lat="47.4608" lon="6.78534">
        <ele>405</ele>
        <time>2016-05-29T09:21:56.999Z</time>
      </trkpt>
      <trkpt lat="47.46083" lon="6.78533">
        <ele>405</ele>
        <time>2016-05-29T09:21:58.000Z</time>
      </trkpt>
      <trkpt lat="47.46087" lon="6.78533">
        <ele>408</ele>
        <time>2016-05-29T09:22:00.000Z</time>
      </trkpt>
      <trkpt lat="47.46089" lon="6.78533">
        <ele>408</ele>
        <time>2016-05-29T09:22:01.000Z</time>
      </trkpt>
      <trkpt lat="47.46092" lon="6.78533">
        <ele>408</ele>
        <time>2016-05-29T09:22:02.000Z</time>
      </trkpt>
      <trkpt lat="47.46094" lon="6.78533">
        <ele>408</ele>
        <time>2016-05-29T09:22:03.000Z</time>
      </trkpt>
      <trkpt lat="47.46097" lon="6.78532">
        <ele>408</ele>
        <time>2016-05-29T09:22:04.000Z</time>
      </trkpt>
      <trkpt lat="47.461" lon="6.78532">
        <ele>408</ele>
        <time>2016-05-29T09:22:05.000Z</time>
      </trkpt>
      <trkpt lat="47.46104" lon="6.78532">
        <ele>408</ele>
        <time>2016-05-29T09:22:06.000Z</time>
      </trkpt>
      <trkpt lat="47.46107" lon="6.78532">
        <ele>408</ele>
        <time>2016-05-29T09:22:07.000Z</time>
      </trkpt>
      <trkpt lat="47.46111" lon="6.78532">
        <ele>408</ele>
        <time>2016-05-29T09:22:08.000Z</time>
      </trkpt>
      <trkpt lat="47.46114" lon="6.78532">
        <ele>408</ele>
        <time>2016-05-29T09:22:09.000Z</time>
      </trkpt>
      <trkpt lat="47.46117" lon="6.78531">
        <ele>408</ele>
        <time>2016-05-29T09:22:10.000Z</time>
      </trkpt>
      <trkpt lat="47.46121" lon="6.78531">
        <ele>408</ele>
        <time>2016-05-29T09:22:11.000Z</time>
      </trkpt>
      <trkpt lat="47.46124" lon="6.78531">
        <ele>408</ele>
        <time>2016-05-29T09:22:12.000Z</time>
      </trkpt>
      <trkpt lat="47.46127" lon="6.78531">
        <ele>408</ele>
        <time>2016-05-29T09:22:13.000Z</time>
      </trkpt>
      <trkpt lat="47.4613" lon="6.7853">
        <ele>408</ele>
        <time>2016-05-29T09:22:14.000Z</time>
      </trkpt>
      <trkpt lat="47.46133" lon="6.7853">
        <ele>408</ele>
        <time>2016-05-29T09:22:15.000Z</time>
      </trkpt>
      <trkpt lat="47.46135" lon="6.78529">
        <ele>408</ele>
        <time>2016-05-29T09:22:16.000Z</time>
      </trkpt>
      <trkpt lat="47.46138" lon="6.78529">
        <ele>408</ele>
        <time>2016-05-29T09:22:17.000Z</time>
      </trkpt>
      <trkpt lat="47.46142" lon="6.78528">
        <ele>408</ele>
        <time>2016-05-29T09:22:18.000Z</time>
      </trkpt>
      <trkpt lat="47.46145" lon="6.78527">
        <ele>408</ele>
        <time>2016-05-29T09:22:19.000Z</time>
      </trkpt>
      <trkpt lat="47.46148" lon="6.78526">
        <ele>408</ele>
        <time>2016-05-29T09:22:20.000Z</time>
      </trkpt>
      <trkpt lat="47.46152" lon="6.78525">
        <ele>408</ele>
        <time>2016-05-29T09:22:21.000Z</time>
      </trkpt>
      <trkpt lat="47.46156" lon="6.78523">
        <ele>408</ele>
        <time>2016-05-29T09:22:22.000Z</time>
      </trkpt>
      <trkpt lat="47.46159" lon="6.78522">
        <ele>408</ele>
        <time>2016-05-29T09:22:23.000Z</time>
      </trkpt>
      <trkpt lat="47.46162" lon="6.78521">
        <ele>408</ele>
        <time>2016-05-29T09:22:24.000Z</time>
      </trkpt>
      <trkpt lat="47.46166" lon="6.78519">
        <ele>408</ele>
        <time>2016-05-29T09:22:25.000Z</time>
      </trkpt>
      <trkpt lat="47.46169" lon="6.78518">
        <ele>407</ele>
        <time>2016-05-29T09:22:26.000Z</time>
      </trkpt>
      <trkpt lat="47.46172" lon="6.78516">
        <ele>407</ele>
        <time>2016-05-29T09:22:27.000Z</time>
      </trkpt>
      <trkpt lat="47.46175" lon="6.78514">
        <ele>407</ele>
        <time>2016-05-29T09:22:28.000Z</time>
      </trkpt>
      <trkpt lat="47.46178" lon="6.78512">
        <ele>407</ele>
        <time>2016-05-29T09:22:29.000Z</time>
      </trkpt>
      <trkpt lat="47.4618" lon="6.7851">
        <ele>407</ele>
        <time>2016-05-29T09:22:30.000Z</time>
      </trkpt>
      <trkpt lat="47.46183" lon="6.78508">
        <ele>407</ele>
        <time>2016-05-29T09:22:31.000Z</time>
      </trkpt>
      <trkpt lat="47.46188" lon="6.78506">
        <ele>407</ele>
        <time>2016-05-29T09:22:32.000Z</time>
      </trkpt>
      <trkpt lat="47.46192" lon="6.78505">
        <ele>407</ele>
        <time>2016-05-29T09:22:33.000Z</time>
      </trkpt>
      <trkpt lat="47.46196" lon="6.78505">
        <ele>406</ele>
        <time>2016-05-29T09:22:34.000Z</time>
      </trkpt>
      <trkpt lat="47.462" lon="6.78504">
        <ele>406</ele>
        <time>2016-05-29T09:22:35.000Z</time>
      </trkpt>
      <trkpt lat="47.46205" lon="6.78504">
        <ele>406</ele>
        <time>2016-05-29T09:22:36.000Z</time>
      </trkpt>
      <trkpt lat="47.46209" lon="6.78503">
        <ele>406</ele>
        <time>2016-05-29T09:22:37.000Z</time>
      </trkpt>
      <trkpt lat="47.46214" lon="6.78502">
        <ele>406</ele>
        <time>2016-05-29T09:22:38.000Z</time>
      </trkpt>
      <trkpt lat="47.46217" lon="6.78502">
        <ele>405</ele>
        <time>2016-05-29T09:22:39.000Z</time>
      </trkpt>
      <trkpt lat="47.46221" lon="6.78501">
        <ele>405</ele>
        <time>2016-05-29T09:22:40.000Z</time>
      </trkpt>
      <trkpt lat="47.46224" lon="6.78501">
        <ele>405</ele>
        <time>2016-05-29T09:22:41.000Z</time>
      </trkpt>
      <trkpt lat="47.46228" lon="6.785">
        <ele>405</ele>
        <time>2016-05-29T09:22:42.000Z</time>
      </trkpt>
      <trkpt lat="47.46232" lon="6.78499">
        <ele>405</ele>
        <time>2016-05-29T09:22:43.000Z</time>
      </trkpt>
      <trkpt lat="47.46236" lon="6.78498">
        <ele>405</ele>
        <time>2016-05-29T09:22:44.000Z</time>
      </trkpt>
      <trkpt lat="47.46241" lon="6.78496">
        <ele>404</ele>
        <time>2016-05-29T09:22:45.000Z</time>
      </trkpt>
      <trkpt lat="47.46248" lon="6.78494">
        <ele>404</ele>
        <time>2016-05-29T09:22:46.000Z</time>
      </trkpt>
      <trkpt lat="47.46271" lon="6.78477">
        <ele>403</ele>
        <time>2016-05-29T09:22:47.000Z</time>
      </trkpt>
      <trkpt lat="47.46276" lon="6.78475">
        <ele>403</ele>
        <time>2016-05-29T09:22:48.000Z</time>
      </trkpt>
      <trkpt lat="47.46281" lon="6.78474">
        <ele>403</ele>
        <time>2016-05-29T09:22:49.000Z</time>
      </trkpt>
      <trkpt lat="47.46286" lon="6.78474">
        <ele>403</ele>
        <time>2016-05-29T09:22:50.000Z</time>
      </trkpt>
      <trkpt lat="47.46291" lon="6.78472">
        <ele>403</ele>
        <time>2016-05-29T09:22:51.000Z</time>
      </trkpt>
      <trkpt lat="47.46296" lon="6.78471">
        <ele>403</ele>
        <time>2016-05-29T09:22:52.000Z</time>
      </trkpt>
      <trkpt lat="47.46301" lon="6.78469">
        <ele>402</ele>
        <time>2016-05-29T09:22:53.000Z</time>
      </trkpt>
      <trkpt lat="47.46307" lon="6.78466">
        <ele>402</ele>
        <time>2016-05-29T09:22:54.000Z</time>
      </trkpt>
      <trkpt lat="47.46312" lon="6.78463">
        <ele>402</ele>
        <time>2016-05-29T09:22:55.000Z</time>
      </trkpt>
      <trkpt lat="47.46318" lon="6.7846">
        <ele>402</ele>
        <time>2016-05-29T09:22:56.000Z</time>
      </trkpt>
      <trkpt lat="47.46324" lon="6.78456">
        <ele>402</ele>
        <time>2016-05-29T09:22:57.000Z</time>
      </trkpt>
      <trkpt lat="47.46331" lon="6.78452">
        <ele>402</ele>
        <time>2016-05-29T09:22:58.000Z</time>
      </trkpt>
      <trkpt lat="47.46337" lon="6.7845">
        <ele>402</ele>
        <time>2016-05-29T09:22:59.000Z</time>
      </trkpt>
      <trkpt lat="47.46342" lon="6.78449">
        <ele>402</ele>
        <time>2016-05-29T09:23:00.000Z</time>
      </trkpt>
      <trkpt lat="47.46347" lon="6.78449">
        <ele>402</ele>
        <time>2016-05-29T09:23:01.000Z</time>
      </trkpt>
      <trkpt lat="47.46351" lon="6.78449">
        <ele>402</ele>
        <time>2016-05-29T09:23:02.000Z</time>
      </trkpt>
      <trkpt lat="47.46354" lon="6.78448">
        <ele>403</ele>
        <time>2016-05-29T09:23:03.000Z</time>
      </trkpt>
      <trkpt lat="47.46357" lon="6.78445">
        <ele>402</ele>
        <time>2016-05-29T09:23:04.000Z</time>
      </trkpt>
      <trkpt lat="47.46359" lon="6.7844">
        <ele>402</ele>
        <time>2016-05-29T09:23:05.000Z</time>
      </trkpt>
      <trkpt lat="47.46362" lon="6.78434">
        <ele>402</ele>
        <time>2016-05-29T09:23:06.000Z</time>
      </trkpt>
      <trkpt lat="47.46379" lon="6.78414">
        <ele>397</ele>
        <time>2016-05-29T09:23:07.000Z</time>
      </trkpt>
      <trkpt lat="47.46386" lon="6.78404">
        <ele>397</ele>
        <time>2016-05-29T09:23:08.000Z</time>
      </trkpt>
      <trkpt lat="47.46392" lon="6.78398">
        <ele>397</ele>
        <time>2016-05-29T09:23:09.000Z</time>
      </trkpt>
      <trkpt lat="47.46397" lon="6.7839">
        <ele>397</ele>
        <time>2016-05-29T09:23:10.000Z</time>
      </trkpt>
      <trkpt lat="47.46405" lon="6.78377">
        <ele>395</ele>
        <time>2016-05-29T09:23:11.000Z</time>
      </trkpt>
      <trkpt lat="47.46414" lon="6.7837">
        <ele>395</ele>
        <time>2016-05-29T09:23:12.000Z</time>
      </trkpt>
      <trkpt lat="47.46421" lon="6.78363">
        <ele>392</ele>
        <time>2016-05-29T09:23:13.000Z</time>
      </trkpt>
      <trkpt lat="47.46425" lon="6.78356">
        <ele>392</ele>
        <time>2016-05-29T09:23:14.000Z</time>
      </trkpt>
      <trkpt lat="47.4643" lon="6.78346">
        <ele>391</ele>
        <time>2016-05-29T09:23:15.000Z</time>
      </trkpt>
      <trkpt lat="47.46433" lon="6.78338">
        <ele>390</ele>
        <time>2016-05-29T09:23:16.000Z</time>
      </trkpt>
      <trkpt lat="47.4644" lon="6.78331">
        <ele>385</ele>
        <time>2016-05-29T09:23:18.000Z</time>
      </trkpt>
      <trkpt lat="47.46441" lon="6.78326">
        <ele>385</ele>
        <time>2016-05-29T09:23:19.000Z</time>
      </trkpt>
      <trkpt lat="47.46442" lon="6.78323">
        <ele>385</ele>
        <time>2016-05-29T09:23:20.000Z</time>
      </trkpt>
      <trkpt lat="47.46447" lon="6.78323">
        <ele>385</ele>
        <time>2016-05-29T09:23:21.000Z</time>
      </trkpt>
      <trkpt lat="47.46449" lon="6.78323">
        <ele>385</ele>
        <time>2016-05-29T09:23:22.000Z</time>
      </trkpt>
      <trkpt lat="47.46452" lon="6.78324">
        <ele>385</ele>
        <time>2016-05-29T09:23:23.000Z</time>
      </trkpt>
      <trkpt lat="47.46454" lon="6.78325">
        <ele>385</ele>
        <time>2016-05-29T09:23:24.000Z</time>
      </trkpt>
      <trkpt lat="47.46456" lon="6.78327">
        <ele>385</ele>
        <time>2016-05-29T09:23:25.000Z</time>
      </trkpt>
      <trkpt lat="47.46459" lon="6.7833">
        <ele>385</ele>
        <time>2016-05-29T09:23:26.000Z</time>
      </trkpt>
      <trkpt lat="47.46461" lon="6.78332">
        <ele>385</ele>
        <time>2016-05-29T09:23:27.000Z</time>
      </trkpt>
      <trkpt lat="47.46464" lon="6.78335">
        <ele>391</ele>
        <time>2016-05-29T09:23:28.000Z</time>
      </trkpt>
      <trkpt lat="47.46466" lon="6.78338">
        <ele>391</ele>
        <time>2016-05-29T09:23:29.000Z</time>
      </trkpt>
      <trkpt lat="47.46469" lon="6.78341">
        <ele>391</ele>
        <time>2016-05-29T09:23:30.000Z</time>
      </trkpt>
      <trkpt lat="47.46472" lon="6.78344">
        <ele>391</ele>
        <time>2016-05-29T09:23:31.000Z</time>
      </trkpt>
      <trkpt lat="47.46482" lon="6.78351">
        <ele>391</ele>
        <time>2016-05-29T09:23:32.000Z</time>
      </trkpt>
      <trkpt lat="47.46485" lon="6.78356">
        <ele>391</ele>
        <time>2016-05-29T09:23:33.000Z</time>
      </trkpt>
      <trkpt lat="47.4649" lon="6.7836">
        <ele>391</ele>
        <time>2016-05-29T09:23:34.000Z</time>
      </trkpt>
      <trkpt lat="47.46493" lon="6.78363">
        <ele>391</ele>
        <time>2016-05-29T09:23:35.000Z</time>
      </trkpt>
      <trkpt lat="47.46497" lon="6.78366">
        <ele>392</ele>
        <time>2016-05-29T09:23:36.000Z</time>
      </trkpt>
      <trkpt lat="47.46504" lon="6.7837">
        <ele>388</ele>
        <time>2016-05-29T09:23:37.000Z</time>
      </trkpt>
      <trkpt lat="47.46509" lon="6.78374">
        <ele>389</ele>
        <time>2016-05-29T09:23:38.000Z</time>
      </trkpt>
      <trkpt lat="47.46512" lon="6.78376">
        <ele>389</ele>
        <time>2016-05-29T09:23:39.000Z</time>
      </trkpt>
      <trkpt lat="47.46515" lon="6.7838">
        <ele>389</ele>
        <time>2016-05-29T09:23:40.000Z</time>
      </trkpt>
      <trkpt lat="47.46519" lon="6.78384">
        <ele>389</ele>
        <time>2016-05-29T09:23:41.000Z</time>
      </trkpt>
      <trkpt lat="47.46523" lon="6.78389">
        <ele>389</ele>
        <time>2016-05-29T09:23:42.000Z</time>
      </trkpt>
      <trkpt lat="47.46527" lon="6.78393">
        <ele>389</ele>
        <time>2016-05-29T09:23:43.000Z</time>
      </trkpt>
      <trkpt lat="47.46532" lon="6.78395">
        <ele>389</ele>
        <time>2016-05-29T09:23:44.000Z</time>
      </trkpt>
      <trkpt lat="47.46535" lon="6.78399">
        <ele>389</ele>
        <time>2016-05-29T09:23:45.000Z</time>
      </trkpt>
      <trkpt lat="47.46538" lon="6.78402">
        <ele>389</ele>
        <time>2016-05-29T09:23:46.000Z</time>
      </trkpt>
      <trkpt lat="47.46542" lon="6.78409">
        <ele>389</ele>
        <time>2016-05-29T09:23:47.000Z</time>
      </trkpt>
      <trkpt lat="47.46544" lon="6.78413">
        <ele>388</ele>
        <time>2016-05-29T09:23:48.000Z</time>
      </trkpt>
      <trkpt lat="47.46546" lon="6.78421">
        <ele>391</ele>
        <time>2016-05-29T09:23:49.000Z</time>
      </trkpt>
      <trkpt lat="47.46548" lon="6.78425">
        <ele>391</ele>
        <time>2016-05-29T09:23:50.000Z</time>
      </trkpt>
      <trkpt lat="47.46549" lon="6.78427">
        <ele>391</ele>
        <time>2016-05-29T09:23:51.000Z</time>
      </trkpt>
      <trkpt lat="47.4655" lon="6.78431">
        <ele>391</ele>
        <time>2016-05-29T09:23:52.000Z</time>
      </trkpt>
      <trkpt lat="47.46551" lon="6.78435">
        <ele>391</ele>
        <time>2016-05-29T09:23:53.000Z</time>
      </trkpt>
      <trkpt lat="47.46551" lon="6.78439">
        <ele>391</ele>
        <time>2016-05-29T09:23:54.000Z</time>
      </trkpt>
      <trkpt lat="47.46551" lon="6.78443">
        <ele>391</ele>
        <time>2016-05-29T09:23:55.000Z</time>
      </trkpt>
      <trkpt lat="47.46549" lon="6.78444">
        <ele>391</ele>
        <time>2016-05-29T09:23:57.000Z</time>
      </trkpt>
      <trkpt lat="47.46549" lon="6.7845">
        <ele>391</ele>
        <time>2016-05-29T09:23:58.000Z</time>
      </trkpt>
      <trkpt lat="47.46549" lon="6.78454">
        <ele>391</ele>
        <time>2016-05-29T09:23:59.000Z</time>
      </trkpt>
      <trkpt lat="47.46549" lon="6.78458">
        <ele>391</ele>
        <time>2016-05-29T09:24:00.000Z</time>
      </trkpt>
      <trkpt lat="47.46548" lon="6.78462">
        <ele>391</ele>
        <time>2016-05-29T09:24:01.000Z</time>
      </trkpt>
      <trkpt lat="47.46548" lon="6.78467">
        <ele>391</ele>
        <time>2016-05-29T09:24:02.000Z</time>
      </trkpt>
      <trkpt lat="47.46548" lon="6.78472">
        <ele>391</ele>
        <time>2016-05-29T09:24:03.000Z</time>
      </trkpt>
      <trkpt lat="47.46547" lon="6.78477">
        <ele>391</ele>
        <time>2016-05-29T09:24:04.000Z</time>
      </trkpt>
      <trkpt lat="47.46547" lon="6.78482">
        <ele>391</ele>
        <time>2016-05-29T09:24:05.000Z</time>
      </trkpt>
      <trkpt lat="47.46546" lon="6.78488">
        <ele>391</ele>
        <time>2016-05-29T09:24:06.000Z</time>
      </trkpt>
      <trkpt lat="47.46546" lon="6.78494">
        <ele>391</ele>
        <time>2016-05-29T09:24:07.000Z</time>
      </trkpt>
      <trkpt lat="47.46545" lon="6.785">
        <ele>391</ele>
        <time>2016-05-29T09:24:08.000Z</time>
      </trkpt>
      <trkpt lat="47.46545" lon="6.7851">
        <ele>393</ele>
        <time>2016-05-29T09:24:09.000Z</time>
      </trkpt>
      <trkpt lat="47.46545" lon="6.78517">
        <ele>393</ele>
        <time>2016-05-29T09:24:10.000Z</time>
      </trkpt>
      <trkpt lat="47.46544" lon="6.78523">
        <ele>393</ele>
        <time>2016-05-29T09:24:10.999Z</time>
      </trkpt>
      <trkpt lat="47.46544" lon="6.78527">
        <ele>393</ele>
        <time>2016-05-29T09:24:12.000Z</time>
      </trkpt>
      <trkpt lat="47.46544" lon="6.7853">
        <ele>394</ele>
        <time>2016-05-29T09:24:13.000Z</time>
      </trkpt>
      <trkpt lat="47.46544" lon="6.78535">
        <ele>394</ele>
        <time>2016-05-29T09:24:14.000Z</time>
      </trkpt>
      <trkpt lat="47.46546" lon="6.78539">
        <ele>394</ele>
        <time>2016-05-29T09:24:15.000Z</time>
      </trkpt>
      <trkpt lat="47.46545" lon="6.78542">
        <ele>394</ele>
        <time>2016-05-29T09:24:16.000Z</time>
      </trkpt>
      <trkpt lat="47.46546" lon="6.78546">
        <ele>394</ele>
        <time>2016-05-29T09:24:17.000Z</time>
      </trkpt>
      <trkpt lat="47.46547" lon="6.78554">
        <ele>394</ele>
        <time>2016-05-29T09:24:18.000Z</time>
      </trkpt>
      <trkpt lat="47.46547" lon="6.78557">
        <ele>394</ele>
        <time>2016-05-29T09:24:19.000Z</time>
      </trkpt>
      <trkpt lat="47.46548" lon="6.78561">
        <ele>394</ele>
        <time>2016-05-29T09:24:20.000Z</time>
      </trkpt>
      <trkpt lat="47.46549" lon="6.78566">
        <ele>394</ele>
        <time>2016-05-29T09:24:21.000Z</time>
      </trkpt>
      <trkpt lat="47.4655" lon="6.7857">
        <ele>394</ele>
        <time>2016-05-29T09:24:22.000Z</time>
      </trkpt>
      <trkpt lat="47.4655" lon="6.78574">
        <ele>394</ele>
        <time>2016-05-29T09:24:23.000Z</time>
      </trkpt>
      <trkpt lat="47.46551" lon="6.78579">
        <ele>394</ele>
        <time>2016-05-29T09:24:24.000Z</time>
      </trkpt>
      <trkpt lat="47.46551" lon="6.78583">
        <ele>394</ele>
        <time>2016-05-29T09:24:25.000Z</time>
      </trkpt>
      <trkpt lat="47.4655" lon="6.78587">
        <ele>395</ele>
        <time>2016-05-29T09:24:26.000Z</time>
      </trkpt>
      <trkpt lat="47.4655" lon="6.7859">
        <ele>395</ele>
        <time>2016-05-29T09:24:27.000Z</time>
      </trkpt>
      <trkpt lat="47.4655" lon="6.78594">
        <ele>395</ele>
        <time>2016-05-29T09:24:28.000Z</time>
      </trkpt>
      <trkpt lat="47.4655" lon="6.78598">
        <ele>395</ele>
        <time>2016-05-29T09:24:29.000Z</time>
      </trkpt>
      <trkpt lat="47.46551" lon="6.78602">
        <ele>395</ele>
        <time>2016-05-29T09:24:30.000Z</time>
      </trkpt>
      <trkpt lat="47.46551" lon="6.78607">
        <ele>395</ele>
        <time>2016-05-29T09:24:31.000Z</time>
      </trkpt>
      <trkpt lat="47.46551" lon="6.78613">
        <ele>395</ele>
        <time>2016-05-29T09:24:32.000Z</time>
      </trkpt>
      <trkpt lat="47.46551" lon="6.78618">
        <ele>395</ele>
        <time>2016-05-29T09:24:33.000Z</time>
      </trkpt>
      <trkpt lat="47.4655" lon="6.78622">
        <ele>395</ele>
        <time>2016-05-29T09:24:34.000Z</time>
      </trkpt>
      <trkpt lat="47.4655" lon="6.78627">
        <ele>395</ele>
        <time>2016-05-29T09:24:35.000Z</time>
      </trkpt>
      <trkpt lat="47.4655" lon="6.78631">
        <ele>395</ele>
        <time>2016-05-29T09:24:36.000Z</time>
      </trkpt>
      <trkpt lat="47.4655" lon="6.78636">
        <ele>395</ele>
        <time>2016-05-29T09:24:37.000Z</time>
      </trkpt>
      <trkpt lat="47.46549" lon="6.7864">
        <ele>395</ele>
        <time>2016-05-29T09:24:38.000Z</time>
      </trkpt>
      <trkpt lat="47.46548" lon="6.78645">
        <ele>395</ele>
        <time>2016-05-29T09:24:39.000Z</time>
      </trkpt>
      <trkpt lat="47.46547" lon="6.7865">
        <ele>395</ele>
        <time>2016-05-29T09:24:40.000Z</time>
      </trkpt>
      <trkpt lat="47.46546" lon="6.78655">
        <ele>395</ele>
        <time>2016-05-29T09:24:41.000Z</time>
      </trkpt>
      <trkpt lat="47.46546" lon="6.7866">
        <ele>395</ele>
        <time>2016-05-29T09:24:42.000Z</time>
      </trkpt>
      <trkpt lat="47.46546" lon="6.78665">
        <ele>395</ele>
        <time>2016-05-29T09:24:43.000Z</time>
      </trkpt>
      <trkpt lat="47.46545" lon="6.7867">
        <ele>393</ele>
        <time>2016-05-29T09:24:44.000Z</time>
      </trkpt>
      <trkpt lat="47.46545" lon="6.78675">
        <ele>393</ele>
        <time>2016-05-29T09:24:45.000Z</time>
      </trkpt>
      <trkpt lat="47.46545" lon="6.78679">
        <ele>393</ele>
        <time>2016-05-29T09:24:46.000Z</time>
      </trkpt>
      <trkpt lat="47.46546" lon="6.78683">
        <ele>393</ele>
        <time>2016-05-29T09:24:47.000Z</time>
      </trkpt>
      <trkpt lat="47.46548" lon="6.78686">
        <ele>393</ele>
        <time>2016-05-29T09:24:48.000Z</time>
      </trkpt>
      <trkpt lat="47.46552" lon="6.78688">
        <ele>392</ele>
        <time>2016-05-29T09:24:49.000Z</time>
      </trkpt>
      <trkpt lat="47.46556" lon="6.78689">
        <ele>392</ele>
        <time>2016-05-29T09:24:50.000Z</time>
      </trkpt>
      <trkpt lat="47.46561" lon="6.78689">
        <ele>391</ele>
        <time>2016-05-29T09:24:51.000Z</time>
      </trkpt>
      <trkpt lat="47.46566" lon="6.7869">
        <ele>391</ele>
        <time>2016-05-29T09:24:52.000Z</time>
      </trkpt>
      <trkpt lat="47.4657" lon="6.78691">
        <ele>390</ele>
        <time>2016-05-29T09:24:53.000Z</time>
      </trkpt>
      <trkpt lat="47.46575" lon="6.78693">
        <ele>390</ele>
        <time>2016-05-29T09:24:54.000Z</time>
      </trkpt>
      <trkpt lat="47.46578" lon="6.78695">
        <ele>390</ele>
        <time>2016-05-29T09:24:55.000Z</time>
      </trkpt>
      <trkpt lat="47.46583" lon="6.78696">
        <ele>390</ele>
        <time>2016-05-29T09:24:56.000Z</time>
      </trkpt>
      <trkpt lat="47.46595" lon="6.78697">
        <ele>383</ele>
        <time>2016-05-29T09:24:57.000Z</time>
      </trkpt>
      <trkpt lat="47.46603" lon="6.78698">
        <ele>383</ele>
        <time>2016-05-29T09:24:58.000Z</time>
      </trkpt>
      <trkpt lat="47.46612" lon="6.78698">
        <ele>382</ele>
        <time>2016-05-29T09:24:59.000Z</time>
      </trkpt>
      <trkpt lat="47.46619" lon="6.787">
        <ele>382</ele>
        <time>2016-05-29T09:25:00.000Z</time>
      </trkpt>
      <trkpt lat="47.46627" lon="6.78701">
        <ele>382</ele>
        <time>2016-05-29T09:25:01.000Z</time>
      </trkpt>
      <trkpt lat="47.46634" lon="6.78702">
        <ele>381</ele>
        <time>2016-05-29T09:25:02.000Z</time>
      </trkpt>
      <trkpt lat="47.46637" lon="6.78702">
        <ele>381</ele>
        <time>2016-05-29T09:25:03.000Z</time>
      </trkpt>
      <trkpt lat="47.4664" lon="6.78701">
        <ele>381</ele>
        <time>2016-05-29T09:25:04.000Z</time>
      </trkpt>
      <trkpt lat="47.46644" lon="6.78701">
        <ele>381</ele>
        <time>2016-05-29T09:25:05.000Z</time>
      </trkpt>
      <trkpt lat="47.46647" lon="6.78701">
        <ele>381</ele>
        <time>2016-05-29T09:25:06.000Z</time>
      </trkpt>
      <trkpt lat="47.46653" lon="6.78701">
        <ele>381</ele>
        <time>2016-05-29T09:25:07.000Z</time>
      </trkpt>
      <trkpt lat="47.46657" lon="6.78701">
        <ele>381</ele>
        <time>2016-05-29T09:25:08.000Z</time>
      </trkpt>
      <trkpt lat="47.46662" lon="6.78701">
        <ele>381</ele>
        <time>2016-05-29T09:25:09.000Z</time>
      </trkpt>
      <trkpt lat="47.46666" lon="6.78701">
        <ele>381</ele>
        <time>2016-05-29T09:25:10.000Z</time>
      </trkpt>
      <trkpt lat="47.4667" lon="6.78701">
        <ele>376</ele>
        <time>2016-05-29T09:25:11.000Z</time>
      </trkpt>
      <trkpt lat="47.46673" lon="6.78702">
        <ele>376</ele>
        <time>2016-05-29T09:25:12.000Z</time>
      </trkpt>
      <trkpt lat="47.46677" lon="6.78703">
        <ele>376</ele>
        <time>2016-05-29T09:25:13.000Z</time>
      </trkpt>
      <trkpt lat="47.46681" lon="6.78703">
        <ele>376</ele>
        <time>2016-05-29T09:25:14.000Z</time>
      </trkpt>
      <trkpt lat="47.46686" lon="6.78703">
        <ele>375</ele>
        <time>2016-05-29T09:25:15.000Z</time>
      </trkpt>
      <trkpt lat="47.46691" lon="6.78704">
        <ele>375</ele>
        <time>2016-05-29T09:25:16.000Z</time>
      </trkpt>
      <trkpt lat="47.46696" lon="6.78705">
        <ele>375</ele>
        <time>2016-05-29T09:25:17.000Z</time>
      </trkpt>
      <trkpt lat="47.467" lon="6.78706">
        <ele>375</ele>
        <time>2016-05-29T09:25:18.000Z</time>
      </trkpt>
      <trkpt lat="47.46704" lon="6.78706">
        <ele>374</ele>
        <time>2016-05-29T09:25:19.000Z</time>
      </trkpt>
      <trkpt lat="47.46707" lon="6.78706">
        <ele>374</ele>
        <time>2016-05-29T09:25:20.000Z</time>
      </trkpt>
      <trkpt lat="47.4671" lon="6.78706">
        <ele>374</ele>
        <time>2016-05-29T09:25:21.000Z</time>
      </trkpt>
      <trkpt lat="47.46712" lon="6.78705">
        <ele>374</ele>
        <time>2016-05-29T09:25:22.000Z</time>
      </trkpt>
      <trkpt lat="47.46716" lon="6.78704">
        <ele>374</ele>
        <time>2016-05-29T09:25:25.000Z</time>
      </trkpt>
      <trkpt lat="47.46717" lon="6.78704">
        <ele>374</ele>
        <time>2016-05-29T09:25:26.000Z</time>
      </trkpt>
      <trkpt lat="47.46722" lon="6.78704">
        <ele>373</ele>
        <time>2016-05-29T09:25:57.000Z</time>
      </trkpt>
      <trkpt lat="47.46722" lon="6.78704">
        <ele>373</ele>
        <time>2016-05-29T09:25:58.000Z</time>
      </trkpt>
      <trkpt lat="47.46726" lon="6.78705">
        <ele>373</ele>
        <time>2016-05-29T09:27:39.000Z</time>
      </trkpt>
      <trkpt lat="47.46727" lon="6.78703">
        <ele>373</ele>
        <time>2016-05-29T09:27:40.000Z</time>
      </trkpt>
      <trkpt lat="47.46729" lon="6.78701">
        <ele>373</ele>
        <time>2016-05-29T09:27:42.000Z</time>
      </trkpt>
      <trkpt lat="47.46731" lon="6.78701">
        <ele>373</ele>
        <time>2016-05-29T09:27:43.000Z</time>
      </trkpt>
      <trkpt lat="47.46736" lon="6.787">
        <ele>373</ele>
        <time>2016-05-29T09:27:45.000Z</time>
      </trkpt>
      <trkpt lat="47.46737" lon="6.78701">
        <ele>373</ele>
        <time>2016-05-29T09:27:46.000Z</time>
      </trkpt>
      <trkpt lat="47.4674" lon="6.78702">
        <ele>373</ele>
        <time>2016-05-29T09:27:48.000Z</time>
      </trkpt>
      <trkpt lat="47.46742" lon="6.78703">
        <ele>373</ele>
        <time>2016-05-29T09:27:49.000Z</time>
      </trkpt>
      <trkpt lat="47.46747" lon="6.78703">
        <ele>373</ele>
        <time>2016-05-29T09:27:51.000Z</time>
      </trkpt>
      <trkpt lat="47.46749" lon="6.78702">
        <ele>373</ele>
        <time>2016-05-29T09:27:52.000Z</time>
      </trkpt>
      <trkpt lat="47.46751" lon="6.787">
        <ele>368</ele>
        <time>2016-05-29T09:27:53.000Z</time>
      </trkpt>
      <trkpt lat="47.46754" lon="6.78699">
        <ele>368</ele>
        <time>2016-05-29T09:27:54.000Z</time>
      </trkpt>
      <trkpt lat="47.46756" lon="6.78697">
        <ele>368</ele>
        <time>2016-05-29T09:27:55.000Z</time>
      </trkpt>
      <trkpt lat="47.46758" lon="6.78694">
        <ele>368</ele>
        <time>2016-05-29T09:27:56.000Z</time>
      </trkpt>
      <trkpt lat="47.46761" lon="6.78692">
        <ele>368</ele>
        <time>2016-05-29T09:27:57.000Z</time>
      </trkpt>
      <trkpt lat="47.46764" lon="6.78689">
        <ele>368</ele>
        <time>2016-05-29T09:27:58.000Z</time>
      </trkpt>
      <trkpt lat="47.46767" lon="6.78687">
        <ele>368</ele>
        <time>2016-05-29T09:27:59.000Z</time>
      </trkpt>
      <trkpt lat="47.4677" lon="6.78686">
        <ele>368</ele>
        <time>2016-05-29T09:28:00.000Z</time>
      </trkpt>
      <trkpt lat="47.46774" lon="6.78685">
        <ele>368</ele>
        <time>2016-05-29T09:28:01.000Z</time>
      </trkpt>
      <trkpt lat="47.46778" lon="6.78684">
        <ele>367</ele>
        <time>2016-05-29T09:28:02.000Z</time>
      </trkpt>
      <trkpt lat="47.46782" lon="6.78683">
        <ele>367</ele>
        <time>2016-05-29T09:28:03.000Z</time>
      </trkpt>
      <trkpt lat="47.46786" lon="6.78681">
        <ele>367</ele>
        <time>2016-05-29T09:28:04.000Z</time>
      </trkpt>
      <trkpt lat="47.4679" lon="6.78678">
        <ele>367</ele>
        <time>2016-05-29T09:28:05.000Z</time>
      </trkpt>
      <trkpt lat="47.46793" lon="6.78674">
        <ele>366</ele>
        <time>2016-05-29T09:28:06.000Z</time>
      </trkpt>
      <trkpt lat="47.46796" lon="6.78671">
        <ele>366</ele>
        <time>2016-05-29T09:28:07.000Z</time>
      </trkpt>
      <trkpt lat="47.46798" lon="6.78667">
        <ele>366</ele>
        <time>2016-05-29T09:28:08.000Z</time>
      </trkpt>
      <trkpt lat="47.468" lon="6.78663">
        <ele>367</ele>
        <time>2016-05-29T09:28:09.000Z</time>
      </trkpt>
      <trkpt lat="47.46803" lon="6.78659">
        <ele>366</ele>
        <time>2016-05-29T09:28:10.000Z</time>
      </trkpt>
      <trkpt lat="47.46805" lon="6.78654">
        <ele>366</ele>
        <time>2016-05-29T09:28:11.000Z</time>
      </trkpt>
      <trkpt lat="47.46808" lon="6.78649">
        <ele>366</ele>
        <time>2016-05-29T09:28:12.000Z</time>
      </trkpt>
      <trkpt lat="47.4681" lon="6.78644">
        <ele>366</ele>
        <time>2016-05-29T09:28:13.000Z</time>
      </trkpt>
      <trkpt lat="47.46813" lon="6.7864">
        <ele>366</ele>
        <time>2016-05-29T09:28:14.000Z</time>
      </trkpt>
      <trkpt lat="47.46817" lon="6.78636">
        <ele>366</ele>
        <time>2016-05-29T09:28:15.000Z</time>
      </trkpt>
      <trkpt lat="47.46822" lon="6.78632">
        <ele>366</ele>
        <time>2016-05-29T09:28:16.000Z</time>
      </trkpt>
      <trkpt lat="47.4683" lon="6.78622">
        <ele>365</ele>
        <time>2016-05-29T09:28:18.000Z</time>
      </trkpt>
      <trkpt lat="47.46834" lon="6.78617">
        <ele>358</ele>
        <time>2016-05-29T09:28:19.000Z</time>
      </trkpt>
      <trkpt lat="47.46838" lon="6.78613">
        <ele>358</ele>
        <time>2016-05-29T09:28:20.000Z</time>
      </trkpt>
      <trkpt lat="47.46842" lon="6.78608">
        <ele>358</ele>
        <time>2016-05-29T09:28:21.000Z</time>
      </trkpt>
      <trkpt lat="47.46847" lon="6.78604">
        <ele>358</ele>
        <time>2016-05-29T09:28:22.000Z</time>
      </trkpt>
      <trkpt lat="47.46862" lon="6.78588">
        <ele>357</ele>
        <time>2016-05-29T09:28:23.000Z</time>
      </trkpt>
      <trkpt lat="47.46871" lon="6.78586">
        <ele>356</ele>
        <time>2016-05-29T09:28:24.000Z</time>
      </trkpt>
      <trkpt lat="47.4688" lon="6.78586">
        <ele>355</ele>
        <time>2016-05-29T09:28:25.000Z</time>
      </trkpt>
      <trkpt lat="47.46888" lon="6.78587">
        <ele>354</ele>
        <time>2016-05-29T09:28:26.000Z</time>
      </trkpt>
      <trkpt lat="47.46897" lon="6.78593">
        <ele>353</ele>
        <time>2016-05-29T09:28:27.000Z</time>
      </trkpt>
      <trkpt lat="47.46902" lon="6.78595">
        <ele>352</ele>
        <time>2016-05-29T09:28:28.000Z</time>
      </trkpt>
      <trkpt lat="47.46905" lon="6.786">
        <ele>352</ele>
        <time>2016-05-29T09:28:29.000Z</time>
      </trkpt>
      <trkpt lat="47.46906" lon="6.78604">
        <ele>353</ele>
        <time>2016-05-29T09:28:30.000Z</time>
      </trkpt>
      <trkpt lat="47.46909" lon="6.78606">
        <ele>353</ele>
        <time>2016-05-29T09:28:31.000Z</time>
      </trkpt>
      <trkpt lat="47.46912" lon="6.78609">
        <ele>353</ele>
        <time>2016-05-29T09:28:32.000Z</time>
      </trkpt>
      <trkpt lat="47.46915" lon="6.78608">
        <ele>353</ele>
        <time>2016-05-29T09:28:34.000Z</time>
      </trkpt>
      <trkpt lat="47.46917" lon="6.78608">
        <ele>353</ele>
        <time>2016-05-29T09:28:35.000Z</time>
      </trkpt>
      <trkpt lat="47.46921" lon="6.78608">
        <ele>353</ele>
        <time>2016-05-29T09:28:38.000Z</time>
      </trkpt>
      <trkpt lat="47.46922" lon="6.78609">
        <ele>353</ele>
        <time>2016-05-29T09:28:39.000Z</time>
      </trkpt>
      <trkpt lat="47.46926" lon="6.7861">
        <ele>353</ele>
        <time>2016-05-29T09:28:44.000Z</time>
      </trkpt>
      <trkpt lat="47.46928" lon="6.7861">
        <ele>354</ele>
        <time>2016-05-29T09:28:45.000Z</time>
      </trkpt>
      <trkpt lat="47.46931" lon="6.78609">
        <ele>354</ele>
        <time>2016-05-29T09:28:48.000Z</time>
      </trkpt>
      <trkpt lat="47.46933" lon="6.78609">
        <ele>354</ele>
        <time>2016-05-29T09:28:49.000Z</time>
      </trkpt>
      <trkpt lat="47.46937" lon="6.7861">
        <ele>354</ele>
        <time>2016-05-29T09:28:52.000Z</time>
      </trkpt>
      <trkpt lat="47.46938" lon="6.7861">
        <ele>354</ele>
        <time>2016-05-29T09:28:53.000Z</time>
      </trkpt>
      <trkpt lat="47.46941" lon="6.78609">
        <ele>354</ele>
        <time>2016-05-29T09:28:55.000Z</time>
      </trkpt>
      <trkpt lat="47.46942" lon="6.78607">
        <ele>354</ele>
        <time>2016-05-29T09:28:56.000Z</time>
      </trkpt>
      <trkpt lat="47.46946" lon="6.78604">
        <ele>355</ele>
        <time>2016-05-29T09:28:59.000Z</time>
      </trkpt>
      <trkpt lat="47.46947" lon="6.78605">
        <ele>355</ele>
        <time>2016-05-29T09:29:00.000Z</time>
      </trkpt>
      <trkpt lat="47.46951" lon="6.78604">
        <ele>355</ele>
        <time>2016-05-29T09:29:05.000Z</time>
      </trkpt>
      <trkpt lat="47.46952" lon="6.78604">
        <ele>355</ele>
        <time>2016-05-29T09:29:06.000Z</time>
      </trkpt>
      <trkpt lat="47.46956" lon="6.78604">
        <ele>356</ele>
        <time>2016-05-29T09:29:11.000Z</time>
      </trkpt>
      <trkpt lat="47.46957" lon="6.78604">
        <ele>356</ele>
        <time>2016-05-29T09:29:12.000Z</time>
      </trkpt>
      <trkpt lat="47.4696" lon="6.78602">
        <ele>356</ele>
        <time>2016-05-29T09:29:15.000Z</time>
      </trkpt>
      <trkpt lat="47.46962" lon="6.78602">
        <ele>356</ele>
        <time>2016-05-29T09:29:16.000Z</time>
      </trkpt>
      <trkpt lat="47.46966" lon="6.78601">
        <ele>357</ele>
        <time>2016-05-29T09:29:20.000Z</time>
      </trkpt>
      <trkpt lat="47.46967" lon="6.78601">
        <ele>357</ele>
        <time>2016-05-29T09:29:21.000Z</time>
      </trkpt>
      <trkpt lat="47.46971" lon="6.78599">
        <ele>357</ele>
        <time>2016-05-29T09:29:25.000Z</time>
      </trkpt>
      <trkpt lat="47.46972" lon="6.78598">
        <ele>357</ele>
        <time>2016-05-29T09:29:26.000Z</time>
      </trkpt>
      <trkpt lat="47.46975" lon="6.78595">
        <ele>357</ele>
        <time>2016-05-29T09:29:33.000Z</time>
      </trkpt>
      <trkpt lat="47.46977" lon="6.78594">
        <ele>358</ele>
        <time>2016-05-29T09:29:34.000Z</time>
      </trkpt>
      <trkpt lat="47.4698" lon="6.78591">
        <ele>358</ele>
        <time>2016-05-29T09:29:36.000Z</time>
      </trkpt>
      <trkpt lat="47.46982" lon="6.78589">
        <ele>358</ele>
        <time>2016-05-29T09:29:37.000Z</time>
      </trkpt>
      <trkpt lat="47.46986" lon="6.78585">
        <ele>359</ele>
        <time>2016-05-29T09:29:39.000Z</time>
      </trkpt>
      <trkpt lat="47.46987" lon="6.78584">
        <ele>359</ele>
        <time>2016-05-29T09:29:40.000Z</time>
      </trkpt>
      <trkpt lat="47.46991" lon="6.7858">
        <ele>359</ele>
        <time>2016-05-29T09:29:43.000Z</time>
      </trkpt>
      <trkpt lat="47.46991" lon="6.78579">
        <ele>359</ele>
        <time>2016-05-29T09:29:44.000Z</time>
      </trkpt>
      <trkpt lat="47.46994" lon="6.78576">
        <ele>359</ele>
        <time>2016-05-29T09:29:46.000Z</time>
      </trkpt>
      <trkpt lat="47.46995" lon="6.78575">
        <ele>359</ele>
        <time>2016-05-29T09:29:47.000Z</time>
      </trkpt>
      <trkpt lat="47.46998" lon="6.78571">
        <ele>358</ele>
        <time>2016-05-29T09:29:51.000Z</time>
      </trkpt>
      <trkpt lat="47.46998" lon="6.7857">
        <ele>358</ele>
        <time>2016-05-29T09:29:52.000Z</time>
      </trkpt>
      <trkpt lat="47.47001" lon="6.78568">
        <ele>361</ele>
        <time>2016-05-29T09:29:54.000Z</time>
      </trkpt>
      <trkpt lat="47.47003" lon="6.78567">
        <ele>361</ele>
        <time>2016-05-29T09:29:55.000Z</time>
      </trkpt>
      <trkpt lat="47.47005" lon="6.78565">
        <ele>361</ele>
        <time>2016-05-29T09:29:56.000Z</time>
      </trkpt>
      <trkpt lat="47.47008" lon="6.78564">
        <ele>361</ele>
        <time>2016-05-29T09:29:57.000Z</time>
      </trkpt>
      <trkpt lat="47.47012" lon="6.78562">
        <ele>361</ele>
        <time>2016-05-29T09:29:59.000Z</time>
      </trkpt>
      <trkpt lat="47.47013" lon="6.78562">
        <ele>361</ele>
        <time>2016-05-29T09:30:00.000Z</time>
      </trkpt>
      <trkpt lat="47.47017" lon="6.7856">
        <ele>361</ele>
        <time>2016-05-29T09:30:03.000Z</time>
      </trkpt>
      <trkpt lat="47.47018" lon="6.78559">
        <ele>361</ele>
        <time>2016-05-29T09:30:04.000Z</time>
      </trkpt>
      <trkpt lat="47.47021" lon="6.78556">
        <ele>361</ele>
        <time>2016-05-29T09:30:06.000Z</time>
      </trkpt>
      <trkpt lat="47.47022" lon="6.78554">
        <ele>361</ele>
        <time>2016-05-29T09:30:07.000Z</time>
      </trkpt>
      <trkpt lat="47.47024" lon="6.78552">
        <ele>361</ele>
        <time>2016-05-29T09:30:08.000Z</time>
      </trkpt>
      <trkpt lat="47.47026" lon="6.7855">
        <ele>361</ele>
        <time>2016-05-29T09:30:09.000Z</time>
      </trkpt>
      <trkpt lat="47.47028" lon="6.78548">
        <ele>361</ele>
        <time>2016-05-29T09:30:10.000Z</time>
      </trkpt>
      <trkpt lat="47.4703" lon="6.78546">
        <ele>361</ele>
        <time>2016-05-29T09:30:11.000Z</time>
      </trkpt>
      <trkpt lat="47.47032" lon="6.78544">
        <ele>361</ele>
        <time>2016-05-29T09:30:12.000Z</time>
      </trkpt>
      <trkpt lat="47.47035" lon="6.78543">
        <ele>361</ele>
        <time>2016-05-29T09:30:13.000Z</time>
      </trkpt>
      <trkpt lat="47.47038" lon="6.78542">
        <ele>361</ele>
        <time>2016-05-29T09:30:14.000Z</time>
      </trkpt>
      <trkpt lat="47.47041" lon="6.7854">
        <ele>361</ele>
        <time>2016-05-29T09:30:15.000Z</time>
      </trkpt>
      <trkpt lat="47.47044" lon="6.78538">
        <ele>361</ele>
        <time>2016-05-29T09:30:16.000Z</time>
      </trkpt>
      <trkpt lat="47.47046" lon="6.78536">
        <ele>361</ele>
        <time>2016-05-29T09:30:17.000Z</time>
      </trkpt>
      <trkpt lat="47.47049" lon="6.78533">
        <ele>361</ele>
        <time>2016-05-29T09:30:18.000Z</time>
      </trkpt>
      <trkpt lat="47.47052" lon="6.78532">
        <ele>361</ele>
        <time>2016-05-29T09:30:19.000Z</time>
      </trkpt>
      <trkpt lat="47.47055" lon="6.7853">
        <ele>361</ele>
        <time>2016-05-29T09:30:20.000Z</time>
      </trkpt>
      <trkpt lat="47.47057" lon="6.78528">
        <ele>361</ele>
        <time>2016-05-29T09:30:21.000Z</time>
      </trkpt>
      <trkpt lat="47.4706" lon="6.78526">
        <ele>361</ele>
        <time>2016-05-29T09:30:22.000Z</time>
      </trkpt>
      <trkpt lat="47.47063" lon="6.78523">
        <ele>361</ele>
        <time>2016-05-29T09:30:23.000Z</time>
      </trkpt>
      <trkpt lat="47.47065" lon="6.78522">
        <ele>361</ele>
        <time>2016-05-29T09:30:24.000Z</time>
      </trkpt>
      <trkpt lat="47.47068" lon="6.78521">
        <ele>361</ele>
        <time>2016-05-29T09:30:25.000Z</time>
      </trkpt>
      <trkpt lat="47.4707" lon="6.7852">
        <ele>361</ele>
        <time>2016-05-29T09:30:26.000Z</time>
      </trkpt>
      <trkpt lat="47.47073" lon="6.7852">
        <ele>361</ele>
        <time>2016-05-29T09:30:27.000Z</time>
      </trkpt>
      <trkpt lat="47.47076" lon="6.78519">
        <ele>361</ele>
        <time>2016-05-29T09:30:29.000Z</time>
      </trkpt>
      <trkpt lat="47.47079" lon="6.78518">
        <ele>361</ele>
        <time>2016-05-29T09:30:30.000Z</time>
      </trkpt>
      <trkpt lat="47.47082" lon="6.78517">
        <ele>361</ele>
        <time>2016-05-29T09:30:32.000Z</time>
      </trkpt>
      <trkpt lat="47.47084" lon="6.78517">
        <ele>361</ele>
        <time>2016-05-29T09:30:33.000Z</time>
      </trkpt>
      <trkpt lat="47.47087" lon="6.78515">
        <ele>361</ele>
        <time>2016-05-29T09:30:35.000Z</time>
      </trkpt>
      <trkpt lat="47.47089" lon="6.78514">
        <ele>361</ele>
        <time>2016-05-29T09:30:36.000Z</time>
      </trkpt>
      <trkpt lat="47.47092" lon="6.78513">
        <ele>361</ele>
        <time>2016-05-29T09:30:38.000Z</time>
      </trkpt>
      <trkpt lat="47.47095" lon="6.78513">
        <ele>361</ele>
        <time>2016-05-29T09:30:39.000Z</time>
      </trkpt>
      <trkpt lat="47.47097" lon="6.78512">
        <ele>361</ele>
        <time>2016-05-29T09:30:40.000Z</time>
      </trkpt>
      <trkpt lat="47.47099" lon="6.7851">
        <ele>361</ele>
        <time>2016-05-29T09:30:41.000Z</time>
      </trkpt>
      <trkpt lat="47.47102" lon="6.78508">
        <ele>361</ele>
        <time>2016-05-29T09:30:42.000Z</time>
      </trkpt>
      <trkpt lat="47.47104" lon="6.78506">
        <ele>361</ele>
        <time>2016-05-29T09:30:43.000Z</time>
      </trkpt>
      <trkpt lat="47.47107" lon="6.78505">
        <ele>361</ele>
        <time>2016-05-29T09:30:44.000Z</time>
      </trkpt>
      <trkpt lat="47.47109" lon="6.78503">
        <ele>361</ele>
        <time>2016-05-29T09:30:45.000Z</time>
      </trkpt>
      <trkpt lat="47.47114" lon="6.78502">
        <ele>362</ele>
        <time>2016-05-29T09:30:47.000Z</time>
      </trkpt>
      <trkpt lat="47.47116" lon="6.78501">
        <ele>362</ele>
        <time>2016-05-29T09:30:48.000Z</time>
      </trkpt>
      <trkpt lat="47.4712" lon="6.78499">
        <ele>359</ele>
        <time>2016-05-29T09:30:50.000Z</time>
      </trkpt>
      <trkpt lat="47.47121" lon="6.78497">
        <ele>359</ele>
        <time>2016-05-29T09:30:51.000Z</time>
      </trkpt>
      <trkpt lat="47.47125" lon="6.78495">
        <ele>359</ele>
        <time>2016-05-29T09:30:53.000Z</time>
      </trkpt>
      <trkpt lat="47.47126" lon="6.78493">
        <ele>359</ele>
        <time>2016-05-29T09:30:54.000Z</time>
      </trkpt>
      <trkpt lat="47.47128" lon="6.78492">
        <ele>359</ele>
        <time>2016-05-29T09:30:55.001Z</time>
      </trkpt>
      <trkpt lat="47.4713" lon="6.78489">
        <ele>359</ele>
        <time>2016-05-29T09:30:56.000Z</time>
      </trkpt>
      <trkpt lat="47.47134" lon="6.78486">
        <ele>359</ele>
        <time>2016-05-29T09:30:57.000Z</time>
      </trkpt>
      <trkpt lat="47.47136" lon="6.78484">
        <ele>359</ele>
        <time>2016-05-29T09:30:58.000Z</time>
      </trkpt>
      <trkpt lat="47.47138" lon="6.78481">
        <ele>359</ele>
        <time>2016-05-29T09:30:59.000Z</time>
      </trkpt>
      <trkpt lat="47.4714" lon="6.78479">
        <ele>359</ele>
        <time>2016-05-29T09:31:00.000Z</time>
      </trkpt>
      <trkpt lat="47.47142" lon="6.78477">
        <ele>359</ele>
        <time>2016-05-29T09:31:01.000Z</time>
      </trkpt>
      <trkpt lat="47.47143" lon="6.78474">
        <ele>359</ele>
        <time>2016-05-29T09:31:02.000Z</time>
      </trkpt>
      <trkpt lat="47.47145" lon="6.78472">
        <ele>359</ele>
        <time>2016-05-29T09:31:03.000Z</time>
      </trkpt>
      <trkpt lat="47.47147" lon="6.78471">
        <ele>359</ele>
        <time>2016-05-29T09:31:04.000Z</time>
      </trkpt>
      <trkpt lat="47.4715" lon="6.7847">
        <ele>359</ele>
        <time>2016-05-29T09:31:05.000Z</time>
      </trkpt>
      <trkpt lat="47.47152" lon="6.7847">
        <ele>359</ele>
        <time>2016-05-29T09:31:06.000Z</time>
      </trkpt>
      <trkpt lat="47.47155" lon="6.78469">
        <ele>359</ele>
        <time>2016-05-29T09:31:07.000Z</time>
      </trkpt>
      <trkpt lat="47.47157" lon="6.78469">
        <ele>359</ele>
        <time>2016-05-29T09:31:08.000Z</time>
      </trkpt>
      <trkpt lat="47.47161" lon="6.78469">
        <ele>359</ele>
        <time>2016-05-29T09:31:10.000Z</time>
      </trkpt>
      <trkpt lat="47.47163" lon="6.78469">
        <ele>359</ele>
        <time>2016-05-29T09:31:11.000Z</time>
      </trkpt>
      <trkpt lat="47.47167" lon="6.7847">
        <ele>359</ele>
        <time>2016-05-29T09:31:13.000Z</time>
      </trkpt>
      <trkpt lat="47.47169" lon="6.7847">
        <ele>360</ele>
        <time>2016-05-29T09:31:14.000Z</time>
      </trkpt>
      <trkpt lat="47.47171" lon="6.78471">
        <ele>360</ele>
        <time>2016-05-29T09:31:15.000Z</time>
      </trkpt>
      <trkpt lat="47.47173" lon="6.78471">
        <ele>360</ele>
        <time>2016-05-29T09:31:16.000Z</time>
      </trkpt>
      <trkpt lat="47.47176" lon="6.78472">
        <ele>360</ele>
        <time>2016-05-29T09:31:17.000Z</time>
      </trkpt>
      <trkpt lat="47.47179" lon="6.78472">
        <ele>360</ele>
        <time>2016-05-29T09:31:18.000Z</time>
      </trkpt>
      <trkpt lat="47.47182" lon="6.78475">
        <ele>360</ele>
        <time>2016-05-29T09:31:20.002Z</time>
      </trkpt>
      <trkpt lat="47.47184" lon="6.78475">
        <ele>360</ele>
        <time>2016-05-29T09:31:21.000Z</time>
      </trkpt>
      <trkpt lat="47.47187" lon="6.78475">
        <ele>360</ele>
        <time>2016-05-29T09:31:23.000Z</time>
      </trkpt>
      <trkpt lat="47.47188" lon="6.78475">
        <ele>360</ele>
        <time>2016-05-29T09:31:24.000Z</time>
      </trkpt>
      <trkpt lat="47.47193" lon="6.78476">
        <ele>360</ele>
        <time>2016-05-29T09:31:26.000Z</time>
      </trkpt>
      <trkpt lat="47.47194" lon="6.78474">
        <ele>360</ele>
        <time>2016-05-29T09:31:27.000Z</time>
      </trkpt>
      <trkpt lat="47.47196" lon="6.7847">
        <ele>360</ele>
        <time>2016-05-29T09:31:29.000Z</time>
      </trkpt>
      <trkpt lat="47.47197" lon="6.78468">
        <ele>360</ele>
        <time>2016-05-29T09:31:30.000Z</time>
      </trkpt>
      <trkpt lat="47.472" lon="6.78466">
        <ele>360</ele>
        <time>2016-05-29T09:31:31.000Z</time>
      </trkpt>
      <trkpt lat="47.47202" lon="6.78466">
        <ele>360</ele>
        <time>2016-05-29T09:31:32.000Z</time>
      </trkpt>
      <trkpt lat="47.47204" lon="6.78465">
        <ele>360</ele>
        <time>2016-05-29T09:31:33.000Z</time>
      </trkpt>
      <trkpt lat="47.47208" lon="6.78469">
        <ele>360</ele>
        <time>2016-05-29T09:31:34.000Z</time>
      </trkpt>
      <trkpt lat="47.47211" lon="6.78472">
        <ele>360</ele>
        <time>2016-05-29T09:31:35.000Z</time>
      </trkpt>
      <trkpt lat="47.47214" lon="6.78476">
        <ele>360</ele>
        <time>2016-05-29T09:31:36.000Z</time>
      </trkpt>
      <trkpt lat="47.47217" lon="6.78479">
        <ele>360</ele>
        <time>2016-05-29T09:31:37.000Z</time>
      </trkpt>
      <trkpt lat="47.4722" lon="6.78481">
        <ele>360</ele>
        <time>2016-05-29T09:31:38.000Z</time>
      </trkpt>
      <trkpt lat="47.47224" lon="6.78484">
        <ele>361</ele>
        <time>2016-05-29T09:31:39.000Z</time>
      </trkpt>
      <trkpt lat="47.47226" lon="6.78485">
        <ele>361</ele>
        <time>2016-05-29T09:31:40.001Z</time>
      </trkpt>
      <trkpt lat="47.47229" lon="6.78487">
        <ele>361</ele>
        <time>2016-05-29T09:31:41.001Z</time>
      </trkpt>
      <trkpt lat="47.47232" lon="6.78491">
        <ele>361</ele>
        <time>2016-05-29T09:31:42.000Z</time>
      </trkpt>
      <trkpt lat="47.47235" lon="6.78495">
        <ele>361</ele>
        <time>2016-05-29T09:31:44.000Z</time>
      </trkpt>
      <trkpt lat="47.47236" lon="6.78498">
        <ele>361</ele>
        <time>2016-05-29T09:31:45.000Z</time>
      </trkpt>
      <trkpt lat="47.47239" lon="6.785">
        <ele>361</ele>
        <time>2016-05-29T09:31:46.000Z</time>
      </trkpt>
      <trkpt lat="47.47241" lon="6.78501">
        <ele>362</ele>
        <time>2016-05-29T09:31:47.000Z</time>
      </trkpt>
      <trkpt lat="47.47244" lon="6.78502">
        <ele>362</ele>
        <time>2016-05-29T09:31:48.000Z</time>
      </trkpt>
      <trkpt lat="47.47247" lon="6.78503">
        <ele>362</ele>
        <time>2016-05-29T09:31:49.000Z</time>
      </trkpt>
      <trkpt lat="47.47249" lon="6.78504">
        <ele>362</ele>
        <time>2016-05-29T09:31:50.000Z</time>
      </trkpt>
      <trkpt lat="47.47252" lon="6.78506">
        <ele>362</ele>
        <time>2016-05-29T09:31:51.000Z</time>
      </trkpt>
      <trkpt lat="47.47255" lon="6.78507">
        <ele>362</ele>
        <time>2016-05-29T09:31:52.000Z</time>
      </trkpt>
      <trkpt lat="47.47258" lon="6.78508">
        <ele>363</ele>
        <time>2016-05-29T09:31:53.000Z</time>
      </trkpt>
      <trkpt lat="47.47261" lon="6.7851">
        <ele>363</ele>
        <time>2016-05-29T09:31:54.000Z</time>
      </trkpt>
      <trkpt lat="47.47264" lon="6.78512">
        <ele>363</ele>
        <time>2016-05-29T09:31:55.000Z</time>
      </trkpt>
      <trkpt lat="47.47267" lon="6.78513">
        <ele>363</ele>
        <time>2016-05-29T09:31:56.000Z</time>
      </trkpt>
      <trkpt lat="47.4727" lon="6.78515">
        <ele>363</ele>
        <time>2016-05-29T09:31:57.000Z</time>
      </trkpt>
      <trkpt lat="47.47273" lon="6.78516">
        <ele>363</ele>
        <time>2016-05-29T09:31:58.000Z</time>
      </trkpt>
      <trkpt lat="47.47276" lon="6.78517">
        <ele>363</ele>
        <time>2016-05-29T09:31:59.000Z</time>
      </trkpt>
      <trkpt lat="47.47278" lon="6.78517">
        <ele>363</ele>
        <time>2016-05-29T09:32:00.000Z</time>
      </trkpt>
      <trkpt lat="47.47281" lon="6.78518">
        <ele>363</ele>
        <time>2016-05-29T09:32:01.000Z</time>
      </trkpt>
      <trkpt lat="47.47285" lon="6.7852">
        <ele>363</ele>
        <time>2016-05-29T09:32:03.000Z</time>
      </trkpt>
      <trkpt lat="47.47287" lon="6.78521">
        <ele>363</ele>
        <time>2016-05-29T09:32:04.000Z</time>
      </trkpt>
      <trkpt lat="47.4729" lon="6.78522">
        <ele>363</ele>
        <time>2016-05-29T09:32:06.000Z</time>
      </trkpt>
      <trkpt lat="47.47291" lon="6.78523">
        <ele>363</ele>
        <time>2016-05-29T09:32:07.000Z</time>
      </trkpt>
      <trkpt lat="47.47293" lon="6.78525">
        <ele>364</ele>
        <time>2016-05-29T09:32:08.000Z</time>
      </trkpt>
      <trkpt lat="47.47296" lon="6.78526">
        <ele>364</ele>
        <time>2016-05-29T09:32:09.000Z</time>
      </trkpt>
      <trkpt lat="47.47298" lon="6.78528">
        <ele>364</ele>
        <time>2016-05-29T09:32:10.000Z</time>
      </trkpt>
      <trkpt lat="47.47301" lon="6.78529">
        <ele>364</ele>
        <time>2016-05-29T09:32:11.000Z</time>
      </trkpt>
      <trkpt lat="47.47303" lon="6.78531">
        <ele>364</ele>
        <time>2016-05-29T09:32:11.998Z</time>
      </trkpt>
      <trkpt lat="47.47306" lon="6.78532">
        <ele>364</ele>
        <time>2016-05-29T09:32:13.000Z</time>
      </trkpt>
      <trkpt lat="47.4731" lon="6.78534">
        <ele>364</ele>
        <time>2016-05-29T09:32:15.000Z</time>
      </trkpt>
      <trkpt lat="47.47311" lon="6.78536">
        <ele>364</ele>
        <time>2016-05-29T09:32:16.000Z</time>
      </trkpt>
      <trkpt lat="47.47315" lon="6.78539">
        <ele>364</ele>
        <time>2016-05-29T09:32:18.001Z</time>
      </trkpt>
      <trkpt lat="47.47318" lon="6.78541">
        <ele>364</ele>
        <time>2016-05-29T09:32:19.001Z</time>
      </trkpt>
      <trkpt lat="47.47322" lon="6.78542">
        <ele>364</ele>
        <time>2016-05-29T09:32:21.000Z</time>
      </trkpt>
      <trkpt lat="47.47324" lon="6.78542">
        <ele>364</ele>
        <time>2016-05-29T09:32:22.000Z</time>
      </trkpt>
      <trkpt lat="47.47328" lon="6.78544">
        <ele>364</ele>
        <time>2016-05-29T09:32:25.000Z</time>
      </trkpt>
      <trkpt lat="47.47329" lon="6.78545">
        <ele>364</ele>
        <time>2016-05-29T09:32:26.000Z</time>
      </trkpt>
      <trkpt lat="47.47333" lon="6.78547">
        <ele>364</ele>
        <time>2016-05-29T09:32:28.000Z</time>
      </trkpt>
      <trkpt lat="47.47335" lon="6.78548">
        <ele>365</ele>
        <time>2016-05-29T09:32:29.000Z</time>
      </trkpt>
      <trkpt lat="47.47338" lon="6.78549">
        <ele>365</ele>
        <time>2016-05-29T09:32:30.000Z</time>
      </trkpt>
      <trkpt lat="47.4734" lon="6.7855">
        <ele>365</ele>
        <time>2016-05-29T09:32:31.000Z</time>
      </trkpt>
      <trkpt lat="47.47343" lon="6.7855">
        <ele>365</ele>
        <time>2016-05-29T09:32:32.000Z</time>
      </trkpt>
      <trkpt lat="47.47345" lon="6.7855">
        <ele>365</ele>
        <time>2016-05-29T09:32:33.000Z</time>
      </trkpt>
      <trkpt lat="47.47349" lon="6.78551">
        <ele>365</ele>
        <time>2016-05-29T09:32:35.000Z</time>
      </trkpt>
      <trkpt lat="47.47351" lon="6.78551">
        <ele>365</ele>
        <time>2016-05-29T09:32:36.000Z</time>
      </trkpt>
      <trkpt lat="47.47354" lon="6.78552">
        <ele>365</ele>
        <time>2016-05-29T09:32:38.000Z</time>
      </trkpt>
      <trkpt lat="47.47357" lon="6.78553">
        <ele>365</ele>
        <time>2016-05-29T09:32:39.000Z</time>
      </trkpt>
      <trkpt lat="47.4736" lon="6.78555">
        <ele>365</ele>
        <time>2016-05-29T09:32:41.000Z</time>
      </trkpt>
      <trkpt lat="47.47362" lon="6.78557">
        <ele>365</ele>
        <time>2016-05-29T09:32:42.000Z</time>
      </trkpt>
      <trkpt lat="47.47366" lon="6.78559">
        <ele>365</ele>
        <time>2016-05-29T09:32:44.000Z</time>
      </trkpt>
      <trkpt lat="47.47367" lon="6.7856">
        <ele>365</ele>
        <time>2016-05-29T09:32:45.000Z</time>
      </trkpt>
      <trkpt lat="47.47371" lon="6.78561">
        <ele>365</ele>
        <time>2016-05-29T09:32:47.000Z</time>
      </trkpt>
      <trkpt lat="47.47373" lon="6.78562">
        <ele>365</ele>
        <time>2016-05-29T09:32:48.000Z</time>
      </trkpt>
      <trkpt lat="47.47377" lon="6.78564">
        <ele>365</ele>
        <time>2016-05-29T09:32:50.000Z</time>
      </trkpt>
      <trkpt lat="47.47379" lon="6.78564">
        <ele>365</ele>
        <time>2016-05-29T09:32:51.000Z</time>
      </trkpt>
      <trkpt lat="47.47382" lon="6.78566">
        <ele>365</ele>
        <time>2016-05-29T09:32:53.000Z</time>
      </trkpt>
      <trkpt lat="47.47384" lon="6.78566">
        <ele>365</ele>
        <time>2016-05-29T09:32:54.000Z</time>
      </trkpt>
      <trkpt lat="47.47387" lon="6.78567">
        <ele>365</ele>
        <time>2016-05-29T09:32:56.000Z</time>
      </trkpt>
      <trkpt lat="47.47388" lon="6.78568">
        <ele>365</ele>
        <time>2016-05-29T09:32:57.000Z</time>
      </trkpt>
      <trkpt lat="47.47392" lon="6.78569">
        <ele>365</ele>
        <time>2016-05-29T09:32:59.000Z</time>
      </trkpt>
      <trkpt lat="47.47393" lon="6.7857">
        <ele>365</ele>
        <time>2016-05-29T09:33:00.000Z</time>
      </trkpt>
      <trkpt lat="47.47398" lon="6.78571">
        <ele>365</ele>
        <time>2016-05-29T09:33:03.000Z</time>
      </trkpt>
      <trkpt lat="47.47399" lon="6.78571">
        <ele>365</ele>
        <time>2016-05-29T09:33:04.000Z</time>
      </trkpt>
      <trkpt lat="47.47404" lon="6.78573">
        <ele>365</ele>
        <time>2016-05-29T09:33:06.000Z</time>
      </trkpt>
      <trkpt lat="47.47406" lon="6.78574">
        <ele>365</ele>
        <time>2016-05-29T09:33:07.000Z</time>
      </trkpt>
      <trkpt lat="47.47409" lon="6.78575">
        <ele>366</ele>
        <time>2016-05-29T09:33:08.000Z</time>
      </trkpt>
      <trkpt lat="47.47411" lon="6.78576">
        <ele>366</ele>
        <time>2016-05-29T09:33:09.000Z</time>
      </trkpt>
      <trkpt lat="47.47414" lon="6.78577">
        <ele>366</ele>
        <time>2016-05-29T09:33:10.000Z</time>
      </trkpt>
      <trkpt lat="47.47417" lon="6.78578">
        <ele>365</ele>
        <time>2016-05-29T09:33:11.000Z</time>
      </trkpt>
      <trkpt lat="47.47421" lon="6.7858">
        <ele>365</ele>
        <time>2016-05-29T09:33:13.000Z</time>
      </trkpt>
      <trkpt lat="47.47423" lon="6.78582">
        <ele>365</ele>
        <time>2016-05-29T09:33:14.000Z</time>
      </trkpt>
      <trkpt lat="47.47426" lon="6.78584">
        <ele>365</ele>
        <time>2016-05-29T09:33:15.000Z</time>
      </trkpt>
      <trkpt lat="47.47428" lon="6.78586">
        <ele>365</ele>
        <time>2016-05-29T09:33:16.000Z</time>
      </trkpt>
      <trkpt lat="47.47432" lon="6.78588">
        <ele>365</ele>
        <time>2016-05-29T09:33:17.000Z</time>
      </trkpt>
      <trkpt lat="47.47436" lon="6.7859">
        <ele>365</ele>
        <time>2016-05-29T09:33:18.000Z</time>
      </trkpt>
      <trkpt lat="47.47441" lon="6.78592">
        <ele>364</ele>
        <time>2016-05-29T09:33:19.000Z</time>
      </trkpt>
      <trkpt lat="47.47446" lon="6.78593">
        <ele>364</ele>
        <time>2016-05-29T09:33:20.000Z</time>
      </trkpt>
      <trkpt lat="47.4745" lon="6.78594">
        <ele>364</ele>
        <time>2016-05-29T09:33:21.000Z</time>
      </trkpt>
      <trkpt lat="47.47455" lon="6.78595">
        <ele>364</ele>
        <time>2016-05-29T09:33:22.000Z</time>
      </trkpt>
      <trkpt lat="47.47458" lon="6.78595">
        <ele>364</ele>
        <time>2016-05-29T09:33:23.000Z</time>
      </trkpt>
      <trkpt lat="47.47462" lon="6.78596">
        <ele>364</ele>
        <time>2016-05-29T09:33:24.000Z</time>
      </trkpt>
      <trkpt lat="47.47465" lon="6.78596">
        <ele>363</ele>
        <time>2016-05-29T09:33:25.000Z</time>
      </trkpt>
      <trkpt lat="47.47467" lon="6.78597">
        <ele>363</ele>
        <time>2016-05-29T09:33:26.000Z</time>
      </trkpt>
      <trkpt lat="47.4747" lon="6.78598">
        <ele>363</ele>
        <time>2016-05-29T09:33:27.000Z</time>
      </trkpt>
      <trkpt lat="47.47473" lon="6.78599">
        <ele>363</ele>
        <time>2016-05-29T09:33:28.000Z</time>
      </trkpt>
      <trkpt lat="47.47476" lon="6.78598">
        <ele>363</ele>
        <time>2016-05-29T09:33:29.000Z</time>
      </trkpt>
      <trkpt lat="47.47479" lon="6.78598">
        <ele>363</ele>
        <time>2016-05-29T09:33:30.000Z</time>
      </trkpt>
      <trkpt lat="47.47483" lon="6.78597">
        <ele>363</ele>
        <time>2016-05-29T09:33:31.000Z</time>
      </trkpt>
      <trkpt lat="47.47486" lon="6.78595">
        <ele>362</ele>
        <time>2016-05-29T09:33:32.000Z</time>
      </trkpt>
      <trkpt lat="47.47489" lon="6.78594">
        <ele>362</ele>
        <time>2016-05-29T09:33:33.000Z</time>
      </trkpt>
      <trkpt lat="47.47493" lon="6.78592">
        <ele>362</ele>
        <time>2016-05-29T09:33:34.000Z</time>
      </trkpt>
      <trkpt lat="47.47496" lon="6.78589">
        <ele>362</ele>
        <time>2016-05-29T09:33:35.000Z</time>
      </trkpt>
      <trkpt lat="47.475" lon="6.78585">
        <ele>361</ele>
        <time>2016-05-29T09:33:36.000Z</time>
      </trkpt>
      <trkpt lat="47.47504" lon="6.78582">
        <ele>360</ele>
        <time>2016-05-29T09:33:37.000Z</time>
      </trkpt>
      <trkpt lat="47.47507" lon="6.78578">
        <ele>360</ele>
        <time>2016-05-29T09:33:38.000Z</time>
      </trkpt>
      <trkpt lat="47.47511" lon="6.78575">
        <ele>359</ele>
        <time>2016-05-29T09:33:39.000Z</time>
      </trkpt>
      <trkpt lat="47.47514" lon="6.78572">
        <ele>359</ele>
        <time>2016-05-29T09:33:40.000Z</time>
      </trkpt>
      <trkpt lat="47.47518" lon="6.78569">
        <ele>358</ele>
        <time>2016-05-29T09:33:41.000Z</time>
      </trkpt>
      <trkpt lat="47.47522" lon="6.78566">
        <ele>358</ele>
        <time>2016-05-29T09:33:42.000Z</time>
      </trkpt>
      <trkpt lat="47.47526" lon="6.78563">
        <ele>357</ele>
        <time>2016-05-29T09:33:43.000Z</time>
      </trkpt>
      <trkpt lat="47.4753" lon="6.78559">
        <ele>357</ele>
        <time>2016-05-29T09:33:44.000Z</time>
      </trkpt>
      <trkpt lat="47.47533" lon="6.78555">
        <ele>357</ele>
        <time>2016-05-29T09:33:45.000Z</time>
      </trkpt>
      <trkpt lat="47.47537" lon="6.78551">
        <ele>357</ele>
        <time>2016-05-29T09:33:46.000Z</time>
      </trkpt>
      <trkpt lat="47.4754" lon="6.78547">
        <ele>356</ele>
        <time>2016-05-29T09:33:47.000Z</time>
      </trkpt>
      <trkpt lat="47.47544" lon="6.78543">
        <ele>356</ele>
        <time>2016-05-29T09:33:48.000Z</time>
      </trkpt>
      <trkpt lat="47.47548" lon="6.78539">
        <ele>356</ele>
        <time>2016-05-29T09:33:49.000Z</time>
      </trkpt>
      <trkpt lat="47.47552" lon="6.78534">
        <ele>356</ele>
        <time>2016-05-29T09:33:50.000Z</time>
      </trkpt>
      <trkpt lat="47.47557" lon="6.78528">
        <ele>355</ele>
        <time>2016-05-29T09:33:51.000Z</time>
      </trkpt>
      <trkpt lat="47.47562" lon="6.78523">
        <ele>355</ele>
        <time>2016-05-29T09:33:52.000Z</time>
      </trkpt>
      <trkpt lat="47.47566" lon="6.78517">
        <ele>355</ele>
        <time>2016-05-29T09:33:53.000Z</time>
      </trkpt>
      <trkpt lat="47.4757" lon="6.78511">
        <ele>354</ele>
        <time>2016-05-29T09:33:54.000Z</time>
      </trkpt>
      <trkpt lat="47.47573" lon="6.78504">
        <ele>354</ele>
        <time>2016-05-29T09:33:55.000Z</time>
      </trkpt>
      <trkpt lat="47.47577" lon="6.78497">
        <ele>353</ele>
        <time>2016-05-29T09:33:56.000Z</time>
      </trkpt>
      <trkpt lat="47.4758" lon="6.7849">
        <ele>354</ele>
        <time>2016-05-29T09:33:57.000Z</time>
      </trkpt>
      <trkpt lat="47.47583" lon="6.78484">
        <ele>354</ele>
        <time>2016-05-29T09:33:58.000Z</time>
      </trkpt>
      <trkpt lat="47.47586" lon="6.78479">
        <ele>349</ele>
        <time>2016-05-29T09:33:59.000Z</time>
      </trkpt>
      <trkpt lat="47.4759" lon="6.78475">
        <ele>349</ele>
        <time>2016-05-29T09:34:00.000Z</time>
      </trkpt>
      <trkpt lat="47.47593" lon="6.78472">
        <ele>349</ele>
        <time>2016-05-29T09:34:01.000Z</time>
      </trkpt>
      <trkpt lat="47.47597" lon="6.78469">
        <ele>348</ele>
        <time>2016-05-29T09:34:02.000Z</time>
      </trkpt>
      <trkpt lat="47.476" lon="6.78466">
        <ele>348</ele>
        <time>2016-05-29T09:34:03.000Z</time>
      </trkpt>
      <trkpt lat="47.47603" lon="6.78464">
        <ele>348</ele>
        <time>2016-05-29T09:34:04.000Z</time>
      </trkpt>
      <trkpt lat="47.47606" lon="6.78461">
        <ele>348</ele>
        <time>2016-05-29T09:34:05.000Z</time>
      </trkpt>
      <trkpt lat="47.47614" lon="6.78442">
        <ele>347</ele>
        <time>2016-05-29T09:34:06.000Z</time>
      </trkpt>
      <trkpt lat="47.47618" lon="6.78433">
        <ele>347</ele>
        <time>2016-05-29T09:34:07.000Z</time>
      </trkpt>
      <trkpt lat="47.47621" lon="6.78428">
        <ele>347</ele>
        <time>2016-05-29T09:34:08.000Z</time>
      </trkpt>
      <trkpt lat="47.47624" lon="6.78424">
        <ele>347</ele>
        <time>2016-05-29T09:34:09.000Z</time>
      </trkpt>
      <trkpt lat="47.47627" lon="6.78421">
        <ele>347</ele>
        <time>2016-05-29T09:34:10.000Z</time>
      </trkpt>
      <trkpt lat="47.47628" lon="6.78421">
        <ele>346</ele>
        <time>2016-05-29T09:34:11.000Z</time>
      </trkpt>
      <trkpt lat="47.47634" lon="6.78408">
        <ele>346</ele>
        <time>2016-05-29T09:34:12.000Z</time>
      </trkpt>
      <trkpt lat="47.47639" lon="6.78405">
        <ele>346</ele>
        <time>2016-05-29T09:34:13.000Z</time>
      </trkpt>
      <trkpt lat="47.47642" lon="6.78405">
        <ele>345</ele>
        <time>2016-05-29T09:34:14.001Z</time>
      </trkpt>
      <trkpt lat="47.47645" lon="6.78405">
        <ele>345</ele>
        <time>2016-05-29T09:34:15.000Z</time>
      </trkpt>
      <trkpt lat="47.47645" lon="6.78411">
        <ele>345</ele>
        <time>2016-05-29T09:34:16.000Z</time>
      </trkpt>
      <trkpt lat="47.47647" lon="6.78411">
        <ele>345</ele>
        <time>2016-05-29T09:34:17.000Z</time>
      </trkpt>
      <trkpt lat="47.4765" lon="6.78415">
        <ele>344</ele>
        <time>2016-05-29T09:34:19.001Z</time>
      </trkpt>
      <trkpt lat="47.47651" lon="6.78416">
        <ele>344</ele>
        <time>2016-05-29T09:34:20.000Z</time>
      </trkpt>
      <trkpt lat="47.47652" lon="6.78418">
        <ele>344</ele>
        <time>2016-05-29T09:34:21.000Z</time>
      </trkpt>
      <trkpt lat="47.47653" lon="6.78421">
        <ele>344</ele>
        <time>2016-05-29T09:34:22.000Z</time>
      </trkpt>
      <trkpt lat="47.47654" lon="6.78425">
        <ele>344</ele>
        <time>2016-05-29T09:34:23.000Z</time>
      </trkpt>
      <trkpt lat="47.47654" lon="6.78429">
        <ele>344</ele>
        <time>2016-05-29T09:34:24.000Z</time>
      </trkpt>
      <trkpt lat="47.47653" lon="6.78433">
        <ele>344</ele>
        <time>2016-05-29T09:34:25.000Z</time>
      </trkpt>
      <trkpt lat="47.47653" lon="6.78436">
        <ele>344</ele>
        <time>2016-05-29T09:34:26.000Z</time>
      </trkpt>
      <trkpt lat="47.47657" lon="6.78435">
        <ele>344</ele>
        <time>2016-05-29T09:34:29.000Z</time>
      </trkpt>
      <trkpt lat="47.47658" lon="6.78434">
        <ele>344</ele>
        <time>2016-05-29T09:34:30.000Z</time>
      </trkpt>
      <trkpt lat="47.4766" lon="6.78427">
        <ele>343</ele>
        <time>2016-05-29T09:34:33.000Z</time>
      </trkpt>
      <trkpt lat="47.47661" lon="6.78426">
        <ele>343</ele>
        <time>2016-05-29T09:34:34.000Z</time>
      </trkpt>
      <trkpt lat="47.47664" lon="6.78423">
        <ele>342</ele>
        <time>2016-05-29T09:35:25.000Z</time>
      </trkpt>
      <trkpt lat="47.47665" lon="6.78422">
        <ele>342</ele>
        <time>2016-05-29T09:35:26.000Z</time>
      </trkpt>
      <trkpt lat="47.47665" lon="6.78417">
        <ele>341</ele>
        <time>2016-05-29T09:35:48.000Z</time>
      </trkpt>
      <trkpt lat="47.47665" lon="6.78415">
        <ele>341</ele>
        <time>2016-05-29T09:35:49.000Z</time>
      </trkpt>
      <trkpt lat="47.47666" lon="6.7841">
        <ele>342</ele>
        <time>2016-05-29T09:35:51.000Z</time>
      </trkpt>
      <trkpt lat="47.47667" lon="6.78408">
        <ele>341</ele>
        <time>2016-05-29T09:35:52.000Z</time>
      </trkpt>
      <trkpt lat="47.47668" lon="6.78403">
        <ele>341</ele>
        <time>2016-05-29T09:35:54.000Z</time>
      </trkpt>
      <trkpt lat="47.47668" lon="6.784">
        <ele>341</ele>
        <time>2016-05-29T09:35:55.000Z</time>
      </trkpt>
      <trkpt lat="47.47669" lon="6.78395">
        <ele>341</ele>
        <time>2016-05-29T09:35:57.000Z</time>
      </trkpt>
      <trkpt lat="47.47669" lon="6.78392">
        <ele>341</ele>
        <time>2016-05-29T09:35:58.000Z</time>
      </trkpt>
      <trkpt lat="47.4767" lon="6.78388">
        <ele>341</ele>
        <time>2016-05-29T09:35:59.000Z</time>
      </trkpt>
      <trkpt lat="47.47671" lon="6.78385">
        <ele>341</ele>
        <time>2016-05-29T09:36:00.000Z</time>
      </trkpt>
      <trkpt lat="47.47672" lon="6.78382">
        <ele>341</ele>
        <time>2016-05-29T09:36:01.000Z</time>
      </trkpt>
      <trkpt lat="47.47674" lon="6.78378">
        <ele>341</ele>
        <time>2016-05-29T09:36:02.000Z</time>
      </trkpt>
      <trkpt lat="47.47676" lon="6.78375">
        <ele>341</ele>
        <time>2016-05-29T09:36:03.000Z</time>
      </trkpt>
      <trkpt lat="47.47679" lon="6.78372">
        <ele>341</ele>
        <time>2016-05-29T09:36:04.000Z</time>
      </trkpt>
      <trkpt lat="47.47683" lon="6.78368">
        <ele>341</ele>
        <time>2016-05-29T09:36:05.000Z</time>
      </trkpt>
      <trkpt lat="47.47687" lon="6.78364">
        <ele>341</ele>
        <time>2016-05-29T09:36:06.000Z</time>
      </trkpt>
      <trkpt lat="47.47691" lon="6.78359">
        <ele>341</ele>
        <time>2016-05-29T09:36:07.000Z</time>
      </trkpt>
      <trkpt lat="47.47695" lon="6.78355">
        <ele>341</ele>
        <time>2016-05-29T09:36:08.000Z</time>
      </trkpt>
      <trkpt lat="47.47698" lon="6.7835">
        <ele>341</ele>
        <time>2016-05-29T09:36:09.000Z</time>
      </trkpt>
      <trkpt lat="47.477" lon="6.78346">
        <ele>341</ele>
        <time>2016-05-29T09:36:10.000Z</time>
      </trkpt>
      <trkpt lat="47.47702" lon="6.78342">
        <ele>341</ele>
        <time>2016-05-29T09:36:11.000Z</time>
      </trkpt>
      <trkpt lat="47.47704" lon="6.78338">
        <ele>341</ele>
        <time>2016-05-29T09:36:12.000Z</time>
      </trkpt>
      <trkpt lat="47.47706" lon="6.78334">
        <ele>340</ele>
        <time>2016-05-29T09:36:13.000Z</time>
      </trkpt>
      <trkpt lat="47.47708" lon="6.78329">
        <ele>338</ele>
        <time>2016-05-29T09:36:14.000Z</time>
      </trkpt>
      <trkpt lat="47.4771" lon="6.78324">
        <ele>338</ele>
        <time>2016-05-29T09:36:15.000Z</time>
      </trkpt>
      <trkpt lat="47.47712" lon="6.78319">
        <ele>338</ele>
        <time>2016-05-29T09:36:16.000Z</time>
      </trkpt>
      <trkpt lat="47.47712" lon="6.78309">
        <ele>338</ele>
        <time>2016-05-29T09:36:17.000Z</time>
      </trkpt>
      <trkpt lat="47.47712" lon="6.78304">
        <ele>338</ele>
        <time>2016-05-29T09:36:18.000Z</time>
      </trkpt>
      <trkpt lat="47.47712" lon="6.78297">
        <ele>338</ele>
        <time>2016-05-29T09:36:19.000Z</time>
      </trkpt>
      <trkpt lat="47.4771" lon="6.78289">
        <ele>337</ele>
        <time>2016-05-29T09:36:20.000Z</time>
      </trkpt>
      <trkpt lat="47.47709" lon="6.78281">
        <ele>337</ele>
        <time>2016-05-29T09:36:21.000Z</time>
      </trkpt>
      <trkpt lat="47.47707" lon="6.78273">
        <ele>337</ele>
        <time>2016-05-29T09:36:22.000Z</time>
      </trkpt>
      <trkpt lat="47.47707" lon="6.78265">
        <ele>337</ele>
        <time>2016-05-29T09:36:23.000Z</time>
      </trkpt>
      <trkpt lat="47.47706" lon="6.78258">
        <ele>337</ele>
        <time>2016-05-29T09:36:24.000Z</time>
      </trkpt>
      <trkpt lat="47.47703" lon="6.7825">
        <ele>334</ele>
        <time>2016-05-29T09:36:25.000Z</time>
      </trkpt>
      <trkpt lat="47.47701" lon="6.78242">
        <ele>334</ele>
        <time>2016-05-29T09:36:26.000Z</time>
      </trkpt>
      <trkpt lat="47.47699" lon="6.78234">
        <ele>333</ele>
        <time>2016-05-29T09:36:26.998Z</time>
      </trkpt>
      <trkpt lat="47.47697" lon="6.78226">
        <ele>333</ele>
        <time>2016-05-29T09:36:28.000Z</time>
      </trkpt>
      <trkpt lat="47.47694" lon="6.78219">
        <ele>333</ele>
        <time>2016-05-29T09:36:29.000Z</time>
      </trkpt>
      <trkpt lat="47.47693" lon="6.78212">
        <ele>333</ele>
        <time>2016-05-29T09:36:30.000Z</time>
      </trkpt>
      <trkpt lat="47.47691" lon="6.78204">
        <ele>332</ele>
        <time>2016-05-29T09:36:31.000Z</time>
      </trkpt>
      <trkpt lat="47.47692" lon="6.78196">
        <ele>332</ele>
        <time>2016-05-29T09:36:32.000Z</time>
      </trkpt>
      <trkpt lat="47.47693" lon="6.78187">
        <ele>332</ele>
        <time>2016-05-29T09:36:33.000Z</time>
      </trkpt>
      <trkpt lat="47.47694" lon="6.78178">
        <ele>332</ele>
        <time>2016-05-29T09:36:34.000Z</time>
      </trkpt>
      <trkpt lat="47.47695" lon="6.78169">
        <ele>331</ele>
        <time>2016-05-29T09:36:35.000Z</time>
      </trkpt>
      <trkpt lat="47.47697" lon="6.7816">
        <ele>328</ele>
        <time>2016-05-29T09:36:36.000Z</time>
      </trkpt>
      <trkpt lat="47.47698" lon="6.78153">
        <ele>328</ele>
        <time>2016-05-29T09:36:37.000Z</time>
      </trkpt>
      <trkpt lat="47.47701" lon="6.78143">
        <ele>327</ele>
        <time>2016-05-29T09:36:38.000Z</time>
      </trkpt>
      <trkpt lat="47.47704" lon="6.78134">
        <ele>327</ele>
        <time>2016-05-29T09:36:39.000Z</time>
      </trkpt>
      <trkpt lat="47.47707" lon="6.78124">
        <ele>326</ele>
        <time>2016-05-29T09:36:40.000Z</time>
      </trkpt>
      <trkpt lat="47.47711" lon="6.78113">
        <ele>326</ele>
        <time>2016-05-29T09:36:41.000Z</time>
      </trkpt>
      <trkpt lat="47.47715" lon="6.78104">
        <ele>325</ele>
        <time>2016-05-29T09:36:42.000Z</time>
      </trkpt>
      <trkpt lat="47.47719" lon="6.78094">
        <ele>325</ele>
        <time>2016-05-29T09:36:43.000Z</time>
      </trkpt>
      <trkpt lat="47.47722" lon="6.78082">
        <ele>322</ele>
        <time>2016-05-29T09:36:44.000Z</time>
      </trkpt>
      <trkpt lat="47.47726" lon="6.78071">
        <ele>322</ele>
        <time>2016-05-29T09:36:45.000Z</time>
      </trkpt>
      <trkpt lat="47.47728" lon="6.78058">
        <ele>322</ele>
        <time>2016-05-29T09:36:46.000Z</time>
      </trkpt>
      <trkpt lat="47.47731" lon="6.78046">
        <ele>322</ele>
        <time>2016-05-29T09:36:47.000Z</time>
      </trkpt>
      <trkpt lat="47.47732" lon="6.78033">
        <ele>322</ele>
        <time>2016-05-29T09:36:48.000Z</time>
      </trkpt>
      <trkpt lat="47.4773" lon="6.78022">
        <ele>321</ele>
        <time>2016-05-29T09:36:49.000Z</time>
      </trkpt>
      <trkpt lat="47.47731" lon="6.78011">
        <ele>321</ele>
        <time>2016-05-29T09:36:50.000Z</time>
      </trkpt>
      <trkpt lat="47.47731" lon="6.77999">
        <ele>320</ele>
        <time>2016-05-29T09:36:51.000Z</time>
      </trkpt>
      <trkpt lat="47.47729" lon="6.77989">
        <ele>320</ele>
        <time>2016-05-29T09:36:52.000Z</time>
      </trkpt>
      <trkpt lat="47.47727" lon="6.77979">
        <ele>320</ele>
        <time>2016-05-29T09:36:53.000Z</time>
      </trkpt>
      <trkpt lat="47.47726" lon="6.77969">
        <ele>320</ele>
        <time>2016-05-29T09:36:54.000Z</time>
      </trkpt>
      <trkpt lat="47.47724" lon="6.77958">
        <ele>320</ele>
        <time>2016-05-29T09:36:55.000Z</time>
      </trkpt>
      <trkpt lat="47.47721" lon="6.77947">
        <ele>320</ele>
        <time>2016-05-29T09:36:56.000Z</time>
      </trkpt>
      <trkpt lat="47.4772" lon="6.77937">
        <ele>320</ele>
        <time>2016-05-29T09:36:57.000Z</time>
      </trkpt>
      <trkpt lat="47.4772" lon="6.77927">
        <ele>319</ele>
        <time>2016-05-29T09:36:58.000Z</time>
      </trkpt>
      <trkpt lat="47.47719" lon="6.77916">
        <ele>318</ele>
        <time>2016-05-29T09:36:59.000Z</time>
      </trkpt>
      <trkpt lat="47.47717" lon="6.77907">
        <ele>318</ele>
        <time>2016-05-29T09:37:00.000Z</time>
      </trkpt>
      <trkpt lat="47.47716" lon="6.77898">
        <ele>318</ele>
        <time>2016-05-29T09:37:01.000Z</time>
      </trkpt>
      <trkpt lat="47.47716" lon="6.77888">
        <ele>318</ele>
        <time>2016-05-29T09:37:02.000Z</time>
      </trkpt>
      <trkpt lat="47.47715" lon="6.77879">
        <ele>318</ele>
        <time>2016-05-29T09:37:03.000Z</time>
      </trkpt>
      <trkpt lat="47.47714" lon="6.77869">
        <ele>318</ele>
        <time>2016-05-29T09:37:04.000Z</time>
      </trkpt>
      <trkpt lat="47.47713" lon="6.7786">
        <ele>318</ele>
        <time>2016-05-29T09:37:05.000Z</time>
      </trkpt>
      <trkpt lat="47.47711" lon="6.77849">
        <ele>318</ele>
        <time>2016-05-29T09:37:06.000Z</time>
      </trkpt>
      <trkpt lat="47.4771" lon="6.77839">
        <ele>318</ele>
        <time>2016-05-29T09:37:07.000Z</time>
      </trkpt>
      <trkpt lat="47.4771" lon="6.7783">
        <ele>317</ele>
        <time>2016-05-29T09:37:08.000Z</time>
      </trkpt>
      <trkpt lat="47.47709" lon="6.7782">
        <ele>317</ele>
        <time>2016-05-29T09:37:09.000Z</time>
      </trkpt>
      <trkpt lat="47.4771" lon="6.7781">
        <ele>317</ele>
        <time>2016-05-29T09:37:10.000Z</time>
      </trkpt>
      <trkpt lat="47.47711" lon="6.77801">
        <ele>317</ele>
        <time>2016-05-29T09:37:11.000Z</time>
      </trkpt>
      <trkpt lat="47.47711" lon="6.7779">
        <ele>316</ele>
        <time>2016-05-29T09:37:12.000Z</time>
      </trkpt>
      <trkpt lat="47.47711" lon="6.77782">
        <ele>316</ele>
        <time>2016-05-29T09:37:13.000Z</time>
      </trkpt>
      <trkpt lat="47.47712" lon="6.77772">
        <ele>316</ele>
        <time>2016-05-29T09:37:14.000Z</time>
      </trkpt>
      <trkpt lat="47.47713" lon="6.77761">
        <ele>316</ele>
        <time>2016-05-29T09:37:15.000Z</time>
      </trkpt>
      <trkpt lat="47.47713" lon="6.7775">
        <ele>316</ele>
        <time>2016-05-29T09:37:16.000Z</time>
      </trkpt>
      <trkpt lat="47.47714" lon="6.7774">
        <ele>316</ele>
        <time>2016-05-29T09:37:17.000Z</time>
      </trkpt>
      <trkpt lat="47.47716" lon="6.77731">
        <ele>316</ele>
        <time>2016-05-29T09:37:18.000Z</time>
      </trkpt>
      <trkpt lat="47.47719" lon="6.77721">
        <ele>315</ele>
        <time>2016-05-29T09:37:19.000Z</time>
      </trkpt>
      <trkpt lat="47.47721" lon="6.77714">
        <ele>315</ele>
        <time>2016-05-29T09:37:20.000Z</time>
      </trkpt>
      <trkpt lat="47.47722" lon="6.77707">
        <ele>315</ele>
        <time>2016-05-29T09:37:21.000Z</time>
      </trkpt>
      <trkpt lat="47.47723" lon="6.77701">
        <ele>315</ele>
        <time>2016-05-29T09:37:22.000Z</time>
      </trkpt>
      <trkpt lat="47.47722" lon="6.77694">
        <ele>315</ele>
        <time>2016-05-29T09:37:23.000Z</time>
      </trkpt>
      <trkpt lat="47.4772" lon="6.77688">
        <ele>315</ele>
        <time>2016-05-29T09:37:24.000Z</time>
      </trkpt>
      <trkpt lat="47.47716" lon="6.77681">
        <ele>315</ele>
        <time>2016-05-29T09:37:25.000Z</time>
      </trkpt>
      <trkpt lat="47.47714" lon="6.77674">
        <ele>315</ele>
        <time>2016-05-29T09:37:26.000Z</time>
      </trkpt>
      <trkpt lat="47.47712" lon="6.77666">
        <ele>314</ele>
        <time>2016-05-29T09:37:27.000Z</time>
      </trkpt>
      <trkpt lat="47.4771" lon="6.77658">
        <ele>314</ele>
        <time>2016-05-29T09:37:27.999Z</time>
      </trkpt>
      <trkpt lat="47.4771" lon="6.7765">
        <ele>314</ele>
        <time>2016-05-29T09:37:29.000Z</time>
      </trkpt>
      <trkpt lat="47.47707" lon="6.77641">
        <ele>314</ele>
        <time>2016-05-29T09:37:30.000Z</time>
      </trkpt>
      <trkpt lat="47.47706" lon="6.77633">
        <ele>314</ele>
        <time>2016-05-29T09:37:31.000Z</time>
      </trkpt>
      <trkpt lat="47.47704" lon="6.77628">
        <ele>314</ele>
        <time>2016-05-29T09:37:32.000Z</time>
      </trkpt>
      <trkpt lat="47.47702" lon="6.77621">
        <ele>314</ele>
        <time>2016-05-29T09:37:33.000Z</time>
      </trkpt>
      <trkpt lat="47.477" lon="6.77615">
        <ele>314</ele>
        <time>2016-05-29T09:37:34.000Z</time>
      </trkpt>
      <trkpt lat="47.47699" lon="6.77609">
        <ele>314</ele>
        <time>2016-05-29T09:37:35.001Z</time>
      </trkpt>
      <trkpt lat="47.47696" lon="6.77602">
        <ele>314</ele>
        <time>2016-05-29T09:37:36.000Z</time>
      </trkpt>
      <trkpt lat="47.47693" lon="6.77596">
        <ele>314</ele>
        <time>2016-05-29T09:37:37.000Z</time>
      </trkpt>
      <trkpt lat="47.47691" lon="6.7759">
        <ele>314</ele>
        <time>2016-05-29T09:37:38.000Z</time>
      </trkpt>
      <trkpt lat="47.47688" lon="6.77585">
        <ele>314</ele>
        <time>2016-05-29T09:37:39.000Z</time>
      </trkpt>
      <trkpt lat="47.47686" lon="6.77578">
        <ele>314</ele>
        <time>2016-05-29T09:37:40.000Z</time>
      </trkpt>
      <trkpt lat="47.47682" lon="6.77571">
        <ele>314</ele>
        <time>2016-05-29T09:37:41.000Z</time>
      </trkpt>
      <trkpt lat="47.47678" lon="6.77566">
        <ele>314</ele>
        <time>2016-05-29T09:37:42.000Z</time>
      </trkpt>
      <trkpt lat="47.47675" lon="6.77561">
        <ele>314</ele>
        <time>2016-05-29T09:37:43.000Z</time>
      </trkpt>
      <trkpt lat="47.47671" lon="6.77556">
        <ele>314</ele>
        <time>2016-05-29T09:37:44.000Z</time>
      </trkpt>
      <trkpt lat="47.47668" lon="6.7755">
        <ele>314</ele>
        <time>2016-05-29T09:37:45.000Z</time>
      </trkpt>
      <trkpt lat="47.47666" lon="6.77545">
        <ele>315</ele>
        <time>2016-05-29T09:37:46.000Z</time>
      </trkpt>
      <trkpt lat="47.47662" lon="6.77541">
        <ele>315</ele>
        <time>2016-05-29T09:37:47.000Z</time>
      </trkpt>
      <trkpt lat="47.47658" lon="6.77535">
        <ele>315</ele>
        <time>2016-05-29T09:37:48.000Z</time>
      </trkpt>
      <trkpt lat="47.47655" lon="6.77531">
        <ele>315</ele>
        <time>2016-05-29T09:37:49.000Z</time>
      </trkpt>
      <trkpt lat="47.47652" lon="6.77526">
        <ele>315</ele>
        <time>2016-05-29T09:37:50.000Z</time>
      </trkpt>
      <trkpt lat="47.4765" lon="6.7752">
        <ele>315</ele>
        <time>2016-05-29T09:37:51.000Z</time>
      </trkpt>
      <trkpt lat="47.47649" lon="6.77514">
        <ele>315</ele>
        <time>2016-05-29T09:37:52.000Z</time>
      </trkpt>
      <trkpt lat="47.47646" lon="6.7751">
        <ele>315</ele>
        <time>2016-05-29T09:37:53.000Z</time>
      </trkpt>
      <trkpt lat="47.47644" lon="6.77504">
        <ele>315</ele>
        <time>2016-05-29T09:37:54.000Z</time>
      </trkpt>
      <trkpt lat="47.47632" lon="6.77499">
        <ele>314</ele>
        <time>2016-05-29T09:37:55.000Z</time>
      </trkpt>
      <trkpt lat="47.47627" lon="6.77493">
        <ele>314</ele>
        <time>2016-05-29T09:37:56.000Z</time>
      </trkpt>
      <trkpt lat="47.47622" lon="6.77487">
        <ele>314</ele>
        <time>2016-05-29T09:37:57.000Z</time>
      </trkpt>
      <trkpt lat="47.47617" lon="6.77483">
        <ele>314</ele>
        <time>2016-05-29T09:37:58.000Z</time>
      </trkpt>
      <trkpt lat="47.47613" lon="6.77477">
        <ele>314</ele>
        <time>2016-05-29T09:37:59.000Z</time>
      </trkpt>
      <trkpt lat="47.47608" lon="6.77472">
        <ele>314</ele>
        <time>2016-05-29T09:38:00.000Z</time>
      </trkpt>
      <trkpt lat="47.47605" lon="6.77468">
        <ele>314</ele>
        <time>2016-05-29T09:38:01.000Z</time>
      </trkpt>
      <trkpt lat="47.476" lon="6.77463">
        <ele>314</ele>
        <time>2016-05-29T09:38:02.000Z</time>
      </trkpt>
      <trkpt lat="47.47596" lon="6.77459">
        <ele>314</ele>
        <time>2016-05-29T09:38:03.000Z</time>
      </trkpt>
      <trkpt lat="47.47593" lon="6.77455">
        <ele>314</ele>
        <time>2016-05-29T09:38:04.000Z</time>
      </trkpt>
      <trkpt lat="47.47592" lon="6.77448">
        <ele>314</ele>
        <time>2016-05-29T09:38:05.000Z</time>
      </trkpt>
      <trkpt lat="47.47593" lon="6.77442">
        <ele>314</ele>
        <time>2016-05-29T09:38:06.000Z</time>
      </trkpt>
      <trkpt lat="47.47595" lon="6.77436">
        <ele>314</ele>
        <time>2016-05-29T09:38:07.000Z</time>
      </trkpt>
      <trkpt lat="47.47597" lon="6.7743">
        <ele>314</ele>
        <time>2016-05-29T09:38:08.000Z</time>
      </trkpt>
      <trkpt lat="47.476" lon="6.77424">
        <ele>314</ele>
        <time>2016-05-29T09:38:09.000Z</time>
      </trkpt>
      <trkpt lat="47.47603" lon="6.77418">
        <ele>314</ele>
        <time>2016-05-29T09:38:10.000Z</time>
      </trkpt>
      <trkpt lat="47.47606" lon="6.77412">
        <ele>313</ele>
        <time>2016-05-29T09:38:11.000Z</time>
      </trkpt>
      <trkpt lat="47.47609" lon="6.77406">
        <ele>313</ele>
        <time>2016-05-29T09:38:12.000Z</time>
      </trkpt>
      <trkpt lat="47.47611" lon="6.77398">
        <ele>312</ele>
        <time>2016-05-29T09:38:13.000Z</time>
      </trkpt>
      <trkpt lat="47.47613" lon="6.77392">
        <ele>312</ele>
        <time>2016-05-29T09:38:14.000Z</time>
      </trkpt>
      <trkpt lat="47.47615" lon="6.77385">
        <ele>312</ele>
        <time>2016-05-29T09:38:15.000Z</time>
      </trkpt>
      <trkpt lat="47.47617" lon="6.77378">
        <ele>312</ele>
        <time>2016-05-29T09:38:16.000Z</time>
      </trkpt>
      <trkpt lat="47.4762" lon="6.77371">
        <ele>312</ele>
        <time>2016-05-29T09:38:17.000Z</time>
      </trkpt>
      <trkpt lat="47.47623" lon="6.77365">
        <ele>312</ele>
        <time>2016-05-29T09:38:18.000Z</time>
      </trkpt>
      <trkpt lat="47.47624" lon="6.77358">
        <ele>312</ele>
        <time>2016-05-29T09:38:19.000Z</time>
      </trkpt>
      <trkpt lat="47.47627" lon="6.77352">
        <ele>312</ele>
        <time>2016-05-29T09:38:20.000Z</time>
      </trkpt>
      <trkpt lat="47.47626" lon="6.77347">
        <ele>312</ele>
        <time>2016-05-29T09:38:21.000Z</time>
      </trkpt>
      <trkpt lat="47.47629" lon="6.77341">
        <ele>312</ele>
        <time>2016-05-29T09:38:22.000Z</time>
      </trkpt>
      <trkpt lat="47.47631" lon="6.77334">
        <ele>312</ele>
        <time>2016-05-29T09:38:23.000Z</time>
      </trkpt>
      <trkpt lat="47.47633" lon="6.77326">
        <ele>311</ele>
        <time>2016-05-29T09:38:24.000Z</time>
      </trkpt>
      <trkpt lat="47.47637" lon="6.77317">
        <ele>311</ele>
        <time>2016-05-29T09:38:25.000Z</time>
      </trkpt>
      <trkpt lat="47.4764" lon="6.7731">
        <ele>311</ele>
        <time>2016-05-29T09:38:25.999Z</time>
      </trkpt>
      <trkpt lat="47.47638" lon="6.77303">
        <ele>311</ele>
        <time>2016-05-29T09:38:27.000Z</time>
      </trkpt>
      <trkpt lat="47.47639" lon="6.77296">
        <ele>311</ele>
        <time>2016-05-29T09:38:28.000Z</time>
      </trkpt>
      <trkpt lat="47.47639" lon="6.77287">
        <ele>311</ele>
        <time>2016-05-29T09:38:29.000Z</time>
      </trkpt>
      <trkpt lat="47.47637" lon="6.7728">
        <ele>310</ele>
        <time>2016-05-29T09:38:30.000Z</time>
      </trkpt>
      <trkpt lat="47.47634" lon="6.77274">
        <ele>311</ele>
        <time>2016-05-29T09:38:31.000Z</time>
      </trkpt>
      <trkpt lat="47.47631" lon="6.77269">
        <ele>311</ele>
        <time>2016-05-29T09:38:32.000Z</time>
      </trkpt>
      <trkpt lat="47.47627" lon="6.77263">
        <ele>311</ele>
        <time>2016-05-29T09:38:33.000Z</time>
      </trkpt>
      <trkpt lat="47.47622" lon="6.77259">
        <ele>311</ele>
        <time>2016-05-29T09:38:34.000Z</time>
      </trkpt>
      <trkpt lat="47.47618" lon="6.77254">
        <ele>311</ele>
        <time>2016-05-29T09:38:35.000Z</time>
      </trkpt>
      <trkpt lat="47.47613" lon="6.77249">
        <ele>310</ele>
        <time>2016-05-29T09:38:36.000Z</time>
      </trkpt>
      <trkpt lat="47.47608" lon="6.77245">
        <ele>311</ele>
        <time>2016-05-29T09:38:37.000Z</time>
      </trkpt>
      <trkpt lat="47.47604" lon="6.77241">
        <ele>311</ele>
        <time>2016-05-29T09:38:38.000Z</time>
      </trkpt>
      <trkpt lat="47.47599" lon="6.77238">
        <ele>311</ele>
        <time>2016-05-29T09:38:39.000Z</time>
      </trkpt>
      <trkpt lat="47.47595" lon="6.77234">
        <ele>311</ele>
        <time>2016-05-29T09:38:40.000Z</time>
      </trkpt>
      <trkpt lat="47.47589" lon="6.7723">
        <ele>311</ele>
        <time>2016-05-29T09:38:41.000Z</time>
      </trkpt>
      <trkpt lat="47.47584" lon="6.77226">
        <ele>311</ele>
        <time>2016-05-29T09:38:42.001Z</time>
      </trkpt>
      <trkpt lat="47.47579" lon="6.77222">
        <ele>311</ele>
        <time>2016-05-29T09:38:43.000Z</time>
      </trkpt>
      <trkpt lat="47.47576" lon="6.77217">
        <ele>311</ele>
        <time>2016-05-29T09:38:44.000Z</time>
      </trkpt>
      <trkpt lat="47.47572" lon="6.77212">
        <ele>311</ele>
        <time>2016-05-29T09:38:45.000Z</time>
      </trkpt>
      <trkpt lat="47.47568" lon="6.77209">
        <ele>311</ele>
        <time>2016-05-29T09:38:46.000Z</time>
      </trkpt>
      <trkpt lat="47.47563" lon="6.77204">
        <ele>310</ele>
        <time>2016-05-29T09:38:47.000Z</time>
      </trkpt>
      <trkpt lat="47.47559" lon="6.77201">
        <ele>310</ele>
        <time>2016-05-29T09:38:48.000Z</time>
      </trkpt>
      <trkpt lat="47.47557" lon="6.77199">
        <ele>310</ele>
        <time>2016-05-29T09:38:49.000Z</time>
      </trkpt>
      <trkpt lat="47.47552" lon="6.77197">
        <ele>310</ele>
        <time>2016-05-29T09:38:50.000Z</time>
      </trkpt>
      <trkpt lat="47.47546" lon="6.77195">
        <ele>310</ele>
        <time>2016-05-29T09:38:51.000Z</time>
      </trkpt>
      <trkpt lat="47.47542" lon="6.77193">
        <ele>310</ele>
        <time>2016-05-29T09:38:52.000Z</time>
      </trkpt>
      <trkpt lat="47.47538" lon="6.77189">
        <ele>310</ele>
        <time>2016-05-29T09:38:53.000Z</time>
      </trkpt>
      <trkpt lat="47.47535" lon="6.77187">
        <ele>310</ele>
        <time>2016-05-29T09:38:54.000Z</time>
      </trkpt>
      <trkpt lat="47.47531" lon="6.77186">
        <ele>310</ele>
        <time>2016-05-29T09:38:55.000Z</time>
      </trkpt>
      <trkpt lat="47.47528" lon="6.77182">
        <ele>310</ele>
        <time>2016-05-29T09:38:56.000Z</time>
      </trkpt>
      <trkpt lat="47.47524" lon="6.77177">
        <ele>310</ele>
        <time>2016-05-29T09:38:57.000Z</time>
      </trkpt>
      <trkpt lat="47.47522" lon="6.77169">
        <ele>310</ele>
        <time>2016-05-29T09:38:58.000Z</time>
      </trkpt>
      <trkpt lat="47.47523" lon="6.77161">
        <ele>310</ele>
        <time>2016-05-29T09:38:59.000Z</time>
      </trkpt>
      <trkpt lat="47.47524" lon="6.77154">
        <ele>310</ele>
        <time>2016-05-29T09:39:00.000Z</time>
      </trkpt>
      <trkpt lat="47.47524" lon="6.77147">
        <ele>310</ele>
        <time>2016-05-29T09:39:01.001Z</time>
      </trkpt>
      <trkpt lat="47.47525" lon="6.77139">
        <ele>310</ele>
        <time>2016-05-29T09:39:02.000Z</time>
      </trkpt>
      <trkpt lat="47.47529" lon="6.77134">
        <ele>310</ele>
        <time>2016-05-29T09:39:03.000Z</time>
      </trkpt>
      <trkpt lat="47.47533" lon="6.77135">
        <ele>310</ele>
        <time>2016-05-29T09:39:04.000Z</time>
      </trkpt>
      <trkpt lat="47.47537" lon="6.77136">
        <ele>310</ele>
        <time>2016-05-29T09:39:06.000Z</time>
      </trkpt>
      <trkpt lat="47.4754" lon="6.77139">
        <ele>310</ele>
        <time>2016-05-29T09:39:07.000Z</time>
      </trkpt>
      <trkpt lat="47.47545" lon="6.77142">
        <ele>310</ele>
        <time>2016-05-29T09:39:08.000Z</time>
      </trkpt>
      <trkpt lat="47.47549" lon="6.77145">
        <ele>310</ele>
        <time>2016-05-29T09:39:09.000Z</time>
      </trkpt>
      <trkpt lat="47.47553" lon="6.77147">
        <ele>310</ele>
        <time>2016-05-29T09:39:10.000Z</time>
      </trkpt>
      <trkpt lat="47.47557" lon="6.77151">
        <ele>310</ele>
        <time>2016-05-29T09:39:11.000Z</time>
      </trkpt>
      <trkpt lat="47.47561" lon="6.77153">
        <ele>310</ele>
        <time>2016-05-29T09:39:12.000Z</time>
      </trkpt>
      <trkpt lat="47.47566" lon="6.77155">
        <ele>310</ele>
        <time>2016-05-29T09:39:13.001Z</time>
      </trkpt>
      <trkpt lat="47.4757" lon="6.77159">
        <ele>309</ele>
        <time>2016-05-29T09:39:14.000Z</time>
      </trkpt>
      <trkpt lat="47.47575" lon="6.77162">
        <ele>309</ele>
        <time>2016-05-29T09:39:15.000Z</time>
      </trkpt>
      <trkpt lat="47.47579" lon="6.77166">
        <ele>309</ele>
        <time>2016-05-29T09:39:16.000Z</time>
      </trkpt>
      <trkpt lat="47.47582" lon="6.7717">
        <ele>309</ele>
        <time>2016-05-29T09:39:17.000Z</time>
      </trkpt>
      <trkpt lat="47.47586" lon="6.77172">
        <ele>309</ele>
        <time>2016-05-29T09:39:18.000Z</time>
      </trkpt>
      <trkpt lat="47.47591" lon="6.77174">
        <ele>309</ele>
        <time>2016-05-29T09:39:19.000Z</time>
      </trkpt>
      <trkpt lat="47.47596" lon="6.77177">
        <ele>310</ele>
        <time>2016-05-29T09:39:20.000Z</time>
      </trkpt>
      <trkpt lat="47.47602" lon="6.7718">
        <ele>310</ele>
        <time>2016-05-29T09:39:21.000Z</time>
      </trkpt>
      <trkpt lat="47.47607" lon="6.77183">
        <ele>310</ele>
        <time>2016-05-29T09:39:22.000Z</time>
      </trkpt>
      <trkpt lat="47.47611" lon="6.77184">
        <ele>310</ele>
        <time>2016-05-29T09:39:23.000Z</time>
      </trkpt>
      <trkpt lat="47.47614" lon="6.7718">
        <ele>310</ele>
        <time>2016-05-29T09:39:24.000Z</time>
      </trkpt>
      <trkpt lat="47.47618" lon="6.77175">
        <ele>310</ele>
        <time>2016-05-29T09:39:25.000Z</time>
      </trkpt>
      <trkpt lat="47.47621" lon="6.77169">
        <ele>310</ele>
        <time>2016-05-29T09:39:26.000Z</time>
      </trkpt>
      <trkpt lat="47.47623" lon="6.77164">
        <ele>310</ele>
        <time>2016-05-29T09:39:27.000Z</time>
      </trkpt>
      <trkpt lat="47.47625" lon="6.77159">
        <ele>310</ele>
        <time>2016-05-29T09:39:28.000Z</time>
      </trkpt>
      <trkpt lat="47.47627" lon="6.77154">
        <ele>310</ele>
        <time>2016-05-29T09:39:29.000Z</time>
      </trkpt>
      <trkpt lat="47.47629" lon="6.77144">
        <ele>310</ele>
        <time>2016-05-29T09:39:30.000Z</time>
      </trkpt>
      <trkpt lat="47.47632" lon="6.77139">
        <ele>310</ele>
        <time>2016-05-29T09:39:31.000Z</time>
      </trkpt>
      <trkpt lat="47.47633" lon="6.77136">
        <ele>310</ele>
        <time>2016-05-29T09:39:32.000Z</time>
      </trkpt>
      <trkpt lat="47.47635" lon="6.77131">
        <ele>310</ele>
        <time>2016-05-29T09:39:33.000Z</time>
      </trkpt>
      <trkpt lat="47.47637" lon="6.77125">
        <ele>310</ele>
        <time>2016-05-29T09:39:34.000Z</time>
      </trkpt>
      <trkpt lat="47.47638" lon="6.77122">
        <ele>310</ele>
        <time>2016-05-29T09:39:35.000Z</time>
      </trkpt>
      <trkpt lat="47.47638" lon="6.77118">
        <ele>310</ele>
        <time>2016-05-29T09:39:36.000Z</time>
      </trkpt>
      <trkpt lat="47.4764" lon="6.77113">
        <ele>310</ele>
        <time>2016-05-29T09:39:38.000Z</time>
      </trkpt>
      <trkpt lat="47.47639" lon="6.77109">
        <ele>310</ele>
        <time>2016-05-29T09:39:39.000Z</time>
      </trkpt>
      <trkpt lat="47.47637" lon="6.77105">
        <ele>310</ele>
        <time>2016-05-29T09:39:41.000Z</time>
      </trkpt>
      <trkpt lat="47.4764" lon="6.77101">
        <ele>310</ele>
        <time>2016-05-29T09:39:42.000Z</time>
      </trkpt>
      <trkpt lat="47.47641" lon="6.77096">
        <ele>311</ele>
        <time>2016-05-29T09:39:45.000Z</time>
      </trkpt>
      <trkpt lat="47.47642" lon="6.77095">
        <ele>311</ele>
        <time>2016-05-29T09:39:46.000Z</time>
      </trkpt>
      <trkpt lat="47.47645" lon="6.77093">
        <ele>311</ele>
        <time>2016-05-29T09:39:48.000Z</time>
      </trkpt>
      <trkpt lat="47.47645" lon="6.77088">
        <ele>311</ele>
        <time>2016-05-29T09:39:49.000Z</time>
      </trkpt>
      <trkpt lat="47.47646" lon="6.77085">
        <ele>311</ele>
        <time>2016-05-29T09:39:50.001Z</time>
      </trkpt>
      <trkpt lat="47.47647" lon="6.7707">
        <ele>311</ele>
        <time>2016-05-29T09:39:51.000Z</time>
      </trkpt>
      <trkpt lat="47.47648" lon="6.77062">
        <ele>311</ele>
        <time>2016-05-29T09:39:52.000Z</time>
      </trkpt>
      <trkpt lat="47.47651" lon="6.77055">
        <ele>311</ele>
        <time>2016-05-29T09:39:53.000Z</time>
      </trkpt>
      <trkpt lat="47.47652" lon="6.77045">
        <ele>311</ele>
        <time>2016-05-29T09:39:54.000Z</time>
      </trkpt>
      <trkpt lat="47.47655" lon="6.77036">
        <ele>311</ele>
        <time>2016-05-29T09:39:55.000Z</time>
      </trkpt>
      <trkpt lat="47.47655" lon="6.77026">
        <ele>311</ele>
        <time>2016-05-29T09:39:56.000Z</time>
      </trkpt>
      <trkpt lat="47.47657" lon="6.77023">
        <ele>311</ele>
        <time>2016-05-29T09:39:57.000Z</time>
      </trkpt>
      <trkpt lat="47.47658" lon="6.77018">
        <ele>311</ele>
        <time>2016-05-29T09:39:58.000Z</time>
      </trkpt>
      <trkpt lat="47.47665" lon="6.77">
        <ele>311</ele>
        <time>2016-05-29T09:39:59.000Z</time>
      </trkpt>
      <trkpt lat="47.47668" lon="6.7699">
        <ele>311</ele>
        <time>2016-05-29T09:40:00.000Z</time>
      </trkpt>
      <trkpt lat="47.47671" lon="6.7698">
        <ele>311</ele>
        <time>2016-05-29T09:40:01.000Z</time>
      </trkpt>
      <trkpt lat="47.47673" lon="6.76971">
        <ele>311</ele>
        <time>2016-05-29T09:40:02.000Z</time>
      </trkpt>
      <trkpt lat="47.47677" lon="6.76959">
        <ele>311</ele>
        <time>2016-05-29T09:40:03.000Z</time>
      </trkpt>
      <trkpt lat="47.4768" lon="6.76949">
        <ele>311</ele>
        <time>2016-05-29T09:40:04.000Z</time>
      </trkpt>
      <trkpt lat="47.47684" lon="6.76939">
        <ele>311</ele>
        <time>2016-05-29T09:40:05.000Z</time>
      </trkpt>
      <trkpt lat="47.47688" lon="6.7693">
        <ele>311</ele>
        <time>2016-05-29T09:40:06.000Z</time>
      </trkpt>
      <trkpt lat="47.47692" lon="6.76918">
        <ele>311</ele>
        <time>2016-05-29T09:40:07.000Z</time>
      </trkpt>
      <trkpt lat="47.47694" lon="6.76911">
        <ele>311</ele>
        <time>2016-05-29T09:40:08.000Z</time>
      </trkpt>
      <trkpt lat="47.47696" lon="6.76904">
        <ele>311</ele>
        <time>2016-05-29T09:40:09.000Z</time>
      </trkpt>
      <trkpt lat="47.477" lon="6.76899">
        <ele>311</ele>
        <time>2016-05-29T09:40:10.000Z</time>
      </trkpt>
      <trkpt lat="47.47703" lon="6.76891">
        <ele>311</ele>
        <time>2016-05-29T09:40:11.000Z</time>
      </trkpt>
      <trkpt lat="47.47705" lon="6.76883">
        <ele>311</ele>
        <time>2016-05-29T09:40:12.000Z</time>
      </trkpt>
      <trkpt lat="47.47709" lon="6.76876">
        <ele>311</ele>
        <time>2016-05-29T09:40:13.000Z</time>
      </trkpt>
      <trkpt lat="47.47712" lon="6.7687">
        <ele>311</ele>
        <time>2016-05-29T09:40:14.000Z</time>
      </trkpt>
      <trkpt lat="47.47715" lon="6.76865">
        <ele>311</ele>
        <time>2016-05-29T09:40:15.000Z</time>
      </trkpt>
      <trkpt lat="47.47717" lon="6.76859">
        <ele>311</ele>
        <time>2016-05-29T09:40:16.000Z</time>
      </trkpt>
      <trkpt lat="47.47718" lon="6.76851">
        <ele>311</ele>
        <time>2016-05-29T09:40:17.000Z</time>
      </trkpt>
      <trkpt lat="47.47721" lon="6.76842">
        <ele>311</ele>
        <time>2016-05-29T09:40:18.000Z</time>
      </trkpt>
      <trkpt lat="47.47723" lon="6.76834">
        <ele>311</ele>
        <time>2016-05-29T09:40:19.000Z</time>
      </trkpt>
      <trkpt lat="47.47726" lon="6.76827">
        <ele>311</ele>
        <time>2016-05-29T09:40:20.000Z</time>
      </trkpt>
      <trkpt lat="47.47728" lon="6.7682">
        <ele>311</ele>
        <time>2016-05-29T09:40:21.000Z</time>
      </trkpt>
      <trkpt lat="47.4773" lon="6.76814">
        <ele>311</ele>
        <time>2016-05-29T09:40:22.000Z</time>
      </trkpt>
      <trkpt lat="47.47732" lon="6.76808">
        <ele>311</ele>
        <time>2016-05-29T09:40:23.000Z</time>
      </trkpt>
      <trkpt lat="47.47735" lon="6.76804">
        <ele>311</ele>
        <time>2016-05-29T09:40:24.000Z</time>
      </trkpt>
      <trkpt lat="47.47738" lon="6.76801">
        <ele>311</ele>
        <time>2016-05-29T09:40:25.000Z</time>
      </trkpt>
      <trkpt lat="47.4774" lon="6.76798">
        <ele>311</ele>
        <time>2016-05-29T09:40:26.000Z</time>
      </trkpt>
      <trkpt lat="47.47742" lon="6.76796">
        <ele>311</ele>
        <time>2016-05-29T09:40:27.000Z</time>
      </trkpt>
      <trkpt lat="47.47745" lon="6.76796">
        <ele>311</ele>
        <time>2016-05-29T09:40:28.000Z</time>
      </trkpt>
      <trkpt lat="47.47748" lon="6.76796">
        <ele>311</ele>
        <time>2016-05-29T09:40:29.000Z</time>
      </trkpt>
      <trkpt lat="47.47752" lon="6.76797">
        <ele>311</ele>
        <time>2016-05-29T09:40:30.001Z</time>
      </trkpt>
      <trkpt lat="47.47757" lon="6.76798">
        <ele>311</ele>
        <time>2016-05-29T09:40:31.000Z</time>
      </trkpt>
      <trkpt lat="47.47761" lon="6.76799">
        <ele>311</ele>
        <time>2016-05-29T09:40:32.000Z</time>
      </trkpt>
      <trkpt lat="47.47764" lon="6.76799">
        <ele>311</ele>
        <time>2016-05-29T09:40:33.000Z</time>
      </trkpt>
      <trkpt lat="47.47768" lon="6.76798">
        <ele>311</ele>
        <time>2016-05-29T09:40:34.000Z</time>
      </trkpt>
      <trkpt lat="47.47773" lon="6.768">
        <ele>311</ele>
        <time>2016-05-29T09:40:35.000Z</time>
      </trkpt>
      <trkpt lat="47.47778" lon="6.768">
        <ele>311</ele>
        <time>2016-05-29T09:40:36.000Z</time>
      </trkpt>
      <trkpt lat="47.47784" lon="6.76802">
        <ele>311</ele>
        <time>2016-05-29T09:40:37.000Z</time>
      </trkpt>
      <trkpt lat="47.47789" lon="6.76805">
        <ele>311</ele>
        <time>2016-05-29T09:40:38.001Z</time>
      </trkpt>
      <trkpt lat="47.47794" lon="6.76806">
        <ele>310</ele>
        <time>2016-05-29T09:40:39.000Z</time>
      </trkpt>
      <trkpt lat="47.47801" lon="6.7681">
        <ele>310</ele>
        <time>2016-05-29T09:40:40.000Z</time>
      </trkpt>
      <trkpt lat="47.47808" lon="6.76813">
        <ele>310</ele>
        <time>2016-05-29T09:40:40.999Z</time>
      </trkpt>
      <trkpt lat="47.47813" lon="6.76815">
        <ele>310</ele>
        <time>2016-05-29T09:40:42.000Z</time>
      </trkpt>
      <trkpt lat="47.47818" lon="6.76818">
        <ele>310</ele>
        <time>2016-05-29T09:40:43.000Z</time>
      </trkpt>
      <trkpt lat="47.47821" lon="6.7682">
        <ele>310</ele>
        <time>2016-05-29T09:40:44.000Z</time>
      </trkpt>
      <trkpt lat="47.47824" lon="6.76823">
        <ele>310</ele>
        <time>2016-05-29T09:40:45.000Z</time>
      </trkpt>
      <trkpt lat="47.47827" lon="6.76826">
        <ele>310</ele>
        <time>2016-05-29T09:40:46.000Z</time>
      </trkpt>
      <trkpt lat="47.47834" lon="6.76813">
        <ele>311</ele>
        <time>2016-05-29T09:40:47.000Z</time>
      </trkpt>
      <trkpt lat="47.47838" lon="6.76804">
        <ele>311</ele>
        <time>2016-05-29T09:40:48.000Z</time>
      </trkpt>
      <trkpt lat="47.47841" lon="6.76795">
        <ele>311</ele>
        <time>2016-05-29T09:40:49.000Z</time>
      </trkpt>
      <trkpt lat="47.47845" lon="6.76784">
        <ele>311</ele>
        <time>2016-05-29T09:40:50.000Z</time>
      </trkpt>
      <trkpt lat="47.47849" lon="6.76777">
        <ele>311</ele>
        <time>2016-05-29T09:40:50.999Z</time>
      </trkpt>
      <trkpt lat="47.47852" lon="6.76768">
        <ele>311</ele>
        <time>2016-05-29T09:40:52.000Z</time>
      </trkpt>
      <trkpt lat="47.47855" lon="6.7676">
        <ele>311</ele>
        <time>2016-05-29T09:40:53.000Z</time>
      </trkpt>
      <trkpt lat="47.47861" lon="6.76751">
        <ele>311</ele>
        <time>2016-05-29T09:40:54.000Z</time>
      </trkpt>
      <trkpt lat="47.47865" lon="6.76744">
        <ele>310</ele>
        <time>2016-05-29T09:40:55.001Z</time>
      </trkpt>
      <trkpt lat="47.47867" lon="6.76737">
        <ele>310</ele>
        <time>2016-05-29T09:40:56.000Z</time>
      </trkpt>
      <trkpt lat="47.4787" lon="6.76731">
        <ele>310</ele>
        <time>2016-05-29T09:40:57.000Z</time>
      </trkpt>
      <trkpt lat="47.47874" lon="6.7672">
        <ele>310</ele>
        <time>2016-05-29T09:40:58.000Z</time>
      </trkpt>
      <trkpt lat="47.47878" lon="6.76713">
        <ele>310</ele>
        <time>2016-05-29T09:40:59.000Z</time>
      </trkpt>
      <trkpt lat="47.47882" lon="6.76706">
        <ele>310</ele>
        <time>2016-05-29T09:41:00.000Z</time>
      </trkpt>
      <trkpt lat="47.47886" lon="6.76699">
        <ele>310</ele>
        <time>2016-05-29T09:41:01.000Z</time>
      </trkpt>
      <trkpt lat="47.47889" lon="6.76693">
        <ele>310</ele>
        <time>2016-05-29T09:41:02.000Z</time>
      </trkpt>
      <trkpt lat="47.47893" lon="6.76687">
        <ele>310</ele>
        <time>2016-05-29T09:41:02.999Z</time>
      </trkpt>
      <trkpt lat="47.47896" lon="6.76678">
        <ele>310</ele>
        <time>2016-05-29T09:41:04.000Z</time>
      </trkpt>
      <trkpt lat="47.47898" lon="6.76671">
        <ele>311</ele>
        <time>2016-05-29T09:41:05.000Z</time>
      </trkpt>
      <trkpt lat="47.47901" lon="6.76665">
        <ele>310</ele>
        <time>2016-05-29T09:41:06.000Z</time>
      </trkpt>
      <trkpt lat="47.47907" lon="6.76661">
        <ele>311</ele>
        <time>2016-05-29T09:41:07.000Z</time>
      </trkpt>
      <trkpt lat="47.47911" lon="6.76657">
        <ele>311</ele>
        <time>2016-05-29T09:41:08.000Z</time>
      </trkpt>
      <trkpt lat="47.47915" lon="6.76654">
        <ele>310</ele>
        <time>2016-05-29T09:41:09.000Z</time>
      </trkpt>
      <trkpt lat="47.47915" lon="6.76652">
        <ele>310</ele>
        <time>2016-05-29T09:41:10.000Z</time>
      </trkpt>
      <trkpt lat="47.47923" lon="6.76652">
        <ele>311</ele>
        <time>2016-05-29T09:41:11.000Z</time>
      </trkpt>
      <trkpt lat="47.47927" lon="6.76648">
        <ele>311</ele>
        <time>2016-05-29T09:41:12.000Z</time>
      </trkpt>
      <trkpt lat="47.47931" lon="6.76646">
        <ele>311</ele>
        <time>2016-05-29T09:41:13.000Z</time>
      </trkpt>
      <trkpt lat="47.47936" lon="6.76642">
        <ele>311</ele>
        <time>2016-05-29T09:41:14.000Z</time>
      </trkpt>
      <trkpt lat="47.47941" lon="6.76638">
        <ele>311</ele>
        <time>2016-05-29T09:41:15.000Z</time>
      </trkpt>
      <trkpt lat="47.47948" lon="6.76634">
        <ele>311</ele>
        <time>2016-05-29T09:41:16.000Z</time>
      </trkpt>
      <trkpt lat="47.47951" lon="6.76631">
        <ele>311</ele>
        <time>2016-05-29T09:41:17.000Z</time>
      </trkpt>
      <trkpt lat="47.47957" lon="6.76626">
        <ele>311</ele>
        <time>2016-05-29T09:41:18.000Z</time>
      </trkpt>
      <trkpt lat="47.47963" lon="6.76619">
        <ele>311</ele>
        <time>2016-05-29T09:41:19.000Z</time>
      </trkpt>
      <trkpt lat="47.47967" lon="6.76618">
        <ele>311</ele>
        <time>2016-05-29T09:41:20.000Z</time>
      </trkpt>
      <trkpt lat="47.47971" lon="6.76616">
        <ele>311</ele>
        <time>2016-05-29T09:41:21.000Z</time>
      </trkpt>
      <trkpt lat="47.47974" lon="6.76615">
        <ele>311</ele>
        <time>2016-05-29T09:41:22.000Z</time>
      </trkpt>
      <trkpt lat="47.47977" lon="6.76616">
        <ele>311</ele>
        <time>2016-05-29T09:41:23.000Z</time>
      </trkpt>
      <trkpt lat="47.47981" lon="6.76615">
        <ele>311</ele>
        <time>2016-05-29T09:41:24.000Z</time>
      </trkpt>
      <trkpt lat="47.47984" lon="6.76611">
        <ele>311</ele>
        <time>2016-05-29T09:41:25.000Z</time>
      </trkpt>
      <trkpt lat="47.47989" lon="6.7661">
        <ele>312</ele>
        <time>2016-05-29T09:41:26.000Z</time>
      </trkpt>
      <trkpt lat="47.47995" lon="6.76607">
        <ele>312</ele>
        <time>2016-05-29T09:41:27.000Z</time>
      </trkpt>
      <trkpt lat="47.47999" lon="6.76605">
        <ele>312</ele>
        <time>2016-05-29T09:41:28.001Z</time>
      </trkpt>
      <trkpt lat="47.48003" lon="6.76604">
        <ele>312</ele>
        <time>2016-05-29T09:41:29.000Z</time>
      </trkpt>
      <trkpt lat="47.48007" lon="6.76603">
        <ele>312</ele>
        <time>2016-05-29T09:41:30.000Z</time>
      </trkpt>
      <trkpt lat="47.4801" lon="6.766">
        <ele>312</ele>
        <time>2016-05-29T09:41:31.000Z</time>
      </trkpt>
      <trkpt lat="47.48015" lon="6.76596">
        <ele>312</ele>
        <time>2016-05-29T09:41:32.000Z</time>
      </trkpt>
      <trkpt lat="47.48018" lon="6.76594">
        <ele>312</ele>
        <time>2016-05-29T09:41:33.000Z</time>
      </trkpt>
      <trkpt lat="47.48023" lon="6.76592">
        <ele>312</ele>
        <time>2016-05-29T09:41:34.000Z</time>
      </trkpt>
      <trkpt lat="47.48026" lon="6.76591">
        <ele>312</ele>
        <time>2016-05-29T09:41:34.999Z</time>
      </trkpt>
      <trkpt lat="47.48033" lon="6.76582">
        <ele>312</ele>
        <time>2016-05-29T09:41:36.000Z</time>
      </trkpt>
      <trkpt lat="47.48037" lon="6.76578">
        <ele>312</ele>
        <time>2016-05-29T09:41:37.000Z</time>
      </trkpt>
      <trkpt lat="47.48043" lon="6.76572">
        <ele>312</ele>
        <time>2016-05-29T09:41:38.000Z</time>
      </trkpt>
      <trkpt lat="47.48048" lon="6.76568">
        <ele>312</ele>
        <time>2016-05-29T09:41:39.000Z</time>
      </trkpt>
      <trkpt lat="47.48053" lon="6.76565">
        <ele>312</ele>
        <time>2016-05-29T09:41:40.000Z</time>
      </trkpt>
      <trkpt lat="47.48057" lon="6.76561">
        <ele>312</ele>
        <time>2016-05-29T09:41:41.000Z</time>
      </trkpt>
      <trkpt lat="47.48061" lon="6.76557">
        <ele>312</ele>
        <time>2016-05-29T09:41:42.000Z</time>
      </trkpt>
      <trkpt lat="47.48066" lon="6.76552">
        <ele>312</ele>
        <time>2016-05-29T09:41:43.000Z</time>
      </trkpt>
      <trkpt lat="47.48071" lon="6.76548">
        <ele>312</ele>
        <time>2016-05-29T09:41:44.000Z</time>
      </trkpt>
      <trkpt lat="47.48075" lon="6.76544">
        <ele>312</ele>
        <time>2016-05-29T09:41:45.001Z</time>
      </trkpt>
      <trkpt lat="47.48079" lon="6.76538">
        <ele>312</ele>
        <time>2016-05-29T09:41:46.000Z</time>
      </trkpt>
      <trkpt lat="47.48084" lon="6.76534">
        <ele>317</ele>
        <time>2016-05-29T09:41:47.000Z</time>
      </trkpt>
      <trkpt lat="47.48088" lon="6.76531">
        <ele>317</ele>
        <time>2016-05-29T09:41:48.000Z</time>
      </trkpt>
      <trkpt lat="47.48092" lon="6.7653">
        <ele>318</ele>
        <time>2016-05-29T09:41:49.000Z</time>
      </trkpt>
      <trkpt lat="47.48096" lon="6.76526">
        <ele>318</ele>
        <time>2016-05-29T09:41:50.000Z</time>
      </trkpt>
      <trkpt lat="47.481" lon="6.76522">
        <ele>318</ele>
        <time>2016-05-29T09:41:51.000Z</time>
      </trkpt>
      <trkpt lat="47.48104" lon="6.76519">
        <ele>318</ele>
        <time>2016-05-29T09:41:52.000Z</time>
      </trkpt>
      <trkpt lat="47.48109" lon="6.76516">
        <ele>319</ele>
        <time>2016-05-29T09:41:53.000Z</time>
      </trkpt>
      <trkpt lat="47.4811" lon="6.7652">
        <ele>319</ele>
        <time>2016-05-29T09:41:54.000Z</time>
      </trkpt>
      <trkpt lat="47.48112" lon="6.76524">
        <ele>319</ele>
        <time>2016-05-29T09:41:55.000Z</time>
      </trkpt>
      <trkpt lat="47.48115" lon="6.7653">
        <ele>320</ele>
        <time>2016-05-29T09:41:56.000Z</time>
      </trkpt>
      <trkpt lat="47.48116" lon="6.76535">
        <ele>319</ele>
        <time>2016-05-29T09:41:57.000Z</time>
      </trkpt>
      <trkpt lat="47.48116" lon="6.76544">
        <ele>319</ele>
        <time>2016-05-29T09:41:58.000Z</time>
      </trkpt>
      <trkpt lat="47.48114" lon="6.76552">
        <ele>319</ele>
        <time>2016-05-29T09:41:59.000Z</time>
      </trkpt>
      <trkpt lat="47.48111" lon="6.76558">
        <ele>318</ele>
        <time>2016-05-29T09:42:00.000Z</time>
      </trkpt>
      <trkpt lat="47.48107" lon="6.76564">
        <ele>317</ele>
        <time>2016-05-29T09:42:01.000Z</time>
      </trkpt>
      <trkpt lat="47.48104" lon="6.76573">
        <ele>316</ele>
        <time>2016-05-29T09:42:02.000Z</time>
      </trkpt>
      <trkpt lat="47.48101" lon="6.7658">
        <ele>316</ele>
        <time>2016-05-29T09:42:03.000Z</time>
      </trkpt>
      <trkpt lat="47.48098" lon="6.76588">
        <ele>313</ele>
        <time>2016-05-29T09:42:04.000Z</time>
      </trkpt>
      <trkpt lat="47.48095" lon="6.76596">
        <ele>313</ele>
        <time>2016-05-29T09:42:05.000Z</time>
      </trkpt>
      <trkpt lat="47.48093" lon="6.76602">
        <ele>313</ele>
        <time>2016-05-29T09:42:06.000Z</time>
      </trkpt>
      <trkpt lat="47.48092" lon="6.7661">
        <ele>313</ele>
        <time>2016-05-29T09:42:07.000Z</time>
      </trkpt>
      <trkpt lat="47.4809" lon="6.7662">
        <ele>313</ele>
        <time>2016-05-29T09:42:08.000Z</time>
      </trkpt>
      <trkpt lat="47.48089" lon="6.76626">
        <ele>313</ele>
        <time>2016-05-29T09:42:08.999Z</time>
      </trkpt>
      <trkpt lat="47.48096" lon="6.76632">
        <ele>313</ele>
        <time>2016-05-29T09:42:09.999Z</time>
      </trkpt>
      <trkpt lat="47.48098" lon="6.76638">
        <ele>313</ele>
        <time>2016-05-29T09:42:11.000Z</time>
      </trkpt>
      <trkpt lat="47.48101" lon="6.76642">
        <ele>312</ele>
        <time>2016-05-29T09:42:12.000Z</time>
      </trkpt>
      <trkpt lat="47.48106" lon="6.76651">
        <ele>312</ele>
        <time>2016-05-29T09:42:13.000Z</time>
      </trkpt>
      <trkpt lat="47.48108" lon="6.76657">
        <ele>312</ele>
        <time>2016-05-29T09:42:14.000Z</time>
      </trkpt>
      <trkpt lat="47.4811" lon="6.76662">
        <ele>312</ele>
        <time>2016-05-29T09:42:15.000Z</time>
      </trkpt>
      <trkpt lat="47.48117" lon="6.76672">
        <ele>312</ele>
        <time>2016-05-29T09:42:16.001Z</time>
      </trkpt>
      <trkpt lat="47.48121" lon="6.7668">
        <ele>312</ele>
        <time>2016-05-29T09:42:17.000Z</time>
      </trkpt>
      <trkpt lat="47.48126" lon="6.76689">
        <ele>312</ele>
        <time>2016-05-29T09:42:18.000Z</time>
      </trkpt>
      <trkpt lat="47.4813" lon="6.76697">
        <ele>312</ele>
        <time>2016-05-29T09:42:19.000Z</time>
      </trkpt>
      <trkpt lat="47.48134" lon="6.76706">
        <ele>312</ele>
        <time>2016-05-29T09:42:20.000Z</time>
      </trkpt>
      <trkpt lat="47.48138" lon="6.76714">
        <ele>312</ele>
        <time>2016-05-29T09:42:21.000Z</time>
      </trkpt>
      <trkpt lat="47.48142" lon="6.76722">
        <ele>312</ele>
        <time>2016-05-29T09:42:22.000Z</time>
      </trkpt>
      <trkpt lat="47.48146" lon="6.76729">
        <ele>312</ele>
        <time>2016-05-29T09:42:23.000Z</time>
      </trkpt>
      <trkpt lat="47.48151" lon="6.76737">
        <ele>312</ele>
        <time>2016-05-29T09:42:24.000Z</time>
      </trkpt>
      <trkpt lat="47.48156" lon="6.76743">
        <ele>313</ele>
        <time>2016-05-29T09:42:25.000Z</time>
      </trkpt>
      <trkpt lat="47.4816" lon="6.76749">
        <ele>313</ele>
        <time>2016-05-29T09:42:26.000Z</time>
      </trkpt>
      <trkpt lat="47.48165" lon="6.76757">
        <ele>313</ele>
        <time>2016-05-29T09:42:27.000Z</time>
      </trkpt>
      <trkpt lat="47.48168" lon="6.76761">
        <ele>313</ele>
        <time>2016-05-29T09:42:28.000Z</time>
      </trkpt>
      <trkpt lat="47.48173" lon="6.76767">
        <ele>312</ele>
        <time>2016-05-29T09:42:29.000Z</time>
      </trkpt>
      <trkpt lat="47.48179" lon="6.76773">
        <ele>312</ele>
        <time>2016-05-29T09:42:30.000Z</time>
      </trkpt>
      <trkpt lat="47.48184" lon="6.76777">
        <ele>312</ele>
        <time>2016-05-29T09:42:31.000Z</time>
      </trkpt>
      <trkpt lat="47.48192" lon="6.76782">
        <ele>312</ele>
        <time>2016-05-29T09:42:32.000Z</time>
      </trkpt>
      <trkpt lat="47.48198" lon="6.76785">
        <ele>312</ele>
        <time>2016-05-29T09:42:33.000Z</time>
      </trkpt>
      <trkpt lat="47.48203" lon="6.76787">
        <ele>312</ele>
        <time>2016-05-29T09:42:34.000Z</time>
      </trkpt>
      <trkpt lat="47.4821" lon="6.76791">
        <ele>312</ele>
        <time>2016-05-29T09:42:35.000Z</time>
      </trkpt>
      <trkpt lat="47.48216" lon="6.76795">
        <ele>312</ele>
        <time>2016-05-29T09:42:36.000Z</time>
      </trkpt>
      <trkpt lat="47.48221" lon="6.76797">
        <ele>312</ele>
        <time>2016-05-29T09:42:37.000Z</time>
      </trkpt>
      <trkpt lat="47.48227" lon="6.76799">
        <ele>312</ele>
        <time>2016-05-29T09:42:38.000Z</time>
      </trkpt>
      <trkpt lat="47.48232" lon="6.76803">
        <ele>312</ele>
        <time>2016-05-29T09:42:39.000Z</time>
      </trkpt>
      <trkpt lat="47.48236" lon="6.76805">
        <ele>312</ele>
        <time>2016-05-29T09:42:40.000Z</time>
      </trkpt>
      <trkpt lat="47.48242" lon="6.7681">
        <ele>312</ele>
        <time>2016-05-29T09:42:41.000Z</time>
      </trkpt>
      <trkpt lat="47.48248" lon="6.76815">
        <ele>312</ele>
        <time>2016-05-29T09:42:42.000Z</time>
      </trkpt>
      <trkpt lat="47.48253" lon="6.76821">
        <ele>312</ele>
        <time>2016-05-29T09:42:43.000Z</time>
      </trkpt>
      <trkpt lat="47.48257" lon="6.76828">
        <ele>312</ele>
        <time>2016-05-29T09:42:44.000Z</time>
      </trkpt>
      <trkpt lat="47.48262" lon="6.76834">
        <ele>311</ele>
        <time>2016-05-29T09:42:45.000Z</time>
      </trkpt>
      <trkpt lat="47.48266" lon="6.76841">
        <ele>311</ele>
        <time>2016-05-29T09:42:46.000Z</time>
      </trkpt>
      <trkpt lat="47.4827" lon="6.76848">
        <ele>311</ele>
        <time>2016-05-29T09:42:47.000Z</time>
      </trkpt>
      <trkpt lat="47.48274" lon="6.76853">
        <ele>310</ele>
        <time>2016-05-29T09:42:48.000Z</time>
      </trkpt>
      <trkpt lat="47.48279" lon="6.76859">
        <ele>310</ele>
        <time>2016-05-29T09:42:49.000Z</time>
      </trkpt>
      <trkpt lat="47.48285" lon="6.76866">
        <ele>310</ele>
        <time>2016-05-29T09:42:50.000Z</time>
      </trkpt>
      <trkpt lat="47.48287" lon="6.7687">
        <ele>310</ele>
        <time>2016-05-29T09:42:51.000Z</time>
      </trkpt>
      <trkpt lat="47.48292" lon="6.76875">
        <ele>310</ele>
        <time>2016-05-29T09:42:52.000Z</time>
      </trkpt>
      <trkpt lat="47.48296" lon="6.76881">
        <ele>310</ele>
        <time>2016-05-29T09:42:52.999Z</time>
      </trkpt>
      <trkpt lat="47.48302" lon="6.76885">
        <ele>310</ele>
        <time>2016-05-29T09:42:54.000Z</time>
      </trkpt>
      <trkpt lat="47.48307" lon="6.7689">
        <ele>310</ele>
        <time>2016-05-29T09:42:55.000Z</time>
      </trkpt>
      <trkpt lat="47.48312" lon="6.76895">
        <ele>310</ele>
        <time>2016-05-29T09:42:56.000Z</time>
      </trkpt>
      <trkpt lat="47.48317" lon="6.76899">
        <ele>310</ele>
        <time>2016-05-29T09:42:57.000Z</time>
      </trkpt>
      <trkpt lat="47.48322" lon="6.76904">
        <ele>310</ele>
        <time>2016-05-29T09:42:57.999Z</time>
      </trkpt>
      <trkpt lat="47.48326" lon="6.76907">
        <ele>309</ele>
        <time>2016-05-29T09:42:58.999Z</time>
      </trkpt>
      <trkpt lat="47.48332" lon="6.76911">
        <ele>309</ele>
        <time>2016-05-29T09:43:00.000Z</time>
      </trkpt>
      <trkpt lat="47.48337" lon="6.76915">
        <ele>309</ele>
        <time>2016-05-29T09:43:01.000Z</time>
      </trkpt>
      <trkpt lat="47.48343" lon="6.76919">
        <ele>310</ele>
        <time>2016-05-29T09:43:02.000Z</time>
      </trkpt>
      <trkpt lat="47.48349" lon="6.76922">
        <ele>310</ele>
        <time>2016-05-29T09:43:03.000Z</time>
      </trkpt>
      <trkpt lat="47.48354" lon="6.76924">
        <ele>311</ele>
        <time>2016-05-29T09:43:04.000Z</time>
      </trkpt>
      <trkpt lat="47.48358" lon="6.76926">
        <ele>311</ele>
        <time>2016-05-29T09:43:05.000Z</time>
      </trkpt>
      <trkpt lat="47.48363" lon="6.76929">
        <ele>311</ele>
        <time>2016-05-29T09:43:06.000Z</time>
      </trkpt>
      <trkpt lat="47.48369" lon="6.76932">
        <ele>312</ele>
        <time>2016-05-29T09:43:07.000Z</time>
      </trkpt>
      <trkpt lat="47.48374" lon="6.76937">
        <ele>312</ele>
        <time>2016-05-29T09:43:08.000Z</time>
      </trkpt>
      <trkpt lat="47.4838" lon="6.76938">
        <ele>312</ele>
        <time>2016-05-29T09:43:09.000Z</time>
      </trkpt>
      <trkpt lat="47.48385" lon="6.7694">
        <ele>312</ele>
        <time>2016-05-29T09:43:10.000Z</time>
      </trkpt>
      <trkpt lat="47.48393" lon="6.76944">
        <ele>312</ele>
        <time>2016-05-29T09:43:11.000Z</time>
      </trkpt>
      <trkpt lat="47.48399" lon="6.76948">
        <ele>312</ele>
        <time>2016-05-29T09:43:12.000Z</time>
      </trkpt>
      <trkpt lat="47.48406" lon="6.76952">
        <ele>312</ele>
        <time>2016-05-29T09:43:13.000Z</time>
      </trkpt>
      <trkpt lat="47.48415" lon="6.76957">
        <ele>312</ele>
        <time>2016-05-29T09:43:14.000Z</time>
      </trkpt>
      <trkpt lat="47.48424" lon="6.76962">
        <ele>314</ele>
        <time>2016-05-29T09:43:15.000Z</time>
      </trkpt>
      <trkpt lat="47.48431" lon="6.76966">
        <ele>314</ele>
        <time>2016-05-29T09:43:16.000Z</time>
      </trkpt>
      <trkpt lat="47.48438" lon="6.76971">
        <ele>314</ele>
        <time>2016-05-29T09:43:17.000Z</time>
      </trkpt>
      <trkpt lat="47.48446" lon="6.76977">
        <ele>315</ele>
        <time>2016-05-29T09:43:18.000Z</time>
      </trkpt>
      <trkpt lat="47.48454" lon="6.7698">
        <ele>315</ele>
        <time>2016-05-29T09:43:19.000Z</time>
      </trkpt>
      <trkpt lat="47.48462" lon="6.76985">
        <ele>315</ele>
        <time>2016-05-29T09:43:19.999Z</time>
      </trkpt>
      <trkpt lat="47.48469" lon="6.76991">
        <ele>315</ele>
        <time>2016-05-29T09:43:21.000Z</time>
      </trkpt>
      <trkpt lat="47.48477" lon="6.76995">
        <ele>315</ele>
        <time>2016-05-29T09:43:22.000Z</time>
      </trkpt>
      <trkpt lat="47.48485" lon="6.77001">
        <ele>315</ele>
        <time>2016-05-29T09:43:22.999Z</time>
      </trkpt>
      <trkpt lat="47.48493" lon="6.77006">
        <ele>315</ele>
        <time>2016-05-29T09:43:24.000Z</time>
      </trkpt>
      <trkpt lat="47.485" lon="6.77012">
        <ele>315</ele>
        <time>2016-05-29T09:43:24.999Z</time>
      </trkpt>
      <trkpt lat="47.48508" lon="6.77017">
        <ele>315</ele>
        <time>2016-05-29T09:43:26.000Z</time>
      </trkpt>
      <trkpt lat="47.48516" lon="6.77021">
        <ele>315</ele>
        <time>2016-05-29T09:43:27.000Z</time>
      </trkpt>
      <trkpt lat="47.48523" lon="6.77026">
        <ele>314</ele>
        <time>2016-05-29T09:43:28.000Z</time>
      </trkpt>
      <trkpt lat="47.48531" lon="6.77033">
        <ele>314</ele>
        <time>2016-05-29T09:43:29.000Z</time>
      </trkpt>
      <trkpt lat="47.48539" lon="6.77036">
        <ele>314</ele>
        <time>2016-05-29T09:43:30.000Z</time>
      </trkpt>
      <trkpt lat="47.48547" lon="6.77042">
        <ele>314</ele>
        <time>2016-05-29T09:43:31.000Z</time>
      </trkpt>
      <trkpt lat="47.48554" lon="6.77047">
        <ele>314</ele>
        <time>2016-05-29T09:43:32.000Z</time>
      </trkpt>
      <trkpt lat="47.48561" lon="6.77048">
        <ele>314</ele>
        <time>2016-05-29T09:43:33.000Z</time>
      </trkpt>
      <trkpt lat="47.48568" lon="6.77052">
        <ele>314</ele>
        <time>2016-05-29T09:43:34.000Z</time>
      </trkpt>
      <trkpt lat="47.48576" lon="6.77057">
        <ele>314</ele>
        <time>2016-05-29T09:43:35.000Z</time>
      </trkpt>
      <trkpt lat="47.48582" lon="6.7706">
        <ele>314</ele>
        <time>2016-05-29T09:43:36.000Z</time>
      </trkpt>
      <trkpt lat="47.48589" lon="6.77064">
        <ele>313</ele>
        <time>2016-05-29T09:43:37.000Z</time>
      </trkpt>
      <trkpt lat="47.48597" lon="6.77067">
        <ele>313</ele>
        <time>2016-05-29T09:43:38.000Z</time>
      </trkpt>
      <trkpt lat="47.48603" lon="6.77072">
        <ele>313</ele>
        <time>2016-05-29T09:43:39.000Z</time>
      </trkpt>
      <trkpt lat="47.48609" lon="6.77077">
        <ele>313</ele>
        <time>2016-05-29T09:43:40.000Z</time>
      </trkpt>
      <trkpt lat="47.48616" lon="6.7708">
        <ele>313</ele>
        <time>2016-05-29T09:43:41.000Z</time>
      </trkpt>
      <trkpt lat="47.48622" lon="6.77083">
        <ele>313</ele>
        <time>2016-05-29T09:43:42.000Z</time>
      </trkpt>
      <trkpt lat="47.48627" lon="6.77088">
        <ele>312</ele>
        <time>2016-05-29T09:43:43.000Z</time>
      </trkpt>
      <trkpt lat="47.48633" lon="6.77093">
        <ele>312</ele>
        <time>2016-05-29T09:43:44.000Z</time>
      </trkpt>
      <trkpt lat="47.48638" lon="6.771">
        <ele>312</ele>
        <time>2016-05-29T09:43:45.000Z</time>
      </trkpt>
      <trkpt lat="47.48645" lon="6.77107">
        <ele>312</ele>
        <time>2016-05-29T09:43:46.001Z</time>
      </trkpt>
      <trkpt lat="47.48651" lon="6.77114">
        <ele>312</ele>
        <time>2016-05-29T09:43:47.000Z</time>
      </trkpt>
      <trkpt lat="47.48657" lon="6.77121">
        <ele>312</ele>
        <time>2016-05-29T09:43:48.000Z</time>
      </trkpt>
      <trkpt lat="47.48663" lon="6.77127">
        <ele>312</ele>
        <time>2016-05-29T09:43:49.000Z</time>
      </trkpt>
      <trkpt lat="47.4867" lon="6.77134">
        <ele>312</ele>
        <time>2016-05-29T09:43:50.000Z</time>
      </trkpt>
      <trkpt lat="47.48677" lon="6.7714">
        <ele>311</ele>
        <time>2016-05-29T09:43:51.000Z</time>
      </trkpt>
      <trkpt lat="47.48682" lon="6.77146">
        <ele>311</ele>
        <time>2016-05-29T09:43:52.000Z</time>
      </trkpt>
      <trkpt lat="47.48688" lon="6.77153">
        <ele>311</ele>
        <time>2016-05-29T09:43:53.000Z</time>
      </trkpt>
      <trkpt lat="47.48693" lon="6.77158">
        <ele>311</ele>
        <time>2016-05-29T09:43:54.000Z</time>
      </trkpt>
      <trkpt lat="47.487" lon="6.77163">
        <ele>311</ele>
        <time>2016-05-29T09:43:55.000Z</time>
      </trkpt>
      <trkpt lat="47.48706" lon="6.77168">
        <ele>311</ele>
        <time>2016-05-29T09:43:56.000Z</time>
      </trkpt>
      <trkpt lat="47.48712" lon="6.77173">
        <ele>311</ele>
        <time>2016-05-29T09:43:57.000Z</time>
      </trkpt>
      <trkpt lat="47.48718" lon="6.77179">
        <ele>310</ele>
        <time>2016-05-29T09:43:58.000Z</time>
      </trkpt>
      <trkpt lat="47.48724" lon="6.77183">
        <ele>310</ele>
        <time>2016-05-29T09:43:59.000Z</time>
      </trkpt>
      <trkpt lat="47.4873" lon="6.77188">
        <ele>310</ele>
        <time>2016-05-29T09:44:00.000Z</time>
      </trkpt>
      <trkpt lat="47.48736" lon="6.77193">
        <ele>310</ele>
        <time>2016-05-29T09:44:01.000Z</time>
      </trkpt>
      <trkpt lat="47.48744" lon="6.77197">
        <ele>310</ele>
        <time>2016-05-29T09:44:02.000Z</time>
      </trkpt>
      <trkpt lat="47.4875" lon="6.77203">
        <ele>310</ele>
        <time>2016-05-29T09:44:03.000Z</time>
      </trkpt>
      <trkpt lat="47.48756" lon="6.77208">
        <ele>310</ele>
        <time>2016-05-29T09:44:04.000Z</time>
      </trkpt>
      <trkpt lat="47.48762" lon="6.77213">
        <ele>310</ele>
        <time>2016-05-29T09:44:05.000Z</time>
      </trkpt>
      <trkpt lat="47.48768" lon="6.77214">
        <ele>310</ele>
        <time>2016-05-29T09:44:06.000Z</time>
      </trkpt>
      <trkpt lat="47.48775" lon="6.77216">
        <ele>310</ele>
        <time>2016-05-29T09:44:07.000Z</time>
      </trkpt>
      <trkpt lat="47.48781" lon="6.77222">
        <ele>310</ele>
        <time>2016-05-29T09:44:08.000Z</time>
      </trkpt>
      <trkpt lat="47.48787" lon="6.77226">
        <ele>310</ele>
        <time>2016-05-29T09:44:09.000Z</time>
      </trkpt>
      <trkpt lat="47.48792" lon="6.77232">
        <ele>310</ele>
        <time>2016-05-29T09:44:10.000Z</time>
      </trkpt>
      <trkpt lat="47.48798" lon="6.77236">
        <ele>310</ele>
        <time>2016-05-29T09:44:11.000Z</time>
      </trkpt>
      <trkpt lat="47.48805" lon="6.77241">
        <ele>311</ele>
        <time>2016-05-29T09:44:12.000Z</time>
      </trkpt>
      <trkpt lat="47.48809" lon="6.77245">
        <ele>311</ele>
        <time>2016-05-29T09:44:13.000Z</time>
      </trkpt>
      <trkpt lat="47.48815" lon="6.77248">
        <ele>311</ele>
        <time>2016-05-29T09:44:14.000Z</time>
      </trkpt>
      <trkpt lat="47.48821" lon="6.77252">
        <ele>310</ele>
        <time>2016-05-29T09:44:15.001Z</time>
      </trkpt>
      <trkpt lat="47.48827" lon="6.77257">
        <ele>311</ele>
        <time>2016-05-29T09:44:16.000Z</time>
      </trkpt>
      <trkpt lat="47.48832" lon="6.77261">
        <ele>310</ele>
        <time>2016-05-29T09:44:17.000Z</time>
      </trkpt>
      <trkpt lat="47.48838" lon="6.77267">
        <ele>310</ele>
        <time>2016-05-29T09:44:18.000Z</time>
      </trkpt>
      <trkpt lat="47.48843" lon="6.77273">
        <ele>310</ele>
        <time>2016-05-29T09:44:19.000Z</time>
      </trkpt>
      <trkpt lat="47.48849" lon="6.77277">
        <ele>310</ele>
        <time>2016-05-29T09:44:20.000Z</time>
      </trkpt>
      <trkpt lat="47.48854" lon="6.77277">
        <ele>310</ele>
        <time>2016-05-29T09:44:21.000Z</time>
      </trkpt>
      <trkpt lat="47.4886" lon="6.7728">
        <ele>310</ele>
        <time>2016-05-29T09:44:22.000Z</time>
      </trkpt>
      <trkpt lat="47.48867" lon="6.77282">
        <ele>310</ele>
        <time>2016-05-29T09:44:23.000Z</time>
      </trkpt>
      <trkpt lat="47.48873" lon="6.77284">
        <ele>310</ele>
        <time>2016-05-29T09:44:24.001Z</time>
      </trkpt>
      <trkpt lat="47.4888" lon="6.77285">
        <ele>310</ele>
        <time>2016-05-29T09:44:25.000Z</time>
      </trkpt>
      <trkpt lat="47.48886" lon="6.77287">
        <ele>310</ele>
        <time>2016-05-29T09:44:26.000Z</time>
      </trkpt>
      <trkpt lat="47.48893" lon="6.77291">
        <ele>310</ele>
        <time>2016-05-29T09:44:27.000Z</time>
      </trkpt>
      <trkpt lat="47.48899" lon="6.77292">
        <ele>310</ele>
        <time>2016-05-29T09:44:28.000Z</time>
      </trkpt>
      <trkpt lat="47.48906" lon="6.77292">
        <ele>310</ele>
        <time>2016-05-29T09:44:29.001Z</time>
      </trkpt>
      <trkpt lat="47.48911" lon="6.77294">
        <ele>310</ele>
        <time>2016-05-29T09:44:30.000Z</time>
      </trkpt>
      <trkpt lat="47.48916" lon="6.77296">
        <ele>310</ele>
        <time>2016-05-29T09:44:31.000Z</time>
      </trkpt>
      <trkpt lat="47.48921" lon="6.773">
        <ele>311</ele>
        <time>2016-05-29T09:44:32.000Z</time>
      </trkpt>
      <trkpt lat="47.48927" lon="6.77303">
        <ele>311</ele>
        <time>2016-05-29T09:44:33.000Z</time>
      </trkpt>
      <trkpt lat="47.48934" lon="6.77304">
        <ele>311</ele>
        <time>2016-05-29T09:44:34.000Z</time>
      </trkpt>
      <trkpt lat="47.48939" lon="6.77306">
        <ele>311</ele>
        <time>2016-05-29T09:44:35.000Z</time>
      </trkpt>
      <trkpt lat="47.48945" lon="6.77307">
        <ele>311</ele>
        <time>2016-05-29T09:44:36.000Z</time>
      </trkpt>
      <trkpt lat="47.48951" lon="6.77308">
        <ele>311</ele>
        <time>2016-05-29T09:44:37.000Z</time>
      </trkpt>
      <trkpt lat="47.48957" lon="6.77312">
        <ele>311</ele>
        <time>2016-05-29T09:44:38.000Z</time>
      </trkpt>
      <trkpt lat="47.48962" lon="6.77315">
        <ele>311</ele>
        <time>2016-05-29T09:44:39.001Z</time>
      </trkpt>
      <trkpt lat="47.48968" lon="6.77315">
        <ele>311</ele>
        <time>2016-05-29T09:44:40.000Z</time>
      </trkpt>
      <trkpt lat="47.48974" lon="6.77315">
        <ele>311</ele>
        <time>2016-05-29T09:44:41.000Z</time>
      </trkpt>
      <trkpt lat="47.48981" lon="6.77316">
        <ele>311</ele>
        <time>2016-05-29T09:44:42.000Z</time>
      </trkpt>
      <trkpt lat="47.48987" lon="6.77316">
        <ele>311</ele>
        <time>2016-05-29T09:44:43.000Z</time>
      </trkpt>
      <trkpt lat="47.48993" lon="6.77318">
        <ele>311</ele>
        <time>2016-05-29T09:44:44.000Z</time>
      </trkpt>
      <trkpt lat="47.48999" lon="6.77321">
        <ele>311</ele>
        <time>2016-05-29T09:44:45.000Z</time>
      </trkpt>
      <trkpt lat="47.49005" lon="6.77321">
        <ele>311</ele>
        <time>2016-05-29T09:44:46.000Z</time>
      </trkpt>
      <trkpt lat="47.49011" lon="6.77322">
        <ele>311</ele>
        <time>2016-05-29T09:44:47.000Z</time>
      </trkpt>
      <trkpt lat="47.49017" lon="6.77323">
        <ele>311</ele>
        <time>2016-05-29T09:44:48.000Z</time>
      </trkpt>
      <trkpt lat="47.49023" lon="6.77323">
        <ele>311</ele>
        <time>2016-05-29T09:44:49.000Z</time>
      </trkpt>
      <trkpt lat="47.49028" lon="6.77324">
        <ele>311</ele>
        <time>2016-05-29T09:44:49.999Z</time>
      </trkpt>
      <trkpt lat="47.49032" lon="6.77325">
        <ele>311</ele>
        <time>2016-05-29T09:44:51.000Z</time>
      </trkpt>
      <trkpt lat="47.49036" lon="6.77326">
        <ele>311</ele>
        <time>2016-05-29T09:44:52.000Z</time>
      </trkpt>
      <trkpt lat="47.49041" lon="6.77329">
        <ele>311</ele>
        <time>2016-05-29T09:44:53.000Z</time>
      </trkpt>
      <trkpt lat="47.49044" lon="6.7733">
        <ele>311</ele>
        <time>2016-05-29T09:44:54.000Z</time>
      </trkpt>
      <trkpt lat="47.49048" lon="6.7733">
        <ele>311</ele>
        <time>2016-05-29T09:44:55.000Z</time>
      </trkpt>
      <trkpt lat="47.49056" lon="6.77329">
        <ele>311</ele>
        <time>2016-05-29T09:44:56.000Z</time>
      </trkpt>
      <trkpt lat="47.49063" lon="6.77329">
        <ele>311</ele>
        <time>2016-05-29T09:44:57.000Z</time>
      </trkpt>
      <trkpt lat="47.49069" lon="6.77329">
        <ele>311</ele>
        <time>2016-05-29T09:44:58.000Z</time>
      </trkpt>
      <trkpt lat="47.49075" lon="6.77329">
        <ele>311</ele>
        <time>2016-05-29T09:44:59.000Z</time>
      </trkpt>
      <trkpt lat="47.49081" lon="6.77329">
        <ele>311</ele>
        <time>2016-05-29T09:45:00.000Z</time>
      </trkpt>
      <trkpt lat="47.49086" lon="6.7733">
        <ele>311</ele>
        <time>2016-05-29T09:45:01.000Z</time>
      </trkpt>
      <trkpt lat="47.49091" lon="6.77331">
        <ele>311</ele>
        <time>2016-05-29T09:45:02.000Z</time>
      </trkpt>
      <trkpt lat="47.49096" lon="6.77333">
        <ele>311</ele>
        <time>2016-05-29T09:45:03.000Z</time>
      </trkpt>
      <trkpt lat="47.49102" lon="6.77333">
        <ele>311</ele>
        <time>2016-05-29T09:45:04.000Z</time>
      </trkpt>
      <trkpt lat="47.49107" lon="6.77333">
        <ele>311</ele>
        <time>2016-05-29T09:45:05.000Z</time>
      </trkpt>
      <trkpt lat="47.49112" lon="6.77334">
        <ele>310</ele>
        <time>2016-05-29T09:45:06.000Z</time>
      </trkpt>
      <trkpt lat="47.49116" lon="6.77334">
        <ele>310</ele>
        <time>2016-05-29T09:45:07.000Z</time>
      </trkpt>
      <trkpt lat="47.4912" lon="6.77336">
        <ele>310</ele>
        <time>2016-05-29T09:45:08.000Z</time>
      </trkpt>
      <trkpt lat="47.49123" lon="6.77337">
        <ele>310</ele>
        <time>2016-05-29T09:45:09.000Z</time>
      </trkpt>
      <trkpt lat="47.49126" lon="6.77337">
        <ele>310</ele>
        <time>2016-05-29T09:45:10.000Z</time>
      </trkpt>
      <trkpt lat="47.4913" lon="6.77337">
        <ele>310</ele>
        <time>2016-05-29T09:45:11.000Z</time>
      </trkpt>
      <trkpt lat="47.49133" lon="6.77338">
        <ele>310</ele>
        <time>2016-05-29T09:45:12.000Z</time>
      </trkpt>
      <trkpt lat="47.49137" lon="6.77339">
        <ele>310</ele>
        <time>2016-05-29T09:45:13.000Z</time>
      </trkpt>
      <trkpt lat="47.4914" lon="6.7734">
        <ele>310</ele>
        <time>2016-05-29T09:45:14.000Z</time>
      </trkpt>
      <trkpt lat="47.49143" lon="6.7734">
        <ele>310</ele>
        <time>2016-05-29T09:45:15.000Z</time>
      </trkpt>
      <trkpt lat="47.49146" lon="6.7734">
        <ele>310</ele>
        <time>2016-05-29T09:45:16.000Z</time>
      </trkpt>
      <trkpt lat="47.49149" lon="6.77341">
        <ele>310</ele>
        <time>2016-05-29T09:45:17.000Z</time>
      </trkpt>
      <trkpt lat="47.49152" lon="6.77342">
        <ele>310</ele>
        <time>2016-05-29T09:45:18.000Z</time>
      </trkpt>
      <trkpt lat="47.49155" lon="6.77342">
        <ele>310</ele>
        <time>2016-05-29T09:45:19.000Z</time>
      </trkpt>
      <trkpt lat="47.49158" lon="6.77342">
        <ele>310</ele>
        <time>2016-05-29T09:45:20.000Z</time>
      </trkpt>
      <trkpt lat="47.49161" lon="6.77342">
        <ele>310</ele>
        <time>2016-05-29T09:45:21.000Z</time>
      </trkpt>
      <trkpt lat="47.49164" lon="6.77342">
        <ele>310</ele>
        <time>2016-05-29T09:45:22.000Z</time>
      </trkpt>
      <trkpt lat="47.49167" lon="6.77342">
        <ele>310</ele>
        <time>2016-05-29T09:45:23.000Z</time>
      </trkpt>
      <trkpt lat="47.4917" lon="6.77342">
        <ele>310</ele>
        <time>2016-05-29T09:45:24.001Z</time>
      </trkpt>
      <trkpt lat="47.49174" lon="6.77342">
        <ele>310</ele>
        <time>2016-05-29T09:45:25.000Z</time>
      </trkpt>
      <trkpt lat="47.49176" lon="6.77343">
        <ele>310</ele>
        <time>2016-05-29T09:45:26.000Z</time>
      </trkpt>
      <trkpt lat="47.49177" lon="6.77336">
        <ele>310</ele>
        <time>2016-05-29T09:45:37.999Z</time>
      </trkpt>
      <trkpt lat="47.49177" lon="6.77336">
        <ele>310</ele>
        <time>2016-05-29T09:45:39.000Z</time>
      </trkpt>
      <trkpt lat="47.49181" lon="6.77337">
        <ele>310</ele>
        <time>2016-05-29T09:47:19.000Z</time>
      </trkpt>
      <trkpt lat="47.49182" lon="6.77337">
        <ele>310</ele>
        <time>2016-05-29T09:47:20.000Z</time>
      </trkpt>
      <trkpt lat="47.49185" lon="6.77337">
        <ele>310</ele>
        <time>2016-05-29T09:47:22.000Z</time>
      </trkpt>
      <trkpt lat="47.49187" lon="6.77337">
        <ele>309</ele>
        <time>2016-05-29T09:47:23.000Z</time>
      </trkpt>
      <trkpt lat="47.49189" lon="6.77338">
        <ele>309</ele>
        <time>2016-05-29T09:47:24.000Z</time>
      </trkpt>
      <trkpt lat="47.49192" lon="6.77338">
        <ele>309</ele>
        <time>2016-05-29T09:47:25.000Z</time>
      </trkpt>
      <trkpt lat="47.49196" lon="6.77337">
        <ele>309</ele>
        <time>2016-05-29T09:47:26.999Z</time>
      </trkpt>
      <trkpt lat="47.49198" lon="6.77335">
        <ele>309</ele>
        <time>2016-05-29T09:47:27.999Z</time>
      </trkpt>
      <trkpt lat="47.492" lon="6.77334">
        <ele>309</ele>
        <time>2016-05-29T09:47:29.000Z</time>
      </trkpt>
      <trkpt lat="47.49203" lon="6.77336">
        <ele>309</ele>
        <time>2016-05-29T09:47:30.000Z</time>
      </trkpt>
      <trkpt lat="47.49205" lon="6.77337">
        <ele>309</ele>
        <time>2016-05-29T09:47:30.999Z</time>
      </trkpt>
      <trkpt lat="47.49208" lon="6.77338">
        <ele>309</ele>
        <time>2016-05-29T09:47:32.000Z</time>
      </trkpt>
      <trkpt lat="47.49212" lon="6.77338">
        <ele>309</ele>
        <time>2016-05-29T09:47:33.000Z</time>
      </trkpt>
      <trkpt lat="47.49215" lon="6.77338">
        <ele>309</ele>
        <time>2016-05-29T09:47:34.000Z</time>
      </trkpt>
      <trkpt lat="47.49219" lon="6.77339">
        <ele>309</ele>
        <time>2016-05-29T09:47:35.000Z</time>
      </trkpt>
      <trkpt lat="47.49223" lon="6.77339">
        <ele>309</ele>
        <time>2016-05-29T09:47:36.000Z</time>
      </trkpt>
      <trkpt lat="47.49227" lon="6.77339">
        <ele>309</ele>
        <time>2016-05-29T09:47:37.000Z</time>
      </trkpt>
      <trkpt lat="47.49231" lon="6.77339">
        <ele>309</ele>
        <time>2016-05-29T09:47:38.000Z</time>
      </trkpt>
      <trkpt lat="47.49237" lon="6.77338">
        <ele>310</ele>
        <time>2016-05-29T09:47:39.000Z</time>
      </trkpt>
      <trkpt lat="47.49241" lon="6.77339">
        <ele>310</ele>
        <time>2016-05-29T09:47:40.000Z</time>
      </trkpt>
      <trkpt lat="47.49246" lon="6.7734">
        <ele>310</ele>
        <time>2016-05-29T09:47:41.000Z</time>
      </trkpt>
      <trkpt lat="47.4925" lon="6.7734">
        <ele>310</ele>
        <time>2016-05-29T09:47:42.001Z</time>
      </trkpt>
      <trkpt lat="47.49254" lon="6.77335">
        <ele>310</ele>
        <time>2016-05-29T09:47:43.001Z</time>
      </trkpt>
      <trkpt lat="47.4926" lon="6.77332">
        <ele>310</ele>
        <time>2016-05-29T09:47:44.000Z</time>
      </trkpt>
      <trkpt lat="47.49266" lon="6.77331">
        <ele>310</ele>
        <time>2016-05-29T09:47:45.000Z</time>
      </trkpt>
      <trkpt lat="47.49272" lon="6.77331">
        <ele>310</ele>
        <time>2016-05-29T09:47:46.000Z</time>
      </trkpt>
      <trkpt lat="47.49278" lon="6.77331">
        <ele>310</ele>
        <time>2016-05-29T09:47:47.000Z</time>
      </trkpt>
      <trkpt lat="47.49284" lon="6.77329">
        <ele>310</ele>
        <time>2016-05-29T09:47:48.000Z</time>
      </trkpt>
      <trkpt lat="47.4929" lon="6.77328">
        <ele>310</ele>
        <time>2016-05-29T09:47:49.000Z</time>
      </trkpt>
      <trkpt lat="47.49296" lon="6.77329">
        <ele>310</ele>
        <time>2016-05-29T09:47:50.001Z</time>
      </trkpt>
      <trkpt lat="47.49302" lon="6.77329">
        <ele>310</ele>
        <time>2016-05-29T09:47:51.001Z</time>
      </trkpt>
      <trkpt lat="47.49307" lon="6.77327">
        <ele>310</ele>
        <time>2016-05-29T09:47:52.000Z</time>
      </trkpt>
      <trkpt lat="47.49311" lon="6.77329">
        <ele>310</ele>
        <time>2016-05-29T09:47:53.000Z</time>
      </trkpt>
      <trkpt lat="47.49315" lon="6.77331">
        <ele>310</ele>
        <time>2016-05-29T09:47:54.000Z</time>
      </trkpt>
      <trkpt lat="47.4932" lon="6.77332">
        <ele>310</ele>
        <time>2016-05-29T09:47:55.000Z</time>
      </trkpt>
      <trkpt lat="47.49325" lon="6.77333">
        <ele>310</ele>
        <time>2016-05-29T09:47:56.000Z</time>
      </trkpt>
      <trkpt lat="47.49327" lon="6.77337">
        <ele>310</ele>
        <time>2016-05-29T09:47:57.000Z</time>
      </trkpt>
      <trkpt lat="47.49331" lon="6.77339">
        <ele>310</ele>
        <time>2016-05-29T09:47:58.000Z</time>
      </trkpt>
      <trkpt lat="47.49335" lon="6.77342">
        <ele>310</ele>
        <time>2016-05-29T09:47:59.000Z</time>
      </trkpt>
      <trkpt lat="47.49339" lon="6.77345">
        <ele>310</ele>
        <time>2016-05-29T09:47:59.999Z</time>
      </trkpt>
      <trkpt lat="47.49343" lon="6.77348">
        <ele>310</ele>
        <time>2016-05-29T09:48:01.001Z</time>
      </trkpt>
      <trkpt lat="47.49348" lon="6.77349">
        <ele>310</ele>
        <time>2016-05-29T09:48:02.000Z</time>
      </trkpt>
      <trkpt lat="47.49354" lon="6.77348">
        <ele>310</ele>
        <time>2016-05-29T09:48:03.000Z</time>
      </trkpt>
      <trkpt lat="47.49358" lon="6.77348">
        <ele>310</ele>
        <time>2016-05-29T09:48:04.000Z</time>
      </trkpt>
      <trkpt lat="47.49363" lon="6.77348">
        <ele>310</ele>
        <time>2016-05-29T09:48:05.000Z</time>
      </trkpt>
      <trkpt lat="47.49368" lon="6.7735">
        <ele>310</ele>
        <time>2016-05-29T09:48:06.000Z</time>
      </trkpt>
      <trkpt lat="47.49372" lon="6.7735">
        <ele>310</ele>
        <time>2016-05-29T09:48:07.000Z</time>
      </trkpt>
      <trkpt lat="47.49376" lon="6.7735">
        <ele>310</ele>
        <time>2016-05-29T09:48:08.000Z</time>
      </trkpt>
      <trkpt lat="47.49381" lon="6.7735">
        <ele>310</ele>
        <time>2016-05-29T09:48:09.000Z</time>
      </trkpt>
      <trkpt lat="47.49386" lon="6.7735">
        <ele>310</ele>
        <time>2016-05-29T09:48:10.000Z</time>
      </trkpt>
      <trkpt lat="47.4939" lon="6.7735">
        <ele>310</ele>
        <time>2016-05-29T09:48:11.000Z</time>
      </trkpt>
      <trkpt lat="47.49395" lon="6.77349">
        <ele>310</ele>
        <time>2016-05-29T09:48:12.000Z</time>
      </trkpt>
      <trkpt lat="47.494" lon="6.7735">
        <ele>310</ele>
        <time>2016-05-29T09:48:13.000Z</time>
      </trkpt>
      <trkpt lat="47.49404" lon="6.7735">
        <ele>310</ele>
        <time>2016-05-29T09:48:14.000Z</time>
      </trkpt>
      <trkpt lat="47.49409" lon="6.77351">
        <ele>311</ele>
        <time>2016-05-29T09:48:15.000Z</time>
      </trkpt>
      <trkpt lat="47.49414" lon="6.77349">
        <ele>311</ele>
        <time>2016-05-29T09:48:16.000Z</time>
      </trkpt>
      <trkpt lat="47.49419" lon="6.77348">
        <ele>311</ele>
        <time>2016-05-29T09:48:17.000Z</time>
      </trkpt>
      <trkpt lat="47.49423" lon="6.77349">
        <ele>311</ele>
        <time>2016-05-29T09:48:18.000Z</time>
      </trkpt>
      <trkpt lat="47.49427" lon="6.77348">
        <ele>311</ele>
        <time>2016-05-29T09:48:19.000Z</time>
      </trkpt>
      <trkpt lat="47.49432" lon="6.77349">
        <ele>311</ele>
        <time>2016-05-29T09:48:20.000Z</time>
      </trkpt>
      <trkpt lat="47.49437" lon="6.77349">
        <ele>311</ele>
        <time>2016-05-29T09:48:21.000Z</time>
      </trkpt>
      <trkpt lat="47.49443" lon="6.77347">
        <ele>311</ele>
        <time>2016-05-29T09:48:22.000Z</time>
      </trkpt>
      <trkpt lat="47.49446" lon="6.77347">
        <ele>311</ele>
        <time>2016-05-29T09:48:23.000Z</time>
      </trkpt>
      <trkpt lat="47.49451" lon="6.77347">
        <ele>311</ele>
        <time>2016-05-29T09:48:24.000Z</time>
      </trkpt>
      <trkpt lat="47.49456" lon="6.77349">
        <ele>311</ele>
        <time>2016-05-29T09:48:25.000Z</time>
      </trkpt>
      <trkpt lat="47.49461" lon="6.77349">
        <ele>311</ele>
        <time>2016-05-29T09:48:26.000Z</time>
      </trkpt>
      <trkpt lat="47.49465" lon="6.77349">
        <ele>311</ele>
        <time>2016-05-29T09:48:27.000Z</time>
      </trkpt>
      <trkpt lat="47.4947" lon="6.77352">
        <ele>311</ele>
        <time>2016-05-29T09:48:28.000Z</time>
      </trkpt>
      <trkpt lat="47.49473" lon="6.77354">
        <ele>311</ele>
        <time>2016-05-29T09:48:29.000Z</time>
      </trkpt>
      <trkpt lat="47.49478" lon="6.77355">
        <ele>311</ele>
        <time>2016-05-29T09:48:30.000Z</time>
      </trkpt>
      <trkpt lat="47.49482" lon="6.77356">
        <ele>311</ele>
        <time>2016-05-29T09:48:31.000Z</time>
      </trkpt>
      <trkpt lat="47.49488" lon="6.77353">
        <ele>312</ele>
        <time>2016-05-29T09:48:32.000Z</time>
      </trkpt>
      <trkpt lat="47.49493" lon="6.77351">
        <ele>312</ele>
        <time>2016-05-29T09:48:32.999Z</time>
      </trkpt>
      <trkpt lat="47.49497" lon="6.77353">
        <ele>312</ele>
        <time>2016-05-29T09:48:34.000Z</time>
      </trkpt>
      <trkpt lat="47.49501" lon="6.77351">
        <ele>312</ele>
        <time>2016-05-29T09:48:35.000Z</time>
      </trkpt>
      <trkpt lat="47.49507" lon="6.77354">
        <ele>312</ele>
        <time>2016-05-29T09:48:36.000Z</time>
      </trkpt>
      <trkpt lat="47.49512" lon="6.77354">
        <ele>312</ele>
        <time>2016-05-29T09:48:37.000Z</time>
      </trkpt>
      <trkpt lat="47.49516" lon="6.77355">
        <ele>312</ele>
        <time>2016-05-29T09:48:38.000Z</time>
      </trkpt>
      <trkpt lat="47.49521" lon="6.77355">
        <ele>312</ele>
        <time>2016-05-29T09:48:39.000Z</time>
      </trkpt>
      <trkpt lat="47.49525" lon="6.77356">
        <ele>312</ele>
        <time>2016-05-29T09:48:40.000Z</time>
      </trkpt>
      <trkpt lat="47.49531" lon="6.77357">
        <ele>312</ele>
        <time>2016-05-29T09:48:41.000Z</time>
      </trkpt>
      <trkpt lat="47.49536" lon="6.77357">
        <ele>312</ele>
        <time>2016-05-29T09:48:42.001Z</time>
      </trkpt>
      <trkpt lat="47.4954" lon="6.77357">
        <ele>312</ele>
        <time>2016-05-29T09:48:43.000Z</time>
      </trkpt>
      <trkpt lat="47.49544" lon="6.77357">
        <ele>312</ele>
        <time>2016-05-29T09:48:44.000Z</time>
      </trkpt>
      <trkpt lat="47.4955" lon="6.77357">
        <ele>312</ele>
        <time>2016-05-29T09:48:45.000Z</time>
      </trkpt>
      <trkpt lat="47.49556" lon="6.7736">
        <ele>312</ele>
        <time>2016-05-29T09:48:46.000Z</time>
      </trkpt>
      <trkpt lat="47.4956" lon="6.7736">
        <ele>312</ele>
        <time>2016-05-29T09:48:47.001Z</time>
      </trkpt>
      <trkpt lat="47.49565" lon="6.77359">
        <ele>312</ele>
        <time>2016-05-29T09:48:48.000Z</time>
      </trkpt>
      <trkpt lat="47.49569" lon="6.77358">
        <ele>313</ele>
        <time>2016-05-29T09:48:49.000Z</time>
      </trkpt>
      <trkpt lat="47.49574" lon="6.77358">
        <ele>313</ele>
        <time>2016-05-29T09:48:50.000Z</time>
      </trkpt>
      <trkpt lat="47.49579" lon="6.77358">
        <ele>313</ele>
        <time>2016-05-29T09:48:50.999Z</time>
      </trkpt>
      <trkpt lat="47.49584" lon="6.77354">
        <ele>313</ele>
        <time>2016-05-29T09:48:52.000Z</time>
      </trkpt>
      <trkpt lat="47.49589" lon="6.77353">
        <ele>313</ele>
        <time>2016-05-29T09:48:53.000Z</time>
      </trkpt>
      <trkpt lat="47.49594" lon="6.77354">
        <ele>313</ele>
        <time>2016-05-29T09:48:54.000Z</time>
      </trkpt>
      <trkpt lat="47.49599" lon="6.77354">
        <ele>313</ele>
        <time>2016-05-29T09:48:55.000Z</time>
      </trkpt>
      <trkpt lat="47.49604" lon="6.77353">
        <ele>313</ele>
        <time>2016-05-29T09:48:56.000Z</time>
      </trkpt>
      <trkpt lat="47.49609" lon="6.77354">
        <ele>313</ele>
        <time>2016-05-29T09:48:57.000Z</time>
      </trkpt>
      <trkpt lat="47.49612" lon="6.77353">
        <ele>313</ele>
        <time>2016-05-29T09:48:58.000Z</time>
      </trkpt>
      <trkpt lat="47.49617" lon="6.77352">
        <ele>313</ele>
        <time>2016-05-29T09:48:58.999Z</time>
      </trkpt>
      <trkpt lat="47.4962" lon="6.77351">
        <ele>313</ele>
        <time>2016-05-29T09:49:00.000Z</time>
      </trkpt>
      <trkpt lat="47.49625" lon="6.77352">
        <ele>313</ele>
        <time>2016-05-29T09:49:01.000Z</time>
      </trkpt>
      <trkpt lat="47.4963" lon="6.77349">
        <ele>313</ele>
        <time>2016-05-29T09:49:02.000Z</time>
      </trkpt>
      <trkpt lat="47.49635" lon="6.77348">
        <ele>313</ele>
        <time>2016-05-29T09:49:03.000Z</time>
      </trkpt>
      <trkpt lat="47.49638" lon="6.77348">
        <ele>313</ele>
        <time>2016-05-29T09:49:04.000Z</time>
      </trkpt>
      <trkpt lat="47.49643" lon="6.7735">
        <ele>313</ele>
        <time>2016-05-29T09:49:05.000Z</time>
      </trkpt>
      <trkpt lat="47.49649" lon="6.77348">
        <ele>313</ele>
        <time>2016-05-29T09:49:06.000Z</time>
      </trkpt>
      <trkpt lat="47.49655" lon="6.77347">
        <ele>313</ele>
        <time>2016-05-29T09:49:07.000Z</time>
      </trkpt>
      <trkpt lat="47.49657" lon="6.77346">
        <ele>313</ele>
        <time>2016-05-29T09:49:08.000Z</time>
      </trkpt>
      <trkpt lat="47.49661" lon="6.77345">
        <ele>313</ele>
        <time>2016-05-29T09:49:09.000Z</time>
      </trkpt>
      <trkpt lat="47.49666" lon="6.77342">
        <ele>314</ele>
        <time>2016-05-29T09:49:10.000Z</time>
      </trkpt>
      <trkpt lat="47.49671" lon="6.77341">
        <ele>313</ele>
        <time>2016-05-29T09:49:10.999Z</time>
      </trkpt>
      <trkpt lat="47.49676" lon="6.77337">
        <ele>313</ele>
        <time>2016-05-29T09:49:12.000Z</time>
      </trkpt>
      <trkpt lat="47.49681" lon="6.77335">
        <ele>313</ele>
        <time>2016-05-29T09:49:13.000Z</time>
      </trkpt>
      <trkpt lat="47.49686" lon="6.77333">
        <ele>315</ele>
        <time>2016-05-29T09:49:13.999Z</time>
      </trkpt>
      <trkpt lat="47.49692" lon="6.77333">
        <ele>315</ele>
        <time>2016-05-29T09:49:15.000Z</time>
      </trkpt>
      <trkpt lat="47.49698" lon="6.77329">
        <ele>315</ele>
        <time>2016-05-29T09:49:15.999Z</time>
      </trkpt>
      <trkpt lat="47.49703" lon="6.7733">
        <ele>315</ele>
        <time>2016-05-29T09:49:17.000Z</time>
      </trkpt>
      <trkpt lat="47.49708" lon="6.77329">
        <ele>315</ele>
        <time>2016-05-29T09:49:18.000Z</time>
      </trkpt>
      <trkpt lat="47.49713" lon="6.77328">
        <ele>315</ele>
        <time>2016-05-29T09:49:19.000Z</time>
      </trkpt>
      <trkpt lat="47.49718" lon="6.77328">
        <ele>315</ele>
        <time>2016-05-29T09:49:20.000Z</time>
      </trkpt>
      <trkpt lat="47.49723" lon="6.77328">
        <ele>314</ele>
        <time>2016-05-29T09:49:21.000Z</time>
      </trkpt>
      <trkpt lat="47.49727" lon="6.77327">
        <ele>314</ele>
        <time>2016-05-29T09:49:22.000Z</time>
      </trkpt>
      <trkpt lat="47.49732" lon="6.77325">
        <ele>314</ele>
        <time>2016-05-29T09:49:23.000Z</time>
      </trkpt>
      <trkpt lat="47.49736" lon="6.77323">
        <ele>314</ele>
        <time>2016-05-29T09:49:24.000Z</time>
      </trkpt>
      <trkpt lat="47.49741" lon="6.77321">
        <ele>314</ele>
        <time>2016-05-29T09:49:25.000Z</time>
      </trkpt>
      <trkpt lat="47.49745" lon="6.77319">
        <ele>314</ele>
        <time>2016-05-29T09:49:26.000Z</time>
      </trkpt>
      <trkpt lat="47.49749" lon="6.77317">
        <ele>314</ele>
        <time>2016-05-29T09:49:27.000Z</time>
      </trkpt>
      <trkpt lat="47.49753" lon="6.77315">
        <ele>315</ele>
        <time>2016-05-29T09:49:28.000Z</time>
      </trkpt>
      <trkpt lat="47.49758" lon="6.77315">
        <ele>315</ele>
        <time>2016-05-29T09:49:29.000Z</time>
      </trkpt>
      <trkpt lat="47.49762" lon="6.77315">
        <ele>316</ele>
        <time>2016-05-29T09:49:30.000Z</time>
      </trkpt>
      <trkpt lat="47.49767" lon="6.77313">
        <ele>316</ele>
        <time>2016-05-29T09:49:31.000Z</time>
      </trkpt>
      <trkpt lat="47.49772" lon="6.77314">
        <ele>316</ele>
        <time>2016-05-29T09:49:32.000Z</time>
      </trkpt>
      <trkpt lat="47.49777" lon="6.77313">
        <ele>316</ele>
        <time>2016-05-29T09:49:33.000Z</time>
      </trkpt>
      <trkpt lat="47.49782" lon="6.77313">
        <ele>316</ele>
        <time>2016-05-29T09:49:34.000Z</time>
      </trkpt>
      <trkpt lat="47.49787" lon="6.77312">
        <ele>317</ele>
        <time>2016-05-29T09:49:35.000Z</time>
      </trkpt>
      <trkpt lat="47.49792" lon="6.77311">
        <ele>317</ele>
        <time>2016-05-29T09:49:36.000Z</time>
      </trkpt>
      <trkpt lat="47.49796" lon="6.7731">
        <ele>317</ele>
        <time>2016-05-29T09:49:37.000Z</time>
      </trkpt>
      <trkpt lat="47.49802" lon="6.77308">
        <ele>317</ele>
        <time>2016-05-29T09:49:38.000Z</time>
      </trkpt>
      <trkpt lat="47.49808" lon="6.77307">
        <ele>317</ele>
        <time>2016-05-29T09:49:39.000Z</time>
      </trkpt>
      <trkpt lat="47.49812" lon="6.77307">
        <ele>317</ele>
        <time>2016-05-29T09:49:40.000Z</time>
      </trkpt>
      <trkpt lat="47.49816" lon="6.77307">
        <ele>317</ele>
        <time>2016-05-29T09:49:41.000Z</time>
      </trkpt>
      <trkpt lat="47.4982" lon="6.77309">
        <ele>317</ele>
        <time>2016-05-29T09:49:42.000Z</time>
      </trkpt>
      <trkpt lat="47.49824" lon="6.7731">
        <ele>317</ele>
        <time>2016-05-29T09:49:43.000Z</time>
      </trkpt>
      <trkpt lat="47.49829" lon="6.77308">
        <ele>317</ele>
        <time>2016-05-29T09:49:44.000Z</time>
      </trkpt>
      <trkpt lat="47.49833" lon="6.77311">
        <ele>316</ele>
        <time>2016-05-29T09:49:45.000Z</time>
      </trkpt>
      <trkpt lat="47.49837" lon="6.77314">
        <ele>316</ele>
        <time>2016-05-29T09:49:46.000Z</time>
      </trkpt>
      <trkpt lat="47.49844" lon="6.7731">
        <ele>317</ele>
        <time>2016-05-29T09:49:47.000Z</time>
      </trkpt>
      <trkpt lat="47.4985" lon="6.77309">
        <ele>317</ele>
        <time>2016-05-29T09:49:48.000Z</time>
      </trkpt>
      <trkpt lat="47.49854" lon="6.77309">
        <ele>318</ele>
        <time>2016-05-29T09:49:49.000Z</time>
      </trkpt>
      <trkpt lat="47.4986" lon="6.77307">
        <ele>318</ele>
        <time>2016-05-29T09:49:50.000Z</time>
      </trkpt>
      <trkpt lat="47.49866" lon="6.77308">
        <ele>318</ele>
        <time>2016-05-29T09:49:51.000Z</time>
      </trkpt>
      <trkpt lat="47.49871" lon="6.77307">
        <ele>318</ele>
        <time>2016-05-29T09:49:52.000Z</time>
      </trkpt>
      <trkpt lat="47.49876" lon="6.77307">
        <ele>318</ele>
        <time>2016-05-29T09:49:53.000Z</time>
      </trkpt>
      <trkpt lat="47.49882" lon="6.77302">
        <ele>318</ele>
        <time>2016-05-29T09:49:54.000Z</time>
      </trkpt>
      <trkpt lat="47.49887" lon="6.77301">
        <ele>318</ele>
        <time>2016-05-29T09:49:55.000Z</time>
      </trkpt>
      <trkpt lat="47.49891" lon="6.77301">
        <ele>318</ele>
        <time>2016-05-29T09:49:56.000Z</time>
      </trkpt>
      <trkpt lat="47.49894" lon="6.773">
        <ele>318</ele>
        <time>2016-05-29T09:49:57.000Z</time>
      </trkpt>
      <trkpt lat="47.49898" lon="6.773">
        <ele>318</ele>
        <time>2016-05-29T09:49:58.000Z</time>
      </trkpt>
      <trkpt lat="47.499" lon="6.77301">
        <ele>318</ele>
        <time>2016-05-29T09:49:59.000Z</time>
      </trkpt>
      <trkpt lat="47.49902" lon="6.77301">
        <ele>318</ele>
        <time>2016-05-29T09:50:00.000Z</time>
      </trkpt>
      <trkpt lat="47.49905" lon="6.773">
        <ele>318</ele>
        <time>2016-05-29T09:50:01.000Z</time>
      </trkpt>
      <trkpt lat="47.4991" lon="6.77297">
        <ele>318</ele>
        <time>2016-05-29T09:50:02.000Z</time>
      </trkpt>
      <trkpt lat="47.49915" lon="6.77296">
        <ele>318</ele>
        <time>2016-05-29T09:50:03.000Z</time>
      </trkpt>
      <trkpt lat="47.4992" lon="6.77294">
        <ele>316</ele>
        <time>2016-05-29T09:50:04.000Z</time>
      </trkpt>
      <trkpt lat="47.49924" lon="6.77292">
        <ele>316</ele>
        <time>2016-05-29T09:50:05.000Z</time>
      </trkpt>
      <trkpt lat="47.49928" lon="6.77291">
        <ele>317</ele>
        <time>2016-05-29T09:50:06.000Z</time>
      </trkpt>
      <trkpt lat="47.49933" lon="6.7729">
        <ele>317</ele>
        <time>2016-05-29T09:50:07.000Z</time>
      </trkpt>
      <trkpt lat="47.49937" lon="6.77288">
        <ele>317</ele>
        <time>2016-05-29T09:50:08.000Z</time>
      </trkpt>
      <trkpt lat="47.49941" lon="6.77285">
        <ele>317</ele>
        <time>2016-05-29T09:50:09.000Z</time>
      </trkpt>
      <trkpt lat="47.49948" lon="6.77273">
        <ele>317</ele>
        <time>2016-05-29T09:50:10.000Z</time>
      </trkpt>
      <trkpt lat="47.49952" lon="6.7727">
        <ele>317</ele>
        <time>2016-05-29T09:50:11.000Z</time>
      </trkpt>
      <trkpt lat="47.49957" lon="6.77269">
        <ele>317</ele>
        <time>2016-05-29T09:50:12.000Z</time>
      </trkpt>
      <trkpt lat="47.49961" lon="6.77267">
        <ele>317</ele>
        <time>2016-05-29T09:50:13.000Z</time>
      </trkpt>
      <trkpt lat="47.49967" lon="6.77265">
        <ele>317</ele>
        <time>2016-05-29T09:50:14.000Z</time>
      </trkpt>
      <trkpt lat="47.49973" lon="6.77262">
        <ele>316</ele>
        <time>2016-05-29T09:50:15.000Z</time>
      </trkpt>
      <trkpt lat="47.49979" lon="6.77258">
        <ele>316</ele>
        <time>2016-05-29T09:50:16.000Z</time>
      </trkpt>
      <trkpt lat="47.49984" lon="6.77252">
        <ele>316</ele>
        <time>2016-05-29T09:50:17.000Z</time>
      </trkpt>
      <trkpt lat="47.49989" lon="6.7725">
        <ele>322</ele>
        <time>2016-05-29T09:50:18.000Z</time>
      </trkpt>
      <trkpt lat="47.49995" lon="6.77246">
        <ele>320</ele>
        <time>2016-05-29T09:50:19.000Z</time>
      </trkpt>
      <trkpt lat="47.49999" lon="6.77245">
        <ele>320</ele>
        <time>2016-05-29T09:50:20.000Z</time>
      </trkpt>
      <trkpt lat="47.50004" lon="6.77242">
        <ele>321</ele>
        <time>2016-05-29T09:50:21.000Z</time>
      </trkpt>
      <trkpt lat="47.50008" lon="6.77239">
        <ele>322</ele>
        <time>2016-05-29T09:50:22.000Z</time>
      </trkpt>
      <trkpt lat="47.50012" lon="6.77236">
        <ele>324</ele>
        <time>2016-05-29T09:50:23.000Z</time>
      </trkpt>
      <trkpt lat="47.50016" lon="6.77234">
        <ele>325</ele>
        <time>2016-05-29T09:50:24.000Z</time>
      </trkpt>
      <trkpt lat="47.5002" lon="6.77233">
        <ele>325</ele>
        <time>2016-05-29T09:50:25.000Z</time>
      </trkpt>
      <trkpt lat="47.50025" lon="6.77229">
        <ele>326</ele>
        <time>2016-05-29T09:50:26.000Z</time>
      </trkpt>
      <trkpt lat="47.5003" lon="6.77227">
        <ele>327</ele>
        <time>2016-05-29T09:50:27.000Z</time>
      </trkpt>
      <trkpt lat="47.50033" lon="6.77226">
        <ele>327</ele>
        <time>2016-05-29T09:50:28.000Z</time>
      </trkpt>
      <trkpt lat="47.50038" lon="6.77223">
        <ele>327</ele>
        <time>2016-05-29T09:50:29.000Z</time>
      </trkpt>
      <trkpt lat="47.50043" lon="6.77221">
        <ele>328</ele>
        <time>2016-05-29T09:50:30.000Z</time>
      </trkpt>
      <trkpt lat="47.50047" lon="6.77219">
        <ele>328</ele>
        <time>2016-05-29T09:50:31.000Z</time>
      </trkpt>
      <trkpt lat="47.50051" lon="6.77218">
        <ele>328</ele>
        <time>2016-05-29T09:50:32.000Z</time>
      </trkpt>
      <trkpt lat="47.50055" lon="6.77217">
        <ele>328</ele>
        <time>2016-05-29T09:50:33.000Z</time>
      </trkpt>
      <trkpt lat="47.5006" lon="6.77217">
        <ele>328</ele>
        <time>2016-05-29T09:50:34.000Z</time>
      </trkpt>
      <trkpt lat="47.50065" lon="6.77217">
        <ele>327</ele>
        <time>2016-05-29T09:50:35.000Z</time>
      </trkpt>
      <trkpt lat="47.5007" lon="6.77217">
        <ele>327</ele>
        <time>2016-05-29T09:50:36.000Z</time>
      </trkpt>
      <trkpt lat="47.50075" lon="6.77212">
        <ele>328</ele>
        <time>2016-05-29T09:50:37.000Z</time>
      </trkpt>
      <trkpt lat="47.5008" lon="6.77209">
        <ele>329</ele>
        <time>2016-05-29T09:50:38.000Z</time>
      </trkpt>
      <trkpt lat="47.50085" lon="6.77205">
        <ele>325</ele>
        <time>2016-05-29T09:50:39.000Z</time>
      </trkpt>
      <trkpt lat="47.5009" lon="6.77202">
        <ele>326</ele>
        <time>2016-05-29T09:50:40.000Z</time>
      </trkpt>
      <trkpt lat="47.50096" lon="6.772">
        <ele>326</ele>
        <time>2016-05-29T09:50:41.000Z</time>
      </trkpt>
      <trkpt lat="47.50101" lon="6.77199">
        <ele>326</ele>
        <time>2016-05-29T09:50:42.000Z</time>
      </trkpt>
      <trkpt lat="47.50106" lon="6.772">
        <ele>325</ele>
        <time>2016-05-29T09:50:43.000Z</time>
      </trkpt>
      <trkpt lat="47.50112" lon="6.772">
        <ele>325</ele>
        <time>2016-05-29T09:50:44.000Z</time>
      </trkpt>
      <trkpt lat="47.50117" lon="6.772">
        <ele>324</ele>
        <time>2016-05-29T09:50:45.000Z</time>
      </trkpt>
      <trkpt lat="47.50124" lon="6.772">
        <ele>324</ele>
        <time>2016-05-29T09:50:46.000Z</time>
      </trkpt>
      <trkpt lat="47.50129" lon="6.77201">
        <ele>323</ele>
        <time>2016-05-29T09:50:47.000Z</time>
      </trkpt>
      <trkpt lat="47.50136" lon="6.77202">
        <ele>323</ele>
        <time>2016-05-29T09:50:48.000Z</time>
      </trkpt>
      <trkpt lat="47.50141" lon="6.77204">
        <ele>322</ele>
        <time>2016-05-29T09:50:49.000Z</time>
      </trkpt>
      <trkpt lat="47.50147" lon="6.77207">
        <ele>322</ele>
        <time>2016-05-29T09:50:50.000Z</time>
      </trkpt>
      <trkpt lat="47.50152" lon="6.77212">
        <ele>321</ele>
        <time>2016-05-29T09:50:51.000Z</time>
      </trkpt>
      <trkpt lat="47.50157" lon="6.77216">
        <ele>320</ele>
        <time>2016-05-29T09:50:52.000Z</time>
      </trkpt>
      <trkpt lat="47.50162" lon="6.77221">
        <ele>320</ele>
        <time>2016-05-29T09:50:53.000Z</time>
      </trkpt>
      <trkpt lat="47.50166" lon="6.77226">
        <ele>319</ele>
        <time>2016-05-29T09:50:54.000Z</time>
      </trkpt>
      <trkpt lat="47.50171" lon="6.7723">
        <ele>316</ele>
        <time>2016-05-29T09:50:55.000Z</time>
      </trkpt>
      <trkpt lat="47.50174" lon="6.77234">
        <ele>315</ele>
        <time>2016-05-29T09:50:56.000Z</time>
      </trkpt>
      <trkpt lat="47.50176" lon="6.77238">
        <ele>315</ele>
        <time>2016-05-29T09:50:57.000Z</time>
      </trkpt>
      <trkpt lat="47.5018" lon="6.7724">
        <ele>315</ele>
        <time>2016-05-29T09:50:58.000Z</time>
      </trkpt>
      <trkpt lat="47.50183" lon="6.77242">
        <ele>315</ele>
        <time>2016-05-29T09:50:59.000Z</time>
      </trkpt>
      <trkpt lat="47.50186" lon="6.77244">
        <ele>315</ele>
        <time>2016-05-29T09:51:00.000Z</time>
      </trkpt>
      <trkpt lat="47.50191" lon="6.77248">
        <ele>315</ele>
        <time>2016-05-29T09:51:01.000Z</time>
      </trkpt>
      <trkpt lat="47.50195" lon="6.7725">
        <ele>316</ele>
        <time>2016-05-29T09:51:02.000Z</time>
      </trkpt>
      <trkpt lat="47.50199" lon="6.77254">
        <ele>313</ele>
        <time>2016-05-29T09:51:03.000Z</time>
      </trkpt>
      <trkpt lat="47.50204" lon="6.77257">
        <ele>313</ele>
        <time>2016-05-29T09:51:04.000Z</time>
      </trkpt>
      <trkpt lat="47.50208" lon="6.7726">
        <ele>313</ele>
        <time>2016-05-29T09:51:05.000Z</time>
      </trkpt>
      <trkpt lat="47.50213" lon="6.77264">
        <ele>313</ele>
        <time>2016-05-29T09:51:06.000Z</time>
      </trkpt>
      <trkpt lat="47.50218" lon="6.77268">
        <ele>313</ele>
        <time>2016-05-29T09:51:07.000Z</time>
      </trkpt>
      <trkpt lat="47.50222" lon="6.7727">
        <ele>313</ele>
        <time>2016-05-29T09:51:08.000Z</time>
      </trkpt>
      <trkpt lat="47.50227" lon="6.77273">
        <ele>313</ele>
        <time>2016-05-29T09:51:09.000Z</time>
      </trkpt>
      <trkpt lat="47.50231" lon="6.77277">
        <ele>313</ele>
        <time>2016-05-29T09:51:10.000Z</time>
      </trkpt>
      <trkpt lat="47.50236" lon="6.7728">
        <ele>313</ele>
        <time>2016-05-29T09:51:11.000Z</time>
      </trkpt>
      <trkpt lat="47.50241" lon="6.77283">
        <ele>313</ele>
        <time>2016-05-29T09:51:12.000Z</time>
      </trkpt>
      <trkpt lat="47.50245" lon="6.77287">
        <ele>313</ele>
        <time>2016-05-29T09:51:13.000Z</time>
      </trkpt>
      <trkpt lat="47.5025" lon="6.77291">
        <ele>313</ele>
        <time>2016-05-29T09:51:14.000Z</time>
      </trkpt>
      <trkpt lat="47.50255" lon="6.77294">
        <ele>313</ele>
        <time>2016-05-29T09:51:15.000Z</time>
      </trkpt>
      <trkpt lat="47.5026" lon="6.77296">
        <ele>313</ele>
        <time>2016-05-29T09:51:16.000Z</time>
      </trkpt>
      <trkpt lat="47.50263" lon="6.77298">
        <ele>313</ele>
        <time>2016-05-29T09:51:17.000Z</time>
      </trkpt>
      <trkpt lat="47.50267" lon="6.773">
        <ele>313</ele>
        <time>2016-05-29T09:51:18.001Z</time>
      </trkpt>
      <trkpt lat="47.50272" lon="6.77305">
        <ele>313</ele>
        <time>2016-05-29T09:51:19.000Z</time>
      </trkpt>
      <trkpt lat="47.50276" lon="6.77308">
        <ele>313</ele>
        <time>2016-05-29T09:51:20.000Z</time>
      </trkpt>
      <trkpt lat="47.50281" lon="6.77313">
        <ele>313</ele>
        <time>2016-05-29T09:51:21.000Z</time>
      </trkpt>
      <trkpt lat="47.50285" lon="6.77317">
        <ele>313</ele>
        <time>2016-05-29T09:51:22.000Z</time>
      </trkpt>
      <trkpt lat="47.50289" lon="6.77319">
        <ele>313</ele>
        <time>2016-05-29T09:51:22.999Z</time>
      </trkpt>
      <trkpt lat="47.50295" lon="6.77322">
        <ele>312</ele>
        <time>2016-05-29T09:51:24.000Z</time>
      </trkpt>
      <trkpt lat="47.503" lon="6.77326">
        <ele>312</ele>
        <time>2016-05-29T09:51:25.000Z</time>
      </trkpt>
      <trkpt lat="47.50305" lon="6.7733">
        <ele>312</ele>
        <time>2016-05-29T09:51:26.000Z</time>
      </trkpt>
      <trkpt lat="47.50309" lon="6.77334">
        <ele>312</ele>
        <time>2016-05-29T09:51:27.000Z</time>
      </trkpt>
      <trkpt lat="47.50315" lon="6.77338">
        <ele>312</ele>
        <time>2016-05-29T09:51:27.999Z</time>
      </trkpt>
      <trkpt lat="47.50319" lon="6.77342">
        <ele>312</ele>
        <time>2016-05-29T09:51:29.000Z</time>
      </trkpt>
      <trkpt lat="47.50323" lon="6.77345">
        <ele>312</ele>
        <time>2016-05-29T09:51:30.000Z</time>
      </trkpt>
      <trkpt lat="47.50327" lon="6.77349">
        <ele>312</ele>
        <time>2016-05-29T09:51:31.001Z</time>
      </trkpt>
      <trkpt lat="47.50332" lon="6.7735">
        <ele>312</ele>
        <time>2016-05-29T09:51:32.000Z</time>
      </trkpt>
      <trkpt lat="47.50336" lon="6.77353">
        <ele>312</ele>
        <time>2016-05-29T09:51:33.000Z</time>
      </trkpt>
      <trkpt lat="47.50341" lon="6.77355">
        <ele>312</ele>
        <time>2016-05-29T09:51:34.000Z</time>
      </trkpt>
      <trkpt lat="47.50346" lon="6.77363">
        <ele>312</ele>
        <time>2016-05-29T09:51:35.000Z</time>
      </trkpt>
      <trkpt lat="47.5035" lon="6.77365">
        <ele>312</ele>
        <time>2016-05-29T09:51:36.000Z</time>
      </trkpt>
      <trkpt lat="47.50355" lon="6.77368">
        <ele>312</ele>
        <time>2016-05-29T09:51:37.000Z</time>
      </trkpt>
      <trkpt lat="47.5036" lon="6.77371">
        <ele>312</ele>
        <time>2016-05-29T09:51:37.999Z</time>
      </trkpt>
      <trkpt lat="47.50364" lon="6.77375">
        <ele>312</ele>
        <time>2016-05-29T09:51:39.000Z</time>
      </trkpt>
      <trkpt lat="47.50367" lon="6.77379">
        <ele>312</ele>
        <time>2016-05-29T09:51:40.000Z</time>
      </trkpt>
      <trkpt lat="47.5037" lon="6.77382">
        <ele>312</ele>
        <time>2016-05-29T09:51:41.000Z</time>
      </trkpt>
      <trkpt lat="47.50375" lon="6.77386">
        <ele>312</ele>
        <time>2016-05-29T09:51:42.000Z</time>
      </trkpt>
      <trkpt lat="47.50379" lon="6.77389">
        <ele>312</ele>
        <time>2016-05-29T09:51:43.000Z</time>
      </trkpt>
      <trkpt lat="47.50384" lon="6.77392">
        <ele>312</ele>
        <time>2016-05-29T09:51:44.000Z</time>
      </trkpt>
      <trkpt lat="47.50388" lon="6.77396">
        <ele>312</ele>
        <time>2016-05-29T09:51:45.000Z</time>
      </trkpt>
      <trkpt lat="47.50392" lon="6.77399">
        <ele>312</ele>
        <time>2016-05-29T09:51:46.000Z</time>
      </trkpt>
      <trkpt lat="47.50396" lon="6.774">
        <ele>312</ele>
        <time>2016-05-29T09:51:47.000Z</time>
      </trkpt>
      <trkpt lat="47.50401" lon="6.77403">
        <ele>312</ele>
        <time>2016-05-29T09:51:48.001Z</time>
      </trkpt>
      <trkpt lat="47.50406" lon="6.77406">
        <ele>311</ele>
        <time>2016-05-29T09:51:48.999Z</time>
      </trkpt>
      <trkpt lat="47.5041" lon="6.77411">
        <ele>311</ele>
        <time>2016-05-29T09:51:50.000Z</time>
      </trkpt>
      <trkpt lat="47.50415" lon="6.77419">
        <ele>311</ele>
        <time>2016-05-29T09:51:51.000Z</time>
      </trkpt>
      <trkpt lat="47.5042" lon="6.77423">
        <ele>311</ele>
        <time>2016-05-29T09:51:52.000Z</time>
      </trkpt>
      <trkpt lat="47.50427" lon="6.77425">
        <ele>312</ele>
        <time>2016-05-29T09:51:53.000Z</time>
      </trkpt>
      <trkpt lat="47.50431" lon="6.77428">
        <ele>312</ele>
        <time>2016-05-29T09:51:53.999Z</time>
      </trkpt>
      <trkpt lat="47.50436" lon="6.77435">
        <ele>312</ele>
        <time>2016-05-29T09:51:55.000Z</time>
      </trkpt>
      <trkpt lat="47.50442" lon="6.77439">
        <ele>312</ele>
        <time>2016-05-29T09:51:56.000Z</time>
      </trkpt>
      <trkpt lat="47.50445" lon="6.77443">
        <ele>312</ele>
        <time>2016-05-29T09:51:57.000Z</time>
      </trkpt>
      <trkpt lat="47.50449" lon="6.77449">
        <ele>312</ele>
        <time>2016-05-29T09:51:58.000Z</time>
      </trkpt>
      <trkpt lat="47.50453" lon="6.77454">
        <ele>312</ele>
        <time>2016-05-29T09:51:59.000Z</time>
      </trkpt>
      <trkpt lat="47.50455" lon="6.77456">
        <ele>312</ele>
        <time>2016-05-29T09:52:00.000Z</time>
      </trkpt>
      <trkpt lat="47.50459" lon="6.77459">
        <ele>313</ele>
        <time>2016-05-29T09:52:01.000Z</time>
      </trkpt>
      <trkpt lat="47.50464" lon="6.77463">
        <ele>313</ele>
        <time>2016-05-29T09:52:02.000Z</time>
      </trkpt>
      <trkpt lat="47.50467" lon="6.77467">
        <ele>313</ele>
        <time>2016-05-29T09:52:03.000Z</time>
      </trkpt>
      <trkpt lat="47.50472" lon="6.77468">
        <ele>313</ele>
        <time>2016-05-29T09:52:04.000Z</time>
      </trkpt>
      <trkpt lat="47.50476" lon="6.77471">
        <ele>313</ele>
        <time>2016-05-29T09:52:05.000Z</time>
      </trkpt>
      <trkpt lat="47.50481" lon="6.77473">
        <ele>313</ele>
        <time>2016-05-29T09:52:06.000Z</time>
      </trkpt>
      <trkpt lat="47.50485" lon="6.77476">
        <ele>313</ele>
        <time>2016-05-29T09:52:07.000Z</time>
      </trkpt>
      <trkpt lat="47.50488" lon="6.77479">
        <ele>313</ele>
        <time>2016-05-29T09:52:08.000Z</time>
      </trkpt>
      <trkpt lat="47.50493" lon="6.77482">
        <ele>313</ele>
        <time>2016-05-29T09:52:09.000Z</time>
      </trkpt>
      <trkpt lat="47.50497" lon="6.77487">
        <ele>313</ele>
        <time>2016-05-29T09:52:10.001Z</time>
      </trkpt>
      <trkpt lat="47.50501" lon="6.77491">
        <ele>314</ele>
        <time>2016-05-29T09:52:11.000Z</time>
      </trkpt>
      <trkpt lat="47.50505" lon="6.77496">
        <ele>314</ele>
        <time>2016-05-29T09:52:12.000Z</time>
      </trkpt>
      <trkpt lat="47.5051" lon="6.77499">
        <ele>314</ele>
        <time>2016-05-29T09:52:13.000Z</time>
      </trkpt>
      <trkpt lat="47.50514" lon="6.77502">
        <ele>314</ele>
        <time>2016-05-29T09:52:14.000Z</time>
      </trkpt>
      <trkpt lat="47.50518" lon="6.77505">
        <ele>314</ele>
        <time>2016-05-29T09:52:15.000Z</time>
      </trkpt>
      <trkpt lat="47.50522" lon="6.77508">
        <ele>314</ele>
        <time>2016-05-29T09:52:16.000Z</time>
      </trkpt>
      <trkpt lat="47.50528" lon="6.7751">
        <ele>314</ele>
        <time>2016-05-29T09:52:17.000Z</time>
      </trkpt>
      <trkpt lat="47.50532" lon="6.77512">
        <ele>313</ele>
        <time>2016-05-29T09:52:18.000Z</time>
      </trkpt>
      <trkpt lat="47.50536" lon="6.77514">
        <ele>313</ele>
        <time>2016-05-29T09:52:18.999Z</time>
      </trkpt>
      <trkpt lat="47.50542" lon="6.7752">
        <ele>313</ele>
        <time>2016-05-29T09:52:20.000Z</time>
      </trkpt>
      <trkpt lat="47.50547" lon="6.77525">
        <ele>313</ele>
        <time>2016-05-29T09:52:20.999Z</time>
      </trkpt>
      <trkpt lat="47.50549" lon="6.77527">
        <ele>313</ele>
        <time>2016-05-29T09:52:22.000Z</time>
      </trkpt>
      <trkpt lat="47.50552" lon="6.77532">
        <ele>313</ele>
        <time>2016-05-29T09:52:23.000Z</time>
      </trkpt>
      <trkpt lat="47.50555" lon="6.77537">
        <ele>313</ele>
        <time>2016-05-29T09:52:24.000Z</time>
      </trkpt>
      <trkpt lat="47.50558" lon="6.77541">
        <ele>313</ele>
        <time>2016-05-29T09:52:25.000Z</time>
      </trkpt>
      <trkpt lat="47.50561" lon="6.77544">
        <ele>313</ele>
        <time>2016-05-29T09:52:26.000Z</time>
      </trkpt>
      <trkpt lat="47.50564" lon="6.77547">
        <ele>313</ele>
        <time>2016-05-29T09:52:27.000Z</time>
      </trkpt>
      <trkpt lat="47.50568" lon="6.77549">
        <ele>313</ele>
        <time>2016-05-29T09:52:28.001Z</time>
      </trkpt>
      <trkpt lat="47.50571" lon="6.77551">
        <ele>313</ele>
        <time>2016-05-29T09:52:29.001Z</time>
      </trkpt>
      <trkpt lat="47.50576" lon="6.77552">
        <ele>313</ele>
        <time>2016-05-29T09:52:30.000Z</time>
      </trkpt>
      <trkpt lat="47.5058" lon="6.77539">
        <ele>313</ele>
        <time>2016-05-29T09:52:31.000Z</time>
      </trkpt>
      <trkpt lat="47.50582" lon="6.77537">
        <ele>313</ele>
        <time>2016-05-29T09:52:32.000Z</time>
      </trkpt>
      <trkpt lat="47.50584" lon="6.77535">
        <ele>313</ele>
        <time>2016-05-29T09:52:33.000Z</time>
      </trkpt>
      <trkpt lat="47.50588" lon="6.7753">
        <ele>313</ele>
        <time>2016-05-29T09:52:35.000Z</time>
      </trkpt>
      <trkpt lat="47.5059" lon="6.77529">
        <ele>313</ele>
        <time>2016-05-29T09:52:36.000Z</time>
      </trkpt>
      <trkpt lat="47.50593" lon="6.77529">
        <ele>313</ele>
        <time>2016-05-29T09:52:37.000Z</time>
      </trkpt>
      <trkpt lat="47.50595" lon="6.77529">
        <ele>313</ele>
        <time>2016-05-29T09:52:38.000Z</time>
      </trkpt>
      <trkpt lat="47.50599" lon="6.77528">
        <ele>313</ele>
        <time>2016-05-29T09:52:40.000Z</time>
      </trkpt>
      <trkpt lat="47.50601" lon="6.77528">
        <ele>313</ele>
        <time>2016-05-29T09:52:41.000Z</time>
      </trkpt>
      <trkpt lat="47.50605" lon="6.77526">
        <ele>313</ele>
        <time>2016-05-29T09:52:43.000Z</time>
      </trkpt>
      <trkpt lat="47.50608" lon="6.77525">
        <ele>313</ele>
        <time>2016-05-29T09:52:44.000Z</time>
      </trkpt>
      <trkpt lat="47.50612" lon="6.77526">
        <ele>313</ele>
        <time>2016-05-29T09:52:45.000Z</time>
      </trkpt>
      <trkpt lat="47.50616" lon="6.77527">
        <ele>313</ele>
        <time>2016-05-29T09:52:46.000Z</time>
      </trkpt>
      <trkpt lat="47.5062" lon="6.77528">
        <ele>313</ele>
        <time>2016-05-29T09:52:47.000Z</time>
      </trkpt>
      <trkpt lat="47.50624" lon="6.77529">
        <ele>313</ele>
        <time>2016-05-29T09:52:48.000Z</time>
      </trkpt>
      <trkpt lat="47.50637" lon="6.77537">
        <ele>313</ele>
        <time>2016-05-29T09:52:49.000Z</time>
      </trkpt>
      <trkpt lat="47.50643" lon="6.77537">
        <ele>313</ele>
        <time>2016-05-29T09:52:50.000Z</time>
      </trkpt>
      <trkpt lat="47.50648" lon="6.77539">
        <ele>313</ele>
        <time>2016-05-29T09:52:51.000Z</time>
      </trkpt>
      <trkpt lat="47.50653" lon="6.77539">
        <ele>313</ele>
        <time>2016-05-29T09:52:52.000Z</time>
      </trkpt>
      <trkpt lat="47.50659" lon="6.7754">
        <ele>313</ele>
        <time>2016-05-29T09:52:53.000Z</time>
      </trkpt>
      <trkpt lat="47.50664" lon="6.77538">
        <ele>313</ele>
        <time>2016-05-29T09:52:54.000Z</time>
      </trkpt>
      <trkpt lat="47.50666" lon="6.77537">
        <ele>313</ele>
        <time>2016-05-29T09:52:55.000Z</time>
      </trkpt>
      <trkpt lat="47.5067" lon="6.77536">
        <ele>313</ele>
        <time>2016-05-29T09:52:56.000Z</time>
      </trkpt>
      <trkpt lat="47.50674" lon="6.77535">
        <ele>313</ele>
        <time>2016-05-29T09:52:57.000Z</time>
      </trkpt>
      <trkpt lat="47.50678" lon="6.77536">
        <ele>313</ele>
        <time>2016-05-29T09:52:58.000Z</time>
      </trkpt>
      <trkpt lat="47.50682" lon="6.77536">
        <ele>313</ele>
        <time>2016-05-29T09:52:59.000Z</time>
      </trkpt>
      <trkpt lat="47.50685" lon="6.77537">
        <ele>313</ele>
        <time>2016-05-29T09:53:00.000Z</time>
      </trkpt>
      <trkpt lat="47.50689" lon="6.77538">
        <ele>313</ele>
        <time>2016-05-29T09:53:01.000Z</time>
      </trkpt>
      <trkpt lat="47.50693" lon="6.77541">
        <ele>313</ele>
        <time>2016-05-29T09:53:02.000Z</time>
      </trkpt>
      <trkpt lat="47.50697" lon="6.77543">
        <ele>313</ele>
        <time>2016-05-29T09:53:03.000Z</time>
      </trkpt>
      <trkpt lat="47.50699" lon="6.77545">
        <ele>313</ele>
        <time>2016-05-29T09:53:04.000Z</time>
      </trkpt>
      <trkpt lat="47.50702" lon="6.77546">
        <ele>313</ele>
        <time>2016-05-29T09:53:05.000Z</time>
      </trkpt>
      <trkpt lat="47.50706" lon="6.77547">
        <ele>313</ele>
        <time>2016-05-29T09:53:06.000Z</time>
      </trkpt>
      <trkpt lat="47.5071" lon="6.77548">
        <ele>313</ele>
        <time>2016-05-29T09:53:07.000Z</time>
      </trkpt>
      <trkpt lat="47.50714" lon="6.77548">
        <ele>313</ele>
        <time>2016-05-29T09:53:08.000Z</time>
      </trkpt>
      <trkpt lat="47.50718" lon="6.77548">
        <ele>313</ele>
        <time>2016-05-29T09:53:09.000Z</time>
      </trkpt>
      <trkpt lat="47.50721" lon="6.77548">
        <ele>313</ele>
        <time>2016-05-29T09:53:10.000Z</time>
      </trkpt>
      <trkpt lat="47.50726" lon="6.77549">
        <ele>313</ele>
        <time>2016-05-29T09:53:11.000Z</time>
      </trkpt>
      <trkpt lat="47.5073" lon="6.7755">
        <ele>313</ele>
        <time>2016-05-29T09:53:12.000Z</time>
      </trkpt>
      <trkpt lat="47.50734" lon="6.77551">
        <ele>313</ele>
        <time>2016-05-29T09:53:13.000Z</time>
      </trkpt>
      <trkpt lat="47.50738" lon="6.77553">
        <ele>313</ele>
        <time>2016-05-29T09:53:14.000Z</time>
      </trkpt>
      <trkpt lat="47.50742" lon="6.77556">
        <ele>313</ele>
        <time>2016-05-29T09:53:15.000Z</time>
      </trkpt>
      <trkpt lat="47.50746" lon="6.77558">
        <ele>313</ele>
        <time>2016-05-29T09:53:16.000Z</time>
      </trkpt>
      <trkpt lat="47.50751" lon="6.77562">
        <ele>314</ele>
        <time>2016-05-29T09:53:17.000Z</time>
      </trkpt>
      <trkpt lat="47.50756" lon="6.77566">
        <ele>314</ele>
        <time>2016-05-29T09:53:18.000Z</time>
      </trkpt>
      <trkpt lat="47.50761" lon="6.77569">
        <ele>314</ele>
        <time>2016-05-29T09:53:19.000Z</time>
      </trkpt>
      <trkpt lat="47.50765" lon="6.77571">
        <ele>314</ele>
        <time>2016-05-29T09:53:20.000Z</time>
      </trkpt>
      <trkpt lat="47.50768" lon="6.77573">
        <ele>314</ele>
        <time>2016-05-29T09:53:21.000Z</time>
      </trkpt>
      <trkpt lat="47.50772" lon="6.77575">
        <ele>314</ele>
        <time>2016-05-29T09:53:22.000Z</time>
      </trkpt>
      <trkpt lat="47.50776" lon="6.77579">
        <ele>314</ele>
        <time>2016-05-29T09:53:23.000Z</time>
      </trkpt>
      <trkpt lat="47.50786" lon="6.77588">
        <ele>315</ele>
        <time>2016-05-29T09:53:24.000Z</time>
      </trkpt>
      <trkpt lat="47.50789" lon="6.77591">
        <ele>315</ele>
        <time>2016-05-29T09:53:25.000Z</time>
      </trkpt>
      <trkpt lat="47.50792" lon="6.77595">
        <ele>315</ele>
        <time>2016-05-29T09:53:26.000Z</time>
      </trkpt>
      <trkpt lat="47.50799" lon="6.77601">
        <ele>315</ele>
        <time>2016-05-29T09:53:27.000Z</time>
      </trkpt>
      <trkpt lat="47.50808" lon="6.77609">
        <ele>315</ele>
        <time>2016-05-29T09:53:28.000Z</time>
      </trkpt>
      <trkpt lat="47.50813" lon="6.77617">
        <ele>316</ele>
        <time>2016-05-29T09:53:29.000Z</time>
      </trkpt>
      <trkpt lat="47.50817" lon="6.77621">
        <ele>316</ele>
        <time>2016-05-29T09:53:30.000Z</time>
      </trkpt>
      <trkpt lat="47.50823" lon="6.77622">
        <ele>316</ele>
        <time>2016-05-29T09:53:31.000Z</time>
      </trkpt>
      <trkpt lat="47.50827" lon="6.77627">
        <ele>316</ele>
        <time>2016-05-29T09:53:32.000Z</time>
      </trkpt>
      <trkpt lat="47.50831" lon="6.77632">
        <ele>316</ele>
        <time>2016-05-29T09:53:33.000Z</time>
      </trkpt>
      <trkpt lat="47.50834" lon="6.77636">
        <ele>317</ele>
        <time>2016-05-29T09:53:34.000Z</time>
      </trkpt>
      <trkpt lat="47.50838" lon="6.77641">
        <ele>317</ele>
        <time>2016-05-29T09:53:35.000Z</time>
      </trkpt>
      <trkpt lat="47.50842" lon="6.77645">
        <ele>317</ele>
        <time>2016-05-29T09:53:36.000Z</time>
      </trkpt>
      <trkpt lat="47.50846" lon="6.7765">
        <ele>317</ele>
        <time>2016-05-29T09:53:37.000Z</time>
      </trkpt>
      <trkpt lat="47.50851" lon="6.77657">
        <ele>317</ele>
        <time>2016-05-29T09:53:38.000Z</time>
      </trkpt>
      <trkpt lat="47.50855" lon="6.77662">
        <ele>317</ele>
        <time>2016-05-29T09:53:39.000Z</time>
      </trkpt>
      <trkpt lat="47.50859" lon="6.77667">
        <ele>316</ele>
        <time>2016-05-29T09:53:40.000Z</time>
      </trkpt>
      <trkpt lat="47.50862" lon="6.77673">
        <ele>316</ele>
        <time>2016-05-29T09:53:41.000Z</time>
      </trkpt>
      <trkpt lat="47.50865" lon="6.77678">
        <ele>316</ele>
        <time>2016-05-29T09:53:42.000Z</time>
      </trkpt>
      <trkpt lat="47.50869" lon="6.77682">
        <ele>316</ele>
        <time>2016-05-29T09:53:43.000Z</time>
      </trkpt>
      <trkpt lat="47.50872" lon="6.77685">
        <ele>316</ele>
        <time>2016-05-29T09:53:44.000Z</time>
      </trkpt>
      <trkpt lat="47.50875" lon="6.77689">
        <ele>316</ele>
        <time>2016-05-29T09:53:45.000Z</time>
      </trkpt>
      <trkpt lat="47.50879" lon="6.77693">
        <ele>316</ele>
        <time>2016-05-29T09:53:46.000Z</time>
      </trkpt>
      <trkpt lat="47.50883" lon="6.77696">
        <ele>316</ele>
        <time>2016-05-29T09:53:47.000Z</time>
      </trkpt>
      <trkpt lat="47.50887" lon="6.77697">
        <ele>316</ele>
        <time>2016-05-29T09:53:48.000Z</time>
      </trkpt>
      <trkpt lat="47.50892" lon="6.77698">
        <ele>316</ele>
        <time>2016-05-29T09:53:49.000Z</time>
      </trkpt>
      <trkpt lat="47.50896" lon="6.77697">
        <ele>316</ele>
        <time>2016-05-29T09:53:50.000Z</time>
      </trkpt>
      <trkpt lat="47.50901" lon="6.77697">
        <ele>316</ele>
        <time>2016-05-29T09:53:51.000Z</time>
      </trkpt>
      <trkpt lat="47.50905" lon="6.77696">
        <ele>316</ele>
        <time>2016-05-29T09:53:52.000Z</time>
      </trkpt>
      <trkpt lat="47.50909" lon="6.77697">
        <ele>316</ele>
        <time>2016-05-29T09:53:53.000Z</time>
      </trkpt>
      <trkpt lat="47.50914" lon="6.77697">
        <ele>316</ele>
        <time>2016-05-29T09:53:54.000Z</time>
      </trkpt>
      <trkpt lat="47.50918" lon="6.77697">
        <ele>315</ele>
        <time>2016-05-29T09:53:55.000Z</time>
      </trkpt>
      <trkpt lat="47.50922" lon="6.77697">
        <ele>315</ele>
        <time>2016-05-29T09:53:56.000Z</time>
      </trkpt>
      <trkpt lat="47.50926" lon="6.77697">
        <ele>315</ele>
        <time>2016-05-29T09:53:57.000Z</time>
      </trkpt>
      <trkpt lat="47.5093" lon="6.77698">
        <ele>315</ele>
        <time>2016-05-29T09:53:58.000Z</time>
      </trkpt>
      <trkpt lat="47.50933" lon="6.77698">
        <ele>315</ele>
        <time>2016-05-29T09:53:59.000Z</time>
      </trkpt>
      <trkpt lat="47.50936" lon="6.77698">
        <ele>315</ele>
        <time>2016-05-29T09:54:00.000Z</time>
      </trkpt>
      <trkpt lat="47.50938" lon="6.77697">
        <ele>315</ele>
        <time>2016-05-29T09:54:01.000Z</time>
      </trkpt>
      <trkpt lat="47.5094" lon="6.77699">
        <ele>315</ele>
        <time>2016-05-29T09:54:17.000Z</time>
      </trkpt>
      <trkpt lat="47.50942" lon="6.77699">
        <ele>315</ele>
        <time>2016-05-29T09:54:18.000Z</time>
      </trkpt>
      <trkpt lat="47.50945" lon="6.77699">
        <ele>315</ele>
        <time>2016-05-29T09:54:20.000Z</time>
      </trkpt>
      <trkpt lat="47.50947" lon="6.77698">
        <ele>315</ele>
        <time>2016-05-29T09:54:21.000Z</time>
      </trkpt>
      <trkpt lat="47.5095" lon="6.77697">
        <ele>315</ele>
        <time>2016-05-29T09:54:22.000Z</time>
      </trkpt>
      <trkpt lat="47.50952" lon="6.77695">
        <ele>315</ele>
        <time>2016-05-29T09:54:23.000Z</time>
      </trkpt>
      <trkpt lat="47.50955" lon="6.77693">
        <ele>315</ele>
        <time>2016-05-29T09:54:24.000Z</time>
      </trkpt>
      <trkpt lat="47.50958" lon="6.77694">
        <ele>315</ele>
        <time>2016-05-29T09:54:25.000Z</time>
      </trkpt>
      <trkpt lat="47.50962" lon="6.77695">
        <ele>315</ele>
        <time>2016-05-29T09:54:26.000Z</time>
      </trkpt>
      <trkpt lat="47.50966" lon="6.77697">
        <ele>315</ele>
        <time>2016-05-29T09:54:27.000Z</time>
      </trkpt>
      <trkpt lat="47.5097" lon="6.777">
        <ele>315</ele>
        <time>2016-05-29T09:54:28.000Z</time>
      </trkpt>
      <trkpt lat="47.50975" lon="6.77703">
        <ele>315</ele>
        <time>2016-05-29T09:54:29.000Z</time>
      </trkpt>
      <trkpt lat="47.50979" lon="6.77706">
        <ele>315</ele>
        <time>2016-05-29T09:54:30.000Z</time>
      </trkpt>
      <trkpt lat="47.50983" lon="6.77709">
        <ele>315</ele>
        <time>2016-05-29T09:54:31.000Z</time>
      </trkpt>
      <trkpt lat="47.50987" lon="6.77712">
        <ele>315</ele>
        <time>2016-05-29T09:54:32.000Z</time>
      </trkpt>
      <trkpt lat="47.50991" lon="6.77715">
        <ele>315</ele>
        <time>2016-05-29T09:54:33.000Z</time>
      </trkpt>
      <trkpt lat="47.50995" lon="6.77717">
        <ele>315</ele>
        <time>2016-05-29T09:54:34.000Z</time>
      </trkpt>
      <trkpt lat="47.50998" lon="6.7772">
        <ele>315</ele>
        <time>2016-05-29T09:54:35.000Z</time>
      </trkpt>
      <trkpt lat="47.51002" lon="6.77723">
        <ele>316</ele>
        <time>2016-05-29T09:54:36.000Z</time>
      </trkpt>
      <trkpt lat="47.51005" lon="6.77725">
        <ele>316</ele>
        <time>2016-05-29T09:54:37.000Z</time>
      </trkpt>
      <trkpt lat="47.51008" lon="6.77728">
        <ele>316</ele>
        <time>2016-05-29T09:54:38.000Z</time>
      </trkpt>
      <trkpt lat="47.51011" lon="6.77731">
        <ele>317</ele>
        <time>2016-05-29T09:54:39.000Z</time>
      </trkpt>
      <trkpt lat="47.51014" lon="6.77734">
        <ele>317</ele>
        <time>2016-05-29T09:54:40.000Z</time>
      </trkpt>
      <trkpt lat="47.51018" lon="6.77736">
        <ele>317</ele>
        <time>2016-05-29T09:54:41.000Z</time>
      </trkpt>
      <trkpt lat="47.51021" lon="6.77739">
        <ele>317</ele>
        <time>2016-05-29T09:54:42.000Z</time>
      </trkpt>
      <trkpt lat="47.51025" lon="6.77742">
        <ele>317</ele>
        <time>2016-05-29T09:54:44.000Z</time>
      </trkpt>
      <trkpt lat="47.51026" lon="6.77744">
        <ele>317</ele>
        <time>2016-05-29T09:54:45.000Z</time>
      </trkpt>
      <trkpt lat="47.51029" lon="6.77747">
        <ele>317</ele>
        <time>2016-05-29T09:54:47.000Z</time>
      </trkpt>
      <trkpt lat="47.51033" lon="6.77751">
        <ele>318</ele>
        <time>2016-05-29T09:54:48.000Z</time>
      </trkpt>
      <trkpt lat="47.51037" lon="6.77754">
        <ele>318</ele>
        <time>2016-05-29T09:54:49.000Z</time>
      </trkpt>
      <trkpt lat="47.5104" lon="6.77756">
        <ele>318</ele>
        <time>2016-05-29T09:54:50.000Z</time>
      </trkpt>
      <trkpt lat="47.51043" lon="6.77758">
        <ele>318</ele>
        <time>2016-05-29T09:54:51.000Z</time>
      </trkpt>
      <trkpt lat="47.51045" lon="6.7776">
        <ele>318</ele>
        <time>2016-05-29T09:54:52.000Z</time>
      </trkpt>
      <trkpt lat="47.51048" lon="6.77762">
        <ele>318</ele>
        <time>2016-05-29T09:54:53.000Z</time>
      </trkpt>
      <trkpt lat="47.51051" lon="6.77764">
        <ele>318</ele>
        <time>2016-05-29T09:54:54.000Z</time>
      </trkpt>
      <trkpt lat="47.51055" lon="6.77766">
        <ele>318</ele>
        <time>2016-05-29T09:54:55.000Z</time>
      </trkpt>
      <trkpt lat="47.51059" lon="6.77767">
        <ele>318</ele>
        <time>2016-05-29T09:54:56.000Z</time>
      </trkpt>
      <trkpt lat="47.51063" lon="6.77768">
        <ele>318</ele>
        <time>2016-05-29T09:54:57.000Z</time>
      </trkpt>
      <trkpt lat="47.51066" lon="6.77769">
        <ele>319</ele>
        <time>2016-05-29T09:54:58.000Z</time>
      </trkpt>
      <trkpt lat="47.5107" lon="6.77769">
        <ele>319</ele>
        <time>2016-05-29T09:54:59.000Z</time>
      </trkpt>
      <trkpt lat="47.51073" lon="6.77769">
        <ele>319</ele>
        <time>2016-05-29T09:55:00.000Z</time>
      </trkpt>
      <trkpt lat="47.51075" lon="6.77769">
        <ele>319</ele>
        <time>2016-05-29T09:55:01.000Z</time>
      </trkpt>
      <trkpt lat="47.51079" lon="6.77767">
        <ele>319</ele>
        <time>2016-05-29T09:55:03.000Z</time>
      </trkpt>
      <trkpt lat="47.51082" lon="6.77768">
        <ele>319</ele>
        <time>2016-05-29T09:55:04.000Z</time>
      </trkpt>
      <trkpt lat="47.51085" lon="6.77769">
        <ele>321</ele>
        <time>2016-05-29T09:55:05.000Z</time>
      </trkpt>
      <trkpt lat="47.5109" lon="6.77771">
        <ele>321</ele>
        <time>2016-05-29T09:55:06.000Z</time>
      </trkpt>
      <trkpt lat="47.51094" lon="6.77772">
        <ele>321</ele>
        <time>2016-05-29T09:55:07.000Z</time>
      </trkpt>
      <trkpt lat="47.51099" lon="6.77774">
        <ele>321</ele>
        <time>2016-05-29T09:55:08.000Z</time>
      </trkpt>
      <trkpt lat="47.51104" lon="6.77775">
        <ele>322</ele>
        <time>2016-05-29T09:55:09.000Z</time>
      </trkpt>
      <trkpt lat="47.51109" lon="6.77777">
        <ele>322</ele>
        <time>2016-05-29T09:55:10.000Z</time>
      </trkpt>
      <trkpt lat="47.51113" lon="6.77778">
        <ele>322</ele>
        <time>2016-05-29T09:55:11.000Z</time>
      </trkpt>
      <trkpt lat="47.51117" lon="6.7778">
        <ele>322</ele>
        <time>2016-05-29T09:55:12.000Z</time>
      </trkpt>
      <trkpt lat="47.51121" lon="6.77781">
        <ele>322</ele>
        <time>2016-05-29T09:55:13.000Z</time>
      </trkpt>
      <trkpt lat="47.51125" lon="6.77782">
        <ele>322</ele>
        <time>2016-05-29T09:55:14.000Z</time>
      </trkpt>
      <trkpt lat="47.51128" lon="6.77782">
        <ele>322</ele>
        <time>2016-05-29T09:55:15.000Z</time>
      </trkpt>
      <trkpt lat="47.51131" lon="6.77782">
        <ele>322</ele>
        <time>2016-05-29T09:55:16.000Z</time>
      </trkpt>
      <trkpt lat="47.51134" lon="6.77783">
        <ele>322</ele>
        <time>2016-05-29T09:55:17.000Z</time>
      </trkpt>
      <trkpt lat="47.51137" lon="6.77783">
        <ele>323</ele>
        <time>2016-05-29T09:55:18.000Z</time>
      </trkpt>
      <trkpt lat="47.5114" lon="6.77784">
        <ele>323</ele>
        <time>2016-05-29T09:55:19.000Z</time>
      </trkpt>
      <trkpt lat="47.51143" lon="6.77785">
        <ele>323</ele>
        <time>2016-05-29T09:55:20.000Z</time>
      </trkpt>
      <trkpt lat="47.51146" lon="6.77786">
        <ele>323</ele>
        <time>2016-05-29T09:55:21.000Z</time>
      </trkpt>
      <trkpt lat="47.51149" lon="6.77787">
        <ele>323</ele>
        <time>2016-05-29T09:55:22.000Z</time>
      </trkpt>
      <trkpt lat="47.51152" lon="6.77787">
        <ele>323</ele>
        <time>2016-05-29T09:55:23.000Z</time>
      </trkpt>
      <trkpt lat="47.51155" lon="6.77787">
        <ele>323</ele>
        <time>2016-05-29T09:55:24.000Z</time>
      </trkpt>
      <trkpt lat="47.51158" lon="6.77787">
        <ele>323</ele>
        <time>2016-05-29T09:55:25.000Z</time>
      </trkpt>
      <trkpt lat="47.5116" lon="6.77787">
        <ele>323</ele>
        <time>2016-05-29T09:55:26.000Z</time>
      </trkpt>
      <trkpt lat="47.51163" lon="6.77787">
        <ele>323</ele>
        <time>2016-05-29T09:55:27.000Z</time>
      </trkpt>
      <trkpt lat="47.51166" lon="6.77787">
        <ele>323</ele>
        <time>2016-05-29T09:55:28.000Z</time>
      </trkpt>
      <trkpt lat="47.51169" lon="6.77787">
        <ele>326</ele>
        <time>2016-05-29T09:55:29.000Z</time>
      </trkpt>
      <trkpt lat="47.51173" lon="6.77788">
        <ele>326</ele>
        <time>2016-05-29T09:55:29.999Z</time>
      </trkpt>
      <trkpt lat="47.51177" lon="6.77788">
        <ele>326</ele>
        <time>2016-05-29T09:55:31.000Z</time>
      </trkpt>
      <trkpt lat="47.5118" lon="6.77788">
        <ele>326</ele>
        <time>2016-05-29T09:55:32.000Z</time>
      </trkpt>
      <trkpt lat="47.51184" lon="6.77787">
        <ele>326</ele>
        <time>2016-05-29T09:55:33.000Z</time>
      </trkpt>
      <trkpt lat="47.51187" lon="6.77785">
        <ele>326</ele>
        <time>2016-05-29T09:55:34.000Z</time>
      </trkpt>
      <trkpt lat="47.51189" lon="6.77784">
        <ele>326</ele>
        <time>2016-05-29T09:55:35.000Z</time>
      </trkpt>
      <trkpt lat="47.51193" lon="6.77782">
        <ele>326</ele>
        <time>2016-05-29T09:55:37.000Z</time>
      </trkpt>
      <trkpt lat="47.51195" lon="6.77782">
        <ele>327</ele>
        <time>2016-05-29T09:55:38.000Z</time>
      </trkpt>
      <trkpt lat="47.51199" lon="6.77781">
        <ele>327</ele>
        <time>2016-05-29T09:55:39.999Z</time>
      </trkpt>
      <trkpt lat="47.51201" lon="6.77782">
        <ele>327</ele>
        <time>2016-05-29T09:55:41.000Z</time>
      </trkpt>
      <trkpt lat="47.51205" lon="6.77782">
        <ele>327</ele>
        <time>2016-05-29T09:55:43.999Z</time>
      </trkpt>
      <trkpt lat="47.51207" lon="6.77782">
        <ele>327</ele>
        <time>2016-05-29T09:55:45.000Z</time>
      </trkpt>
      <trkpt lat="47.5121" lon="6.77782">
        <ele>327</ele>
        <time>2016-05-29T09:55:47.000Z</time>
      </trkpt>
      <trkpt lat="47.51211" lon="6.77781">
        <ele>327</ele>
        <time>2016-05-29T09:55:48.000Z</time>
      </trkpt>
      <trkpt lat="47.51215" lon="6.77781">
        <ele>327</ele>
        <time>2016-05-29T09:55:50.000Z</time>
      </trkpt>
      <trkpt lat="47.51217" lon="6.7778">
        <ele>327</ele>
        <time>2016-05-29T09:55:51.000Z</time>
      </trkpt>
      <trkpt lat="47.51222" lon="6.77778">
        <ele>327</ele>
        <time>2016-05-29T09:55:53.000Z</time>
      </trkpt>
      <trkpt lat="47.51224" lon="6.77777">
        <ele>327</ele>
        <time>2016-05-29T09:55:54.000Z</time>
      </trkpt>
      <trkpt lat="47.51227" lon="6.77775">
        <ele>328</ele>
        <time>2016-05-29T09:55:56.000Z</time>
      </trkpt>
      <trkpt lat="47.51229" lon="6.77775">
        <ele>328</ele>
        <time>2016-05-29T09:55:57.000Z</time>
      </trkpt>
      <trkpt lat="47.51233" lon="6.77775">
        <ele>328</ele>
        <time>2016-05-29T09:55:59.000Z</time>
      </trkpt>
      <trkpt lat="47.51235" lon="6.77776">
        <ele>328</ele>
        <time>2016-05-29T09:56:00.000Z</time>
      </trkpt>
      <trkpt lat="47.51239" lon="6.77778">
        <ele>328</ele>
        <time>2016-05-29T09:56:02.000Z</time>
      </trkpt>
      <trkpt lat="47.51241" lon="6.77779">
        <ele>328</ele>
        <time>2016-05-29T09:56:03.000Z</time>
      </trkpt>
      <trkpt lat="47.51244" lon="6.77779">
        <ele>328</ele>
        <time>2016-05-29T09:56:05.000Z</time>
      </trkpt>
      <trkpt lat="47.51246" lon="6.7778">
        <ele>328</ele>
        <time>2016-05-29T09:56:06.000Z</time>
      </trkpt>
      <trkpt lat="47.51249" lon="6.77782">
        <ele>328</ele>
        <time>2016-05-29T09:56:08.000Z</time>
      </trkpt>
      <trkpt lat="47.5125" lon="6.77782">
        <ele>333</ele>
        <time>2016-05-29T09:56:09.000Z</time>
      </trkpt>
      <trkpt lat="47.51254" lon="6.77782">
        <ele>334</ele>
        <time>2016-05-29T09:56:11.000Z</time>
      </trkpt>
      <trkpt lat="47.51256" lon="6.77781">
        <ele>334</ele>
        <time>2016-05-29T09:56:12.000Z</time>
      </trkpt>
      <trkpt lat="47.51259" lon="6.77781">
        <ele>334</ele>
        <time>2016-05-29T09:56:14.000Z</time>
      </trkpt>
      <trkpt lat="47.5126" lon="6.77781">
        <ele>334</ele>
        <time>2016-05-29T09:56:15.000Z</time>
      </trkpt>
      <trkpt lat="47.51264" lon="6.77781">
        <ele>334</ele>
        <time>2016-05-29T09:56:18.000Z</time>
      </trkpt>
      <trkpt lat="47.51266" lon="6.77781">
        <ele>334</ele>
        <time>2016-05-29T09:56:19.000Z</time>
      </trkpt>
      <trkpt lat="47.5127" lon="6.77782">
        <ele>334</ele>
        <time>2016-05-29T09:56:22.000Z</time>
      </trkpt>
      <trkpt lat="47.51271" lon="6.77782">
        <ele>335</ele>
        <time>2016-05-29T09:56:23.000Z</time>
      </trkpt>
      <trkpt lat="47.51275" lon="6.77781">
        <ele>335</ele>
        <time>2016-05-29T09:56:25.000Z</time>
      </trkpt>
      <trkpt lat="47.51277" lon="6.7778">
        <ele>335</ele>
        <time>2016-05-29T09:56:26.000Z</time>
      </trkpt>
      <trkpt lat="47.5128" lon="6.77779">
        <ele>335</ele>
        <time>2016-05-29T09:56:28.000Z</time>
      </trkpt>
      <trkpt lat="47.51282" lon="6.77779">
        <ele>335</ele>
        <time>2016-05-29T09:56:29.000Z</time>
      </trkpt>
      <trkpt lat="47.51286" lon="6.77778">
        <ele>336</ele>
        <time>2016-05-29T09:56:31.000Z</time>
      </trkpt>
      <trkpt lat="47.51288" lon="6.77778">
        <ele>336</ele>
        <time>2016-05-29T09:56:32.000Z</time>
      </trkpt>
      <trkpt lat="47.51292" lon="6.77778">
        <ele>336</ele>
        <time>2016-05-29T09:56:34.000Z</time>
      </trkpt>
      <trkpt lat="47.51293" lon="6.77778">
        <ele>336</ele>
        <time>2016-05-29T09:56:35.000Z</time>
      </trkpt>
      <trkpt lat="47.51297" lon="6.77777">
        <ele>337</ele>
        <time>2016-05-29T09:56:37.000Z</time>
      </trkpt>
      <trkpt lat="47.51299" lon="6.77776">
        <ele>337</ele>
        <time>2016-05-29T09:56:38.000Z</time>
      </trkpt>
      <trkpt lat="47.51302" lon="6.77776">
        <ele>337</ele>
        <time>2016-05-29T09:56:40.000Z</time>
      </trkpt>
      <trkpt lat="47.51304" lon="6.77776">
        <ele>337</ele>
        <time>2016-05-29T09:56:41.000Z</time>
      </trkpt>
      <trkpt lat="47.51308" lon="6.77776">
        <ele>338</ele>
        <time>2016-05-29T09:56:43.000Z</time>
      </trkpt>
      <trkpt lat="47.51309" lon="6.77775">
        <ele>338</ele>
        <time>2016-05-29T09:56:44.000Z</time>
      </trkpt>
      <trkpt lat="47.51313" lon="6.77774">
        <ele>338</ele>
        <time>2016-05-29T09:56:46.000Z</time>
      </trkpt>
      <trkpt lat="47.51315" lon="6.77774">
        <ele>338</ele>
        <time>2016-05-29T09:56:47.000Z</time>
      </trkpt>
      <trkpt lat="47.51318" lon="6.77775">
        <ele>339</ele>
        <time>2016-05-29T09:56:49.000Z</time>
      </trkpt>
      <trkpt lat="47.51319" lon="6.77775">
        <ele>339</ele>
        <time>2016-05-29T09:56:50.000Z</time>
      </trkpt>
      <trkpt lat="47.51322" lon="6.77773">
        <ele>339</ele>
        <time>2016-05-29T09:56:52.000Z</time>
      </trkpt>
      <trkpt lat="47.51323" lon="6.77771">
        <ele>339</ele>
        <time>2016-05-29T09:56:53.000Z</time>
      </trkpt>
      <trkpt lat="47.51327" lon="6.77772">
        <ele>339</ele>
        <time>2016-05-29T09:56:56.000Z</time>
      </trkpt>
      <trkpt lat="47.51328" lon="6.77773">
        <ele>339</ele>
        <time>2016-05-29T09:56:57.000Z</time>
      </trkpt>
      <trkpt lat="47.51332" lon="6.77776">
        <ele>339</ele>
        <time>2016-05-29T09:57:01.000Z</time>
      </trkpt>
      <trkpt lat="47.51333" lon="6.77776">
        <ele>339</ele>
        <time>2016-05-29T09:57:02.000Z</time>
      </trkpt>
      <trkpt lat="47.51336" lon="6.77778">
        <ele>348</ele>
        <time>2016-05-29T09:57:05.000Z</time>
      </trkpt>
      <trkpt lat="47.51337" lon="6.77779">
        <ele>348</ele>
        <time>2016-05-29T09:57:06.000Z</time>
      </trkpt>
      <trkpt lat="47.51341" lon="6.77782">
        <ele>348</ele>
        <time>2016-05-29T09:57:09.000Z</time>
      </trkpt>
      <trkpt lat="47.51342" lon="6.77783">
        <ele>348</ele>
        <time>2016-05-29T09:57:09.999Z</time>
      </trkpt>
      <trkpt lat="47.51345" lon="6.77781">
        <ele>349</ele>
        <time>2016-05-29T09:57:11.998Z</time>
      </trkpt>
      <trkpt lat="47.51347" lon="6.77778">
        <ele>348</ele>
        <time>2016-05-29T09:57:13.000Z</time>
      </trkpt>
      <trkpt lat="47.5135" lon="6.77774">
        <ele>348</ele>
        <time>2016-05-29T09:57:15.000Z</time>
      </trkpt>
      <trkpt lat="47.51351" lon="6.77772">
        <ele>349</ele>
        <time>2016-05-29T09:57:16.000Z</time>
      </trkpt>
      <trkpt lat="47.51354" lon="6.7777">
        <ele>349</ele>
        <time>2016-05-29T09:57:18.999Z</time>
      </trkpt>
      <trkpt lat="47.51355" lon="6.77769">
        <ele>349</ele>
        <time>2016-05-29T09:57:20.000Z</time>
      </trkpt>
      <trkpt lat="47.51359" lon="6.77766">
        <ele>349</ele>
        <time>2016-05-29T09:57:24.000Z</time>
      </trkpt>
      <trkpt lat="47.5136" lon="6.77765">
        <ele>349</ele>
        <time>2016-05-29T09:57:25.000Z</time>
      </trkpt>
      <trkpt lat="47.51363" lon="6.77764">
        <ele>350</ele>
        <time>2016-05-29T09:57:27.000Z</time>
      </trkpt>
      <trkpt lat="47.51365" lon="6.77763">
        <ele>350</ele>
        <time>2016-05-29T09:57:28.000Z</time>
      </trkpt>
      <trkpt lat="47.51369" lon="6.77762">
        <ele>350</ele>
        <time>2016-05-29T09:57:31.000Z</time>
      </trkpt>
      <trkpt lat="47.5137" lon="6.77761">
        <ele>350</ele>
        <time>2016-05-29T09:57:32.000Z</time>
      </trkpt>
      <trkpt lat="47.51372" lon="6.7776">
        <ele>351</ele>
        <time>2016-05-29T09:57:34.000Z</time>
      </trkpt>
      <trkpt lat="47.51374" lon="6.77759">
        <ele>351</ele>
        <time>2016-05-29T09:57:35.000Z</time>
      </trkpt>
      <trkpt lat="47.51378" lon="6.77757">
        <ele>351</ele>
        <time>2016-05-29T09:57:37.000Z</time>
      </trkpt>
      <trkpt lat="47.5138" lon="6.77756">
        <ele>351</ele>
        <time>2016-05-29T09:57:38.000Z</time>
      </trkpt>
      <trkpt lat="47.51382" lon="6.77754">
        <ele>352</ele>
        <time>2016-05-29T09:57:39.000Z</time>
      </trkpt>
      <trkpt lat="47.51384" lon="6.77752">
        <ele>352</ele>
        <time>2016-05-29T09:57:40.000Z</time>
      </trkpt>
      <trkpt lat="47.51387" lon="6.7775">
        <ele>352</ele>
        <time>2016-05-29T09:57:41.000Z</time>
      </trkpt>
      <trkpt lat="47.51389" lon="6.77749">
        <ele>355</ele>
        <time>2016-05-29T09:57:42.000Z</time>
      </trkpt>
      <trkpt lat="47.51392" lon="6.77748">
        <ele>355</ele>
        <time>2016-05-29T09:57:44.000Z</time>
      </trkpt>
      <trkpt lat="47.51394" lon="6.77748">
        <ele>355</ele>
        <time>2016-05-29T09:57:45.000Z</time>
      </trkpt>
      <trkpt lat="47.51398" lon="6.77748">
        <ele>355</ele>
        <time>2016-05-29T09:57:47.000Z</time>
      </trkpt>
      <trkpt lat="47.51399" lon="6.77747">
        <ele>356</ele>
        <time>2016-05-29T09:57:48.000Z</time>
      </trkpt>
      <trkpt lat="47.51403" lon="6.77746">
        <ele>356</ele>
        <time>2016-05-29T09:57:51.000Z</time>
      </trkpt>
      <trkpt lat="47.51404" lon="6.77745">
        <ele>356</ele>
        <time>2016-05-29T09:57:52.000Z</time>
      </trkpt>
      <trkpt lat="47.51407" lon="6.77742">
        <ele>356</ele>
        <time>2016-05-29T09:57:54.000Z</time>
      </trkpt>
      <trkpt lat="47.51409" lon="6.77741">
        <ele>356</ele>
        <time>2016-05-29T09:57:55.000Z</time>
      </trkpt>
      <trkpt lat="47.51413" lon="6.7774">
        <ele>356</ele>
        <time>2016-05-29T09:57:57.000Z</time>
      </trkpt>
      <trkpt lat="47.51414" lon="6.77739">
        <ele>356</ele>
        <time>2016-05-29T09:57:58.000Z</time>
      </trkpt>
      <trkpt lat="47.51417" lon="6.77736">
        <ele>361</ele>
        <time>2016-05-29T09:58:01.000Z</time>
      </trkpt>
      <trkpt lat="47.51418" lon="6.77735">
        <ele>361</ele>
        <time>2016-05-29T09:58:02.000Z</time>
      </trkpt>
      <trkpt lat="47.51422" lon="6.77734">
        <ele>361</ele>
        <time>2016-05-29T09:58:05.000Z</time>
      </trkpt>
      <trkpt lat="47.51423" lon="6.77734">
        <ele>361</ele>
        <time>2016-05-29T09:58:06.000Z</time>
      </trkpt>
      <trkpt lat="47.51427" lon="6.77733">
        <ele>362</ele>
        <time>2016-05-29T09:58:09.000Z</time>
      </trkpt>
      <trkpt lat="47.51428" lon="6.77733">
        <ele>362</ele>
        <time>2016-05-29T09:58:10.000Z</time>
      </trkpt>
      <trkpt lat="47.51433" lon="6.77733">
        <ele>363</ele>
        <time>2016-05-29T09:58:13.000Z</time>
      </trkpt>
      <trkpt lat="47.51434" lon="6.77733">
        <ele>363</ele>
        <time>2016-05-29T09:58:14.000Z</time>
      </trkpt>
      <trkpt lat="47.51438" lon="6.77732">
        <ele>363</ele>
        <time>2016-05-29T09:58:17.000Z</time>
      </trkpt>
      <trkpt lat="47.51439" lon="6.77732">
        <ele>363</ele>
        <time>2016-05-29T09:58:18.000Z</time>
      </trkpt>
      <trkpt lat="47.51443" lon="6.77733">
        <ele>364</ele>
        <time>2016-05-29T09:58:22.000Z</time>
      </trkpt>
      <trkpt lat="47.51445" lon="6.77734">
        <ele>364</ele>
        <time>2016-05-29T09:58:23.000Z</time>
      </trkpt>
      <trkpt lat="47.51448" lon="6.77733">
        <ele>364</ele>
        <time>2016-05-29T09:58:25.000Z</time>
      </trkpt>
      <trkpt lat="47.51449" lon="6.77732">
        <ele>364</ele>
        <time>2016-05-29T09:58:26.000Z</time>
      </trkpt>
      <trkpt lat="47.51453" lon="6.7773">
        <ele>365</ele>
        <time>2016-05-29T09:58:28.000Z</time>
      </trkpt>
      <trkpt lat="47.51454" lon="6.7773">
        <ele>365</ele>
        <time>2016-05-29T09:58:29.000Z</time>
      </trkpt>
      <trkpt lat="47.51457" lon="6.7773">
        <ele>365</ele>
        <time>2016-05-29T09:58:31.000Z</time>
      </trkpt>
      <trkpt lat="47.51459" lon="6.77728">
        <ele>365</ele>
        <time>2016-05-29T09:58:32.000Z</time>
      </trkpt>
      <trkpt lat="47.51462" lon="6.77726">
        <ele>365</ele>
        <time>2016-05-29T09:58:35.000Z</time>
      </trkpt>
      <trkpt lat="47.51464" lon="6.77726">
        <ele>366</ele>
        <time>2016-05-29T09:58:36.000Z</time>
      </trkpt>
      <trkpt lat="47.51468" lon="6.77729">
        <ele>366</ele>
        <time>2016-05-29T09:58:39.000Z</time>
      </trkpt>
      <trkpt lat="47.51469" lon="6.77729">
        <ele>366</ele>
        <time>2016-05-29T09:58:40.000Z</time>
      </trkpt>
      <trkpt lat="47.51471" lon="6.77728">
        <ele>366</ele>
        <time>2016-05-29T09:58:42.000Z</time>
      </trkpt>
      <trkpt lat="47.51473" lon="6.77728">
        <ele>366</ele>
        <time>2016-05-29T09:58:43.000Z</time>
      </trkpt>
      <trkpt lat="47.51477" lon="6.77727">
        <ele>366</ele>
        <time>2016-05-29T09:58:45.000Z</time>
      </trkpt>
      <trkpt lat="47.51479" lon="6.77726">
        <ele>366</ele>
        <time>2016-05-29T09:58:46.000Z</time>
      </trkpt>
      <trkpt lat="47.51482" lon="6.77724">
        <ele>366</ele>
        <time>2016-05-29T09:58:48.000Z</time>
      </trkpt>
      <trkpt lat="47.51483" lon="6.77723">
        <ele>366</ele>
        <time>2016-05-29T09:58:49.000Z</time>
      </trkpt>
      <trkpt lat="47.51487" lon="6.77724">
        <ele>366</ele>
        <time>2016-05-29T09:58:52.000Z</time>
      </trkpt>
      <trkpt lat="47.51489" lon="6.77724">
        <ele>366</ele>
        <time>2016-05-29T09:58:53.000Z</time>
      </trkpt>
      <trkpt lat="47.51492" lon="6.77723">
        <ele>366</ele>
        <time>2016-05-29T09:58:55.000Z</time>
      </trkpt>
      <trkpt lat="47.51494" lon="6.77723">
        <ele>366</ele>
        <time>2016-05-29T09:58:56.000Z</time>
      </trkpt>
      <trkpt lat="47.51497" lon="6.77721">
        <ele>367</ele>
        <time>2016-05-29T09:58:58.000Z</time>
      </trkpt>
      <trkpt lat="47.51498" lon="6.7772">
        <ele>367</ele>
        <time>2016-05-29T09:58:59.000Z</time>
      </trkpt>
      <trkpt lat="47.51502" lon="6.77719">
        <ele>371</ele>
        <time>2016-05-29T09:59:01.000Z</time>
      </trkpt>
      <trkpt lat="47.51503" lon="6.7772">
        <ele>371</ele>
        <time>2016-05-29T09:59:02.000Z</time>
      </trkpt>
      <trkpt lat="47.51507" lon="6.77723">
        <ele>371</ele>
        <time>2016-05-29T09:59:05.000Z</time>
      </trkpt>
      <trkpt lat="47.51508" lon="6.77723">
        <ele>371</ele>
        <time>2016-05-29T09:59:06.000Z</time>
      </trkpt>
      <trkpt lat="47.51512" lon="6.77723">
        <ele>371</ele>
        <time>2016-05-29T09:59:10.000Z</time>
      </trkpt>
      <trkpt lat="47.51514" lon="6.77723">
        <ele>371</ele>
        <time>2016-05-29T09:59:11.000Z</time>
      </trkpt>
      <trkpt lat="47.51518" lon="6.77722">
        <ele>372</ele>
        <time>2016-05-29T09:59:14.000Z</time>
      </trkpt>
      <trkpt lat="47.51519" lon="6.77722">
        <ele>372</ele>
        <time>2016-05-29T09:59:15.000Z</time>
      </trkpt>
      <trkpt lat="47.51522" lon="6.77726">
        <ele>372</ele>
        <time>2016-05-29T09:59:21.000Z</time>
      </trkpt>
      <trkpt lat="47.51523" lon="6.77725">
        <ele>372</ele>
        <time>2016-05-29T09:59:22.000Z</time>
      </trkpt>
      <trkpt lat="47.51527" lon="6.77726">
        <ele>372</ele>
        <time>2016-05-29T09:59:26.000Z</time>
      </trkpt>
      <trkpt lat="47.51528" lon="6.77726">
        <ele>372</ele>
        <time>2016-05-29T09:59:27.000Z</time>
      </trkpt>
      <trkpt lat="47.51532" lon="6.77726">
        <ele>372</ele>
        <time>2016-05-29T09:59:31.000Z</time>
      </trkpt>
      <trkpt lat="47.51534" lon="6.77727">
        <ele>372</ele>
        <time>2016-05-29T09:59:32.000Z</time>
      </trkpt>
      <trkpt lat="47.51537" lon="6.77728">
        <ele>373</ele>
        <time>2016-05-29T09:59:34.000Z</time>
      </trkpt>
      <trkpt lat="47.51539" lon="6.77728">
        <ele>373</ele>
        <time>2016-05-29T09:59:35.000Z</time>
      </trkpt>
      <trkpt lat="47.51542" lon="6.77727">
        <ele>373</ele>
        <time>2016-05-29T09:59:37.000Z</time>
      </trkpt>
      <trkpt lat="47.51543" lon="6.77728">
        <ele>373</ele>
        <time>2016-05-29T09:59:38.000Z</time>
      </trkpt>
      <trkpt lat="47.51547" lon="6.77729">
        <ele>373</ele>
        <time>2016-05-29T09:59:41.000Z</time>
      </trkpt>
      <trkpt lat="47.51549" lon="6.77729">
        <ele>373</ele>
        <time>2016-05-29T09:59:42.000Z</time>
      </trkpt>
      <trkpt lat="47.51553" lon="6.7773">
        <ele>374</ele>
        <time>2016-05-29T09:59:45.000Z</time>
      </trkpt>
      <trkpt lat="47.51554" lon="6.7773">
        <ele>374</ele>
        <time>2016-05-29T09:59:46.000Z</time>
      </trkpt>
      <trkpt lat="47.51558" lon="6.77731">
        <ele>374</ele>
        <time>2016-05-29T09:59:48.000Z</time>
      </trkpt>
      <trkpt lat="47.51559" lon="6.77732">
        <ele>374</ele>
        <time>2016-05-29T09:59:49.000Z</time>
      </trkpt>
      <trkpt lat="47.51563" lon="6.77734">
        <ele>374</ele>
        <time>2016-05-29T09:59:52.000Z</time>
      </trkpt>
      <trkpt lat="47.51564" lon="6.77735">
        <ele>374</ele>
        <time>2016-05-29T09:59:53.000Z</time>
      </trkpt>
      <trkpt lat="47.51567" lon="6.77739">
        <ele>375</ele>
        <time>2016-05-29T09:59:57.000Z</time>
      </trkpt>
      <trkpt lat="47.51568" lon="6.77739">
        <ele>375</ele>
        <time>2016-05-29T09:59:58.000Z</time>
      </trkpt>
      <trkpt lat="47.51571" lon="6.77738">
        <ele>375</ele>
        <time>2016-05-29T10:00:01.000Z</time>
      </trkpt>
      <trkpt lat="47.51573" lon="6.77738">
        <ele>375</ele>
        <time>2016-05-29T10:00:02.000Z</time>
      </trkpt>
      <trkpt lat="47.51577" lon="6.77737">
        <ele>375</ele>
        <time>2016-05-29T10:00:05.000Z</time>
      </trkpt>
      <trkpt lat="47.51579" lon="6.77738">
        <ele>375</ele>
        <time>2016-05-29T10:00:06.000Z</time>
      </trkpt>
      <trkpt lat="47.51579" lon="6.77744">
        <ele>375</ele>
        <time>2016-05-29T10:00:10.000Z</time>
      </trkpt>
      <trkpt lat="47.51579" lon="6.77746">
        <ele>375</ele>
        <time>2016-05-29T10:00:11.000Z</time>
      </trkpt>
      <trkpt lat="47.51582" lon="6.77748">
        <ele>376</ele>
        <time>2016-05-29T10:00:13.000Z</time>
      </trkpt>
      <trkpt lat="47.51584" lon="6.77749">
        <ele>376</ele>
        <time>2016-05-29T10:00:14.000Z</time>
      </trkpt>
      <trkpt lat="47.51589" lon="6.7775">
        <ele>377</ele>
        <time>2016-05-29T10:00:16.000Z</time>
      </trkpt>
      <trkpt lat="47.51591" lon="6.77751">
        <ele>378</ele>
        <time>2016-05-29T10:00:17.000Z</time>
      </trkpt>
      <trkpt lat="47.51594" lon="6.77752">
        <ele>378</ele>
        <time>2016-05-29T10:00:19.000Z</time>
      </trkpt>
      <trkpt lat="47.51596" lon="6.77752">
        <ele>379</ele>
        <time>2016-05-29T10:00:20.000Z</time>
      </trkpt>
      <trkpt lat="47.51599" lon="6.77752">
        <ele>379</ele>
        <time>2016-05-29T10:00:23.000Z</time>
      </trkpt>
      <trkpt lat="47.51601" lon="6.77752">
        <ele>379</ele>
        <time>2016-05-29T10:00:24.000Z</time>
      </trkpt>
      <trkpt lat="47.51605" lon="6.77752">
        <ele>380</ele>
        <time>2016-05-29T10:00:26.000Z</time>
      </trkpt>
      <trkpt lat="47.51606" lon="6.77752">
        <ele>380</ele>
        <time>2016-05-29T10:00:27.000Z</time>
      </trkpt>
      <trkpt lat="47.5161" lon="6.77754">
        <ele>380</ele>
        <time>2016-05-29T10:00:31.000Z</time>
      </trkpt>
      <trkpt lat="47.51611" lon="6.77755">
        <ele>380</ele>
        <time>2016-05-29T10:00:32.000Z</time>
      </trkpt>
      <trkpt lat="47.51614" lon="6.77757">
        <ele>381</ele>
        <time>2016-05-29T10:00:35.000Z</time>
      </trkpt>
      <trkpt lat="47.51616" lon="6.77758">
        <ele>381</ele>
        <time>2016-05-29T10:00:36.000Z</time>
      </trkpt>
      <trkpt lat="47.5162" lon="6.77759">
        <ele>381</ele>
        <time>2016-05-29T10:00:39.000Z</time>
      </trkpt>
      <trkpt lat="47.51621" lon="6.7776">
        <ele>381</ele>
        <time>2016-05-29T10:00:40.000Z</time>
      </trkpt>
      <trkpt lat="47.51624" lon="6.77763">
        <ele>382</ele>
        <time>2016-05-29T10:00:42.000Z</time>
      </trkpt>
      <trkpt lat="47.51626" lon="6.77764">
        <ele>382</ele>
        <time>2016-05-29T10:00:43.000Z</time>
      </trkpt>
      <trkpt lat="47.51629" lon="6.77766">
        <ele>382</ele>
        <time>2016-05-29T10:00:45.000Z</time>
      </trkpt>
      <trkpt lat="47.51631" lon="6.77767">
        <ele>382</ele>
        <time>2016-05-29T10:00:46.000Z</time>
      </trkpt>
      <trkpt lat="47.51635" lon="6.77766">
        <ele>382</ele>
        <time>2016-05-29T10:00:49.000Z</time>
      </trkpt>
      <trkpt lat="47.51636" lon="6.77766">
        <ele>382</ele>
        <time>2016-05-29T10:00:50.000Z</time>
      </trkpt>
      <trkpt lat="47.51639" lon="6.77766">
        <ele>382</ele>
        <time>2016-05-29T10:00:52.000Z</time>
      </trkpt>
      <trkpt lat="47.51642" lon="6.77767">
        <ele>382</ele>
        <time>2016-05-29T10:00:53.000Z</time>
      </trkpt>
      <trkpt lat="47.51646" lon="6.77768">
        <ele>382</ele>
        <time>2016-05-29T10:00:55.000Z</time>
      </trkpt>
      <trkpt lat="47.51648" lon="6.77768">
        <ele>383</ele>
        <time>2016-05-29T10:00:56.000Z</time>
      </trkpt>
      <trkpt lat="47.51651" lon="6.7777">
        <ele>383</ele>
        <time>2016-05-29T10:00:58.000Z</time>
      </trkpt>
      <trkpt lat="47.51653" lon="6.77771">
        <ele>383</ele>
        <time>2016-05-29T10:00:59.000Z</time>
      </trkpt>
      <trkpt lat="47.51657" lon="6.77773">
        <ele>383</ele>
        <time>2016-05-29T10:01:01.000Z</time>
      </trkpt>
      <trkpt lat="47.51659" lon="6.77773">
        <ele>383</ele>
        <time>2016-05-29T10:01:02.000Z</time>
      </trkpt>
      <trkpt lat="47.51662" lon="6.77774">
        <ele>383</ele>
        <time>2016-05-29T10:01:04.000Z</time>
      </trkpt>
      <trkpt lat="47.51665" lon="6.77774">
        <ele>383</ele>
        <time>2016-05-29T10:01:05.000Z</time>
      </trkpt>
      <trkpt lat="47.51667" lon="6.77773">
        <ele>385</ele>
        <time>2016-05-29T10:01:06.000Z</time>
      </trkpt>
      <trkpt lat="47.51669" lon="6.77772">
        <ele>385</ele>
        <time>2016-05-29T10:01:07.000Z</time>
      </trkpt>
      <trkpt lat="47.51671" lon="6.77771">
        <ele>385</ele>
        <time>2016-05-29T10:01:08.000Z</time>
      </trkpt>
      <trkpt lat="47.51674" lon="6.7777">
        <ele>385</ele>
        <time>2016-05-29T10:01:09.000Z</time>
      </trkpt>
      <trkpt lat="47.51678" lon="6.77771">
        <ele>385</ele>
        <time>2016-05-29T10:01:11.000Z</time>
      </trkpt>
      <trkpt lat="47.5168" lon="6.77771">
        <ele>385</ele>
        <time>2016-05-29T10:01:11.999Z</time>
      </trkpt>
      <trkpt lat="47.51683" lon="6.77767">
        <ele>385</ele>
        <time>2016-05-29T10:01:16.000Z</time>
      </trkpt>
      <trkpt lat="47.51683" lon="6.77766">
        <ele>385</ele>
        <time>2016-05-29T10:01:17.000Z</time>
      </trkpt>
      <trkpt lat="47.51686" lon="6.77763">
        <ele>385</ele>
        <time>2016-05-29T10:01:19.000Z</time>
      </trkpt>
      <trkpt lat="47.51687" lon="6.77762">
        <ele>385</ele>
        <time>2016-05-29T10:01:20.000Z</time>
      </trkpt>
      <trkpt lat="47.5169" lon="6.77757">
        <ele>385</ele>
        <time>2016-05-29T10:01:22.000Z</time>
      </trkpt>
      <trkpt lat="47.51692" lon="6.77755">
        <ele>385</ele>
        <time>2016-05-29T10:01:23.000Z</time>
      </trkpt>
      <trkpt lat="47.51693" lon="6.77752">
        <ele>385</ele>
        <time>2016-05-29T10:01:24.000Z</time>
      </trkpt>
      <trkpt lat="47.51694" lon="6.77749">
        <ele>386</ele>
        <time>2016-05-29T10:01:25.000Z</time>
      </trkpt>
      <trkpt lat="47.51695" lon="6.77742">
        <ele>386</ele>
        <time>2016-05-29T10:01:27.000Z</time>
      </trkpt>
      <trkpt lat="47.51695" lon="6.77739">
        <ele>386</ele>
        <time>2016-05-29T10:01:28.000Z</time>
      </trkpt>
      <trkpt lat="47.51695" lon="6.77736">
        <ele>386</ele>
        <time>2016-05-29T10:01:29.000Z</time>
      </trkpt>
      <trkpt lat="47.51696" lon="6.77733">
        <ele>387</ele>
        <time>2016-05-29T10:01:30.000Z</time>
      </trkpt>
      <trkpt lat="47.51696" lon="6.77726">
        <ele>387</ele>
        <time>2016-05-29T10:01:32.000Z</time>
      </trkpt>
      <trkpt lat="47.51696" lon="6.77723">
        <ele>387</ele>
        <time>2016-05-29T10:01:33.000Z</time>
      </trkpt>
      <trkpt lat="47.51696" lon="6.7772">
        <ele>387</ele>
        <time>2016-05-29T10:01:34.000Z</time>
      </trkpt>
      <trkpt lat="47.51697" lon="6.77716">
        <ele>387</ele>
        <time>2016-05-29T10:01:35.000Z</time>
      </trkpt>
      <trkpt lat="47.51697" lon="6.77713">
        <ele>387</ele>
        <time>2016-05-29T10:01:36.000Z</time>
      </trkpt>
      <trkpt lat="47.51698" lon="6.7771">
        <ele>387</ele>
        <time>2016-05-29T10:01:37.000Z</time>
      </trkpt>
      <trkpt lat="47.51698" lon="6.77706">
        <ele>387</ele>
        <time>2016-05-29T10:01:38.000Z</time>
      </trkpt>
      <trkpt lat="47.51699" lon="6.77703">
        <ele>387</ele>
        <time>2016-05-29T10:01:39.000Z</time>
      </trkpt>
      <trkpt lat="47.517" lon="6.77698">
        <ele>387</ele>
        <time>2016-05-29T10:01:41.000Z</time>
      </trkpt>
      <trkpt lat="47.51701" lon="6.77695">
        <ele>388</ele>
        <time>2016-05-29T10:01:42.000Z</time>
      </trkpt>
      <trkpt lat="47.51701" lon="6.77691">
        <ele>388</ele>
        <time>2016-05-29T10:01:44.000Z</time>
      </trkpt>
      <trkpt lat="47.51702" lon="6.77688">
        <ele>388</ele>
        <time>2016-05-29T10:01:45.000Z</time>
      </trkpt>
      <trkpt lat="47.51702" lon="6.77683">
        <ele>388</ele>
        <time>2016-05-29T10:01:47.000Z</time>
      </trkpt>
      <trkpt lat="47.51703" lon="6.7768">
        <ele>388</ele>
        <time>2016-05-29T10:01:48.000Z</time>
      </trkpt>
      <trkpt lat="47.51705" lon="6.77675">
        <ele>388</ele>
        <time>2016-05-29T10:01:50.000Z</time>
      </trkpt>
      <trkpt lat="47.51706" lon="6.77672">
        <ele>388</ele>
        <time>2016-05-29T10:01:51.000Z</time>
      </trkpt>
      <trkpt lat="47.51706" lon="6.77667">
        <ele>389</ele>
        <time>2016-05-29T10:01:53.000Z</time>
      </trkpt>
      <trkpt lat="47.51706" lon="6.77664">
        <ele>389</ele>
        <time>2016-05-29T10:01:54.000Z</time>
      </trkpt>
      <trkpt lat="47.51707" lon="6.77658">
        <ele>389</ele>
        <time>2016-05-29T10:01:56.000Z</time>
      </trkpt>
      <trkpt lat="47.51707" lon="6.77655">
        <ele>389</ele>
        <time>2016-05-29T10:01:57.000Z</time>
      </trkpt>
      <trkpt lat="47.51707" lon="6.77652">
        <ele>389</ele>
        <time>2016-05-29T10:01:58.000Z</time>
      </trkpt>
      <trkpt lat="47.51708" lon="6.77648">
        <ele>390</ele>
        <time>2016-05-29T10:01:59.000Z</time>
      </trkpt>
      <trkpt lat="47.51708" lon="6.77644">
        <ele>390</ele>
        <time>2016-05-29T10:02:00.000Z</time>
      </trkpt>
      <trkpt lat="47.51708" lon="6.77641">
        <ele>390</ele>
        <time>2016-05-29T10:02:01.000Z</time>
      </trkpt>
      <trkpt lat="47.51709" lon="6.77634">
        <ele>390</ele>
        <time>2016-05-29T10:02:03.000Z</time>
      </trkpt>
      <trkpt lat="47.51709" lon="6.77631">
        <ele>390</ele>
        <time>2016-05-29T10:02:04.000Z</time>
      </trkpt>
      <trkpt lat="47.51709" lon="6.77624">
        <ele>390</ele>
        <time>2016-05-29T10:02:06.000Z</time>
      </trkpt>
      <trkpt lat="47.5171" lon="6.7762">
        <ele>390</ele>
        <time>2016-05-29T10:02:07.000Z</time>
      </trkpt>
      <trkpt lat="47.51711" lon="6.77614">
        <ele>390</ele>
        <time>2016-05-29T10:02:09.000Z</time>
      </trkpt>
      <trkpt lat="47.51712" lon="6.77611">
        <ele>390</ele>
        <time>2016-05-29T10:02:10.000Z</time>
      </trkpt>
      <trkpt lat="47.51713" lon="6.77608">
        <ele>390</ele>
        <time>2016-05-29T10:02:11.000Z</time>
      </trkpt>
      <trkpt lat="47.51714" lon="6.77605">
        <ele>390</ele>
        <time>2016-05-29T10:02:12.000Z</time>
      </trkpt>
      <trkpt lat="47.51715" lon="6.77599">
        <ele>390</ele>
        <time>2016-05-29T10:02:14.000Z</time>
      </trkpt>
      <trkpt lat="47.51716" lon="6.77597">
        <ele>390</ele>
        <time>2016-05-29T10:02:15.000Z</time>
      </trkpt>
      <trkpt lat="47.51721" lon="6.77598">
        <ele>390</ele>
        <time>2016-05-29T10:02:22.000Z</time>
      </trkpt>
      <trkpt lat="47.51722" lon="6.77598">
        <ele>390</ele>
        <time>2016-05-29T10:02:23.001Z</time>
      </trkpt>
      <trkpt lat="47.51724" lon="6.77593">
        <ele>390</ele>
        <time>2016-05-29T10:02:32.000Z</time>
      </trkpt>
      <trkpt lat="47.51724" lon="6.77593">
        <ele>390</ele>
        <time>2016-05-29T10:02:33.000Z</time>
      </trkpt>
      <trkpt lat="47.51725" lon="6.7759">
        <ele>391</ele>
        <time>2016-05-29T10:02:43.000Z</time>
      </trkpt>
      <trkpt lat="47.51726" lon="6.77587">
        <ele>391</ele>
        <time>2016-05-29T10:02:44.000Z</time>
      </trkpt>
      <trkpt lat="47.51726" lon="6.77584">
        <ele>391</ele>
        <time>2016-05-29T10:02:45.000Z</time>
      </trkpt>
      <trkpt lat="47.51725" lon="6.7758">
        <ele>391</ele>
        <time>2016-05-29T10:02:46.000Z</time>
      </trkpt>
      <trkpt lat="47.51722" lon="6.77574">
        <ele>391</ele>
        <time>2016-05-29T10:02:47.000Z</time>
      </trkpt>
      <trkpt lat="47.51719" lon="6.7757">
        <ele>390</ele>
        <time>2016-05-29T10:02:48.000Z</time>
      </trkpt>
      <trkpt lat="47.51717" lon="6.77567">
        <ele>390</ele>
        <time>2016-05-29T10:02:49.000Z</time>
      </trkpt>
      <trkpt lat="47.51714" lon="6.77564">
        <ele>390</ele>
        <time>2016-05-29T10:02:50.000Z</time>
      </trkpt>
      <trkpt lat="47.51715" lon="6.77559">
        <ele>390</ele>
        <time>2016-05-29T10:02:51.000Z</time>
      </trkpt>
      <trkpt lat="47.51716" lon="6.77554">
        <ele>390</ele>
        <time>2016-05-29T10:02:52.000Z</time>
      </trkpt>
      <trkpt lat="47.51718" lon="6.77548">
        <ele>390</ele>
        <time>2016-05-29T10:02:53.000Z</time>
      </trkpt>
      <trkpt lat="47.51723" lon="6.77537">
        <ele>390</ele>
        <time>2016-05-29T10:02:54.000Z</time>
      </trkpt>
      <trkpt lat="47.51724" lon="6.77531">
        <ele>390</ele>
        <time>2016-05-29T10:02:55.000Z</time>
      </trkpt>
      <trkpt lat="47.51725" lon="6.77526">
        <ele>390</ele>
        <time>2016-05-29T10:02:56.000Z</time>
      </trkpt>
      <trkpt lat="47.51725" lon="6.7752">
        <ele>390</ele>
        <time>2016-05-29T10:02:57.000Z</time>
      </trkpt>
      <trkpt lat="47.51725" lon="6.77515">
        <ele>390</ele>
        <time>2016-05-29T10:02:57.999Z</time>
      </trkpt>
      <trkpt lat="47.51727" lon="6.77509">
        <ele>390</ele>
        <time>2016-05-29T10:02:59.000Z</time>
      </trkpt>
      <trkpt lat="47.51729" lon="6.77503">
        <ele>390</ele>
        <time>2016-05-29T10:03:00.000Z</time>
      </trkpt>
      <trkpt lat="47.5173" lon="6.77497">
        <ele>389</ele>
        <time>2016-05-29T10:03:01.000Z</time>
      </trkpt>
      <trkpt lat="47.51731" lon="6.77491">
        <ele>389</ele>
        <time>2016-05-29T10:03:02.000Z</time>
      </trkpt>
      <trkpt lat="47.51734" lon="6.77487">
        <ele>389</ele>
        <time>2016-05-29T10:03:03.000Z</time>
      </trkpt>
      <trkpt lat="47.51736" lon="6.77482">
        <ele>389</ele>
        <time>2016-05-29T10:03:04.000Z</time>
      </trkpt>
      <trkpt lat="47.51739" lon="6.77479">
        <ele>389</ele>
        <time>2016-05-29T10:03:05.000Z</time>
      </trkpt>
      <trkpt lat="47.51742" lon="6.77479">
        <ele>389</ele>
        <time>2016-05-29T10:03:06.000Z</time>
      </trkpt>
      <trkpt lat="47.51746" lon="6.7748">
        <ele>389</ele>
        <time>2016-05-29T10:03:07.000Z</time>
      </trkpt>
      <trkpt lat="47.51749" lon="6.77481">
        <ele>389</ele>
        <time>2016-05-29T10:03:08.000Z</time>
      </trkpt>
      <trkpt lat="47.51752" lon="6.77483">
        <ele>389</ele>
        <time>2016-05-29T10:03:09.000Z</time>
      </trkpt>
      <trkpt lat="47.51756" lon="6.77484">
        <ele>389</ele>
        <time>2016-05-29T10:03:10.000Z</time>
      </trkpt>
      <trkpt lat="47.5176" lon="6.77484">
        <ele>389</ele>
        <time>2016-05-29T10:03:11.000Z</time>
      </trkpt>
      <trkpt lat="47.51763" lon="6.77485">
        <ele>389</ele>
        <time>2016-05-29T10:03:12.000Z</time>
      </trkpt>
      <trkpt lat="47.51767" lon="6.77485">
        <ele>389</ele>
        <time>2016-05-29T10:03:13.000Z</time>
      </trkpt>
      <trkpt lat="47.51772" lon="6.77485">
        <ele>388</ele>
        <time>2016-05-29T10:03:14.000Z</time>
      </trkpt>
      <trkpt lat="47.51777" lon="6.77486">
        <ele>388</ele>
        <time>2016-05-29T10:03:15.000Z</time>
      </trkpt>
      <trkpt lat="47.51781" lon="6.77487">
        <ele>388</ele>
        <time>2016-05-29T10:03:16.000Z</time>
      </trkpt>
      <trkpt lat="47.51782" lon="6.7749">
        <ele>388</ele>
        <time>2016-05-29T10:03:17.000Z</time>
      </trkpt>
      <trkpt lat="47.51785" lon="6.77492">
        <ele>388</ele>
        <time>2016-05-29T10:03:18.000Z</time>
      </trkpt>
      <trkpt lat="47.5179" lon="6.77494">
        <ele>388</ele>
        <time>2016-05-29T10:03:19.001Z</time>
      </trkpt>
      <trkpt lat="47.51792" lon="6.77496">
        <ele>388</ele>
        <time>2016-05-29T10:03:20.000Z</time>
      </trkpt>
      <trkpt lat="47.51795" lon="6.77497">
        <ele>388</ele>
        <time>2016-05-29T10:03:21.000Z</time>
      </trkpt>
      <trkpt lat="47.51798" lon="6.77498">
        <ele>388</ele>
        <time>2016-05-29T10:03:22.000Z</time>
      </trkpt>
      <trkpt lat="47.51801" lon="6.77498">
        <ele>388</ele>
        <time>2016-05-29T10:03:23.000Z</time>
      </trkpt>
      <trkpt lat="47.51804" lon="6.775">
        <ele>388</ele>
        <time>2016-05-29T10:03:25.000Z</time>
      </trkpt>
      <trkpt lat="47.51806" lon="6.77499">
        <ele>388</ele>
        <time>2016-05-29T10:03:26.000Z</time>
      </trkpt>
      <trkpt lat="47.51808" lon="6.77496">
        <ele>388</ele>
        <time>2016-05-29T10:03:28.000Z</time>
      </trkpt>
      <trkpt lat="47.51806" lon="6.77483">
        <ele>388</ele>
        <time>2016-05-29T10:03:29.000Z</time>
      </trkpt>
      <trkpt lat="47.51807" lon="6.7748">
        <ele>388</ele>
        <time>2016-05-29T10:03:30.000Z</time>
      </trkpt>
      <trkpt lat="47.51806" lon="6.77475">
        <ele>388</ele>
        <time>2016-05-29T10:03:31.000Z</time>
      </trkpt>
      <trkpt lat="47.51805" lon="6.77471">
        <ele>388</ele>
        <time>2016-05-29T10:03:32.001Z</time>
      </trkpt>
      <trkpt lat="47.51804" lon="6.77467">
        <ele>388</ele>
        <time>2016-05-29T10:03:33.000Z</time>
      </trkpt>
      <trkpt lat="47.518" lon="6.77463">
        <ele>388</ele>
        <time>2016-05-29T10:03:37.000Z</time>
      </trkpt>
      <trkpt lat="47.51799" lon="6.77463">
        <ele>388</ele>
        <time>2016-05-29T10:03:38.000Z</time>
      </trkpt>
      <trkpt lat="47.51803" lon="6.77462">
        <ele>388</ele>
        <time>2016-05-29T10:03:59.000Z</time>
      </trkpt>
      <trkpt lat="47.51804" lon="6.77463">
        <ele>388</ele>
        <time>2016-05-29T10:04:00.000Z</time>
      </trkpt>
      <trkpt lat="47.51807" lon="6.77467">
        <ele>388</ele>
        <time>2016-05-29T10:04:04.000Z</time>
      </trkpt>
      <trkpt lat="47.51808" lon="6.77469">
        <ele>388</ele>
        <time>2016-05-29T10:04:05.000Z</time>
      </trkpt>
      <trkpt lat="47.51807" lon="6.77474">
        <ele>388</ele>
        <time>2016-05-29T10:04:12.000Z</time>
      </trkpt>
      <trkpt lat="47.51806" lon="6.77475">
        <ele>388</ele>
        <time>2016-05-29T10:04:13.000Z</time>
      </trkpt>
      <trkpt lat="47.51805" lon="6.77474">
        <ele>388</ele>
        <time>2016-05-29T10:05:38.000Z</time>
      </trkpt>
    </trkseg>
  </trk>
</gpx>